<?xml version="1.0" encoding="UTF-8"?>
<gpx xmlns="http://www.topografix.com/GPX/1/1"
     creator="GpsDumpMac 0.29"
     version="1.1"
     xmlns:xsi="http://www.w3.org/2001/XMLSchema-instance"
     xsi:schemaLocation="http://www.topografix.com/GPX/1/1 http://www.topografix.com/GPX/1/1/gpx.xsd">
  <metadata>
    <link href="http://www.gethome.no/stein.sorensen/">
      <text>GPS dump for www.flightlog.org</text>
    </link>
    <time>2018-09-04T07:46:07Z</time>
    <bounds minlat="40.231717" minlon="-4.914950" maxlat="40.314667" maxlon="-4.568417"/>
  </metadata>
  <trk>
    <name>Track 001</name>
    <trkseg>
      <trkpt lat="40.256250" lon="-4.905900">
        <ele>1251.0</ele>
        <time>2018-06-24T12:39:52Z</time>
      </trkpt>
      <trkpt lat="40.256183" lon="-4.905950">
        <ele>1251.0</ele>
        <time>2018-06-24T12:39:53Z</time>
      </trkpt>
      <trkpt lat="40.256117" lon="-4.905983">
        <ele>1250.0</ele>
        <time>2018-06-24T12:39:54Z</time>
      </trkpt>
      <trkpt lat="40.256050" lon="-4.906000">
        <ele>1250.0</ele>
        <time>2018-06-24T12:39:55Z</time>
      </trkpt>
      <trkpt lat="40.255983" lon="-4.906017">
        <ele>1249.0</ele>
        <time>2018-06-24T12:39:56Z</time>
      </trkpt>
      <trkpt lat="40.255900" lon="-4.906017">
        <ele>1247.0</ele>
        <time>2018-06-24T12:39:57Z</time>
      </trkpt>
      <trkpt lat="40.255817" lon="-4.906017">
        <ele>1247.0</ele>
        <time>2018-06-24T12:39:58Z</time>
      </trkpt>
      <trkpt lat="40.255733" lon="-4.906017">
        <ele>1247.0</ele>
        <time>2018-06-24T12:39:59Z</time>
      </trkpt>
      <trkpt lat="40.255650" lon="-4.906000">
        <ele>1249.0</ele>
        <time>2018-06-24T12:40:00Z</time>
      </trkpt>
      <trkpt lat="40.255583" lon="-4.905983">
        <ele>1250.0</ele>
        <time>2018-06-24T12:40:01Z</time>
      </trkpt>
      <trkpt lat="40.255533" lon="-4.905967">
        <ele>1250.0</ele>
        <time>2018-06-24T12:40:02Z</time>
      </trkpt>
      <trkpt lat="40.255467" lon="-4.905950">
        <ele>1248.0</ele>
        <time>2018-06-24T12:40:03Z</time>
      </trkpt>
      <trkpt lat="40.255400" lon="-4.905933">
        <ele>1247.0</ele>
        <time>2018-06-24T12:40:04Z</time>
      </trkpt>
      <trkpt lat="40.255317" lon="-4.905917">
        <ele>1245.0</ele>
        <time>2018-06-24T12:40:05Z</time>
      </trkpt>
      <trkpt lat="40.255250" lon="-4.905867">
        <ele>1243.0</ele>
        <time>2018-06-24T12:40:06Z</time>
      </trkpt>
      <trkpt lat="40.255183" lon="-4.905817">
        <ele>1242.0</ele>
        <time>2018-06-24T12:40:07Z</time>
      </trkpt>
      <trkpt lat="40.255100" lon="-4.905750">
        <ele>1241.0</ele>
        <time>2018-06-24T12:40:08Z</time>
      </trkpt>
      <trkpt lat="40.255033" lon="-4.905700">
        <ele>1240.0</ele>
        <time>2018-06-24T12:40:09Z</time>
      </trkpt>
      <trkpt lat="40.254950" lon="-4.905650">
        <ele>1239.0</ele>
        <time>2018-06-24T12:40:10Z</time>
      </trkpt>
      <trkpt lat="40.254883" lon="-4.905617">
        <ele>1239.0</ele>
        <time>2018-06-24T12:40:11Z</time>
      </trkpt>
      <trkpt lat="40.254817" lon="-4.905567">
        <ele>1238.0</ele>
        <time>2018-06-24T12:40:12Z</time>
      </trkpt>
      <trkpt lat="40.254750" lon="-4.905517">
        <ele>1236.0</ele>
        <time>2018-06-24T12:40:13Z</time>
      </trkpt>
      <trkpt lat="40.254683" lon="-4.905483">
        <ele>1234.0</ele>
        <time>2018-06-24T12:40:14Z</time>
      </trkpt>
      <trkpt lat="40.254583" lon="-4.905467">
        <ele>1231.0</ele>
        <time>2018-06-24T12:40:15Z</time>
      </trkpt>
      <trkpt lat="40.254500" lon="-4.905467">
        <ele>1229.0</ele>
        <time>2018-06-24T12:40:16Z</time>
      </trkpt>
      <trkpt lat="40.254417" lon="-4.905483">
        <ele>1228.0</ele>
        <time>2018-06-24T12:40:17Z</time>
      </trkpt>
      <trkpt lat="40.254333" lon="-4.905500">
        <ele>1227.0</ele>
        <time>2018-06-24T12:40:18Z</time>
      </trkpt>
      <trkpt lat="40.254250" lon="-4.905533">
        <ele>1226.0</ele>
        <time>2018-06-24T12:40:19Z</time>
      </trkpt>
      <trkpt lat="40.254167" lon="-4.905567">
        <ele>1224.0</ele>
        <time>2018-06-24T12:40:20Z</time>
      </trkpt>
      <trkpt lat="40.254083" lon="-4.905617">
        <ele>1222.0</ele>
        <time>2018-06-24T12:40:21Z</time>
      </trkpt>
      <trkpt lat="40.254000" lon="-4.905650">
        <ele>1221.0</ele>
        <time>2018-06-24T12:40:22Z</time>
      </trkpt>
      <trkpt lat="40.253900" lon="-4.905667">
        <ele>1220.0</ele>
        <time>2018-06-24T12:40:23Z</time>
      </trkpt>
      <trkpt lat="40.253817" lon="-4.905700">
        <ele>1218.0</ele>
        <time>2018-06-24T12:40:24Z</time>
      </trkpt>
      <trkpt lat="40.253733" lon="-4.905750">
        <ele>1217.0</ele>
        <time>2018-06-24T12:40:25Z</time>
      </trkpt>
      <trkpt lat="40.253650" lon="-4.905800">
        <ele>1215.0</ele>
        <time>2018-06-24T12:40:26Z</time>
      </trkpt>
      <trkpt lat="40.253567" lon="-4.905867">
        <ele>1213.0</ele>
        <time>2018-06-24T12:40:27Z</time>
      </trkpt>
      <trkpt lat="40.253500" lon="-4.905917">
        <ele>1212.0</ele>
        <time>2018-06-24T12:40:28Z</time>
      </trkpt>
      <trkpt lat="40.253417" lon="-4.905983">
        <ele>1210.0</ele>
        <time>2018-06-24T12:40:29Z</time>
      </trkpt>
      <trkpt lat="40.253350" lon="-4.906033">
        <ele>1208.0</ele>
        <time>2018-06-24T12:40:30Z</time>
      </trkpt>
      <trkpt lat="40.253267" lon="-4.906067">
        <ele>1206.0</ele>
        <time>2018-06-24T12:40:31Z</time>
      </trkpt>
      <trkpt lat="40.253167" lon="-4.906083">
        <ele>1204.0</ele>
        <time>2018-06-24T12:40:32Z</time>
      </trkpt>
      <trkpt lat="40.253083" lon="-4.906100">
        <ele>1202.0</ele>
        <time>2018-06-24T12:40:33Z</time>
      </trkpt>
      <trkpt lat="40.252983" lon="-4.906117">
        <ele>1202.0</ele>
        <time>2018-06-24T12:40:34Z</time>
      </trkpt>
      <trkpt lat="40.252883" lon="-4.906117">
        <ele>1202.0</ele>
        <time>2018-06-24T12:40:35Z</time>
      </trkpt>
      <trkpt lat="40.252800" lon="-4.906117">
        <ele>1201.0</ele>
        <time>2018-06-24T12:40:36Z</time>
      </trkpt>
      <trkpt lat="40.252717" lon="-4.906117">
        <ele>1199.0</ele>
        <time>2018-06-24T12:40:37Z</time>
      </trkpt>
      <trkpt lat="40.252617" lon="-4.906117">
        <ele>1198.0</ele>
        <time>2018-06-24T12:40:38Z</time>
      </trkpt>
      <trkpt lat="40.252533" lon="-4.906100">
        <ele>1195.0</ele>
        <time>2018-06-24T12:40:39Z</time>
      </trkpt>
      <trkpt lat="40.252433" lon="-4.906083">
        <ele>1194.0</ele>
        <time>2018-06-24T12:40:40Z</time>
      </trkpt>
      <trkpt lat="40.252350" lon="-4.906067">
        <ele>1192.0</ele>
        <time>2018-06-24T12:40:41Z</time>
      </trkpt>
      <trkpt lat="40.252250" lon="-4.906033">
        <ele>1192.0</ele>
        <time>2018-06-24T12:40:42Z</time>
      </trkpt>
      <trkpt lat="40.252150" lon="-4.906000">
        <ele>1192.0</ele>
        <time>2018-06-24T12:40:43Z</time>
      </trkpt>
      <trkpt lat="40.252067" lon="-4.905983">
        <ele>1193.0</ele>
        <time>2018-06-24T12:40:44Z</time>
      </trkpt>
      <trkpt lat="40.251983" lon="-4.905967">
        <ele>1193.0</ele>
        <time>2018-06-24T12:40:45Z</time>
      </trkpt>
      <trkpt lat="40.251900" lon="-4.905967">
        <ele>1193.0</ele>
        <time>2018-06-24T12:40:46Z</time>
      </trkpt>
      <trkpt lat="40.251817" lon="-4.906000">
        <ele>1190.0</ele>
        <time>2018-06-24T12:40:47Z</time>
      </trkpt>
      <trkpt lat="40.251750" lon="-4.906000">
        <ele>1188.0</ele>
        <time>2018-06-24T12:40:48Z</time>
      </trkpt>
      <trkpt lat="40.251650" lon="-4.906017">
        <ele>1185.0</ele>
        <time>2018-06-24T12:40:49Z</time>
      </trkpt>
      <trkpt lat="40.251550" lon="-4.906000">
        <ele>1182.0</ele>
        <time>2018-06-24T12:40:50Z</time>
      </trkpt>
      <trkpt lat="40.251450" lon="-4.905967">
        <ele>1180.0</ele>
        <time>2018-06-24T12:40:51Z</time>
      </trkpt>
      <trkpt lat="40.251350" lon="-4.905917">
        <ele>1178.0</ele>
        <time>2018-06-24T12:40:52Z</time>
      </trkpt>
      <trkpt lat="40.251267" lon="-4.905867">
        <ele>1176.0</ele>
        <time>2018-06-24T12:40:53Z</time>
      </trkpt>
      <trkpt lat="40.251183" lon="-4.905800">
        <ele>1174.0</ele>
        <time>2018-06-24T12:40:54Z</time>
      </trkpt>
      <trkpt lat="40.251083" lon="-4.905750">
        <ele>1172.0</ele>
        <time>2018-06-24T12:40:55Z</time>
      </trkpt>
      <trkpt lat="40.251000" lon="-4.905717">
        <ele>1170.0</ele>
        <time>2018-06-24T12:40:56Z</time>
      </trkpt>
      <trkpt lat="40.250900" lon="-4.905700">
        <ele>1168.0</ele>
        <time>2018-06-24T12:40:57Z</time>
      </trkpt>
      <trkpt lat="40.250800" lon="-4.905683">
        <ele>1166.0</ele>
        <time>2018-06-24T12:40:58Z</time>
      </trkpt>
      <trkpt lat="40.250717" lon="-4.905667">
        <ele>1165.0</ele>
        <time>2018-06-24T12:40:59Z</time>
      </trkpt>
      <trkpt lat="40.250617" lon="-4.905650">
        <ele>1163.0</ele>
        <time>2018-06-24T12:41:00Z</time>
      </trkpt>
      <trkpt lat="40.250517" lon="-4.905617">
        <ele>1161.0</ele>
        <time>2018-06-24T12:41:01Z</time>
      </trkpt>
      <trkpt lat="40.250433" lon="-4.905600">
        <ele>1159.0</ele>
        <time>2018-06-24T12:41:02Z</time>
      </trkpt>
      <trkpt lat="40.250333" lon="-4.905567">
        <ele>1157.0</ele>
        <time>2018-06-24T12:41:03Z</time>
      </trkpt>
      <trkpt lat="40.250233" lon="-4.905550">
        <ele>1155.0</ele>
        <time>2018-06-24T12:41:04Z</time>
      </trkpt>
      <trkpt lat="40.250133" lon="-4.905533">
        <ele>1152.0</ele>
        <time>2018-06-24T12:41:05Z</time>
      </trkpt>
      <trkpt lat="40.250033" lon="-4.905500">
        <ele>1150.0</ele>
        <time>2018-06-24T12:41:06Z</time>
      </trkpt>
      <trkpt lat="40.249917" lon="-4.905467">
        <ele>1147.0</ele>
        <time>2018-06-24T12:41:07Z</time>
      </trkpt>
      <trkpt lat="40.249817" lon="-4.905433">
        <ele>1146.0</ele>
        <time>2018-06-24T12:41:08Z</time>
      </trkpt>
      <trkpt lat="40.249700" lon="-4.905383">
        <ele>1146.0</ele>
        <time>2018-06-24T12:41:09Z</time>
      </trkpt>
      <trkpt lat="40.249600" lon="-4.905333">
        <ele>1147.0</ele>
        <time>2018-06-24T12:41:10Z</time>
      </trkpt>
      <trkpt lat="40.249517" lon="-4.905283">
        <ele>1149.0</ele>
        <time>2018-06-24T12:41:11Z</time>
      </trkpt>
      <trkpt lat="40.249433" lon="-4.905233">
        <ele>1150.0</ele>
        <time>2018-06-24T12:41:12Z</time>
      </trkpt>
      <trkpt lat="40.249350" lon="-4.905200">
        <ele>1150.0</ele>
        <time>2018-06-24T12:41:13Z</time>
      </trkpt>
      <trkpt lat="40.249267" lon="-4.905217">
        <ele>1151.0</ele>
        <time>2018-06-24T12:41:14Z</time>
      </trkpt>
      <trkpt lat="40.249183" lon="-4.905283">
        <ele>1151.0</ele>
        <time>2018-06-24T12:41:15Z</time>
      </trkpt>
      <trkpt lat="40.249117" lon="-4.905367">
        <ele>1152.0</ele>
        <time>2018-06-24T12:41:16Z</time>
      </trkpt>
      <trkpt lat="40.249100" lon="-4.905483">
        <ele>1152.0</ele>
        <time>2018-06-24T12:41:17Z</time>
      </trkpt>
      <trkpt lat="40.249117" lon="-4.905600">
        <ele>1151.0</ele>
        <time>2018-06-24T12:41:18Z</time>
      </trkpt>
      <trkpt lat="40.249167" lon="-4.905700">
        <ele>1149.0</ele>
        <time>2018-06-24T12:41:19Z</time>
      </trkpt>
      <trkpt lat="40.249267" lon="-4.905767">
        <ele>1148.0</ele>
        <time>2018-06-24T12:41:20Z</time>
      </trkpt>
      <trkpt lat="40.249367" lon="-4.905783">
        <ele>1148.0</ele>
        <time>2018-06-24T12:41:21Z</time>
      </trkpt>
      <trkpt lat="40.249450" lon="-4.905750">
        <ele>1149.0</ele>
        <time>2018-06-24T12:41:22Z</time>
      </trkpt>
      <trkpt lat="40.249533" lon="-4.905683">
        <ele>1150.0</ele>
        <time>2018-06-24T12:41:23Z</time>
      </trkpt>
      <trkpt lat="40.249567" lon="-4.905600">
        <ele>1151.0</ele>
        <time>2018-06-24T12:41:24Z</time>
      </trkpt>
      <trkpt lat="40.249600" lon="-4.905483">
        <ele>1150.0</ele>
        <time>2018-06-24T12:41:25Z</time>
      </trkpt>
      <trkpt lat="40.249600" lon="-4.905350">
        <ele>1149.0</ele>
        <time>2018-06-24T12:41:26Z</time>
      </trkpt>
      <trkpt lat="40.249567" lon="-4.905233">
        <ele>1148.0</ele>
        <time>2018-06-24T12:41:27Z</time>
      </trkpt>
      <trkpt lat="40.249517" lon="-4.905117">
        <ele>1148.0</ele>
        <time>2018-06-24T12:41:28Z</time>
      </trkpt>
      <trkpt lat="40.249450" lon="-4.905033">
        <ele>1149.0</ele>
        <time>2018-06-24T12:41:29Z</time>
      </trkpt>
      <trkpt lat="40.249400" lon="-4.904950">
        <ele>1150.0</ele>
        <time>2018-06-24T12:41:30Z</time>
      </trkpt>
      <trkpt lat="40.249333" lon="-4.904883">
        <ele>1151.0</ele>
        <time>2018-06-24T12:41:31Z</time>
      </trkpt>
      <trkpt lat="40.249267" lon="-4.904817">
        <ele>1151.0</ele>
        <time>2018-06-24T12:41:32Z</time>
      </trkpt>
      <trkpt lat="40.249200" lon="-4.904767">
        <ele>1151.0</ele>
        <time>2018-06-24T12:41:33Z</time>
      </trkpt>
      <trkpt lat="40.249133" lon="-4.904733">
        <ele>1150.0</ele>
        <time>2018-06-24T12:41:34Z</time>
      </trkpt>
      <trkpt lat="40.249050" lon="-4.904717">
        <ele>1149.0</ele>
        <time>2018-06-24T12:41:35Z</time>
      </trkpt>
      <trkpt lat="40.248950" lon="-4.904683">
        <ele>1149.0</ele>
        <time>2018-06-24T12:41:36Z</time>
      </trkpt>
      <trkpt lat="40.248867" lon="-4.904633">
        <ele>1149.0</ele>
        <time>2018-06-24T12:41:37Z</time>
      </trkpt>
      <trkpt lat="40.248800" lon="-4.904567">
        <ele>1151.0</ele>
        <time>2018-06-24T12:41:38Z</time>
      </trkpt>
      <trkpt lat="40.248750" lon="-4.904500">
        <ele>1151.0</ele>
        <time>2018-06-24T12:41:39Z</time>
      </trkpt>
      <trkpt lat="40.248700" lon="-4.904417">
        <ele>1151.0</ele>
        <time>2018-06-24T12:41:40Z</time>
      </trkpt>
      <trkpt lat="40.248650" lon="-4.904350">
        <ele>1151.0</ele>
        <time>2018-06-24T12:41:41Z</time>
      </trkpt>
      <trkpt lat="40.248583" lon="-4.904283">
        <ele>1151.0</ele>
        <time>2018-06-24T12:41:42Z</time>
      </trkpt>
      <trkpt lat="40.248500" lon="-4.904233">
        <ele>1150.0</ele>
        <time>2018-06-24T12:41:43Z</time>
      </trkpt>
      <trkpt lat="40.248433" lon="-4.904183">
        <ele>1148.0</ele>
        <time>2018-06-24T12:41:44Z</time>
      </trkpt>
      <trkpt lat="40.248350" lon="-4.904133">
        <ele>1147.0</ele>
        <time>2018-06-24T12:41:45Z</time>
      </trkpt>
      <trkpt lat="40.248283" lon="-4.904083">
        <ele>1145.0</ele>
        <time>2018-06-24T12:41:46Z</time>
      </trkpt>
      <trkpt lat="40.248200" lon="-4.904033">
        <ele>1143.0</ele>
        <time>2018-06-24T12:41:47Z</time>
      </trkpt>
      <trkpt lat="40.248117" lon="-4.903967">
        <ele>1141.0</ele>
        <time>2018-06-24T12:41:48Z</time>
      </trkpt>
      <trkpt lat="40.248050" lon="-4.903917">
        <ele>1139.0</ele>
        <time>2018-06-24T12:41:49Z</time>
      </trkpt>
      <trkpt lat="40.247967" lon="-4.903850">
        <ele>1138.0</ele>
        <time>2018-06-24T12:41:50Z</time>
      </trkpt>
      <trkpt lat="40.247900" lon="-4.903800">
        <ele>1136.0</ele>
        <time>2018-06-24T12:41:51Z</time>
      </trkpt>
      <trkpt lat="40.247800" lon="-4.903750">
        <ele>1134.0</ele>
        <time>2018-06-24T12:41:52Z</time>
      </trkpt>
      <trkpt lat="40.247717" lon="-4.903717">
        <ele>1133.0</ele>
        <time>2018-06-24T12:41:53Z</time>
      </trkpt>
      <trkpt lat="40.247633" lon="-4.903667">
        <ele>1133.0</ele>
        <time>2018-06-24T12:41:54Z</time>
      </trkpt>
      <trkpt lat="40.247550" lon="-4.903617">
        <ele>1134.0</ele>
        <time>2018-06-24T12:41:55Z</time>
      </trkpt>
      <trkpt lat="40.247467" lon="-4.903567">
        <ele>1135.0</ele>
        <time>2018-06-24T12:41:56Z</time>
      </trkpt>
      <trkpt lat="40.247400" lon="-4.903500">
        <ele>1136.0</ele>
        <time>2018-06-24T12:41:57Z</time>
      </trkpt>
      <trkpt lat="40.247333" lon="-4.903433">
        <ele>1135.0</ele>
        <time>2018-06-24T12:41:58Z</time>
      </trkpt>
      <trkpt lat="40.247267" lon="-4.903367">
        <ele>1136.0</ele>
        <time>2018-06-24T12:41:59Z</time>
      </trkpt>
      <trkpt lat="40.247200" lon="-4.903300">
        <ele>1137.0</ele>
        <time>2018-06-24T12:42:00Z</time>
      </trkpt>
      <trkpt lat="40.247133" lon="-4.903267">
        <ele>1138.0</ele>
        <time>2018-06-24T12:42:01Z</time>
      </trkpt>
      <trkpt lat="40.247050" lon="-4.903267">
        <ele>1139.0</ele>
        <time>2018-06-24T12:42:02Z</time>
      </trkpt>
      <trkpt lat="40.246967" lon="-4.903300">
        <ele>1139.0</ele>
        <time>2018-06-24T12:42:03Z</time>
      </trkpt>
      <trkpt lat="40.246900" lon="-4.903383">
        <ele>1140.0</ele>
        <time>2018-06-24T12:42:04Z</time>
      </trkpt>
      <trkpt lat="40.246850" lon="-4.903517">
        <ele>1139.0</ele>
        <time>2018-06-24T12:42:05Z</time>
      </trkpt>
      <trkpt lat="40.246850" lon="-4.903650">
        <ele>1140.0</ele>
        <time>2018-06-24T12:42:06Z</time>
      </trkpt>
      <trkpt lat="40.246883" lon="-4.903783">
        <ele>1141.0</ele>
        <time>2018-06-24T12:42:07Z</time>
      </trkpt>
      <trkpt lat="40.246950" lon="-4.903883">
        <ele>1141.0</ele>
        <time>2018-06-24T12:42:08Z</time>
      </trkpt>
      <trkpt lat="40.247050" lon="-4.903950">
        <ele>1142.0</ele>
        <time>2018-06-24T12:42:09Z</time>
      </trkpt>
      <trkpt lat="40.247167" lon="-4.903967">
        <ele>1142.0</ele>
        <time>2018-06-24T12:42:10Z</time>
      </trkpt>
      <trkpt lat="40.247267" lon="-4.903933">
        <ele>1143.0</ele>
        <time>2018-06-24T12:42:11Z</time>
      </trkpt>
      <trkpt lat="40.247350" lon="-4.903850">
        <ele>1144.0</ele>
        <time>2018-06-24T12:42:12Z</time>
      </trkpt>
      <trkpt lat="40.247417" lon="-4.903733">
        <ele>1145.0</ele>
        <time>2018-06-24T12:42:13Z</time>
      </trkpt>
      <trkpt lat="40.247450" lon="-4.903617">
        <ele>1145.0</ele>
        <time>2018-06-24T12:42:14Z</time>
      </trkpt>
      <trkpt lat="40.247467" lon="-4.903483">
        <ele>1145.0</ele>
        <time>2018-06-24T12:42:15Z</time>
      </trkpt>
      <trkpt lat="40.247467" lon="-4.903367">
        <ele>1145.0</ele>
        <time>2018-06-24T12:42:16Z</time>
      </trkpt>
      <trkpt lat="40.247450" lon="-4.903250">
        <ele>1145.0</ele>
        <time>2018-06-24T12:42:17Z</time>
      </trkpt>
      <trkpt lat="40.247400" lon="-4.903150">
        <ele>1143.0</ele>
        <time>2018-06-24T12:42:18Z</time>
      </trkpt>
      <trkpt lat="40.247333" lon="-4.903050">
        <ele>1142.0</ele>
        <time>2018-06-24T12:42:19Z</time>
      </trkpt>
      <trkpt lat="40.247233" lon="-4.902967">
        <ele>1142.0</ele>
        <time>2018-06-24T12:42:20Z</time>
      </trkpt>
      <trkpt lat="40.247133" lon="-4.902917">
        <ele>1145.0</ele>
        <time>2018-06-24T12:42:21Z</time>
      </trkpt>
      <trkpt lat="40.247050" lon="-4.902883">
        <ele>1148.0</ele>
        <time>2018-06-24T12:42:22Z</time>
      </trkpt>
      <trkpt lat="40.246983" lon="-4.902850">
        <ele>1151.0</ele>
        <time>2018-06-24T12:42:23Z</time>
      </trkpt>
      <trkpt lat="40.246933" lon="-4.902833">
        <ele>1151.0</ele>
        <time>2018-06-24T12:42:24Z</time>
      </trkpt>
      <trkpt lat="40.246883" lon="-4.902783">
        <ele>1150.0</ele>
        <time>2018-06-24T12:42:25Z</time>
      </trkpt>
      <trkpt lat="40.246833" lon="-4.902733">
        <ele>1147.0</ele>
        <time>2018-06-24T12:42:26Z</time>
      </trkpt>
      <trkpt lat="40.246783" lon="-4.902667">
        <ele>1144.0</ele>
        <time>2018-06-24T12:42:27Z</time>
      </trkpt>
      <trkpt lat="40.246733" lon="-4.902600">
        <ele>1142.0</ele>
        <time>2018-06-24T12:42:28Z</time>
      </trkpt>
      <trkpt lat="40.246683" lon="-4.902533">
        <ele>1139.0</ele>
        <time>2018-06-24T12:42:29Z</time>
      </trkpt>
      <trkpt lat="40.246633" lon="-4.902433">
        <ele>1137.0</ele>
        <time>2018-06-24T12:42:30Z</time>
      </trkpt>
      <trkpt lat="40.246583" lon="-4.902350">
        <ele>1134.0</ele>
        <time>2018-06-24T12:42:31Z</time>
      </trkpt>
      <trkpt lat="40.246550" lon="-4.902233">
        <ele>1132.0</ele>
        <time>2018-06-24T12:42:32Z</time>
      </trkpt>
      <trkpt lat="40.246533" lon="-4.902100">
        <ele>1132.0</ele>
        <time>2018-06-24T12:42:33Z</time>
      </trkpt>
      <trkpt lat="40.246533" lon="-4.901967">
        <ele>1132.0</ele>
        <time>2018-06-24T12:42:34Z</time>
      </trkpt>
      <trkpt lat="40.246533" lon="-4.901850">
        <ele>1134.0</ele>
        <time>2018-06-24T12:42:35Z</time>
      </trkpt>
      <trkpt lat="40.246533" lon="-4.901733">
        <ele>1135.0</ele>
        <time>2018-06-24T12:42:36Z</time>
      </trkpt>
      <trkpt lat="40.246533" lon="-4.901617">
        <ele>1135.0</ele>
        <time>2018-06-24T12:42:37Z</time>
      </trkpt>
      <trkpt lat="40.246517" lon="-4.901517">
        <ele>1135.0</ele>
        <time>2018-06-24T12:42:38Z</time>
      </trkpt>
      <trkpt lat="40.246500" lon="-4.901417">
        <ele>1136.0</ele>
        <time>2018-06-24T12:42:39Z</time>
      </trkpt>
      <trkpt lat="40.246467" lon="-4.901350">
        <ele>1135.0</ele>
        <time>2018-06-24T12:42:40Z</time>
      </trkpt>
      <trkpt lat="40.246417" lon="-4.901267">
        <ele>1134.0</ele>
        <time>2018-06-24T12:42:41Z</time>
      </trkpt>
      <trkpt lat="40.246367" lon="-4.901183">
        <ele>1134.0</ele>
        <time>2018-06-24T12:42:42Z</time>
      </trkpt>
      <trkpt lat="40.246317" lon="-4.901100">
        <ele>1134.0</ele>
        <time>2018-06-24T12:42:43Z</time>
      </trkpt>
      <trkpt lat="40.246267" lon="-4.901000">
        <ele>1134.0</ele>
        <time>2018-06-24T12:42:44Z</time>
      </trkpt>
      <trkpt lat="40.246217" lon="-4.900883">
        <ele>1134.0</ele>
        <time>2018-06-24T12:42:45Z</time>
      </trkpt>
      <trkpt lat="40.246183" lon="-4.900767">
        <ele>1134.0</ele>
        <time>2018-06-24T12:42:46Z</time>
      </trkpt>
      <trkpt lat="40.246150" lon="-4.900650">
        <ele>1134.0</ele>
        <time>2018-06-24T12:42:47Z</time>
      </trkpt>
      <trkpt lat="40.246100" lon="-4.900550">
        <ele>1133.0</ele>
        <time>2018-06-24T12:42:48Z</time>
      </trkpt>
      <trkpt lat="40.246050" lon="-4.900467">
        <ele>1133.0</ele>
        <time>2018-06-24T12:42:49Z</time>
      </trkpt>
      <trkpt lat="40.246000" lon="-4.900383">
        <ele>1133.0</ele>
        <time>2018-06-24T12:42:50Z</time>
      </trkpt>
      <trkpt lat="40.245933" lon="-4.900317">
        <ele>1133.0</ele>
        <time>2018-06-24T12:42:51Z</time>
      </trkpt>
      <trkpt lat="40.245850" lon="-4.900250">
        <ele>1132.0</ele>
        <time>2018-06-24T12:42:52Z</time>
      </trkpt>
      <trkpt lat="40.245767" lon="-4.900167">
        <ele>1132.0</ele>
        <time>2018-06-24T12:42:53Z</time>
      </trkpt>
      <trkpt lat="40.245717" lon="-4.900083">
        <ele>1132.0</ele>
        <time>2018-06-24T12:42:54Z</time>
      </trkpt>
      <trkpt lat="40.245667" lon="-4.899983">
        <ele>1132.0</ele>
        <time>2018-06-24T12:42:55Z</time>
      </trkpt>
      <trkpt lat="40.245617" lon="-4.899900">
        <ele>1131.0</ele>
        <time>2018-06-24T12:42:56Z</time>
      </trkpt>
      <trkpt lat="40.245550" lon="-4.899800">
        <ele>1130.0</ele>
        <time>2018-06-24T12:42:57Z</time>
      </trkpt>
      <trkpt lat="40.245483" lon="-4.899717">
        <ele>1129.0</ele>
        <time>2018-06-24T12:42:58Z</time>
      </trkpt>
      <trkpt lat="40.245400" lon="-4.899650">
        <ele>1128.0</ele>
        <time>2018-06-24T12:42:59Z</time>
      </trkpt>
      <trkpt lat="40.245317" lon="-4.899583">
        <ele>1131.0</ele>
        <time>2018-06-24T12:43:00Z</time>
      </trkpt>
      <trkpt lat="40.245233" lon="-4.899533">
        <ele>1133.0</ele>
        <time>2018-06-24T12:43:01Z</time>
      </trkpt>
      <trkpt lat="40.245183" lon="-4.899467">
        <ele>1136.0</ele>
        <time>2018-06-24T12:43:02Z</time>
      </trkpt>
      <trkpt lat="40.245133" lon="-4.899383">
        <ele>1136.0</ele>
        <time>2018-06-24T12:43:03Z</time>
      </trkpt>
      <trkpt lat="40.245083" lon="-4.899317">
        <ele>1137.0</ele>
        <time>2018-06-24T12:43:04Z</time>
      </trkpt>
      <trkpt lat="40.245000" lon="-4.899283">
        <ele>1136.0</ele>
        <time>2018-06-24T12:43:05Z</time>
      </trkpt>
      <trkpt lat="40.244917" lon="-4.899300">
        <ele>1134.0</ele>
        <time>2018-06-24T12:43:06Z</time>
      </trkpt>
      <trkpt lat="40.244833" lon="-4.899333">
        <ele>1132.0</ele>
        <time>2018-06-24T12:43:07Z</time>
      </trkpt>
      <trkpt lat="40.244750" lon="-4.899383">
        <ele>1131.0</ele>
        <time>2018-06-24T12:43:08Z</time>
      </trkpt>
      <trkpt lat="40.244683" lon="-4.899417">
        <ele>1129.0</ele>
        <time>2018-06-24T12:43:09Z</time>
      </trkpt>
      <trkpt lat="40.244600" lon="-4.899400">
        <ele>1127.0</ele>
        <time>2018-06-24T12:43:10Z</time>
      </trkpt>
      <trkpt lat="40.244517" lon="-4.899383">
        <ele>1126.0</ele>
        <time>2018-06-24T12:43:11Z</time>
      </trkpt>
      <trkpt lat="40.244450" lon="-4.899333">
        <ele>1126.0</ele>
        <time>2018-06-24T12:43:12Z</time>
      </trkpt>
      <trkpt lat="40.244367" lon="-4.899300">
        <ele>1127.0</ele>
        <time>2018-06-24T12:43:13Z</time>
      </trkpt>
      <trkpt lat="40.244300" lon="-4.899250">
        <ele>1128.0</ele>
        <time>2018-06-24T12:43:14Z</time>
      </trkpt>
      <trkpt lat="40.244217" lon="-4.899200">
        <ele>1129.0</ele>
        <time>2018-06-24T12:43:15Z</time>
      </trkpt>
      <trkpt lat="40.244167" lon="-4.899133">
        <ele>1131.0</ele>
        <time>2018-06-24T12:43:16Z</time>
      </trkpt>
      <trkpt lat="40.244117" lon="-4.899050">
        <ele>1133.0</ele>
        <time>2018-06-24T12:43:17Z</time>
      </trkpt>
      <trkpt lat="40.244083" lon="-4.898967">
        <ele>1134.0</ele>
        <time>2018-06-24T12:43:18Z</time>
      </trkpt>
      <trkpt lat="40.244050" lon="-4.898883">
        <ele>1136.0</ele>
        <time>2018-06-24T12:43:19Z</time>
      </trkpt>
      <trkpt lat="40.244000" lon="-4.898800">
        <ele>1138.0</ele>
        <time>2018-06-24T12:43:20Z</time>
      </trkpt>
      <trkpt lat="40.243933" lon="-4.898750">
        <ele>1139.0</ele>
        <time>2018-06-24T12:43:21Z</time>
      </trkpt>
      <trkpt lat="40.243867" lon="-4.898733">
        <ele>1140.0</ele>
        <time>2018-06-24T12:43:22Z</time>
      </trkpt>
      <trkpt lat="40.243783" lon="-4.898767">
        <ele>1140.0</ele>
        <time>2018-06-24T12:43:23Z</time>
      </trkpt>
      <trkpt lat="40.243733" lon="-4.898867">
        <ele>1140.0</ele>
        <time>2018-06-24T12:43:24Z</time>
      </trkpt>
      <trkpt lat="40.243700" lon="-4.899000">
        <ele>1138.0</ele>
        <time>2018-06-24T12:43:25Z</time>
      </trkpt>
      <trkpt lat="40.243700" lon="-4.899150">
        <ele>1137.0</ele>
        <time>2018-06-24T12:43:26Z</time>
      </trkpt>
      <trkpt lat="40.243750" lon="-4.899317">
        <ele>1138.0</ele>
        <time>2018-06-24T12:43:27Z</time>
      </trkpt>
      <trkpt lat="40.243833" lon="-4.899433">
        <ele>1139.0</ele>
        <time>2018-06-24T12:43:28Z</time>
      </trkpt>
      <trkpt lat="40.243950" lon="-4.899500">
        <ele>1141.0</ele>
        <time>2018-06-24T12:43:29Z</time>
      </trkpt>
      <trkpt lat="40.244050" lon="-4.899517">
        <ele>1142.0</ele>
        <time>2018-06-24T12:43:30Z</time>
      </trkpt>
      <trkpt lat="40.244150" lon="-4.899533">
        <ele>1144.0</ele>
        <time>2018-06-24T12:43:31Z</time>
      </trkpt>
      <trkpt lat="40.244250" lon="-4.899550">
        <ele>1145.0</ele>
        <time>2018-06-24T12:43:32Z</time>
      </trkpt>
      <trkpt lat="40.244350" lon="-4.899550">
        <ele>1145.0</ele>
        <time>2018-06-24T12:43:33Z</time>
      </trkpt>
      <trkpt lat="40.244433" lon="-4.899550">
        <ele>1146.0</ele>
        <time>2018-06-24T12:43:34Z</time>
      </trkpt>
      <trkpt lat="40.244533" lon="-4.899533">
        <ele>1146.0</ele>
        <time>2018-06-24T12:43:35Z</time>
      </trkpt>
      <trkpt lat="40.244633" lon="-4.899500">
        <ele>1147.0</ele>
        <time>2018-06-24T12:43:36Z</time>
      </trkpt>
      <trkpt lat="40.244717" lon="-4.899433">
        <ele>1148.0</ele>
        <time>2018-06-24T12:43:37Z</time>
      </trkpt>
      <trkpt lat="40.244800" lon="-4.899350">
        <ele>1148.0</ele>
        <time>2018-06-24T12:43:38Z</time>
      </trkpt>
      <trkpt lat="40.244867" lon="-4.899233">
        <ele>1149.0</ele>
        <time>2018-06-24T12:43:39Z</time>
      </trkpt>
      <trkpt lat="40.244917" lon="-4.899117">
        <ele>1150.0</ele>
        <time>2018-06-24T12:43:40Z</time>
      </trkpt>
      <trkpt lat="40.244933" lon="-4.898983">
        <ele>1152.0</ele>
        <time>2018-06-24T12:43:41Z</time>
      </trkpt>
      <trkpt lat="40.244933" lon="-4.898867">
        <ele>1155.0</ele>
        <time>2018-06-24T12:43:42Z</time>
      </trkpt>
      <trkpt lat="40.244933" lon="-4.898767">
        <ele>1158.0</ele>
        <time>2018-06-24T12:43:43Z</time>
      </trkpt>
      <trkpt lat="40.244950" lon="-4.898667">
        <ele>1160.0</ele>
        <time>2018-06-24T12:43:44Z</time>
      </trkpt>
      <trkpt lat="40.244967" lon="-4.898567">
        <ele>1162.0</ele>
        <time>2018-06-24T12:43:45Z</time>
      </trkpt>
      <trkpt lat="40.244967" lon="-4.898467">
        <ele>1162.0</ele>
        <time>2018-06-24T12:43:46Z</time>
      </trkpt>
      <trkpt lat="40.244967" lon="-4.898350">
        <ele>1162.0</ele>
        <time>2018-06-24T12:43:47Z</time>
      </trkpt>
      <trkpt lat="40.244933" lon="-4.898250">
        <ele>1163.0</ele>
        <time>2018-06-24T12:43:48Z</time>
      </trkpt>
      <trkpt lat="40.244900" lon="-4.898150">
        <ele>1163.0</ele>
        <time>2018-06-24T12:43:49Z</time>
      </trkpt>
      <trkpt lat="40.244833" lon="-4.898067">
        <ele>1165.0</ele>
        <time>2018-06-24T12:43:50Z</time>
      </trkpt>
      <trkpt lat="40.244783" lon="-4.897983">
        <ele>1167.0</ele>
        <time>2018-06-24T12:43:51Z</time>
      </trkpt>
      <trkpt lat="40.244717" lon="-4.897917">
        <ele>1169.0</ele>
        <time>2018-06-24T12:43:52Z</time>
      </trkpt>
      <trkpt lat="40.244650" lon="-4.897867">
        <ele>1171.0</ele>
        <time>2018-06-24T12:43:53Z</time>
      </trkpt>
      <trkpt lat="40.244567" lon="-4.897850">
        <ele>1173.0</ele>
        <time>2018-06-24T12:43:54Z</time>
      </trkpt>
      <trkpt lat="40.244500" lon="-4.897850">
        <ele>1174.0</ele>
        <time>2018-06-24T12:43:55Z</time>
      </trkpt>
      <trkpt lat="40.244433" lon="-4.897883">
        <ele>1177.0</ele>
        <time>2018-06-24T12:43:56Z</time>
      </trkpt>
      <trkpt lat="40.244367" lon="-4.897933">
        <ele>1179.0</ele>
        <time>2018-06-24T12:43:57Z</time>
      </trkpt>
      <trkpt lat="40.244317" lon="-4.897983">
        <ele>1180.0</ele>
        <time>2018-06-24T12:43:58Z</time>
      </trkpt>
      <trkpt lat="40.244267" lon="-4.898033">
        <ele>1182.0</ele>
        <time>2018-06-24T12:43:59Z</time>
      </trkpt>
      <trkpt lat="40.244217" lon="-4.898100">
        <ele>1183.0</ele>
        <time>2018-06-24T12:44:00Z</time>
      </trkpt>
      <trkpt lat="40.244200" lon="-4.898200">
        <ele>1185.0</ele>
        <time>2018-06-24T12:44:01Z</time>
      </trkpt>
      <trkpt lat="40.244183" lon="-4.898317">
        <ele>1185.0</ele>
        <time>2018-06-24T12:44:02Z</time>
      </trkpt>
      <trkpt lat="40.244183" lon="-4.898433">
        <ele>1186.0</ele>
        <time>2018-06-24T12:44:03Z</time>
      </trkpt>
      <trkpt lat="40.244200" lon="-4.898533">
        <ele>1186.0</ele>
        <time>2018-06-24T12:44:04Z</time>
      </trkpt>
      <trkpt lat="40.244233" lon="-4.898667">
        <ele>1186.0</ele>
        <time>2018-06-24T12:44:05Z</time>
      </trkpt>
      <trkpt lat="40.244267" lon="-4.898783">
        <ele>1185.0</ele>
        <time>2018-06-24T12:44:06Z</time>
      </trkpt>
      <trkpt lat="40.244300" lon="-4.898900">
        <ele>1185.0</ele>
        <time>2018-06-24T12:44:07Z</time>
      </trkpt>
      <trkpt lat="40.244367" lon="-4.899017">
        <ele>1186.0</ele>
        <time>2018-06-24T12:44:08Z</time>
      </trkpt>
      <trkpt lat="40.244467" lon="-4.899100">
        <ele>1186.0</ele>
        <time>2018-06-24T12:44:09Z</time>
      </trkpt>
      <trkpt lat="40.244567" lon="-4.899150">
        <ele>1187.0</ele>
        <time>2018-06-24T12:44:10Z</time>
      </trkpt>
      <trkpt lat="40.244683" lon="-4.899133">
        <ele>1187.0</ele>
        <time>2018-06-24T12:44:11Z</time>
      </trkpt>
      <trkpt lat="40.244783" lon="-4.899100">
        <ele>1187.0</ele>
        <time>2018-06-24T12:44:12Z</time>
      </trkpt>
      <trkpt lat="40.244883" lon="-4.899000">
        <ele>1187.0</ele>
        <time>2018-06-24T12:44:13Z</time>
      </trkpt>
      <trkpt lat="40.244967" lon="-4.898900">
        <ele>1188.0</ele>
        <time>2018-06-24T12:44:14Z</time>
      </trkpt>
      <trkpt lat="40.245033" lon="-4.898783">
        <ele>1189.0</ele>
        <time>2018-06-24T12:44:15Z</time>
      </trkpt>
      <trkpt lat="40.245083" lon="-4.898667">
        <ele>1191.0</ele>
        <time>2018-06-24T12:44:16Z</time>
      </trkpt>
      <trkpt lat="40.245100" lon="-4.898550">
        <ele>1192.0</ele>
        <time>2018-06-24T12:44:17Z</time>
      </trkpt>
      <trkpt lat="40.245100" lon="-4.898433">
        <ele>1193.0</ele>
        <time>2018-06-24T12:44:18Z</time>
      </trkpt>
      <trkpt lat="40.245083" lon="-4.898300">
        <ele>1194.0</ele>
        <time>2018-06-24T12:44:19Z</time>
      </trkpt>
      <trkpt lat="40.245083" lon="-4.898183">
        <ele>1195.0</ele>
        <time>2018-06-24T12:44:20Z</time>
      </trkpt>
      <trkpt lat="40.245083" lon="-4.898067">
        <ele>1198.0</ele>
        <time>2018-06-24T12:44:21Z</time>
      </trkpt>
      <trkpt lat="40.245100" lon="-4.897950">
        <ele>1200.0</ele>
        <time>2018-06-24T12:44:22Z</time>
      </trkpt>
      <trkpt lat="40.245133" lon="-4.897833">
        <ele>1202.0</ele>
        <time>2018-06-24T12:44:23Z</time>
      </trkpt>
      <trkpt lat="40.245167" lon="-4.897717">
        <ele>1205.0</ele>
        <time>2018-06-24T12:44:24Z</time>
      </trkpt>
      <trkpt lat="40.245167" lon="-4.897600">
        <ele>1206.0</ele>
        <time>2018-06-24T12:44:25Z</time>
      </trkpt>
      <trkpt lat="40.245150" lon="-4.897500">
        <ele>1207.0</ele>
        <time>2018-06-24T12:44:26Z</time>
      </trkpt>
      <trkpt lat="40.245117" lon="-4.897383">
        <ele>1208.0</ele>
        <time>2018-06-24T12:44:27Z</time>
      </trkpt>
      <trkpt lat="40.245083" lon="-4.897283">
        <ele>1208.0</ele>
        <time>2018-06-24T12:44:28Z</time>
      </trkpt>
      <trkpt lat="40.245033" lon="-4.897200">
        <ele>1209.0</ele>
        <time>2018-06-24T12:44:29Z</time>
      </trkpt>
      <trkpt lat="40.244967" lon="-4.897150">
        <ele>1210.0</ele>
        <time>2018-06-24T12:44:30Z</time>
      </trkpt>
      <trkpt lat="40.244900" lon="-4.897100">
        <ele>1210.0</ele>
        <time>2018-06-24T12:44:31Z</time>
      </trkpt>
      <trkpt lat="40.244817" lon="-4.897067">
        <ele>1210.0</ele>
        <time>2018-06-24T12:44:32Z</time>
      </trkpt>
      <trkpt lat="40.244733" lon="-4.897067">
        <ele>1210.0</ele>
        <time>2018-06-24T12:44:33Z</time>
      </trkpt>
      <trkpt lat="40.244650" lon="-4.897083">
        <ele>1210.0</ele>
        <time>2018-06-24T12:44:34Z</time>
      </trkpt>
      <trkpt lat="40.244567" lon="-4.897117">
        <ele>1211.0</ele>
        <time>2018-06-24T12:44:35Z</time>
      </trkpt>
      <trkpt lat="40.244483" lon="-4.897183">
        <ele>1212.0</ele>
        <time>2018-06-24T12:44:36Z</time>
      </trkpt>
      <trkpt lat="40.244433" lon="-4.897267">
        <ele>1212.0</ele>
        <time>2018-06-24T12:44:37Z</time>
      </trkpt>
      <trkpt lat="40.244383" lon="-4.897367">
        <ele>1213.0</ele>
        <time>2018-06-24T12:44:38Z</time>
      </trkpt>
      <trkpt lat="40.244367" lon="-4.897467">
        <ele>1214.0</ele>
        <time>2018-06-24T12:44:39Z</time>
      </trkpt>
      <trkpt lat="40.244350" lon="-4.897583">
        <ele>1214.0</ele>
        <time>2018-06-24T12:44:40Z</time>
      </trkpt>
      <trkpt lat="40.244383" lon="-4.897717">
        <ele>1214.0</ele>
        <time>2018-06-24T12:44:41Z</time>
      </trkpt>
      <trkpt lat="40.244417" lon="-4.897850">
        <ele>1215.0</ele>
        <time>2018-06-24T12:44:42Z</time>
      </trkpt>
      <trkpt lat="40.244467" lon="-4.897967">
        <ele>1216.0</ele>
        <time>2018-06-24T12:44:43Z</time>
      </trkpt>
      <trkpt lat="40.244533" lon="-4.898083">
        <ele>1218.0</ele>
        <time>2018-06-24T12:44:44Z</time>
      </trkpt>
      <trkpt lat="40.244617" lon="-4.898183">
        <ele>1220.0</ele>
        <time>2018-06-24T12:44:45Z</time>
      </trkpt>
      <trkpt lat="40.244700" lon="-4.898267">
        <ele>1222.0</ele>
        <time>2018-06-24T12:44:46Z</time>
      </trkpt>
      <trkpt lat="40.244800" lon="-4.898350">
        <ele>1223.0</ele>
        <time>2018-06-24T12:44:47Z</time>
      </trkpt>
      <trkpt lat="40.244900" lon="-4.898417">
        <ele>1224.0</ele>
        <time>2018-06-24T12:44:48Z</time>
      </trkpt>
      <trkpt lat="40.245017" lon="-4.898450">
        <ele>1224.0</ele>
        <time>2018-06-24T12:44:49Z</time>
      </trkpt>
      <trkpt lat="40.245150" lon="-4.898450">
        <ele>1225.0</ele>
        <time>2018-06-24T12:44:50Z</time>
      </trkpt>
      <trkpt lat="40.245267" lon="-4.898417">
        <ele>1226.0</ele>
        <time>2018-06-24T12:44:51Z</time>
      </trkpt>
      <trkpt lat="40.245383" lon="-4.898383">
        <ele>1229.0</ele>
        <time>2018-06-24T12:44:52Z</time>
      </trkpt>
      <trkpt lat="40.245483" lon="-4.898333">
        <ele>1231.0</ele>
        <time>2018-06-24T12:44:53Z</time>
      </trkpt>
      <trkpt lat="40.245567" lon="-4.898300">
        <ele>1232.0</ele>
        <time>2018-06-24T12:44:54Z</time>
      </trkpt>
      <trkpt lat="40.245650" lon="-4.898233">
        <ele>1233.0</ele>
        <time>2018-06-24T12:44:55Z</time>
      </trkpt>
      <trkpt lat="40.245700" lon="-4.898133">
        <ele>1232.0</ele>
        <time>2018-06-24T12:44:56Z</time>
      </trkpt>
      <trkpt lat="40.245733" lon="-4.898017">
        <ele>1232.0</ele>
        <time>2018-06-24T12:44:57Z</time>
      </trkpt>
      <trkpt lat="40.245750" lon="-4.897900">
        <ele>1232.0</ele>
        <time>2018-06-24T12:44:58Z</time>
      </trkpt>
      <trkpt lat="40.245733" lon="-4.897767">
        <ele>1233.0</ele>
        <time>2018-06-24T12:44:59Z</time>
      </trkpt>
      <trkpt lat="40.245700" lon="-4.897650">
        <ele>1236.0</ele>
        <time>2018-06-24T12:45:00Z</time>
      </trkpt>
      <trkpt lat="40.245683" lon="-4.897550">
        <ele>1240.0</ele>
        <time>2018-06-24T12:45:01Z</time>
      </trkpt>
      <trkpt lat="40.245650" lon="-4.897483">
        <ele>1244.0</ele>
        <time>2018-06-24T12:45:02Z</time>
      </trkpt>
      <trkpt lat="40.245650" lon="-4.897417">
        <ele>1245.0</ele>
        <time>2018-06-24T12:45:03Z</time>
      </trkpt>
      <trkpt lat="40.245633" lon="-4.897367">
        <ele>1245.0</ele>
        <time>2018-06-24T12:45:04Z</time>
      </trkpt>
      <trkpt lat="40.245600" lon="-4.897300">
        <ele>1243.0</ele>
        <time>2018-06-24T12:45:05Z</time>
      </trkpt>
      <trkpt lat="40.245567" lon="-4.897200">
        <ele>1241.0</ele>
        <time>2018-06-24T12:45:06Z</time>
      </trkpt>
      <trkpt lat="40.245483" lon="-4.897083">
        <ele>1241.0</ele>
        <time>2018-06-24T12:45:07Z</time>
      </trkpt>
      <trkpt lat="40.245400" lon="-4.897000">
        <ele>1242.0</ele>
        <time>2018-06-24T12:45:08Z</time>
      </trkpt>
      <trkpt lat="40.245317" lon="-4.896950">
        <ele>1245.0</ele>
        <time>2018-06-24T12:45:09Z</time>
      </trkpt>
      <trkpt lat="40.245217" lon="-4.896933">
        <ele>1246.0</ele>
        <time>2018-06-24T12:45:10Z</time>
      </trkpt>
      <trkpt lat="40.245133" lon="-4.896933">
        <ele>1247.0</ele>
        <time>2018-06-24T12:45:11Z</time>
      </trkpt>
      <trkpt lat="40.245050" lon="-4.896933">
        <ele>1248.0</ele>
        <time>2018-06-24T12:45:12Z</time>
      </trkpt>
      <trkpt lat="40.244967" lon="-4.896933">
        <ele>1247.0</ele>
        <time>2018-06-24T12:45:13Z</time>
      </trkpt>
      <trkpt lat="40.244883" lon="-4.896950">
        <ele>1247.0</ele>
        <time>2018-06-24T12:45:14Z</time>
      </trkpt>
      <trkpt lat="40.244783" lon="-4.896983">
        <ele>1247.0</ele>
        <time>2018-06-24T12:45:15Z</time>
      </trkpt>
      <trkpt lat="40.244717" lon="-4.897050">
        <ele>1248.0</ele>
        <time>2018-06-24T12:45:16Z</time>
      </trkpt>
      <trkpt lat="40.244633" lon="-4.897133">
        <ele>1249.0</ele>
        <time>2018-06-24T12:45:17Z</time>
      </trkpt>
      <trkpt lat="40.244567" lon="-4.897200">
        <ele>1251.0</ele>
        <time>2018-06-24T12:45:18Z</time>
      </trkpt>
      <trkpt lat="40.244517" lon="-4.897267">
        <ele>1252.0</ele>
        <time>2018-06-24T12:45:19Z</time>
      </trkpt>
      <trkpt lat="40.244467" lon="-4.897350">
        <ele>1252.0</ele>
        <time>2018-06-24T12:45:20Z</time>
      </trkpt>
      <trkpt lat="40.244433" lon="-4.897450">
        <ele>1251.0</ele>
        <time>2018-06-24T12:45:21Z</time>
      </trkpt>
      <trkpt lat="40.244417" lon="-4.897583">
        <ele>1250.0</ele>
        <time>2018-06-24T12:45:22Z</time>
      </trkpt>
      <trkpt lat="40.244433" lon="-4.897717">
        <ele>1250.0</ele>
        <time>2018-06-24T12:45:23Z</time>
      </trkpt>
      <trkpt lat="40.244450" lon="-4.897833">
        <ele>1251.0</ele>
        <time>2018-06-24T12:45:24Z</time>
      </trkpt>
      <trkpt lat="40.244467" lon="-4.897967">
        <ele>1252.0</ele>
        <time>2018-06-24T12:45:25Z</time>
      </trkpt>
      <trkpt lat="40.244483" lon="-4.898083">
        <ele>1252.0</ele>
        <time>2018-06-24T12:45:26Z</time>
      </trkpt>
      <trkpt lat="40.244517" lon="-4.898200">
        <ele>1252.0</ele>
        <time>2018-06-24T12:45:27Z</time>
      </trkpt>
      <trkpt lat="40.244550" lon="-4.898317">
        <ele>1253.0</ele>
        <time>2018-06-24T12:45:28Z</time>
      </trkpt>
      <trkpt lat="40.244600" lon="-4.898450">
        <ele>1254.0</ele>
        <time>2018-06-24T12:45:29Z</time>
      </trkpt>
      <trkpt lat="40.244667" lon="-4.898567">
        <ele>1255.0</ele>
        <time>2018-06-24T12:45:30Z</time>
      </trkpt>
      <trkpt lat="40.244750" lon="-4.898667">
        <ele>1256.0</ele>
        <time>2018-06-24T12:45:31Z</time>
      </trkpt>
      <trkpt lat="40.244850" lon="-4.898750">
        <ele>1257.0</ele>
        <time>2018-06-24T12:45:32Z</time>
      </trkpt>
      <trkpt lat="40.244967" lon="-4.898800">
        <ele>1259.0</ele>
        <time>2018-06-24T12:45:33Z</time>
      </trkpt>
      <trkpt lat="40.245083" lon="-4.898833">
        <ele>1261.0</ele>
        <time>2018-06-24T12:45:34Z</time>
      </trkpt>
      <trkpt lat="40.245200" lon="-4.898850">
        <ele>1263.0</ele>
        <time>2018-06-24T12:45:35Z</time>
      </trkpt>
      <trkpt lat="40.245317" lon="-4.898833">
        <ele>1264.0</ele>
        <time>2018-06-24T12:45:36Z</time>
      </trkpt>
      <trkpt lat="40.245433" lon="-4.898817">
        <ele>1265.0</ele>
        <time>2018-06-24T12:45:37Z</time>
      </trkpt>
      <trkpt lat="40.245550" lon="-4.898783">
        <ele>1266.0</ele>
        <time>2018-06-24T12:45:38Z</time>
      </trkpt>
      <trkpt lat="40.245650" lon="-4.898733">
        <ele>1267.0</ele>
        <time>2018-06-24T12:45:39Z</time>
      </trkpt>
      <trkpt lat="40.245767" lon="-4.898667">
        <ele>1268.0</ele>
        <time>2018-06-24T12:45:40Z</time>
      </trkpt>
      <trkpt lat="40.245850" lon="-4.898550">
        <ele>1268.0</ele>
        <time>2018-06-24T12:45:41Z</time>
      </trkpt>
      <trkpt lat="40.245933" lon="-4.898417">
        <ele>1269.0</ele>
        <time>2018-06-24T12:45:42Z</time>
      </trkpt>
      <trkpt lat="40.245967" lon="-4.898267">
        <ele>1271.0</ele>
        <time>2018-06-24T12:45:43Z</time>
      </trkpt>
      <trkpt lat="40.246000" lon="-4.898133">
        <ele>1275.0</ele>
        <time>2018-06-24T12:45:44Z</time>
      </trkpt>
      <trkpt lat="40.246000" lon="-4.898033">
        <ele>1279.0</ele>
        <time>2018-06-24T12:45:45Z</time>
      </trkpt>
      <trkpt lat="40.246017" lon="-4.897933">
        <ele>1281.0</ele>
        <time>2018-06-24T12:45:46Z</time>
      </trkpt>
      <trkpt lat="40.246017" lon="-4.897833">
        <ele>1281.0</ele>
        <time>2018-06-24T12:45:47Z</time>
      </trkpt>
      <trkpt lat="40.246000" lon="-4.897717">
        <ele>1282.0</ele>
        <time>2018-06-24T12:45:48Z</time>
      </trkpt>
      <trkpt lat="40.245950" lon="-4.897600">
        <ele>1284.0</ele>
        <time>2018-06-24T12:45:49Z</time>
      </trkpt>
      <trkpt lat="40.245883" lon="-4.897483">
        <ele>1285.0</ele>
        <time>2018-06-24T12:45:50Z</time>
      </trkpt>
      <trkpt lat="40.245817" lon="-4.897433">
        <ele>1288.0</ele>
        <time>2018-06-24T12:45:51Z</time>
      </trkpt>
      <trkpt lat="40.245733" lon="-4.897400">
        <ele>1290.0</ele>
        <time>2018-06-24T12:45:52Z</time>
      </trkpt>
      <trkpt lat="40.245650" lon="-4.897400">
        <ele>1291.0</ele>
        <time>2018-06-24T12:45:53Z</time>
      </trkpt>
      <trkpt lat="40.245583" lon="-4.897400">
        <ele>1292.0</ele>
        <time>2018-06-24T12:45:54Z</time>
      </trkpt>
      <trkpt lat="40.245500" lon="-4.897417">
        <ele>1292.0</ele>
        <time>2018-06-24T12:45:55Z</time>
      </trkpt>
      <trkpt lat="40.245433" lon="-4.897467">
        <ele>1290.0</ele>
        <time>2018-06-24T12:45:56Z</time>
      </trkpt>
      <trkpt lat="40.245367" lon="-4.897567">
        <ele>1289.0</ele>
        <time>2018-06-24T12:45:57Z</time>
      </trkpt>
      <trkpt lat="40.245300" lon="-4.897683">
        <ele>1288.0</ele>
        <time>2018-06-24T12:45:58Z</time>
      </trkpt>
      <trkpt lat="40.245267" lon="-4.897800">
        <ele>1290.0</ele>
        <time>2018-06-24T12:45:59Z</time>
      </trkpt>
      <trkpt lat="40.245233" lon="-4.897933">
        <ele>1292.0</ele>
        <time>2018-06-24T12:46:00Z</time>
      </trkpt>
      <trkpt lat="40.245217" lon="-4.898033">
        <ele>1294.0</ele>
        <time>2018-06-24T12:46:01Z</time>
      </trkpt>
      <trkpt lat="40.245233" lon="-4.898133">
        <ele>1295.0</ele>
        <time>2018-06-24T12:46:02Z</time>
      </trkpt>
      <trkpt lat="40.245250" lon="-4.898233">
        <ele>1295.0</ele>
        <time>2018-06-24T12:46:03Z</time>
      </trkpt>
      <trkpt lat="40.245267" lon="-4.898350">
        <ele>1294.0</ele>
        <time>2018-06-24T12:46:04Z</time>
      </trkpt>
      <trkpt lat="40.245317" lon="-4.898483">
        <ele>1294.0</ele>
        <time>2018-06-24T12:46:05Z</time>
      </trkpt>
      <trkpt lat="40.245383" lon="-4.898617">
        <ele>1295.0</ele>
        <time>2018-06-24T12:46:06Z</time>
      </trkpt>
      <trkpt lat="40.245483" lon="-4.898733">
        <ele>1296.0</ele>
        <time>2018-06-24T12:46:07Z</time>
      </trkpt>
      <trkpt lat="40.245583" lon="-4.898800">
        <ele>1299.0</ele>
        <time>2018-06-24T12:46:08Z</time>
      </trkpt>
      <trkpt lat="40.245683" lon="-4.898850">
        <ele>1302.0</ele>
        <time>2018-06-24T12:46:09Z</time>
      </trkpt>
      <trkpt lat="40.245800" lon="-4.898900">
        <ele>1304.0</ele>
        <time>2018-06-24T12:46:10Z</time>
      </trkpt>
      <trkpt lat="40.245900" lon="-4.898900">
        <ele>1306.0</ele>
        <time>2018-06-24T12:46:11Z</time>
      </trkpt>
      <trkpt lat="40.246000" lon="-4.898900">
        <ele>1306.0</ele>
        <time>2018-06-24T12:46:12Z</time>
      </trkpt>
      <trkpt lat="40.246117" lon="-4.898850">
        <ele>1306.0</ele>
        <time>2018-06-24T12:46:13Z</time>
      </trkpt>
      <trkpt lat="40.246217" lon="-4.898783">
        <ele>1306.0</ele>
        <time>2018-06-24T12:46:14Z</time>
      </trkpt>
      <trkpt lat="40.246317" lon="-4.898700">
        <ele>1306.0</ele>
        <time>2018-06-24T12:46:15Z</time>
      </trkpt>
      <trkpt lat="40.246417" lon="-4.898600">
        <ele>1305.0</ele>
        <time>2018-06-24T12:46:16Z</time>
      </trkpt>
      <trkpt lat="40.246500" lon="-4.898483">
        <ele>1305.0</ele>
        <time>2018-06-24T12:46:17Z</time>
      </trkpt>
      <trkpt lat="40.246567" lon="-4.898350">
        <ele>1306.0</ele>
        <time>2018-06-24T12:46:18Z</time>
      </trkpt>
      <trkpt lat="40.246633" lon="-4.898217">
        <ele>1308.0</ele>
        <time>2018-06-24T12:46:19Z</time>
      </trkpt>
      <trkpt lat="40.246683" lon="-4.898083">
        <ele>1311.0</ele>
        <time>2018-06-24T12:46:20Z</time>
      </trkpt>
      <trkpt lat="40.246733" lon="-4.897967">
        <ele>1313.0</ele>
        <time>2018-06-24T12:46:21Z</time>
      </trkpt>
      <trkpt lat="40.246750" lon="-4.897833">
        <ele>1315.0</ele>
        <time>2018-06-24T12:46:22Z</time>
      </trkpt>
      <trkpt lat="40.246767" lon="-4.897683">
        <ele>1317.0</ele>
        <time>2018-06-24T12:46:23Z</time>
      </trkpt>
      <trkpt lat="40.246767" lon="-4.897550">
        <ele>1319.0</ele>
        <time>2018-06-24T12:46:24Z</time>
      </trkpt>
      <trkpt lat="40.246733" lon="-4.897417">
        <ele>1320.0</ele>
        <time>2018-06-24T12:46:25Z</time>
      </trkpt>
      <trkpt lat="40.246683" lon="-4.897300">
        <ele>1321.0</ele>
        <time>2018-06-24T12:46:26Z</time>
      </trkpt>
      <trkpt lat="40.246617" lon="-4.897183">
        <ele>1322.0</ele>
        <time>2018-06-24T12:46:27Z</time>
      </trkpt>
      <trkpt lat="40.246533" lon="-4.897100">
        <ele>1323.0</ele>
        <time>2018-06-24T12:46:28Z</time>
      </trkpt>
      <trkpt lat="40.246433" lon="-4.897033">
        <ele>1327.0</ele>
        <time>2018-06-24T12:46:29Z</time>
      </trkpt>
      <trkpt lat="40.246333" lon="-4.896967">
        <ele>1331.0</ele>
        <time>2018-06-24T12:46:30Z</time>
      </trkpt>
      <trkpt lat="40.246250" lon="-4.896933">
        <ele>1334.0</ele>
        <time>2018-06-24T12:46:31Z</time>
      </trkpt>
      <trkpt lat="40.246183" lon="-4.896883">
        <ele>1338.0</ele>
        <time>2018-06-24T12:46:32Z</time>
      </trkpt>
      <trkpt lat="40.246100" lon="-4.896833">
        <ele>1340.0</ele>
        <time>2018-06-24T12:46:33Z</time>
      </trkpt>
      <trkpt lat="40.246033" lon="-4.896817">
        <ele>1342.0</ele>
        <time>2018-06-24T12:46:34Z</time>
      </trkpt>
      <trkpt lat="40.245950" lon="-4.896817">
        <ele>1342.0</ele>
        <time>2018-06-24T12:46:35Z</time>
      </trkpt>
      <trkpt lat="40.245850" lon="-4.896850">
        <ele>1341.0</ele>
        <time>2018-06-24T12:46:36Z</time>
      </trkpt>
      <trkpt lat="40.245767" lon="-4.896917">
        <ele>1341.0</ele>
        <time>2018-06-24T12:46:37Z</time>
      </trkpt>
      <trkpt lat="40.245683" lon="-4.897017">
        <ele>1342.0</ele>
        <time>2018-06-24T12:46:38Z</time>
      </trkpt>
      <trkpt lat="40.245633" lon="-4.897117">
        <ele>1344.0</ele>
        <time>2018-06-24T12:46:39Z</time>
      </trkpt>
      <trkpt lat="40.245600" lon="-4.897250">
        <ele>1346.0</ele>
        <time>2018-06-24T12:46:40Z</time>
      </trkpt>
      <trkpt lat="40.245600" lon="-4.897350">
        <ele>1349.0</ele>
        <time>2018-06-24T12:46:41Z</time>
      </trkpt>
      <trkpt lat="40.245600" lon="-4.897450">
        <ele>1350.0</ele>
        <time>2018-06-24T12:46:42Z</time>
      </trkpt>
      <trkpt lat="40.245617" lon="-4.897550">
        <ele>1350.0</ele>
        <time>2018-06-24T12:46:43Z</time>
      </trkpt>
      <trkpt lat="40.245633" lon="-4.897667">
        <ele>1349.0</ele>
        <time>2018-06-24T12:46:44Z</time>
      </trkpt>
      <trkpt lat="40.245683" lon="-4.897767">
        <ele>1348.0</ele>
        <time>2018-06-24T12:46:45Z</time>
      </trkpt>
      <trkpt lat="40.245750" lon="-4.897867">
        <ele>1347.0</ele>
        <time>2018-06-24T12:46:46Z</time>
      </trkpt>
      <trkpt lat="40.245817" lon="-4.897950">
        <ele>1346.0</ele>
        <time>2018-06-24T12:46:47Z</time>
      </trkpt>
      <trkpt lat="40.245917" lon="-4.898033">
        <ele>1345.0</ele>
        <time>2018-06-24T12:46:48Z</time>
      </trkpt>
      <trkpt lat="40.246017" lon="-4.898083">
        <ele>1346.0</ele>
        <time>2018-06-24T12:46:49Z</time>
      </trkpt>
      <trkpt lat="40.246117" lon="-4.898133">
        <ele>1346.0</ele>
        <time>2018-06-24T12:46:50Z</time>
      </trkpt>
      <trkpt lat="40.246217" lon="-4.898167">
        <ele>1348.0</ele>
        <time>2018-06-24T12:46:51Z</time>
      </trkpt>
      <trkpt lat="40.246317" lon="-4.898200">
        <ele>1350.0</ele>
        <time>2018-06-24T12:46:52Z</time>
      </trkpt>
      <trkpt lat="40.246417" lon="-4.898200">
        <ele>1351.0</ele>
        <time>2018-06-24T12:46:53Z</time>
      </trkpt>
      <trkpt lat="40.246533" lon="-4.898183">
        <ele>1352.0</ele>
        <time>2018-06-24T12:46:54Z</time>
      </trkpt>
      <trkpt lat="40.246633" lon="-4.898150">
        <ele>1352.0</ele>
        <time>2018-06-24T12:46:55Z</time>
      </trkpt>
      <trkpt lat="40.246733" lon="-4.898100">
        <ele>1352.0</ele>
        <time>2018-06-24T12:46:56Z</time>
      </trkpt>
      <trkpt lat="40.246833" lon="-4.898033">
        <ele>1353.0</ele>
        <time>2018-06-24T12:46:57Z</time>
      </trkpt>
      <trkpt lat="40.246950" lon="-4.897950">
        <ele>1354.0</ele>
        <time>2018-06-24T12:46:58Z</time>
      </trkpt>
      <trkpt lat="40.247050" lon="-4.897850">
        <ele>1355.0</ele>
        <time>2018-06-24T12:46:59Z</time>
      </trkpt>
      <trkpt lat="40.247133" lon="-4.897717">
        <ele>1357.0</ele>
        <time>2018-06-24T12:47:00Z</time>
      </trkpt>
      <trkpt lat="40.247183" lon="-4.897583">
        <ele>1359.0</ele>
        <time>2018-06-24T12:47:01Z</time>
      </trkpt>
      <trkpt lat="40.247233" lon="-4.897433">
        <ele>1361.0</ele>
        <time>2018-06-24T12:47:02Z</time>
      </trkpt>
      <trkpt lat="40.247267" lon="-4.897283">
        <ele>1363.0</ele>
        <time>2018-06-24T12:47:03Z</time>
      </trkpt>
      <trkpt lat="40.247283" lon="-4.897117">
        <ele>1366.0</ele>
        <time>2018-06-24T12:47:04Z</time>
      </trkpt>
      <trkpt lat="40.247300" lon="-4.896967">
        <ele>1370.0</ele>
        <time>2018-06-24T12:47:05Z</time>
      </trkpt>
      <trkpt lat="40.247317" lon="-4.896817">
        <ele>1373.0</ele>
        <time>2018-06-24T12:47:06Z</time>
      </trkpt>
      <trkpt lat="40.247300" lon="-4.896683">
        <ele>1376.0</ele>
        <time>2018-06-24T12:47:07Z</time>
      </trkpt>
      <trkpt lat="40.247267" lon="-4.896567">
        <ele>1377.0</ele>
        <time>2018-06-24T12:47:08Z</time>
      </trkpt>
      <trkpt lat="40.247217" lon="-4.896450">
        <ele>1377.0</ele>
        <time>2018-06-24T12:47:09Z</time>
      </trkpt>
      <trkpt lat="40.247183" lon="-4.896350">
        <ele>1377.0</ele>
        <time>2018-06-24T12:47:10Z</time>
      </trkpt>
      <trkpt lat="40.247117" lon="-4.896250">
        <ele>1378.0</ele>
        <time>2018-06-24T12:47:11Z</time>
      </trkpt>
      <trkpt lat="40.247067" lon="-4.896167">
        <ele>1380.0</ele>
        <time>2018-06-24T12:47:12Z</time>
      </trkpt>
      <trkpt lat="40.246983" lon="-4.896117">
        <ele>1381.0</ele>
        <time>2018-06-24T12:47:13Z</time>
      </trkpt>
      <trkpt lat="40.246917" lon="-4.896067">
        <ele>1382.0</ele>
        <time>2018-06-24T12:47:14Z</time>
      </trkpt>
      <trkpt lat="40.246833" lon="-4.896000">
        <ele>1381.0</ele>
        <time>2018-06-24T12:47:15Z</time>
      </trkpt>
      <trkpt lat="40.246767" lon="-4.895933">
        <ele>1382.0</ele>
        <time>2018-06-24T12:47:16Z</time>
      </trkpt>
      <trkpt lat="40.246700" lon="-4.895850">
        <ele>1383.0</ele>
        <time>2018-06-24T12:47:17Z</time>
      </trkpt>
      <trkpt lat="40.246650" lon="-4.895767">
        <ele>1384.0</ele>
        <time>2018-06-24T12:47:18Z</time>
      </trkpt>
      <trkpt lat="40.246583" lon="-4.895717">
        <ele>1386.0</ele>
        <time>2018-06-24T12:47:19Z</time>
      </trkpt>
      <trkpt lat="40.246517" lon="-4.895667">
        <ele>1386.0</ele>
        <time>2018-06-24T12:47:20Z</time>
      </trkpt>
      <trkpt lat="40.246467" lon="-4.895633">
        <ele>1386.0</ele>
        <time>2018-06-24T12:47:21Z</time>
      </trkpt>
      <trkpt lat="40.246383" lon="-4.895633">
        <ele>1385.0</ele>
        <time>2018-06-24T12:47:22Z</time>
      </trkpt>
      <trkpt lat="40.246300" lon="-4.895650">
        <ele>1384.0</ele>
        <time>2018-06-24T12:47:23Z</time>
      </trkpt>
      <trkpt lat="40.246217" lon="-4.895683">
        <ele>1383.0</ele>
        <time>2018-06-24T12:47:24Z</time>
      </trkpt>
      <trkpt lat="40.246133" lon="-4.895733">
        <ele>1384.0</ele>
        <time>2018-06-24T12:47:25Z</time>
      </trkpt>
      <trkpt lat="40.246067" lon="-4.895800">
        <ele>1384.0</ele>
        <time>2018-06-24T12:47:26Z</time>
      </trkpt>
      <trkpt lat="40.246000" lon="-4.895850">
        <ele>1385.0</ele>
        <time>2018-06-24T12:47:27Z</time>
      </trkpt>
      <trkpt lat="40.245933" lon="-4.895917">
        <ele>1385.0</ele>
        <time>2018-06-24T12:47:28Z</time>
      </trkpt>
      <trkpt lat="40.245883" lon="-4.895983">
        <ele>1384.0</ele>
        <time>2018-06-24T12:47:29Z</time>
      </trkpt>
      <trkpt lat="40.245817" lon="-4.896083">
        <ele>1383.0</ele>
        <time>2018-06-24T12:47:30Z</time>
      </trkpt>
      <trkpt lat="40.245767" lon="-4.896183">
        <ele>1383.0</ele>
        <time>2018-06-24T12:47:31Z</time>
      </trkpt>
      <trkpt lat="40.245717" lon="-4.896300">
        <ele>1384.0</ele>
        <time>2018-06-24T12:47:32Z</time>
      </trkpt>
      <trkpt lat="40.245700" lon="-4.896433">
        <ele>1386.0</ele>
        <time>2018-06-24T12:47:33Z</time>
      </trkpt>
      <trkpt lat="40.245683" lon="-4.896550">
        <ele>1389.0</ele>
        <time>2018-06-24T12:47:34Z</time>
      </trkpt>
      <trkpt lat="40.245667" lon="-4.896633">
        <ele>1390.0</ele>
        <time>2018-06-24T12:47:35Z</time>
      </trkpt>
      <trkpt lat="40.245667" lon="-4.896717">
        <ele>1391.0</ele>
        <time>2018-06-24T12:47:36Z</time>
      </trkpt>
      <trkpt lat="40.245667" lon="-4.896800">
        <ele>1391.0</ele>
        <time>2018-06-24T12:47:37Z</time>
      </trkpt>
      <trkpt lat="40.245683" lon="-4.896900">
        <ele>1391.0</ele>
        <time>2018-06-24T12:47:38Z</time>
      </trkpt>
      <trkpt lat="40.245717" lon="-4.897000">
        <ele>1391.0</ele>
        <time>2018-06-24T12:47:39Z</time>
      </trkpt>
      <trkpt lat="40.245750" lon="-4.897100">
        <ele>1391.0</ele>
        <time>2018-06-24T12:47:40Z</time>
      </trkpt>
      <trkpt lat="40.245800" lon="-4.897183">
        <ele>1391.0</ele>
        <time>2018-06-24T12:47:41Z</time>
      </trkpt>
      <trkpt lat="40.245867" lon="-4.897250">
        <ele>1392.0</ele>
        <time>2018-06-24T12:47:42Z</time>
      </trkpt>
      <trkpt lat="40.245950" lon="-4.897317">
        <ele>1391.0</ele>
        <time>2018-06-24T12:47:43Z</time>
      </trkpt>
      <trkpt lat="40.246033" lon="-4.897367">
        <ele>1391.0</ele>
        <time>2018-06-24T12:47:44Z</time>
      </trkpt>
      <trkpt lat="40.246133" lon="-4.897400">
        <ele>1392.0</ele>
        <time>2018-06-24T12:47:45Z</time>
      </trkpt>
      <trkpt lat="40.246233" lon="-4.897433">
        <ele>1392.0</ele>
        <time>2018-06-24T12:47:46Z</time>
      </trkpt>
      <trkpt lat="40.246333" lon="-4.897450">
        <ele>1393.0</ele>
        <time>2018-06-24T12:47:47Z</time>
      </trkpt>
      <trkpt lat="40.246433" lon="-4.897450">
        <ele>1394.0</ele>
        <time>2018-06-24T12:47:48Z</time>
      </trkpt>
      <trkpt lat="40.246517" lon="-4.897450">
        <ele>1394.0</ele>
        <time>2018-06-24T12:47:49Z</time>
      </trkpt>
      <trkpt lat="40.246600" lon="-4.897400">
        <ele>1393.0</ele>
        <time>2018-06-24T12:47:50Z</time>
      </trkpt>
      <trkpt lat="40.246667" lon="-4.897333">
        <ele>1391.0</ele>
        <time>2018-06-24T12:47:51Z</time>
      </trkpt>
      <trkpt lat="40.246750" lon="-4.897233">
        <ele>1390.0</ele>
        <time>2018-06-24T12:47:52Z</time>
      </trkpt>
      <trkpt lat="40.246850" lon="-4.897133">
        <ele>1391.0</ele>
        <time>2018-06-24T12:47:53Z</time>
      </trkpt>
      <trkpt lat="40.246917" lon="-4.897033">
        <ele>1393.0</ele>
        <time>2018-06-24T12:47:54Z</time>
      </trkpt>
      <trkpt lat="40.246983" lon="-4.896900">
        <ele>1395.0</ele>
        <time>2018-06-24T12:47:55Z</time>
      </trkpt>
      <trkpt lat="40.247000" lon="-4.896767">
        <ele>1397.0</ele>
        <time>2018-06-24T12:47:56Z</time>
      </trkpt>
      <trkpt lat="40.247017" lon="-4.896633">
        <ele>1399.0</ele>
        <time>2018-06-24T12:47:57Z</time>
      </trkpt>
      <trkpt lat="40.247017" lon="-4.896500">
        <ele>1402.0</ele>
        <time>2018-06-24T12:47:58Z</time>
      </trkpt>
      <trkpt lat="40.247033" lon="-4.896400">
        <ele>1404.0</ele>
        <time>2018-06-24T12:47:59Z</time>
      </trkpt>
      <trkpt lat="40.247050" lon="-4.896317">
        <ele>1405.0</ele>
        <time>2018-06-24T12:48:00Z</time>
      </trkpt>
      <trkpt lat="40.247083" lon="-4.896233">
        <ele>1405.0</ele>
        <time>2018-06-24T12:48:01Z</time>
      </trkpt>
      <trkpt lat="40.247100" lon="-4.896117">
        <ele>1405.0</ele>
        <time>2018-06-24T12:48:02Z</time>
      </trkpt>
      <trkpt lat="40.247117" lon="-4.896000">
        <ele>1405.0</ele>
        <time>2018-06-24T12:48:03Z</time>
      </trkpt>
      <trkpt lat="40.247133" lon="-4.895883">
        <ele>1406.0</ele>
        <time>2018-06-24T12:48:04Z</time>
      </trkpt>
      <trkpt lat="40.247117" lon="-4.895767">
        <ele>1406.0</ele>
        <time>2018-06-24T12:48:05Z</time>
      </trkpt>
      <trkpt lat="40.247100" lon="-4.895650">
        <ele>1406.0</ele>
        <time>2018-06-24T12:48:06Z</time>
      </trkpt>
      <trkpt lat="40.247050" lon="-4.895533">
        <ele>1405.0</ele>
        <time>2018-06-24T12:48:07Z</time>
      </trkpt>
      <trkpt lat="40.246983" lon="-4.895417">
        <ele>1404.0</ele>
        <time>2018-06-24T12:48:08Z</time>
      </trkpt>
      <trkpt lat="40.246900" lon="-4.895317">
        <ele>1404.0</ele>
        <time>2018-06-24T12:48:09Z</time>
      </trkpt>
      <trkpt lat="40.246817" lon="-4.895250">
        <ele>1406.0</ele>
        <time>2018-06-24T12:48:10Z</time>
      </trkpt>
      <trkpt lat="40.246750" lon="-4.895183">
        <ele>1408.0</ele>
        <time>2018-06-24T12:48:11Z</time>
      </trkpt>
      <trkpt lat="40.246683" lon="-4.895150">
        <ele>1408.0</ele>
        <time>2018-06-24T12:48:12Z</time>
      </trkpt>
      <trkpt lat="40.246617" lon="-4.895117">
        <ele>1408.0</ele>
        <time>2018-06-24T12:48:13Z</time>
      </trkpt>
      <trkpt lat="40.246533" lon="-4.895100">
        <ele>1406.0</ele>
        <time>2018-06-24T12:48:14Z</time>
      </trkpt>
      <trkpt lat="40.246433" lon="-4.895100">
        <ele>1404.0</ele>
        <time>2018-06-24T12:48:15Z</time>
      </trkpt>
      <trkpt lat="40.246333" lon="-4.895117">
        <ele>1403.0</ele>
        <time>2018-06-24T12:48:16Z</time>
      </trkpt>
      <trkpt lat="40.246233" lon="-4.895133">
        <ele>1403.0</ele>
        <time>2018-06-24T12:48:17Z</time>
      </trkpt>
      <trkpt lat="40.246150" lon="-4.895167">
        <ele>1404.0</ele>
        <time>2018-06-24T12:48:18Z</time>
      </trkpt>
      <trkpt lat="40.246050" lon="-4.895217">
        <ele>1403.0</ele>
        <time>2018-06-24T12:48:19Z</time>
      </trkpt>
      <trkpt lat="40.245967" lon="-4.895267">
        <ele>1403.0</ele>
        <time>2018-06-24T12:48:20Z</time>
      </trkpt>
      <trkpt lat="40.245900" lon="-4.895317">
        <ele>1402.0</ele>
        <time>2018-06-24T12:48:21Z</time>
      </trkpt>
      <trkpt lat="40.245833" lon="-4.895367">
        <ele>1402.0</ele>
        <time>2018-06-24T12:48:22Z</time>
      </trkpt>
      <trkpt lat="40.245767" lon="-4.895433">
        <ele>1402.0</ele>
        <time>2018-06-24T12:48:23Z</time>
      </trkpt>
      <trkpt lat="40.245700" lon="-4.895483">
        <ele>1401.0</ele>
        <time>2018-06-24T12:48:24Z</time>
      </trkpt>
      <trkpt lat="40.245667" lon="-4.895567">
        <ele>1400.0</ele>
        <time>2018-06-24T12:48:25Z</time>
      </trkpt>
      <trkpt lat="40.245633" lon="-4.895650">
        <ele>1399.0</ele>
        <time>2018-06-24T12:48:26Z</time>
      </trkpt>
      <trkpt lat="40.245600" lon="-4.895750">
        <ele>1398.0</ele>
        <time>2018-06-24T12:48:27Z</time>
      </trkpt>
      <trkpt lat="40.245600" lon="-4.895833">
        <ele>1397.0</ele>
        <time>2018-06-24T12:48:28Z</time>
      </trkpt>
      <trkpt lat="40.245583" lon="-4.895933">
        <ele>1396.0</ele>
        <time>2018-06-24T12:48:29Z</time>
      </trkpt>
      <trkpt lat="40.245600" lon="-4.896033">
        <ele>1395.0</ele>
        <time>2018-06-24T12:48:30Z</time>
      </trkpt>
      <trkpt lat="40.245600" lon="-4.896150">
        <ele>1393.0</ele>
        <time>2018-06-24T12:48:31Z</time>
      </trkpt>
      <trkpt lat="40.245633" lon="-4.896250">
        <ele>1392.0</ele>
        <time>2018-06-24T12:48:32Z</time>
      </trkpt>
      <trkpt lat="40.245667" lon="-4.896333">
        <ele>1392.0</ele>
        <time>2018-06-24T12:48:33Z</time>
      </trkpt>
      <trkpt lat="40.245717" lon="-4.896417">
        <ele>1391.0</ele>
        <time>2018-06-24T12:48:34Z</time>
      </trkpt>
      <trkpt lat="40.245767" lon="-4.896500">
        <ele>1391.0</ele>
        <time>2018-06-24T12:48:35Z</time>
      </trkpt>
      <trkpt lat="40.245817" lon="-4.896567">
        <ele>1390.0</ele>
        <time>2018-06-24T12:48:36Z</time>
      </trkpt>
      <trkpt lat="40.245883" lon="-4.896633">
        <ele>1389.0</ele>
        <time>2018-06-24T12:48:37Z</time>
      </trkpt>
      <trkpt lat="40.245950" lon="-4.896700">
        <ele>1387.0</ele>
        <time>2018-06-24T12:48:38Z</time>
      </trkpt>
      <trkpt lat="40.246017" lon="-4.896733">
        <ele>1385.0</ele>
        <time>2018-06-24T12:48:39Z</time>
      </trkpt>
      <trkpt lat="40.246117" lon="-4.896733">
        <ele>1384.0</ele>
        <time>2018-06-24T12:48:40Z</time>
      </trkpt>
      <trkpt lat="40.246200" lon="-4.896733">
        <ele>1384.0</ele>
        <time>2018-06-24T12:48:41Z</time>
      </trkpt>
      <trkpt lat="40.246267" lon="-4.896683">
        <ele>1384.0</ele>
        <time>2018-06-24T12:48:42Z</time>
      </trkpt>
      <trkpt lat="40.246333" lon="-4.896617">
        <ele>1383.0</ele>
        <time>2018-06-24T12:48:43Z</time>
      </trkpt>
      <trkpt lat="40.246400" lon="-4.896533">
        <ele>1382.0</ele>
        <time>2018-06-24T12:48:44Z</time>
      </trkpt>
      <trkpt lat="40.246467" lon="-4.896433">
        <ele>1381.0</ele>
        <time>2018-06-24T12:48:45Z</time>
      </trkpt>
      <trkpt lat="40.246517" lon="-4.896317">
        <ele>1380.0</ele>
        <time>2018-06-24T12:48:46Z</time>
      </trkpt>
      <trkpt lat="40.246550" lon="-4.896183">
        <ele>1380.0</ele>
        <time>2018-06-24T12:48:47Z</time>
      </trkpt>
      <trkpt lat="40.246567" lon="-4.896050">
        <ele>1380.0</ele>
        <time>2018-06-24T12:48:48Z</time>
      </trkpt>
      <trkpt lat="40.246567" lon="-4.895933">
        <ele>1380.0</ele>
        <time>2018-06-24T12:48:49Z</time>
      </trkpt>
      <trkpt lat="40.246550" lon="-4.895817">
        <ele>1379.0</ele>
        <time>2018-06-24T12:48:50Z</time>
      </trkpt>
      <trkpt lat="40.246533" lon="-4.895700">
        <ele>1378.0</ele>
        <time>2018-06-24T12:48:51Z</time>
      </trkpt>
      <trkpt lat="40.246500" lon="-4.895583">
        <ele>1376.0</ele>
        <time>2018-06-24T12:48:52Z</time>
      </trkpt>
      <trkpt lat="40.246450" lon="-4.895483">
        <ele>1375.0</ele>
        <time>2018-06-24T12:48:53Z</time>
      </trkpt>
      <trkpt lat="40.246383" lon="-4.895383">
        <ele>1374.0</ele>
        <time>2018-06-24T12:48:54Z</time>
      </trkpt>
      <trkpt lat="40.246333" lon="-4.895283">
        <ele>1373.0</ele>
        <time>2018-06-24T12:48:55Z</time>
      </trkpt>
      <trkpt lat="40.246267" lon="-4.895200">
        <ele>1372.0</ele>
        <time>2018-06-24T12:48:56Z</time>
      </trkpt>
      <trkpt lat="40.246200" lon="-4.895133">
        <ele>1371.0</ele>
        <time>2018-06-24T12:48:57Z</time>
      </trkpt>
      <trkpt lat="40.246133" lon="-4.895083">
        <ele>1370.0</ele>
        <time>2018-06-24T12:48:58Z</time>
      </trkpt>
      <trkpt lat="40.246050" lon="-4.895033">
        <ele>1368.0</ele>
        <time>2018-06-24T12:48:59Z</time>
      </trkpt>
      <trkpt lat="40.245967" lon="-4.895000">
        <ele>1366.0</ele>
        <time>2018-06-24T12:49:00Z</time>
      </trkpt>
      <trkpt lat="40.245867" lon="-4.894983">
        <ele>1364.0</ele>
        <time>2018-06-24T12:49:01Z</time>
      </trkpt>
      <trkpt lat="40.245767" lon="-4.894983">
        <ele>1363.0</ele>
        <time>2018-06-24T12:49:02Z</time>
      </trkpt>
      <trkpt lat="40.245683" lon="-4.894967">
        <ele>1362.0</ele>
        <time>2018-06-24T12:49:03Z</time>
      </trkpt>
      <trkpt lat="40.245600" lon="-4.894967">
        <ele>1360.0</ele>
        <time>2018-06-24T12:49:04Z</time>
      </trkpt>
      <trkpt lat="40.245517" lon="-4.894967">
        <ele>1358.0</ele>
        <time>2018-06-24T12:49:05Z</time>
      </trkpt>
      <trkpt lat="40.245433" lon="-4.894983">
        <ele>1356.0</ele>
        <time>2018-06-24T12:49:06Z</time>
      </trkpt>
      <trkpt lat="40.245333" lon="-4.895000">
        <ele>1354.0</ele>
        <time>2018-06-24T12:49:07Z</time>
      </trkpt>
      <trkpt lat="40.245250" lon="-4.895017">
        <ele>1351.0</ele>
        <time>2018-06-24T12:49:08Z</time>
      </trkpt>
      <trkpt lat="40.245167" lon="-4.895050">
        <ele>1349.0</ele>
        <time>2018-06-24T12:49:09Z</time>
      </trkpt>
      <trkpt lat="40.245067" lon="-4.895083">
        <ele>1347.0</ele>
        <time>2018-06-24T12:49:10Z</time>
      </trkpt>
      <trkpt lat="40.244983" lon="-4.895133">
        <ele>1344.0</ele>
        <time>2018-06-24T12:49:11Z</time>
      </trkpt>
      <trkpt lat="40.244900" lon="-4.895150">
        <ele>1342.0</ele>
        <time>2018-06-24T12:49:12Z</time>
      </trkpt>
      <trkpt lat="40.244800" lon="-4.895150">
        <ele>1339.0</ele>
        <time>2018-06-24T12:49:13Z</time>
      </trkpt>
      <trkpt lat="40.244683" lon="-4.895150">
        <ele>1336.0</ele>
        <time>2018-06-24T12:49:14Z</time>
      </trkpt>
      <trkpt lat="40.244583" lon="-4.895167">
        <ele>1334.0</ele>
        <time>2018-06-24T12:49:15Z</time>
      </trkpt>
      <trkpt lat="40.244483" lon="-4.895200">
        <ele>1332.0</ele>
        <time>2018-06-24T12:49:16Z</time>
      </trkpt>
      <trkpt lat="40.244383" lon="-4.895250">
        <ele>1331.0</ele>
        <time>2018-06-24T12:49:17Z</time>
      </trkpt>
      <trkpt lat="40.244300" lon="-4.895300">
        <ele>1329.0</ele>
        <time>2018-06-24T12:49:18Z</time>
      </trkpt>
      <trkpt lat="40.244200" lon="-4.895333">
        <ele>1327.0</ele>
        <time>2018-06-24T12:49:19Z</time>
      </trkpt>
      <trkpt lat="40.244117" lon="-4.895367">
        <ele>1325.0</ele>
        <time>2018-06-24T12:49:20Z</time>
      </trkpt>
      <trkpt lat="40.244017" lon="-4.895417">
        <ele>1323.0</ele>
        <time>2018-06-24T12:49:21Z</time>
      </trkpt>
      <trkpt lat="40.243917" lon="-4.895467">
        <ele>1320.0</ele>
        <time>2018-06-24T12:49:22Z</time>
      </trkpt>
      <trkpt lat="40.243817" lon="-4.895533">
        <ele>1318.0</ele>
        <time>2018-06-24T12:49:23Z</time>
      </trkpt>
      <trkpt lat="40.243733" lon="-4.895583">
        <ele>1316.0</ele>
        <time>2018-06-24T12:49:24Z</time>
      </trkpt>
      <trkpt lat="40.243633" lon="-4.895633">
        <ele>1314.0</ele>
        <time>2018-06-24T12:49:25Z</time>
      </trkpt>
      <trkpt lat="40.243533" lon="-4.895700">
        <ele>1311.0</ele>
        <time>2018-06-24T12:49:26Z</time>
      </trkpt>
      <trkpt lat="40.243450" lon="-4.895767">
        <ele>1308.0</ele>
        <time>2018-06-24T12:49:27Z</time>
      </trkpt>
      <trkpt lat="40.243367" lon="-4.895867">
        <ele>1306.0</ele>
        <time>2018-06-24T12:49:28Z</time>
      </trkpt>
      <trkpt lat="40.243267" lon="-4.895950">
        <ele>1304.0</ele>
        <time>2018-06-24T12:49:29Z</time>
      </trkpt>
      <trkpt lat="40.243183" lon="-4.896033">
        <ele>1302.0</ele>
        <time>2018-06-24T12:49:30Z</time>
      </trkpt>
      <trkpt lat="40.243100" lon="-4.896100">
        <ele>1300.0</ele>
        <time>2018-06-24T12:49:31Z</time>
      </trkpt>
      <trkpt lat="40.243017" lon="-4.896183">
        <ele>1297.0</ele>
        <time>2018-06-24T12:49:32Z</time>
      </trkpt>
      <trkpt lat="40.242933" lon="-4.896267">
        <ele>1295.0</ele>
        <time>2018-06-24T12:49:33Z</time>
      </trkpt>
      <trkpt lat="40.242867" lon="-4.896367">
        <ele>1292.0</ele>
        <time>2018-06-24T12:49:34Z</time>
      </trkpt>
      <trkpt lat="40.242783" lon="-4.896450">
        <ele>1291.0</ele>
        <time>2018-06-24T12:49:35Z</time>
      </trkpt>
      <trkpt lat="40.242717" lon="-4.896533">
        <ele>1290.0</ele>
        <time>2018-06-24T12:49:36Z</time>
      </trkpt>
      <trkpt lat="40.242633" lon="-4.896617">
        <ele>1290.0</ele>
        <time>2018-06-24T12:49:37Z</time>
      </trkpt>
      <trkpt lat="40.242550" lon="-4.896683">
        <ele>1289.0</ele>
        <time>2018-06-24T12:49:38Z</time>
      </trkpt>
      <trkpt lat="40.242483" lon="-4.896750">
        <ele>1287.0</ele>
        <time>2018-06-24T12:49:39Z</time>
      </trkpt>
      <trkpt lat="40.242417" lon="-4.896817">
        <ele>1285.0</ele>
        <time>2018-06-24T12:49:40Z</time>
      </trkpt>
      <trkpt lat="40.242333" lon="-4.896900">
        <ele>1283.0</ele>
        <time>2018-06-24T12:49:41Z</time>
      </trkpt>
      <trkpt lat="40.242267" lon="-4.896967">
        <ele>1280.0</ele>
        <time>2018-06-24T12:49:42Z</time>
      </trkpt>
      <trkpt lat="40.242183" lon="-4.897017">
        <ele>1277.0</ele>
        <time>2018-06-24T12:49:43Z</time>
      </trkpt>
      <trkpt lat="40.242100" lon="-4.897067">
        <ele>1274.0</ele>
        <time>2018-06-24T12:49:44Z</time>
      </trkpt>
      <trkpt lat="40.242017" lon="-4.897083">
        <ele>1272.0</ele>
        <time>2018-06-24T12:49:45Z</time>
      </trkpt>
      <trkpt lat="40.241917" lon="-4.897117">
        <ele>1270.0</ele>
        <time>2018-06-24T12:49:46Z</time>
      </trkpt>
      <trkpt lat="40.241833" lon="-4.897150">
        <ele>1269.0</ele>
        <time>2018-06-24T12:49:47Z</time>
      </trkpt>
      <trkpt lat="40.241750" lon="-4.897183">
        <ele>1267.0</ele>
        <time>2018-06-24T12:49:48Z</time>
      </trkpt>
      <trkpt lat="40.241683" lon="-4.897217">
        <ele>1266.0</ele>
        <time>2018-06-24T12:49:49Z</time>
      </trkpt>
      <trkpt lat="40.241600" lon="-4.897250">
        <ele>1264.0</ele>
        <time>2018-06-24T12:49:50Z</time>
      </trkpt>
      <trkpt lat="40.241517" lon="-4.897267">
        <ele>1263.0</ele>
        <time>2018-06-24T12:49:51Z</time>
      </trkpt>
      <trkpt lat="40.241433" lon="-4.897283">
        <ele>1261.0</ele>
        <time>2018-06-24T12:49:52Z</time>
      </trkpt>
      <trkpt lat="40.241350" lon="-4.897317">
        <ele>1261.0</ele>
        <time>2018-06-24T12:49:53Z</time>
      </trkpt>
      <trkpt lat="40.241267" lon="-4.897350">
        <ele>1261.0</ele>
        <time>2018-06-24T12:49:54Z</time>
      </trkpt>
      <trkpt lat="40.241200" lon="-4.897400">
        <ele>1261.0</ele>
        <time>2018-06-24T12:49:55Z</time>
      </trkpt>
      <trkpt lat="40.241133" lon="-4.897433">
        <ele>1261.0</ele>
        <time>2018-06-24T12:49:56Z</time>
      </trkpt>
      <trkpt lat="40.241067" lon="-4.897483">
        <ele>1260.0</ele>
        <time>2018-06-24T12:49:57Z</time>
      </trkpt>
      <trkpt lat="40.240983" lon="-4.897533">
        <ele>1258.0</ele>
        <time>2018-06-24T12:49:58Z</time>
      </trkpt>
      <trkpt lat="40.240917" lon="-4.897583">
        <ele>1257.0</ele>
        <time>2018-06-24T12:49:59Z</time>
      </trkpt>
      <trkpt lat="40.240833" lon="-4.897617">
        <ele>1255.0</ele>
        <time>2018-06-24T12:50:00Z</time>
      </trkpt>
      <trkpt lat="40.240750" lon="-4.897667">
        <ele>1254.0</ele>
        <time>2018-06-24T12:50:01Z</time>
      </trkpt>
      <trkpt lat="40.240667" lon="-4.897700">
        <ele>1253.0</ele>
        <time>2018-06-24T12:50:02Z</time>
      </trkpt>
      <trkpt lat="40.240583" lon="-4.897750">
        <ele>1252.0</ele>
        <time>2018-06-24T12:50:03Z</time>
      </trkpt>
      <trkpt lat="40.240500" lon="-4.897800">
        <ele>1252.0</ele>
        <time>2018-06-24T12:50:04Z</time>
      </trkpt>
      <trkpt lat="40.240433" lon="-4.897867">
        <ele>1250.0</ele>
        <time>2018-06-24T12:50:05Z</time>
      </trkpt>
      <trkpt lat="40.240367" lon="-4.897917">
        <ele>1249.0</ele>
        <time>2018-06-24T12:50:06Z</time>
      </trkpt>
      <trkpt lat="40.240283" lon="-4.897983">
        <ele>1248.0</ele>
        <time>2018-06-24T12:50:07Z</time>
      </trkpt>
      <trkpt lat="40.240217" lon="-4.898033">
        <ele>1247.0</ele>
        <time>2018-06-24T12:50:08Z</time>
      </trkpt>
      <trkpt lat="40.240133" lon="-4.898083">
        <ele>1246.0</ele>
        <time>2018-06-24T12:50:09Z</time>
      </trkpt>
      <trkpt lat="40.240050" lon="-4.898117">
        <ele>1246.0</ele>
        <time>2018-06-24T12:50:10Z</time>
      </trkpt>
      <trkpt lat="40.239967" lon="-4.898150">
        <ele>1245.0</ele>
        <time>2018-06-24T12:50:11Z</time>
      </trkpt>
      <trkpt lat="40.239883" lon="-4.898167">
        <ele>1244.0</ele>
        <time>2018-06-24T12:50:12Z</time>
      </trkpt>
      <trkpt lat="40.239800" lon="-4.898183">
        <ele>1243.0</ele>
        <time>2018-06-24T12:50:13Z</time>
      </trkpt>
      <trkpt lat="40.239700" lon="-4.898200">
        <ele>1242.0</ele>
        <time>2018-06-24T12:50:14Z</time>
      </trkpt>
      <trkpt lat="40.239617" lon="-4.898217">
        <ele>1242.0</ele>
        <time>2018-06-24T12:50:15Z</time>
      </trkpt>
      <trkpt lat="40.239533" lon="-4.898267">
        <ele>1241.0</ele>
        <time>2018-06-24T12:50:16Z</time>
      </trkpt>
      <trkpt lat="40.239450" lon="-4.898300">
        <ele>1240.0</ele>
        <time>2018-06-24T12:50:17Z</time>
      </trkpt>
      <trkpt lat="40.239367" lon="-4.898333">
        <ele>1239.0</ele>
        <time>2018-06-24T12:50:18Z</time>
      </trkpt>
      <trkpt lat="40.239283" lon="-4.898367">
        <ele>1238.0</ele>
        <time>2018-06-24T12:50:19Z</time>
      </trkpt>
      <trkpt lat="40.239183" lon="-4.898400">
        <ele>1237.0</ele>
        <time>2018-06-24T12:50:20Z</time>
      </trkpt>
      <trkpt lat="40.239100" lon="-4.898433">
        <ele>1236.0</ele>
        <time>2018-06-24T12:50:21Z</time>
      </trkpt>
      <trkpt lat="40.239017" lon="-4.898450">
        <ele>1234.0</ele>
        <time>2018-06-24T12:50:22Z</time>
      </trkpt>
      <trkpt lat="40.238933" lon="-4.898483">
        <ele>1232.0</ele>
        <time>2018-06-24T12:50:23Z</time>
      </trkpt>
      <trkpt lat="40.238833" lon="-4.898500">
        <ele>1230.0</ele>
        <time>2018-06-24T12:50:24Z</time>
      </trkpt>
      <trkpt lat="40.238733" lon="-4.898517">
        <ele>1228.0</ele>
        <time>2018-06-24T12:50:25Z</time>
      </trkpt>
      <trkpt lat="40.238633" lon="-4.898550">
        <ele>1227.0</ele>
        <time>2018-06-24T12:50:26Z</time>
      </trkpt>
      <trkpt lat="40.238550" lon="-4.898567">
        <ele>1225.0</ele>
        <time>2018-06-24T12:50:27Z</time>
      </trkpt>
      <trkpt lat="40.238450" lon="-4.898600">
        <ele>1223.0</ele>
        <time>2018-06-24T12:50:28Z</time>
      </trkpt>
      <trkpt lat="40.238350" lon="-4.898617">
        <ele>1221.0</ele>
        <time>2018-06-24T12:50:29Z</time>
      </trkpt>
      <trkpt lat="40.238250" lon="-4.898633">
        <ele>1219.0</ele>
        <time>2018-06-24T12:50:30Z</time>
      </trkpt>
      <trkpt lat="40.238133" lon="-4.898667">
        <ele>1218.0</ele>
        <time>2018-06-24T12:50:31Z</time>
      </trkpt>
      <trkpt lat="40.238033" lon="-4.898683">
        <ele>1216.0</ele>
        <time>2018-06-24T12:50:32Z</time>
      </trkpt>
      <trkpt lat="40.237933" lon="-4.898700">
        <ele>1215.0</ele>
        <time>2018-06-24T12:50:33Z</time>
      </trkpt>
      <trkpt lat="40.237850" lon="-4.898717">
        <ele>1214.0</ele>
        <time>2018-06-24T12:50:34Z</time>
      </trkpt>
      <trkpt lat="40.237750" lon="-4.898733">
        <ele>1214.0</ele>
        <time>2018-06-24T12:50:35Z</time>
      </trkpt>
      <trkpt lat="40.237667" lon="-4.898767">
        <ele>1213.0</ele>
        <time>2018-06-24T12:50:36Z</time>
      </trkpt>
      <trkpt lat="40.237567" lon="-4.898783">
        <ele>1211.0</ele>
        <time>2018-06-24T12:50:37Z</time>
      </trkpt>
      <trkpt lat="40.237467" lon="-4.898783">
        <ele>1210.0</ele>
        <time>2018-06-24T12:50:38Z</time>
      </trkpt>
      <trkpt lat="40.237350" lon="-4.898800">
        <ele>1208.0</ele>
        <time>2018-06-24T12:50:39Z</time>
      </trkpt>
      <trkpt lat="40.237250" lon="-4.898817">
        <ele>1207.0</ele>
        <time>2018-06-24T12:50:40Z</time>
      </trkpt>
      <trkpt lat="40.237133" lon="-4.898833">
        <ele>1205.0</ele>
        <time>2018-06-24T12:50:41Z</time>
      </trkpt>
      <trkpt lat="40.237033" lon="-4.898850">
        <ele>1204.0</ele>
        <time>2018-06-24T12:50:42Z</time>
      </trkpt>
      <trkpt lat="40.236917" lon="-4.898867">
        <ele>1202.0</ele>
        <time>2018-06-24T12:50:43Z</time>
      </trkpt>
      <trkpt lat="40.236817" lon="-4.898900">
        <ele>1201.0</ele>
        <time>2018-06-24T12:50:44Z</time>
      </trkpt>
      <trkpt lat="40.236717" lon="-4.898917">
        <ele>1198.0</ele>
        <time>2018-06-24T12:50:45Z</time>
      </trkpt>
      <trkpt lat="40.236617" lon="-4.898933">
        <ele>1196.0</ele>
        <time>2018-06-24T12:50:46Z</time>
      </trkpt>
      <trkpt lat="40.236500" lon="-4.898950">
        <ele>1195.0</ele>
        <time>2018-06-24T12:50:47Z</time>
      </trkpt>
      <trkpt lat="40.236400" lon="-4.898967">
        <ele>1193.0</ele>
        <time>2018-06-24T12:50:48Z</time>
      </trkpt>
      <trkpt lat="40.236317" lon="-4.898983">
        <ele>1191.0</ele>
        <time>2018-06-24T12:50:49Z</time>
      </trkpt>
      <trkpt lat="40.236200" lon="-4.899000">
        <ele>1189.0</ele>
        <time>2018-06-24T12:50:50Z</time>
      </trkpt>
      <trkpt lat="40.236100" lon="-4.899017">
        <ele>1187.0</ele>
        <time>2018-06-24T12:50:51Z</time>
      </trkpt>
      <trkpt lat="40.235983" lon="-4.899033">
        <ele>1185.0</ele>
        <time>2018-06-24T12:50:52Z</time>
      </trkpt>
      <trkpt lat="40.235883" lon="-4.899050">
        <ele>1183.0</ele>
        <time>2018-06-24T12:50:53Z</time>
      </trkpt>
      <trkpt lat="40.235783" lon="-4.899067">
        <ele>1180.0</ele>
        <time>2018-06-24T12:50:54Z</time>
      </trkpt>
      <trkpt lat="40.235683" lon="-4.899100">
        <ele>1178.0</ele>
        <time>2018-06-24T12:50:55Z</time>
      </trkpt>
      <trkpt lat="40.235583" lon="-4.899133">
        <ele>1175.0</ele>
        <time>2018-06-24T12:50:56Z</time>
      </trkpt>
      <trkpt lat="40.235483" lon="-4.899167">
        <ele>1173.0</ele>
        <time>2018-06-24T12:50:57Z</time>
      </trkpt>
      <trkpt lat="40.235383" lon="-4.899200">
        <ele>1170.0</ele>
        <time>2018-06-24T12:50:58Z</time>
      </trkpt>
      <trkpt lat="40.235283" lon="-4.899217">
        <ele>1168.0</ele>
        <time>2018-06-24T12:50:59Z</time>
      </trkpt>
      <trkpt lat="40.235183" lon="-4.899250">
        <ele>1166.0</ele>
        <time>2018-06-24T12:51:00Z</time>
      </trkpt>
      <trkpt lat="40.235100" lon="-4.899283">
        <ele>1163.0</ele>
        <time>2018-06-24T12:51:01Z</time>
      </trkpt>
      <trkpt lat="40.235017" lon="-4.899333">
        <ele>1159.0</ele>
        <time>2018-06-24T12:51:02Z</time>
      </trkpt>
      <trkpt lat="40.234917" lon="-4.899367">
        <ele>1157.0</ele>
        <time>2018-06-24T12:51:03Z</time>
      </trkpt>
      <trkpt lat="40.234817" lon="-4.899400">
        <ele>1155.0</ele>
        <time>2018-06-24T12:51:04Z</time>
      </trkpt>
      <trkpt lat="40.234733" lon="-4.899433">
        <ele>1152.0</ele>
        <time>2018-06-24T12:51:05Z</time>
      </trkpt>
      <trkpt lat="40.234667" lon="-4.899467">
        <ele>1150.0</ele>
        <time>2018-06-24T12:51:06Z</time>
      </trkpt>
      <trkpt lat="40.234583" lon="-4.899500">
        <ele>1146.0</ele>
        <time>2018-06-24T12:51:07Z</time>
      </trkpt>
      <trkpt lat="40.234517" lon="-4.899550">
        <ele>1143.0</ele>
        <time>2018-06-24T12:51:08Z</time>
      </trkpt>
      <trkpt lat="40.234450" lon="-4.899600">
        <ele>1141.0</ele>
        <time>2018-06-24T12:51:09Z</time>
      </trkpt>
      <trkpt lat="40.234383" lon="-4.899667">
        <ele>1138.0</ele>
        <time>2018-06-24T12:51:10Z</time>
      </trkpt>
      <trkpt lat="40.234350" lon="-4.899750">
        <ele>1136.0</ele>
        <time>2018-06-24T12:51:11Z</time>
      </trkpt>
      <trkpt lat="40.234333" lon="-4.899833">
        <ele>1134.0</ele>
        <time>2018-06-24T12:51:12Z</time>
      </trkpt>
      <trkpt lat="40.234367" lon="-4.899933">
        <ele>1130.0</ele>
        <time>2018-06-24T12:51:13Z</time>
      </trkpt>
      <trkpt lat="40.234417" lon="-4.900017">
        <ele>1128.0</ele>
        <time>2018-06-24T12:51:14Z</time>
      </trkpt>
      <trkpt lat="40.234467" lon="-4.900050">
        <ele>1124.0</ele>
        <time>2018-06-24T12:51:15Z</time>
      </trkpt>
      <trkpt lat="40.234550" lon="-4.900100">
        <ele>1120.0</ele>
        <time>2018-06-24T12:51:16Z</time>
      </trkpt>
      <trkpt lat="40.234650" lon="-4.900117">
        <ele>1116.0</ele>
        <time>2018-06-24T12:51:17Z</time>
      </trkpt>
      <trkpt lat="40.234750" lon="-4.900100">
        <ele>1113.0</ele>
        <time>2018-06-24T12:51:18Z</time>
      </trkpt>
      <trkpt lat="40.234850" lon="-4.900083">
        <ele>1110.0</ele>
        <time>2018-06-24T12:51:19Z</time>
      </trkpt>
      <trkpt lat="40.234950" lon="-4.900033">
        <ele>1107.0</ele>
        <time>2018-06-24T12:51:20Z</time>
      </trkpt>
      <trkpt lat="40.235050" lon="-4.899983">
        <ele>1104.0</ele>
        <time>2018-06-24T12:51:21Z</time>
      </trkpt>
      <trkpt lat="40.235133" lon="-4.899933">
        <ele>1101.0</ele>
        <time>2018-06-24T12:51:22Z</time>
      </trkpt>
      <trkpt lat="40.235217" lon="-4.899883">
        <ele>1098.0</ele>
        <time>2018-06-24T12:51:23Z</time>
      </trkpt>
      <trkpt lat="40.235317" lon="-4.899833">
        <ele>1095.0</ele>
        <time>2018-06-24T12:51:24Z</time>
      </trkpt>
      <trkpt lat="40.235417" lon="-4.899800">
        <ele>1093.0</ele>
        <time>2018-06-24T12:51:25Z</time>
      </trkpt>
      <trkpt lat="40.235500" lon="-4.899750">
        <ele>1090.0</ele>
        <time>2018-06-24T12:51:26Z</time>
      </trkpt>
      <trkpt lat="40.235600" lon="-4.899733">
        <ele>1088.0</ele>
        <time>2018-06-24T12:51:27Z</time>
      </trkpt>
      <trkpt lat="40.235700" lon="-4.899717">
        <ele>1087.0</ele>
        <time>2018-06-24T12:51:28Z</time>
      </trkpt>
      <trkpt lat="40.235783" lon="-4.899700">
        <ele>1085.0</ele>
        <time>2018-06-24T12:51:29Z</time>
      </trkpt>
      <trkpt lat="40.235883" lon="-4.899683">
        <ele>1083.0</ele>
        <time>2018-06-24T12:51:30Z</time>
      </trkpt>
      <trkpt lat="40.235967" lon="-4.899683">
        <ele>1080.0</ele>
        <time>2018-06-24T12:51:31Z</time>
      </trkpt>
      <trkpt lat="40.236067" lon="-4.899700">
        <ele>1077.0</ele>
        <time>2018-06-24T12:51:32Z</time>
      </trkpt>
      <trkpt lat="40.236167" lon="-4.899733">
        <ele>1074.0</ele>
        <time>2018-06-24T12:51:33Z</time>
      </trkpt>
      <trkpt lat="40.236250" lon="-4.899767">
        <ele>1073.0</ele>
        <time>2018-06-24T12:51:34Z</time>
      </trkpt>
      <trkpt lat="40.236350" lon="-4.899783">
        <ele>1071.0</ele>
        <time>2018-06-24T12:51:35Z</time>
      </trkpt>
      <trkpt lat="40.236433" lon="-4.899800">
        <ele>1070.0</ele>
        <time>2018-06-24T12:51:36Z</time>
      </trkpt>
      <trkpt lat="40.236500" lon="-4.899833">
        <ele>1068.0</ele>
        <time>2018-06-24T12:51:37Z</time>
      </trkpt>
      <trkpt lat="40.236583" lon="-4.899883">
        <ele>1066.0</ele>
        <time>2018-06-24T12:51:38Z</time>
      </trkpt>
      <trkpt lat="40.236667" lon="-4.899917">
        <ele>1063.0</ele>
        <time>2018-06-24T12:51:39Z</time>
      </trkpt>
      <trkpt lat="40.236767" lon="-4.899967">
        <ele>1060.0</ele>
        <time>2018-06-24T12:51:40Z</time>
      </trkpt>
      <trkpt lat="40.236850" lon="-4.900033">
        <ele>1057.0</ele>
        <time>2018-06-24T12:51:41Z</time>
      </trkpt>
      <trkpt lat="40.236950" lon="-4.900100">
        <ele>1055.0</ele>
        <time>2018-06-24T12:51:42Z</time>
      </trkpt>
      <trkpt lat="40.237067" lon="-4.900183">
        <ele>1052.0</ele>
        <time>2018-06-24T12:51:43Z</time>
      </trkpt>
      <trkpt lat="40.237167" lon="-4.900267">
        <ele>1051.0</ele>
        <time>2018-06-24T12:51:44Z</time>
      </trkpt>
      <trkpt lat="40.237267" lon="-4.900350">
        <ele>1050.0</ele>
        <time>2018-06-24T12:51:45Z</time>
      </trkpt>
      <trkpt lat="40.237383" lon="-4.900417">
        <ele>1049.0</ele>
        <time>2018-06-24T12:51:46Z</time>
      </trkpt>
      <trkpt lat="40.237483" lon="-4.900483">
        <ele>1049.0</ele>
        <time>2018-06-24T12:51:47Z</time>
      </trkpt>
      <trkpt lat="40.237600" lon="-4.900517">
        <ele>1049.0</ele>
        <time>2018-06-24T12:51:48Z</time>
      </trkpt>
      <trkpt lat="40.237700" lon="-4.900550">
        <ele>1049.0</ele>
        <time>2018-06-24T12:51:49Z</time>
      </trkpt>
      <trkpt lat="40.237783" lon="-4.900567">
        <ele>1048.0</ele>
        <time>2018-06-24T12:51:50Z</time>
      </trkpt>
      <trkpt lat="40.237883" lon="-4.900600">
        <ele>1049.0</ele>
        <time>2018-06-24T12:51:51Z</time>
      </trkpt>
      <trkpt lat="40.237950" lon="-4.900633">
        <ele>1048.0</ele>
        <time>2018-06-24T12:51:52Z</time>
      </trkpt>
      <trkpt lat="40.238050" lon="-4.900667">
        <ele>1046.0</ele>
        <time>2018-06-24T12:51:53Z</time>
      </trkpt>
      <trkpt lat="40.238150" lon="-4.900700">
        <ele>1044.0</ele>
        <time>2018-06-24T12:51:54Z</time>
      </trkpt>
      <trkpt lat="40.238250" lon="-4.900700">
        <ele>1042.0</ele>
        <time>2018-06-24T12:51:55Z</time>
      </trkpt>
      <trkpt lat="40.238350" lon="-4.900683">
        <ele>1040.0</ele>
        <time>2018-06-24T12:51:56Z</time>
      </trkpt>
      <trkpt lat="40.238467" lon="-4.900633">
        <ele>1037.0</ele>
        <time>2018-06-24T12:51:57Z</time>
      </trkpt>
      <trkpt lat="40.238567" lon="-4.900600">
        <ele>1036.0</ele>
        <time>2018-06-24T12:51:58Z</time>
      </trkpt>
      <trkpt lat="40.238650" lon="-4.900567">
        <ele>1035.0</ele>
        <time>2018-06-24T12:51:59Z</time>
      </trkpt>
      <trkpt lat="40.238733" lon="-4.900567">
        <ele>1034.0</ele>
        <time>2018-06-24T12:52:00Z</time>
      </trkpt>
      <trkpt lat="40.238833" lon="-4.900583">
        <ele>1031.0</ele>
        <time>2018-06-24T12:52:01Z</time>
      </trkpt>
      <trkpt lat="40.238950" lon="-4.900583">
        <ele>1027.0</ele>
        <time>2018-06-24T12:52:02Z</time>
      </trkpt>
      <trkpt lat="40.239067" lon="-4.900567">
        <ele>1025.0</ele>
        <time>2018-06-24T12:52:03Z</time>
      </trkpt>
      <trkpt lat="40.239183" lon="-4.900567">
        <ele>1024.0</ele>
        <time>2018-06-24T12:52:04Z</time>
      </trkpt>
      <trkpt lat="40.239300" lon="-4.900567">
        <ele>1023.0</ele>
        <time>2018-06-24T12:52:05Z</time>
      </trkpt>
      <trkpt lat="40.239400" lon="-4.900583">
        <ele>1022.0</ele>
        <time>2018-06-24T12:52:06Z</time>
      </trkpt>
      <trkpt lat="40.239517" lon="-4.900600">
        <ele>1021.0</ele>
        <time>2018-06-24T12:52:07Z</time>
      </trkpt>
      <trkpt lat="40.239617" lon="-4.900583">
        <ele>1021.0</ele>
        <time>2018-06-24T12:52:08Z</time>
      </trkpt>
      <trkpt lat="40.239700" lon="-4.900567">
        <ele>1020.0</ele>
        <time>2018-06-24T12:52:09Z</time>
      </trkpt>
      <trkpt lat="40.239783" lon="-4.900550">
        <ele>1017.0</ele>
        <time>2018-06-24T12:52:10Z</time>
      </trkpt>
      <trkpt lat="40.239850" lon="-4.900550">
        <ele>1015.0</ele>
        <time>2018-06-24T12:52:11Z</time>
      </trkpt>
      <trkpt lat="40.239933" lon="-4.900567">
        <ele>1015.0</ele>
        <time>2018-06-24T12:52:12Z</time>
      </trkpt>
      <trkpt lat="40.240033" lon="-4.900583">
        <ele>1014.0</ele>
        <time>2018-06-24T12:52:13Z</time>
      </trkpt>
      <trkpt lat="40.240117" lon="-4.900600">
        <ele>1013.0</ele>
        <time>2018-06-24T12:52:14Z</time>
      </trkpt>
      <trkpt lat="40.240217" lon="-4.900617">
        <ele>1011.0</ele>
        <time>2018-06-24T12:52:15Z</time>
      </trkpt>
      <trkpt lat="40.240300" lon="-4.900617">
        <ele>1007.0</ele>
        <time>2018-06-24T12:52:16Z</time>
      </trkpt>
      <trkpt lat="40.240400" lon="-4.900617">
        <ele>1005.0</ele>
        <time>2018-06-24T12:52:17Z</time>
      </trkpt>
      <trkpt lat="40.240483" lon="-4.900617">
        <ele>1002.0</ele>
        <time>2018-06-24T12:52:18Z</time>
      </trkpt>
      <trkpt lat="40.240567" lon="-4.900650">
        <ele>999.0</ele>
        <time>2018-06-24T12:52:19Z</time>
      </trkpt>
      <trkpt lat="40.240667" lon="-4.900683">
        <ele>996.0</ele>
        <time>2018-06-24T12:52:20Z</time>
      </trkpt>
      <trkpt lat="40.240750" lon="-4.900733">
        <ele>994.0</ele>
        <time>2018-06-24T12:52:21Z</time>
      </trkpt>
      <trkpt lat="40.240850" lon="-4.900800">
        <ele>993.0</ele>
        <time>2018-06-24T12:52:22Z</time>
      </trkpt>
      <trkpt lat="40.240967" lon="-4.900867">
        <ele>990.0</ele>
        <time>2018-06-24T12:52:23Z</time>
      </trkpt>
      <trkpt lat="40.241083" lon="-4.900917">
        <ele>988.0</ele>
        <time>2018-06-24T12:52:24Z</time>
      </trkpt>
      <trkpt lat="40.241183" lon="-4.900983">
        <ele>986.0</ele>
        <time>2018-06-24T12:52:25Z</time>
      </trkpt>
      <trkpt lat="40.241283" lon="-4.901033">
        <ele>984.0</ele>
        <time>2018-06-24T12:52:26Z</time>
      </trkpt>
      <trkpt lat="40.241417" lon="-4.901050">
        <ele>982.0</ele>
        <time>2018-06-24T12:52:27Z</time>
      </trkpt>
      <trkpt lat="40.241550" lon="-4.901067">
        <ele>982.0</ele>
        <time>2018-06-24T12:52:28Z</time>
      </trkpt>
      <trkpt lat="40.241667" lon="-4.901100">
        <ele>983.0</ele>
        <time>2018-06-24T12:52:29Z</time>
      </trkpt>
      <trkpt lat="40.241783" lon="-4.901117">
        <ele>988.0</ele>
        <time>2018-06-24T12:52:30Z</time>
      </trkpt>
      <trkpt lat="40.241883" lon="-4.901117">
        <ele>990.0</ele>
        <time>2018-06-24T12:52:31Z</time>
      </trkpt>
      <trkpt lat="40.241967" lon="-4.901083">
        <ele>990.0</ele>
        <time>2018-06-24T12:52:32Z</time>
      </trkpt>
      <trkpt lat="40.242050" lon="-4.901033">
        <ele>989.0</ele>
        <time>2018-06-24T12:52:33Z</time>
      </trkpt>
      <trkpt lat="40.242133" lon="-4.900950">
        <ele>988.0</ele>
        <time>2018-06-24T12:52:34Z</time>
      </trkpt>
      <trkpt lat="40.242183" lon="-4.900867">
        <ele>988.0</ele>
        <time>2018-06-24T12:52:35Z</time>
      </trkpt>
      <trkpt lat="40.242217" lon="-4.900783">
        <ele>987.0</ele>
        <time>2018-06-24T12:52:36Z</time>
      </trkpt>
      <trkpt lat="40.242200" lon="-4.900667">
        <ele>985.0</ele>
        <time>2018-06-24T12:52:37Z</time>
      </trkpt>
      <trkpt lat="40.242150" lon="-4.900567">
        <ele>985.0</ele>
        <time>2018-06-24T12:52:38Z</time>
      </trkpt>
      <trkpt lat="40.242050" lon="-4.900500">
        <ele>985.0</ele>
        <time>2018-06-24T12:52:39Z</time>
      </trkpt>
      <trkpt lat="40.241950" lon="-4.900483">
        <ele>987.0</ele>
        <time>2018-06-24T12:52:40Z</time>
      </trkpt>
      <trkpt lat="40.241850" lon="-4.900533">
        <ele>988.0</ele>
        <time>2018-06-24T12:52:41Z</time>
      </trkpt>
      <trkpt lat="40.241800" lon="-4.900633">
        <ele>988.0</ele>
        <time>2018-06-24T12:52:42Z</time>
      </trkpt>
      <trkpt lat="40.241767" lon="-4.900717">
        <ele>989.0</ele>
        <time>2018-06-24T12:52:43Z</time>
      </trkpt>
      <trkpt lat="40.241750" lon="-4.900817">
        <ele>991.0</ele>
        <time>2018-06-24T12:52:44Z</time>
      </trkpt>
      <trkpt lat="40.241733" lon="-4.900950">
        <ele>991.0</ele>
        <time>2018-06-24T12:52:45Z</time>
      </trkpt>
      <trkpt lat="40.241733" lon="-4.901083">
        <ele>991.0</ele>
        <time>2018-06-24T12:52:46Z</time>
      </trkpt>
      <trkpt lat="40.241767" lon="-4.901233">
        <ele>991.0</ele>
        <time>2018-06-24T12:52:47Z</time>
      </trkpt>
      <trkpt lat="40.241817" lon="-4.901367">
        <ele>991.0</ele>
        <time>2018-06-24T12:52:48Z</time>
      </trkpt>
      <trkpt lat="40.241900" lon="-4.901483">
        <ele>991.0</ele>
        <time>2018-06-24T12:52:49Z</time>
      </trkpt>
      <trkpt lat="40.241983" lon="-4.901583">
        <ele>992.0</ele>
        <time>2018-06-24T12:52:50Z</time>
      </trkpt>
      <trkpt lat="40.242067" lon="-4.901650">
        <ele>994.0</ele>
        <time>2018-06-24T12:52:51Z</time>
      </trkpt>
      <trkpt lat="40.242150" lon="-4.901700">
        <ele>997.0</ele>
        <time>2018-06-24T12:52:52Z</time>
      </trkpt>
      <trkpt lat="40.242217" lon="-4.901767">
        <ele>998.0</ele>
        <time>2018-06-24T12:52:53Z</time>
      </trkpt>
      <trkpt lat="40.242317" lon="-4.901783">
        <ele>998.0</ele>
        <time>2018-06-24T12:52:54Z</time>
      </trkpt>
      <trkpt lat="40.242417" lon="-4.901767">
        <ele>998.0</ele>
        <time>2018-06-24T12:52:55Z</time>
      </trkpt>
      <trkpt lat="40.242517" lon="-4.901717">
        <ele>998.0</ele>
        <time>2018-06-24T12:52:56Z</time>
      </trkpt>
      <trkpt lat="40.242600" lon="-4.901617">
        <ele>999.0</ele>
        <time>2018-06-24T12:52:57Z</time>
      </trkpt>
      <trkpt lat="40.242633" lon="-4.901500">
        <ele>999.0</ele>
        <time>2018-06-24T12:52:58Z</time>
      </trkpt>
      <trkpt lat="40.242650" lon="-4.901367">
        <ele>1001.0</ele>
        <time>2018-06-24T12:52:59Z</time>
      </trkpt>
      <trkpt lat="40.242650" lon="-4.901233">
        <ele>1003.0</ele>
        <time>2018-06-24T12:53:00Z</time>
      </trkpt>
      <trkpt lat="40.242633" lon="-4.901117">
        <ele>1007.0</ele>
        <time>2018-06-24T12:53:01Z</time>
      </trkpt>
      <trkpt lat="40.242617" lon="-4.901017">
        <ele>1010.0</ele>
        <time>2018-06-24T12:53:02Z</time>
      </trkpt>
      <trkpt lat="40.242583" lon="-4.900933">
        <ele>1012.0</ele>
        <time>2018-06-24T12:53:03Z</time>
      </trkpt>
      <trkpt lat="40.242550" lon="-4.900867">
        <ele>1014.0</ele>
        <time>2018-06-24T12:53:04Z</time>
      </trkpt>
      <trkpt lat="40.242500" lon="-4.900817">
        <ele>1015.0</ele>
        <time>2018-06-24T12:53:05Z</time>
      </trkpt>
      <trkpt lat="40.242450" lon="-4.900783">
        <ele>1015.0</ele>
        <time>2018-06-24T12:53:06Z</time>
      </trkpt>
      <trkpt lat="40.242367" lon="-4.900783">
        <ele>1015.0</ele>
        <time>2018-06-24T12:53:07Z</time>
      </trkpt>
      <trkpt lat="40.242300" lon="-4.900817">
        <ele>1016.0</ele>
        <time>2018-06-24T12:53:08Z</time>
      </trkpt>
      <trkpt lat="40.242233" lon="-4.900900">
        <ele>1016.0</ele>
        <time>2018-06-24T12:53:09Z</time>
      </trkpt>
      <trkpt lat="40.242200" lon="-4.901017">
        <ele>1017.0</ele>
        <time>2018-06-24T12:53:10Z</time>
      </trkpt>
      <trkpt lat="40.242183" lon="-4.901133">
        <ele>1019.0</ele>
        <time>2018-06-24T12:53:11Z</time>
      </trkpt>
      <trkpt lat="40.242200" lon="-4.901250">
        <ele>1020.0</ele>
        <time>2018-06-24T12:53:12Z</time>
      </trkpt>
      <trkpt lat="40.242250" lon="-4.901367">
        <ele>1021.0</ele>
        <time>2018-06-24T12:53:13Z</time>
      </trkpt>
      <trkpt lat="40.242350" lon="-4.901450">
        <ele>1021.0</ele>
        <time>2018-06-24T12:53:14Z</time>
      </trkpt>
      <trkpt lat="40.242450" lon="-4.901500">
        <ele>1021.0</ele>
        <time>2018-06-24T12:53:15Z</time>
      </trkpt>
      <trkpt lat="40.242550" lon="-4.901533">
        <ele>1022.0</ele>
        <time>2018-06-24T12:53:16Z</time>
      </trkpt>
      <trkpt lat="40.242683" lon="-4.901550">
        <ele>1023.0</ele>
        <time>2018-06-24T12:53:17Z</time>
      </trkpt>
      <trkpt lat="40.242817" lon="-4.901533">
        <ele>1026.0</ele>
        <time>2018-06-24T12:53:18Z</time>
      </trkpt>
      <trkpt lat="40.242933" lon="-4.901483">
        <ele>1030.0</ele>
        <time>2018-06-24T12:53:19Z</time>
      </trkpt>
      <trkpt lat="40.243033" lon="-4.901417">
        <ele>1031.0</ele>
        <time>2018-06-24T12:53:20Z</time>
      </trkpt>
      <trkpt lat="40.243100" lon="-4.901333">
        <ele>1030.0</ele>
        <time>2018-06-24T12:53:21Z</time>
      </trkpt>
      <trkpt lat="40.243167" lon="-4.901233">
        <ele>1026.0</ele>
        <time>2018-06-24T12:53:22Z</time>
      </trkpt>
      <trkpt lat="40.243200" lon="-4.901117">
        <ele>1027.0</ele>
        <time>2018-06-24T12:53:23Z</time>
      </trkpt>
      <trkpt lat="40.243217" lon="-4.901000">
        <ele>1028.0</ele>
        <time>2018-06-24T12:53:24Z</time>
      </trkpt>
      <trkpt lat="40.243233" lon="-4.900900">
        <ele>1029.0</ele>
        <time>2018-06-24T12:53:25Z</time>
      </trkpt>
      <trkpt lat="40.243217" lon="-4.900817">
        <ele>1030.0</ele>
        <time>2018-06-24T12:53:26Z</time>
      </trkpt>
      <trkpt lat="40.243200" lon="-4.900717">
        <ele>1030.0</ele>
        <time>2018-06-24T12:53:27Z</time>
      </trkpt>
      <trkpt lat="40.243150" lon="-4.900650">
        <ele>1029.0</ele>
        <time>2018-06-24T12:53:28Z</time>
      </trkpt>
      <trkpt lat="40.243067" lon="-4.900617">
        <ele>1029.0</ele>
        <time>2018-06-24T12:53:29Z</time>
      </trkpt>
      <trkpt lat="40.242983" lon="-4.900600">
        <ele>1029.0</ele>
        <time>2018-06-24T12:53:30Z</time>
      </trkpt>
      <trkpt lat="40.242883" lon="-4.900617">
        <ele>1030.0</ele>
        <time>2018-06-24T12:53:31Z</time>
      </trkpt>
      <trkpt lat="40.242800" lon="-4.900650">
        <ele>1031.0</ele>
        <time>2018-06-24T12:53:32Z</time>
      </trkpt>
      <trkpt lat="40.242733" lon="-4.900717">
        <ele>1033.0</ele>
        <time>2018-06-24T12:53:33Z</time>
      </trkpt>
      <trkpt lat="40.242700" lon="-4.900800">
        <ele>1036.0</ele>
        <time>2018-06-24T12:53:34Z</time>
      </trkpt>
      <trkpt lat="40.242667" lon="-4.900900">
        <ele>1037.0</ele>
        <time>2018-06-24T12:53:35Z</time>
      </trkpt>
      <trkpt lat="40.242667" lon="-4.901000">
        <ele>1038.0</ele>
        <time>2018-06-24T12:53:36Z</time>
      </trkpt>
      <trkpt lat="40.242683" lon="-4.901117">
        <ele>1038.0</ele>
        <time>2018-06-24T12:53:37Z</time>
      </trkpt>
      <trkpt lat="40.242717" lon="-4.901233">
        <ele>1039.0</ele>
        <time>2018-06-24T12:53:38Z</time>
      </trkpt>
      <trkpt lat="40.242800" lon="-4.901333">
        <ele>1040.0</ele>
        <time>2018-06-24T12:53:39Z</time>
      </trkpt>
      <trkpt lat="40.242917" lon="-4.901383">
        <ele>1039.0</ele>
        <time>2018-06-24T12:53:40Z</time>
      </trkpt>
      <trkpt lat="40.243033" lon="-4.901417">
        <ele>1039.0</ele>
        <time>2018-06-24T12:53:41Z</time>
      </trkpt>
      <trkpt lat="40.243150" lon="-4.901417">
        <ele>1040.0</ele>
        <time>2018-06-24T12:53:42Z</time>
      </trkpt>
      <trkpt lat="40.243250" lon="-4.901400">
        <ele>1043.0</ele>
        <time>2018-06-24T12:53:43Z</time>
      </trkpt>
      <trkpt lat="40.243333" lon="-4.901350">
        <ele>1044.0</ele>
        <time>2018-06-24T12:53:44Z</time>
      </trkpt>
      <trkpt lat="40.243417" lon="-4.901300">
        <ele>1044.0</ele>
        <time>2018-06-24T12:53:45Z</time>
      </trkpt>
      <trkpt lat="40.243483" lon="-4.901233">
        <ele>1045.0</ele>
        <time>2018-06-24T12:53:46Z</time>
      </trkpt>
      <trkpt lat="40.243550" lon="-4.901150">
        <ele>1044.0</ele>
        <time>2018-06-24T12:53:47Z</time>
      </trkpt>
      <trkpt lat="40.243600" lon="-4.901050">
        <ele>1044.0</ele>
        <time>2018-06-24T12:53:48Z</time>
      </trkpt>
      <trkpt lat="40.243633" lon="-4.900950">
        <ele>1043.0</ele>
        <time>2018-06-24T12:53:49Z</time>
      </trkpt>
      <trkpt lat="40.243667" lon="-4.900833">
        <ele>1043.0</ele>
        <time>2018-06-24T12:53:50Z</time>
      </trkpt>
      <trkpt lat="40.243667" lon="-4.900717">
        <ele>1043.0</ele>
        <time>2018-06-24T12:53:51Z</time>
      </trkpt>
      <trkpt lat="40.243650" lon="-4.900600">
        <ele>1042.0</ele>
        <time>2018-06-24T12:53:52Z</time>
      </trkpt>
      <trkpt lat="40.243617" lon="-4.900483">
        <ele>1043.0</ele>
        <time>2018-06-24T12:53:53Z</time>
      </trkpt>
      <trkpt lat="40.243567" lon="-4.900400">
        <ele>1044.0</ele>
        <time>2018-06-24T12:53:54Z</time>
      </trkpt>
      <trkpt lat="40.243500" lon="-4.900333">
        <ele>1046.0</ele>
        <time>2018-06-24T12:53:55Z</time>
      </trkpt>
      <trkpt lat="40.243433" lon="-4.900317">
        <ele>1048.0</ele>
        <time>2018-06-24T12:53:56Z</time>
      </trkpt>
      <trkpt lat="40.243383" lon="-4.900317">
        <ele>1048.0</ele>
        <time>2018-06-24T12:53:57Z</time>
      </trkpt>
      <trkpt lat="40.243333" lon="-4.900333">
        <ele>1049.0</ele>
        <time>2018-06-24T12:53:58Z</time>
      </trkpt>
      <trkpt lat="40.243283" lon="-4.900333">
        <ele>1049.0</ele>
        <time>2018-06-24T12:53:59Z</time>
      </trkpt>
      <trkpt lat="40.243233" lon="-4.900350">
        <ele>1050.0</ele>
        <time>2018-06-24T12:54:00Z</time>
      </trkpt>
      <trkpt lat="40.243167" lon="-4.900400">
        <ele>1049.0</ele>
        <time>2018-06-24T12:54:01Z</time>
      </trkpt>
      <trkpt lat="40.243133" lon="-4.900483">
        <ele>1048.0</ele>
        <time>2018-06-24T12:54:02Z</time>
      </trkpt>
      <trkpt lat="40.243117" lon="-4.900600">
        <ele>1047.0</ele>
        <time>2018-06-24T12:54:03Z</time>
      </trkpt>
      <trkpt lat="40.243117" lon="-4.900733">
        <ele>1047.0</ele>
        <time>2018-06-24T12:54:04Z</time>
      </trkpt>
      <trkpt lat="40.243150" lon="-4.900850">
        <ele>1049.0</ele>
        <time>2018-06-24T12:54:05Z</time>
      </trkpt>
      <trkpt lat="40.243200" lon="-4.900967">
        <ele>1051.0</ele>
        <time>2018-06-24T12:54:06Z</time>
      </trkpt>
      <trkpt lat="40.243267" lon="-4.901050">
        <ele>1052.0</ele>
        <time>2018-06-24T12:54:07Z</time>
      </trkpt>
      <trkpt lat="40.243333" lon="-4.901133">
        <ele>1051.0</ele>
        <time>2018-06-24T12:54:08Z</time>
      </trkpt>
      <trkpt lat="40.243417" lon="-4.901200">
        <ele>1052.0</ele>
        <time>2018-06-24T12:54:09Z</time>
      </trkpt>
      <trkpt lat="40.243517" lon="-4.901250">
        <ele>1052.0</ele>
        <time>2018-06-24T12:54:10Z</time>
      </trkpt>
      <trkpt lat="40.243617" lon="-4.901267">
        <ele>1052.0</ele>
        <time>2018-06-24T12:54:11Z</time>
      </trkpt>
      <trkpt lat="40.243717" lon="-4.901250">
        <ele>1052.0</ele>
        <time>2018-06-24T12:54:12Z</time>
      </trkpt>
      <trkpt lat="40.243817" lon="-4.901183">
        <ele>1051.0</ele>
        <time>2018-06-24T12:54:13Z</time>
      </trkpt>
      <trkpt lat="40.243883" lon="-4.901100">
        <ele>1050.0</ele>
        <time>2018-06-24T12:54:14Z</time>
      </trkpt>
      <trkpt lat="40.243967" lon="-4.901033">
        <ele>1049.0</ele>
        <time>2018-06-24T12:54:15Z</time>
      </trkpt>
      <trkpt lat="40.244017" lon="-4.900950">
        <ele>1048.0</ele>
        <time>2018-06-24T12:54:16Z</time>
      </trkpt>
      <trkpt lat="40.244050" lon="-4.900850">
        <ele>1047.0</ele>
        <time>2018-06-24T12:54:17Z</time>
      </trkpt>
      <trkpt lat="40.244083" lon="-4.900750">
        <ele>1046.0</ele>
        <time>2018-06-24T12:54:18Z</time>
      </trkpt>
      <trkpt lat="40.244100" lon="-4.900633">
        <ele>1045.0</ele>
        <time>2018-06-24T12:54:19Z</time>
      </trkpt>
      <trkpt lat="40.244117" lon="-4.900500">
        <ele>1044.0</ele>
        <time>2018-06-24T12:54:20Z</time>
      </trkpt>
      <trkpt lat="40.244100" lon="-4.900367">
        <ele>1044.0</ele>
        <time>2018-06-24T12:54:21Z</time>
      </trkpt>
      <trkpt lat="40.244067" lon="-4.900250">
        <ele>1045.0</ele>
        <time>2018-06-24T12:54:22Z</time>
      </trkpt>
      <trkpt lat="40.244033" lon="-4.900150">
        <ele>1045.0</ele>
        <time>2018-06-24T12:54:23Z</time>
      </trkpt>
      <trkpt lat="40.243983" lon="-4.900083">
        <ele>1046.0</ele>
        <time>2018-06-24T12:54:24Z</time>
      </trkpt>
      <trkpt lat="40.243933" lon="-4.900017">
        <ele>1047.0</ele>
        <time>2018-06-24T12:54:25Z</time>
      </trkpt>
      <trkpt lat="40.243867" lon="-4.899950">
        <ele>1047.0</ele>
        <time>2018-06-24T12:54:26Z</time>
      </trkpt>
      <trkpt lat="40.243800" lon="-4.899917">
        <ele>1047.0</ele>
        <time>2018-06-24T12:54:27Z</time>
      </trkpt>
      <trkpt lat="40.243717" lon="-4.899900">
        <ele>1047.0</ele>
        <time>2018-06-24T12:54:28Z</time>
      </trkpt>
      <trkpt lat="40.243650" lon="-4.899917">
        <ele>1048.0</ele>
        <time>2018-06-24T12:54:29Z</time>
      </trkpt>
      <trkpt lat="40.243600" lon="-4.899967">
        <ele>1048.0</ele>
        <time>2018-06-24T12:54:30Z</time>
      </trkpt>
      <trkpt lat="40.243550" lon="-4.900017">
        <ele>1047.0</ele>
        <time>2018-06-24T12:54:31Z</time>
      </trkpt>
      <trkpt lat="40.243517" lon="-4.900100">
        <ele>1046.0</ele>
        <time>2018-06-24T12:54:32Z</time>
      </trkpt>
      <trkpt lat="40.243500" lon="-4.900183">
        <ele>1046.0</ele>
        <time>2018-06-24T12:54:33Z</time>
      </trkpt>
      <trkpt lat="40.243483" lon="-4.900317">
        <ele>1044.0</ele>
        <time>2018-06-24T12:54:34Z</time>
      </trkpt>
      <trkpt lat="40.243483" lon="-4.900450">
        <ele>1043.0</ele>
        <time>2018-06-24T12:54:35Z</time>
      </trkpt>
      <trkpt lat="40.243517" lon="-4.900600">
        <ele>1043.0</ele>
        <time>2018-06-24T12:54:36Z</time>
      </trkpt>
      <trkpt lat="40.243583" lon="-4.900717">
        <ele>1045.0</ele>
        <time>2018-06-24T12:54:37Z</time>
      </trkpt>
      <trkpt lat="40.243650" lon="-4.900817">
        <ele>1046.0</ele>
        <time>2018-06-24T12:54:38Z</time>
      </trkpt>
      <trkpt lat="40.243733" lon="-4.900883">
        <ele>1049.0</ele>
        <time>2018-06-24T12:54:39Z</time>
      </trkpt>
      <trkpt lat="40.243800" lon="-4.900933">
        <ele>1051.0</ele>
        <time>2018-06-24T12:54:40Z</time>
      </trkpt>
      <trkpt lat="40.243883" lon="-4.900983">
        <ele>1052.0</ele>
        <time>2018-06-24T12:54:41Z</time>
      </trkpt>
      <trkpt lat="40.243983" lon="-4.901033">
        <ele>1052.0</ele>
        <time>2018-06-24T12:54:42Z</time>
      </trkpt>
      <trkpt lat="40.244083" lon="-4.901050">
        <ele>1052.0</ele>
        <time>2018-06-24T12:54:43Z</time>
      </trkpt>
      <trkpt lat="40.244200" lon="-4.901067">
        <ele>1052.0</ele>
        <time>2018-06-24T12:54:44Z</time>
      </trkpt>
      <trkpt lat="40.244300" lon="-4.901033">
        <ele>1052.0</ele>
        <time>2018-06-24T12:54:45Z</time>
      </trkpt>
      <trkpt lat="40.244400" lon="-4.900983">
        <ele>1051.0</ele>
        <time>2018-06-24T12:54:46Z</time>
      </trkpt>
      <trkpt lat="40.244467" lon="-4.900883">
        <ele>1051.0</ele>
        <time>2018-06-24T12:54:47Z</time>
      </trkpt>
      <trkpt lat="40.244533" lon="-4.900783">
        <ele>1050.0</ele>
        <time>2018-06-24T12:54:48Z</time>
      </trkpt>
      <trkpt lat="40.244567" lon="-4.900683">
        <ele>1049.0</ele>
        <time>2018-06-24T12:54:49Z</time>
      </trkpt>
      <trkpt lat="40.244600" lon="-4.900567">
        <ele>1048.0</ele>
        <time>2018-06-24T12:54:50Z</time>
      </trkpt>
      <trkpt lat="40.244600" lon="-4.900433">
        <ele>1046.0</ele>
        <time>2018-06-24T12:54:51Z</time>
      </trkpt>
      <trkpt lat="40.244583" lon="-4.900300">
        <ele>1046.0</ele>
        <time>2018-06-24T12:54:52Z</time>
      </trkpt>
      <trkpt lat="40.244550" lon="-4.900183">
        <ele>1046.0</ele>
        <time>2018-06-24T12:54:53Z</time>
      </trkpt>
      <trkpt lat="40.244500" lon="-4.900067">
        <ele>1046.0</ele>
        <time>2018-06-24T12:54:54Z</time>
      </trkpt>
      <trkpt lat="40.244467" lon="-4.899967">
        <ele>1048.0</ele>
        <time>2018-06-24T12:54:55Z</time>
      </trkpt>
      <trkpt lat="40.244433" lon="-4.899883">
        <ele>1049.0</ele>
        <time>2018-06-24T12:54:56Z</time>
      </trkpt>
      <trkpt lat="40.244400" lon="-4.899817">
        <ele>1051.0</ele>
        <time>2018-06-24T12:54:57Z</time>
      </trkpt>
      <trkpt lat="40.244367" lon="-4.899750">
        <ele>1051.0</ele>
        <time>2018-06-24T12:54:58Z</time>
      </trkpt>
      <trkpt lat="40.244317" lon="-4.899683">
        <ele>1051.0</ele>
        <time>2018-06-24T12:54:59Z</time>
      </trkpt>
      <trkpt lat="40.244250" lon="-4.899650">
        <ele>1051.0</ele>
        <time>2018-06-24T12:55:00Z</time>
      </trkpt>
      <trkpt lat="40.244183" lon="-4.899650">
        <ele>1050.0</ele>
        <time>2018-06-24T12:55:01Z</time>
      </trkpt>
      <trkpt lat="40.244100" lon="-4.899700">
        <ele>1049.0</ele>
        <time>2018-06-24T12:55:02Z</time>
      </trkpt>
      <trkpt lat="40.244050" lon="-4.899750">
        <ele>1047.0</ele>
        <time>2018-06-24T12:55:03Z</time>
      </trkpt>
      <trkpt lat="40.244000" lon="-4.899833">
        <ele>1047.0</ele>
        <time>2018-06-24T12:55:04Z</time>
      </trkpt>
      <trkpt lat="40.243950" lon="-4.899933">
        <ele>1046.0</ele>
        <time>2018-06-24T12:55:05Z</time>
      </trkpt>
      <trkpt lat="40.243917" lon="-4.900033">
        <ele>1046.0</ele>
        <time>2018-06-24T12:55:06Z</time>
      </trkpt>
      <trkpt lat="40.243883" lon="-4.900133">
        <ele>1046.0</ele>
        <time>2018-06-24T12:55:07Z</time>
      </trkpt>
      <trkpt lat="40.243867" lon="-4.900267">
        <ele>1046.0</ele>
        <time>2018-06-24T12:55:08Z</time>
      </trkpt>
      <trkpt lat="40.243833" lon="-4.900383">
        <ele>1048.0</ele>
        <time>2018-06-24T12:55:09Z</time>
      </trkpt>
      <trkpt lat="40.243833" lon="-4.900517">
        <ele>1049.0</ele>
        <time>2018-06-24T12:55:10Z</time>
      </trkpt>
      <trkpt lat="40.243833" lon="-4.900633">
        <ele>1049.0</ele>
        <time>2018-06-24T12:55:11Z</time>
      </trkpt>
      <trkpt lat="40.243867" lon="-4.900750">
        <ele>1050.0</ele>
        <time>2018-06-24T12:55:12Z</time>
      </trkpt>
      <trkpt lat="40.243900" lon="-4.900867">
        <ele>1050.0</ele>
        <time>2018-06-24T12:55:13Z</time>
      </trkpt>
      <trkpt lat="40.243950" lon="-4.900983">
        <ele>1051.0</ele>
        <time>2018-06-24T12:55:14Z</time>
      </trkpt>
      <trkpt lat="40.244017" lon="-4.901067">
        <ele>1052.0</ele>
        <time>2018-06-24T12:55:15Z</time>
      </trkpt>
      <trkpt lat="40.244083" lon="-4.901150">
        <ele>1052.0</ele>
        <time>2018-06-24T12:55:16Z</time>
      </trkpt>
      <trkpt lat="40.244167" lon="-4.901183">
        <ele>1052.0</ele>
        <time>2018-06-24T12:55:17Z</time>
      </trkpt>
      <trkpt lat="40.244283" lon="-4.901183">
        <ele>1050.0</ele>
        <time>2018-06-24T12:55:18Z</time>
      </trkpt>
      <trkpt lat="40.244383" lon="-4.901150">
        <ele>1047.0</ele>
        <time>2018-06-24T12:55:19Z</time>
      </trkpt>
      <trkpt lat="40.244483" lon="-4.901083">
        <ele>1046.0</ele>
        <time>2018-06-24T12:55:20Z</time>
      </trkpt>
      <trkpt lat="40.244583" lon="-4.901000">
        <ele>1045.0</ele>
        <time>2018-06-24T12:55:21Z</time>
      </trkpt>
      <trkpt lat="40.244667" lon="-4.900900">
        <ele>1045.0</ele>
        <time>2018-06-24T12:55:22Z</time>
      </trkpt>
      <trkpt lat="40.244700" lon="-4.900783">
        <ele>1046.0</ele>
        <time>2018-06-24T12:55:23Z</time>
      </trkpt>
      <trkpt lat="40.244733" lon="-4.900650">
        <ele>1047.0</ele>
        <time>2018-06-24T12:55:24Z</time>
      </trkpt>
      <trkpt lat="40.244767" lon="-4.900533">
        <ele>1048.0</ele>
        <time>2018-06-24T12:55:25Z</time>
      </trkpt>
      <trkpt lat="40.244767" lon="-4.900433">
        <ele>1049.0</ele>
        <time>2018-06-24T12:55:26Z</time>
      </trkpt>
      <trkpt lat="40.244767" lon="-4.900333">
        <ele>1048.0</ele>
        <time>2018-06-24T12:55:27Z</time>
      </trkpt>
      <trkpt lat="40.244733" lon="-4.900233">
        <ele>1047.0</ele>
        <time>2018-06-24T12:55:28Z</time>
      </trkpt>
      <trkpt lat="40.244683" lon="-4.900133">
        <ele>1046.0</ele>
        <time>2018-06-24T12:55:29Z</time>
      </trkpt>
      <trkpt lat="40.244633" lon="-4.900067">
        <ele>1046.0</ele>
        <time>2018-06-24T12:55:30Z</time>
      </trkpt>
      <trkpt lat="40.244583" lon="-4.900000">
        <ele>1045.0</ele>
        <time>2018-06-24T12:55:31Z</time>
      </trkpt>
      <trkpt lat="40.244517" lon="-4.899967">
        <ele>1045.0</ele>
        <time>2018-06-24T12:55:32Z</time>
      </trkpt>
      <trkpt lat="40.244450" lon="-4.899933">
        <ele>1043.0</ele>
        <time>2018-06-24T12:55:33Z</time>
      </trkpt>
      <trkpt lat="40.244383" lon="-4.899917">
        <ele>1042.0</ele>
        <time>2018-06-24T12:55:34Z</time>
      </trkpt>
      <trkpt lat="40.244317" lon="-4.899900">
        <ele>1041.0</ele>
        <time>2018-06-24T12:55:35Z</time>
      </trkpt>
      <trkpt lat="40.244233" lon="-4.899917">
        <ele>1040.0</ele>
        <time>2018-06-24T12:55:36Z</time>
      </trkpt>
      <trkpt lat="40.244133" lon="-4.899950">
        <ele>1039.0</ele>
        <time>2018-06-24T12:55:37Z</time>
      </trkpt>
      <trkpt lat="40.244067" lon="-4.899967">
        <ele>1040.0</ele>
        <time>2018-06-24T12:55:38Z</time>
      </trkpt>
      <trkpt lat="40.244000" lon="-4.900000">
        <ele>1043.0</ele>
        <time>2018-06-24T12:55:39Z</time>
      </trkpt>
      <trkpt lat="40.243950" lon="-4.900033">
        <ele>1045.0</ele>
        <time>2018-06-24T12:55:40Z</time>
      </trkpt>
      <trkpt lat="40.243900" lon="-4.900050">
        <ele>1045.0</ele>
        <time>2018-06-24T12:55:41Z</time>
      </trkpt>
      <trkpt lat="40.243817" lon="-4.900083">
        <ele>1046.0</ele>
        <time>2018-06-24T12:55:42Z</time>
      </trkpt>
      <trkpt lat="40.243750" lon="-4.900133">
        <ele>1047.0</ele>
        <time>2018-06-24T12:55:43Z</time>
      </trkpt>
      <trkpt lat="40.243683" lon="-4.900200">
        <ele>1047.0</ele>
        <time>2018-06-24T12:55:44Z</time>
      </trkpt>
      <trkpt lat="40.243650" lon="-4.900267">
        <ele>1046.0</ele>
        <time>2018-06-24T12:55:45Z</time>
      </trkpt>
      <trkpt lat="40.243617" lon="-4.900367">
        <ele>1045.0</ele>
        <time>2018-06-24T12:55:46Z</time>
      </trkpt>
      <trkpt lat="40.243600" lon="-4.900467">
        <ele>1045.0</ele>
        <time>2018-06-24T12:55:47Z</time>
      </trkpt>
      <trkpt lat="40.243600" lon="-4.900567">
        <ele>1045.0</ele>
        <time>2018-06-24T12:55:48Z</time>
      </trkpt>
      <trkpt lat="40.243617" lon="-4.900683">
        <ele>1044.0</ele>
        <time>2018-06-24T12:55:49Z</time>
      </trkpt>
      <trkpt lat="40.243633" lon="-4.900817">
        <ele>1041.0</ele>
        <time>2018-06-24T12:55:50Z</time>
      </trkpt>
      <trkpt lat="40.243667" lon="-4.900950">
        <ele>1040.0</ele>
        <time>2018-06-24T12:55:51Z</time>
      </trkpt>
      <trkpt lat="40.243733" lon="-4.901083">
        <ele>1041.0</ele>
        <time>2018-06-24T12:55:52Z</time>
      </trkpt>
      <trkpt lat="40.243800" lon="-4.901167">
        <ele>1043.0</ele>
        <time>2018-06-24T12:55:53Z</time>
      </trkpt>
      <trkpt lat="40.243900" lon="-4.901233">
        <ele>1042.0</ele>
        <time>2018-06-24T12:55:54Z</time>
      </trkpt>
      <trkpt lat="40.243983" lon="-4.901283">
        <ele>1043.0</ele>
        <time>2018-06-24T12:55:55Z</time>
      </trkpt>
      <trkpt lat="40.244083" lon="-4.901317">
        <ele>1043.0</ele>
        <time>2018-06-24T12:55:56Z</time>
      </trkpt>
      <trkpt lat="40.244167" lon="-4.901333">
        <ele>1043.0</ele>
        <time>2018-06-24T12:55:57Z</time>
      </trkpt>
      <trkpt lat="40.244267" lon="-4.901317">
        <ele>1041.0</ele>
        <time>2018-06-24T12:55:58Z</time>
      </trkpt>
      <trkpt lat="40.244350" lon="-4.901267">
        <ele>1037.0</ele>
        <time>2018-06-24T12:55:59Z</time>
      </trkpt>
      <trkpt lat="40.244433" lon="-4.901167">
        <ele>1035.0</ele>
        <time>2018-06-24T12:56:00Z</time>
      </trkpt>
      <trkpt lat="40.244500" lon="-4.901017">
        <ele>1033.0</ele>
        <time>2018-06-24T12:56:01Z</time>
      </trkpt>
      <trkpt lat="40.244533" lon="-4.900867">
        <ele>1031.0</ele>
        <time>2018-06-24T12:56:02Z</time>
      </trkpt>
      <trkpt lat="40.244550" lon="-4.900717">
        <ele>1032.0</ele>
        <time>2018-06-24T12:56:03Z</time>
      </trkpt>
      <trkpt lat="40.244550" lon="-4.900567">
        <ele>1035.0</ele>
        <time>2018-06-24T12:56:04Z</time>
      </trkpt>
      <trkpt lat="40.244567" lon="-4.900433">
        <ele>1036.0</ele>
        <time>2018-06-24T12:56:05Z</time>
      </trkpt>
      <trkpt lat="40.244567" lon="-4.900300">
        <ele>1037.0</ele>
        <time>2018-06-24T12:56:06Z</time>
      </trkpt>
      <trkpt lat="40.244567" lon="-4.900183">
        <ele>1037.0</ele>
        <time>2018-06-24T12:56:07Z</time>
      </trkpt>
      <trkpt lat="40.244550" lon="-4.900050">
        <ele>1036.0</ele>
        <time>2018-06-24T12:56:08Z</time>
      </trkpt>
      <trkpt lat="40.244517" lon="-4.899933">
        <ele>1035.0</ele>
        <time>2018-06-24T12:56:09Z</time>
      </trkpt>
      <trkpt lat="40.244467" lon="-4.899833">
        <ele>1033.0</ele>
        <time>2018-06-24T12:56:10Z</time>
      </trkpt>
      <trkpt lat="40.244400" lon="-4.899767">
        <ele>1033.0</ele>
        <time>2018-06-24T12:56:11Z</time>
      </trkpt>
      <trkpt lat="40.244317" lon="-4.899717">
        <ele>1032.0</ele>
        <time>2018-06-24T12:56:12Z</time>
      </trkpt>
      <trkpt lat="40.244233" lon="-4.899683">
        <ele>1032.0</ele>
        <time>2018-06-24T12:56:13Z</time>
      </trkpt>
      <trkpt lat="40.244167" lon="-4.899683">
        <ele>1032.0</ele>
        <time>2018-06-24T12:56:14Z</time>
      </trkpt>
      <trkpt lat="40.244100" lon="-4.899683">
        <ele>1033.0</ele>
        <time>2018-06-24T12:56:15Z</time>
      </trkpt>
      <trkpt lat="40.244033" lon="-4.899717">
        <ele>1032.0</ele>
        <time>2018-06-24T12:56:16Z</time>
      </trkpt>
      <trkpt lat="40.243967" lon="-4.899750">
        <ele>1032.0</ele>
        <time>2018-06-24T12:56:17Z</time>
      </trkpt>
      <trkpt lat="40.243900" lon="-4.899800">
        <ele>1032.0</ele>
        <time>2018-06-24T12:56:18Z</time>
      </trkpt>
      <trkpt lat="40.243833" lon="-4.899833">
        <ele>1033.0</ele>
        <time>2018-06-24T12:56:19Z</time>
      </trkpt>
      <trkpt lat="40.243800" lon="-4.899850">
        <ele>1035.0</ele>
        <time>2018-06-24T12:56:20Z</time>
      </trkpt>
      <trkpt lat="40.243750" lon="-4.899867">
        <ele>1035.0</ele>
        <time>2018-06-24T12:56:21Z</time>
      </trkpt>
      <trkpt lat="40.243700" lon="-4.899900">
        <ele>1035.0</ele>
        <time>2018-06-24T12:56:22Z</time>
      </trkpt>
      <trkpt lat="40.243650" lon="-4.899967">
        <ele>1036.0</ele>
        <time>2018-06-24T12:56:23Z</time>
      </trkpt>
      <trkpt lat="40.243617" lon="-4.900050">
        <ele>1035.0</ele>
        <time>2018-06-24T12:56:24Z</time>
      </trkpt>
      <trkpt lat="40.243600" lon="-4.900183">
        <ele>1034.0</ele>
        <time>2018-06-24T12:56:25Z</time>
      </trkpt>
      <trkpt lat="40.243600" lon="-4.900317">
        <ele>1034.0</ele>
        <time>2018-06-24T12:56:26Z</time>
      </trkpt>
      <trkpt lat="40.243650" lon="-4.900450">
        <ele>1033.0</ele>
        <time>2018-06-24T12:56:27Z</time>
      </trkpt>
      <trkpt lat="40.243750" lon="-4.900567">
        <ele>1033.0</ele>
        <time>2018-06-24T12:56:28Z</time>
      </trkpt>
      <trkpt lat="40.243850" lon="-4.900633">
        <ele>1030.0</ele>
        <time>2018-06-24T12:56:29Z</time>
      </trkpt>
      <trkpt lat="40.243967" lon="-4.900667">
        <ele>1029.0</ele>
        <time>2018-06-24T12:56:30Z</time>
      </trkpt>
      <trkpt lat="40.244083" lon="-4.900650">
        <ele>1027.0</ele>
        <time>2018-06-24T12:56:31Z</time>
      </trkpt>
      <trkpt lat="40.244200" lon="-4.900600">
        <ele>1024.0</ele>
        <time>2018-06-24T12:56:32Z</time>
      </trkpt>
      <trkpt lat="40.244300" lon="-4.900483">
        <ele>1022.0</ele>
        <time>2018-06-24T12:56:33Z</time>
      </trkpt>
      <trkpt lat="40.244367" lon="-4.900367">
        <ele>1019.0</ele>
        <time>2018-06-24T12:56:34Z</time>
      </trkpt>
      <trkpt lat="40.244417" lon="-4.900233">
        <ele>1016.0</ele>
        <time>2018-06-24T12:56:35Z</time>
      </trkpt>
      <trkpt lat="40.244400" lon="-4.900117">
        <ele>1015.0</ele>
        <time>2018-06-24T12:56:36Z</time>
      </trkpt>
      <trkpt lat="40.244383" lon="-4.900000">
        <ele>1013.0</ele>
        <time>2018-06-24T12:56:37Z</time>
      </trkpt>
      <trkpt lat="40.244333" lon="-4.899900">
        <ele>1010.0</ele>
        <time>2018-06-24T12:56:38Z</time>
      </trkpt>
      <trkpt lat="40.244267" lon="-4.899817">
        <ele>1009.0</ele>
        <time>2018-06-24T12:56:39Z</time>
      </trkpt>
      <trkpt lat="40.244183" lon="-4.899750">
        <ele>1009.0</ele>
        <time>2018-06-24T12:56:40Z</time>
      </trkpt>
      <trkpt lat="40.244100" lon="-4.899700">
        <ele>1009.0</ele>
        <time>2018-06-24T12:56:41Z</time>
      </trkpt>
      <trkpt lat="40.244017" lon="-4.899667">
        <ele>1010.0</ele>
        <time>2018-06-24T12:56:42Z</time>
      </trkpt>
      <trkpt lat="40.243950" lon="-4.899633">
        <ele>1011.0</ele>
        <time>2018-06-24T12:56:43Z</time>
      </trkpt>
      <trkpt lat="40.243883" lon="-4.899617">
        <ele>1012.0</ele>
        <time>2018-06-24T12:56:44Z</time>
      </trkpt>
      <trkpt lat="40.243817" lon="-4.899600">
        <ele>1013.0</ele>
        <time>2018-06-24T12:56:45Z</time>
      </trkpt>
      <trkpt lat="40.243750" lon="-4.899583">
        <ele>1013.0</ele>
        <time>2018-06-24T12:56:46Z</time>
      </trkpt>
      <trkpt lat="40.243667" lon="-4.899533">
        <ele>1013.0</ele>
        <time>2018-06-24T12:56:47Z</time>
      </trkpt>
      <trkpt lat="40.243600" lon="-4.899450">
        <ele>1013.0</ele>
        <time>2018-06-24T12:56:48Z</time>
      </trkpt>
      <trkpt lat="40.243550" lon="-4.899350">
        <ele>1014.0</ele>
        <time>2018-06-24T12:56:49Z</time>
      </trkpt>
      <trkpt lat="40.243517" lon="-4.899250">
        <ele>1014.0</ele>
        <time>2018-06-24T12:56:50Z</time>
      </trkpt>
      <trkpt lat="40.243483" lon="-4.899133">
        <ele>1016.0</ele>
        <time>2018-06-24T12:56:51Z</time>
      </trkpt>
      <trkpt lat="40.243450" lon="-4.899033">
        <ele>1019.0</ele>
        <time>2018-06-24T12:56:52Z</time>
      </trkpt>
      <trkpt lat="40.243450" lon="-4.898933">
        <ele>1020.0</ele>
        <time>2018-06-24T12:56:53Z</time>
      </trkpt>
      <trkpt lat="40.243450" lon="-4.898767">
        <ele>1021.0</ele>
        <time>2018-06-24T12:56:54Z</time>
      </trkpt>
      <trkpt lat="40.243467" lon="-4.898667">
        <ele>1023.0</ele>
        <time>2018-06-24T12:56:55Z</time>
      </trkpt>
      <trkpt lat="40.243483" lon="-4.898550">
        <ele>1025.0</ele>
        <time>2018-06-24T12:56:56Z</time>
      </trkpt>
      <trkpt lat="40.243500" lon="-4.898417">
        <ele>1027.0</ele>
        <time>2018-06-24T12:56:57Z</time>
      </trkpt>
      <trkpt lat="40.243517" lon="-4.898300">
        <ele>1030.0</ele>
        <time>2018-06-24T12:56:58Z</time>
      </trkpt>
      <trkpt lat="40.243500" lon="-4.898200">
        <ele>1030.0</ele>
        <time>2018-06-24T12:56:59Z</time>
      </trkpt>
      <trkpt lat="40.243467" lon="-4.898117">
        <ele>1029.0</ele>
        <time>2018-06-24T12:57:00Z</time>
      </trkpt>
      <trkpt lat="40.243417" lon="-4.898067">
        <ele>1028.0</ele>
        <time>2018-06-24T12:57:01Z</time>
      </trkpt>
      <trkpt lat="40.243317" lon="-4.898017">
        <ele>1027.0</ele>
        <time>2018-06-24T12:57:02Z</time>
      </trkpt>
      <trkpt lat="40.243233" lon="-4.898017">
        <ele>1027.0</ele>
        <time>2018-06-24T12:57:03Z</time>
      </trkpt>
      <trkpt lat="40.243167" lon="-4.898033">
        <ele>1029.0</ele>
        <time>2018-06-24T12:57:04Z</time>
      </trkpt>
      <trkpt lat="40.243117" lon="-4.898067">
        <ele>1029.0</ele>
        <time>2018-06-24T12:57:05Z</time>
      </trkpt>
      <trkpt lat="40.243083" lon="-4.898133">
        <ele>1028.0</ele>
        <time>2018-06-24T12:57:06Z</time>
      </trkpt>
      <trkpt lat="40.243050" lon="-4.898217">
        <ele>1027.0</ele>
        <time>2018-06-24T12:57:07Z</time>
      </trkpt>
      <trkpt lat="40.243033" lon="-4.898300">
        <ele>1027.0</ele>
        <time>2018-06-24T12:57:08Z</time>
      </trkpt>
      <trkpt lat="40.242983" lon="-4.898400">
        <ele>1025.0</ele>
        <time>2018-06-24T12:57:09Z</time>
      </trkpt>
      <trkpt lat="40.242950" lon="-4.898517">
        <ele>1025.0</ele>
        <time>2018-06-24T12:57:10Z</time>
      </trkpt>
      <trkpt lat="40.242933" lon="-4.898633">
        <ele>1026.0</ele>
        <time>2018-06-24T12:57:11Z</time>
      </trkpt>
      <trkpt lat="40.242917" lon="-4.898750">
        <ele>1027.0</ele>
        <time>2018-06-24T12:57:12Z</time>
      </trkpt>
      <trkpt lat="40.242917" lon="-4.898850">
        <ele>1028.0</ele>
        <time>2018-06-24T12:57:13Z</time>
      </trkpt>
      <trkpt lat="40.242933" lon="-4.898967">
        <ele>1029.0</ele>
        <time>2018-06-24T12:57:14Z</time>
      </trkpt>
      <trkpt lat="40.242950" lon="-4.899067">
        <ele>1032.0</ele>
        <time>2018-06-24T12:57:15Z</time>
      </trkpt>
      <trkpt lat="40.242950" lon="-4.899167">
        <ele>1036.0</ele>
        <time>2018-06-24T12:57:16Z</time>
      </trkpt>
      <trkpt lat="40.242983" lon="-4.899250">
        <ele>1037.0</ele>
        <time>2018-06-24T12:57:17Z</time>
      </trkpt>
      <trkpt lat="40.243017" lon="-4.899350">
        <ele>1037.0</ele>
        <time>2018-06-24T12:57:18Z</time>
      </trkpt>
      <trkpt lat="40.243067" lon="-4.899467">
        <ele>1037.0</ele>
        <time>2018-06-24T12:57:19Z</time>
      </trkpt>
      <trkpt lat="40.243150" lon="-4.899550">
        <ele>1037.0</ele>
        <time>2018-06-24T12:57:20Z</time>
      </trkpt>
      <trkpt lat="40.243250" lon="-4.899617">
        <ele>1037.0</ele>
        <time>2018-06-24T12:57:21Z</time>
      </trkpt>
      <trkpt lat="40.243383" lon="-4.899650">
        <ele>1035.0</ele>
        <time>2018-06-24T12:57:22Z</time>
      </trkpt>
      <trkpt lat="40.243533" lon="-4.899617">
        <ele>1034.0</ele>
        <time>2018-06-24T12:57:23Z</time>
      </trkpt>
      <trkpt lat="40.243650" lon="-4.899567">
        <ele>1033.0</ele>
        <time>2018-06-24T12:57:24Z</time>
      </trkpt>
      <trkpt lat="40.243733" lon="-4.899467">
        <ele>1034.0</ele>
        <time>2018-06-24T12:57:25Z</time>
      </trkpt>
      <trkpt lat="40.243783" lon="-4.899350">
        <ele>1034.0</ele>
        <time>2018-06-24T12:57:26Z</time>
      </trkpt>
      <trkpt lat="40.243800" lon="-4.899217">
        <ele>1034.0</ele>
        <time>2018-06-24T12:57:27Z</time>
      </trkpt>
      <trkpt lat="40.243767" lon="-4.899083">
        <ele>1034.0</ele>
        <time>2018-06-24T12:57:28Z</time>
      </trkpt>
      <trkpt lat="40.243733" lon="-4.898983">
        <ele>1034.0</ele>
        <time>2018-06-24T12:57:29Z</time>
      </trkpt>
      <trkpt lat="40.243667" lon="-4.898900">
        <ele>1034.0</ele>
        <time>2018-06-24T12:57:30Z</time>
      </trkpt>
      <trkpt lat="40.243617" lon="-4.898817">
        <ele>1035.0</ele>
        <time>2018-06-24T12:57:31Z</time>
      </trkpt>
      <trkpt lat="40.243550" lon="-4.898750">
        <ele>1037.0</ele>
        <time>2018-06-24T12:57:32Z</time>
      </trkpt>
      <trkpt lat="40.243483" lon="-4.898683">
        <ele>1038.0</ele>
        <time>2018-06-24T12:57:33Z</time>
      </trkpt>
      <trkpt lat="40.243417" lon="-4.898633">
        <ele>1040.0</ele>
        <time>2018-06-24T12:57:34Z</time>
      </trkpt>
      <trkpt lat="40.243333" lon="-4.898600">
        <ele>1042.0</ele>
        <time>2018-06-24T12:57:35Z</time>
      </trkpt>
      <trkpt lat="40.243250" lon="-4.898583">
        <ele>1042.0</ele>
        <time>2018-06-24T12:57:36Z</time>
      </trkpt>
      <trkpt lat="40.243167" lon="-4.898617">
        <ele>1042.0</ele>
        <time>2018-06-24T12:57:37Z</time>
      </trkpt>
      <trkpt lat="40.243067" lon="-4.898683">
        <ele>1043.0</ele>
        <time>2018-06-24T12:57:38Z</time>
      </trkpt>
      <trkpt lat="40.242983" lon="-4.898750">
        <ele>1044.0</ele>
        <time>2018-06-24T12:57:39Z</time>
      </trkpt>
      <trkpt lat="40.242900" lon="-4.898783">
        <ele>1046.0</ele>
        <time>2018-06-24T12:57:40Z</time>
      </trkpt>
      <trkpt lat="40.242833" lon="-4.898833">
        <ele>1048.0</ele>
        <time>2018-06-24T12:57:41Z</time>
      </trkpt>
      <trkpt lat="40.242783" lon="-4.898900">
        <ele>1051.0</ele>
        <time>2018-06-24T12:57:42Z</time>
      </trkpt>
      <trkpt lat="40.242733" lon="-4.898983">
        <ele>1053.0</ele>
        <time>2018-06-24T12:57:43Z</time>
      </trkpt>
      <trkpt lat="40.242667" lon="-4.899067">
        <ele>1057.0</ele>
        <time>2018-06-24T12:57:44Z</time>
      </trkpt>
      <trkpt lat="40.242617" lon="-4.899150">
        <ele>1059.0</ele>
        <time>2018-06-24T12:57:45Z</time>
      </trkpt>
      <trkpt lat="40.242550" lon="-4.899217">
        <ele>1062.0</ele>
        <time>2018-06-24T12:57:46Z</time>
      </trkpt>
      <trkpt lat="40.242500" lon="-4.899300">
        <ele>1063.0</ele>
        <time>2018-06-24T12:57:47Z</time>
      </trkpt>
      <trkpt lat="40.242450" lon="-4.899400">
        <ele>1066.0</ele>
        <time>2018-06-24T12:57:48Z</time>
      </trkpt>
      <trkpt lat="40.242433" lon="-4.899483">
        <ele>1069.0</ele>
        <time>2018-06-24T12:57:49Z</time>
      </trkpt>
      <trkpt lat="40.242433" lon="-4.899550">
        <ele>1072.0</ele>
        <time>2018-06-24T12:57:50Z</time>
      </trkpt>
      <trkpt lat="40.242450" lon="-4.899633">
        <ele>1073.0</ele>
        <time>2018-06-24T12:57:51Z</time>
      </trkpt>
      <trkpt lat="40.242467" lon="-4.899700">
        <ele>1074.0</ele>
        <time>2018-06-24T12:57:52Z</time>
      </trkpt>
      <trkpt lat="40.242533" lon="-4.899783">
        <ele>1075.0</ele>
        <time>2018-06-24T12:57:53Z</time>
      </trkpt>
      <trkpt lat="40.242617" lon="-4.899817">
        <ele>1074.0</ele>
        <time>2018-06-24T12:57:54Z</time>
      </trkpt>
      <trkpt lat="40.242750" lon="-4.899883">
        <ele>1075.0</ele>
        <time>2018-06-24T12:57:55Z</time>
      </trkpt>
      <trkpt lat="40.242833" lon="-4.899900">
        <ele>1077.0</ele>
        <time>2018-06-24T12:57:56Z</time>
      </trkpt>
      <trkpt lat="40.242950" lon="-4.899900">
        <ele>1078.0</ele>
        <time>2018-06-24T12:57:57Z</time>
      </trkpt>
      <trkpt lat="40.243033" lon="-4.899817">
        <ele>1080.0</ele>
        <time>2018-06-24T12:57:58Z</time>
      </trkpt>
      <trkpt lat="40.243083" lon="-4.899717">
        <ele>1079.0</ele>
        <time>2018-06-24T12:57:59Z</time>
      </trkpt>
      <trkpt lat="40.243133" lon="-4.899583">
        <ele>1078.0</ele>
        <time>2018-06-24T12:58:00Z</time>
      </trkpt>
      <trkpt lat="40.243150" lon="-4.899450">
        <ele>1077.0</ele>
        <time>2018-06-24T12:58:01Z</time>
      </trkpt>
      <trkpt lat="40.243150" lon="-4.899317">
        <ele>1078.0</ele>
        <time>2018-06-24T12:58:02Z</time>
      </trkpt>
      <trkpt lat="40.243117" lon="-4.899200">
        <ele>1080.0</ele>
        <time>2018-06-24T12:58:03Z</time>
      </trkpt>
      <trkpt lat="40.243083" lon="-4.899100">
        <ele>1081.0</ele>
        <time>2018-06-24T12:58:04Z</time>
      </trkpt>
      <trkpt lat="40.243033" lon="-4.899017">
        <ele>1084.0</ele>
        <time>2018-06-24T12:58:05Z</time>
      </trkpt>
      <trkpt lat="40.242967" lon="-4.898933">
        <ele>1086.0</ele>
        <time>2018-06-24T12:58:06Z</time>
      </trkpt>
      <trkpt lat="40.242917" lon="-4.898850">
        <ele>1088.0</ele>
        <time>2018-06-24T12:58:07Z</time>
      </trkpt>
      <trkpt lat="40.242850" lon="-4.898783">
        <ele>1089.0</ele>
        <time>2018-06-24T12:58:08Z</time>
      </trkpt>
      <trkpt lat="40.242783" lon="-4.898717">
        <ele>1090.0</ele>
        <time>2018-06-24T12:58:09Z</time>
      </trkpt>
      <trkpt lat="40.242717" lon="-4.898683">
        <ele>1092.0</ele>
        <time>2018-06-24T12:58:10Z</time>
      </trkpt>
      <trkpt lat="40.242650" lon="-4.898683">
        <ele>1092.0</ele>
        <time>2018-06-24T12:58:11Z</time>
      </trkpt>
      <trkpt lat="40.242583" lon="-4.898700">
        <ele>1092.0</ele>
        <time>2018-06-24T12:58:12Z</time>
      </trkpt>
      <trkpt lat="40.242517" lon="-4.898750">
        <ele>1092.0</ele>
        <time>2018-06-24T12:58:13Z</time>
      </trkpt>
      <trkpt lat="40.242450" lon="-4.898833">
        <ele>1091.0</ele>
        <time>2018-06-24T12:58:14Z</time>
      </trkpt>
      <trkpt lat="40.242400" lon="-4.898950">
        <ele>1091.0</ele>
        <time>2018-06-24T12:58:15Z</time>
      </trkpt>
      <trkpt lat="40.242367" lon="-4.899067">
        <ele>1090.0</ele>
        <time>2018-06-24T12:58:16Z</time>
      </trkpt>
      <trkpt lat="40.242350" lon="-4.899183">
        <ele>1090.0</ele>
        <time>2018-06-24T12:58:17Z</time>
      </trkpt>
      <trkpt lat="40.242350" lon="-4.899300">
        <ele>1089.0</ele>
        <time>2018-06-24T12:58:18Z</time>
      </trkpt>
      <trkpt lat="40.242383" lon="-4.899417">
        <ele>1087.0</ele>
        <time>2018-06-24T12:58:19Z</time>
      </trkpt>
      <trkpt lat="40.242417" lon="-4.899517">
        <ele>1087.0</ele>
        <time>2018-06-24T12:58:20Z</time>
      </trkpt>
      <trkpt lat="40.242467" lon="-4.899617">
        <ele>1085.0</ele>
        <time>2018-06-24T12:58:21Z</time>
      </trkpt>
      <trkpt lat="40.242550" lon="-4.899667">
        <ele>1082.0</ele>
        <time>2018-06-24T12:58:22Z</time>
      </trkpt>
      <trkpt lat="40.242633" lon="-4.899683">
        <ele>1079.0</ele>
        <time>2018-06-24T12:58:23Z</time>
      </trkpt>
      <trkpt lat="40.242733" lon="-4.899700">
        <ele>1076.0</ele>
        <time>2018-06-24T12:58:24Z</time>
      </trkpt>
      <trkpt lat="40.242867" lon="-4.899700">
        <ele>1074.0</ele>
        <time>2018-06-24T12:58:25Z</time>
      </trkpt>
      <trkpt lat="40.242983" lon="-4.899683">
        <ele>1075.0</ele>
        <time>2018-06-24T12:58:26Z</time>
      </trkpt>
      <trkpt lat="40.243100" lon="-4.899667">
        <ele>1077.0</ele>
        <time>2018-06-24T12:58:27Z</time>
      </trkpt>
      <trkpt lat="40.243217" lon="-4.899650">
        <ele>1079.0</ele>
        <time>2018-06-24T12:58:28Z</time>
      </trkpt>
      <trkpt lat="40.243317" lon="-4.899600">
        <ele>1079.0</ele>
        <time>2018-06-24T12:58:29Z</time>
      </trkpt>
      <trkpt lat="40.243400" lon="-4.899550">
        <ele>1078.0</ele>
        <time>2018-06-24T12:58:30Z</time>
      </trkpt>
      <trkpt lat="40.243467" lon="-4.899450">
        <ele>1076.0</ele>
        <time>2018-06-24T12:58:31Z</time>
      </trkpt>
      <trkpt lat="40.243533" lon="-4.899317">
        <ele>1075.0</ele>
        <time>2018-06-24T12:58:32Z</time>
      </trkpt>
      <trkpt lat="40.243583" lon="-4.899183">
        <ele>1076.0</ele>
        <time>2018-06-24T12:58:33Z</time>
      </trkpt>
      <trkpt lat="40.243617" lon="-4.899033">
        <ele>1079.0</ele>
        <time>2018-06-24T12:58:34Z</time>
      </trkpt>
      <trkpt lat="40.243650" lon="-4.898900">
        <ele>1081.0</ele>
        <time>2018-06-24T12:58:35Z</time>
      </trkpt>
      <trkpt lat="40.243667" lon="-4.898783">
        <ele>1084.0</ele>
        <time>2018-06-24T12:58:36Z</time>
      </trkpt>
      <trkpt lat="40.243683" lon="-4.898667">
        <ele>1085.0</ele>
        <time>2018-06-24T12:58:37Z</time>
      </trkpt>
      <trkpt lat="40.243700" lon="-4.898567">
        <ele>1087.0</ele>
        <time>2018-06-24T12:58:38Z</time>
      </trkpt>
      <trkpt lat="40.243717" lon="-4.898467">
        <ele>1088.0</ele>
        <time>2018-06-24T12:58:39Z</time>
      </trkpt>
      <trkpt lat="40.243733" lon="-4.898367">
        <ele>1089.0</ele>
        <time>2018-06-24T12:58:40Z</time>
      </trkpt>
      <trkpt lat="40.243750" lon="-4.898267">
        <ele>1090.0</ele>
        <time>2018-06-24T12:58:41Z</time>
      </trkpt>
      <trkpt lat="40.243750" lon="-4.898167">
        <ele>1089.0</ele>
        <time>2018-06-24T12:58:42Z</time>
      </trkpt>
      <trkpt lat="40.243717" lon="-4.898083">
        <ele>1087.0</ele>
        <time>2018-06-24T12:58:43Z</time>
      </trkpt>
      <trkpt lat="40.243667" lon="-4.898000">
        <ele>1086.0</ele>
        <time>2018-06-24T12:58:44Z</time>
      </trkpt>
      <trkpt lat="40.243600" lon="-4.897950">
        <ele>1085.0</ele>
        <time>2018-06-24T12:58:45Z</time>
      </trkpt>
      <trkpt lat="40.243517" lon="-4.897933">
        <ele>1085.0</ele>
        <time>2018-06-24T12:58:46Z</time>
      </trkpt>
      <trkpt lat="40.243467" lon="-4.897950">
        <ele>1085.0</ele>
        <time>2018-06-24T12:58:47Z</time>
      </trkpt>
      <trkpt lat="40.243433" lon="-4.898000">
        <ele>1082.0</ele>
        <time>2018-06-24T12:58:48Z</time>
      </trkpt>
      <trkpt lat="40.243383" lon="-4.898033">
        <ele>1079.0</ele>
        <time>2018-06-24T12:58:49Z</time>
      </trkpt>
      <trkpt lat="40.243333" lon="-4.898117">
        <ele>1078.0</ele>
        <time>2018-06-24T12:58:50Z</time>
      </trkpt>
      <trkpt lat="40.243283" lon="-4.898217">
        <ele>1077.0</ele>
        <time>2018-06-24T12:58:51Z</time>
      </trkpt>
      <trkpt lat="40.243250" lon="-4.898367">
        <ele>1075.0</ele>
        <time>2018-06-24T12:58:52Z</time>
      </trkpt>
      <trkpt lat="40.243250" lon="-4.898500">
        <ele>1075.0</ele>
        <time>2018-06-24T12:58:53Z</time>
      </trkpt>
      <trkpt lat="40.243267" lon="-4.898633">
        <ele>1076.0</ele>
        <time>2018-06-24T12:58:54Z</time>
      </trkpt>
      <trkpt lat="40.243300" lon="-4.898767">
        <ele>1076.0</ele>
        <time>2018-06-24T12:58:55Z</time>
      </trkpt>
      <trkpt lat="40.243350" lon="-4.898867">
        <ele>1074.0</ele>
        <time>2018-06-24T12:58:56Z</time>
      </trkpt>
      <trkpt lat="40.243417" lon="-4.898967">
        <ele>1074.0</ele>
        <time>2018-06-24T12:58:57Z</time>
      </trkpt>
      <trkpt lat="40.243483" lon="-4.899067">
        <ele>1072.0</ele>
        <time>2018-06-24T12:58:58Z</time>
      </trkpt>
      <trkpt lat="40.243550" lon="-4.899100">
        <ele>1069.0</ele>
        <time>2018-06-24T12:58:59Z</time>
      </trkpt>
      <trkpt lat="40.243633" lon="-4.899133">
        <ele>1067.0</ele>
        <time>2018-06-24T12:59:00Z</time>
      </trkpt>
      <trkpt lat="40.243717" lon="-4.899150">
        <ele>1066.0</ele>
        <time>2018-06-24T12:59:01Z</time>
      </trkpt>
      <trkpt lat="40.243833" lon="-4.899183">
        <ele>1067.0</ele>
        <time>2018-06-24T12:59:02Z</time>
      </trkpt>
      <trkpt lat="40.243950" lon="-4.899183">
        <ele>1070.0</ele>
        <time>2018-06-24T12:59:03Z</time>
      </trkpt>
      <trkpt lat="40.244050" lon="-4.899183">
        <ele>1072.0</ele>
        <time>2018-06-24T12:59:04Z</time>
      </trkpt>
      <trkpt lat="40.244133" lon="-4.899167">
        <ele>1073.0</ele>
        <time>2018-06-24T12:59:05Z</time>
      </trkpt>
      <trkpt lat="40.244233" lon="-4.899117">
        <ele>1072.0</ele>
        <time>2018-06-24T12:59:06Z</time>
      </trkpt>
      <trkpt lat="40.244333" lon="-4.899017">
        <ele>1071.0</ele>
        <time>2018-06-24T12:59:07Z</time>
      </trkpt>
      <trkpt lat="40.244400" lon="-4.898883">
        <ele>1070.0</ele>
        <time>2018-06-24T12:59:08Z</time>
      </trkpt>
      <trkpt lat="40.244467" lon="-4.898750">
        <ele>1073.0</ele>
        <time>2018-06-24T12:59:09Z</time>
      </trkpt>
      <trkpt lat="40.244517" lon="-4.898617">
        <ele>1077.0</ele>
        <time>2018-06-24T12:59:10Z</time>
      </trkpt>
      <trkpt lat="40.244550" lon="-4.898500">
        <ele>1082.0</ele>
        <time>2018-06-24T12:59:11Z</time>
      </trkpt>
      <trkpt lat="40.244583" lon="-4.898383">
        <ele>1085.0</ele>
        <time>2018-06-24T12:59:12Z</time>
      </trkpt>
      <trkpt lat="40.244633" lon="-4.898267">
        <ele>1087.0</ele>
        <time>2018-06-24T12:59:13Z</time>
      </trkpt>
      <trkpt lat="40.244683" lon="-4.898150">
        <ele>1090.0</ele>
        <time>2018-06-24T12:59:14Z</time>
      </trkpt>
      <trkpt lat="40.244717" lon="-4.898050">
        <ele>1091.0</ele>
        <time>2018-06-24T12:59:15Z</time>
      </trkpt>
      <trkpt lat="40.244750" lon="-4.897950">
        <ele>1091.0</ele>
        <time>2018-06-24T12:59:16Z</time>
      </trkpt>
      <trkpt lat="40.244750" lon="-4.897850">
        <ele>1091.0</ele>
        <time>2018-06-24T12:59:17Z</time>
      </trkpt>
      <trkpt lat="40.244717" lon="-4.897767">
        <ele>1090.0</ele>
        <time>2018-06-24T12:59:18Z</time>
      </trkpt>
      <trkpt lat="40.244667" lon="-4.897683">
        <ele>1089.0</ele>
        <time>2018-06-24T12:59:19Z</time>
      </trkpt>
      <trkpt lat="40.244600" lon="-4.897633">
        <ele>1087.0</ele>
        <time>2018-06-24T12:59:20Z</time>
      </trkpt>
      <trkpt lat="40.244517" lon="-4.897617">
        <ele>1087.0</ele>
        <time>2018-06-24T12:59:21Z</time>
      </trkpt>
      <trkpt lat="40.244433" lon="-4.897617">
        <ele>1086.0</ele>
        <time>2018-06-24T12:59:22Z</time>
      </trkpt>
      <trkpt lat="40.244367" lon="-4.897650">
        <ele>1086.0</ele>
        <time>2018-06-24T12:59:23Z</time>
      </trkpt>
      <trkpt lat="40.244300" lon="-4.897683">
        <ele>1085.0</ele>
        <time>2018-06-24T12:59:24Z</time>
      </trkpt>
      <trkpt lat="40.244233" lon="-4.897733">
        <ele>1085.0</ele>
        <time>2018-06-24T12:59:25Z</time>
      </trkpt>
      <trkpt lat="40.244167" lon="-4.897800">
        <ele>1083.0</ele>
        <time>2018-06-24T12:59:26Z</time>
      </trkpt>
      <trkpt lat="40.244117" lon="-4.897883">
        <ele>1082.0</ele>
        <time>2018-06-24T12:59:27Z</time>
      </trkpt>
      <trkpt lat="40.244067" lon="-4.897983">
        <ele>1081.0</ele>
        <time>2018-06-24T12:59:28Z</time>
      </trkpt>
      <trkpt lat="40.244033" lon="-4.898100">
        <ele>1080.0</ele>
        <time>2018-06-24T12:59:29Z</time>
      </trkpt>
      <trkpt lat="40.244017" lon="-4.898217">
        <ele>1080.0</ele>
        <time>2018-06-24T12:59:30Z</time>
      </trkpt>
      <trkpt lat="40.244033" lon="-4.898350">
        <ele>1080.0</ele>
        <time>2018-06-24T12:59:31Z</time>
      </trkpt>
      <trkpt lat="40.244033" lon="-4.898483">
        <ele>1081.0</ele>
        <time>2018-06-24T12:59:32Z</time>
      </trkpt>
      <trkpt lat="40.244050" lon="-4.898600">
        <ele>1081.0</ele>
        <time>2018-06-24T12:59:33Z</time>
      </trkpt>
      <trkpt lat="40.244083" lon="-4.898717">
        <ele>1081.0</ele>
        <time>2018-06-24T12:59:34Z</time>
      </trkpt>
      <trkpt lat="40.244117" lon="-4.898833">
        <ele>1082.0</ele>
        <time>2018-06-24T12:59:35Z</time>
      </trkpt>
      <trkpt lat="40.244183" lon="-4.898917">
        <ele>1081.0</ele>
        <time>2018-06-24T12:59:36Z</time>
      </trkpt>
      <trkpt lat="40.244283" lon="-4.898950">
        <ele>1079.0</ele>
        <time>2018-06-24T12:59:37Z</time>
      </trkpt>
      <trkpt lat="40.244417" lon="-4.898917">
        <ele>1077.0</ele>
        <time>2018-06-24T12:59:38Z</time>
      </trkpt>
      <trkpt lat="40.244533" lon="-4.898817">
        <ele>1075.0</ele>
        <time>2018-06-24T12:59:39Z</time>
      </trkpt>
      <trkpt lat="40.244633" lon="-4.898717">
        <ele>1076.0</ele>
        <time>2018-06-24T12:59:40Z</time>
      </trkpt>
      <trkpt lat="40.244683" lon="-4.898650">
        <ele>1080.0</ele>
        <time>2018-06-24T12:59:41Z</time>
      </trkpt>
      <trkpt lat="40.244750" lon="-4.898583">
        <ele>1085.0</ele>
        <time>2018-06-24T12:59:42Z</time>
      </trkpt>
      <trkpt lat="40.244783" lon="-4.898533">
        <ele>1086.0</ele>
        <time>2018-06-24T12:59:43Z</time>
      </trkpt>
      <trkpt lat="40.244833" lon="-4.898450">
        <ele>1085.0</ele>
        <time>2018-06-24T12:59:44Z</time>
      </trkpt>
      <trkpt lat="40.244883" lon="-4.898333">
        <ele>1085.0</ele>
        <time>2018-06-24T12:59:45Z</time>
      </trkpt>
      <trkpt lat="40.244933" lon="-4.898200">
        <ele>1085.0</ele>
        <time>2018-06-24T12:59:46Z</time>
      </trkpt>
      <trkpt lat="40.244967" lon="-4.898050">
        <ele>1085.0</ele>
        <time>2018-06-24T12:59:47Z</time>
      </trkpt>
      <trkpt lat="40.244967" lon="-4.897917">
        <ele>1086.0</ele>
        <time>2018-06-24T12:59:48Z</time>
      </trkpt>
      <trkpt lat="40.244950" lon="-4.897817">
        <ele>1088.0</ele>
        <time>2018-06-24T12:59:49Z</time>
      </trkpt>
      <trkpt lat="40.244917" lon="-4.897733">
        <ele>1089.0</ele>
        <time>2018-06-24T12:59:50Z</time>
      </trkpt>
      <trkpt lat="40.244867" lon="-4.897683">
        <ele>1088.0</ele>
        <time>2018-06-24T12:59:51Z</time>
      </trkpt>
      <trkpt lat="40.244783" lon="-4.897667">
        <ele>1088.0</ele>
        <time>2018-06-24T12:59:52Z</time>
      </trkpt>
      <trkpt lat="40.244700" lon="-4.897667">
        <ele>1087.0</ele>
        <time>2018-06-24T12:59:53Z</time>
      </trkpt>
      <trkpt lat="40.244600" lon="-4.897667">
        <ele>1087.0</ele>
        <time>2018-06-24T12:59:54Z</time>
      </trkpt>
      <trkpt lat="40.244517" lon="-4.897683">
        <ele>1087.0</ele>
        <time>2018-06-24T12:59:55Z</time>
      </trkpt>
      <trkpt lat="40.244450" lon="-4.897700">
        <ele>1087.0</ele>
        <time>2018-06-24T12:59:56Z</time>
      </trkpt>
      <trkpt lat="40.244383" lon="-4.897717">
        <ele>1085.0</ele>
        <time>2018-06-24T12:59:57Z</time>
      </trkpt>
      <trkpt lat="40.244317" lon="-4.897767">
        <ele>1084.0</ele>
        <time>2018-06-24T12:59:58Z</time>
      </trkpt>
      <trkpt lat="40.244250" lon="-4.897817">
        <ele>1082.0</ele>
        <time>2018-06-24T12:59:59Z</time>
      </trkpt>
      <trkpt lat="40.244200" lon="-4.897900">
        <ele>1080.0</ele>
        <time>2018-06-24T13:00:00Z</time>
      </trkpt>
      <trkpt lat="40.244150" lon="-4.898000">
        <ele>1079.0</ele>
        <time>2018-06-24T13:00:01Z</time>
      </trkpt>
      <trkpt lat="40.244117" lon="-4.898117">
        <ele>1078.0</ele>
        <time>2018-06-24T13:00:02Z</time>
      </trkpt>
      <trkpt lat="40.244083" lon="-4.898233">
        <ele>1077.0</ele>
        <time>2018-06-24T13:00:03Z</time>
      </trkpt>
      <trkpt lat="40.244067" lon="-4.898367">
        <ele>1076.0</ele>
        <time>2018-06-24T13:00:04Z</time>
      </trkpt>
      <trkpt lat="40.244067" lon="-4.898467">
        <ele>1075.0</ele>
        <time>2018-06-24T13:00:05Z</time>
      </trkpt>
      <trkpt lat="40.244067" lon="-4.898583">
        <ele>1075.0</ele>
        <time>2018-06-24T13:00:06Z</time>
      </trkpt>
      <trkpt lat="40.244083" lon="-4.898700">
        <ele>1073.0</ele>
        <time>2018-06-24T13:00:07Z</time>
      </trkpt>
      <trkpt lat="40.244133" lon="-4.898850">
        <ele>1072.0</ele>
        <time>2018-06-24T13:00:08Z</time>
      </trkpt>
      <trkpt lat="40.244200" lon="-4.898933">
        <ele>1070.0</ele>
        <time>2018-06-24T13:00:09Z</time>
      </trkpt>
      <trkpt lat="40.244300" lon="-4.899000">
        <ele>1068.0</ele>
        <time>2018-06-24T13:00:10Z</time>
      </trkpt>
      <trkpt lat="40.244417" lon="-4.899067">
        <ele>1068.0</ele>
        <time>2018-06-24T13:00:11Z</time>
      </trkpt>
      <trkpt lat="40.244533" lon="-4.899100">
        <ele>1069.0</ele>
        <time>2018-06-24T13:00:12Z</time>
      </trkpt>
      <trkpt lat="40.244633" lon="-4.899117">
        <ele>1069.0</ele>
        <time>2018-06-24T13:00:13Z</time>
      </trkpt>
      <trkpt lat="40.244733" lon="-4.899117">
        <ele>1068.0</ele>
        <time>2018-06-24T13:00:14Z</time>
      </trkpt>
      <trkpt lat="40.244833" lon="-4.899067">
        <ele>1065.0</ele>
        <time>2018-06-24T13:00:15Z</time>
      </trkpt>
      <trkpt lat="40.244917" lon="-4.899000">
        <ele>1064.0</ele>
        <time>2018-06-24T13:00:16Z</time>
      </trkpt>
      <trkpt lat="40.244983" lon="-4.898883">
        <ele>1063.0</ele>
        <time>2018-06-24T13:00:17Z</time>
      </trkpt>
      <trkpt lat="40.245033" lon="-4.898767">
        <ele>1064.0</ele>
        <time>2018-06-24T13:00:18Z</time>
      </trkpt>
      <trkpt lat="40.245067" lon="-4.898650">
        <ele>1067.0</ele>
        <time>2018-06-24T13:00:19Z</time>
      </trkpt>
      <trkpt lat="40.245100" lon="-4.898550">
        <ele>1071.0</ele>
        <time>2018-06-24T13:00:20Z</time>
      </trkpt>
      <trkpt lat="40.245133" lon="-4.898450">
        <ele>1073.0</ele>
        <time>2018-06-24T13:00:21Z</time>
      </trkpt>
      <trkpt lat="40.245167" lon="-4.898383">
        <ele>1074.0</ele>
        <time>2018-06-24T13:00:22Z</time>
      </trkpt>
      <trkpt lat="40.245217" lon="-4.898300">
        <ele>1073.0</ele>
        <time>2018-06-24T13:00:23Z</time>
      </trkpt>
      <trkpt lat="40.245267" lon="-4.898233">
        <ele>1072.0</ele>
        <time>2018-06-24T13:00:24Z</time>
      </trkpt>
      <trkpt lat="40.245317" lon="-4.898133">
        <ele>1071.0</ele>
        <time>2018-06-24T13:00:25Z</time>
      </trkpt>
      <trkpt lat="40.245350" lon="-4.898017">
        <ele>1070.0</ele>
        <time>2018-06-24T13:00:26Z</time>
      </trkpt>
      <trkpt lat="40.245367" lon="-4.897917">
        <ele>1068.0</ele>
        <time>2018-06-24T13:00:27Z</time>
      </trkpt>
      <trkpt lat="40.245367" lon="-4.897817">
        <ele>1068.0</ele>
        <time>2018-06-24T13:00:28Z</time>
      </trkpt>
      <trkpt lat="40.245367" lon="-4.897733">
        <ele>1068.0</ele>
        <time>2018-06-24T13:00:29Z</time>
      </trkpt>
      <trkpt lat="40.245333" lon="-4.897667">
        <ele>1067.0</ele>
        <time>2018-06-24T13:00:30Z</time>
      </trkpt>
      <trkpt lat="40.245300" lon="-4.897600">
        <ele>1065.0</ele>
        <time>2018-06-24T13:00:31Z</time>
      </trkpt>
      <trkpt lat="40.245233" lon="-4.897533">
        <ele>1063.0</ele>
        <time>2018-06-24T13:00:32Z</time>
      </trkpt>
      <trkpt lat="40.245167" lon="-4.897500">
        <ele>1062.0</ele>
        <time>2018-06-24T13:00:33Z</time>
      </trkpt>
      <trkpt lat="40.245100" lon="-4.897483">
        <ele>1060.0</ele>
        <time>2018-06-24T13:00:34Z</time>
      </trkpt>
      <trkpt lat="40.245017" lon="-4.897533">
        <ele>1057.0</ele>
        <time>2018-06-24T13:00:35Z</time>
      </trkpt>
      <trkpt lat="40.244950" lon="-4.897617">
        <ele>1054.0</ele>
        <time>2018-06-24T13:00:36Z</time>
      </trkpt>
      <trkpt lat="40.244917" lon="-4.897750">
        <ele>1052.0</ele>
        <time>2018-06-24T13:00:37Z</time>
      </trkpt>
      <trkpt lat="40.244883" lon="-4.897867">
        <ele>1051.0</ele>
        <time>2018-06-24T13:00:38Z</time>
      </trkpt>
      <trkpt lat="40.244883" lon="-4.898000">
        <ele>1050.0</ele>
        <time>2018-06-24T13:00:39Z</time>
      </trkpt>
      <trkpt lat="40.244933" lon="-4.898117">
        <ele>1049.0</ele>
        <time>2018-06-24T13:00:40Z</time>
      </trkpt>
      <trkpt lat="40.244983" lon="-4.898233">
        <ele>1048.0</ele>
        <time>2018-06-24T13:00:41Z</time>
      </trkpt>
      <trkpt lat="40.245033" lon="-4.898350">
        <ele>1047.0</ele>
        <time>2018-06-24T13:00:42Z</time>
      </trkpt>
      <trkpt lat="40.245067" lon="-4.898483">
        <ele>1046.0</ele>
        <time>2018-06-24T13:00:43Z</time>
      </trkpt>
      <trkpt lat="40.245083" lon="-4.898617">
        <ele>1046.0</ele>
        <time>2018-06-24T13:00:44Z</time>
      </trkpt>
      <trkpt lat="40.245083" lon="-4.898750">
        <ele>1045.0</ele>
        <time>2018-06-24T13:00:45Z</time>
      </trkpt>
      <trkpt lat="40.245050" lon="-4.898850">
        <ele>1045.0</ele>
        <time>2018-06-24T13:00:46Z</time>
      </trkpt>
      <trkpt lat="40.244967" lon="-4.898900">
        <ele>1044.0</ele>
        <time>2018-06-24T13:00:47Z</time>
      </trkpt>
      <trkpt lat="40.244900" lon="-4.898950">
        <ele>1044.0</ele>
        <time>2018-06-24T13:00:48Z</time>
      </trkpt>
      <trkpt lat="40.244817" lon="-4.898933">
        <ele>1044.0</ele>
        <time>2018-06-24T13:00:49Z</time>
      </trkpt>
      <trkpt lat="40.244767" lon="-4.898883">
        <ele>1044.0</ele>
        <time>2018-06-24T13:00:50Z</time>
      </trkpt>
      <trkpt lat="40.244717" lon="-4.898833">
        <ele>1044.0</ele>
        <time>2018-06-24T13:00:51Z</time>
      </trkpt>
      <trkpt lat="40.244700" lon="-4.898767">
        <ele>1045.0</ele>
        <time>2018-06-24T13:00:52Z</time>
      </trkpt>
      <trkpt lat="40.244683" lon="-4.898700">
        <ele>1045.0</ele>
        <time>2018-06-24T13:00:53Z</time>
      </trkpt>
      <trkpt lat="40.244683" lon="-4.898633">
        <ele>1045.0</ele>
        <time>2018-06-24T13:00:54Z</time>
      </trkpt>
      <trkpt lat="40.244650" lon="-4.898583">
        <ele>1044.0</ele>
        <time>2018-06-24T13:00:55Z</time>
      </trkpt>
      <trkpt lat="40.244583" lon="-4.898533">
        <ele>1042.0</ele>
        <time>2018-06-24T13:00:56Z</time>
      </trkpt>
      <trkpt lat="40.244517" lon="-4.898517">
        <ele>1040.0</ele>
        <time>2018-06-24T13:00:57Z</time>
      </trkpt>
      <trkpt lat="40.244433" lon="-4.898500">
        <ele>1040.0</ele>
        <time>2018-06-24T13:00:58Z</time>
      </trkpt>
      <trkpt lat="40.244367" lon="-4.898517">
        <ele>1039.0</ele>
        <time>2018-06-24T13:00:59Z</time>
      </trkpt>
      <trkpt lat="40.244300" lon="-4.898533">
        <ele>1038.0</ele>
        <time>2018-06-24T13:01:00Z</time>
      </trkpt>
      <trkpt lat="40.244233" lon="-4.898567">
        <ele>1036.0</ele>
        <time>2018-06-24T13:01:01Z</time>
      </trkpt>
      <trkpt lat="40.244167" lon="-4.898617">
        <ele>1034.0</ele>
        <time>2018-06-24T13:01:02Z</time>
      </trkpt>
      <trkpt lat="40.244117" lon="-4.898650">
        <ele>1033.0</ele>
        <time>2018-06-24T13:01:03Z</time>
      </trkpt>
      <trkpt lat="40.244050" lon="-4.898717">
        <ele>1032.0</ele>
        <time>2018-06-24T13:01:04Z</time>
      </trkpt>
      <trkpt lat="40.244000" lon="-4.898783">
        <ele>1030.0</ele>
        <time>2018-06-24T13:01:05Z</time>
      </trkpt>
      <trkpt lat="40.243933" lon="-4.898867">
        <ele>1029.0</ele>
        <time>2018-06-24T13:01:06Z</time>
      </trkpt>
      <trkpt lat="40.243883" lon="-4.898950">
        <ele>1028.0</ele>
        <time>2018-06-24T13:01:07Z</time>
      </trkpt>
      <trkpt lat="40.243850" lon="-4.899033">
        <ele>1028.0</ele>
        <time>2018-06-24T13:01:08Z</time>
      </trkpt>
      <trkpt lat="40.243833" lon="-4.899133">
        <ele>1028.0</ele>
        <time>2018-06-24T13:01:09Z</time>
      </trkpt>
      <trkpt lat="40.243850" lon="-4.899250">
        <ele>1026.0</ele>
        <time>2018-06-24T13:01:10Z</time>
      </trkpt>
      <trkpt lat="40.243900" lon="-4.899383">
        <ele>1025.0</ele>
        <time>2018-06-24T13:01:11Z</time>
      </trkpt>
      <trkpt lat="40.243967" lon="-4.899517">
        <ele>1024.0</ele>
        <time>2018-06-24T13:01:12Z</time>
      </trkpt>
      <trkpt lat="40.244050" lon="-4.899633">
        <ele>1027.0</ele>
        <time>2018-06-24T13:01:13Z</time>
      </trkpt>
      <trkpt lat="40.244117" lon="-4.899717">
        <ele>1030.0</ele>
        <time>2018-06-24T13:01:14Z</time>
      </trkpt>
      <trkpt lat="40.244183" lon="-4.899817">
        <ele>1032.0</ele>
        <time>2018-06-24T13:01:15Z</time>
      </trkpt>
      <trkpt lat="40.244233" lon="-4.899933">
        <ele>1034.0</ele>
        <time>2018-06-24T13:01:16Z</time>
      </trkpt>
      <trkpt lat="40.244267" lon="-4.900050">
        <ele>1035.0</ele>
        <time>2018-06-24T13:01:17Z</time>
      </trkpt>
      <trkpt lat="40.244267" lon="-4.900183">
        <ele>1035.0</ele>
        <time>2018-06-24T13:01:18Z</time>
      </trkpt>
      <trkpt lat="40.244267" lon="-4.900300">
        <ele>1034.0</ele>
        <time>2018-06-24T13:01:19Z</time>
      </trkpt>
      <trkpt lat="40.244200" lon="-4.900383">
        <ele>1033.0</ele>
        <time>2018-06-24T13:01:20Z</time>
      </trkpt>
      <trkpt lat="40.244133" lon="-4.900467">
        <ele>1032.0</ele>
        <time>2018-06-24T13:01:21Z</time>
      </trkpt>
      <trkpt lat="40.244033" lon="-4.900433">
        <ele>1030.0</ele>
        <time>2018-06-24T13:01:22Z</time>
      </trkpt>
      <trkpt lat="40.243983" lon="-4.900317">
        <ele>1030.0</ele>
        <time>2018-06-24T13:01:23Z</time>
      </trkpt>
      <trkpt lat="40.243967" lon="-4.900233">
        <ele>1030.0</ele>
        <time>2018-06-24T13:01:24Z</time>
      </trkpt>
      <trkpt lat="40.244017" lon="-4.900117">
        <ele>1030.0</ele>
        <time>2018-06-24T13:01:25Z</time>
      </trkpt>
      <trkpt lat="40.244100" lon="-4.900017">
        <ele>1027.0</ele>
        <time>2018-06-24T13:01:26Z</time>
      </trkpt>
      <trkpt lat="40.244217" lon="-4.899967">
        <ele>1028.0</ele>
        <time>2018-06-24T13:01:27Z</time>
      </trkpt>
      <trkpt lat="40.244317" lon="-4.899967">
        <ele>1029.0</ele>
        <time>2018-06-24T13:01:28Z</time>
      </trkpt>
      <trkpt lat="40.244433" lon="-4.900000">
        <ele>1031.0</ele>
        <time>2018-06-24T13:01:29Z</time>
      </trkpt>
      <trkpt lat="40.244517" lon="-4.900067">
        <ele>1032.0</ele>
        <time>2018-06-24T13:01:30Z</time>
      </trkpt>
      <trkpt lat="40.244600" lon="-4.900133">
        <ele>1032.0</ele>
        <time>2018-06-24T13:01:31Z</time>
      </trkpt>
      <trkpt lat="40.244633" lon="-4.900250">
        <ele>1031.0</ele>
        <time>2018-06-24T13:01:32Z</time>
      </trkpt>
      <trkpt lat="40.244650" lon="-4.900367">
        <ele>1030.0</ele>
        <time>2018-06-24T13:01:33Z</time>
      </trkpt>
      <trkpt lat="40.244633" lon="-4.900483">
        <ele>1029.0</ele>
        <time>2018-06-24T13:01:34Z</time>
      </trkpt>
      <trkpt lat="40.244567" lon="-4.900583">
        <ele>1027.0</ele>
        <time>2018-06-24T13:01:35Z</time>
      </trkpt>
      <trkpt lat="40.244533" lon="-4.900633">
        <ele>1028.0</ele>
        <time>2018-06-24T13:01:36Z</time>
      </trkpt>
      <trkpt lat="40.244483" lon="-4.900717">
        <ele>1029.0</ele>
        <time>2018-06-24T13:01:37Z</time>
      </trkpt>
      <trkpt lat="40.244450" lon="-4.900783">
        <ele>1029.0</ele>
        <time>2018-06-24T13:01:38Z</time>
      </trkpt>
      <trkpt lat="40.244417" lon="-4.900867">
        <ele>1029.0</ele>
        <time>2018-06-24T13:01:39Z</time>
      </trkpt>
      <trkpt lat="40.244367" lon="-4.900933">
        <ele>1029.0</ele>
        <time>2018-06-24T13:01:40Z</time>
      </trkpt>
      <trkpt lat="40.244300" lon="-4.900933">
        <ele>1028.0</ele>
        <time>2018-06-24T13:01:41Z</time>
      </trkpt>
      <trkpt lat="40.244250" lon="-4.900867">
        <ele>1026.0</ele>
        <time>2018-06-24T13:01:42Z</time>
      </trkpt>
      <trkpt lat="40.244217" lon="-4.900750">
        <ele>1025.0</ele>
        <time>2018-06-24T13:01:43Z</time>
      </trkpt>
      <trkpt lat="40.244200" lon="-4.900650">
        <ele>1025.0</ele>
        <time>2018-06-24T13:01:44Z</time>
      </trkpt>
      <trkpt lat="40.244233" lon="-4.900533">
        <ele>1025.0</ele>
        <time>2018-06-24T13:01:45Z</time>
      </trkpt>
      <trkpt lat="40.244283" lon="-4.900433">
        <ele>1025.0</ele>
        <time>2018-06-24T13:01:46Z</time>
      </trkpt>
      <trkpt lat="40.244350" lon="-4.900350">
        <ele>1024.0</ele>
        <time>2018-06-24T13:01:47Z</time>
      </trkpt>
      <trkpt lat="40.244417" lon="-4.900250">
        <ele>1024.0</ele>
        <time>2018-06-24T13:01:48Z</time>
      </trkpt>
      <trkpt lat="40.244483" lon="-4.900133">
        <ele>1024.0</ele>
        <time>2018-06-24T13:01:49Z</time>
      </trkpt>
      <trkpt lat="40.244533" lon="-4.900017">
        <ele>1025.0</ele>
        <time>2018-06-24T13:01:50Z</time>
      </trkpt>
      <trkpt lat="40.244583" lon="-4.899900">
        <ele>1026.0</ele>
        <time>2018-06-24T13:01:51Z</time>
      </trkpt>
      <trkpt lat="40.244633" lon="-4.899817">
        <ele>1027.0</ele>
        <time>2018-06-24T13:01:52Z</time>
      </trkpt>
      <trkpt lat="40.244667" lon="-4.899733">
        <ele>1029.0</ele>
        <time>2018-06-24T13:01:53Z</time>
      </trkpt>
      <trkpt lat="40.244700" lon="-4.899650">
        <ele>1031.0</ele>
        <time>2018-06-24T13:01:54Z</time>
      </trkpt>
      <trkpt lat="40.244733" lon="-4.899567">
        <ele>1031.0</ele>
        <time>2018-06-24T13:01:55Z</time>
      </trkpt>
      <trkpt lat="40.244733" lon="-4.899483">
        <ele>1028.0</ele>
        <time>2018-06-24T13:01:56Z</time>
      </trkpt>
      <trkpt lat="40.244733" lon="-4.899383">
        <ele>1026.0</ele>
        <time>2018-06-24T13:01:57Z</time>
      </trkpt>
      <trkpt lat="40.244733" lon="-4.899267">
        <ele>1025.0</ele>
        <time>2018-06-24T13:01:58Z</time>
      </trkpt>
      <trkpt lat="40.244700" lon="-4.899167">
        <ele>1024.0</ele>
        <time>2018-06-24T13:01:59Z</time>
      </trkpt>
      <trkpt lat="40.244667" lon="-4.899083">
        <ele>1024.0</ele>
        <time>2018-06-24T13:02:00Z</time>
      </trkpt>
      <trkpt lat="40.244633" lon="-4.899017">
        <ele>1024.0</ele>
        <time>2018-06-24T13:02:01Z</time>
      </trkpt>
      <trkpt lat="40.244583" lon="-4.898950">
        <ele>1023.0</ele>
        <time>2018-06-24T13:02:02Z</time>
      </trkpt>
      <trkpt lat="40.244533" lon="-4.898883">
        <ele>1023.0</ele>
        <time>2018-06-24T13:02:03Z</time>
      </trkpt>
      <trkpt lat="40.244483" lon="-4.898867">
        <ele>1023.0</ele>
        <time>2018-06-24T13:02:04Z</time>
      </trkpt>
      <trkpt lat="40.244400" lon="-4.898867">
        <ele>1020.0</ele>
        <time>2018-06-24T13:02:05Z</time>
      </trkpt>
      <trkpt lat="40.244317" lon="-4.898883">
        <ele>1018.0</ele>
        <time>2018-06-24T13:02:06Z</time>
      </trkpt>
      <trkpt lat="40.244233" lon="-4.898933">
        <ele>1017.0</ele>
        <time>2018-06-24T13:02:07Z</time>
      </trkpt>
      <trkpt lat="40.244167" lon="-4.899017">
        <ele>1017.0</ele>
        <time>2018-06-24T13:02:08Z</time>
      </trkpt>
      <trkpt lat="40.244133" lon="-4.899100">
        <ele>1018.0</ele>
        <time>2018-06-24T13:02:09Z</time>
      </trkpt>
      <trkpt lat="40.244117" lon="-4.899200">
        <ele>1019.0</ele>
        <time>2018-06-24T13:02:10Z</time>
      </trkpt>
      <trkpt lat="40.244083" lon="-4.899283">
        <ele>1020.0</ele>
        <time>2018-06-24T13:02:11Z</time>
      </trkpt>
      <trkpt lat="40.244067" lon="-4.899367">
        <ele>1020.0</ele>
        <time>2018-06-24T13:02:12Z</time>
      </trkpt>
      <trkpt lat="40.244033" lon="-4.899467">
        <ele>1020.0</ele>
        <time>2018-06-24T13:02:13Z</time>
      </trkpt>
      <trkpt lat="40.244000" lon="-4.899550">
        <ele>1019.0</ele>
        <time>2018-06-24T13:02:14Z</time>
      </trkpt>
      <trkpt lat="40.243967" lon="-4.899650">
        <ele>1017.0</ele>
        <time>2018-06-24T13:02:15Z</time>
      </trkpt>
      <trkpt lat="40.243917" lon="-4.899733">
        <ele>1015.0</ele>
        <time>2018-06-24T13:02:16Z</time>
      </trkpt>
      <trkpt lat="40.243867" lon="-4.899833">
        <ele>1014.0</ele>
        <time>2018-06-24T13:02:17Z</time>
      </trkpt>
      <trkpt lat="40.243817" lon="-4.899917">
        <ele>1013.0</ele>
        <time>2018-06-24T13:02:18Z</time>
      </trkpt>
      <trkpt lat="40.243767" lon="-4.900017">
        <ele>1012.0</ele>
        <time>2018-06-24T13:02:19Z</time>
      </trkpt>
      <trkpt lat="40.243733" lon="-4.900100">
        <ele>1012.0</ele>
        <time>2018-06-24T13:02:20Z</time>
      </trkpt>
      <trkpt lat="40.243700" lon="-4.900200">
        <ele>1011.0</ele>
        <time>2018-06-24T13:02:21Z</time>
      </trkpt>
      <trkpt lat="40.243683" lon="-4.900300">
        <ele>1011.0</ele>
        <time>2018-06-24T13:02:22Z</time>
      </trkpt>
      <trkpt lat="40.243683" lon="-4.900400">
        <ele>1011.0</ele>
        <time>2018-06-24T13:02:23Z</time>
      </trkpt>
      <trkpt lat="40.243683" lon="-4.900500">
        <ele>1011.0</ele>
        <time>2018-06-24T13:02:24Z</time>
      </trkpt>
      <trkpt lat="40.243700" lon="-4.900617">
        <ele>1010.0</ele>
        <time>2018-06-24T13:02:25Z</time>
      </trkpt>
      <trkpt lat="40.243717" lon="-4.900733">
        <ele>1009.0</ele>
        <time>2018-06-24T13:02:26Z</time>
      </trkpt>
      <trkpt lat="40.243750" lon="-4.900867">
        <ele>1009.0</ele>
        <time>2018-06-24T13:02:27Z</time>
      </trkpt>
      <trkpt lat="40.243783" lon="-4.901000">
        <ele>1009.0</ele>
        <time>2018-06-24T13:02:28Z</time>
      </trkpt>
      <trkpt lat="40.243800" lon="-4.901117">
        <ele>1011.0</ele>
        <time>2018-06-24T13:02:29Z</time>
      </trkpt>
      <trkpt lat="40.243833" lon="-4.901250">
        <ele>1011.0</ele>
        <time>2018-06-24T13:02:30Z</time>
      </trkpt>
      <trkpt lat="40.243867" lon="-4.901367">
        <ele>1011.0</ele>
        <time>2018-06-24T13:02:31Z</time>
      </trkpt>
      <trkpt lat="40.243900" lon="-4.901517">
        <ele>1012.0</ele>
        <time>2018-06-24T13:02:32Z</time>
      </trkpt>
      <trkpt lat="40.243917" lon="-4.901650">
        <ele>1012.0</ele>
        <time>2018-06-24T13:02:33Z</time>
      </trkpt>
      <trkpt lat="40.243933" lon="-4.901783">
        <ele>1012.0</ele>
        <time>2018-06-24T13:02:34Z</time>
      </trkpt>
      <trkpt lat="40.243933" lon="-4.901933">
        <ele>1012.0</ele>
        <time>2018-06-24T13:02:35Z</time>
      </trkpt>
      <trkpt lat="40.243917" lon="-4.902083">
        <ele>1012.0</ele>
        <time>2018-06-24T13:02:36Z</time>
      </trkpt>
      <trkpt lat="40.243917" lon="-4.902233">
        <ele>1011.0</ele>
        <time>2018-06-24T13:02:37Z</time>
      </trkpt>
      <trkpt lat="40.243900" lon="-4.902383">
        <ele>1011.0</ele>
        <time>2018-06-24T13:02:38Z</time>
      </trkpt>
      <trkpt lat="40.243900" lon="-4.902517">
        <ele>1011.0</ele>
        <time>2018-06-24T13:02:39Z</time>
      </trkpt>
      <trkpt lat="40.243900" lon="-4.902650">
        <ele>1013.0</ele>
        <time>2018-06-24T13:02:40Z</time>
      </trkpt>
      <trkpt lat="40.243883" lon="-4.902800">
        <ele>1015.0</ele>
        <time>2018-06-24T13:02:41Z</time>
      </trkpt>
      <trkpt lat="40.243867" lon="-4.902933">
        <ele>1018.0</ele>
        <time>2018-06-24T13:02:42Z</time>
      </trkpt>
      <trkpt lat="40.243833" lon="-4.903083">
        <ele>1020.0</ele>
        <time>2018-06-24T13:02:43Z</time>
      </trkpt>
      <trkpt lat="40.243817" lon="-4.903217">
        <ele>1021.0</ele>
        <time>2018-06-24T13:02:44Z</time>
      </trkpt>
      <trkpt lat="40.243750" lon="-4.903333">
        <ele>1023.0</ele>
        <time>2018-06-24T13:02:45Z</time>
      </trkpt>
      <trkpt lat="40.243683" lon="-4.903433">
        <ele>1024.0</ele>
        <time>2018-06-24T13:02:46Z</time>
      </trkpt>
      <trkpt lat="40.243600" lon="-4.903467">
        <ele>1023.0</ele>
        <time>2018-06-24T13:02:47Z</time>
      </trkpt>
      <trkpt lat="40.243533" lon="-4.903400">
        <ele>1020.0</ele>
        <time>2018-06-24T13:02:48Z</time>
      </trkpt>
      <trkpt lat="40.243483" lon="-4.903333">
        <ele>1019.0</ele>
        <time>2018-06-24T13:02:49Z</time>
      </trkpt>
      <trkpt lat="40.243483" lon="-4.903233">
        <ele>1018.0</ele>
        <time>2018-06-24T13:02:50Z</time>
      </trkpt>
      <trkpt lat="40.243517" lon="-4.903150">
        <ele>1017.0</ele>
        <time>2018-06-24T13:02:51Z</time>
      </trkpt>
      <trkpt lat="40.243550" lon="-4.903100">
        <ele>1018.0</ele>
        <time>2018-06-24T13:02:52Z</time>
      </trkpt>
      <trkpt lat="40.243600" lon="-4.903083">
        <ele>1022.0</ele>
        <time>2018-06-24T13:02:53Z</time>
      </trkpt>
      <trkpt lat="40.243667" lon="-4.903100">
        <ele>1025.0</ele>
        <time>2018-06-24T13:02:54Z</time>
      </trkpt>
      <trkpt lat="40.243767" lon="-4.903133">
        <ele>1026.0</ele>
        <time>2018-06-24T13:02:55Z</time>
      </trkpt>
      <trkpt lat="40.243867" lon="-4.903200">
        <ele>1024.0</ele>
        <time>2018-06-24T13:02:56Z</time>
      </trkpt>
      <trkpt lat="40.243950" lon="-4.903283">
        <ele>1020.0</ele>
        <time>2018-06-24T13:02:57Z</time>
      </trkpt>
      <trkpt lat="40.244033" lon="-4.903417">
        <ele>1019.0</ele>
        <time>2018-06-24T13:02:58Z</time>
      </trkpt>
      <trkpt lat="40.244100" lon="-4.903550">
        <ele>1021.0</ele>
        <time>2018-06-24T13:02:59Z</time>
      </trkpt>
      <trkpt lat="40.244150" lon="-4.903683">
        <ele>1022.0</ele>
        <time>2018-06-24T13:03:00Z</time>
      </trkpt>
      <trkpt lat="40.244217" lon="-4.903817">
        <ele>1024.0</ele>
        <time>2018-06-24T13:03:01Z</time>
      </trkpt>
      <trkpt lat="40.244267" lon="-4.903933">
        <ele>1026.0</ele>
        <time>2018-06-24T13:03:02Z</time>
      </trkpt>
      <trkpt lat="40.244333" lon="-4.904033">
        <ele>1026.0</ele>
        <time>2018-06-24T13:03:03Z</time>
      </trkpt>
      <trkpt lat="40.244383" lon="-4.904167">
        <ele>1028.0</ele>
        <time>2018-06-24T13:03:04Z</time>
      </trkpt>
      <trkpt lat="40.244417" lon="-4.904300">
        <ele>1028.0</ele>
        <time>2018-06-24T13:03:05Z</time>
      </trkpt>
      <trkpt lat="40.244417" lon="-4.904450">
        <ele>1028.0</ele>
        <time>2018-06-24T13:03:06Z</time>
      </trkpt>
      <trkpt lat="40.244400" lon="-4.904583">
        <ele>1029.0</ele>
        <time>2018-06-24T13:03:07Z</time>
      </trkpt>
      <trkpt lat="40.244383" lon="-4.904683">
        <ele>1031.0</ele>
        <time>2018-06-24T13:03:08Z</time>
      </trkpt>
      <trkpt lat="40.244333" lon="-4.904767">
        <ele>1036.0</ele>
        <time>2018-06-24T13:03:09Z</time>
      </trkpt>
      <trkpt lat="40.244300" lon="-4.904800">
        <ele>1039.0</ele>
        <time>2018-06-24T13:03:10Z</time>
      </trkpt>
      <trkpt lat="40.244233" lon="-4.904817">
        <ele>1041.0</ele>
        <time>2018-06-24T13:03:11Z</time>
      </trkpt>
      <trkpt lat="40.244167" lon="-4.904817">
        <ele>1043.0</ele>
        <time>2018-06-24T13:03:12Z</time>
      </trkpt>
      <trkpt lat="40.244100" lon="-4.904750">
        <ele>1044.0</ele>
        <time>2018-06-24T13:03:13Z</time>
      </trkpt>
      <trkpt lat="40.244067" lon="-4.904600">
        <ele>1043.0</ele>
        <time>2018-06-24T13:03:14Z</time>
      </trkpt>
      <trkpt lat="40.244050" lon="-4.904467">
        <ele>1044.0</ele>
        <time>2018-06-24T13:03:15Z</time>
      </trkpt>
      <trkpt lat="40.244100" lon="-4.904350">
        <ele>1045.0</ele>
        <time>2018-06-24T13:03:16Z</time>
      </trkpt>
      <trkpt lat="40.244183" lon="-4.904250">
        <ele>1044.0</ele>
        <time>2018-06-24T13:03:17Z</time>
      </trkpt>
      <trkpt lat="40.244267" lon="-4.904167">
        <ele>1045.0</ele>
        <time>2018-06-24T13:03:18Z</time>
      </trkpt>
      <trkpt lat="40.244317" lon="-4.904067">
        <ele>1045.0</ele>
        <time>2018-06-24T13:03:19Z</time>
      </trkpt>
      <trkpt lat="40.244350" lon="-4.903967">
        <ele>1044.0</ele>
        <time>2018-06-24T13:03:20Z</time>
      </trkpt>
      <trkpt lat="40.244350" lon="-4.903833">
        <ele>1043.0</ele>
        <time>2018-06-24T13:03:21Z</time>
      </trkpt>
      <trkpt lat="40.244300" lon="-4.903733">
        <ele>1045.0</ele>
        <time>2018-06-24T13:03:22Z</time>
      </trkpt>
      <trkpt lat="40.244250" lon="-4.903650">
        <ele>1049.0</ele>
        <time>2018-06-24T13:03:23Z</time>
      </trkpt>
      <trkpt lat="40.244167" lon="-4.903600">
        <ele>1051.0</ele>
        <time>2018-06-24T13:03:24Z</time>
      </trkpt>
      <trkpt lat="40.244100" lon="-4.903617">
        <ele>1051.0</ele>
        <time>2018-06-24T13:03:25Z</time>
      </trkpt>
      <trkpt lat="40.244033" lon="-4.903667">
        <ele>1053.0</ele>
        <time>2018-06-24T13:03:26Z</time>
      </trkpt>
      <trkpt lat="40.244000" lon="-4.903767">
        <ele>1053.0</ele>
        <time>2018-06-24T13:03:27Z</time>
      </trkpt>
      <trkpt lat="40.243983" lon="-4.903883">
        <ele>1054.0</ele>
        <time>2018-06-24T13:03:28Z</time>
      </trkpt>
      <trkpt lat="40.243983" lon="-4.904017">
        <ele>1055.0</ele>
        <time>2018-06-24T13:03:29Z</time>
      </trkpt>
      <trkpt lat="40.244000" lon="-4.904150">
        <ele>1056.0</ele>
        <time>2018-06-24T13:03:30Z</time>
      </trkpt>
      <trkpt lat="40.244083" lon="-4.904267">
        <ele>1055.0</ele>
        <time>2018-06-24T13:03:31Z</time>
      </trkpt>
      <trkpt lat="40.244250" lon="-4.904300">
        <ele>1047.0</ele>
        <time>2018-06-24T13:03:32Z</time>
      </trkpt>
      <trkpt lat="40.244400" lon="-4.904350">
        <ele>1042.0</ele>
        <time>2018-06-24T13:03:33Z</time>
      </trkpt>
      <trkpt lat="40.244533" lon="-4.904367">
        <ele>1041.0</ele>
        <time>2018-06-24T13:03:34Z</time>
      </trkpt>
      <trkpt lat="40.244633" lon="-4.904367">
        <ele>1043.0</ele>
        <time>2018-06-24T13:03:35Z</time>
      </trkpt>
      <trkpt lat="40.244733" lon="-4.904400">
        <ele>1043.0</ele>
        <time>2018-06-24T13:03:36Z</time>
      </trkpt>
      <trkpt lat="40.244817" lon="-4.904450">
        <ele>1040.0</ele>
        <time>2018-06-24T13:03:37Z</time>
      </trkpt>
      <trkpt lat="40.244883" lon="-4.904533">
        <ele>1036.0</ele>
        <time>2018-06-24T13:03:38Z</time>
      </trkpt>
      <trkpt lat="40.244900" lon="-4.904650">
        <ele>1034.0</ele>
        <time>2018-06-24T13:03:39Z</time>
      </trkpt>
      <trkpt lat="40.244900" lon="-4.904767">
        <ele>1032.0</ele>
        <time>2018-06-24T13:03:40Z</time>
      </trkpt>
      <trkpt lat="40.244850" lon="-4.904833">
        <ele>1031.0</ele>
        <time>2018-06-24T13:03:41Z</time>
      </trkpt>
      <trkpt lat="40.244767" lon="-4.904867">
        <ele>1030.0</ele>
        <time>2018-06-24T13:03:42Z</time>
      </trkpt>
      <trkpt lat="40.244717" lon="-4.904817">
        <ele>1030.0</ele>
        <time>2018-06-24T13:03:43Z</time>
      </trkpt>
      <trkpt lat="40.244667" lon="-4.904767">
        <ele>1035.0</ele>
        <time>2018-06-24T13:03:44Z</time>
      </trkpt>
      <trkpt lat="40.244617" lon="-4.904717">
        <ele>1042.0</ele>
        <time>2018-06-24T13:03:45Z</time>
      </trkpt>
      <trkpt lat="40.244600" lon="-4.904683">
        <ele>1045.0</ele>
        <time>2018-06-24T13:03:46Z</time>
      </trkpt>
      <trkpt lat="40.244567" lon="-4.904683">
        <ele>1045.0</ele>
        <time>2018-06-24T13:03:47Z</time>
      </trkpt>
      <trkpt lat="40.244533" lon="-4.904700">
        <ele>1045.0</ele>
        <time>2018-06-24T13:03:48Z</time>
      </trkpt>
      <trkpt lat="40.244467" lon="-4.904733">
        <ele>1045.0</ele>
        <time>2018-06-24T13:03:49Z</time>
      </trkpt>
      <trkpt lat="40.244400" lon="-4.904817">
        <ele>1045.0</ele>
        <time>2018-06-24T13:03:50Z</time>
      </trkpt>
      <trkpt lat="40.244367" lon="-4.904917">
        <ele>1045.0</ele>
        <time>2018-06-24T13:03:51Z</time>
      </trkpt>
      <trkpt lat="40.244367" lon="-4.905067">
        <ele>1046.0</ele>
        <time>2018-06-24T13:03:52Z</time>
      </trkpt>
      <trkpt lat="40.244383" lon="-4.905183">
        <ele>1048.0</ele>
        <time>2018-06-24T13:03:53Z</time>
      </trkpt>
      <trkpt lat="40.244433" lon="-4.905300">
        <ele>1048.0</ele>
        <time>2018-06-24T13:03:54Z</time>
      </trkpt>
      <trkpt lat="40.244517" lon="-4.905383">
        <ele>1047.0</ele>
        <time>2018-06-24T13:03:55Z</time>
      </trkpt>
      <trkpt lat="40.244633" lon="-4.905450">
        <ele>1044.0</ele>
        <time>2018-06-24T13:03:56Z</time>
      </trkpt>
      <trkpt lat="40.244733" lon="-4.905500">
        <ele>1044.0</ele>
        <time>2018-06-24T13:03:57Z</time>
      </trkpt>
      <trkpt lat="40.244867" lon="-4.905533">
        <ele>1045.0</ele>
        <time>2018-06-24T13:03:58Z</time>
      </trkpt>
      <trkpt lat="40.244983" lon="-4.905517">
        <ele>1044.0</ele>
        <time>2018-06-24T13:03:59Z</time>
      </trkpt>
      <trkpt lat="40.245100" lon="-4.905433">
        <ele>1045.0</ele>
        <time>2018-06-24T13:04:00Z</time>
      </trkpt>
      <trkpt lat="40.245200" lon="-4.905317">
        <ele>1043.0</ele>
        <time>2018-06-24T13:04:01Z</time>
      </trkpt>
      <trkpt lat="40.245250" lon="-4.905183">
        <ele>1043.0</ele>
        <time>2018-06-24T13:04:02Z</time>
      </trkpt>
      <trkpt lat="40.245283" lon="-4.905050">
        <ele>1047.0</ele>
        <time>2018-06-24T13:04:03Z</time>
      </trkpt>
      <trkpt lat="40.245283" lon="-4.904933">
        <ele>1051.0</ele>
        <time>2018-06-24T13:04:04Z</time>
      </trkpt>
      <trkpt lat="40.245267" lon="-4.904833">
        <ele>1053.0</ele>
        <time>2018-06-24T13:04:05Z</time>
      </trkpt>
      <trkpt lat="40.245267" lon="-4.904733">
        <ele>1054.0</ele>
        <time>2018-06-24T13:04:06Z</time>
      </trkpt>
      <trkpt lat="40.245250" lon="-4.904650">
        <ele>1055.0</ele>
        <time>2018-06-24T13:04:07Z</time>
      </trkpt>
      <trkpt lat="40.245233" lon="-4.904550">
        <ele>1056.0</ele>
        <time>2018-06-24T13:04:08Z</time>
      </trkpt>
      <trkpt lat="40.245233" lon="-4.904433">
        <ele>1058.0</ele>
        <time>2018-06-24T13:04:09Z</time>
      </trkpt>
      <trkpt lat="40.245250" lon="-4.904350">
        <ele>1059.0</ele>
        <time>2018-06-24T13:04:10Z</time>
      </trkpt>
      <trkpt lat="40.245233" lon="-4.904267">
        <ele>1060.0</ele>
        <time>2018-06-24T13:04:11Z</time>
      </trkpt>
      <trkpt lat="40.245200" lon="-4.904183">
        <ele>1060.0</ele>
        <time>2018-06-24T13:04:12Z</time>
      </trkpt>
      <trkpt lat="40.245150" lon="-4.904133">
        <ele>1059.0</ele>
        <time>2018-06-24T13:04:13Z</time>
      </trkpt>
      <trkpt lat="40.245083" lon="-4.904117">
        <ele>1059.0</ele>
        <time>2018-06-24T13:04:14Z</time>
      </trkpt>
      <trkpt lat="40.245033" lon="-4.904133">
        <ele>1059.0</ele>
        <time>2018-06-24T13:04:15Z</time>
      </trkpt>
      <trkpt lat="40.244967" lon="-4.904183">
        <ele>1059.0</ele>
        <time>2018-06-24T13:04:16Z</time>
      </trkpt>
      <trkpt lat="40.244933" lon="-4.904283">
        <ele>1060.0</ele>
        <time>2018-06-24T13:04:17Z</time>
      </trkpt>
      <trkpt lat="40.244917" lon="-4.904433">
        <ele>1060.0</ele>
        <time>2018-06-24T13:04:18Z</time>
      </trkpt>
      <trkpt lat="40.244933" lon="-4.904567">
        <ele>1061.0</ele>
        <time>2018-06-24T13:04:19Z</time>
      </trkpt>
      <trkpt lat="40.244983" lon="-4.904700">
        <ele>1061.0</ele>
        <time>2018-06-24T13:04:20Z</time>
      </trkpt>
      <trkpt lat="40.245083" lon="-4.904800">
        <ele>1061.0</ele>
        <time>2018-06-24T13:04:21Z</time>
      </trkpt>
      <trkpt lat="40.245200" lon="-4.904867">
        <ele>1062.0</ele>
        <time>2018-06-24T13:04:22Z</time>
      </trkpt>
      <trkpt lat="40.245317" lon="-4.904900">
        <ele>1061.0</ele>
        <time>2018-06-24T13:04:23Z</time>
      </trkpt>
      <trkpt lat="40.245450" lon="-4.904917">
        <ele>1061.0</ele>
        <time>2018-06-24T13:04:24Z</time>
      </trkpt>
      <trkpt lat="40.245567" lon="-4.904867">
        <ele>1061.0</ele>
        <time>2018-06-24T13:04:25Z</time>
      </trkpt>
      <trkpt lat="40.245667" lon="-4.904783">
        <ele>1061.0</ele>
        <time>2018-06-24T13:04:26Z</time>
      </trkpt>
      <trkpt lat="40.245733" lon="-4.904667">
        <ele>1061.0</ele>
        <time>2018-06-24T13:04:27Z</time>
      </trkpt>
      <trkpt lat="40.245750" lon="-4.904517">
        <ele>1061.0</ele>
        <time>2018-06-24T13:04:28Z</time>
      </trkpt>
      <trkpt lat="40.245733" lon="-4.904333">
        <ele>1064.0</ele>
        <time>2018-06-24T13:04:29Z</time>
      </trkpt>
      <trkpt lat="40.245733" lon="-4.904183">
        <ele>1071.0</ele>
        <time>2018-06-24T13:04:30Z</time>
      </trkpt>
      <trkpt lat="40.245717" lon="-4.904083">
        <ele>1075.0</ele>
        <time>2018-06-24T13:04:31Z</time>
      </trkpt>
      <trkpt lat="40.245700" lon="-4.904017">
        <ele>1077.0</ele>
        <time>2018-06-24T13:04:32Z</time>
      </trkpt>
      <trkpt lat="40.245683" lon="-4.903967">
        <ele>1079.0</ele>
        <time>2018-06-24T13:04:33Z</time>
      </trkpt>
      <trkpt lat="40.245667" lon="-4.903883">
        <ele>1080.0</ele>
        <time>2018-06-24T13:04:34Z</time>
      </trkpt>
      <trkpt lat="40.245667" lon="-4.903800">
        <ele>1080.0</ele>
        <time>2018-06-24T13:04:35Z</time>
      </trkpt>
      <trkpt lat="40.245650" lon="-4.903700">
        <ele>1081.0</ele>
        <time>2018-06-24T13:04:36Z</time>
      </trkpt>
      <trkpt lat="40.245633" lon="-4.903600">
        <ele>1082.0</ele>
        <time>2018-06-24T13:04:37Z</time>
      </trkpt>
      <trkpt lat="40.245583" lon="-4.903550">
        <ele>1082.0</ele>
        <time>2018-06-24T13:04:38Z</time>
      </trkpt>
      <trkpt lat="40.245500" lon="-4.903517">
        <ele>1082.0</ele>
        <time>2018-06-24T13:04:39Z</time>
      </trkpt>
      <trkpt lat="40.245417" lon="-4.903533">
        <ele>1084.0</ele>
        <time>2018-06-24T13:04:40Z</time>
      </trkpt>
      <trkpt lat="40.245333" lon="-4.903567">
        <ele>1087.0</ele>
        <time>2018-06-24T13:04:41Z</time>
      </trkpt>
      <trkpt lat="40.245283" lon="-4.903617">
        <ele>1090.0</ele>
        <time>2018-06-24T13:04:42Z</time>
      </trkpt>
      <trkpt lat="40.245250" lon="-4.903683">
        <ele>1092.0</ele>
        <time>2018-06-24T13:04:43Z</time>
      </trkpt>
      <trkpt lat="40.245233" lon="-4.903767">
        <ele>1093.0</ele>
        <time>2018-06-24T13:04:44Z</time>
      </trkpt>
      <trkpt lat="40.245217" lon="-4.903883">
        <ele>1094.0</ele>
        <time>2018-06-24T13:04:45Z</time>
      </trkpt>
      <trkpt lat="40.245217" lon="-4.904017">
        <ele>1095.0</ele>
        <time>2018-06-24T13:04:46Z</time>
      </trkpt>
      <trkpt lat="40.245267" lon="-4.904150">
        <ele>1096.0</ele>
        <time>2018-06-24T13:04:47Z</time>
      </trkpt>
      <trkpt lat="40.245383" lon="-4.904250">
        <ele>1095.0</ele>
        <time>2018-06-24T13:04:48Z</time>
      </trkpt>
      <trkpt lat="40.245500" lon="-4.904333">
        <ele>1094.0</ele>
        <time>2018-06-24T13:04:49Z</time>
      </trkpt>
      <trkpt lat="40.245633" lon="-4.904367">
        <ele>1095.0</ele>
        <time>2018-06-24T13:04:50Z</time>
      </trkpt>
      <trkpt lat="40.245750" lon="-4.904367">
        <ele>1095.0</ele>
        <time>2018-06-24T13:04:51Z</time>
      </trkpt>
      <trkpt lat="40.245850" lon="-4.904300">
        <ele>1095.0</ele>
        <time>2018-06-24T13:04:52Z</time>
      </trkpt>
      <trkpt lat="40.245933" lon="-4.904200">
        <ele>1094.0</ele>
        <time>2018-06-24T13:04:53Z</time>
      </trkpt>
      <trkpt lat="40.245983" lon="-4.904083">
        <ele>1094.0</ele>
        <time>2018-06-24T13:04:54Z</time>
      </trkpt>
      <trkpt lat="40.246033" lon="-4.903967">
        <ele>1096.0</ele>
        <time>2018-06-24T13:04:55Z</time>
      </trkpt>
      <trkpt lat="40.246050" lon="-4.903850">
        <ele>1098.0</ele>
        <time>2018-06-24T13:04:56Z</time>
      </trkpt>
      <trkpt lat="40.246067" lon="-4.903750">
        <ele>1100.0</ele>
        <time>2018-06-24T13:04:57Z</time>
      </trkpt>
      <trkpt lat="40.246067" lon="-4.903650">
        <ele>1102.0</ele>
        <time>2018-06-24T13:04:58Z</time>
      </trkpt>
      <trkpt lat="40.246050" lon="-4.903550">
        <ele>1102.0</ele>
        <time>2018-06-24T13:04:59Z</time>
      </trkpt>
      <trkpt lat="40.246017" lon="-4.903467">
        <ele>1103.0</ele>
        <time>2018-06-24T13:05:00Z</time>
      </trkpt>
      <trkpt lat="40.245967" lon="-4.903383">
        <ele>1105.0</ele>
        <time>2018-06-24T13:05:01Z</time>
      </trkpt>
      <trkpt lat="40.245917" lon="-4.903333">
        <ele>1106.0</ele>
        <time>2018-06-24T13:05:02Z</time>
      </trkpt>
      <trkpt lat="40.245867" lon="-4.903283">
        <ele>1108.0</ele>
        <time>2018-06-24T13:05:03Z</time>
      </trkpt>
      <trkpt lat="40.245833" lon="-4.903250">
        <ele>1111.0</ele>
        <time>2018-06-24T13:05:04Z</time>
      </trkpt>
      <trkpt lat="40.245800" lon="-4.903200">
        <ele>1110.0</ele>
        <time>2018-06-24T13:05:05Z</time>
      </trkpt>
      <trkpt lat="40.245767" lon="-4.903150">
        <ele>1108.0</ele>
        <time>2018-06-24T13:05:06Z</time>
      </trkpt>
      <trkpt lat="40.245717" lon="-4.903117">
        <ele>1107.0</ele>
        <time>2018-06-24T13:05:07Z</time>
      </trkpt>
      <trkpt lat="40.245650" lon="-4.903100">
        <ele>1105.0</ele>
        <time>2018-06-24T13:05:08Z</time>
      </trkpt>
      <trkpt lat="40.245567" lon="-4.903133">
        <ele>1103.0</ele>
        <time>2018-06-24T13:05:09Z</time>
      </trkpt>
      <trkpt lat="40.245483" lon="-4.903233">
        <ele>1102.0</ele>
        <time>2018-06-24T13:05:10Z</time>
      </trkpt>
      <trkpt lat="40.245433" lon="-4.903367">
        <ele>1101.0</ele>
        <time>2018-06-24T13:05:11Z</time>
      </trkpt>
      <trkpt lat="40.245400" lon="-4.903500">
        <ele>1100.0</ele>
        <time>2018-06-24T13:05:12Z</time>
      </trkpt>
      <trkpt lat="40.245383" lon="-4.903633">
        <ele>1100.0</ele>
        <time>2018-06-24T13:05:13Z</time>
      </trkpt>
      <trkpt lat="40.245383" lon="-4.903750">
        <ele>1100.0</ele>
        <time>2018-06-24T13:05:14Z</time>
      </trkpt>
      <trkpt lat="40.245400" lon="-4.903900">
        <ele>1100.0</ele>
        <time>2018-06-24T13:05:15Z</time>
      </trkpt>
      <trkpt lat="40.245417" lon="-4.904033">
        <ele>1099.0</ele>
        <time>2018-06-24T13:05:16Z</time>
      </trkpt>
      <trkpt lat="40.245417" lon="-4.904167">
        <ele>1099.0</ele>
        <time>2018-06-24T13:05:17Z</time>
      </trkpt>
      <trkpt lat="40.245383" lon="-4.904300">
        <ele>1099.0</ele>
        <time>2018-06-24T13:05:18Z</time>
      </trkpt>
      <trkpt lat="40.245350" lon="-4.904400">
        <ele>1099.0</ele>
        <time>2018-06-24T13:05:19Z</time>
      </trkpt>
      <trkpt lat="40.245283" lon="-4.904500">
        <ele>1101.0</ele>
        <time>2018-06-24T13:05:20Z</time>
      </trkpt>
      <trkpt lat="40.245233" lon="-4.904567">
        <ele>1102.0</ele>
        <time>2018-06-24T13:05:21Z</time>
      </trkpt>
      <trkpt lat="40.245200" lon="-4.904650">
        <ele>1103.0</ele>
        <time>2018-06-24T13:05:22Z</time>
      </trkpt>
      <trkpt lat="40.245167" lon="-4.904750">
        <ele>1103.0</ele>
        <time>2018-06-24T13:05:23Z</time>
      </trkpt>
      <trkpt lat="40.245133" lon="-4.904867">
        <ele>1103.0</ele>
        <time>2018-06-24T13:05:24Z</time>
      </trkpt>
      <trkpt lat="40.245117" lon="-4.905000">
        <ele>1103.0</ele>
        <time>2018-06-24T13:05:25Z</time>
      </trkpt>
      <trkpt lat="40.245167" lon="-4.905133">
        <ele>1102.0</ele>
        <time>2018-06-24T13:05:26Z</time>
      </trkpt>
      <trkpt lat="40.245267" lon="-4.905267">
        <ele>1101.0</ele>
        <time>2018-06-24T13:05:27Z</time>
      </trkpt>
      <trkpt lat="40.245350" lon="-4.905333">
        <ele>1100.0</ele>
        <time>2018-06-24T13:05:28Z</time>
      </trkpt>
      <trkpt lat="40.245467" lon="-4.905383">
        <ele>1102.0</ele>
        <time>2018-06-24T13:05:29Z</time>
      </trkpt>
      <trkpt lat="40.245567" lon="-4.905433">
        <ele>1101.0</ele>
        <time>2018-06-24T13:05:30Z</time>
      </trkpt>
      <trkpt lat="40.245667" lon="-4.905417">
        <ele>1100.0</ele>
        <time>2018-06-24T13:05:31Z</time>
      </trkpt>
      <trkpt lat="40.245767" lon="-4.905383">
        <ele>1098.0</ele>
        <time>2018-06-24T13:05:32Z</time>
      </trkpt>
      <trkpt lat="40.245867" lon="-4.905300">
        <ele>1097.0</ele>
        <time>2018-06-24T13:05:33Z</time>
      </trkpt>
      <trkpt lat="40.245950" lon="-4.905200">
        <ele>1096.0</ele>
        <time>2018-06-24T13:05:34Z</time>
      </trkpt>
      <trkpt lat="40.246017" lon="-4.905067">
        <ele>1097.0</ele>
        <time>2018-06-24T13:05:35Z</time>
      </trkpt>
      <trkpt lat="40.246050" lon="-4.904933">
        <ele>1100.0</ele>
        <time>2018-06-24T13:05:36Z</time>
      </trkpt>
      <trkpt lat="40.246067" lon="-4.904817">
        <ele>1104.0</ele>
        <time>2018-06-24T13:05:37Z</time>
      </trkpt>
      <trkpt lat="40.246083" lon="-4.904717">
        <ele>1106.0</ele>
        <time>2018-06-24T13:05:38Z</time>
      </trkpt>
      <trkpt lat="40.246117" lon="-4.904650">
        <ele>1107.0</ele>
        <time>2018-06-24T13:05:39Z</time>
      </trkpt>
      <trkpt lat="40.246150" lon="-4.904567">
        <ele>1107.0</ele>
        <time>2018-06-24T13:05:40Z</time>
      </trkpt>
      <trkpt lat="40.246167" lon="-4.904467">
        <ele>1107.0</ele>
        <time>2018-06-24T13:05:41Z</time>
      </trkpt>
      <trkpt lat="40.246150" lon="-4.904383">
        <ele>1106.0</ele>
        <time>2018-06-24T13:05:42Z</time>
      </trkpt>
      <trkpt lat="40.246117" lon="-4.904283">
        <ele>1106.0</ele>
        <time>2018-06-24T13:05:43Z</time>
      </trkpt>
      <trkpt lat="40.246067" lon="-4.904200">
        <ele>1106.0</ele>
        <time>2018-06-24T13:05:44Z</time>
      </trkpt>
      <trkpt lat="40.246000" lon="-4.904167">
        <ele>1107.0</ele>
        <time>2018-06-24T13:05:45Z</time>
      </trkpt>
      <trkpt lat="40.245967" lon="-4.904133">
        <ele>1108.0</ele>
        <time>2018-06-24T13:05:46Z</time>
      </trkpt>
      <trkpt lat="40.245917" lon="-4.904117">
        <ele>1107.0</ele>
        <time>2018-06-24T13:05:47Z</time>
      </trkpt>
      <trkpt lat="40.245850" lon="-4.904133">
        <ele>1106.0</ele>
        <time>2018-06-24T13:05:48Z</time>
      </trkpt>
      <trkpt lat="40.245783" lon="-4.904167">
        <ele>1105.0</ele>
        <time>2018-06-24T13:05:49Z</time>
      </trkpt>
      <trkpt lat="40.245717" lon="-4.904217">
        <ele>1104.0</ele>
        <time>2018-06-24T13:05:50Z</time>
      </trkpt>
      <trkpt lat="40.245667" lon="-4.904333">
        <ele>1103.0</ele>
        <time>2018-06-24T13:05:51Z</time>
      </trkpt>
      <trkpt lat="40.245617" lon="-4.904467">
        <ele>1103.0</ele>
        <time>2018-06-24T13:05:52Z</time>
      </trkpt>
      <trkpt lat="40.245617" lon="-4.904567">
        <ele>1104.0</ele>
        <time>2018-06-24T13:05:53Z</time>
      </trkpt>
      <trkpt lat="40.245617" lon="-4.904683">
        <ele>1104.0</ele>
        <time>2018-06-24T13:05:54Z</time>
      </trkpt>
      <trkpt lat="40.245633" lon="-4.904800">
        <ele>1105.0</ele>
        <time>2018-06-24T13:05:55Z</time>
      </trkpt>
      <trkpt lat="40.245667" lon="-4.904900">
        <ele>1104.0</ele>
        <time>2018-06-24T13:05:56Z</time>
      </trkpt>
      <trkpt lat="40.245750" lon="-4.904983">
        <ele>1103.0</ele>
        <time>2018-06-24T13:05:57Z</time>
      </trkpt>
      <trkpt lat="40.245833" lon="-4.905050">
        <ele>1102.0</ele>
        <time>2018-06-24T13:05:58Z</time>
      </trkpt>
      <trkpt lat="40.245933" lon="-4.905100">
        <ele>1102.0</ele>
        <time>2018-06-24T13:05:59Z</time>
      </trkpt>
      <trkpt lat="40.246050" lon="-4.905117">
        <ele>1103.0</ele>
        <time>2018-06-24T13:06:00Z</time>
      </trkpt>
      <trkpt lat="40.246167" lon="-4.905100">
        <ele>1102.0</ele>
        <time>2018-06-24T13:06:01Z</time>
      </trkpt>
      <trkpt lat="40.246250" lon="-4.905033">
        <ele>1100.0</ele>
        <time>2018-06-24T13:06:02Z</time>
      </trkpt>
      <trkpt lat="40.246333" lon="-4.904950">
        <ele>1098.0</ele>
        <time>2018-06-24T13:06:03Z</time>
      </trkpt>
      <trkpt lat="40.246383" lon="-4.904850">
        <ele>1096.0</ele>
        <time>2018-06-24T13:06:04Z</time>
      </trkpt>
      <trkpt lat="40.246417" lon="-4.904717">
        <ele>1096.0</ele>
        <time>2018-06-24T13:06:05Z</time>
      </trkpt>
      <trkpt lat="40.246433" lon="-4.904617">
        <ele>1097.0</ele>
        <time>2018-06-24T13:06:06Z</time>
      </trkpt>
      <trkpt lat="40.246433" lon="-4.904517">
        <ele>1097.0</ele>
        <time>2018-06-24T13:06:07Z</time>
      </trkpt>
      <trkpt lat="40.246417" lon="-4.904417">
        <ele>1097.0</ele>
        <time>2018-06-24T13:06:08Z</time>
      </trkpt>
      <trkpt lat="40.246383" lon="-4.904333">
        <ele>1098.0</ele>
        <time>2018-06-24T13:06:09Z</time>
      </trkpt>
      <trkpt lat="40.246367" lon="-4.904250">
        <ele>1099.0</ele>
        <time>2018-06-24T13:06:10Z</time>
      </trkpt>
      <trkpt lat="40.246333" lon="-4.904167">
        <ele>1099.0</ele>
        <time>2018-06-24T13:06:11Z</time>
      </trkpt>
      <trkpt lat="40.246283" lon="-4.904100">
        <ele>1100.0</ele>
        <time>2018-06-24T13:06:12Z</time>
      </trkpt>
      <trkpt lat="40.246217" lon="-4.904050">
        <ele>1102.0</ele>
        <time>2018-06-24T13:06:13Z</time>
      </trkpt>
      <trkpt lat="40.246133" lon="-4.904000">
        <ele>1103.0</ele>
        <time>2018-06-24T13:06:14Z</time>
      </trkpt>
      <trkpt lat="40.246083" lon="-4.903983">
        <ele>1103.0</ele>
        <time>2018-06-24T13:06:15Z</time>
      </trkpt>
      <trkpt lat="40.246000" lon="-4.904000">
        <ele>1103.0</ele>
        <time>2018-06-24T13:06:16Z</time>
      </trkpt>
      <trkpt lat="40.245933" lon="-4.904050">
        <ele>1103.0</ele>
        <time>2018-06-24T13:06:17Z</time>
      </trkpt>
      <trkpt lat="40.245867" lon="-4.904133">
        <ele>1103.0</ele>
        <time>2018-06-24T13:06:18Z</time>
      </trkpt>
      <trkpt lat="40.245833" lon="-4.904250">
        <ele>1103.0</ele>
        <time>2018-06-24T13:06:19Z</time>
      </trkpt>
      <trkpt lat="40.245800" lon="-4.904367">
        <ele>1103.0</ele>
        <time>2018-06-24T13:06:20Z</time>
      </trkpt>
      <trkpt lat="40.245817" lon="-4.904483">
        <ele>1103.0</ele>
        <time>2018-06-24T13:06:21Z</time>
      </trkpt>
      <trkpt lat="40.245833" lon="-4.904617">
        <ele>1103.0</ele>
        <time>2018-06-24T13:06:22Z</time>
      </trkpt>
      <trkpt lat="40.245883" lon="-4.904750">
        <ele>1103.0</ele>
        <time>2018-06-24T13:06:23Z</time>
      </trkpt>
      <trkpt lat="40.245950" lon="-4.904867">
        <ele>1103.0</ele>
        <time>2018-06-24T13:06:24Z</time>
      </trkpt>
      <trkpt lat="40.246033" lon="-4.904950">
        <ele>1104.0</ele>
        <time>2018-06-24T13:06:25Z</time>
      </trkpt>
      <trkpt lat="40.246133" lon="-4.905000">
        <ele>1104.0</ele>
        <time>2018-06-24T13:06:26Z</time>
      </trkpt>
      <trkpt lat="40.246300" lon="-4.904983">
        <ele>1103.0</ele>
        <time>2018-06-24T13:06:27Z</time>
      </trkpt>
      <trkpt lat="40.246367" lon="-4.904933">
        <ele>1101.0</ele>
        <time>2018-06-24T13:06:28Z</time>
      </trkpt>
      <trkpt lat="40.246450" lon="-4.904850">
        <ele>1101.0</ele>
        <time>2018-06-24T13:06:29Z</time>
      </trkpt>
      <trkpt lat="40.246517" lon="-4.904750">
        <ele>1100.0</ele>
        <time>2018-06-24T13:06:30Z</time>
      </trkpt>
      <trkpt lat="40.246550" lon="-4.904617">
        <ele>1101.0</ele>
        <time>2018-06-24T13:06:31Z</time>
      </trkpt>
      <trkpt lat="40.246567" lon="-4.904500">
        <ele>1103.0</ele>
        <time>2018-06-24T13:06:32Z</time>
      </trkpt>
      <trkpt lat="40.246567" lon="-4.904367">
        <ele>1105.0</ele>
        <time>2018-06-24T13:06:33Z</time>
      </trkpt>
      <trkpt lat="40.246550" lon="-4.904267">
        <ele>1107.0</ele>
        <time>2018-06-24T13:06:34Z</time>
      </trkpt>
      <trkpt lat="40.246517" lon="-4.904183">
        <ele>1107.0</ele>
        <time>2018-06-24T13:06:35Z</time>
      </trkpt>
      <trkpt lat="40.246467" lon="-4.904133">
        <ele>1108.0</ele>
        <time>2018-06-24T13:06:36Z</time>
      </trkpt>
      <trkpt lat="40.246400" lon="-4.904117">
        <ele>1108.0</ele>
        <time>2018-06-24T13:06:37Z</time>
      </trkpt>
      <trkpt lat="40.246333" lon="-4.904117">
        <ele>1109.0</ele>
        <time>2018-06-24T13:06:38Z</time>
      </trkpt>
      <trkpt lat="40.246267" lon="-4.904117">
        <ele>1110.0</ele>
        <time>2018-06-24T13:06:39Z</time>
      </trkpt>
      <trkpt lat="40.246200" lon="-4.904150">
        <ele>1111.0</ele>
        <time>2018-06-24T13:06:40Z</time>
      </trkpt>
      <trkpt lat="40.246150" lon="-4.904217">
        <ele>1111.0</ele>
        <time>2018-06-24T13:06:41Z</time>
      </trkpt>
      <trkpt lat="40.246117" lon="-4.904317">
        <ele>1112.0</ele>
        <time>2018-06-24T13:06:42Z</time>
      </trkpt>
      <trkpt lat="40.246083" lon="-4.904417">
        <ele>1112.0</ele>
        <time>2018-06-24T13:06:43Z</time>
      </trkpt>
      <trkpt lat="40.246067" lon="-4.904550">
        <ele>1113.0</ele>
        <time>2018-06-24T13:06:44Z</time>
      </trkpt>
      <trkpt lat="40.246067" lon="-4.904683">
        <ele>1114.0</ele>
        <time>2018-06-24T13:06:45Z</time>
      </trkpt>
      <trkpt lat="40.246100" lon="-4.904817">
        <ele>1115.0</ele>
        <time>2018-06-24T13:06:46Z</time>
      </trkpt>
      <trkpt lat="40.246167" lon="-4.904917">
        <ele>1116.0</ele>
        <time>2018-06-24T13:06:47Z</time>
      </trkpt>
      <trkpt lat="40.246250" lon="-4.905000">
        <ele>1116.0</ele>
        <time>2018-06-24T13:06:48Z</time>
      </trkpt>
      <trkpt lat="40.246367" lon="-4.905050">
        <ele>1114.0</ele>
        <time>2018-06-24T13:06:49Z</time>
      </trkpt>
      <trkpt lat="40.246467" lon="-4.905067">
        <ele>1114.0</ele>
        <time>2018-06-24T13:06:50Z</time>
      </trkpt>
      <trkpt lat="40.246583" lon="-4.905067">
        <ele>1116.0</ele>
        <time>2018-06-24T13:06:51Z</time>
      </trkpt>
      <trkpt lat="40.246700" lon="-4.905017">
        <ele>1116.0</ele>
        <time>2018-06-24T13:06:52Z</time>
      </trkpt>
      <trkpt lat="40.246783" lon="-4.904933">
        <ele>1116.0</ele>
        <time>2018-06-24T13:06:53Z</time>
      </trkpt>
      <trkpt lat="40.246850" lon="-4.904833">
        <ele>1115.0</ele>
        <time>2018-06-24T13:06:54Z</time>
      </trkpt>
      <trkpt lat="40.246900" lon="-4.904717">
        <ele>1115.0</ele>
        <time>2018-06-24T13:06:55Z</time>
      </trkpt>
      <trkpt lat="40.246933" lon="-4.904583">
        <ele>1117.0</ele>
        <time>2018-06-24T13:06:56Z</time>
      </trkpt>
      <trkpt lat="40.246950" lon="-4.904450">
        <ele>1117.0</ele>
        <time>2018-06-24T13:06:57Z</time>
      </trkpt>
      <trkpt lat="40.246950" lon="-4.904333">
        <ele>1118.0</ele>
        <time>2018-06-24T13:06:58Z</time>
      </trkpt>
      <trkpt lat="40.246967" lon="-4.904217">
        <ele>1118.0</ele>
        <time>2018-06-24T13:06:59Z</time>
      </trkpt>
      <trkpt lat="40.246967" lon="-4.904100">
        <ele>1118.0</ele>
        <time>2018-06-24T13:07:00Z</time>
      </trkpt>
      <trkpt lat="40.246967" lon="-4.903967">
        <ele>1118.0</ele>
        <time>2018-06-24T13:07:01Z</time>
      </trkpt>
      <trkpt lat="40.246950" lon="-4.903850">
        <ele>1118.0</ele>
        <time>2018-06-24T13:07:02Z</time>
      </trkpt>
      <trkpt lat="40.246917" lon="-4.903733">
        <ele>1118.0</ele>
        <time>2018-06-24T13:07:03Z</time>
      </trkpt>
      <trkpt lat="40.246850" lon="-4.903633">
        <ele>1119.0</ele>
        <time>2018-06-24T13:07:04Z</time>
      </trkpt>
      <trkpt lat="40.246783" lon="-4.903583">
        <ele>1121.0</ele>
        <time>2018-06-24T13:07:05Z</time>
      </trkpt>
      <trkpt lat="40.246733" lon="-4.903533">
        <ele>1124.0</ele>
        <time>2018-06-24T13:07:06Z</time>
      </trkpt>
      <trkpt lat="40.246700" lon="-4.903500">
        <ele>1125.0</ele>
        <time>2018-06-24T13:07:07Z</time>
      </trkpt>
      <trkpt lat="40.246667" lon="-4.903483">
        <ele>1125.0</ele>
        <time>2018-06-24T13:07:08Z</time>
      </trkpt>
      <trkpt lat="40.246617" lon="-4.903467">
        <ele>1123.0</ele>
        <time>2018-06-24T13:07:09Z</time>
      </trkpt>
      <trkpt lat="40.246550" lon="-4.903467">
        <ele>1122.0</ele>
        <time>2018-06-24T13:07:10Z</time>
      </trkpt>
      <trkpt lat="40.246433" lon="-4.903517">
        <ele>1121.0</ele>
        <time>2018-06-24T13:07:11Z</time>
      </trkpt>
      <trkpt lat="40.246383" lon="-4.903567">
        <ele>1121.0</ele>
        <time>2018-06-24T13:07:12Z</time>
      </trkpt>
      <trkpt lat="40.246317" lon="-4.903633">
        <ele>1122.0</ele>
        <time>2018-06-24T13:07:13Z</time>
      </trkpt>
      <trkpt lat="40.246267" lon="-4.903717">
        <ele>1122.0</ele>
        <time>2018-06-24T13:07:14Z</time>
      </trkpt>
      <trkpt lat="40.246233" lon="-4.903817">
        <ele>1123.0</ele>
        <time>2018-06-24T13:07:15Z</time>
      </trkpt>
      <trkpt lat="40.246183" lon="-4.903933">
        <ele>1123.0</ele>
        <time>2018-06-24T13:07:16Z</time>
      </trkpt>
      <trkpt lat="40.246133" lon="-4.904050">
        <ele>1123.0</ele>
        <time>2018-06-24T13:07:17Z</time>
      </trkpt>
      <trkpt lat="40.246133" lon="-4.904183">
        <ele>1123.0</ele>
        <time>2018-06-24T13:07:18Z</time>
      </trkpt>
      <trkpt lat="40.246150" lon="-4.904317">
        <ele>1123.0</ele>
        <time>2018-06-24T13:07:19Z</time>
      </trkpt>
      <trkpt lat="40.246200" lon="-4.904433">
        <ele>1123.0</ele>
        <time>2018-06-24T13:07:20Z</time>
      </trkpt>
      <trkpt lat="40.246267" lon="-4.904517">
        <ele>1124.0</ele>
        <time>2018-06-24T13:07:21Z</time>
      </trkpt>
      <trkpt lat="40.246333" lon="-4.904583">
        <ele>1123.0</ele>
        <time>2018-06-24T13:07:22Z</time>
      </trkpt>
      <trkpt lat="40.246433" lon="-4.904633">
        <ele>1124.0</ele>
        <time>2018-06-24T13:07:23Z</time>
      </trkpt>
      <trkpt lat="40.246533" lon="-4.904650">
        <ele>1123.0</ele>
        <time>2018-06-24T13:07:24Z</time>
      </trkpt>
      <trkpt lat="40.246667" lon="-4.904650">
        <ele>1122.0</ele>
        <time>2018-06-24T13:07:25Z</time>
      </trkpt>
      <trkpt lat="40.246800" lon="-4.904600">
        <ele>1122.0</ele>
        <time>2018-06-24T13:07:26Z</time>
      </trkpt>
      <trkpt lat="40.246917" lon="-4.904550">
        <ele>1122.0</ele>
        <time>2018-06-24T13:07:27Z</time>
      </trkpt>
      <trkpt lat="40.247000" lon="-4.904467">
        <ele>1124.0</ele>
        <time>2018-06-24T13:07:28Z</time>
      </trkpt>
      <trkpt lat="40.247083" lon="-4.904367">
        <ele>1126.0</ele>
        <time>2018-06-24T13:07:29Z</time>
      </trkpt>
      <trkpt lat="40.247150" lon="-4.904267">
        <ele>1128.0</ele>
        <time>2018-06-24T13:07:30Z</time>
      </trkpt>
      <trkpt lat="40.247183" lon="-4.904133">
        <ele>1128.0</ele>
        <time>2018-06-24T13:07:31Z</time>
      </trkpt>
      <trkpt lat="40.247217" lon="-4.904017">
        <ele>1128.0</ele>
        <time>2018-06-24T13:07:32Z</time>
      </trkpt>
      <trkpt lat="40.247233" lon="-4.903883">
        <ele>1129.0</ele>
        <time>2018-06-24T13:07:33Z</time>
      </trkpt>
      <trkpt lat="40.247233" lon="-4.903750">
        <ele>1130.0</ele>
        <time>2018-06-24T13:07:34Z</time>
      </trkpt>
      <trkpt lat="40.247217" lon="-4.903633">
        <ele>1130.0</ele>
        <time>2018-06-24T13:07:35Z</time>
      </trkpt>
      <trkpt lat="40.247167" lon="-4.903517">
        <ele>1131.0</ele>
        <time>2018-06-24T13:07:36Z</time>
      </trkpt>
      <trkpt lat="40.247150" lon="-4.903400">
        <ele>1132.0</ele>
        <time>2018-06-24T13:07:37Z</time>
      </trkpt>
      <trkpt lat="40.247117" lon="-4.903300">
        <ele>1133.0</ele>
        <time>2018-06-24T13:07:38Z</time>
      </trkpt>
      <trkpt lat="40.247083" lon="-4.903217">
        <ele>1134.0</ele>
        <time>2018-06-24T13:07:39Z</time>
      </trkpt>
      <trkpt lat="40.247050" lon="-4.903117">
        <ele>1134.0</ele>
        <time>2018-06-24T13:07:40Z</time>
      </trkpt>
      <trkpt lat="40.247017" lon="-4.903017">
        <ele>1134.0</ele>
        <time>2018-06-24T13:07:41Z</time>
      </trkpt>
      <trkpt lat="40.246983" lon="-4.902917">
        <ele>1135.0</ele>
        <time>2018-06-24T13:07:42Z</time>
      </trkpt>
      <trkpt lat="40.246950" lon="-4.902850">
        <ele>1135.0</ele>
        <time>2018-06-24T13:07:43Z</time>
      </trkpt>
      <trkpt lat="40.246900" lon="-4.902800">
        <ele>1135.0</ele>
        <time>2018-06-24T13:07:44Z</time>
      </trkpt>
      <trkpt lat="40.246833" lon="-4.902767">
        <ele>1135.0</ele>
        <time>2018-06-24T13:07:45Z</time>
      </trkpt>
      <trkpt lat="40.246767" lon="-4.902733">
        <ele>1135.0</ele>
        <time>2018-06-24T13:07:46Z</time>
      </trkpt>
      <trkpt lat="40.246700" lon="-4.902733">
        <ele>1135.0</ele>
        <time>2018-06-24T13:07:47Z</time>
      </trkpt>
      <trkpt lat="40.246650" lon="-4.902733">
        <ele>1135.0</ele>
        <time>2018-06-24T13:07:48Z</time>
      </trkpt>
      <trkpt lat="40.246583" lon="-4.902783">
        <ele>1133.0</ele>
        <time>2018-06-24T13:07:49Z</time>
      </trkpt>
      <trkpt lat="40.246533" lon="-4.902867">
        <ele>1131.0</ele>
        <time>2018-06-24T13:07:50Z</time>
      </trkpt>
      <trkpt lat="40.246483" lon="-4.903000">
        <ele>1129.0</ele>
        <time>2018-06-24T13:07:51Z</time>
      </trkpt>
      <trkpt lat="40.246467" lon="-4.903100">
        <ele>1129.0</ele>
        <time>2018-06-24T13:07:52Z</time>
      </trkpt>
      <trkpt lat="40.246467" lon="-4.903250">
        <ele>1130.0</ele>
        <time>2018-06-24T13:07:53Z</time>
      </trkpt>
      <trkpt lat="40.246483" lon="-4.903367">
        <ele>1131.0</ele>
        <time>2018-06-24T13:07:54Z</time>
      </trkpt>
      <trkpt lat="40.246517" lon="-4.903500">
        <ele>1131.0</ele>
        <time>2018-06-24T13:07:55Z</time>
      </trkpt>
      <trkpt lat="40.246567" lon="-4.903583">
        <ele>1130.0</ele>
        <time>2018-06-24T13:07:56Z</time>
      </trkpt>
      <trkpt lat="40.246650" lon="-4.903633">
        <ele>1128.0</ele>
        <time>2018-06-24T13:07:57Z</time>
      </trkpt>
      <trkpt lat="40.246750" lon="-4.903683">
        <ele>1127.0</ele>
        <time>2018-06-24T13:07:58Z</time>
      </trkpt>
      <trkpt lat="40.246867" lon="-4.903683">
        <ele>1127.0</ele>
        <time>2018-06-24T13:07:59Z</time>
      </trkpt>
      <trkpt lat="40.246967" lon="-4.903633">
        <ele>1130.0</ele>
        <time>2018-06-24T13:08:00Z</time>
      </trkpt>
      <trkpt lat="40.247033" lon="-4.903550">
        <ele>1131.0</ele>
        <time>2018-06-24T13:08:01Z</time>
      </trkpt>
      <trkpt lat="40.247067" lon="-4.903433">
        <ele>1131.0</ele>
        <time>2018-06-24T13:08:02Z</time>
      </trkpt>
      <trkpt lat="40.247050" lon="-4.903300">
        <ele>1131.0</ele>
        <time>2018-06-24T13:08:03Z</time>
      </trkpt>
      <trkpt lat="40.247017" lon="-4.903200">
        <ele>1130.0</ele>
        <time>2018-06-24T13:08:04Z</time>
      </trkpt>
      <trkpt lat="40.246967" lon="-4.903117">
        <ele>1131.0</ele>
        <time>2018-06-24T13:08:05Z</time>
      </trkpt>
      <trkpt lat="40.246917" lon="-4.903067">
        <ele>1132.0</ele>
        <time>2018-06-24T13:08:06Z</time>
      </trkpt>
      <trkpt lat="40.246850" lon="-4.903050">
        <ele>1133.0</ele>
        <time>2018-06-24T13:08:07Z</time>
      </trkpt>
      <trkpt lat="40.246767" lon="-4.903067">
        <ele>1133.0</ele>
        <time>2018-06-24T13:08:08Z</time>
      </trkpt>
      <trkpt lat="40.246700" lon="-4.903100">
        <ele>1133.0</ele>
        <time>2018-06-24T13:08:09Z</time>
      </trkpt>
      <trkpt lat="40.246633" lon="-4.903150">
        <ele>1134.0</ele>
        <time>2018-06-24T13:08:10Z</time>
      </trkpt>
      <trkpt lat="40.246567" lon="-4.903217">
        <ele>1134.0</ele>
        <time>2018-06-24T13:08:11Z</time>
      </trkpt>
      <trkpt lat="40.246517" lon="-4.903317">
        <ele>1135.0</ele>
        <time>2018-06-24T13:08:12Z</time>
      </trkpt>
      <trkpt lat="40.246467" lon="-4.903400">
        <ele>1135.0</ele>
        <time>2018-06-24T13:08:13Z</time>
      </trkpt>
      <trkpt lat="40.246450" lon="-4.903500">
        <ele>1135.0</ele>
        <time>2018-06-24T13:08:14Z</time>
      </trkpt>
      <trkpt lat="40.246417" lon="-4.903617">
        <ele>1134.0</ele>
        <time>2018-06-24T13:08:15Z</time>
      </trkpt>
      <trkpt lat="40.246433" lon="-4.903750">
        <ele>1135.0</ele>
        <time>2018-06-24T13:08:16Z</time>
      </trkpt>
      <trkpt lat="40.246450" lon="-4.903883">
        <ele>1136.0</ele>
        <time>2018-06-24T13:08:17Z</time>
      </trkpt>
      <trkpt lat="40.246500" lon="-4.904000">
        <ele>1136.0</ele>
        <time>2018-06-24T13:08:18Z</time>
      </trkpt>
      <trkpt lat="40.246567" lon="-4.904100">
        <ele>1137.0</ele>
        <time>2018-06-24T13:08:19Z</time>
      </trkpt>
      <trkpt lat="40.246633" lon="-4.904200">
        <ele>1138.0</ele>
        <time>2018-06-24T13:08:20Z</time>
      </trkpt>
      <trkpt lat="40.246700" lon="-4.904283">
        <ele>1139.0</ele>
        <time>2018-06-24T13:08:21Z</time>
      </trkpt>
      <trkpt lat="40.246783" lon="-4.904333">
        <ele>1139.0</ele>
        <time>2018-06-24T13:08:22Z</time>
      </trkpt>
      <trkpt lat="40.246883" lon="-4.904367">
        <ele>1138.0</ele>
        <time>2018-06-24T13:08:23Z</time>
      </trkpt>
      <trkpt lat="40.247017" lon="-4.904350">
        <ele>1137.0</ele>
        <time>2018-06-24T13:08:24Z</time>
      </trkpt>
      <trkpt lat="40.247117" lon="-4.904300">
        <ele>1136.0</ele>
        <time>2018-06-24T13:08:25Z</time>
      </trkpt>
      <trkpt lat="40.247200" lon="-4.904183">
        <ele>1136.0</ele>
        <time>2018-06-24T13:08:26Z</time>
      </trkpt>
      <trkpt lat="40.247250" lon="-4.904067">
        <ele>1135.0</ele>
        <time>2018-06-24T13:08:27Z</time>
      </trkpt>
      <trkpt lat="40.247267" lon="-4.903933">
        <ele>1136.0</ele>
        <time>2018-06-24T13:08:28Z</time>
      </trkpt>
      <trkpt lat="40.247283" lon="-4.903817">
        <ele>1137.0</ele>
        <time>2018-06-24T13:08:29Z</time>
      </trkpt>
      <trkpt lat="40.247283" lon="-4.903700">
        <ele>1138.0</ele>
        <time>2018-06-24T13:08:30Z</time>
      </trkpt>
      <trkpt lat="40.247267" lon="-4.903600">
        <ele>1138.0</ele>
        <time>2018-06-24T13:08:31Z</time>
      </trkpt>
      <trkpt lat="40.247233" lon="-4.903517">
        <ele>1138.0</ele>
        <time>2018-06-24T13:08:32Z</time>
      </trkpt>
      <trkpt lat="40.247183" lon="-4.903417">
        <ele>1138.0</ele>
        <time>2018-06-24T13:08:33Z</time>
      </trkpt>
      <trkpt lat="40.247133" lon="-4.903333">
        <ele>1139.0</ele>
        <time>2018-06-24T13:08:34Z</time>
      </trkpt>
      <trkpt lat="40.247083" lon="-4.903250">
        <ele>1139.0</ele>
        <time>2018-06-24T13:08:35Z</time>
      </trkpt>
      <trkpt lat="40.247033" lon="-4.903167">
        <ele>1141.0</ele>
        <time>2018-06-24T13:08:36Z</time>
      </trkpt>
      <trkpt lat="40.246983" lon="-4.903100">
        <ele>1141.0</ele>
        <time>2018-06-24T13:08:37Z</time>
      </trkpt>
      <trkpt lat="40.246933" lon="-4.903067">
        <ele>1141.0</ele>
        <time>2018-06-24T13:08:38Z</time>
      </trkpt>
      <trkpt lat="40.246867" lon="-4.903033">
        <ele>1141.0</ele>
        <time>2018-06-24T13:08:39Z</time>
      </trkpt>
      <trkpt lat="40.246817" lon="-4.903017">
        <ele>1140.0</ele>
        <time>2018-06-24T13:08:40Z</time>
      </trkpt>
      <trkpt lat="40.246733" lon="-4.903000">
        <ele>1140.0</ele>
        <time>2018-06-24T13:08:41Z</time>
      </trkpt>
      <trkpt lat="40.246667" lon="-4.903000">
        <ele>1141.0</ele>
        <time>2018-06-24T13:08:42Z</time>
      </trkpt>
      <trkpt lat="40.246600" lon="-4.903000">
        <ele>1141.0</ele>
        <time>2018-06-24T13:08:43Z</time>
      </trkpt>
      <trkpt lat="40.246533" lon="-4.902983">
        <ele>1142.0</ele>
        <time>2018-06-24T13:08:44Z</time>
      </trkpt>
      <trkpt lat="40.246467" lon="-4.902983">
        <ele>1143.0</ele>
        <time>2018-06-24T13:08:45Z</time>
      </trkpt>
      <trkpt lat="40.246383" lon="-4.902967">
        <ele>1143.0</ele>
        <time>2018-06-24T13:08:46Z</time>
      </trkpt>
      <trkpt lat="40.246317" lon="-4.902967">
        <ele>1144.0</ele>
        <time>2018-06-24T13:08:47Z</time>
      </trkpt>
      <trkpt lat="40.246267" lon="-4.903000">
        <ele>1143.0</ele>
        <time>2018-06-24T13:08:48Z</time>
      </trkpt>
      <trkpt lat="40.246217" lon="-4.903033">
        <ele>1141.0</ele>
        <time>2018-06-24T13:08:49Z</time>
      </trkpt>
      <trkpt lat="40.246167" lon="-4.903117">
        <ele>1138.0</ele>
        <time>2018-06-24T13:08:50Z</time>
      </trkpt>
      <trkpt lat="40.246117" lon="-4.903233">
        <ele>1137.0</ele>
        <time>2018-06-24T13:08:51Z</time>
      </trkpt>
      <trkpt lat="40.246100" lon="-4.903367">
        <ele>1135.0</ele>
        <time>2018-06-24T13:08:52Z</time>
      </trkpt>
      <trkpt lat="40.246100" lon="-4.903500">
        <ele>1134.0</ele>
        <time>2018-06-24T13:08:53Z</time>
      </trkpt>
      <trkpt lat="40.246117" lon="-4.903633">
        <ele>1133.0</ele>
        <time>2018-06-24T13:08:54Z</time>
      </trkpt>
      <trkpt lat="40.246133" lon="-4.903767">
        <ele>1132.0</ele>
        <time>2018-06-24T13:08:55Z</time>
      </trkpt>
      <trkpt lat="40.246167" lon="-4.903867">
        <ele>1132.0</ele>
        <time>2018-06-24T13:08:56Z</time>
      </trkpt>
      <trkpt lat="40.246233" lon="-4.903983">
        <ele>1130.0</ele>
        <time>2018-06-24T13:08:57Z</time>
      </trkpt>
      <trkpt lat="40.246300" lon="-4.904050">
        <ele>1128.0</ele>
        <time>2018-06-24T13:08:58Z</time>
      </trkpt>
      <trkpt lat="40.246383" lon="-4.904117">
        <ele>1126.0</ele>
        <time>2018-06-24T13:08:59Z</time>
      </trkpt>
      <trkpt lat="40.246483" lon="-4.904183">
        <ele>1125.0</ele>
        <time>2018-06-24T13:09:00Z</time>
      </trkpt>
      <trkpt lat="40.246617" lon="-4.904217">
        <ele>1125.0</ele>
        <time>2018-06-24T13:09:01Z</time>
      </trkpt>
      <trkpt lat="40.246733" lon="-4.904200">
        <ele>1124.0</ele>
        <time>2018-06-24T13:09:02Z</time>
      </trkpt>
      <trkpt lat="40.246833" lon="-4.904133">
        <ele>1123.0</ele>
        <time>2018-06-24T13:09:03Z</time>
      </trkpt>
      <trkpt lat="40.246883" lon="-4.904033">
        <ele>1126.0</ele>
        <time>2018-06-24T13:09:04Z</time>
      </trkpt>
      <trkpt lat="40.246917" lon="-4.903900">
        <ele>1128.0</ele>
        <time>2018-06-24T13:09:05Z</time>
      </trkpt>
      <trkpt lat="40.246933" lon="-4.903750">
        <ele>1129.0</ele>
        <time>2018-06-24T13:09:06Z</time>
      </trkpt>
      <trkpt lat="40.246917" lon="-4.903617">
        <ele>1131.0</ele>
        <time>2018-06-24T13:09:07Z</time>
      </trkpt>
      <trkpt lat="40.246900" lon="-4.903500">
        <ele>1133.0</ele>
        <time>2018-06-24T13:09:08Z</time>
      </trkpt>
      <trkpt lat="40.246883" lon="-4.903367">
        <ele>1135.0</ele>
        <time>2018-06-24T13:09:09Z</time>
      </trkpt>
      <trkpt lat="40.246850" lon="-4.903233">
        <ele>1136.0</ele>
        <time>2018-06-24T13:09:10Z</time>
      </trkpt>
      <trkpt lat="40.246800" lon="-4.903133">
        <ele>1138.0</ele>
        <time>2018-06-24T13:09:11Z</time>
      </trkpt>
      <trkpt lat="40.246750" lon="-4.903050">
        <ele>1141.0</ele>
        <time>2018-06-24T13:09:12Z</time>
      </trkpt>
      <trkpt lat="40.246717" lon="-4.902967">
        <ele>1143.0</ele>
        <time>2018-06-24T13:09:13Z</time>
      </trkpt>
      <trkpt lat="40.246717" lon="-4.902900">
        <ele>1142.0</ele>
        <time>2018-06-24T13:09:14Z</time>
      </trkpt>
      <trkpt lat="40.246700" lon="-4.902800">
        <ele>1141.0</ele>
        <time>2018-06-24T13:09:15Z</time>
      </trkpt>
      <trkpt lat="40.246683" lon="-4.902700">
        <ele>1141.0</ele>
        <time>2018-06-24T13:09:16Z</time>
      </trkpt>
      <trkpt lat="40.246650" lon="-4.902600">
        <ele>1140.0</ele>
        <time>2018-06-24T13:09:17Z</time>
      </trkpt>
      <trkpt lat="40.246600" lon="-4.902500">
        <ele>1139.0</ele>
        <time>2018-06-24T13:09:18Z</time>
      </trkpt>
      <trkpt lat="40.246550" lon="-4.902400">
        <ele>1139.0</ele>
        <time>2018-06-24T13:09:19Z</time>
      </trkpt>
      <trkpt lat="40.246517" lon="-4.902300">
        <ele>1140.0</ele>
        <time>2018-06-24T13:09:20Z</time>
      </trkpt>
      <trkpt lat="40.246483" lon="-4.902217">
        <ele>1140.0</ele>
        <time>2018-06-24T13:09:21Z</time>
      </trkpt>
      <trkpt lat="40.246433" lon="-4.902150">
        <ele>1139.0</ele>
        <time>2018-06-24T13:09:22Z</time>
      </trkpt>
      <trkpt lat="40.246367" lon="-4.902133">
        <ele>1137.0</ele>
        <time>2018-06-24T13:09:23Z</time>
      </trkpt>
      <trkpt lat="40.246283" lon="-4.902150">
        <ele>1134.0</ele>
        <time>2018-06-24T13:09:24Z</time>
      </trkpt>
      <trkpt lat="40.246200" lon="-4.902217">
        <ele>1133.0</ele>
        <time>2018-06-24T13:09:25Z</time>
      </trkpt>
      <trkpt lat="40.246133" lon="-4.902300">
        <ele>1133.0</ele>
        <time>2018-06-24T13:09:26Z</time>
      </trkpt>
      <trkpt lat="40.246083" lon="-4.902417">
        <ele>1133.0</ele>
        <time>2018-06-24T13:09:27Z</time>
      </trkpt>
      <trkpt lat="40.246033" lon="-4.902550">
        <ele>1133.0</ele>
        <time>2018-06-24T13:09:28Z</time>
      </trkpt>
      <trkpt lat="40.246033" lon="-4.902633">
        <ele>1135.0</ele>
        <time>2018-06-24T13:09:29Z</time>
      </trkpt>
      <trkpt lat="40.246000" lon="-4.902750">
        <ele>1135.0</ele>
        <time>2018-06-24T13:09:30Z</time>
      </trkpt>
      <trkpt lat="40.246000" lon="-4.902850">
        <ele>1136.0</ele>
        <time>2018-06-24T13:09:31Z</time>
      </trkpt>
      <trkpt lat="40.246000" lon="-4.902967">
        <ele>1136.0</ele>
        <time>2018-06-24T13:09:32Z</time>
      </trkpt>
      <trkpt lat="40.246017" lon="-4.903100">
        <ele>1136.0</ele>
        <time>2018-06-24T13:09:33Z</time>
      </trkpt>
      <trkpt lat="40.246050" lon="-4.903233">
        <ele>1136.0</ele>
        <time>2018-06-24T13:09:34Z</time>
      </trkpt>
      <trkpt lat="40.246117" lon="-4.903350">
        <ele>1136.0</ele>
        <time>2018-06-24T13:09:35Z</time>
      </trkpt>
      <trkpt lat="40.246200" lon="-4.903433">
        <ele>1138.0</ele>
        <time>2018-06-24T13:09:36Z</time>
      </trkpt>
      <trkpt lat="40.246300" lon="-4.903483">
        <ele>1136.0</ele>
        <time>2018-06-24T13:09:37Z</time>
      </trkpt>
      <trkpt lat="40.246417" lon="-4.903533">
        <ele>1136.0</ele>
        <time>2018-06-24T13:09:38Z</time>
      </trkpt>
      <trkpt lat="40.246550" lon="-4.903533">
        <ele>1137.0</ele>
        <time>2018-06-24T13:09:39Z</time>
      </trkpt>
      <trkpt lat="40.246667" lon="-4.903483">
        <ele>1138.0</ele>
        <time>2018-06-24T13:09:40Z</time>
      </trkpt>
      <trkpt lat="40.246750" lon="-4.903417">
        <ele>1140.0</ele>
        <time>2018-06-24T13:09:41Z</time>
      </trkpt>
      <trkpt lat="40.246833" lon="-4.903333">
        <ele>1140.0</ele>
        <time>2018-06-24T13:09:42Z</time>
      </trkpt>
      <trkpt lat="40.246883" lon="-4.903233">
        <ele>1139.0</ele>
        <time>2018-06-24T13:09:43Z</time>
      </trkpt>
      <trkpt lat="40.246933" lon="-4.903100">
        <ele>1139.0</ele>
        <time>2018-06-24T13:09:44Z</time>
      </trkpt>
      <trkpt lat="40.246967" lon="-4.902983">
        <ele>1140.0</ele>
        <time>2018-06-24T13:09:45Z</time>
      </trkpt>
      <trkpt lat="40.246967" lon="-4.902850">
        <ele>1141.0</ele>
        <time>2018-06-24T13:09:46Z</time>
      </trkpt>
      <trkpt lat="40.246983" lon="-4.902717">
        <ele>1143.0</ele>
        <time>2018-06-24T13:09:47Z</time>
      </trkpt>
      <trkpt lat="40.246983" lon="-4.902600">
        <ele>1144.0</ele>
        <time>2018-06-24T13:09:48Z</time>
      </trkpt>
      <trkpt lat="40.246950" lon="-4.902483">
        <ele>1146.0</ele>
        <time>2018-06-24T13:09:49Z</time>
      </trkpt>
      <trkpt lat="40.246917" lon="-4.902383">
        <ele>1147.0</ele>
        <time>2018-06-24T13:09:50Z</time>
      </trkpt>
      <trkpt lat="40.246850" lon="-4.902317">
        <ele>1147.0</ele>
        <time>2018-06-24T13:09:51Z</time>
      </trkpt>
      <trkpt lat="40.246767" lon="-4.902283">
        <ele>1148.0</ele>
        <time>2018-06-24T13:09:52Z</time>
      </trkpt>
      <trkpt lat="40.246700" lon="-4.902267">
        <ele>1149.0</ele>
        <time>2018-06-24T13:09:53Z</time>
      </trkpt>
      <trkpt lat="40.246633" lon="-4.902283">
        <ele>1149.0</ele>
        <time>2018-06-24T13:09:54Z</time>
      </trkpt>
      <trkpt lat="40.246567" lon="-4.902317">
        <ele>1148.0</ele>
        <time>2018-06-24T13:09:55Z</time>
      </trkpt>
      <trkpt lat="40.246483" lon="-4.902367">
        <ele>1147.0</ele>
        <time>2018-06-24T13:09:56Z</time>
      </trkpt>
      <trkpt lat="40.246417" lon="-4.902433">
        <ele>1147.0</ele>
        <time>2018-06-24T13:09:57Z</time>
      </trkpt>
      <trkpt lat="40.246367" lon="-4.902533">
        <ele>1147.0</ele>
        <time>2018-06-24T13:09:58Z</time>
      </trkpt>
      <trkpt lat="40.246300" lon="-4.902617">
        <ele>1147.0</ele>
        <time>2018-06-24T13:09:59Z</time>
      </trkpt>
      <trkpt lat="40.246267" lon="-4.902717">
        <ele>1148.0</ele>
        <time>2018-06-24T13:10:00Z</time>
      </trkpt>
      <trkpt lat="40.246250" lon="-4.902817">
        <ele>1148.0</ele>
        <time>2018-06-24T13:10:01Z</time>
      </trkpt>
      <trkpt lat="40.246217" lon="-4.902950">
        <ele>1148.0</ele>
        <time>2018-06-24T13:10:02Z</time>
      </trkpt>
      <trkpt lat="40.246233" lon="-4.903083">
        <ele>1148.0</ele>
        <time>2018-06-24T13:10:03Z</time>
      </trkpt>
      <trkpt lat="40.246267" lon="-4.903217">
        <ele>1147.0</ele>
        <time>2018-06-24T13:10:04Z</time>
      </trkpt>
      <trkpt lat="40.246317" lon="-4.903333">
        <ele>1147.0</ele>
        <time>2018-06-24T13:10:05Z</time>
      </trkpt>
      <trkpt lat="40.246383" lon="-4.903433">
        <ele>1148.0</ele>
        <time>2018-06-24T13:10:06Z</time>
      </trkpt>
      <trkpt lat="40.246450" lon="-4.903517">
        <ele>1149.0</ele>
        <time>2018-06-24T13:10:07Z</time>
      </trkpt>
      <trkpt lat="40.246533" lon="-4.903567">
        <ele>1149.0</ele>
        <time>2018-06-24T13:10:08Z</time>
      </trkpt>
      <trkpt lat="40.246650" lon="-4.903567">
        <ele>1148.0</ele>
        <time>2018-06-24T13:10:09Z</time>
      </trkpt>
      <trkpt lat="40.246783" lon="-4.903533">
        <ele>1148.0</ele>
        <time>2018-06-24T13:10:10Z</time>
      </trkpt>
      <trkpt lat="40.246900" lon="-4.903467">
        <ele>1148.0</ele>
        <time>2018-06-24T13:10:11Z</time>
      </trkpt>
      <trkpt lat="40.246983" lon="-4.903367">
        <ele>1150.0</ele>
        <time>2018-06-24T13:10:12Z</time>
      </trkpt>
      <trkpt lat="40.247050" lon="-4.903267">
        <ele>1151.0</ele>
        <time>2018-06-24T13:10:13Z</time>
      </trkpt>
      <trkpt lat="40.247083" lon="-4.903150">
        <ele>1152.0</ele>
        <time>2018-06-24T13:10:14Z</time>
      </trkpt>
      <trkpt lat="40.247083" lon="-4.903033">
        <ele>1153.0</ele>
        <time>2018-06-24T13:10:15Z</time>
      </trkpt>
      <trkpt lat="40.247067" lon="-4.902933">
        <ele>1154.0</ele>
        <time>2018-06-24T13:10:16Z</time>
      </trkpt>
      <trkpt lat="40.247050" lon="-4.902833">
        <ele>1154.0</ele>
        <time>2018-06-24T13:10:17Z</time>
      </trkpt>
      <trkpt lat="40.246983" lon="-4.902750">
        <ele>1156.0</ele>
        <time>2018-06-24T13:10:18Z</time>
      </trkpt>
      <trkpt lat="40.246917" lon="-4.902700">
        <ele>1157.0</ele>
        <time>2018-06-24T13:10:19Z</time>
      </trkpt>
      <trkpt lat="40.246833" lon="-4.902650">
        <ele>1159.0</ele>
        <time>2018-06-24T13:10:20Z</time>
      </trkpt>
      <trkpt lat="40.246767" lon="-4.902650">
        <ele>1161.0</ele>
        <time>2018-06-24T13:10:21Z</time>
      </trkpt>
      <trkpt lat="40.246683" lon="-4.902667">
        <ele>1163.0</ele>
        <time>2018-06-24T13:10:22Z</time>
      </trkpt>
      <trkpt lat="40.246617" lon="-4.902717">
        <ele>1165.0</ele>
        <time>2018-06-24T13:10:23Z</time>
      </trkpt>
      <trkpt lat="40.246567" lon="-4.902783">
        <ele>1167.0</ele>
        <time>2018-06-24T13:10:24Z</time>
      </trkpt>
      <trkpt lat="40.246517" lon="-4.902883">
        <ele>1169.0</ele>
        <time>2018-06-24T13:10:25Z</time>
      </trkpt>
      <trkpt lat="40.246483" lon="-4.903000">
        <ele>1170.0</ele>
        <time>2018-06-24T13:10:26Z</time>
      </trkpt>
      <trkpt lat="40.246467" lon="-4.903117">
        <ele>1171.0</ele>
        <time>2018-06-24T13:10:27Z</time>
      </trkpt>
      <trkpt lat="40.246500" lon="-4.903250">
        <ele>1171.0</ele>
        <time>2018-06-24T13:10:28Z</time>
      </trkpt>
      <trkpt lat="40.246567" lon="-4.903367">
        <ele>1170.0</ele>
        <time>2018-06-24T13:10:29Z</time>
      </trkpt>
      <trkpt lat="40.246667" lon="-4.903450">
        <ele>1169.0</ele>
        <time>2018-06-24T13:10:30Z</time>
      </trkpt>
      <trkpt lat="40.246783" lon="-4.903500">
        <ele>1168.0</ele>
        <time>2018-06-24T13:10:31Z</time>
      </trkpt>
      <trkpt lat="40.246917" lon="-4.903533">
        <ele>1169.0</ele>
        <time>2018-06-24T13:10:32Z</time>
      </trkpt>
      <trkpt lat="40.247050" lon="-4.903517">
        <ele>1171.0</ele>
        <time>2018-06-24T13:10:33Z</time>
      </trkpt>
      <trkpt lat="40.247167" lon="-4.903483">
        <ele>1172.0</ele>
        <time>2018-06-24T13:10:34Z</time>
      </trkpt>
      <trkpt lat="40.247267" lon="-4.903417">
        <ele>1173.0</ele>
        <time>2018-06-24T13:10:35Z</time>
      </trkpt>
      <trkpt lat="40.247350" lon="-4.903317">
        <ele>1173.0</ele>
        <time>2018-06-24T13:10:36Z</time>
      </trkpt>
      <trkpt lat="40.247433" lon="-4.903200">
        <ele>1173.0</ele>
        <time>2018-06-24T13:10:37Z</time>
      </trkpt>
      <trkpt lat="40.247500" lon="-4.903083">
        <ele>1175.0</ele>
        <time>2018-06-24T13:10:38Z</time>
      </trkpt>
      <trkpt lat="40.247550" lon="-4.902950">
        <ele>1177.0</ele>
        <time>2018-06-24T13:10:39Z</time>
      </trkpt>
      <trkpt lat="40.247583" lon="-4.902833">
        <ele>1178.0</ele>
        <time>2018-06-24T13:10:40Z</time>
      </trkpt>
      <trkpt lat="40.247583" lon="-4.902700">
        <ele>1179.0</ele>
        <time>2018-06-24T13:10:41Z</time>
      </trkpt>
      <trkpt lat="40.247567" lon="-4.902550">
        <ele>1180.0</ele>
        <time>2018-06-24T13:10:42Z</time>
      </trkpt>
      <trkpt lat="40.247533" lon="-4.902467">
        <ele>1181.0</ele>
        <time>2018-06-24T13:10:43Z</time>
      </trkpt>
      <trkpt lat="40.247517" lon="-4.902367">
        <ele>1183.0</ele>
        <time>2018-06-24T13:10:44Z</time>
      </trkpt>
      <trkpt lat="40.247483" lon="-4.902250">
        <ele>1185.0</ele>
        <time>2018-06-24T13:10:45Z</time>
      </trkpt>
      <trkpt lat="40.247450" lon="-4.902167">
        <ele>1186.0</ele>
        <time>2018-06-24T13:10:46Z</time>
      </trkpt>
      <trkpt lat="40.247400" lon="-4.902083">
        <ele>1186.0</ele>
        <time>2018-06-24T13:10:47Z</time>
      </trkpt>
      <trkpt lat="40.247333" lon="-4.902033">
        <ele>1187.0</ele>
        <time>2018-06-24T13:10:48Z</time>
      </trkpt>
      <trkpt lat="40.247250" lon="-4.902033">
        <ele>1186.0</ele>
        <time>2018-06-24T13:10:49Z</time>
      </trkpt>
      <trkpt lat="40.247183" lon="-4.902067">
        <ele>1186.0</ele>
        <time>2018-06-24T13:10:50Z</time>
      </trkpt>
      <trkpt lat="40.247133" lon="-4.902117">
        <ele>1185.0</ele>
        <time>2018-06-24T13:10:51Z</time>
      </trkpt>
      <trkpt lat="40.247067" lon="-4.902183">
        <ele>1185.0</ele>
        <time>2018-06-24T13:10:52Z</time>
      </trkpt>
      <trkpt lat="40.247017" lon="-4.902283">
        <ele>1185.0</ele>
        <time>2018-06-24T13:10:53Z</time>
      </trkpt>
      <trkpt lat="40.246983" lon="-4.902383">
        <ele>1185.0</ele>
        <time>2018-06-24T13:10:54Z</time>
      </trkpt>
      <trkpt lat="40.246967" lon="-4.902517">
        <ele>1185.0</ele>
        <time>2018-06-24T13:10:55Z</time>
      </trkpt>
      <trkpt lat="40.246967" lon="-4.902667">
        <ele>1185.0</ele>
        <time>2018-06-24T13:10:56Z</time>
      </trkpt>
      <trkpt lat="40.247000" lon="-4.902800">
        <ele>1185.0</ele>
        <time>2018-06-24T13:10:57Z</time>
      </trkpt>
      <trkpt lat="40.247017" lon="-4.902917">
        <ele>1188.0</ele>
        <time>2018-06-24T13:10:58Z</time>
      </trkpt>
      <trkpt lat="40.247050" lon="-4.903050">
        <ele>1189.0</ele>
        <time>2018-06-24T13:10:59Z</time>
      </trkpt>
      <trkpt lat="40.247083" lon="-4.903150">
        <ele>1190.0</ele>
        <time>2018-06-24T13:11:00Z</time>
      </trkpt>
      <trkpt lat="40.247150" lon="-4.903250">
        <ele>1190.0</ele>
        <time>2018-06-24T13:11:01Z</time>
      </trkpt>
      <trkpt lat="40.247233" lon="-4.903333">
        <ele>1190.0</ele>
        <time>2018-06-24T13:11:02Z</time>
      </trkpt>
      <trkpt lat="40.247333" lon="-4.903400">
        <ele>1191.0</ele>
        <time>2018-06-24T13:11:03Z</time>
      </trkpt>
      <trkpt lat="40.247433" lon="-4.903433">
        <ele>1193.0</ele>
        <time>2018-06-24T13:11:04Z</time>
      </trkpt>
      <trkpt lat="40.247550" lon="-4.903433">
        <ele>1195.0</ele>
        <time>2018-06-24T13:11:05Z</time>
      </trkpt>
      <trkpt lat="40.247667" lon="-4.903383">
        <ele>1195.0</ele>
        <time>2018-06-24T13:11:06Z</time>
      </trkpt>
      <trkpt lat="40.247767" lon="-4.903317">
        <ele>1196.0</ele>
        <time>2018-06-24T13:11:07Z</time>
      </trkpt>
      <trkpt lat="40.247833" lon="-4.903217">
        <ele>1196.0</ele>
        <time>2018-06-24T13:11:08Z</time>
      </trkpt>
      <trkpt lat="40.247867" lon="-4.903100">
        <ele>1197.0</ele>
        <time>2018-06-24T13:11:09Z</time>
      </trkpt>
      <trkpt lat="40.247867" lon="-4.902983">
        <ele>1199.0</ele>
        <time>2018-06-24T13:11:10Z</time>
      </trkpt>
      <trkpt lat="40.247817" lon="-4.902883">
        <ele>1200.0</ele>
        <time>2018-06-24T13:11:11Z</time>
      </trkpt>
      <trkpt lat="40.247750" lon="-4.902817">
        <ele>1201.0</ele>
        <time>2018-06-24T13:11:12Z</time>
      </trkpt>
      <trkpt lat="40.247683" lon="-4.902817">
        <ele>1203.0</ele>
        <time>2018-06-24T13:11:13Z</time>
      </trkpt>
      <trkpt lat="40.247617" lon="-4.902833">
        <ele>1205.0</ele>
        <time>2018-06-24T13:11:14Z</time>
      </trkpt>
      <trkpt lat="40.247567" lon="-4.902900">
        <ele>1206.0</ele>
        <time>2018-06-24T13:11:15Z</time>
      </trkpt>
      <trkpt lat="40.247550" lon="-4.902983">
        <ele>1207.0</ele>
        <time>2018-06-24T13:11:16Z</time>
      </trkpt>
      <trkpt lat="40.247533" lon="-4.903100">
        <ele>1208.0</ele>
        <time>2018-06-24T13:11:17Z</time>
      </trkpt>
      <trkpt lat="40.247533" lon="-4.903233">
        <ele>1209.0</ele>
        <time>2018-06-24T13:11:18Z</time>
      </trkpt>
      <trkpt lat="40.247567" lon="-4.903367">
        <ele>1210.0</ele>
        <time>2018-06-24T13:11:19Z</time>
      </trkpt>
      <trkpt lat="40.247667" lon="-4.903483">
        <ele>1212.0</ele>
        <time>2018-06-24T13:11:20Z</time>
      </trkpt>
      <trkpt lat="40.247767" lon="-4.903550">
        <ele>1213.0</ele>
        <time>2018-06-24T13:11:21Z</time>
      </trkpt>
      <trkpt lat="40.247917" lon="-4.903567">
        <ele>1214.0</ele>
        <time>2018-06-24T13:11:22Z</time>
      </trkpt>
      <trkpt lat="40.248033" lon="-4.903533">
        <ele>1215.0</ele>
        <time>2018-06-24T13:11:23Z</time>
      </trkpt>
      <trkpt lat="40.248133" lon="-4.903450">
        <ele>1214.0</ele>
        <time>2018-06-24T13:11:24Z</time>
      </trkpt>
      <trkpt lat="40.248233" lon="-4.903350">
        <ele>1214.0</ele>
        <time>2018-06-24T13:11:25Z</time>
      </trkpt>
      <trkpt lat="40.248300" lon="-4.903217">
        <ele>1215.0</ele>
        <time>2018-06-24T13:11:26Z</time>
      </trkpt>
      <trkpt lat="40.248333" lon="-4.903083">
        <ele>1215.0</ele>
        <time>2018-06-24T13:11:27Z</time>
      </trkpt>
      <trkpt lat="40.248317" lon="-4.902933">
        <ele>1214.0</ele>
        <time>2018-06-24T13:11:28Z</time>
      </trkpt>
      <trkpt lat="40.248283" lon="-4.902817">
        <ele>1213.0</ele>
        <time>2018-06-24T13:11:29Z</time>
      </trkpt>
      <trkpt lat="40.248217" lon="-4.902700">
        <ele>1214.0</ele>
        <time>2018-06-24T13:11:30Z</time>
      </trkpt>
      <trkpt lat="40.248167" lon="-4.902617">
        <ele>1217.0</ele>
        <time>2018-06-24T13:11:31Z</time>
      </trkpt>
      <trkpt lat="40.248100" lon="-4.902567">
        <ele>1221.0</ele>
        <time>2018-06-24T13:11:32Z</time>
      </trkpt>
      <trkpt lat="40.248050" lon="-4.902533">
        <ele>1224.0</ele>
        <time>2018-06-24T13:11:33Z</time>
      </trkpt>
      <trkpt lat="40.248000" lon="-4.902517">
        <ele>1226.0</ele>
        <time>2018-06-24T13:11:34Z</time>
      </trkpt>
      <trkpt lat="40.247933" lon="-4.902517">
        <ele>1228.0</ele>
        <time>2018-06-24T13:11:35Z</time>
      </trkpt>
      <trkpt lat="40.247850" lon="-4.902533">
        <ele>1228.0</ele>
        <time>2018-06-24T13:11:36Z</time>
      </trkpt>
      <trkpt lat="40.247783" lon="-4.902583">
        <ele>1229.0</ele>
        <time>2018-06-24T13:11:37Z</time>
      </trkpt>
      <trkpt lat="40.247717" lon="-4.902650">
        <ele>1230.0</ele>
        <time>2018-06-24T13:11:38Z</time>
      </trkpt>
      <trkpt lat="40.247667" lon="-4.902750">
        <ele>1231.0</ele>
        <time>2018-06-24T13:11:39Z</time>
      </trkpt>
      <trkpt lat="40.247650" lon="-4.902883">
        <ele>1232.0</ele>
        <time>2018-06-24T13:11:40Z</time>
      </trkpt>
      <trkpt lat="40.247667" lon="-4.903017">
        <ele>1233.0</ele>
        <time>2018-06-24T13:11:41Z</time>
      </trkpt>
      <trkpt lat="40.247667" lon="-4.903133">
        <ele>1235.0</ele>
        <time>2018-06-24T13:11:42Z</time>
      </trkpt>
      <trkpt lat="40.247683" lon="-4.903250">
        <ele>1237.0</ele>
        <time>2018-06-24T13:11:43Z</time>
      </trkpt>
      <trkpt lat="40.247683" lon="-4.903350">
        <ele>1239.0</ele>
        <time>2018-06-24T13:11:44Z</time>
      </trkpt>
      <trkpt lat="40.247717" lon="-4.903467">
        <ele>1239.0</ele>
        <time>2018-06-24T13:11:45Z</time>
      </trkpt>
      <trkpt lat="40.247800" lon="-4.903567">
        <ele>1240.0</ele>
        <time>2018-06-24T13:11:46Z</time>
      </trkpt>
      <trkpt lat="40.247883" lon="-4.903600">
        <ele>1238.0</ele>
        <time>2018-06-24T13:11:47Z</time>
      </trkpt>
      <trkpt lat="40.248000" lon="-4.903633">
        <ele>1238.0</ele>
        <time>2018-06-24T13:11:48Z</time>
      </trkpt>
      <trkpt lat="40.248133" lon="-4.903633">
        <ele>1236.0</ele>
        <time>2018-06-24T13:11:49Z</time>
      </trkpt>
      <trkpt lat="40.248217" lon="-4.903567">
        <ele>1234.0</ele>
        <time>2018-06-24T13:11:50Z</time>
      </trkpt>
      <trkpt lat="40.248300" lon="-4.903450">
        <ele>1232.0</ele>
        <time>2018-06-24T13:11:51Z</time>
      </trkpt>
      <trkpt lat="40.248350" lon="-4.903317">
        <ele>1228.0</ele>
        <time>2018-06-24T13:11:52Z</time>
      </trkpt>
      <trkpt lat="40.248350" lon="-4.903150">
        <ele>1227.0</ele>
        <time>2018-06-24T13:11:53Z</time>
      </trkpt>
      <trkpt lat="40.248317" lon="-4.903000">
        <ele>1228.0</ele>
        <time>2018-06-24T13:11:54Z</time>
      </trkpt>
      <trkpt lat="40.248250" lon="-4.902883">
        <ele>1229.0</ele>
        <time>2018-06-24T13:11:55Z</time>
      </trkpt>
      <trkpt lat="40.248200" lon="-4.902767">
        <ele>1231.0</ele>
        <time>2018-06-24T13:11:56Z</time>
      </trkpt>
      <trkpt lat="40.248150" lon="-4.902683">
        <ele>1232.0</ele>
        <time>2018-06-24T13:11:57Z</time>
      </trkpt>
      <trkpt lat="40.248117" lon="-4.902600">
        <ele>1234.0</ele>
        <time>2018-06-24T13:11:58Z</time>
      </trkpt>
      <trkpt lat="40.248083" lon="-4.902533">
        <ele>1236.0</ele>
        <time>2018-06-24T13:11:59Z</time>
      </trkpt>
      <trkpt lat="40.248050" lon="-4.902483">
        <ele>1237.0</ele>
        <time>2018-06-24T13:12:00Z</time>
      </trkpt>
      <trkpt lat="40.248000" lon="-4.902450">
        <ele>1237.0</ele>
        <time>2018-06-24T13:12:01Z</time>
      </trkpt>
      <trkpt lat="40.247933" lon="-4.902433">
        <ele>1236.0</ele>
        <time>2018-06-24T13:12:02Z</time>
      </trkpt>
      <trkpt lat="40.247850" lon="-4.902433">
        <ele>1235.0</ele>
        <time>2018-06-24T13:12:03Z</time>
      </trkpt>
      <trkpt lat="40.247783" lon="-4.902433">
        <ele>1235.0</ele>
        <time>2018-06-24T13:12:04Z</time>
      </trkpt>
      <trkpt lat="40.247700" lon="-4.902450">
        <ele>1234.0</ele>
        <time>2018-06-24T13:12:05Z</time>
      </trkpt>
      <trkpt lat="40.247633" lon="-4.902483">
        <ele>1235.0</ele>
        <time>2018-06-24T13:12:06Z</time>
      </trkpt>
      <trkpt lat="40.247567" lon="-4.902533">
        <ele>1235.0</ele>
        <time>2018-06-24T13:12:07Z</time>
      </trkpt>
      <trkpt lat="40.247500" lon="-4.902550">
        <ele>1236.0</ele>
        <time>2018-06-24T13:12:08Z</time>
      </trkpt>
      <trkpt lat="40.247433" lon="-4.902583">
        <ele>1237.0</ele>
        <time>2018-06-24T13:12:09Z</time>
      </trkpt>
      <trkpt lat="40.247383" lon="-4.902600">
        <ele>1239.0</ele>
        <time>2018-06-24T13:12:10Z</time>
      </trkpt>
      <trkpt lat="40.247317" lon="-4.902633">
        <ele>1240.0</ele>
        <time>2018-06-24T13:12:11Z</time>
      </trkpt>
      <trkpt lat="40.247250" lon="-4.902667">
        <ele>1242.0</ele>
        <time>2018-06-24T13:12:12Z</time>
      </trkpt>
      <trkpt lat="40.247200" lon="-4.902717">
        <ele>1244.0</ele>
        <time>2018-06-24T13:12:13Z</time>
      </trkpt>
      <trkpt lat="40.247150" lon="-4.902767">
        <ele>1246.0</ele>
        <time>2018-06-24T13:12:14Z</time>
      </trkpt>
      <trkpt lat="40.247117" lon="-4.902833">
        <ele>1246.0</ele>
        <time>2018-06-24T13:12:15Z</time>
      </trkpt>
      <trkpt lat="40.247083" lon="-4.902900">
        <ele>1246.0</ele>
        <time>2018-06-24T13:12:16Z</time>
      </trkpt>
      <trkpt lat="40.247083" lon="-4.903000">
        <ele>1245.0</ele>
        <time>2018-06-24T13:12:17Z</time>
      </trkpt>
      <trkpt lat="40.247100" lon="-4.903100">
        <ele>1246.0</ele>
        <time>2018-06-24T13:12:18Z</time>
      </trkpt>
      <trkpt lat="40.247133" lon="-4.903217">
        <ele>1246.0</ele>
        <time>2018-06-24T13:12:19Z</time>
      </trkpt>
      <trkpt lat="40.247200" lon="-4.903333">
        <ele>1247.0</ele>
        <time>2018-06-24T13:12:20Z</time>
      </trkpt>
      <trkpt lat="40.247283" lon="-4.903400">
        <ele>1248.0</ele>
        <time>2018-06-24T13:12:21Z</time>
      </trkpt>
      <trkpt lat="40.247417" lon="-4.903433">
        <ele>1248.0</ele>
        <time>2018-06-24T13:12:22Z</time>
      </trkpt>
      <trkpt lat="40.247483" lon="-4.903433">
        <ele>1248.0</ele>
        <time>2018-06-24T13:12:23Z</time>
      </trkpt>
      <trkpt lat="40.247600" lon="-4.903417">
        <ele>1249.0</ele>
        <time>2018-06-24T13:12:24Z</time>
      </trkpt>
      <trkpt lat="40.247700" lon="-4.903367">
        <ele>1250.0</ele>
        <time>2018-06-24T13:12:25Z</time>
      </trkpt>
      <trkpt lat="40.247800" lon="-4.903317">
        <ele>1251.0</ele>
        <time>2018-06-24T13:12:26Z</time>
      </trkpt>
      <trkpt lat="40.247867" lon="-4.903250">
        <ele>1253.0</ele>
        <time>2018-06-24T13:12:27Z</time>
      </trkpt>
      <trkpt lat="40.247917" lon="-4.903133">
        <ele>1254.0</ele>
        <time>2018-06-24T13:12:28Z</time>
      </trkpt>
      <trkpt lat="40.247917" lon="-4.903017">
        <ele>1255.0</ele>
        <time>2018-06-24T13:12:29Z</time>
      </trkpt>
      <trkpt lat="40.247917" lon="-4.902917">
        <ele>1257.0</ele>
        <time>2018-06-24T13:12:30Z</time>
      </trkpt>
      <trkpt lat="40.247917" lon="-4.902800">
        <ele>1259.0</ele>
        <time>2018-06-24T13:12:31Z</time>
      </trkpt>
      <trkpt lat="40.247917" lon="-4.902700">
        <ele>1260.0</ele>
        <time>2018-06-24T13:12:32Z</time>
      </trkpt>
      <trkpt lat="40.247917" lon="-4.902617">
        <ele>1261.0</ele>
        <time>2018-06-24T13:12:33Z</time>
      </trkpt>
      <trkpt lat="40.247900" lon="-4.902517">
        <ele>1262.0</ele>
        <time>2018-06-24T13:12:34Z</time>
      </trkpt>
      <trkpt lat="40.247900" lon="-4.902417">
        <ele>1263.0</ele>
        <time>2018-06-24T13:12:35Z</time>
      </trkpt>
      <trkpt lat="40.247867" lon="-4.902317">
        <ele>1265.0</ele>
        <time>2018-06-24T13:12:36Z</time>
      </trkpt>
      <trkpt lat="40.247833" lon="-4.902233">
        <ele>1266.0</ele>
        <time>2018-06-24T13:12:37Z</time>
      </trkpt>
      <trkpt lat="40.247767" lon="-4.902183">
        <ele>1268.0</ele>
        <time>2018-06-24T13:12:38Z</time>
      </trkpt>
      <trkpt lat="40.247717" lon="-4.902133">
        <ele>1270.0</ele>
        <time>2018-06-24T13:12:39Z</time>
      </trkpt>
      <trkpt lat="40.247650" lon="-4.902100">
        <ele>1271.0</ele>
        <time>2018-06-24T13:12:40Z</time>
      </trkpt>
      <trkpt lat="40.247583" lon="-4.902117">
        <ele>1273.0</ele>
        <time>2018-06-24T13:12:41Z</time>
      </trkpt>
      <trkpt lat="40.247517" lon="-4.902150">
        <ele>1274.0</ele>
        <time>2018-06-24T13:12:42Z</time>
      </trkpt>
      <trkpt lat="40.247467" lon="-4.902233">
        <ele>1275.0</ele>
        <time>2018-06-24T13:12:43Z</time>
      </trkpt>
      <trkpt lat="40.247417" lon="-4.902400">
        <ele>1277.0</ele>
        <time>2018-06-24T13:12:44Z</time>
      </trkpt>
      <trkpt lat="40.247400" lon="-4.902500">
        <ele>1280.0</ele>
        <time>2018-06-24T13:12:45Z</time>
      </trkpt>
      <trkpt lat="40.247417" lon="-4.902617">
        <ele>1283.0</ele>
        <time>2018-06-24T13:12:46Z</time>
      </trkpt>
      <trkpt lat="40.247450" lon="-4.902733">
        <ele>1286.0</ele>
        <time>2018-06-24T13:12:47Z</time>
      </trkpt>
      <trkpt lat="40.247517" lon="-4.902817">
        <ele>1288.0</ele>
        <time>2018-06-24T13:12:48Z</time>
      </trkpt>
      <trkpt lat="40.247600" lon="-4.902850">
        <ele>1288.0</ele>
        <time>2018-06-24T13:12:49Z</time>
      </trkpt>
      <trkpt lat="40.247700" lon="-4.902900">
        <ele>1288.0</ele>
        <time>2018-06-24T13:12:50Z</time>
      </trkpt>
      <trkpt lat="40.247817" lon="-4.902900">
        <ele>1289.0</ele>
        <time>2018-06-24T13:12:51Z</time>
      </trkpt>
      <trkpt lat="40.247950" lon="-4.902883">
        <ele>1289.0</ele>
        <time>2018-06-24T13:12:52Z</time>
      </trkpt>
      <trkpt lat="40.248050" lon="-4.902833">
        <ele>1290.0</ele>
        <time>2018-06-24T13:12:53Z</time>
      </trkpt>
      <trkpt lat="40.248150" lon="-4.902750">
        <ele>1292.0</ele>
        <time>2018-06-24T13:12:54Z</time>
      </trkpt>
      <trkpt lat="40.248217" lon="-4.902650">
        <ele>1294.0</ele>
        <time>2018-06-24T13:12:55Z</time>
      </trkpt>
      <trkpt lat="40.248267" lon="-4.902550">
        <ele>1297.0</ele>
        <time>2018-06-24T13:12:56Z</time>
      </trkpt>
      <trkpt lat="40.248317" lon="-4.902450">
        <ele>1299.0</ele>
        <time>2018-06-24T13:12:57Z</time>
      </trkpt>
      <trkpt lat="40.248350" lon="-4.902333">
        <ele>1301.0</ele>
        <time>2018-06-24T13:12:58Z</time>
      </trkpt>
      <trkpt lat="40.248333" lon="-4.902233">
        <ele>1302.0</ele>
        <time>2018-06-24T13:12:59Z</time>
      </trkpt>
      <trkpt lat="40.248300" lon="-4.902133">
        <ele>1302.0</ele>
        <time>2018-06-24T13:13:00Z</time>
      </trkpt>
      <trkpt lat="40.248250" lon="-4.902033">
        <ele>1303.0</ele>
        <time>2018-06-24T13:13:01Z</time>
      </trkpt>
      <trkpt lat="40.248183" lon="-4.901967">
        <ele>1305.0</ele>
        <time>2018-06-24T13:13:02Z</time>
      </trkpt>
      <trkpt lat="40.248133" lon="-4.901933">
        <ele>1307.0</ele>
        <time>2018-06-24T13:13:03Z</time>
      </trkpt>
      <trkpt lat="40.248050" lon="-4.901933">
        <ele>1310.0</ele>
        <time>2018-06-24T13:13:04Z</time>
      </trkpt>
      <trkpt lat="40.247983" lon="-4.901950">
        <ele>1312.0</ele>
        <time>2018-06-24T13:13:05Z</time>
      </trkpt>
      <trkpt lat="40.247917" lon="-4.901967">
        <ele>1314.0</ele>
        <time>2018-06-24T13:13:06Z</time>
      </trkpt>
      <trkpt lat="40.247850" lon="-4.901983">
        <ele>1316.0</ele>
        <time>2018-06-24T13:13:07Z</time>
      </trkpt>
      <trkpt lat="40.247783" lon="-4.902017">
        <ele>1318.0</ele>
        <time>2018-06-24T13:13:08Z</time>
      </trkpt>
      <trkpt lat="40.247733" lon="-4.902083">
        <ele>1319.0</ele>
        <time>2018-06-24T13:13:09Z</time>
      </trkpt>
      <trkpt lat="40.247700" lon="-4.902167">
        <ele>1320.0</ele>
        <time>2018-06-24T13:13:10Z</time>
      </trkpt>
      <trkpt lat="40.247667" lon="-4.902283">
        <ele>1322.0</ele>
        <time>2018-06-24T13:13:11Z</time>
      </trkpt>
      <trkpt lat="40.247667" lon="-4.902417">
        <ele>1323.0</ele>
        <time>2018-06-24T13:13:12Z</time>
      </trkpt>
      <trkpt lat="40.247683" lon="-4.902517">
        <ele>1325.0</ele>
        <time>2018-06-24T13:13:13Z</time>
      </trkpt>
      <trkpt lat="40.247733" lon="-4.902600">
        <ele>1325.0</ele>
        <time>2018-06-24T13:13:14Z</time>
      </trkpt>
      <trkpt lat="40.247817" lon="-4.902683">
        <ele>1326.0</ele>
        <time>2018-06-24T13:13:15Z</time>
      </trkpt>
      <trkpt lat="40.247917" lon="-4.902717">
        <ele>1326.0</ele>
        <time>2018-06-24T13:13:16Z</time>
      </trkpt>
      <trkpt lat="40.248033" lon="-4.902733">
        <ele>1326.0</ele>
        <time>2018-06-24T13:13:17Z</time>
      </trkpt>
      <trkpt lat="40.248150" lon="-4.902717">
        <ele>1326.0</ele>
        <time>2018-06-24T13:13:18Z</time>
      </trkpt>
      <trkpt lat="40.248250" lon="-4.902683">
        <ele>1329.0</ele>
        <time>2018-06-24T13:13:19Z</time>
      </trkpt>
      <trkpt lat="40.248350" lon="-4.902633">
        <ele>1332.0</ele>
        <time>2018-06-24T13:13:20Z</time>
      </trkpt>
      <trkpt lat="40.248433" lon="-4.902550">
        <ele>1333.0</ele>
        <time>2018-06-24T13:13:21Z</time>
      </trkpt>
      <trkpt lat="40.248517" lon="-4.902467">
        <ele>1335.0</ele>
        <time>2018-06-24T13:13:22Z</time>
      </trkpt>
      <trkpt lat="40.248567" lon="-4.902367">
        <ele>1337.0</ele>
        <time>2018-06-24T13:13:23Z</time>
      </trkpt>
      <trkpt lat="40.248617" lon="-4.902250">
        <ele>1338.0</ele>
        <time>2018-06-24T13:13:24Z</time>
      </trkpt>
      <trkpt lat="40.248617" lon="-4.902133">
        <ele>1338.0</ele>
        <time>2018-06-24T13:13:25Z</time>
      </trkpt>
      <trkpt lat="40.248583" lon="-4.902017">
        <ele>1338.0</ele>
        <time>2018-06-24T13:13:26Z</time>
      </trkpt>
      <trkpt lat="40.248533" lon="-4.901900">
        <ele>1339.0</ele>
        <time>2018-06-24T13:13:27Z</time>
      </trkpt>
      <trkpt lat="40.248467" lon="-4.901817">
        <ele>1340.0</ele>
        <time>2018-06-24T13:13:28Z</time>
      </trkpt>
      <trkpt lat="40.248400" lon="-4.901750">
        <ele>1341.0</ele>
        <time>2018-06-24T13:13:29Z</time>
      </trkpt>
      <trkpt lat="40.248333" lon="-4.901700">
        <ele>1342.0</ele>
        <time>2018-06-24T13:13:30Z</time>
      </trkpt>
      <trkpt lat="40.248267" lon="-4.901667">
        <ele>1343.0</ele>
        <time>2018-06-24T13:13:31Z</time>
      </trkpt>
      <trkpt lat="40.248183" lon="-4.901667">
        <ele>1344.0</ele>
        <time>2018-06-24T13:13:32Z</time>
      </trkpt>
      <trkpt lat="40.248083" lon="-4.901667">
        <ele>1345.0</ele>
        <time>2018-06-24T13:13:33Z</time>
      </trkpt>
      <trkpt lat="40.248000" lon="-4.901733">
        <ele>1345.0</ele>
        <time>2018-06-24T13:13:34Z</time>
      </trkpt>
      <trkpt lat="40.247950" lon="-4.901833">
        <ele>1345.0</ele>
        <time>2018-06-24T13:13:35Z</time>
      </trkpt>
      <trkpt lat="40.247917" lon="-4.901967">
        <ele>1345.0</ele>
        <time>2018-06-24T13:13:36Z</time>
      </trkpt>
      <trkpt lat="40.247917" lon="-4.902117">
        <ele>1347.0</ele>
        <time>2018-06-24T13:13:37Z</time>
      </trkpt>
      <trkpt lat="40.247950" lon="-4.902233">
        <ele>1350.0</ele>
        <time>2018-06-24T13:13:38Z</time>
      </trkpt>
      <trkpt lat="40.248000" lon="-4.902333">
        <ele>1352.0</ele>
        <time>2018-06-24T13:13:39Z</time>
      </trkpt>
      <trkpt lat="40.248083" lon="-4.902400">
        <ele>1354.0</ele>
        <time>2018-06-24T13:13:40Z</time>
      </trkpt>
      <trkpt lat="40.248183" lon="-4.902417">
        <ele>1354.0</ele>
        <time>2018-06-24T13:13:41Z</time>
      </trkpt>
      <trkpt lat="40.248300" lon="-4.902400">
        <ele>1356.0</ele>
        <time>2018-06-24T13:13:42Z</time>
      </trkpt>
      <trkpt lat="40.248400" lon="-4.902333">
        <ele>1357.0</ele>
        <time>2018-06-24T13:13:43Z</time>
      </trkpt>
      <trkpt lat="40.248467" lon="-4.902233">
        <ele>1358.0</ele>
        <time>2018-06-24T13:13:44Z</time>
      </trkpt>
      <trkpt lat="40.248517" lon="-4.902100">
        <ele>1357.0</ele>
        <time>2018-06-24T13:13:45Z</time>
      </trkpt>
      <trkpt lat="40.248533" lon="-4.901983">
        <ele>1360.0</ele>
        <time>2018-06-24T13:13:46Z</time>
      </trkpt>
      <trkpt lat="40.248517" lon="-4.901850">
        <ele>1363.0</ele>
        <time>2018-06-24T13:13:47Z</time>
      </trkpt>
      <trkpt lat="40.248483" lon="-4.901750">
        <ele>1367.0</ele>
        <time>2018-06-24T13:13:48Z</time>
      </trkpt>
      <trkpt lat="40.248450" lon="-4.901667">
        <ele>1370.0</ele>
        <time>2018-06-24T13:13:49Z</time>
      </trkpt>
      <trkpt lat="40.248383" lon="-4.901617">
        <ele>1371.0</ele>
        <time>2018-06-24T13:13:50Z</time>
      </trkpt>
      <trkpt lat="40.248317" lon="-4.901600">
        <ele>1371.0</ele>
        <time>2018-06-24T13:13:51Z</time>
      </trkpt>
      <trkpt lat="40.248233" lon="-4.901617">
        <ele>1371.0</ele>
        <time>2018-06-24T13:13:52Z</time>
      </trkpt>
      <trkpt lat="40.248167" lon="-4.901683">
        <ele>1372.0</ele>
        <time>2018-06-24T13:13:53Z</time>
      </trkpt>
      <trkpt lat="40.248117" lon="-4.901800">
        <ele>1372.0</ele>
        <time>2018-06-24T13:13:54Z</time>
      </trkpt>
      <trkpt lat="40.248083" lon="-4.901933">
        <ele>1373.0</ele>
        <time>2018-06-24T13:13:55Z</time>
      </trkpt>
      <trkpt lat="40.248083" lon="-4.902067">
        <ele>1375.0</ele>
        <time>2018-06-24T13:13:56Z</time>
      </trkpt>
      <trkpt lat="40.248100" lon="-4.902167">
        <ele>1378.0</ele>
        <time>2018-06-24T13:13:57Z</time>
      </trkpt>
      <trkpt lat="40.248117" lon="-4.902267">
        <ele>1380.0</ele>
        <time>2018-06-24T13:13:58Z</time>
      </trkpt>
      <trkpt lat="40.248150" lon="-4.902350">
        <ele>1381.0</ele>
        <time>2018-06-24T13:13:59Z</time>
      </trkpt>
      <trkpt lat="40.248200" lon="-4.902433">
        <ele>1383.0</ele>
        <time>2018-06-24T13:14:00Z</time>
      </trkpt>
      <trkpt lat="40.248267" lon="-4.902517">
        <ele>1383.0</ele>
        <time>2018-06-24T13:14:01Z</time>
      </trkpt>
      <trkpt lat="40.248383" lon="-4.902550">
        <ele>1382.0</ele>
        <time>2018-06-24T13:14:02Z</time>
      </trkpt>
      <trkpt lat="40.248500" lon="-4.902567">
        <ele>1382.0</ele>
        <time>2018-06-24T13:14:03Z</time>
      </trkpt>
      <trkpt lat="40.248617" lon="-4.902550">
        <ele>1383.0</ele>
        <time>2018-06-24T13:14:04Z</time>
      </trkpt>
      <trkpt lat="40.248717" lon="-4.902483">
        <ele>1384.0</ele>
        <time>2018-06-24T13:14:05Z</time>
      </trkpt>
      <trkpt lat="40.248783" lon="-4.902383">
        <ele>1387.0</ele>
        <time>2018-06-24T13:14:06Z</time>
      </trkpt>
      <trkpt lat="40.248850" lon="-4.902267">
        <ele>1389.0</ele>
        <time>2018-06-24T13:14:07Z</time>
      </trkpt>
      <trkpt lat="40.248883" lon="-4.902150">
        <ele>1391.0</ele>
        <time>2018-06-24T13:14:08Z</time>
      </trkpt>
      <trkpt lat="40.248900" lon="-4.902033">
        <ele>1393.0</ele>
        <time>2018-06-24T13:14:09Z</time>
      </trkpt>
      <trkpt lat="40.248900" lon="-4.901917">
        <ele>1395.0</ele>
        <time>2018-06-24T13:14:10Z</time>
      </trkpt>
      <trkpt lat="40.248900" lon="-4.901817">
        <ele>1397.0</ele>
        <time>2018-06-24T13:14:11Z</time>
      </trkpt>
      <trkpt lat="40.248867" lon="-4.901717">
        <ele>1398.0</ele>
        <time>2018-06-24T13:14:12Z</time>
      </trkpt>
      <trkpt lat="40.248800" lon="-4.901650">
        <ele>1399.0</ele>
        <time>2018-06-24T13:14:13Z</time>
      </trkpt>
      <trkpt lat="40.248717" lon="-4.901617">
        <ele>1401.0</ele>
        <time>2018-06-24T13:14:14Z</time>
      </trkpt>
      <trkpt lat="40.248650" lon="-4.901600">
        <ele>1403.0</ele>
        <time>2018-06-24T13:14:15Z</time>
      </trkpt>
      <trkpt lat="40.248567" lon="-4.901633">
        <ele>1405.0</ele>
        <time>2018-06-24T13:14:16Z</time>
      </trkpt>
      <trkpt lat="40.248500" lon="-4.901683">
        <ele>1407.0</ele>
        <time>2018-06-24T13:14:17Z</time>
      </trkpt>
      <trkpt lat="40.248433" lon="-4.901767">
        <ele>1409.0</ele>
        <time>2018-06-24T13:14:18Z</time>
      </trkpt>
      <trkpt lat="40.248383" lon="-4.901850">
        <ele>1410.0</ele>
        <time>2018-06-24T13:14:19Z</time>
      </trkpt>
      <trkpt lat="40.248350" lon="-4.901950">
        <ele>1412.0</ele>
        <time>2018-06-24T13:14:20Z</time>
      </trkpt>
      <trkpt lat="40.248333" lon="-4.902050">
        <ele>1415.0</ele>
        <time>2018-06-24T13:14:21Z</time>
      </trkpt>
      <trkpt lat="40.248350" lon="-4.902167">
        <ele>1415.0</ele>
        <time>2018-06-24T13:14:22Z</time>
      </trkpt>
      <trkpt lat="40.248383" lon="-4.902267">
        <ele>1414.0</ele>
        <time>2018-06-24T13:14:23Z</time>
      </trkpt>
      <trkpt lat="40.248450" lon="-4.902367">
        <ele>1414.0</ele>
        <time>2018-06-24T13:14:24Z</time>
      </trkpt>
      <trkpt lat="40.248500" lon="-4.902417">
        <ele>1413.0</ele>
        <time>2018-06-24T13:14:25Z</time>
      </trkpt>
      <trkpt lat="40.248583" lon="-4.902467">
        <ele>1414.0</ele>
        <time>2018-06-24T13:14:26Z</time>
      </trkpt>
      <trkpt lat="40.248700" lon="-4.902483">
        <ele>1414.0</ele>
        <time>2018-06-24T13:14:27Z</time>
      </trkpt>
      <trkpt lat="40.248800" lon="-4.902467">
        <ele>1415.0</ele>
        <time>2018-06-24T13:14:28Z</time>
      </trkpt>
      <trkpt lat="40.248900" lon="-4.902400">
        <ele>1415.0</ele>
        <time>2018-06-24T13:14:29Z</time>
      </trkpt>
      <trkpt lat="40.248983" lon="-4.902300">
        <ele>1415.0</ele>
        <time>2018-06-24T13:14:30Z</time>
      </trkpt>
      <trkpt lat="40.249033" lon="-4.902183">
        <ele>1415.0</ele>
        <time>2018-06-24T13:14:31Z</time>
      </trkpt>
      <trkpt lat="40.249067" lon="-4.902050">
        <ele>1419.0</ele>
        <time>2018-06-24T13:14:32Z</time>
      </trkpt>
      <trkpt lat="40.249067" lon="-4.901917">
        <ele>1424.0</ele>
        <time>2018-06-24T13:14:33Z</time>
      </trkpt>
      <trkpt lat="40.249067" lon="-4.901817">
        <ele>1428.0</ele>
        <time>2018-06-24T13:14:34Z</time>
      </trkpt>
      <trkpt lat="40.249067" lon="-4.901717">
        <ele>1431.0</ele>
        <time>2018-06-24T13:14:35Z</time>
      </trkpt>
      <trkpt lat="40.249050" lon="-4.901617">
        <ele>1433.0</ele>
        <time>2018-06-24T13:14:36Z</time>
      </trkpt>
      <trkpt lat="40.249017" lon="-4.901500">
        <ele>1434.0</ele>
        <time>2018-06-24T13:14:37Z</time>
      </trkpt>
      <trkpt lat="40.248967" lon="-4.901417">
        <ele>1436.0</ele>
        <time>2018-06-24T13:14:38Z</time>
      </trkpt>
      <trkpt lat="40.248900" lon="-4.901350">
        <ele>1438.0</ele>
        <time>2018-06-24T13:14:39Z</time>
      </trkpt>
      <trkpt lat="40.248833" lon="-4.901333">
        <ele>1439.0</ele>
        <time>2018-06-24T13:14:40Z</time>
      </trkpt>
      <trkpt lat="40.248750" lon="-4.901333">
        <ele>1441.0</ele>
        <time>2018-06-24T13:14:41Z</time>
      </trkpt>
      <trkpt lat="40.248667" lon="-4.901350">
        <ele>1443.0</ele>
        <time>2018-06-24T13:14:42Z</time>
      </trkpt>
      <trkpt lat="40.248583" lon="-4.901383">
        <ele>1445.0</ele>
        <time>2018-06-24T13:14:43Z</time>
      </trkpt>
      <trkpt lat="40.248517" lon="-4.901450">
        <ele>1447.0</ele>
        <time>2018-06-24T13:14:44Z</time>
      </trkpt>
      <trkpt lat="40.248483" lon="-4.901550">
        <ele>1448.0</ele>
        <time>2018-06-24T13:14:45Z</time>
      </trkpt>
      <trkpt lat="40.248450" lon="-4.901667">
        <ele>1449.0</ele>
        <time>2018-06-24T13:14:46Z</time>
      </trkpt>
      <trkpt lat="40.248450" lon="-4.901783">
        <ele>1450.0</ele>
        <time>2018-06-24T13:14:47Z</time>
      </trkpt>
      <trkpt lat="40.248483" lon="-4.901900">
        <ele>1451.0</ele>
        <time>2018-06-24T13:14:48Z</time>
      </trkpt>
      <trkpt lat="40.248550" lon="-4.902000">
        <ele>1451.0</ele>
        <time>2018-06-24T13:14:49Z</time>
      </trkpt>
      <trkpt lat="40.248617" lon="-4.902033">
        <ele>1450.0</ele>
        <time>2018-06-24T13:14:50Z</time>
      </trkpt>
      <trkpt lat="40.248733" lon="-4.902083">
        <ele>1449.0</ele>
        <time>2018-06-24T13:14:51Z</time>
      </trkpt>
      <trkpt lat="40.248817" lon="-4.902083">
        <ele>1448.0</ele>
        <time>2018-06-24T13:14:52Z</time>
      </trkpt>
      <trkpt lat="40.248933" lon="-4.902067">
        <ele>1448.0</ele>
        <time>2018-06-24T13:14:53Z</time>
      </trkpt>
      <trkpt lat="40.249033" lon="-4.902033">
        <ele>1449.0</ele>
        <time>2018-06-24T13:14:54Z</time>
      </trkpt>
      <trkpt lat="40.249133" lon="-4.901983">
        <ele>1449.0</ele>
        <time>2018-06-24T13:14:55Z</time>
      </trkpt>
      <trkpt lat="40.249217" lon="-4.901900">
        <ele>1451.0</ele>
        <time>2018-06-24T13:14:56Z</time>
      </trkpt>
      <trkpt lat="40.249267" lon="-4.901783">
        <ele>1452.0</ele>
        <time>2018-06-24T13:14:57Z</time>
      </trkpt>
      <trkpt lat="40.249317" lon="-4.901667">
        <ele>1452.0</ele>
        <time>2018-06-24T13:14:58Z</time>
      </trkpt>
      <trkpt lat="40.249333" lon="-4.901533">
        <ele>1453.0</ele>
        <time>2018-06-24T13:14:59Z</time>
      </trkpt>
      <trkpt lat="40.249333" lon="-4.901400">
        <ele>1455.0</ele>
        <time>2018-06-24T13:15:00Z</time>
      </trkpt>
      <trkpt lat="40.249317" lon="-4.901283">
        <ele>1457.0</ele>
        <time>2018-06-24T13:15:01Z</time>
      </trkpt>
      <trkpt lat="40.249267" lon="-4.901183">
        <ele>1460.0</ele>
        <time>2018-06-24T13:15:02Z</time>
      </trkpt>
      <trkpt lat="40.249217" lon="-4.901117">
        <ele>1463.0</ele>
        <time>2018-06-24T13:15:03Z</time>
      </trkpt>
      <trkpt lat="40.249167" lon="-4.901067">
        <ele>1465.0</ele>
        <time>2018-06-24T13:15:04Z</time>
      </trkpt>
      <trkpt lat="40.249117" lon="-4.901017">
        <ele>1467.0</ele>
        <time>2018-06-24T13:15:05Z</time>
      </trkpt>
      <trkpt lat="40.249050" lon="-4.900983">
        <ele>1468.0</ele>
        <time>2018-06-24T13:15:06Z</time>
      </trkpt>
      <trkpt lat="40.248983" lon="-4.900967">
        <ele>1468.0</ele>
        <time>2018-06-24T13:15:07Z</time>
      </trkpt>
      <trkpt lat="40.248900" lon="-4.900983">
        <ele>1467.0</ele>
        <time>2018-06-24T13:15:08Z</time>
      </trkpt>
      <trkpt lat="40.248833" lon="-4.901050">
        <ele>1468.0</ele>
        <time>2018-06-24T13:15:09Z</time>
      </trkpt>
      <trkpt lat="40.248783" lon="-4.901167">
        <ele>1469.0</ele>
        <time>2018-06-24T13:15:10Z</time>
      </trkpt>
      <trkpt lat="40.248767" lon="-4.901283">
        <ele>1470.0</ele>
        <time>2018-06-24T13:15:11Z</time>
      </trkpt>
      <trkpt lat="40.248783" lon="-4.901383">
        <ele>1472.0</ele>
        <time>2018-06-24T13:15:12Z</time>
      </trkpt>
      <trkpt lat="40.248817" lon="-4.901450">
        <ele>1474.0</ele>
        <time>2018-06-24T13:15:13Z</time>
      </trkpt>
      <trkpt lat="40.248867" lon="-4.901517">
        <ele>1475.0</ele>
        <time>2018-06-24T13:15:14Z</time>
      </trkpt>
      <trkpt lat="40.248933" lon="-4.901567">
        <ele>1474.0</ele>
        <time>2018-06-24T13:15:15Z</time>
      </trkpt>
      <trkpt lat="40.249017" lon="-4.901583">
        <ele>1474.0</ele>
        <time>2018-06-24T13:15:16Z</time>
      </trkpt>
      <trkpt lat="40.249067" lon="-4.901550">
        <ele>1473.0</ele>
        <time>2018-06-24T13:15:17Z</time>
      </trkpt>
      <trkpt lat="40.249183" lon="-4.901467">
        <ele>1472.0</ele>
        <time>2018-06-24T13:15:18Z</time>
      </trkpt>
      <trkpt lat="40.249267" lon="-4.901367">
        <ele>1472.0</ele>
        <time>2018-06-24T13:15:19Z</time>
      </trkpt>
      <trkpt lat="40.249317" lon="-4.901233">
        <ele>1471.0</ele>
        <time>2018-06-24T13:15:20Z</time>
      </trkpt>
      <trkpt lat="40.249350" lon="-4.901083">
        <ele>1473.0</ele>
        <time>2018-06-24T13:15:21Z</time>
      </trkpt>
      <trkpt lat="40.249333" lon="-4.900950">
        <ele>1475.0</ele>
        <time>2018-06-24T13:15:22Z</time>
      </trkpt>
      <trkpt lat="40.249300" lon="-4.900833">
        <ele>1478.0</ele>
        <time>2018-06-24T13:15:23Z</time>
      </trkpt>
      <trkpt lat="40.249250" lon="-4.900767">
        <ele>1480.0</ele>
        <time>2018-06-24T13:15:24Z</time>
      </trkpt>
      <trkpt lat="40.249183" lon="-4.900717">
        <ele>1482.0</ele>
        <time>2018-06-24T13:15:25Z</time>
      </trkpt>
      <trkpt lat="40.249117" lon="-4.900700">
        <ele>1483.0</ele>
        <time>2018-06-24T13:15:26Z</time>
      </trkpt>
      <trkpt lat="40.249050" lon="-4.900700">
        <ele>1485.0</ele>
        <time>2018-06-24T13:15:27Z</time>
      </trkpt>
      <trkpt lat="40.248983" lon="-4.900733">
        <ele>1485.0</ele>
        <time>2018-06-24T13:15:28Z</time>
      </trkpt>
      <trkpt lat="40.248933" lon="-4.900800">
        <ele>1485.0</ele>
        <time>2018-06-24T13:15:29Z</time>
      </trkpt>
      <trkpt lat="40.248883" lon="-4.900883">
        <ele>1485.0</ele>
        <time>2018-06-24T13:15:30Z</time>
      </trkpt>
      <trkpt lat="40.248850" lon="-4.900967">
        <ele>1485.0</ele>
        <time>2018-06-24T13:15:31Z</time>
      </trkpt>
      <trkpt lat="40.248850" lon="-4.901083">
        <ele>1486.0</ele>
        <time>2018-06-24T13:15:32Z</time>
      </trkpt>
      <trkpt lat="40.248867" lon="-4.901183">
        <ele>1487.0</ele>
        <time>2018-06-24T13:15:33Z</time>
      </trkpt>
      <trkpt lat="40.248883" lon="-4.901267">
        <ele>1488.0</ele>
        <time>2018-06-24T13:15:34Z</time>
      </trkpt>
      <trkpt lat="40.248917" lon="-4.901350">
        <ele>1489.0</ele>
        <time>2018-06-24T13:15:35Z</time>
      </trkpt>
      <trkpt lat="40.248967" lon="-4.901433">
        <ele>1490.0</ele>
        <time>2018-06-24T13:15:36Z</time>
      </trkpt>
      <trkpt lat="40.249050" lon="-4.901500">
        <ele>1489.0</ele>
        <time>2018-06-24T13:15:37Z</time>
      </trkpt>
      <trkpt lat="40.249150" lon="-4.901517">
        <ele>1489.0</ele>
        <time>2018-06-24T13:15:38Z</time>
      </trkpt>
      <trkpt lat="40.249267" lon="-4.901517">
        <ele>1488.0</ele>
        <time>2018-06-24T13:15:39Z</time>
      </trkpt>
      <trkpt lat="40.249367" lon="-4.901483">
        <ele>1489.0</ele>
        <time>2018-06-24T13:15:40Z</time>
      </trkpt>
      <trkpt lat="40.249450" lon="-4.901400">
        <ele>1490.0</ele>
        <time>2018-06-24T13:15:41Z</time>
      </trkpt>
      <trkpt lat="40.249533" lon="-4.901300">
        <ele>1492.0</ele>
        <time>2018-06-24T13:15:42Z</time>
      </trkpt>
      <trkpt lat="40.249583" lon="-4.901200">
        <ele>1494.0</ele>
        <time>2018-06-24T13:15:43Z</time>
      </trkpt>
      <trkpt lat="40.249633" lon="-4.901083">
        <ele>1495.0</ele>
        <time>2018-06-24T13:15:44Z</time>
      </trkpt>
      <trkpt lat="40.249667" lon="-4.900950">
        <ele>1494.0</ele>
        <time>2018-06-24T13:15:45Z</time>
      </trkpt>
      <trkpt lat="40.249683" lon="-4.900817">
        <ele>1495.0</ele>
        <time>2018-06-24T13:15:46Z</time>
      </trkpt>
      <trkpt lat="40.249683" lon="-4.900683">
        <ele>1496.0</ele>
        <time>2018-06-24T13:15:47Z</time>
      </trkpt>
      <trkpt lat="40.249633" lon="-4.900550">
        <ele>1496.0</ele>
        <time>2018-06-24T13:15:48Z</time>
      </trkpt>
      <trkpt lat="40.249583" lon="-4.900467">
        <ele>1497.0</ele>
        <time>2018-06-24T13:15:49Z</time>
      </trkpt>
      <trkpt lat="40.249517" lon="-4.900400">
        <ele>1497.0</ele>
        <time>2018-06-24T13:15:50Z</time>
      </trkpt>
      <trkpt lat="40.249450" lon="-4.900350">
        <ele>1498.0</ele>
        <time>2018-06-24T13:15:51Z</time>
      </trkpt>
      <trkpt lat="40.249383" lon="-4.900333">
        <ele>1500.0</ele>
        <time>2018-06-24T13:15:52Z</time>
      </trkpt>
      <trkpt lat="40.249317" lon="-4.900333">
        <ele>1500.0</ele>
        <time>2018-06-24T13:15:53Z</time>
      </trkpt>
      <trkpt lat="40.249250" lon="-4.900350">
        <ele>1501.0</ele>
        <time>2018-06-24T13:15:54Z</time>
      </trkpt>
      <trkpt lat="40.249200" lon="-4.900367">
        <ele>1501.0</ele>
        <time>2018-06-24T13:15:55Z</time>
      </trkpt>
      <trkpt lat="40.249133" lon="-4.900417">
        <ele>1501.0</ele>
        <time>2018-06-24T13:15:56Z</time>
      </trkpt>
      <trkpt lat="40.249100" lon="-4.900483">
        <ele>1501.0</ele>
        <time>2018-06-24T13:15:57Z</time>
      </trkpt>
      <trkpt lat="40.249067" lon="-4.900583">
        <ele>1500.0</ele>
        <time>2018-06-24T13:15:58Z</time>
      </trkpt>
      <trkpt lat="40.249067" lon="-4.900667">
        <ele>1500.0</ele>
        <time>2018-06-24T13:15:59Z</time>
      </trkpt>
      <trkpt lat="40.249117" lon="-4.900767">
        <ele>1500.0</ele>
        <time>2018-06-24T13:16:00Z</time>
      </trkpt>
      <trkpt lat="40.249183" lon="-4.900850">
        <ele>1500.0</ele>
        <time>2018-06-24T13:16:01Z</time>
      </trkpt>
      <trkpt lat="40.249250" lon="-4.900933">
        <ele>1500.0</ele>
        <time>2018-06-24T13:16:02Z</time>
      </trkpt>
      <trkpt lat="40.249317" lon="-4.901000">
        <ele>1500.0</ele>
        <time>2018-06-24T13:16:03Z</time>
      </trkpt>
      <trkpt lat="40.249400" lon="-4.901033">
        <ele>1503.0</ele>
        <time>2018-06-24T13:16:04Z</time>
      </trkpt>
      <trkpt lat="40.249450" lon="-4.901050">
        <ele>1504.0</ele>
        <time>2018-06-24T13:16:05Z</time>
      </trkpt>
      <trkpt lat="40.249500" lon="-4.901083">
        <ele>1505.0</ele>
        <time>2018-06-24T13:16:06Z</time>
      </trkpt>
      <trkpt lat="40.249567" lon="-4.901117">
        <ele>1504.0</ele>
        <time>2018-06-24T13:16:07Z</time>
      </trkpt>
      <trkpt lat="40.249633" lon="-4.901150">
        <ele>1504.0</ele>
        <time>2018-06-24T13:16:08Z</time>
      </trkpt>
      <trkpt lat="40.249717" lon="-4.901133">
        <ele>1502.0</ele>
        <time>2018-06-24T13:16:09Z</time>
      </trkpt>
      <trkpt lat="40.249800" lon="-4.901067">
        <ele>1501.0</ele>
        <time>2018-06-24T13:16:10Z</time>
      </trkpt>
      <trkpt lat="40.249883" lon="-4.900983">
        <ele>1500.0</ele>
        <time>2018-06-24T13:16:11Z</time>
      </trkpt>
      <trkpt lat="40.249950" lon="-4.900883">
        <ele>1502.0</ele>
        <time>2018-06-24T13:16:12Z</time>
      </trkpt>
      <trkpt lat="40.250000" lon="-4.900783">
        <ele>1503.0</ele>
        <time>2018-06-24T13:16:13Z</time>
      </trkpt>
      <trkpt lat="40.250033" lon="-4.900683">
        <ele>1502.0</ele>
        <time>2018-06-24T13:16:14Z</time>
      </trkpt>
      <trkpt lat="40.250050" lon="-4.900583">
        <ele>1503.0</ele>
        <time>2018-06-24T13:16:15Z</time>
      </trkpt>
      <trkpt lat="40.250083" lon="-4.900450">
        <ele>1503.0</ele>
        <time>2018-06-24T13:16:16Z</time>
      </trkpt>
      <trkpt lat="40.250083" lon="-4.900300">
        <ele>1504.0</ele>
        <time>2018-06-24T13:16:17Z</time>
      </trkpt>
      <trkpt lat="40.250083" lon="-4.900150">
        <ele>1504.0</ele>
        <time>2018-06-24T13:16:18Z</time>
      </trkpt>
      <trkpt lat="40.250067" lon="-4.900017">
        <ele>1505.0</ele>
        <time>2018-06-24T13:16:19Z</time>
      </trkpt>
      <trkpt lat="40.250017" lon="-4.899900">
        <ele>1506.0</ele>
        <time>2018-06-24T13:16:20Z</time>
      </trkpt>
      <trkpt lat="40.249950" lon="-4.899800">
        <ele>1506.0</ele>
        <time>2018-06-24T13:16:21Z</time>
      </trkpt>
      <trkpt lat="40.249883" lon="-4.899733">
        <ele>1506.0</ele>
        <time>2018-06-24T13:16:22Z</time>
      </trkpt>
      <trkpt lat="40.249800" lon="-4.899700">
        <ele>1506.0</ele>
        <time>2018-06-24T13:16:23Z</time>
      </trkpt>
      <trkpt lat="40.249717" lon="-4.899700">
        <ele>1507.0</ele>
        <time>2018-06-24T13:16:24Z</time>
      </trkpt>
      <trkpt lat="40.249650" lon="-4.899733">
        <ele>1507.0</ele>
        <time>2018-06-24T13:16:25Z</time>
      </trkpt>
      <trkpt lat="40.249600" lon="-4.899783">
        <ele>1508.0</ele>
        <time>2018-06-24T13:16:26Z</time>
      </trkpt>
      <trkpt lat="40.249583" lon="-4.899850">
        <ele>1508.0</ele>
        <time>2018-06-24T13:16:27Z</time>
      </trkpt>
      <trkpt lat="40.249567" lon="-4.899950">
        <ele>1508.0</ele>
        <time>2018-06-24T13:16:28Z</time>
      </trkpt>
      <trkpt lat="40.249567" lon="-4.900017">
        <ele>1508.0</ele>
        <time>2018-06-24T13:16:29Z</time>
      </trkpt>
      <trkpt lat="40.249600" lon="-4.900100">
        <ele>1507.0</ele>
        <time>2018-06-24T13:16:30Z</time>
      </trkpt>
      <trkpt lat="40.249650" lon="-4.900183">
        <ele>1507.0</ele>
        <time>2018-06-24T13:16:31Z</time>
      </trkpt>
      <trkpt lat="40.249733" lon="-4.900250">
        <ele>1506.0</ele>
        <time>2018-06-24T13:16:32Z</time>
      </trkpt>
      <trkpt lat="40.249833" lon="-4.900317">
        <ele>1507.0</ele>
        <time>2018-06-24T13:16:33Z</time>
      </trkpt>
      <trkpt lat="40.249900" lon="-4.900383">
        <ele>1510.0</ele>
        <time>2018-06-24T13:16:34Z</time>
      </trkpt>
      <trkpt lat="40.249950" lon="-4.900417">
        <ele>1512.0</ele>
        <time>2018-06-24T13:16:35Z</time>
      </trkpt>
      <trkpt lat="40.249983" lon="-4.900467">
        <ele>1512.0</ele>
        <time>2018-06-24T13:16:36Z</time>
      </trkpt>
      <trkpt lat="40.250000" lon="-4.900550">
        <ele>1511.0</ele>
        <time>2018-06-24T13:16:37Z</time>
      </trkpt>
      <trkpt lat="40.250033" lon="-4.900633">
        <ele>1510.0</ele>
        <time>2018-06-24T13:16:38Z</time>
      </trkpt>
      <trkpt lat="40.250050" lon="-4.900717">
        <ele>1508.0</ele>
        <time>2018-06-24T13:16:39Z</time>
      </trkpt>
      <trkpt lat="40.250083" lon="-4.900800">
        <ele>1507.0</ele>
        <time>2018-06-24T13:16:40Z</time>
      </trkpt>
      <trkpt lat="40.250133" lon="-4.900883">
        <ele>1507.0</ele>
        <time>2018-06-24T13:16:41Z</time>
      </trkpt>
      <trkpt lat="40.250183" lon="-4.900950">
        <ele>1506.0</ele>
        <time>2018-06-24T13:16:42Z</time>
      </trkpt>
      <trkpt lat="40.250233" lon="-4.901000">
        <ele>1506.0</ele>
        <time>2018-06-24T13:16:43Z</time>
      </trkpt>
      <trkpt lat="40.250283" lon="-4.901033">
        <ele>1505.0</ele>
        <time>2018-06-24T13:16:44Z</time>
      </trkpt>
      <trkpt lat="40.250367" lon="-4.901050">
        <ele>1504.0</ele>
        <time>2018-06-24T13:16:45Z</time>
      </trkpt>
      <trkpt lat="40.250450" lon="-4.901033">
        <ele>1503.0</ele>
        <time>2018-06-24T13:16:46Z</time>
      </trkpt>
      <trkpt lat="40.250550" lon="-4.901000">
        <ele>1502.0</ele>
        <time>2018-06-24T13:16:47Z</time>
      </trkpt>
      <trkpt lat="40.250633" lon="-4.900950">
        <ele>1501.0</ele>
        <time>2018-06-24T13:16:48Z</time>
      </trkpt>
      <trkpt lat="40.250717" lon="-4.900867">
        <ele>1500.0</ele>
        <time>2018-06-24T13:16:49Z</time>
      </trkpt>
      <trkpt lat="40.250783" lon="-4.900783">
        <ele>1500.0</ele>
        <time>2018-06-24T13:16:50Z</time>
      </trkpt>
      <trkpt lat="40.250850" lon="-4.900683">
        <ele>1499.0</ele>
        <time>2018-06-24T13:16:51Z</time>
      </trkpt>
      <trkpt lat="40.250900" lon="-4.900583">
        <ele>1497.0</ele>
        <time>2018-06-24T13:16:52Z</time>
      </trkpt>
      <trkpt lat="40.250933" lon="-4.900467">
        <ele>1495.0</ele>
        <time>2018-06-24T13:16:53Z</time>
      </trkpt>
      <trkpt lat="40.250950" lon="-4.900350">
        <ele>1493.0</ele>
        <time>2018-06-24T13:16:54Z</time>
      </trkpt>
      <trkpt lat="40.250917" lon="-4.900200">
        <ele>1492.0</ele>
        <time>2018-06-24T13:16:55Z</time>
      </trkpt>
      <trkpt lat="40.250867" lon="-4.900067">
        <ele>1491.0</ele>
        <time>2018-06-24T13:16:56Z</time>
      </trkpt>
      <trkpt lat="40.250800" lon="-4.899950">
        <ele>1490.0</ele>
        <time>2018-06-24T13:16:57Z</time>
      </trkpt>
      <trkpt lat="40.250733" lon="-4.899850">
        <ele>1491.0</ele>
        <time>2018-06-24T13:16:58Z</time>
      </trkpt>
      <trkpt lat="40.250650" lon="-4.899767">
        <ele>1493.0</ele>
        <time>2018-06-24T13:16:59Z</time>
      </trkpt>
      <trkpt lat="40.250567" lon="-4.899700">
        <ele>1495.0</ele>
        <time>2018-06-24T13:17:00Z</time>
      </trkpt>
      <trkpt lat="40.250483" lon="-4.899650">
        <ele>1500.0</ele>
        <time>2018-06-24T13:17:01Z</time>
      </trkpt>
      <trkpt lat="40.250417" lon="-4.899600">
        <ele>1503.0</ele>
        <time>2018-06-24T13:17:02Z</time>
      </trkpt>
      <trkpt lat="40.250350" lon="-4.899567">
        <ele>1504.0</ele>
        <time>2018-06-24T13:17:03Z</time>
      </trkpt>
      <trkpt lat="40.250283" lon="-4.899517">
        <ele>1506.0</ele>
        <time>2018-06-24T13:17:04Z</time>
      </trkpt>
      <trkpt lat="40.250200" lon="-4.899483">
        <ele>1506.0</ele>
        <time>2018-06-24T13:17:05Z</time>
      </trkpt>
      <trkpt lat="40.250100" lon="-4.899483">
        <ele>1506.0</ele>
        <time>2018-06-24T13:17:06Z</time>
      </trkpt>
      <trkpt lat="40.250017" lon="-4.899533">
        <ele>1506.0</ele>
        <time>2018-06-24T13:17:07Z</time>
      </trkpt>
      <trkpt lat="40.249950" lon="-4.899600">
        <ele>1507.0</ele>
        <time>2018-06-24T13:17:08Z</time>
      </trkpt>
      <trkpt lat="40.249900" lon="-4.899667">
        <ele>1508.0</ele>
        <time>2018-06-24T13:17:09Z</time>
      </trkpt>
      <trkpt lat="40.249850" lon="-4.899717">
        <ele>1509.0</ele>
        <time>2018-06-24T13:17:10Z</time>
      </trkpt>
      <trkpt lat="40.249800" lon="-4.899783">
        <ele>1509.0</ele>
        <time>2018-06-24T13:17:11Z</time>
      </trkpt>
      <trkpt lat="40.249767" lon="-4.899850">
        <ele>1508.0</ele>
        <time>2018-06-24T13:17:12Z</time>
      </trkpt>
      <trkpt lat="40.249767" lon="-4.899950">
        <ele>1506.0</ele>
        <time>2018-06-24T13:17:13Z</time>
      </trkpt>
      <trkpt lat="40.249783" lon="-4.900050">
        <ele>1504.0</ele>
        <time>2018-06-24T13:17:14Z</time>
      </trkpt>
      <trkpt lat="40.249833" lon="-4.900133">
        <ele>1503.0</ele>
        <time>2018-06-24T13:17:15Z</time>
      </trkpt>
      <trkpt lat="40.249883" lon="-4.900200">
        <ele>1503.0</ele>
        <time>2018-06-24T13:17:16Z</time>
      </trkpt>
      <trkpt lat="40.249950" lon="-4.900250">
        <ele>1503.0</ele>
        <time>2018-06-24T13:17:17Z</time>
      </trkpt>
      <trkpt lat="40.250033" lon="-4.900267">
        <ele>1503.0</ele>
        <time>2018-06-24T13:17:18Z</time>
      </trkpt>
      <trkpt lat="40.250100" lon="-4.900283">
        <ele>1503.0</ele>
        <time>2018-06-24T13:17:19Z</time>
      </trkpt>
      <trkpt lat="40.250183" lon="-4.900267">
        <ele>1502.0</ele>
        <time>2018-06-24T13:17:20Z</time>
      </trkpt>
      <trkpt lat="40.250267" lon="-4.900217">
        <ele>1502.0</ele>
        <time>2018-06-24T13:17:21Z</time>
      </trkpt>
      <trkpt lat="40.250350" lon="-4.900167">
        <ele>1502.0</ele>
        <time>2018-06-24T13:17:22Z</time>
      </trkpt>
      <trkpt lat="40.250417" lon="-4.900100">
        <ele>1502.0</ele>
        <time>2018-06-24T13:17:23Z</time>
      </trkpt>
      <trkpt lat="40.250500" lon="-4.900017">
        <ele>1502.0</ele>
        <time>2018-06-24T13:17:24Z</time>
      </trkpt>
      <trkpt lat="40.250550" lon="-4.899917">
        <ele>1502.0</ele>
        <time>2018-06-24T13:17:25Z</time>
      </trkpt>
      <trkpt lat="40.250617" lon="-4.899800">
        <ele>1500.0</ele>
        <time>2018-06-24T13:17:26Z</time>
      </trkpt>
      <trkpt lat="40.250650" lon="-4.899683">
        <ele>1498.0</ele>
        <time>2018-06-24T13:17:27Z</time>
      </trkpt>
      <trkpt lat="40.250683" lon="-4.899533">
        <ele>1497.0</ele>
        <time>2018-06-24T13:17:28Z</time>
      </trkpt>
      <trkpt lat="40.250700" lon="-4.899383">
        <ele>1497.0</ele>
        <time>2018-06-24T13:17:29Z</time>
      </trkpt>
      <trkpt lat="40.250717" lon="-4.899233">
        <ele>1496.0</ele>
        <time>2018-06-24T13:17:30Z</time>
      </trkpt>
      <trkpt lat="40.250717" lon="-4.899067">
        <ele>1496.0</ele>
        <time>2018-06-24T13:17:31Z</time>
      </trkpt>
      <trkpt lat="40.250683" lon="-4.898900">
        <ele>1496.0</ele>
        <time>2018-06-24T13:17:32Z</time>
      </trkpt>
      <trkpt lat="40.250633" lon="-4.898750">
        <ele>1498.0</ele>
        <time>2018-06-24T13:17:33Z</time>
      </trkpt>
      <trkpt lat="40.250583" lon="-4.898617">
        <ele>1500.0</ele>
        <time>2018-06-24T13:17:34Z</time>
      </trkpt>
      <trkpt lat="40.250533" lon="-4.898500">
        <ele>1502.0</ele>
        <time>2018-06-24T13:17:35Z</time>
      </trkpt>
      <trkpt lat="40.250500" lon="-4.898400">
        <ele>1503.0</ele>
        <time>2018-06-24T13:17:36Z</time>
      </trkpt>
      <trkpt lat="40.250450" lon="-4.898283">
        <ele>1503.0</ele>
        <time>2018-06-24T13:17:37Z</time>
      </trkpt>
      <trkpt lat="40.250383" lon="-4.898183">
        <ele>1503.0</ele>
        <time>2018-06-24T13:17:38Z</time>
      </trkpt>
      <trkpt lat="40.250300" lon="-4.898117">
        <ele>1501.0</ele>
        <time>2018-06-24T13:17:39Z</time>
      </trkpt>
      <trkpt lat="40.250200" lon="-4.898067">
        <ele>1501.0</ele>
        <time>2018-06-24T13:17:40Z</time>
      </trkpt>
      <trkpt lat="40.250100" lon="-4.898050">
        <ele>1502.0</ele>
        <time>2018-06-24T13:17:41Z</time>
      </trkpt>
      <trkpt lat="40.250033" lon="-4.898067">
        <ele>1503.0</ele>
        <time>2018-06-24T13:17:42Z</time>
      </trkpt>
      <trkpt lat="40.249967" lon="-4.898100">
        <ele>1503.0</ele>
        <time>2018-06-24T13:17:43Z</time>
      </trkpt>
      <trkpt lat="40.249917" lon="-4.898150">
        <ele>1503.0</ele>
        <time>2018-06-24T13:17:44Z</time>
      </trkpt>
      <trkpt lat="40.249883" lon="-4.898233">
        <ele>1502.0</ele>
        <time>2018-06-24T13:17:45Z</time>
      </trkpt>
      <trkpt lat="40.249850" lon="-4.898317">
        <ele>1501.0</ele>
        <time>2018-06-24T13:17:46Z</time>
      </trkpt>
      <trkpt lat="40.249833" lon="-4.898400">
        <ele>1500.0</ele>
        <time>2018-06-24T13:17:47Z</time>
      </trkpt>
      <trkpt lat="40.249817" lon="-4.898500">
        <ele>1500.0</ele>
        <time>2018-06-24T13:17:48Z</time>
      </trkpt>
      <trkpt lat="40.249833" lon="-4.898600">
        <ele>1499.0</ele>
        <time>2018-06-24T13:17:49Z</time>
      </trkpt>
      <trkpt lat="40.249850" lon="-4.898717">
        <ele>1499.0</ele>
        <time>2018-06-24T13:17:50Z</time>
      </trkpt>
      <trkpt lat="40.249883" lon="-4.898833">
        <ele>1499.0</ele>
        <time>2018-06-24T13:17:51Z</time>
      </trkpt>
      <trkpt lat="40.249933" lon="-4.898933">
        <ele>1501.0</ele>
        <time>2018-06-24T13:17:52Z</time>
      </trkpt>
      <trkpt lat="40.249983" lon="-4.899017">
        <ele>1502.0</ele>
        <time>2018-06-24T13:17:53Z</time>
      </trkpt>
      <trkpt lat="40.250017" lon="-4.899083">
        <ele>1502.0</ele>
        <time>2018-06-24T13:17:54Z</time>
      </trkpt>
      <trkpt lat="40.250067" lon="-4.899167">
        <ele>1502.0</ele>
        <time>2018-06-24T13:17:55Z</time>
      </trkpt>
      <trkpt lat="40.250117" lon="-4.899250">
        <ele>1502.0</ele>
        <time>2018-06-24T13:17:56Z</time>
      </trkpt>
      <trkpt lat="40.250183" lon="-4.899350">
        <ele>1502.0</ele>
        <time>2018-06-24T13:17:57Z</time>
      </trkpt>
      <trkpt lat="40.250233" lon="-4.899450">
        <ele>1503.0</ele>
        <time>2018-06-24T13:17:58Z</time>
      </trkpt>
      <trkpt lat="40.250300" lon="-4.899533">
        <ele>1504.0</ele>
        <time>2018-06-24T13:17:59Z</time>
      </trkpt>
      <trkpt lat="40.250333" lon="-4.899617">
        <ele>1505.0</ele>
        <time>2018-06-24T13:18:00Z</time>
      </trkpt>
      <trkpt lat="40.250383" lon="-4.899700">
        <ele>1506.0</ele>
        <time>2018-06-24T13:18:01Z</time>
      </trkpt>
      <trkpt lat="40.250417" lon="-4.899783">
        <ele>1506.0</ele>
        <time>2018-06-24T13:18:02Z</time>
      </trkpt>
      <trkpt lat="40.250450" lon="-4.899850">
        <ele>1507.0</ele>
        <time>2018-06-24T13:18:03Z</time>
      </trkpt>
      <trkpt lat="40.250483" lon="-4.899900">
        <ele>1506.0</ele>
        <time>2018-06-24T13:18:04Z</time>
      </trkpt>
      <trkpt lat="40.250517" lon="-4.899950">
        <ele>1505.0</ele>
        <time>2018-06-24T13:18:05Z</time>
      </trkpt>
      <trkpt lat="40.250583" lon="-4.900017">
        <ele>1504.0</ele>
        <time>2018-06-24T13:18:06Z</time>
      </trkpt>
      <trkpt lat="40.250650" lon="-4.900067">
        <ele>1503.0</ele>
        <time>2018-06-24T13:18:07Z</time>
      </trkpt>
      <trkpt lat="40.250733" lon="-4.900150">
        <ele>1503.0</ele>
        <time>2018-06-24T13:18:08Z</time>
      </trkpt>
      <trkpt lat="40.250800" lon="-4.900233">
        <ele>1503.0</ele>
        <time>2018-06-24T13:18:09Z</time>
      </trkpt>
      <trkpt lat="40.250867" lon="-4.900317">
        <ele>1502.0</ele>
        <time>2018-06-24T13:18:10Z</time>
      </trkpt>
      <trkpt lat="40.250933" lon="-4.900400">
        <ele>1502.0</ele>
        <time>2018-06-24T13:18:11Z</time>
      </trkpt>
      <trkpt lat="40.250983" lon="-4.900483">
        <ele>1501.0</ele>
        <time>2018-06-24T13:18:12Z</time>
      </trkpt>
      <trkpt lat="40.251050" lon="-4.900583">
        <ele>1501.0</ele>
        <time>2018-06-24T13:18:13Z</time>
      </trkpt>
      <trkpt lat="40.251100" lon="-4.900683">
        <ele>1502.0</ele>
        <time>2018-06-24T13:18:14Z</time>
      </trkpt>
      <trkpt lat="40.251150" lon="-4.900783">
        <ele>1501.0</ele>
        <time>2018-06-24T13:18:15Z</time>
      </trkpt>
      <trkpt lat="40.251200" lon="-4.900850">
        <ele>1501.0</ele>
        <time>2018-06-24T13:18:16Z</time>
      </trkpt>
      <trkpt lat="40.251283" lon="-4.900917">
        <ele>1500.0</ele>
        <time>2018-06-24T13:18:17Z</time>
      </trkpt>
      <trkpt lat="40.251333" lon="-4.900967">
        <ele>1500.0</ele>
        <time>2018-06-24T13:18:18Z</time>
      </trkpt>
      <trkpt lat="40.251400" lon="-4.901033">
        <ele>1499.0</ele>
        <time>2018-06-24T13:18:19Z</time>
      </trkpt>
      <trkpt lat="40.251450" lon="-4.901117">
        <ele>1498.0</ele>
        <time>2018-06-24T13:18:20Z</time>
      </trkpt>
      <trkpt lat="40.251483" lon="-4.901200">
        <ele>1496.0</ele>
        <time>2018-06-24T13:18:21Z</time>
      </trkpt>
      <trkpt lat="40.251533" lon="-4.901283">
        <ele>1494.0</ele>
        <time>2018-06-24T13:18:22Z</time>
      </trkpt>
      <trkpt lat="40.251583" lon="-4.901367">
        <ele>1492.0</ele>
        <time>2018-06-24T13:18:23Z</time>
      </trkpt>
      <trkpt lat="40.251650" lon="-4.901433">
        <ele>1490.0</ele>
        <time>2018-06-24T13:18:24Z</time>
      </trkpt>
      <trkpt lat="40.251717" lon="-4.901517">
        <ele>1490.0</ele>
        <time>2018-06-24T13:18:25Z</time>
      </trkpt>
      <trkpt lat="40.251783" lon="-4.901600">
        <ele>1490.0</ele>
        <time>2018-06-24T13:18:26Z</time>
      </trkpt>
      <trkpt lat="40.251850" lon="-4.901683">
        <ele>1488.0</ele>
        <time>2018-06-24T13:18:27Z</time>
      </trkpt>
      <trkpt lat="40.251917" lon="-4.901750">
        <ele>1486.0</ele>
        <time>2018-06-24T13:18:28Z</time>
      </trkpt>
      <trkpt lat="40.251983" lon="-4.901833">
        <ele>1485.0</ele>
        <time>2018-06-24T13:18:29Z</time>
      </trkpt>
      <trkpt lat="40.252067" lon="-4.901917">
        <ele>1483.0</ele>
        <time>2018-06-24T13:18:30Z</time>
      </trkpt>
      <trkpt lat="40.252133" lon="-4.901983">
        <ele>1482.0</ele>
        <time>2018-06-24T13:18:31Z</time>
      </trkpt>
      <trkpt lat="40.252217" lon="-4.902050">
        <ele>1481.0</ele>
        <time>2018-06-24T13:18:32Z</time>
      </trkpt>
      <trkpt lat="40.252300" lon="-4.902117">
        <ele>1480.0</ele>
        <time>2018-06-24T13:18:33Z</time>
      </trkpt>
      <trkpt lat="40.252383" lon="-4.902183">
        <ele>1478.0</ele>
        <time>2018-06-24T13:18:34Z</time>
      </trkpt>
      <trkpt lat="40.252450" lon="-4.902267">
        <ele>1476.0</ele>
        <time>2018-06-24T13:18:35Z</time>
      </trkpt>
      <trkpt lat="40.252517" lon="-4.902350">
        <ele>1475.0</ele>
        <time>2018-06-24T13:18:36Z</time>
      </trkpt>
      <trkpt lat="40.252583" lon="-4.902433">
        <ele>1474.0</ele>
        <time>2018-06-24T13:18:37Z</time>
      </trkpt>
      <trkpt lat="40.252633" lon="-4.902533">
        <ele>1473.0</ele>
        <time>2018-06-24T13:18:38Z</time>
      </trkpt>
      <trkpt lat="40.252683" lon="-4.902617">
        <ele>1472.0</ele>
        <time>2018-06-24T13:18:39Z</time>
      </trkpt>
      <trkpt lat="40.252733" lon="-4.902717">
        <ele>1471.0</ele>
        <time>2018-06-24T13:18:40Z</time>
      </trkpt>
      <trkpt lat="40.252767" lon="-4.902817">
        <ele>1470.0</ele>
        <time>2018-06-24T13:18:41Z</time>
      </trkpt>
      <trkpt lat="40.252817" lon="-4.902917">
        <ele>1469.0</ele>
        <time>2018-06-24T13:18:42Z</time>
      </trkpt>
      <trkpt lat="40.252867" lon="-4.903000">
        <ele>1468.0</ele>
        <time>2018-06-24T13:18:43Z</time>
      </trkpt>
      <trkpt lat="40.252917" lon="-4.903100">
        <ele>1467.0</ele>
        <time>2018-06-24T13:18:44Z</time>
      </trkpt>
      <trkpt lat="40.252950" lon="-4.903200">
        <ele>1465.0</ele>
        <time>2018-06-24T13:18:45Z</time>
      </trkpt>
      <trkpt lat="40.253000" lon="-4.903300">
        <ele>1464.0</ele>
        <time>2018-06-24T13:18:46Z</time>
      </trkpt>
      <trkpt lat="40.253050" lon="-4.903400">
        <ele>1463.0</ele>
        <time>2018-06-24T13:18:47Z</time>
      </trkpt>
      <trkpt lat="40.253083" lon="-4.903500">
        <ele>1462.0</ele>
        <time>2018-06-24T13:18:48Z</time>
      </trkpt>
      <trkpt lat="40.253133" lon="-4.903600">
        <ele>1461.0</ele>
        <time>2018-06-24T13:18:49Z</time>
      </trkpt>
      <trkpt lat="40.253183" lon="-4.903700">
        <ele>1459.0</ele>
        <time>2018-06-24T13:18:50Z</time>
      </trkpt>
      <trkpt lat="40.253233" lon="-4.903783">
        <ele>1457.0</ele>
        <time>2018-06-24T13:18:51Z</time>
      </trkpt>
      <trkpt lat="40.253283" lon="-4.903883">
        <ele>1455.0</ele>
        <time>2018-06-24T13:18:52Z</time>
      </trkpt>
      <trkpt lat="40.253333" lon="-4.903983">
        <ele>1453.0</ele>
        <time>2018-06-24T13:18:53Z</time>
      </trkpt>
      <trkpt lat="40.253383" lon="-4.904083">
        <ele>1451.0</ele>
        <time>2018-06-24T13:18:54Z</time>
      </trkpt>
      <trkpt lat="40.253433" lon="-4.904183">
        <ele>1449.0</ele>
        <time>2018-06-24T13:18:55Z</time>
      </trkpt>
      <trkpt lat="40.253483" lon="-4.904283">
        <ele>1447.0</ele>
        <time>2018-06-24T13:18:56Z</time>
      </trkpt>
      <trkpt lat="40.253517" lon="-4.904400">
        <ele>1445.0</ele>
        <time>2018-06-24T13:18:57Z</time>
      </trkpt>
      <trkpt lat="40.253533" lon="-4.904500">
        <ele>1442.0</ele>
        <time>2018-06-24T13:18:58Z</time>
      </trkpt>
      <trkpt lat="40.253567" lon="-4.904600">
        <ele>1440.0</ele>
        <time>2018-06-24T13:18:59Z</time>
      </trkpt>
      <trkpt lat="40.253600" lon="-4.904700">
        <ele>1436.0</ele>
        <time>2018-06-24T13:19:00Z</time>
      </trkpt>
      <trkpt lat="40.253633" lon="-4.904800">
        <ele>1433.0</ele>
        <time>2018-06-24T13:19:01Z</time>
      </trkpt>
      <trkpt lat="40.253683" lon="-4.904900">
        <ele>1429.0</ele>
        <time>2018-06-24T13:19:02Z</time>
      </trkpt>
      <trkpt lat="40.253750" lon="-4.905000">
        <ele>1425.0</ele>
        <time>2018-06-24T13:19:03Z</time>
      </trkpt>
      <trkpt lat="40.253817" lon="-4.905100">
        <ele>1421.0</ele>
        <time>2018-06-24T13:19:04Z</time>
      </trkpt>
      <trkpt lat="40.253900" lon="-4.905200">
        <ele>1418.0</ele>
        <time>2018-06-24T13:19:05Z</time>
      </trkpt>
      <trkpt lat="40.254000" lon="-4.905283">
        <ele>1415.0</ele>
        <time>2018-06-24T13:19:06Z</time>
      </trkpt>
      <trkpt lat="40.254083" lon="-4.905367">
        <ele>1413.0</ele>
        <time>2018-06-24T13:19:07Z</time>
      </trkpt>
      <trkpt lat="40.254167" lon="-4.905450">
        <ele>1411.0</ele>
        <time>2018-06-24T13:19:08Z</time>
      </trkpt>
      <trkpt lat="40.254250" lon="-4.905517">
        <ele>1410.0</ele>
        <time>2018-06-24T13:19:09Z</time>
      </trkpt>
      <trkpt lat="40.254333" lon="-4.905583">
        <ele>1408.0</ele>
        <time>2018-06-24T13:19:10Z</time>
      </trkpt>
      <trkpt lat="40.254417" lon="-4.905667">
        <ele>1406.0</ele>
        <time>2018-06-24T13:19:11Z</time>
      </trkpt>
      <trkpt lat="40.254500" lon="-4.905733">
        <ele>1403.0</ele>
        <time>2018-06-24T13:19:12Z</time>
      </trkpt>
      <trkpt lat="40.254600" lon="-4.905817">
        <ele>1401.0</ele>
        <time>2018-06-24T13:19:13Z</time>
      </trkpt>
      <trkpt lat="40.254700" lon="-4.905867">
        <ele>1399.0</ele>
        <time>2018-06-24T13:19:14Z</time>
      </trkpt>
      <trkpt lat="40.254800" lon="-4.905900">
        <ele>1397.0</ele>
        <time>2018-06-24T13:19:15Z</time>
      </trkpt>
      <trkpt lat="40.254900" lon="-4.905950">
        <ele>1396.0</ele>
        <time>2018-06-24T13:19:16Z</time>
      </trkpt>
      <trkpt lat="40.255000" lon="-4.905983">
        <ele>1394.0</ele>
        <time>2018-06-24T13:19:17Z</time>
      </trkpt>
      <trkpt lat="40.255100" lon="-4.906050">
        <ele>1393.0</ele>
        <time>2018-06-24T13:19:18Z</time>
      </trkpt>
      <trkpt lat="40.255200" lon="-4.906117">
        <ele>1391.0</ele>
        <time>2018-06-24T13:19:19Z</time>
      </trkpt>
      <trkpt lat="40.255283" lon="-4.906183">
        <ele>1388.0</ele>
        <time>2018-06-24T13:19:20Z</time>
      </trkpt>
      <trkpt lat="40.255367" lon="-4.906283">
        <ele>1386.0</ele>
        <time>2018-06-24T13:19:21Z</time>
      </trkpt>
      <trkpt lat="40.255450" lon="-4.906383">
        <ele>1384.0</ele>
        <time>2018-06-24T13:19:22Z</time>
      </trkpt>
      <trkpt lat="40.255517" lon="-4.906500">
        <ele>1383.0</ele>
        <time>2018-06-24T13:19:23Z</time>
      </trkpt>
      <trkpt lat="40.255583" lon="-4.906617">
        <ele>1382.0</ele>
        <time>2018-06-24T13:19:24Z</time>
      </trkpt>
      <trkpt lat="40.255650" lon="-4.906733">
        <ele>1382.0</ele>
        <time>2018-06-24T13:19:25Z</time>
      </trkpt>
      <trkpt lat="40.255717" lon="-4.906833">
        <ele>1381.0</ele>
        <time>2018-06-24T13:19:26Z</time>
      </trkpt>
      <trkpt lat="40.255783" lon="-4.906950">
        <ele>1380.0</ele>
        <time>2018-06-24T13:19:27Z</time>
      </trkpt>
      <trkpt lat="40.255850" lon="-4.907050">
        <ele>1379.0</ele>
        <time>2018-06-24T13:19:28Z</time>
      </trkpt>
      <trkpt lat="40.255900" lon="-4.907167">
        <ele>1378.0</ele>
        <time>2018-06-24T13:19:29Z</time>
      </trkpt>
      <trkpt lat="40.255967" lon="-4.907283">
        <ele>1377.0</ele>
        <time>2018-06-24T13:19:30Z</time>
      </trkpt>
      <trkpt lat="40.256017" lon="-4.907383">
        <ele>1377.0</ele>
        <time>2018-06-24T13:19:31Z</time>
      </trkpt>
      <trkpt lat="40.256100" lon="-4.907483">
        <ele>1376.0</ele>
        <time>2018-06-24T13:19:32Z</time>
      </trkpt>
      <trkpt lat="40.256167" lon="-4.907583">
        <ele>1375.0</ele>
        <time>2018-06-24T13:19:33Z</time>
      </trkpt>
      <trkpt lat="40.256250" lon="-4.907667">
        <ele>1374.0</ele>
        <time>2018-06-24T13:19:34Z</time>
      </trkpt>
      <trkpt lat="40.256317" lon="-4.907767">
        <ele>1373.0</ele>
        <time>2018-06-24T13:19:35Z</time>
      </trkpt>
      <trkpt lat="40.256383" lon="-4.907867">
        <ele>1372.0</ele>
        <time>2018-06-24T13:19:36Z</time>
      </trkpt>
      <trkpt lat="40.256433" lon="-4.907983">
        <ele>1370.0</ele>
        <time>2018-06-24T13:19:37Z</time>
      </trkpt>
      <trkpt lat="40.256467" lon="-4.908100">
        <ele>1369.0</ele>
        <time>2018-06-24T13:19:38Z</time>
      </trkpt>
      <trkpt lat="40.256500" lon="-4.908233">
        <ele>1368.0</ele>
        <time>2018-06-24T13:19:39Z</time>
      </trkpt>
      <trkpt lat="40.256500" lon="-4.908350">
        <ele>1367.0</ele>
        <time>2018-06-24T13:19:40Z</time>
      </trkpt>
      <trkpt lat="40.256517" lon="-4.908450">
        <ele>1367.0</ele>
        <time>2018-06-24T13:19:41Z</time>
      </trkpt>
      <trkpt lat="40.256517" lon="-4.908567">
        <ele>1366.0</ele>
        <time>2018-06-24T13:19:42Z</time>
      </trkpt>
      <trkpt lat="40.256517" lon="-4.908667">
        <ele>1365.0</ele>
        <time>2018-06-24T13:19:43Z</time>
      </trkpt>
      <trkpt lat="40.256550" lon="-4.908783">
        <ele>1363.0</ele>
        <time>2018-06-24T13:19:44Z</time>
      </trkpt>
      <trkpt lat="40.256567" lon="-4.908900">
        <ele>1360.0</ele>
        <time>2018-06-24T13:19:45Z</time>
      </trkpt>
      <trkpt lat="40.256583" lon="-4.909033">
        <ele>1358.0</ele>
        <time>2018-06-24T13:19:46Z</time>
      </trkpt>
      <trkpt lat="40.256600" lon="-4.909167">
        <ele>1357.0</ele>
        <time>2018-06-24T13:19:47Z</time>
      </trkpt>
      <trkpt lat="40.256633" lon="-4.909300">
        <ele>1357.0</ele>
        <time>2018-06-24T13:19:48Z</time>
      </trkpt>
      <trkpt lat="40.256650" lon="-4.909433">
        <ele>1358.0</ele>
        <time>2018-06-24T13:19:49Z</time>
      </trkpt>
      <trkpt lat="40.256700" lon="-4.909550">
        <ele>1358.0</ele>
        <time>2018-06-24T13:19:50Z</time>
      </trkpt>
      <trkpt lat="40.256733" lon="-4.909667">
        <ele>1359.0</ele>
        <time>2018-06-24T13:19:51Z</time>
      </trkpt>
      <trkpt lat="40.256767" lon="-4.909783">
        <ele>1359.0</ele>
        <time>2018-06-24T13:19:52Z</time>
      </trkpt>
      <trkpt lat="40.256800" lon="-4.909900">
        <ele>1359.0</ele>
        <time>2018-06-24T13:19:53Z</time>
      </trkpt>
      <trkpt lat="40.256817" lon="-4.910017">
        <ele>1358.0</ele>
        <time>2018-06-24T13:19:54Z</time>
      </trkpt>
      <trkpt lat="40.256833" lon="-4.910150">
        <ele>1358.0</ele>
        <time>2018-06-24T13:19:55Z</time>
      </trkpt>
      <trkpt lat="40.256850" lon="-4.910300">
        <ele>1358.0</ele>
        <time>2018-06-24T13:19:56Z</time>
      </trkpt>
      <trkpt lat="40.256867" lon="-4.910433">
        <ele>1359.0</ele>
        <time>2018-06-24T13:19:57Z</time>
      </trkpt>
      <trkpt lat="40.256883" lon="-4.910567">
        <ele>1360.0</ele>
        <time>2018-06-24T13:19:58Z</time>
      </trkpt>
      <trkpt lat="40.256900" lon="-4.910683">
        <ele>1361.0</ele>
        <time>2018-06-24T13:19:59Z</time>
      </trkpt>
      <trkpt lat="40.256933" lon="-4.910800">
        <ele>1361.0</ele>
        <time>2018-06-24T13:20:00Z</time>
      </trkpt>
      <trkpt lat="40.256950" lon="-4.910917">
        <ele>1361.0</ele>
        <time>2018-06-24T13:20:01Z</time>
      </trkpt>
      <trkpt lat="40.256983" lon="-4.911033">
        <ele>1361.0</ele>
        <time>2018-06-24T13:20:02Z</time>
      </trkpt>
      <trkpt lat="40.257000" lon="-4.911150">
        <ele>1360.0</ele>
        <time>2018-06-24T13:20:03Z</time>
      </trkpt>
      <trkpt lat="40.257000" lon="-4.911283">
        <ele>1360.0</ele>
        <time>2018-06-24T13:20:04Z</time>
      </trkpt>
      <trkpt lat="40.257017" lon="-4.911400">
        <ele>1360.0</ele>
        <time>2018-06-24T13:20:05Z</time>
      </trkpt>
      <trkpt lat="40.257050" lon="-4.911500">
        <ele>1359.0</ele>
        <time>2018-06-24T13:20:06Z</time>
      </trkpt>
      <trkpt lat="40.257100" lon="-4.911617">
        <ele>1358.0</ele>
        <time>2018-06-24T13:20:07Z</time>
      </trkpt>
      <trkpt lat="40.257150" lon="-4.911733">
        <ele>1356.0</ele>
        <time>2018-06-24T13:20:08Z</time>
      </trkpt>
      <trkpt lat="40.257217" lon="-4.911867">
        <ele>1355.0</ele>
        <time>2018-06-24T13:20:09Z</time>
      </trkpt>
      <trkpt lat="40.257267" lon="-4.911983">
        <ele>1355.0</ele>
        <time>2018-06-24T13:20:10Z</time>
      </trkpt>
      <trkpt lat="40.257317" lon="-4.912117">
        <ele>1355.0</ele>
        <time>2018-06-24T13:20:11Z</time>
      </trkpt>
      <trkpt lat="40.257367" lon="-4.912233">
        <ele>1355.0</ele>
        <time>2018-06-24T13:20:12Z</time>
      </trkpt>
      <trkpt lat="40.257400" lon="-4.912333">
        <ele>1355.0</ele>
        <time>2018-06-24T13:20:13Z</time>
      </trkpt>
      <trkpt lat="40.257433" lon="-4.912450">
        <ele>1355.0</ele>
        <time>2018-06-24T13:20:14Z</time>
      </trkpt>
      <trkpt lat="40.257467" lon="-4.912583">
        <ele>1355.0</ele>
        <time>2018-06-24T13:20:15Z</time>
      </trkpt>
      <trkpt lat="40.257517" lon="-4.912717">
        <ele>1356.0</ele>
        <time>2018-06-24T13:20:16Z</time>
      </trkpt>
      <trkpt lat="40.257550" lon="-4.912833">
        <ele>1357.0</ele>
        <time>2018-06-24T13:20:17Z</time>
      </trkpt>
      <trkpt lat="40.257567" lon="-4.912967">
        <ele>1358.0</ele>
        <time>2018-06-24T13:20:18Z</time>
      </trkpt>
      <trkpt lat="40.257583" lon="-4.913083">
        <ele>1357.0</ele>
        <time>2018-06-24T13:20:19Z</time>
      </trkpt>
      <trkpt lat="40.257583" lon="-4.913200">
        <ele>1356.0</ele>
        <time>2018-06-24T13:20:20Z</time>
      </trkpt>
      <trkpt lat="40.257583" lon="-4.913333">
        <ele>1355.0</ele>
        <time>2018-06-24T13:20:21Z</time>
      </trkpt>
      <trkpt lat="40.257583" lon="-4.913467">
        <ele>1355.0</ele>
        <time>2018-06-24T13:20:22Z</time>
      </trkpt>
      <trkpt lat="40.257567" lon="-4.913600">
        <ele>1355.0</ele>
        <time>2018-06-24T13:20:23Z</time>
      </trkpt>
      <trkpt lat="40.257567" lon="-4.913733">
        <ele>1355.0</ele>
        <time>2018-06-24T13:20:24Z</time>
      </trkpt>
      <trkpt lat="40.257567" lon="-4.913850">
        <ele>1355.0</ele>
        <time>2018-06-24T13:20:25Z</time>
      </trkpt>
      <trkpt lat="40.257567" lon="-4.913983">
        <ele>1356.0</ele>
        <time>2018-06-24T13:20:26Z</time>
      </trkpt>
      <trkpt lat="40.257567" lon="-4.914100">
        <ele>1355.0</ele>
        <time>2018-06-24T13:20:27Z</time>
      </trkpt>
      <trkpt lat="40.257583" lon="-4.914233">
        <ele>1355.0</ele>
        <time>2018-06-24T13:20:28Z</time>
      </trkpt>
      <trkpt lat="40.257617" lon="-4.914350">
        <ele>1355.0</ele>
        <time>2018-06-24T13:20:29Z</time>
      </trkpt>
      <trkpt lat="40.257650" lon="-4.914467">
        <ele>1354.0</ele>
        <time>2018-06-24T13:20:30Z</time>
      </trkpt>
      <trkpt lat="40.257717" lon="-4.914583">
        <ele>1354.0</ele>
        <time>2018-06-24T13:20:31Z</time>
      </trkpt>
      <trkpt lat="40.257817" lon="-4.914700">
        <ele>1354.0</ele>
        <time>2018-06-24T13:20:32Z</time>
      </trkpt>
      <trkpt lat="40.257917" lon="-4.914800">
        <ele>1356.0</ele>
        <time>2018-06-24T13:20:33Z</time>
      </trkpt>
      <trkpt lat="40.258017" lon="-4.914867">
        <ele>1359.0</ele>
        <time>2018-06-24T13:20:34Z</time>
      </trkpt>
      <trkpt lat="40.258100" lon="-4.914917">
        <ele>1361.0</ele>
        <time>2018-06-24T13:20:35Z</time>
      </trkpt>
      <trkpt lat="40.258183" lon="-4.914950">
        <ele>1362.0</ele>
        <time>2018-06-24T13:20:36Z</time>
      </trkpt>
      <trkpt lat="40.258283" lon="-4.914950">
        <ele>1361.0</ele>
        <time>2018-06-24T13:20:37Z</time>
      </trkpt>
      <trkpt lat="40.258383" lon="-4.914917">
        <ele>1360.0</ele>
        <time>2018-06-24T13:20:38Z</time>
      </trkpt>
      <trkpt lat="40.258500" lon="-4.914850">
        <ele>1359.0</ele>
        <time>2018-06-24T13:20:39Z</time>
      </trkpt>
      <trkpt lat="40.258600" lon="-4.914767">
        <ele>1360.0</ele>
        <time>2018-06-24T13:20:40Z</time>
      </trkpt>
      <trkpt lat="40.258650" lon="-4.914633">
        <ele>1362.0</ele>
        <time>2018-06-24T13:20:41Z</time>
      </trkpt>
      <trkpt lat="40.258700" lon="-4.914517">
        <ele>1363.0</ele>
        <time>2018-06-24T13:20:42Z</time>
      </trkpt>
      <trkpt lat="40.258717" lon="-4.914383">
        <ele>1364.0</ele>
        <time>2018-06-24T13:20:43Z</time>
      </trkpt>
      <trkpt lat="40.258750" lon="-4.914233">
        <ele>1366.0</ele>
        <time>2018-06-24T13:20:44Z</time>
      </trkpt>
      <trkpt lat="40.258800" lon="-4.914117">
        <ele>1367.0</ele>
        <time>2018-06-24T13:20:45Z</time>
      </trkpt>
      <trkpt lat="40.258850" lon="-4.913983">
        <ele>1369.0</ele>
        <time>2018-06-24T13:20:46Z</time>
      </trkpt>
      <trkpt lat="40.258883" lon="-4.913850">
        <ele>1371.0</ele>
        <time>2018-06-24T13:20:47Z</time>
      </trkpt>
      <trkpt lat="40.258883" lon="-4.913717">
        <ele>1372.0</ele>
        <time>2018-06-24T13:20:48Z</time>
      </trkpt>
      <trkpt lat="40.258850" lon="-4.913583">
        <ele>1372.0</ele>
        <time>2018-06-24T13:20:49Z</time>
      </trkpt>
      <trkpt lat="40.258800" lon="-4.913500">
        <ele>1372.0</ele>
        <time>2018-06-24T13:20:50Z</time>
      </trkpt>
      <trkpt lat="40.258733" lon="-4.913433">
        <ele>1373.0</ele>
        <time>2018-06-24T13:20:51Z</time>
      </trkpt>
      <trkpt lat="40.258650" lon="-4.913417">
        <ele>1374.0</ele>
        <time>2018-06-24T13:20:52Z</time>
      </trkpt>
      <trkpt lat="40.258583" lon="-4.913400">
        <ele>1375.0</ele>
        <time>2018-06-24T13:20:53Z</time>
      </trkpt>
      <trkpt lat="40.258517" lon="-4.913433">
        <ele>1376.0</ele>
        <time>2018-06-24T13:20:54Z</time>
      </trkpt>
      <trkpt lat="40.258450" lon="-4.913483">
        <ele>1377.0</ele>
        <time>2018-06-24T13:20:55Z</time>
      </trkpt>
      <trkpt lat="40.258400" lon="-4.913583">
        <ele>1377.0</ele>
        <time>2018-06-24T13:20:56Z</time>
      </trkpt>
      <trkpt lat="40.258383" lon="-4.913700">
        <ele>1378.0</ele>
        <time>2018-06-24T13:20:57Z</time>
      </trkpt>
      <trkpt lat="40.258383" lon="-4.913833">
        <ele>1379.0</ele>
        <time>2018-06-24T13:20:58Z</time>
      </trkpt>
      <trkpt lat="40.258433" lon="-4.913967">
        <ele>1380.0</ele>
        <time>2018-06-24T13:20:59Z</time>
      </trkpt>
      <trkpt lat="40.258517" lon="-4.914067">
        <ele>1381.0</ele>
        <time>2018-06-24T13:21:00Z</time>
      </trkpt>
      <trkpt lat="40.258617" lon="-4.914117">
        <ele>1382.0</ele>
        <time>2018-06-24T13:21:01Z</time>
      </trkpt>
      <trkpt lat="40.258733" lon="-4.914133">
        <ele>1384.0</ele>
        <time>2018-06-24T13:21:02Z</time>
      </trkpt>
      <trkpt lat="40.258833" lon="-4.914100">
        <ele>1384.0</ele>
        <time>2018-06-24T13:21:03Z</time>
      </trkpt>
      <trkpt lat="40.258933" lon="-4.914000">
        <ele>1385.0</ele>
        <time>2018-06-24T13:21:04Z</time>
      </trkpt>
      <trkpt lat="40.259000" lon="-4.913883">
        <ele>1384.0</ele>
        <time>2018-06-24T13:21:05Z</time>
      </trkpt>
      <trkpt lat="40.259033" lon="-4.913733">
        <ele>1384.0</ele>
        <time>2018-06-24T13:21:06Z</time>
      </trkpt>
      <trkpt lat="40.259017" lon="-4.913583">
        <ele>1384.0</ele>
        <time>2018-06-24T13:21:07Z</time>
      </trkpt>
      <trkpt lat="40.258967" lon="-4.913467">
        <ele>1385.0</ele>
        <time>2018-06-24T13:21:08Z</time>
      </trkpt>
      <trkpt lat="40.258883" lon="-4.913383">
        <ele>1386.0</ele>
        <time>2018-06-24T13:21:09Z</time>
      </trkpt>
      <trkpt lat="40.258817" lon="-4.913333">
        <ele>1389.0</ele>
        <time>2018-06-24T13:21:10Z</time>
      </trkpt>
      <trkpt lat="40.258750" lon="-4.913300">
        <ele>1393.0</ele>
        <time>2018-06-24T13:21:11Z</time>
      </trkpt>
      <trkpt lat="40.258683" lon="-4.913267">
        <ele>1395.0</ele>
        <time>2018-06-24T13:21:12Z</time>
      </trkpt>
      <trkpt lat="40.258633" lon="-4.913217">
        <ele>1396.0</ele>
        <time>2018-06-24T13:21:13Z</time>
      </trkpt>
      <trkpt lat="40.258583" lon="-4.913167">
        <ele>1397.0</ele>
        <time>2018-06-24T13:21:14Z</time>
      </trkpt>
      <trkpt lat="40.258533" lon="-4.913133">
        <ele>1396.0</ele>
        <time>2018-06-24T13:21:15Z</time>
      </trkpt>
      <trkpt lat="40.258467" lon="-4.913150">
        <ele>1395.0</ele>
        <time>2018-06-24T13:21:16Z</time>
      </trkpt>
      <trkpt lat="40.258400" lon="-4.913200">
        <ele>1393.0</ele>
        <time>2018-06-24T13:21:17Z</time>
      </trkpt>
      <trkpt lat="40.258350" lon="-4.913317">
        <ele>1392.0</ele>
        <time>2018-06-24T13:21:18Z</time>
      </trkpt>
      <trkpt lat="40.258333" lon="-4.913433">
        <ele>1391.0</ele>
        <time>2018-06-24T13:21:19Z</time>
      </trkpt>
      <trkpt lat="40.258367" lon="-4.913567">
        <ele>1391.0</ele>
        <time>2018-06-24T13:21:20Z</time>
      </trkpt>
      <trkpt lat="40.258433" lon="-4.913667">
        <ele>1391.0</ele>
        <time>2018-06-24T13:21:21Z</time>
      </trkpt>
      <trkpt lat="40.258533" lon="-4.913750">
        <ele>1390.0</ele>
        <time>2018-06-24T13:21:22Z</time>
      </trkpt>
      <trkpt lat="40.258650" lon="-4.913767">
        <ele>1390.0</ele>
        <time>2018-06-24T13:21:23Z</time>
      </trkpt>
      <trkpt lat="40.258767" lon="-4.913717">
        <ele>1390.0</ele>
        <time>2018-06-24T13:21:24Z</time>
      </trkpt>
      <trkpt lat="40.258867" lon="-4.913650">
        <ele>1391.0</ele>
        <time>2018-06-24T13:21:25Z</time>
      </trkpt>
      <trkpt lat="40.258950" lon="-4.913550">
        <ele>1393.0</ele>
        <time>2018-06-24T13:21:26Z</time>
      </trkpt>
      <trkpt lat="40.259017" lon="-4.913433">
        <ele>1394.0</ele>
        <time>2018-06-24T13:21:27Z</time>
      </trkpt>
      <trkpt lat="40.259050" lon="-4.913317">
        <ele>1396.0</ele>
        <time>2018-06-24T13:21:28Z</time>
      </trkpt>
      <trkpt lat="40.259100" lon="-4.913200">
        <ele>1397.0</ele>
        <time>2018-06-24T13:21:29Z</time>
      </trkpt>
      <trkpt lat="40.259133" lon="-4.913067">
        <ele>1398.0</ele>
        <time>2018-06-24T13:21:30Z</time>
      </trkpt>
      <trkpt lat="40.259167" lon="-4.912933">
        <ele>1400.0</ele>
        <time>2018-06-24T13:21:31Z</time>
      </trkpt>
      <trkpt lat="40.259183" lon="-4.912800">
        <ele>1402.0</ele>
        <time>2018-06-24T13:21:32Z</time>
      </trkpt>
      <trkpt lat="40.259183" lon="-4.912667">
        <ele>1404.0</ele>
        <time>2018-06-24T13:21:33Z</time>
      </trkpt>
      <trkpt lat="40.259183" lon="-4.912550">
        <ele>1406.0</ele>
        <time>2018-06-24T13:21:34Z</time>
      </trkpt>
      <trkpt lat="40.259183" lon="-4.912433">
        <ele>1408.0</ele>
        <time>2018-06-24T13:21:35Z</time>
      </trkpt>
      <trkpt lat="40.259200" lon="-4.912317">
        <ele>1409.0</ele>
        <time>2018-06-24T13:21:36Z</time>
      </trkpt>
      <trkpt lat="40.259250" lon="-4.912200">
        <ele>1409.0</ele>
        <time>2018-06-24T13:21:37Z</time>
      </trkpt>
      <trkpt lat="40.259283" lon="-4.912067">
        <ele>1409.0</ele>
        <time>2018-06-24T13:21:38Z</time>
      </trkpt>
      <trkpt lat="40.259317" lon="-4.911950">
        <ele>1410.0</ele>
        <time>2018-06-24T13:21:39Z</time>
      </trkpt>
      <trkpt lat="40.259300" lon="-4.911833">
        <ele>1409.0</ele>
        <time>2018-06-24T13:21:40Z</time>
      </trkpt>
      <trkpt lat="40.259250" lon="-4.911717">
        <ele>1408.0</ele>
        <time>2018-06-24T13:21:41Z</time>
      </trkpt>
      <trkpt lat="40.259183" lon="-4.911633">
        <ele>1407.0</ele>
        <time>2018-06-24T13:21:42Z</time>
      </trkpt>
      <trkpt lat="40.259100" lon="-4.911600">
        <ele>1407.0</ele>
        <time>2018-06-24T13:21:43Z</time>
      </trkpt>
      <trkpt lat="40.259017" lon="-4.911583">
        <ele>1409.0</ele>
        <time>2018-06-24T13:21:44Z</time>
      </trkpt>
      <trkpt lat="40.258950" lon="-4.911617">
        <ele>1409.0</ele>
        <time>2018-06-24T13:21:45Z</time>
      </trkpt>
      <trkpt lat="40.258883" lon="-4.911683">
        <ele>1407.0</ele>
        <time>2018-06-24T13:21:46Z</time>
      </trkpt>
      <trkpt lat="40.258850" lon="-4.911783">
        <ele>1406.0</ele>
        <time>2018-06-24T13:21:47Z</time>
      </trkpt>
      <trkpt lat="40.258817" lon="-4.911917">
        <ele>1405.0</ele>
        <time>2018-06-24T13:21:48Z</time>
      </trkpt>
      <trkpt lat="40.258817" lon="-4.912033">
        <ele>1405.0</ele>
        <time>2018-06-24T13:21:49Z</time>
      </trkpt>
      <trkpt lat="40.258833" lon="-4.912167">
        <ele>1404.0</ele>
        <time>2018-06-24T13:21:50Z</time>
      </trkpt>
      <trkpt lat="40.258883" lon="-4.912283">
        <ele>1404.0</ele>
        <time>2018-06-24T13:21:51Z</time>
      </trkpt>
      <trkpt lat="40.258917" lon="-4.912400">
        <ele>1404.0</ele>
        <time>2018-06-24T13:21:52Z</time>
      </trkpt>
      <trkpt lat="40.258967" lon="-4.912517">
        <ele>1403.0</ele>
        <time>2018-06-24T13:21:53Z</time>
      </trkpt>
      <trkpt lat="40.259033" lon="-4.912633">
        <ele>1403.0</ele>
        <time>2018-06-24T13:21:54Z</time>
      </trkpt>
      <trkpt lat="40.259083" lon="-4.912750">
        <ele>1403.0</ele>
        <time>2018-06-24T13:21:55Z</time>
      </trkpt>
      <trkpt lat="40.259117" lon="-4.912883">
        <ele>1404.0</ele>
        <time>2018-06-24T13:21:56Z</time>
      </trkpt>
      <trkpt lat="40.259150" lon="-4.913000">
        <ele>1406.0</ele>
        <time>2018-06-24T13:21:57Z</time>
      </trkpt>
      <trkpt lat="40.259167" lon="-4.913133">
        <ele>1407.0</ele>
        <time>2018-06-24T13:21:58Z</time>
      </trkpt>
      <trkpt lat="40.259167" lon="-4.913250">
        <ele>1409.0</ele>
        <time>2018-06-24T13:21:59Z</time>
      </trkpt>
      <trkpt lat="40.259167" lon="-4.913367">
        <ele>1411.0</ele>
        <time>2018-06-24T13:22:00Z</time>
      </trkpt>
      <trkpt lat="40.259167" lon="-4.913483">
        <ele>1413.0</ele>
        <time>2018-06-24T13:22:01Z</time>
      </trkpt>
      <trkpt lat="40.259200" lon="-4.913567">
        <ele>1414.0</ele>
        <time>2018-06-24T13:22:02Z</time>
      </trkpt>
      <trkpt lat="40.259267" lon="-4.913650">
        <ele>1413.0</ele>
        <time>2018-06-24T13:22:03Z</time>
      </trkpt>
      <trkpt lat="40.259367" lon="-4.913717">
        <ele>1413.0</ele>
        <time>2018-06-24T13:22:04Z</time>
      </trkpt>
      <trkpt lat="40.259483" lon="-4.913733">
        <ele>1414.0</ele>
        <time>2018-06-24T13:22:05Z</time>
      </trkpt>
      <trkpt lat="40.259583" lon="-4.913717">
        <ele>1415.0</ele>
        <time>2018-06-24T13:22:06Z</time>
      </trkpt>
      <trkpt lat="40.259683" lon="-4.913650">
        <ele>1416.0</ele>
        <time>2018-06-24T13:22:07Z</time>
      </trkpt>
      <trkpt lat="40.259767" lon="-4.913533">
        <ele>1416.0</ele>
        <time>2018-06-24T13:22:08Z</time>
      </trkpt>
      <trkpt lat="40.259817" lon="-4.913417">
        <ele>1415.0</ele>
        <time>2018-06-24T13:22:09Z</time>
      </trkpt>
      <trkpt lat="40.259850" lon="-4.913267">
        <ele>1414.0</ele>
        <time>2018-06-24T13:22:10Z</time>
      </trkpt>
      <trkpt lat="40.259833" lon="-4.913100">
        <ele>1413.0</ele>
        <time>2018-06-24T13:22:11Z</time>
      </trkpt>
      <trkpt lat="40.259800" lon="-4.912967">
        <ele>1413.0</ele>
        <time>2018-06-24T13:22:12Z</time>
      </trkpt>
      <trkpt lat="40.259750" lon="-4.912850">
        <ele>1413.0</ele>
        <time>2018-06-24T13:22:13Z</time>
      </trkpt>
      <trkpt lat="40.259667" lon="-4.912767">
        <ele>1414.0</ele>
        <time>2018-06-24T13:22:14Z</time>
      </trkpt>
      <trkpt lat="40.259583" lon="-4.912717">
        <ele>1414.0</ele>
        <time>2018-06-24T13:22:15Z</time>
      </trkpt>
      <trkpt lat="40.259500" lon="-4.912683">
        <ele>1416.0</ele>
        <time>2018-06-24T13:22:16Z</time>
      </trkpt>
      <trkpt lat="40.259417" lon="-4.912650">
        <ele>1419.0</ele>
        <time>2018-06-24T13:22:17Z</time>
      </trkpt>
      <trkpt lat="40.259350" lon="-4.912650">
        <ele>1421.0</ele>
        <time>2018-06-24T13:22:18Z</time>
      </trkpt>
      <trkpt lat="40.259283" lon="-4.912633">
        <ele>1422.0</ele>
        <time>2018-06-24T13:22:19Z</time>
      </trkpt>
      <trkpt lat="40.259233" lon="-4.912600">
        <ele>1422.0</ele>
        <time>2018-06-24T13:22:20Z</time>
      </trkpt>
      <trkpt lat="40.259183" lon="-4.912550">
        <ele>1421.0</ele>
        <time>2018-06-24T13:22:21Z</time>
      </trkpt>
      <trkpt lat="40.259150" lon="-4.912467">
        <ele>1419.0</ele>
        <time>2018-06-24T13:22:22Z</time>
      </trkpt>
      <trkpt lat="40.259133" lon="-4.912333">
        <ele>1417.0</ele>
        <time>2018-06-24T13:22:23Z</time>
      </trkpt>
      <trkpt lat="40.259150" lon="-4.912200">
        <ele>1416.0</ele>
        <time>2018-06-24T13:22:24Z</time>
      </trkpt>
      <trkpt lat="40.259217" lon="-4.912083">
        <ele>1415.0</ele>
        <time>2018-06-24T13:22:25Z</time>
      </trkpt>
      <trkpt lat="40.259317" lon="-4.912000">
        <ele>1414.0</ele>
        <time>2018-06-24T13:22:26Z</time>
      </trkpt>
      <trkpt lat="40.259433" lon="-4.911950">
        <ele>1413.0</ele>
        <time>2018-06-24T13:22:27Z</time>
      </trkpt>
      <trkpt lat="40.259550" lon="-4.911967">
        <ele>1412.0</ele>
        <time>2018-06-24T13:22:28Z</time>
      </trkpt>
      <trkpt lat="40.259667" lon="-4.912017">
        <ele>1412.0</ele>
        <time>2018-06-24T13:22:29Z</time>
      </trkpt>
      <trkpt lat="40.259750" lon="-4.912100">
        <ele>1413.0</ele>
        <time>2018-06-24T13:22:30Z</time>
      </trkpt>
      <trkpt lat="40.259817" lon="-4.912200">
        <ele>1414.0</ele>
        <time>2018-06-24T13:22:31Z</time>
      </trkpt>
      <trkpt lat="40.259883" lon="-4.912300">
        <ele>1415.0</ele>
        <time>2018-06-24T13:22:32Z</time>
      </trkpt>
      <trkpt lat="40.259917" lon="-4.912400">
        <ele>1416.0</ele>
        <time>2018-06-24T13:22:33Z</time>
      </trkpt>
      <trkpt lat="40.259967" lon="-4.912500">
        <ele>1417.0</ele>
        <time>2018-06-24T13:22:34Z</time>
      </trkpt>
      <trkpt lat="40.260017" lon="-4.912600">
        <ele>1418.0</ele>
        <time>2018-06-24T13:22:35Z</time>
      </trkpt>
      <trkpt lat="40.260050" lon="-4.912717">
        <ele>1418.0</ele>
        <time>2018-06-24T13:22:36Z</time>
      </trkpt>
      <trkpt lat="40.260067" lon="-4.912817">
        <ele>1419.0</ele>
        <time>2018-06-24T13:22:37Z</time>
      </trkpt>
      <trkpt lat="40.260067" lon="-4.912933">
        <ele>1419.0</ele>
        <time>2018-06-24T13:22:38Z</time>
      </trkpt>
      <trkpt lat="40.260083" lon="-4.913050">
        <ele>1421.0</ele>
        <time>2018-06-24T13:22:39Z</time>
      </trkpt>
      <trkpt lat="40.260100" lon="-4.913150">
        <ele>1423.0</ele>
        <time>2018-06-24T13:22:40Z</time>
      </trkpt>
      <trkpt lat="40.260133" lon="-4.913233">
        <ele>1424.0</ele>
        <time>2018-06-24T13:22:41Z</time>
      </trkpt>
      <trkpt lat="40.260183" lon="-4.913317">
        <ele>1425.0</ele>
        <time>2018-06-24T13:22:42Z</time>
      </trkpt>
      <trkpt lat="40.260267" lon="-4.913383">
        <ele>1424.0</ele>
        <time>2018-06-24T13:22:43Z</time>
      </trkpt>
      <trkpt lat="40.260383" lon="-4.913400">
        <ele>1424.0</ele>
        <time>2018-06-24T13:22:44Z</time>
      </trkpt>
      <trkpt lat="40.260500" lon="-4.913350">
        <ele>1425.0</ele>
        <time>2018-06-24T13:22:45Z</time>
      </trkpt>
      <trkpt lat="40.260583" lon="-4.913250">
        <ele>1427.0</ele>
        <time>2018-06-24T13:22:46Z</time>
      </trkpt>
      <trkpt lat="40.260633" lon="-4.913117">
        <ele>1428.0</ele>
        <time>2018-06-24T13:22:47Z</time>
      </trkpt>
      <trkpt lat="40.260650" lon="-4.912983">
        <ele>1428.0</ele>
        <time>2018-06-24T13:22:48Z</time>
      </trkpt>
      <trkpt lat="40.260617" lon="-4.912833">
        <ele>1428.0</ele>
        <time>2018-06-24T13:22:49Z</time>
      </trkpt>
      <trkpt lat="40.260567" lon="-4.912717">
        <ele>1428.0</ele>
        <time>2018-06-24T13:22:50Z</time>
      </trkpt>
      <trkpt lat="40.260483" lon="-4.912617">
        <ele>1428.0</ele>
        <time>2018-06-24T13:22:51Z</time>
      </trkpt>
      <trkpt lat="40.260400" lon="-4.912550">
        <ele>1430.0</ele>
        <time>2018-06-24T13:22:52Z</time>
      </trkpt>
      <trkpt lat="40.260333" lon="-4.912467">
        <ele>1431.0</ele>
        <time>2018-06-24T13:22:53Z</time>
      </trkpt>
      <trkpt lat="40.260267" lon="-4.912400">
        <ele>1432.0</ele>
        <time>2018-06-24T13:22:54Z</time>
      </trkpt>
      <trkpt lat="40.260200" lon="-4.912367">
        <ele>1433.0</ele>
        <time>2018-06-24T13:22:55Z</time>
      </trkpt>
      <trkpt lat="40.260117" lon="-4.912350">
        <ele>1434.0</ele>
        <time>2018-06-24T13:22:56Z</time>
      </trkpt>
      <trkpt lat="40.260033" lon="-4.912367">
        <ele>1434.0</ele>
        <time>2018-06-24T13:22:57Z</time>
      </trkpt>
      <trkpt lat="40.259950" lon="-4.912450">
        <ele>1436.0</ele>
        <time>2018-06-24T13:22:58Z</time>
      </trkpt>
      <trkpt lat="40.259883" lon="-4.912550">
        <ele>1439.0</ele>
        <time>2018-06-24T13:22:59Z</time>
      </trkpt>
      <trkpt lat="40.259867" lon="-4.912633">
        <ele>1442.0</ele>
        <time>2018-06-24T13:23:00Z</time>
      </trkpt>
      <trkpt lat="40.259883" lon="-4.912733">
        <ele>1444.0</ele>
        <time>2018-06-24T13:23:01Z</time>
      </trkpt>
      <trkpt lat="40.259933" lon="-4.912833">
        <ele>1443.0</ele>
        <time>2018-06-24T13:23:02Z</time>
      </trkpt>
      <trkpt lat="40.260017" lon="-4.912933">
        <ele>1441.0</ele>
        <time>2018-06-24T13:23:03Z</time>
      </trkpt>
      <trkpt lat="40.260117" lon="-4.913000">
        <ele>1441.0</ele>
        <time>2018-06-24T13:23:04Z</time>
      </trkpt>
      <trkpt lat="40.260233" lon="-4.913017">
        <ele>1443.0</ele>
        <time>2018-06-24T13:23:05Z</time>
      </trkpt>
      <trkpt lat="40.260350" lon="-4.912983">
        <ele>1444.0</ele>
        <time>2018-06-24T13:23:06Z</time>
      </trkpt>
      <trkpt lat="40.260467" lon="-4.912867">
        <ele>1444.0</ele>
        <time>2018-06-24T13:23:07Z</time>
      </trkpt>
      <trkpt lat="40.260533" lon="-4.912733">
        <ele>1445.0</ele>
        <time>2018-06-24T13:23:08Z</time>
      </trkpt>
      <trkpt lat="40.260550" lon="-4.912583">
        <ele>1447.0</ele>
        <time>2018-06-24T13:23:09Z</time>
      </trkpt>
      <trkpt lat="40.260550" lon="-4.912433">
        <ele>1449.0</ele>
        <time>2018-06-24T13:23:10Z</time>
      </trkpt>
      <trkpt lat="40.260517" lon="-4.912317">
        <ele>1450.0</ele>
        <time>2018-06-24T13:23:11Z</time>
      </trkpt>
      <trkpt lat="40.260433" lon="-4.912200">
        <ele>1450.0</ele>
        <time>2018-06-24T13:23:12Z</time>
      </trkpt>
      <trkpt lat="40.260350" lon="-4.912100">
        <ele>1452.0</ele>
        <time>2018-06-24T13:23:13Z</time>
      </trkpt>
      <trkpt lat="40.260267" lon="-4.912033">
        <ele>1455.0</ele>
        <time>2018-06-24T13:23:14Z</time>
      </trkpt>
      <trkpt lat="40.260200" lon="-4.911983">
        <ele>1458.0</ele>
        <time>2018-06-24T13:23:15Z</time>
      </trkpt>
      <trkpt lat="40.260133" lon="-4.911967">
        <ele>1460.0</ele>
        <time>2018-06-24T13:23:16Z</time>
      </trkpt>
      <trkpt lat="40.260083" lon="-4.911950">
        <ele>1460.0</ele>
        <time>2018-06-24T13:23:17Z</time>
      </trkpt>
      <trkpt lat="40.260017" lon="-4.911967">
        <ele>1459.0</ele>
        <time>2018-06-24T13:23:18Z</time>
      </trkpt>
      <trkpt lat="40.259967" lon="-4.912017">
        <ele>1458.0</ele>
        <time>2018-06-24T13:23:19Z</time>
      </trkpt>
      <trkpt lat="40.259917" lon="-4.912100">
        <ele>1456.0</ele>
        <time>2018-06-24T13:23:20Z</time>
      </trkpt>
      <trkpt lat="40.259917" lon="-4.912233">
        <ele>1455.0</ele>
        <time>2018-06-24T13:23:21Z</time>
      </trkpt>
      <trkpt lat="40.259950" lon="-4.912367">
        <ele>1455.0</ele>
        <time>2018-06-24T13:23:22Z</time>
      </trkpt>
      <trkpt lat="40.260050" lon="-4.912467">
        <ele>1456.0</ele>
        <time>2018-06-24T13:23:23Z</time>
      </trkpt>
      <trkpt lat="40.260167" lon="-4.912500">
        <ele>1457.0</ele>
        <time>2018-06-24T13:23:24Z</time>
      </trkpt>
      <trkpt lat="40.260283" lon="-4.912483">
        <ele>1458.0</ele>
        <time>2018-06-24T13:23:25Z</time>
      </trkpt>
      <trkpt lat="40.260400" lon="-4.912417">
        <ele>1459.0</ele>
        <time>2018-06-24T13:23:26Z</time>
      </trkpt>
      <trkpt lat="40.260483" lon="-4.912300">
        <ele>1460.0</ele>
        <time>2018-06-24T13:23:27Z</time>
      </trkpt>
      <trkpt lat="40.260550" lon="-4.912150">
        <ele>1461.0</ele>
        <time>2018-06-24T13:23:28Z</time>
      </trkpt>
      <trkpt lat="40.260583" lon="-4.912017">
        <ele>1463.0</ele>
        <time>2018-06-24T13:23:29Z</time>
      </trkpt>
      <trkpt lat="40.260617" lon="-4.911900">
        <ele>1465.0</ele>
        <time>2018-06-24T13:23:30Z</time>
      </trkpt>
      <trkpt lat="40.260633" lon="-4.911800">
        <ele>1467.0</ele>
        <time>2018-06-24T13:23:31Z</time>
      </trkpt>
      <trkpt lat="40.260650" lon="-4.911700">
        <ele>1468.0</ele>
        <time>2018-06-24T13:23:32Z</time>
      </trkpt>
      <trkpt lat="40.260667" lon="-4.911600">
        <ele>1467.0</ele>
        <time>2018-06-24T13:23:33Z</time>
      </trkpt>
      <trkpt lat="40.260650" lon="-4.911500">
        <ele>1466.0</ele>
        <time>2018-06-24T13:23:34Z</time>
      </trkpt>
      <trkpt lat="40.260600" lon="-4.911417">
        <ele>1464.0</ele>
        <time>2018-06-24T13:23:35Z</time>
      </trkpt>
      <trkpt lat="40.260517" lon="-4.911350">
        <ele>1463.0</ele>
        <time>2018-06-24T13:23:36Z</time>
      </trkpt>
      <trkpt lat="40.260433" lon="-4.911317">
        <ele>1463.0</ele>
        <time>2018-06-24T13:23:37Z</time>
      </trkpt>
      <trkpt lat="40.260350" lon="-4.911317">
        <ele>1463.0</ele>
        <time>2018-06-24T13:23:38Z</time>
      </trkpt>
      <trkpt lat="40.260267" lon="-4.911350">
        <ele>1463.0</ele>
        <time>2018-06-24T13:23:39Z</time>
      </trkpt>
      <trkpt lat="40.260200" lon="-4.911400">
        <ele>1464.0</ele>
        <time>2018-06-24T13:23:40Z</time>
      </trkpt>
      <trkpt lat="40.260150" lon="-4.911450">
        <ele>1463.0</ele>
        <time>2018-06-24T13:23:41Z</time>
      </trkpt>
      <trkpt lat="40.260100" lon="-4.911517">
        <ele>1462.0</ele>
        <time>2018-06-24T13:23:42Z</time>
      </trkpt>
      <trkpt lat="40.260067" lon="-4.911600">
        <ele>1460.0</ele>
        <time>2018-06-24T13:23:43Z</time>
      </trkpt>
      <trkpt lat="40.260050" lon="-4.911717">
        <ele>1459.0</ele>
        <time>2018-06-24T13:23:44Z</time>
      </trkpt>
      <trkpt lat="40.260067" lon="-4.911833">
        <ele>1458.0</ele>
        <time>2018-06-24T13:23:45Z</time>
      </trkpt>
      <trkpt lat="40.260117" lon="-4.911967">
        <ele>1458.0</ele>
        <time>2018-06-24T13:23:46Z</time>
      </trkpt>
      <trkpt lat="40.260183" lon="-4.912033">
        <ele>1458.0</ele>
        <time>2018-06-24T13:23:47Z</time>
      </trkpt>
      <trkpt lat="40.260267" lon="-4.912083">
        <ele>1458.0</ele>
        <time>2018-06-24T13:23:48Z</time>
      </trkpt>
      <trkpt lat="40.260367" lon="-4.912083">
        <ele>1457.0</ele>
        <time>2018-06-24T13:23:49Z</time>
      </trkpt>
      <trkpt lat="40.260483" lon="-4.912083">
        <ele>1456.0</ele>
        <time>2018-06-24T13:23:50Z</time>
      </trkpt>
      <trkpt lat="40.260600" lon="-4.912050">
        <ele>1456.0</ele>
        <time>2018-06-24T13:23:51Z</time>
      </trkpt>
      <trkpt lat="40.260717" lon="-4.912033">
        <ele>1456.0</ele>
        <time>2018-06-24T13:23:52Z</time>
      </trkpt>
      <trkpt lat="40.260833" lon="-4.912033">
        <ele>1457.0</ele>
        <time>2018-06-24T13:23:53Z</time>
      </trkpt>
      <trkpt lat="40.260967" lon="-4.912067">
        <ele>1457.0</ele>
        <time>2018-06-24T13:23:54Z</time>
      </trkpt>
      <trkpt lat="40.261033" lon="-4.912117">
        <ele>1457.0</ele>
        <time>2018-06-24T13:23:55Z</time>
      </trkpt>
      <trkpt lat="40.261117" lon="-4.912200">
        <ele>1457.0</ele>
        <time>2018-06-24T13:23:56Z</time>
      </trkpt>
      <trkpt lat="40.261200" lon="-4.912300">
        <ele>1459.0</ele>
        <time>2018-06-24T13:23:57Z</time>
      </trkpt>
      <trkpt lat="40.261283" lon="-4.912383">
        <ele>1461.0</ele>
        <time>2018-06-24T13:23:58Z</time>
      </trkpt>
      <trkpt lat="40.261367" lon="-4.912433">
        <ele>1464.0</ele>
        <time>2018-06-24T13:23:59Z</time>
      </trkpt>
      <trkpt lat="40.261433" lon="-4.912483">
        <ele>1466.0</ele>
        <time>2018-06-24T13:24:00Z</time>
      </trkpt>
      <trkpt lat="40.261483" lon="-4.912550">
        <ele>1468.0</ele>
        <time>2018-06-24T13:24:01Z</time>
      </trkpt>
      <trkpt lat="40.261517" lon="-4.912617">
        <ele>1469.0</ele>
        <time>2018-06-24T13:24:02Z</time>
      </trkpt>
      <trkpt lat="40.261517" lon="-4.912700">
        <ele>1468.0</ele>
        <time>2018-06-24T13:24:03Z</time>
      </trkpt>
      <trkpt lat="40.261500" lon="-4.912800">
        <ele>1466.0</ele>
        <time>2018-06-24T13:24:04Z</time>
      </trkpt>
      <trkpt lat="40.261433" lon="-4.912900">
        <ele>1465.0</ele>
        <time>2018-06-24T13:24:05Z</time>
      </trkpt>
      <trkpt lat="40.261350" lon="-4.912950">
        <ele>1464.0</ele>
        <time>2018-06-24T13:24:06Z</time>
      </trkpt>
      <trkpt lat="40.261233" lon="-4.912967">
        <ele>1464.0</ele>
        <time>2018-06-24T13:24:07Z</time>
      </trkpt>
      <trkpt lat="40.261133" lon="-4.912933">
        <ele>1464.0</ele>
        <time>2018-06-24T13:24:08Z</time>
      </trkpt>
      <trkpt lat="40.261050" lon="-4.912833">
        <ele>1464.0</ele>
        <time>2018-06-24T13:24:09Z</time>
      </trkpt>
      <trkpt lat="40.261000" lon="-4.912700">
        <ele>1464.0</ele>
        <time>2018-06-24T13:24:10Z</time>
      </trkpt>
      <trkpt lat="40.261000" lon="-4.912533">
        <ele>1465.0</ele>
        <time>2018-06-24T13:24:11Z</time>
      </trkpt>
      <trkpt lat="40.261033" lon="-4.912383">
        <ele>1467.0</ele>
        <time>2018-06-24T13:24:12Z</time>
      </trkpt>
      <trkpt lat="40.261100" lon="-4.912267">
        <ele>1470.0</ele>
        <time>2018-06-24T13:24:13Z</time>
      </trkpt>
      <trkpt lat="40.261167" lon="-4.912150">
        <ele>1471.0</ele>
        <time>2018-06-24T13:24:14Z</time>
      </trkpt>
      <trkpt lat="40.261250" lon="-4.912083">
        <ele>1472.0</ele>
        <time>2018-06-24T13:24:15Z</time>
      </trkpt>
      <trkpt lat="40.261367" lon="-4.912033">
        <ele>1472.0</ele>
        <time>2018-06-24T13:24:16Z</time>
      </trkpt>
      <trkpt lat="40.261467" lon="-4.912033">
        <ele>1472.0</ele>
        <time>2018-06-24T13:24:17Z</time>
      </trkpt>
      <trkpt lat="40.261567" lon="-4.912067">
        <ele>1472.0</ele>
        <time>2018-06-24T13:24:18Z</time>
      </trkpt>
      <trkpt lat="40.261633" lon="-4.912150">
        <ele>1472.0</ele>
        <time>2018-06-24T13:24:19Z</time>
      </trkpt>
      <trkpt lat="40.261650" lon="-4.912250">
        <ele>1472.0</ele>
        <time>2018-06-24T13:24:20Z</time>
      </trkpt>
      <trkpt lat="40.261650" lon="-4.912367">
        <ele>1472.0</ele>
        <time>2018-06-24T13:24:21Z</time>
      </trkpt>
      <trkpt lat="40.261600" lon="-4.912467">
        <ele>1473.0</ele>
        <time>2018-06-24T13:24:22Z</time>
      </trkpt>
      <trkpt lat="40.261533" lon="-4.912533">
        <ele>1473.0</ele>
        <time>2018-06-24T13:24:23Z</time>
      </trkpt>
      <trkpt lat="40.261450" lon="-4.912583">
        <ele>1473.0</ele>
        <time>2018-06-24T13:24:24Z</time>
      </trkpt>
      <trkpt lat="40.261350" lon="-4.912600">
        <ele>1474.0</ele>
        <time>2018-06-24T13:24:25Z</time>
      </trkpt>
      <trkpt lat="40.261267" lon="-4.912567">
        <ele>1475.0</ele>
        <time>2018-06-24T13:24:26Z</time>
      </trkpt>
      <trkpt lat="40.261167" lon="-4.912533">
        <ele>1477.0</ele>
        <time>2018-06-24T13:24:27Z</time>
      </trkpt>
      <trkpt lat="40.261083" lon="-4.912467">
        <ele>1478.0</ele>
        <time>2018-06-24T13:24:28Z</time>
      </trkpt>
      <trkpt lat="40.261017" lon="-4.912367">
        <ele>1480.0</ele>
        <time>2018-06-24T13:24:29Z</time>
      </trkpt>
      <trkpt lat="40.260950" lon="-4.912267">
        <ele>1482.0</ele>
        <time>2018-06-24T13:24:30Z</time>
      </trkpt>
      <trkpt lat="40.260900" lon="-4.912150">
        <ele>1485.0</ele>
        <time>2018-06-24T13:24:31Z</time>
      </trkpt>
      <trkpt lat="40.260867" lon="-4.912033">
        <ele>1488.0</ele>
        <time>2018-06-24T13:24:32Z</time>
      </trkpt>
      <trkpt lat="40.260833" lon="-4.911933">
        <ele>1490.0</ele>
        <time>2018-06-24T13:24:33Z</time>
      </trkpt>
      <trkpt lat="40.260800" lon="-4.911817">
        <ele>1491.0</ele>
        <time>2018-06-24T13:24:34Z</time>
      </trkpt>
      <trkpt lat="40.260783" lon="-4.911700">
        <ele>1492.0</ele>
        <time>2018-06-24T13:24:35Z</time>
      </trkpt>
      <trkpt lat="40.260800" lon="-4.911583">
        <ele>1492.0</ele>
        <time>2018-06-24T13:24:36Z</time>
      </trkpt>
      <trkpt lat="40.260850" lon="-4.911467">
        <ele>1491.0</ele>
        <time>2018-06-24T13:24:37Z</time>
      </trkpt>
      <trkpt lat="40.260933" lon="-4.911383">
        <ele>1489.0</ele>
        <time>2018-06-24T13:24:38Z</time>
      </trkpt>
      <trkpt lat="40.261050" lon="-4.911350">
        <ele>1488.0</ele>
        <time>2018-06-24T13:24:39Z</time>
      </trkpt>
      <trkpt lat="40.261167" lon="-4.911367">
        <ele>1488.0</ele>
        <time>2018-06-24T13:24:40Z</time>
      </trkpt>
      <trkpt lat="40.261267" lon="-4.911433">
        <ele>1488.0</ele>
        <time>2018-06-24T13:24:41Z</time>
      </trkpt>
      <trkpt lat="40.261350" lon="-4.911517">
        <ele>1487.0</ele>
        <time>2018-06-24T13:24:42Z</time>
      </trkpt>
      <trkpt lat="40.261400" lon="-4.911633">
        <ele>1488.0</ele>
        <time>2018-06-24T13:24:43Z</time>
      </trkpt>
      <trkpt lat="40.261417" lon="-4.911733">
        <ele>1488.0</ele>
        <time>2018-06-24T13:24:44Z</time>
      </trkpt>
      <trkpt lat="40.261417" lon="-4.911850">
        <ele>1490.0</ele>
        <time>2018-06-24T13:24:45Z</time>
      </trkpt>
      <trkpt lat="40.261383" lon="-4.911950">
        <ele>1492.0</ele>
        <time>2018-06-24T13:24:46Z</time>
      </trkpt>
      <trkpt lat="40.261367" lon="-4.912033">
        <ele>1493.0</ele>
        <time>2018-06-24T13:24:47Z</time>
      </trkpt>
      <trkpt lat="40.261333" lon="-4.912133">
        <ele>1494.0</ele>
        <time>2018-06-24T13:24:48Z</time>
      </trkpt>
      <trkpt lat="40.261317" lon="-4.912233">
        <ele>1496.0</ele>
        <time>2018-06-24T13:24:49Z</time>
      </trkpt>
      <trkpt lat="40.261300" lon="-4.912350">
        <ele>1498.0</ele>
        <time>2018-06-24T13:24:50Z</time>
      </trkpt>
      <trkpt lat="40.261300" lon="-4.912450">
        <ele>1500.0</ele>
        <time>2018-06-24T13:24:51Z</time>
      </trkpt>
      <trkpt lat="40.261300" lon="-4.912550">
        <ele>1503.0</ele>
        <time>2018-06-24T13:24:52Z</time>
      </trkpt>
      <trkpt lat="40.261283" lon="-4.912633">
        <ele>1505.0</ele>
        <time>2018-06-24T13:24:53Z</time>
      </trkpt>
      <trkpt lat="40.261267" lon="-4.912700">
        <ele>1507.0</ele>
        <time>2018-06-24T13:24:54Z</time>
      </trkpt>
      <trkpt lat="40.261233" lon="-4.912783">
        <ele>1507.0</ele>
        <time>2018-06-24T13:24:55Z</time>
      </trkpt>
      <trkpt lat="40.261200" lon="-4.912867">
        <ele>1508.0</ele>
        <time>2018-06-24T13:24:56Z</time>
      </trkpt>
      <trkpt lat="40.261167" lon="-4.912967">
        <ele>1508.0</ele>
        <time>2018-06-24T13:24:57Z</time>
      </trkpt>
      <trkpt lat="40.261117" lon="-4.913067">
        <ele>1508.0</ele>
        <time>2018-06-24T13:24:58Z</time>
      </trkpt>
      <trkpt lat="40.261050" lon="-4.913150">
        <ele>1508.0</ele>
        <time>2018-06-24T13:24:59Z</time>
      </trkpt>
      <trkpt lat="40.260967" lon="-4.913200">
        <ele>1509.0</ele>
        <time>2018-06-24T13:25:00Z</time>
      </trkpt>
      <trkpt lat="40.260883" lon="-4.913250">
        <ele>1510.0</ele>
        <time>2018-06-24T13:25:01Z</time>
      </trkpt>
      <trkpt lat="40.260783" lon="-4.913283">
        <ele>1511.0</ele>
        <time>2018-06-24T13:25:02Z</time>
      </trkpt>
      <trkpt lat="40.260700" lon="-4.913317">
        <ele>1512.0</ele>
        <time>2018-06-24T13:25:03Z</time>
      </trkpt>
      <trkpt lat="40.260600" lon="-4.913333">
        <ele>1513.0</ele>
        <time>2018-06-24T13:25:04Z</time>
      </trkpt>
      <trkpt lat="40.260517" lon="-4.913317">
        <ele>1515.0</ele>
        <time>2018-06-24T13:25:05Z</time>
      </trkpt>
      <trkpt lat="40.260433" lon="-4.913283">
        <ele>1516.0</ele>
        <time>2018-06-24T13:25:06Z</time>
      </trkpt>
      <trkpt lat="40.260350" lon="-4.913217">
        <ele>1516.0</ele>
        <time>2018-06-24T13:25:07Z</time>
      </trkpt>
      <trkpt lat="40.260250" lon="-4.913150">
        <ele>1518.0</ele>
        <time>2018-06-24T13:25:08Z</time>
      </trkpt>
      <trkpt lat="40.260167" lon="-4.913100">
        <ele>1520.0</ele>
        <time>2018-06-24T13:25:09Z</time>
      </trkpt>
      <trkpt lat="40.260117" lon="-4.913017">
        <ele>1523.0</ele>
        <time>2018-06-24T13:25:10Z</time>
      </trkpt>
      <trkpt lat="40.260083" lon="-4.912933">
        <ele>1524.0</ele>
        <time>2018-06-24T13:25:11Z</time>
      </trkpt>
      <trkpt lat="40.260067" lon="-4.912817">
        <ele>1524.0</ele>
        <time>2018-06-24T13:25:12Z</time>
      </trkpt>
      <trkpt lat="40.260083" lon="-4.912667">
        <ele>1524.0</ele>
        <time>2018-06-24T13:25:13Z</time>
      </trkpt>
      <trkpt lat="40.260100" lon="-4.912517">
        <ele>1525.0</ele>
        <time>2018-06-24T13:25:14Z</time>
      </trkpt>
      <trkpt lat="40.260150" lon="-4.912383">
        <ele>1527.0</ele>
        <time>2018-06-24T13:25:15Z</time>
      </trkpt>
      <trkpt lat="40.260233" lon="-4.912283">
        <ele>1529.0</ele>
        <time>2018-06-24T13:25:16Z</time>
      </trkpt>
      <trkpt lat="40.260333" lon="-4.912217">
        <ele>1530.0</ele>
        <time>2018-06-24T13:25:17Z</time>
      </trkpt>
      <trkpt lat="40.260450" lon="-4.912200">
        <ele>1530.0</ele>
        <time>2018-06-24T13:25:18Z</time>
      </trkpt>
      <trkpt lat="40.260550" lon="-4.912217">
        <ele>1531.0</ele>
        <time>2018-06-24T13:25:19Z</time>
      </trkpt>
      <trkpt lat="40.260617" lon="-4.912283">
        <ele>1532.0</ele>
        <time>2018-06-24T13:25:20Z</time>
      </trkpt>
      <trkpt lat="40.260683" lon="-4.912350">
        <ele>1533.0</ele>
        <time>2018-06-24T13:25:21Z</time>
      </trkpt>
      <trkpt lat="40.260733" lon="-4.912467">
        <ele>1535.0</ele>
        <time>2018-06-24T13:25:22Z</time>
      </trkpt>
      <trkpt lat="40.260750" lon="-4.912533">
        <ele>1537.0</ele>
        <time>2018-06-24T13:25:23Z</time>
      </trkpt>
      <trkpt lat="40.260767" lon="-4.912633">
        <ele>1539.0</ele>
        <time>2018-06-24T13:25:24Z</time>
      </trkpt>
      <trkpt lat="40.260767" lon="-4.912717">
        <ele>1541.0</ele>
        <time>2018-06-24T13:25:25Z</time>
      </trkpt>
      <trkpt lat="40.260750" lon="-4.912783">
        <ele>1543.0</ele>
        <time>2018-06-24T13:25:26Z</time>
      </trkpt>
      <trkpt lat="40.260717" lon="-4.912867">
        <ele>1544.0</ele>
        <time>2018-06-24T13:25:27Z</time>
      </trkpt>
      <trkpt lat="40.260650" lon="-4.912917">
        <ele>1544.0</ele>
        <time>2018-06-24T13:25:28Z</time>
      </trkpt>
      <trkpt lat="40.260567" lon="-4.912967">
        <ele>1544.0</ele>
        <time>2018-06-24T13:25:29Z</time>
      </trkpt>
      <trkpt lat="40.260467" lon="-4.913000">
        <ele>1545.0</ele>
        <time>2018-06-24T13:25:30Z</time>
      </trkpt>
      <trkpt lat="40.260367" lon="-4.912983">
        <ele>1548.0</ele>
        <time>2018-06-24T13:25:31Z</time>
      </trkpt>
      <trkpt lat="40.260283" lon="-4.912917">
        <ele>1550.0</ele>
        <time>2018-06-24T13:25:32Z</time>
      </trkpt>
      <trkpt lat="40.260233" lon="-4.912800">
        <ele>1552.0</ele>
        <time>2018-06-24T13:25:33Z</time>
      </trkpt>
      <trkpt lat="40.260200" lon="-4.912667">
        <ele>1555.0</ele>
        <time>2018-06-24T13:25:34Z</time>
      </trkpt>
      <trkpt lat="40.260200" lon="-4.912517">
        <ele>1556.0</ele>
        <time>2018-06-24T13:25:35Z</time>
      </trkpt>
      <trkpt lat="40.260233" lon="-4.912383">
        <ele>1557.0</ele>
        <time>2018-06-24T13:25:36Z</time>
      </trkpt>
      <trkpt lat="40.260300" lon="-4.912250">
        <ele>1559.0</ele>
        <time>2018-06-24T13:25:37Z</time>
      </trkpt>
      <trkpt lat="40.260383" lon="-4.912150">
        <ele>1560.0</ele>
        <time>2018-06-24T13:25:38Z</time>
      </trkpt>
      <trkpt lat="40.260483" lon="-4.912100">
        <ele>1561.0</ele>
        <time>2018-06-24T13:25:39Z</time>
      </trkpt>
      <trkpt lat="40.260583" lon="-4.912100">
        <ele>1560.0</ele>
        <time>2018-06-24T13:25:40Z</time>
      </trkpt>
      <trkpt lat="40.260683" lon="-4.912133">
        <ele>1560.0</ele>
        <time>2018-06-24T13:25:41Z</time>
      </trkpt>
      <trkpt lat="40.260783" lon="-4.912200">
        <ele>1561.0</ele>
        <time>2018-06-24T13:25:42Z</time>
      </trkpt>
      <trkpt lat="40.260850" lon="-4.912300">
        <ele>1563.0</ele>
        <time>2018-06-24T13:25:43Z</time>
      </trkpt>
      <trkpt lat="40.260883" lon="-4.912417">
        <ele>1565.0</ele>
        <time>2018-06-24T13:25:44Z</time>
      </trkpt>
      <trkpt lat="40.260900" lon="-4.912517">
        <ele>1568.0</ele>
        <time>2018-06-24T13:25:45Z</time>
      </trkpt>
      <trkpt lat="40.260900" lon="-4.912633">
        <ele>1570.0</ele>
        <time>2018-06-24T13:25:46Z</time>
      </trkpt>
      <trkpt lat="40.260883" lon="-4.912717">
        <ele>1572.0</ele>
        <time>2018-06-24T13:25:47Z</time>
      </trkpt>
      <trkpt lat="40.260833" lon="-4.912783">
        <ele>1574.0</ele>
        <time>2018-06-24T13:25:48Z</time>
      </trkpt>
      <trkpt lat="40.260767" lon="-4.912833">
        <ele>1576.0</ele>
        <time>2018-06-24T13:25:49Z</time>
      </trkpt>
      <trkpt lat="40.260683" lon="-4.912850">
        <ele>1578.0</ele>
        <time>2018-06-24T13:25:50Z</time>
      </trkpt>
      <trkpt lat="40.260600" lon="-4.912817">
        <ele>1581.0</ele>
        <time>2018-06-24T13:25:51Z</time>
      </trkpt>
      <trkpt lat="40.260533" lon="-4.912750">
        <ele>1584.0</ele>
        <time>2018-06-24T13:25:52Z</time>
      </trkpt>
      <trkpt lat="40.260483" lon="-4.912650">
        <ele>1586.0</ele>
        <time>2018-06-24T13:25:53Z</time>
      </trkpt>
      <trkpt lat="40.260450" lon="-4.912500">
        <ele>1588.0</ele>
        <time>2018-06-24T13:25:54Z</time>
      </trkpt>
      <trkpt lat="40.260450" lon="-4.912350">
        <ele>1590.0</ele>
        <time>2018-06-24T13:25:55Z</time>
      </trkpt>
      <trkpt lat="40.260483" lon="-4.912200">
        <ele>1593.0</ele>
        <time>2018-06-24T13:25:56Z</time>
      </trkpt>
      <trkpt lat="40.260533" lon="-4.912083">
        <ele>1595.0</ele>
        <time>2018-06-24T13:25:57Z</time>
      </trkpt>
      <trkpt lat="40.260600" lon="-4.912000">
        <ele>1597.0</ele>
        <time>2018-06-24T13:25:58Z</time>
      </trkpt>
      <trkpt lat="40.260683" lon="-4.911950">
        <ele>1598.0</ele>
        <time>2018-06-24T13:25:59Z</time>
      </trkpt>
      <trkpt lat="40.260783" lon="-4.911933">
        <ele>1598.0</ele>
        <time>2018-06-24T13:26:00Z</time>
      </trkpt>
      <trkpt lat="40.260900" lon="-4.911933">
        <ele>1600.0</ele>
        <time>2018-06-24T13:26:01Z</time>
      </trkpt>
      <trkpt lat="40.260983" lon="-4.911967">
        <ele>1603.0</ele>
        <time>2018-06-24T13:26:02Z</time>
      </trkpt>
      <trkpt lat="40.261050" lon="-4.912033">
        <ele>1605.0</ele>
        <time>2018-06-24T13:26:03Z</time>
      </trkpt>
      <trkpt lat="40.261083" lon="-4.912117">
        <ele>1607.0</ele>
        <time>2018-06-24T13:26:04Z</time>
      </trkpt>
      <trkpt lat="40.261083" lon="-4.912200">
        <ele>1608.0</ele>
        <time>2018-06-24T13:26:05Z</time>
      </trkpt>
      <trkpt lat="40.261083" lon="-4.912300">
        <ele>1609.0</ele>
        <time>2018-06-24T13:26:06Z</time>
      </trkpt>
      <trkpt lat="40.261050" lon="-4.912400">
        <ele>1612.0</ele>
        <time>2018-06-24T13:26:07Z</time>
      </trkpt>
      <trkpt lat="40.261017" lon="-4.912483">
        <ele>1616.0</ele>
        <time>2018-06-24T13:26:08Z</time>
      </trkpt>
      <trkpt lat="40.260967" lon="-4.912533">
        <ele>1618.0</ele>
        <time>2018-06-24T13:26:09Z</time>
      </trkpt>
      <trkpt lat="40.260883" lon="-4.912550">
        <ele>1621.0</ele>
        <time>2018-06-24T13:26:10Z</time>
      </trkpt>
      <trkpt lat="40.260800" lon="-4.912517">
        <ele>1624.0</ele>
        <time>2018-06-24T13:26:11Z</time>
      </trkpt>
      <trkpt lat="40.260733" lon="-4.912433">
        <ele>1627.0</ele>
        <time>2018-06-24T13:26:12Z</time>
      </trkpt>
      <trkpt lat="40.260683" lon="-4.912300">
        <ele>1630.0</ele>
        <time>2018-06-24T13:26:13Z</time>
      </trkpt>
      <trkpt lat="40.260683" lon="-4.912150">
        <ele>1632.0</ele>
        <time>2018-06-24T13:26:14Z</time>
      </trkpt>
      <trkpt lat="40.260733" lon="-4.912000">
        <ele>1635.0</ele>
        <time>2018-06-24T13:26:15Z</time>
      </trkpt>
      <trkpt lat="40.260800" lon="-4.911900">
        <ele>1637.0</ele>
        <time>2018-06-24T13:26:16Z</time>
      </trkpt>
      <trkpt lat="40.260900" lon="-4.911833">
        <ele>1639.0</ele>
        <time>2018-06-24T13:26:17Z</time>
      </trkpt>
      <trkpt lat="40.261000" lon="-4.911817">
        <ele>1641.0</ele>
        <time>2018-06-24T13:26:18Z</time>
      </trkpt>
      <trkpt lat="40.261100" lon="-4.911833">
        <ele>1643.0</ele>
        <time>2018-06-24T13:26:19Z</time>
      </trkpt>
      <trkpt lat="40.261183" lon="-4.911883">
        <ele>1646.0</ele>
        <time>2018-06-24T13:26:20Z</time>
      </trkpt>
      <trkpt lat="40.261250" lon="-4.911950">
        <ele>1649.0</ele>
        <time>2018-06-24T13:26:21Z</time>
      </trkpt>
      <trkpt lat="40.261283" lon="-4.912033">
        <ele>1650.0</ele>
        <time>2018-06-24T13:26:22Z</time>
      </trkpt>
      <trkpt lat="40.261283" lon="-4.912117">
        <ele>1651.0</ele>
        <time>2018-06-24T13:26:23Z</time>
      </trkpt>
      <trkpt lat="40.261250" lon="-4.912217">
        <ele>1651.0</ele>
        <time>2018-06-24T13:26:24Z</time>
      </trkpt>
      <trkpt lat="40.261183" lon="-4.912300">
        <ele>1652.0</ele>
        <time>2018-06-24T13:26:25Z</time>
      </trkpt>
      <trkpt lat="40.261083" lon="-4.912350">
        <ele>1653.0</ele>
        <time>2018-06-24T13:26:26Z</time>
      </trkpt>
      <trkpt lat="40.260983" lon="-4.912333">
        <ele>1655.0</ele>
        <time>2018-06-24T13:26:27Z</time>
      </trkpt>
      <trkpt lat="40.260850" lon="-4.912233">
        <ele>1657.0</ele>
        <time>2018-06-24T13:26:28Z</time>
      </trkpt>
      <trkpt lat="40.260800" lon="-4.912150">
        <ele>1661.0</ele>
        <time>2018-06-24T13:26:29Z</time>
      </trkpt>
      <trkpt lat="40.260733" lon="-4.912017">
        <ele>1665.0</ele>
        <time>2018-06-24T13:26:30Z</time>
      </trkpt>
      <trkpt lat="40.260700" lon="-4.911883">
        <ele>1669.0</ele>
        <time>2018-06-24T13:26:31Z</time>
      </trkpt>
      <trkpt lat="40.260700" lon="-4.911767">
        <ele>1672.0</ele>
        <time>2018-06-24T13:26:32Z</time>
      </trkpt>
      <trkpt lat="40.260700" lon="-4.911650">
        <ele>1674.0</ele>
        <time>2018-06-24T13:26:33Z</time>
      </trkpt>
      <trkpt lat="40.260717" lon="-4.911533">
        <ele>1675.0</ele>
        <time>2018-06-24T13:26:34Z</time>
      </trkpt>
      <trkpt lat="40.260767" lon="-4.911400">
        <ele>1674.0</ele>
        <time>2018-06-24T13:26:35Z</time>
      </trkpt>
      <trkpt lat="40.260850" lon="-4.911267">
        <ele>1675.0</ele>
        <time>2018-06-24T13:26:36Z</time>
      </trkpt>
      <trkpt lat="40.260967" lon="-4.911183">
        <ele>1676.0</ele>
        <time>2018-06-24T13:26:37Z</time>
      </trkpt>
      <trkpt lat="40.261100" lon="-4.911150">
        <ele>1678.0</ele>
        <time>2018-06-24T13:26:38Z</time>
      </trkpt>
      <trkpt lat="40.261217" lon="-4.911183">
        <ele>1681.0</ele>
        <time>2018-06-24T13:26:39Z</time>
      </trkpt>
      <trkpt lat="40.261300" lon="-4.911267">
        <ele>1684.0</ele>
        <time>2018-06-24T13:26:40Z</time>
      </trkpt>
      <trkpt lat="40.261333" lon="-4.911367">
        <ele>1687.0</ele>
        <time>2018-06-24T13:26:41Z</time>
      </trkpt>
      <trkpt lat="40.261317" lon="-4.911467">
        <ele>1689.0</ele>
        <time>2018-06-24T13:26:42Z</time>
      </trkpt>
      <trkpt lat="40.261283" lon="-4.911533">
        <ele>1691.0</ele>
        <time>2018-06-24T13:26:43Z</time>
      </trkpt>
      <trkpt lat="40.261233" lon="-4.911600">
        <ele>1693.0</ele>
        <time>2018-06-24T13:26:44Z</time>
      </trkpt>
      <trkpt lat="40.261167" lon="-4.911633">
        <ele>1695.0</ele>
        <time>2018-06-24T13:26:45Z</time>
      </trkpt>
      <trkpt lat="40.261100" lon="-4.911650">
        <ele>1698.0</ele>
        <time>2018-06-24T13:26:46Z</time>
      </trkpt>
      <trkpt lat="40.261017" lon="-4.911633">
        <ele>1699.0</ele>
        <time>2018-06-24T13:26:47Z</time>
      </trkpt>
      <trkpt lat="40.260900" lon="-4.911567">
        <ele>1700.0</ele>
        <time>2018-06-24T13:26:48Z</time>
      </trkpt>
      <trkpt lat="40.260833" lon="-4.911500">
        <ele>1701.0</ele>
        <time>2018-06-24T13:26:49Z</time>
      </trkpt>
      <trkpt lat="40.260767" lon="-4.911400">
        <ele>1702.0</ele>
        <time>2018-06-24T13:26:50Z</time>
      </trkpt>
      <trkpt lat="40.260700" lon="-4.911250">
        <ele>1704.0</ele>
        <time>2018-06-24T13:26:51Z</time>
      </trkpt>
      <trkpt lat="40.260667" lon="-4.911100">
        <ele>1706.0</ele>
        <time>2018-06-24T13:26:52Z</time>
      </trkpt>
      <trkpt lat="40.260650" lon="-4.910933">
        <ele>1708.0</ele>
        <time>2018-06-24T13:26:53Z</time>
      </trkpt>
      <trkpt lat="40.260667" lon="-4.910783">
        <ele>1709.0</ele>
        <time>2018-06-24T13:26:54Z</time>
      </trkpt>
      <trkpt lat="40.260717" lon="-4.910617">
        <ele>1711.0</ele>
        <time>2018-06-24T13:26:55Z</time>
      </trkpt>
      <trkpt lat="40.260783" lon="-4.910500">
        <ele>1713.0</ele>
        <time>2018-06-24T13:26:56Z</time>
      </trkpt>
      <trkpt lat="40.260867" lon="-4.910383">
        <ele>1714.0</ele>
        <time>2018-06-24T13:26:57Z</time>
      </trkpt>
      <trkpt lat="40.260967" lon="-4.910300">
        <ele>1715.0</ele>
        <time>2018-06-24T13:26:58Z</time>
      </trkpt>
      <trkpt lat="40.261067" lon="-4.910250">
        <ele>1718.0</ele>
        <time>2018-06-24T13:26:59Z</time>
      </trkpt>
      <trkpt lat="40.261167" lon="-4.910233">
        <ele>1720.0</ele>
        <time>2018-06-24T13:27:00Z</time>
      </trkpt>
      <trkpt lat="40.261250" lon="-4.910250">
        <ele>1721.0</ele>
        <time>2018-06-24T13:27:01Z</time>
      </trkpt>
      <trkpt lat="40.261333" lon="-4.910317">
        <ele>1722.0</ele>
        <time>2018-06-24T13:27:02Z</time>
      </trkpt>
      <trkpt lat="40.261383" lon="-4.910400">
        <ele>1723.0</ele>
        <time>2018-06-24T13:27:03Z</time>
      </trkpt>
      <trkpt lat="40.261417" lon="-4.910500">
        <ele>1725.0</ele>
        <time>2018-06-24T13:27:04Z</time>
      </trkpt>
      <trkpt lat="40.261417" lon="-4.910600">
        <ele>1727.0</ele>
        <time>2018-06-24T13:27:05Z</time>
      </trkpt>
      <trkpt lat="40.261383" lon="-4.910683">
        <ele>1729.0</ele>
        <time>2018-06-24T13:27:06Z</time>
      </trkpt>
      <trkpt lat="40.261333" lon="-4.910733">
        <ele>1730.0</ele>
        <time>2018-06-24T13:27:07Z</time>
      </trkpt>
      <trkpt lat="40.261250" lon="-4.910767">
        <ele>1732.0</ele>
        <time>2018-06-24T13:27:08Z</time>
      </trkpt>
      <trkpt lat="40.261167" lon="-4.910767">
        <ele>1733.0</ele>
        <time>2018-06-24T13:27:09Z</time>
      </trkpt>
      <trkpt lat="40.261083" lon="-4.910733">
        <ele>1734.0</ele>
        <time>2018-06-24T13:27:10Z</time>
      </trkpt>
      <trkpt lat="40.260967" lon="-4.910650">
        <ele>1734.0</ele>
        <time>2018-06-24T13:27:11Z</time>
      </trkpt>
      <trkpt lat="40.260883" lon="-4.910533">
        <ele>1735.0</ele>
        <time>2018-06-24T13:27:12Z</time>
      </trkpt>
      <trkpt lat="40.260833" lon="-4.910367">
        <ele>1736.0</ele>
        <time>2018-06-24T13:27:13Z</time>
      </trkpt>
      <trkpt lat="40.260817" lon="-4.910200">
        <ele>1737.0</ele>
        <time>2018-06-24T13:27:14Z</time>
      </trkpt>
      <trkpt lat="40.260850" lon="-4.910033">
        <ele>1738.0</ele>
        <time>2018-06-24T13:27:15Z</time>
      </trkpt>
      <trkpt lat="40.260917" lon="-4.909900">
        <ele>1738.0</ele>
        <time>2018-06-24T13:27:16Z</time>
      </trkpt>
      <trkpt lat="40.261000" lon="-4.909783">
        <ele>1738.0</ele>
        <time>2018-06-24T13:27:17Z</time>
      </trkpt>
      <trkpt lat="40.261117" lon="-4.909700">
        <ele>1739.0</ele>
        <time>2018-06-24T13:27:18Z</time>
      </trkpt>
      <trkpt lat="40.261217" lon="-4.909650">
        <ele>1740.0</ele>
        <time>2018-06-24T13:27:19Z</time>
      </trkpt>
      <trkpt lat="40.261317" lon="-4.909650">
        <ele>1740.0</ele>
        <time>2018-06-24T13:27:20Z</time>
      </trkpt>
      <trkpt lat="40.261400" lon="-4.909667">
        <ele>1740.0</ele>
        <time>2018-06-24T13:27:21Z</time>
      </trkpt>
      <trkpt lat="40.261483" lon="-4.909717">
        <ele>1740.0</ele>
        <time>2018-06-24T13:27:22Z</time>
      </trkpt>
      <trkpt lat="40.261567" lon="-4.909783">
        <ele>1741.0</ele>
        <time>2018-06-24T13:27:23Z</time>
      </trkpt>
      <trkpt lat="40.261633" lon="-4.909833">
        <ele>1742.0</ele>
        <time>2018-06-24T13:27:24Z</time>
      </trkpt>
      <trkpt lat="40.261683" lon="-4.909917">
        <ele>1743.0</ele>
        <time>2018-06-24T13:27:25Z</time>
      </trkpt>
      <trkpt lat="40.261717" lon="-4.909983">
        <ele>1744.0</ele>
        <time>2018-06-24T13:27:26Z</time>
      </trkpt>
      <trkpt lat="40.261750" lon="-4.910083">
        <ele>1746.0</ele>
        <time>2018-06-24T13:27:27Z</time>
      </trkpt>
      <trkpt lat="40.261750" lon="-4.910183">
        <ele>1749.0</ele>
        <time>2018-06-24T13:27:28Z</time>
      </trkpt>
      <trkpt lat="40.261733" lon="-4.910283">
        <ele>1752.0</ele>
        <time>2018-06-24T13:27:29Z</time>
      </trkpt>
      <trkpt lat="40.261700" lon="-4.910317">
        <ele>1755.0</ele>
        <time>2018-06-24T13:27:30Z</time>
      </trkpt>
      <trkpt lat="40.261667" lon="-4.910367">
        <ele>1758.0</ele>
        <time>2018-06-24T13:27:31Z</time>
      </trkpt>
      <trkpt lat="40.261633" lon="-4.910400">
        <ele>1759.0</ele>
        <time>2018-06-24T13:27:32Z</time>
      </trkpt>
      <trkpt lat="40.261583" lon="-4.910433">
        <ele>1760.0</ele>
        <time>2018-06-24T13:27:33Z</time>
      </trkpt>
      <trkpt lat="40.261517" lon="-4.910433">
        <ele>1759.0</ele>
        <time>2018-06-24T13:27:34Z</time>
      </trkpt>
      <trkpt lat="40.261417" lon="-4.910367">
        <ele>1758.0</ele>
        <time>2018-06-24T13:27:35Z</time>
      </trkpt>
      <trkpt lat="40.261350" lon="-4.910317">
        <ele>1757.0</ele>
        <time>2018-06-24T13:27:36Z</time>
      </trkpt>
      <trkpt lat="40.261267" lon="-4.910217">
        <ele>1757.0</ele>
        <time>2018-06-24T13:27:37Z</time>
      </trkpt>
      <trkpt lat="40.261183" lon="-4.910117">
        <ele>1758.0</ele>
        <time>2018-06-24T13:27:38Z</time>
      </trkpt>
      <trkpt lat="40.261100" lon="-4.909983">
        <ele>1759.0</ele>
        <time>2018-06-24T13:27:39Z</time>
      </trkpt>
      <trkpt lat="40.261050" lon="-4.909833">
        <ele>1760.0</ele>
        <time>2018-06-24T13:27:40Z</time>
      </trkpt>
      <trkpt lat="40.261017" lon="-4.909650">
        <ele>1760.0</ele>
        <time>2018-06-24T13:27:41Z</time>
      </trkpt>
      <trkpt lat="40.261033" lon="-4.909483">
        <ele>1760.0</ele>
        <time>2018-06-24T13:27:42Z</time>
      </trkpt>
      <trkpt lat="40.261067" lon="-4.909333">
        <ele>1761.0</ele>
        <time>2018-06-24T13:27:43Z</time>
      </trkpt>
      <trkpt lat="40.261150" lon="-4.909217">
        <ele>1761.0</ele>
        <time>2018-06-24T13:27:44Z</time>
      </trkpt>
      <trkpt lat="40.261233" lon="-4.909150">
        <ele>1761.0</ele>
        <time>2018-06-24T13:27:45Z</time>
      </trkpt>
      <trkpt lat="40.261333" lon="-4.909117">
        <ele>1760.0</ele>
        <time>2018-06-24T13:27:46Z</time>
      </trkpt>
      <trkpt lat="40.261433" lon="-4.909117">
        <ele>1760.0</ele>
        <time>2018-06-24T13:27:47Z</time>
      </trkpt>
      <trkpt lat="40.261517" lon="-4.909133">
        <ele>1760.0</ele>
        <time>2018-06-24T13:27:48Z</time>
      </trkpt>
      <trkpt lat="40.261583" lon="-4.909183">
        <ele>1760.0</ele>
        <time>2018-06-24T13:27:49Z</time>
      </trkpt>
      <trkpt lat="40.261667" lon="-4.909250">
        <ele>1760.0</ele>
        <time>2018-06-24T13:27:50Z</time>
      </trkpt>
      <trkpt lat="40.261717" lon="-4.909317">
        <ele>1759.0</ele>
        <time>2018-06-24T13:27:51Z</time>
      </trkpt>
      <trkpt lat="40.261783" lon="-4.909400">
        <ele>1759.0</ele>
        <time>2018-06-24T13:27:52Z</time>
      </trkpt>
      <trkpt lat="40.261833" lon="-4.909517">
        <ele>1760.0</ele>
        <time>2018-06-24T13:27:53Z</time>
      </trkpt>
      <trkpt lat="40.261867" lon="-4.909567">
        <ele>1763.0</ele>
        <time>2018-06-24T13:27:54Z</time>
      </trkpt>
      <trkpt lat="40.261883" lon="-4.909633">
        <ele>1765.0</ele>
        <time>2018-06-24T13:27:55Z</time>
      </trkpt>
      <trkpt lat="40.261900" lon="-4.909717">
        <ele>1767.0</ele>
        <time>2018-06-24T13:27:56Z</time>
      </trkpt>
      <trkpt lat="40.261900" lon="-4.909783">
        <ele>1768.0</ele>
        <time>2018-06-24T13:27:57Z</time>
      </trkpt>
      <trkpt lat="40.261917" lon="-4.909850">
        <ele>1770.0</ele>
        <time>2018-06-24T13:27:58Z</time>
      </trkpt>
      <trkpt lat="40.261933" lon="-4.909917">
        <ele>1771.0</ele>
        <time>2018-06-24T13:27:59Z</time>
      </trkpt>
      <trkpt lat="40.261950" lon="-4.909983">
        <ele>1772.0</ele>
        <time>2018-06-24T13:28:00Z</time>
      </trkpt>
      <trkpt lat="40.261967" lon="-4.910067">
        <ele>1773.0</ele>
        <time>2018-06-24T13:28:01Z</time>
      </trkpt>
      <trkpt lat="40.261983" lon="-4.910150">
        <ele>1775.0</ele>
        <time>2018-06-24T13:28:02Z</time>
      </trkpt>
      <trkpt lat="40.261983" lon="-4.910217">
        <ele>1776.0</ele>
        <time>2018-06-24T13:28:03Z</time>
      </trkpt>
      <trkpt lat="40.262000" lon="-4.910300">
        <ele>1779.0</ele>
        <time>2018-06-24T13:28:04Z</time>
      </trkpt>
      <trkpt lat="40.261983" lon="-4.910383">
        <ele>1781.0</ele>
        <time>2018-06-24T13:28:05Z</time>
      </trkpt>
      <trkpt lat="40.261950" lon="-4.910467">
        <ele>1783.0</ele>
        <time>2018-06-24T13:28:06Z</time>
      </trkpt>
      <trkpt lat="40.261900" lon="-4.910550">
        <ele>1786.0</ele>
        <time>2018-06-24T13:28:07Z</time>
      </trkpt>
      <trkpt lat="40.261833" lon="-4.910600">
        <ele>1789.0</ele>
        <time>2018-06-24T13:28:08Z</time>
      </trkpt>
      <trkpt lat="40.261750" lon="-4.910617">
        <ele>1791.0</ele>
        <time>2018-06-24T13:28:09Z</time>
      </trkpt>
      <trkpt lat="40.261650" lon="-4.910583">
        <ele>1793.0</ele>
        <time>2018-06-24T13:28:10Z</time>
      </trkpt>
      <trkpt lat="40.261550" lon="-4.910533">
        <ele>1794.0</ele>
        <time>2018-06-24T13:28:11Z</time>
      </trkpt>
      <trkpt lat="40.261450" lon="-4.910433">
        <ele>1795.0</ele>
        <time>2018-06-24T13:28:12Z</time>
      </trkpt>
      <trkpt lat="40.261383" lon="-4.910300">
        <ele>1797.0</ele>
        <time>2018-06-24T13:28:13Z</time>
      </trkpt>
      <trkpt lat="40.261317" lon="-4.910117">
        <ele>1799.0</ele>
        <time>2018-06-24T13:28:14Z</time>
      </trkpt>
      <trkpt lat="40.261317" lon="-4.909983">
        <ele>1800.0</ele>
        <time>2018-06-24T13:28:15Z</time>
      </trkpt>
      <trkpt lat="40.261350" lon="-4.909833">
        <ele>1801.0</ele>
        <time>2018-06-24T13:28:16Z</time>
      </trkpt>
      <trkpt lat="40.261417" lon="-4.909683">
        <ele>1801.0</ele>
        <time>2018-06-24T13:28:17Z</time>
      </trkpt>
      <trkpt lat="40.261517" lon="-4.909583">
        <ele>1802.0</ele>
        <time>2018-06-24T13:28:18Z</time>
      </trkpt>
      <trkpt lat="40.261633" lon="-4.909550">
        <ele>1802.0</ele>
        <time>2018-06-24T13:28:19Z</time>
      </trkpt>
      <trkpt lat="40.261733" lon="-4.909533">
        <ele>1804.0</ele>
        <time>2018-06-24T13:28:20Z</time>
      </trkpt>
      <trkpt lat="40.261833" lon="-4.909567">
        <ele>1806.0</ele>
        <time>2018-06-24T13:28:21Z</time>
      </trkpt>
      <trkpt lat="40.261917" lon="-4.909617">
        <ele>1809.0</ele>
        <time>2018-06-24T13:28:22Z</time>
      </trkpt>
      <trkpt lat="40.261967" lon="-4.909667">
        <ele>1812.0</ele>
        <time>2018-06-24T13:28:23Z</time>
      </trkpt>
      <trkpt lat="40.262033" lon="-4.909717">
        <ele>1815.0</ele>
        <time>2018-06-24T13:28:24Z</time>
      </trkpt>
      <trkpt lat="40.262083" lon="-4.909783">
        <ele>1817.0</ele>
        <time>2018-06-24T13:28:25Z</time>
      </trkpt>
      <trkpt lat="40.262133" lon="-4.909883">
        <ele>1818.0</ele>
        <time>2018-06-24T13:28:26Z</time>
      </trkpt>
      <trkpt lat="40.262167" lon="-4.909933">
        <ele>1819.0</ele>
        <time>2018-06-24T13:28:27Z</time>
      </trkpt>
      <trkpt lat="40.262200" lon="-4.910033">
        <ele>1820.0</ele>
        <time>2018-06-24T13:28:28Z</time>
      </trkpt>
      <trkpt lat="40.262217" lon="-4.910117">
        <ele>1821.0</ele>
        <time>2018-06-24T13:28:29Z</time>
      </trkpt>
      <trkpt lat="40.262183" lon="-4.910200">
        <ele>1822.0</ele>
        <time>2018-06-24T13:28:30Z</time>
      </trkpt>
      <trkpt lat="40.262133" lon="-4.910267">
        <ele>1821.0</ele>
        <time>2018-06-24T13:28:31Z</time>
      </trkpt>
      <trkpt lat="40.262033" lon="-4.910333">
        <ele>1820.0</ele>
        <time>2018-06-24T13:28:32Z</time>
      </trkpt>
      <trkpt lat="40.261933" lon="-4.910350">
        <ele>1820.0</ele>
        <time>2018-06-24T13:28:33Z</time>
      </trkpt>
      <trkpt lat="40.261833" lon="-4.910350">
        <ele>1821.0</ele>
        <time>2018-06-24T13:28:34Z</time>
      </trkpt>
      <trkpt lat="40.261750" lon="-4.910300">
        <ele>1822.0</ele>
        <time>2018-06-24T13:28:35Z</time>
      </trkpt>
      <trkpt lat="40.261650" lon="-4.910217">
        <ele>1823.0</ele>
        <time>2018-06-24T13:28:36Z</time>
      </trkpt>
      <trkpt lat="40.261567" lon="-4.910117">
        <ele>1822.0</ele>
        <time>2018-06-24T13:28:37Z</time>
      </trkpt>
      <trkpt lat="40.261483" lon="-4.909967">
        <ele>1823.0</ele>
        <time>2018-06-24T13:28:38Z</time>
      </trkpt>
      <trkpt lat="40.261450" lon="-4.909783">
        <ele>1824.0</ele>
        <time>2018-06-24T13:28:39Z</time>
      </trkpt>
      <trkpt lat="40.261450" lon="-4.909600">
        <ele>1826.0</ele>
        <time>2018-06-24T13:28:40Z</time>
      </trkpt>
      <trkpt lat="40.261467" lon="-4.909417">
        <ele>1829.0</ele>
        <time>2018-06-24T13:28:41Z</time>
      </trkpt>
      <trkpt lat="40.261500" lon="-4.909283">
        <ele>1832.0</ele>
        <time>2018-06-24T13:28:42Z</time>
      </trkpt>
      <trkpt lat="40.261533" lon="-4.909183">
        <ele>1835.0</ele>
        <time>2018-06-24T13:28:43Z</time>
      </trkpt>
      <trkpt lat="40.261583" lon="-4.909083">
        <ele>1835.0</ele>
        <time>2018-06-24T13:28:44Z</time>
      </trkpt>
      <trkpt lat="40.261667" lon="-4.909000">
        <ele>1835.0</ele>
        <time>2018-06-24T13:28:45Z</time>
      </trkpt>
      <trkpt lat="40.261750" lon="-4.908950">
        <ele>1834.0</ele>
        <time>2018-06-24T13:28:46Z</time>
      </trkpt>
      <trkpt lat="40.261850" lon="-4.908933">
        <ele>1833.0</ele>
        <time>2018-06-24T13:28:47Z</time>
      </trkpt>
      <trkpt lat="40.261950" lon="-4.908950">
        <ele>1833.0</ele>
        <time>2018-06-24T13:28:48Z</time>
      </trkpt>
      <trkpt lat="40.262050" lon="-4.909000">
        <ele>1834.0</ele>
        <time>2018-06-24T13:28:49Z</time>
      </trkpt>
      <trkpt lat="40.262100" lon="-4.909067">
        <ele>1838.0</ele>
        <time>2018-06-24T13:28:50Z</time>
      </trkpt>
      <trkpt lat="40.262150" lon="-4.909117">
        <ele>1841.0</ele>
        <time>2018-06-24T13:28:51Z</time>
      </trkpt>
      <trkpt lat="40.262183" lon="-4.909133">
        <ele>1843.0</ele>
        <time>2018-06-24T13:28:52Z</time>
      </trkpt>
      <trkpt lat="40.262233" lon="-4.909167">
        <ele>1844.0</ele>
        <time>2018-06-24T13:28:53Z</time>
      </trkpt>
      <trkpt lat="40.262283" lon="-4.909200">
        <ele>1843.0</ele>
        <time>2018-06-24T13:28:54Z</time>
      </trkpt>
      <trkpt lat="40.262333" lon="-4.909250">
        <ele>1843.0</ele>
        <time>2018-06-24T13:28:55Z</time>
      </trkpt>
      <trkpt lat="40.262383" lon="-4.909300">
        <ele>1844.0</ele>
        <time>2018-06-24T13:28:56Z</time>
      </trkpt>
      <trkpt lat="40.262433" lon="-4.909367">
        <ele>1845.0</ele>
        <time>2018-06-24T13:28:57Z</time>
      </trkpt>
      <trkpt lat="40.262467" lon="-4.909450">
        <ele>1848.0</ele>
        <time>2018-06-24T13:28:58Z</time>
      </trkpt>
      <trkpt lat="40.262500" lon="-4.909517">
        <ele>1850.0</ele>
        <time>2018-06-24T13:28:59Z</time>
      </trkpt>
      <trkpt lat="40.262517" lon="-4.909600">
        <ele>1852.0</ele>
        <time>2018-06-24T13:29:00Z</time>
      </trkpt>
      <trkpt lat="40.262533" lon="-4.909667">
        <ele>1854.0</ele>
        <time>2018-06-24T13:29:01Z</time>
      </trkpt>
      <trkpt lat="40.262550" lon="-4.909750">
        <ele>1854.0</ele>
        <time>2018-06-24T13:29:02Z</time>
      </trkpt>
      <trkpt lat="40.262550" lon="-4.909833">
        <ele>1854.0</ele>
        <time>2018-06-24T13:29:03Z</time>
      </trkpt>
      <trkpt lat="40.262517" lon="-4.909917">
        <ele>1852.0</ele>
        <time>2018-06-24T13:29:04Z</time>
      </trkpt>
      <trkpt lat="40.262467" lon="-4.910000">
        <ele>1850.0</ele>
        <time>2018-06-24T13:29:05Z</time>
      </trkpt>
      <trkpt lat="40.262383" lon="-4.910067">
        <ele>1848.0</ele>
        <time>2018-06-24T13:29:06Z</time>
      </trkpt>
      <trkpt lat="40.262283" lon="-4.910100">
        <ele>1847.0</ele>
        <time>2018-06-24T13:29:07Z</time>
      </trkpt>
      <trkpt lat="40.262200" lon="-4.910083">
        <ele>1846.0</ele>
        <time>2018-06-24T13:29:08Z</time>
      </trkpt>
      <trkpt lat="40.262100" lon="-4.910017">
        <ele>1845.0</ele>
        <time>2018-06-24T13:29:09Z</time>
      </trkpt>
      <trkpt lat="40.262017" lon="-4.909917">
        <ele>1844.0</ele>
        <time>2018-06-24T13:29:10Z</time>
      </trkpt>
      <trkpt lat="40.261950" lon="-4.909800">
        <ele>1842.0</ele>
        <time>2018-06-24T13:29:11Z</time>
      </trkpt>
      <trkpt lat="40.261900" lon="-4.909650">
        <ele>1841.0</ele>
        <time>2018-06-24T13:29:12Z</time>
      </trkpt>
      <trkpt lat="40.261867" lon="-4.909500">
        <ele>1839.0</ele>
        <time>2018-06-24T13:29:13Z</time>
      </trkpt>
      <trkpt lat="40.261867" lon="-4.909333">
        <ele>1836.0</ele>
        <time>2018-06-24T13:29:14Z</time>
      </trkpt>
      <trkpt lat="40.261883" lon="-4.909167">
        <ele>1834.0</ele>
        <time>2018-06-24T13:29:15Z</time>
      </trkpt>
      <trkpt lat="40.261950" lon="-4.909017">
        <ele>1832.0</ele>
        <time>2018-06-24T13:29:16Z</time>
      </trkpt>
      <trkpt lat="40.262033" lon="-4.908900">
        <ele>1830.0</ele>
        <time>2018-06-24T13:29:17Z</time>
      </trkpt>
      <trkpt lat="40.262133" lon="-4.908833">
        <ele>1829.0</ele>
        <time>2018-06-24T13:29:18Z</time>
      </trkpt>
      <trkpt lat="40.262233" lon="-4.908783">
        <ele>1829.0</ele>
        <time>2018-06-24T13:29:19Z</time>
      </trkpt>
      <trkpt lat="40.262333" lon="-4.908750">
        <ele>1829.0</ele>
        <time>2018-06-24T13:29:20Z</time>
      </trkpt>
      <trkpt lat="40.262433" lon="-4.908750">
        <ele>1828.0</ele>
        <time>2018-06-24T13:29:21Z</time>
      </trkpt>
      <trkpt lat="40.262550" lon="-4.908767">
        <ele>1829.0</ele>
        <time>2018-06-24T13:29:22Z</time>
      </trkpt>
      <trkpt lat="40.262617" lon="-4.908800">
        <ele>1831.0</ele>
        <time>2018-06-24T13:29:23Z</time>
      </trkpt>
      <trkpt lat="40.262717" lon="-4.908833">
        <ele>1834.0</ele>
        <time>2018-06-24T13:29:24Z</time>
      </trkpt>
      <trkpt lat="40.262783" lon="-4.908883">
        <ele>1837.0</ele>
        <time>2018-06-24T13:29:25Z</time>
      </trkpt>
      <trkpt lat="40.262850" lon="-4.908900">
        <ele>1839.0</ele>
        <time>2018-06-24T13:29:26Z</time>
      </trkpt>
      <trkpt lat="40.262917" lon="-4.908917">
        <ele>1841.0</ele>
        <time>2018-06-24T13:29:27Z</time>
      </trkpt>
      <trkpt lat="40.262983" lon="-4.908900">
        <ele>1843.0</ele>
        <time>2018-06-24T13:29:28Z</time>
      </trkpt>
      <trkpt lat="40.263050" lon="-4.908883">
        <ele>1843.0</ele>
        <time>2018-06-24T13:29:29Z</time>
      </trkpt>
      <trkpt lat="40.263133" lon="-4.908900">
        <ele>1842.0</ele>
        <time>2018-06-24T13:29:30Z</time>
      </trkpt>
      <trkpt lat="40.263233" lon="-4.908900">
        <ele>1840.0</ele>
        <time>2018-06-24T13:29:31Z</time>
      </trkpt>
      <trkpt lat="40.263350" lon="-4.908933">
        <ele>1840.0</ele>
        <time>2018-06-24T13:29:32Z</time>
      </trkpt>
      <trkpt lat="40.263450" lon="-4.908967">
        <ele>1840.0</ele>
        <time>2018-06-24T13:29:33Z</time>
      </trkpt>
      <trkpt lat="40.263550" lon="-4.909017">
        <ele>1842.0</ele>
        <time>2018-06-24T13:29:34Z</time>
      </trkpt>
      <trkpt lat="40.263633" lon="-4.909050">
        <ele>1845.0</ele>
        <time>2018-06-24T13:29:35Z</time>
      </trkpt>
      <trkpt lat="40.263700" lon="-4.909083">
        <ele>1849.0</ele>
        <time>2018-06-24T13:29:36Z</time>
      </trkpt>
      <trkpt lat="40.263767" lon="-4.909100">
        <ele>1851.0</ele>
        <time>2018-06-24T13:29:37Z</time>
      </trkpt>
      <trkpt lat="40.263833" lon="-4.909100">
        <ele>1853.0</ele>
        <time>2018-06-24T13:29:38Z</time>
      </trkpt>
      <trkpt lat="40.263933" lon="-4.909100">
        <ele>1856.0</ele>
        <time>2018-06-24T13:29:39Z</time>
      </trkpt>
      <trkpt lat="40.264033" lon="-4.909067">
        <ele>1859.0</ele>
        <time>2018-06-24T13:29:40Z</time>
      </trkpt>
      <trkpt lat="40.264133" lon="-4.909000">
        <ele>1863.0</ele>
        <time>2018-06-24T13:29:41Z</time>
      </trkpt>
      <trkpt lat="40.264183" lon="-4.908867">
        <ele>1865.0</ele>
        <time>2018-06-24T13:29:42Z</time>
      </trkpt>
      <trkpt lat="40.264217" lon="-4.908700">
        <ele>1868.0</ele>
        <time>2018-06-24T13:29:43Z</time>
      </trkpt>
      <trkpt lat="40.264183" lon="-4.908533">
        <ele>1870.0</ele>
        <time>2018-06-24T13:29:44Z</time>
      </trkpt>
      <trkpt lat="40.264100" lon="-4.908383">
        <ele>1874.0</ele>
        <time>2018-06-24T13:29:45Z</time>
      </trkpt>
      <trkpt lat="40.264017" lon="-4.908317">
        <ele>1877.0</ele>
        <time>2018-06-24T13:29:46Z</time>
      </trkpt>
      <trkpt lat="40.263917" lon="-4.908317">
        <ele>1880.0</ele>
        <time>2018-06-24T13:29:47Z</time>
      </trkpt>
      <trkpt lat="40.263850" lon="-4.908383">
        <ele>1882.0</ele>
        <time>2018-06-24T13:29:48Z</time>
      </trkpt>
      <trkpt lat="40.263850" lon="-4.908483">
        <ele>1884.0</ele>
        <time>2018-06-24T13:29:49Z</time>
      </trkpt>
      <trkpt lat="40.263867" lon="-4.908600">
        <ele>1886.0</ele>
        <time>2018-06-24T13:29:50Z</time>
      </trkpt>
      <trkpt lat="40.263950" lon="-4.908683">
        <ele>1890.0</ele>
        <time>2018-06-24T13:29:51Z</time>
      </trkpt>
      <trkpt lat="40.264033" lon="-4.908717">
        <ele>1894.0</ele>
        <time>2018-06-24T13:29:52Z</time>
      </trkpt>
      <trkpt lat="40.264133" lon="-4.908683">
        <ele>1898.0</ele>
        <time>2018-06-24T13:29:53Z</time>
      </trkpt>
      <trkpt lat="40.264217" lon="-4.908617">
        <ele>1902.0</ele>
        <time>2018-06-24T13:29:54Z</time>
      </trkpt>
      <trkpt lat="40.264283" lon="-4.908500">
        <ele>1906.0</ele>
        <time>2018-06-24T13:29:55Z</time>
      </trkpt>
      <trkpt lat="40.264333" lon="-4.908367">
        <ele>1909.0</ele>
        <time>2018-06-24T13:29:56Z</time>
      </trkpt>
      <trkpt lat="40.264333" lon="-4.908200">
        <ele>1911.0</ele>
        <time>2018-06-24T13:29:57Z</time>
      </trkpt>
      <trkpt lat="40.264300" lon="-4.908050">
        <ele>1912.0</ele>
        <time>2018-06-24T13:29:58Z</time>
      </trkpt>
      <trkpt lat="40.264217" lon="-4.907933">
        <ele>1914.0</ele>
        <time>2018-06-24T13:29:59Z</time>
      </trkpt>
      <trkpt lat="40.264100" lon="-4.907883">
        <ele>1916.0</ele>
        <time>2018-06-24T13:30:00Z</time>
      </trkpt>
      <trkpt lat="40.264000" lon="-4.907883">
        <ele>1921.0</ele>
        <time>2018-06-24T13:30:01Z</time>
      </trkpt>
      <trkpt lat="40.263950" lon="-4.907933">
        <ele>1926.0</ele>
        <time>2018-06-24T13:30:02Z</time>
      </trkpt>
      <trkpt lat="40.263917" lon="-4.907983">
        <ele>1930.0</ele>
        <time>2018-06-24T13:30:03Z</time>
      </trkpt>
      <trkpt lat="40.263917" lon="-4.908050">
        <ele>1933.0</ele>
        <time>2018-06-24T13:30:04Z</time>
      </trkpt>
      <trkpt lat="40.263950" lon="-4.908133">
        <ele>1935.0</ele>
        <time>2018-06-24T13:30:05Z</time>
      </trkpt>
      <trkpt lat="40.263983" lon="-4.908217">
        <ele>1937.0</ele>
        <time>2018-06-24T13:30:06Z</time>
      </trkpt>
      <trkpt lat="40.264050" lon="-4.908283">
        <ele>1940.0</ele>
        <time>2018-06-24T13:30:07Z</time>
      </trkpt>
      <trkpt lat="40.264133" lon="-4.908333">
        <ele>1943.0</ele>
        <time>2018-06-24T13:30:08Z</time>
      </trkpt>
      <trkpt lat="40.264233" lon="-4.908317">
        <ele>1946.0</ele>
        <time>2018-06-24T13:30:09Z</time>
      </trkpt>
      <trkpt lat="40.264333" lon="-4.908250">
        <ele>1948.0</ele>
        <time>2018-06-24T13:30:10Z</time>
      </trkpt>
      <trkpt lat="40.264417" lon="-4.908117">
        <ele>1951.0</ele>
        <time>2018-06-24T13:30:11Z</time>
      </trkpt>
      <trkpt lat="40.264467" lon="-4.907967">
        <ele>1954.0</ele>
        <time>2018-06-24T13:30:12Z</time>
      </trkpt>
      <trkpt lat="40.264483" lon="-4.907800">
        <ele>1957.0</ele>
        <time>2018-06-24T13:30:13Z</time>
      </trkpt>
      <trkpt lat="40.264450" lon="-4.907650">
        <ele>1960.0</ele>
        <time>2018-06-24T13:30:14Z</time>
      </trkpt>
      <trkpt lat="40.264367" lon="-4.907533">
        <ele>1962.0</ele>
        <time>2018-06-24T13:30:15Z</time>
      </trkpt>
      <trkpt lat="40.264267" lon="-4.907450">
        <ele>1965.0</ele>
        <time>2018-06-24T13:30:16Z</time>
      </trkpt>
      <trkpt lat="40.264167" lon="-4.907433">
        <ele>1968.0</ele>
        <time>2018-06-24T13:30:17Z</time>
      </trkpt>
      <trkpt lat="40.264083" lon="-4.907467">
        <ele>1972.0</ele>
        <time>2018-06-24T13:30:18Z</time>
      </trkpt>
      <trkpt lat="40.264000" lon="-4.907517">
        <ele>1976.0</ele>
        <time>2018-06-24T13:30:19Z</time>
      </trkpt>
      <trkpt lat="40.263967" lon="-4.907567">
        <ele>1980.0</ele>
        <time>2018-06-24T13:30:20Z</time>
      </trkpt>
      <trkpt lat="40.263933" lon="-4.907633">
        <ele>1983.0</ele>
        <time>2018-06-24T13:30:21Z</time>
      </trkpt>
      <trkpt lat="40.263917" lon="-4.907700">
        <ele>1985.0</ele>
        <time>2018-06-24T13:30:22Z</time>
      </trkpt>
      <trkpt lat="40.263933" lon="-4.907783">
        <ele>1988.0</ele>
        <time>2018-06-24T13:30:23Z</time>
      </trkpt>
      <trkpt lat="40.263967" lon="-4.907867">
        <ele>1990.0</ele>
        <time>2018-06-24T13:30:24Z</time>
      </trkpt>
      <trkpt lat="40.264033" lon="-4.907933">
        <ele>1993.0</ele>
        <time>2018-06-24T13:30:25Z</time>
      </trkpt>
      <trkpt lat="40.264133" lon="-4.907950">
        <ele>1996.0</ele>
        <time>2018-06-24T13:30:26Z</time>
      </trkpt>
      <trkpt lat="40.264267" lon="-4.907900">
        <ele>1999.0</ele>
        <time>2018-06-24T13:30:27Z</time>
      </trkpt>
      <trkpt lat="40.264333" lon="-4.907833">
        <ele>2001.0</ele>
        <time>2018-06-24T13:30:28Z</time>
      </trkpt>
      <trkpt lat="40.264417" lon="-4.907700">
        <ele>2005.0</ele>
        <time>2018-06-24T13:30:29Z</time>
      </trkpt>
      <trkpt lat="40.264467" lon="-4.907533">
        <ele>2008.0</ele>
        <time>2018-06-24T13:30:30Z</time>
      </trkpt>
      <trkpt lat="40.264467" lon="-4.907383">
        <ele>2013.0</ele>
        <time>2018-06-24T13:30:31Z</time>
      </trkpt>
      <trkpt lat="40.264433" lon="-4.907233">
        <ele>2016.0</ele>
        <time>2018-06-24T13:30:32Z</time>
      </trkpt>
      <trkpt lat="40.264367" lon="-4.907100">
        <ele>2019.0</ele>
        <time>2018-06-24T13:30:33Z</time>
      </trkpt>
      <trkpt lat="40.264300" lon="-4.906983">
        <ele>2024.0</ele>
        <time>2018-06-24T13:30:34Z</time>
      </trkpt>
      <trkpt lat="40.264233" lon="-4.906900">
        <ele>2028.0</ele>
        <time>2018-06-24T13:30:35Z</time>
      </trkpt>
      <trkpt lat="40.264167" lon="-4.906850">
        <ele>2032.0</ele>
        <time>2018-06-24T13:30:36Z</time>
      </trkpt>
      <trkpt lat="40.264100" lon="-4.906833">
        <ele>2033.0</ele>
        <time>2018-06-24T13:30:37Z</time>
      </trkpt>
      <trkpt lat="40.264033" lon="-4.906883">
        <ele>2033.0</ele>
        <time>2018-06-24T13:30:38Z</time>
      </trkpt>
      <trkpt lat="40.263983" lon="-4.906950">
        <ele>2035.0</ele>
        <time>2018-06-24T13:30:39Z</time>
      </trkpt>
      <trkpt lat="40.263967" lon="-4.907050">
        <ele>2037.0</ele>
        <time>2018-06-24T13:30:40Z</time>
      </trkpt>
      <trkpt lat="40.264000" lon="-4.907150">
        <ele>2040.0</ele>
        <time>2018-06-24T13:30:41Z</time>
      </trkpt>
      <trkpt lat="40.264067" lon="-4.907217">
        <ele>2043.0</ele>
        <time>2018-06-24T13:30:42Z</time>
      </trkpt>
      <trkpt lat="40.264167" lon="-4.907250">
        <ele>2047.0</ele>
        <time>2018-06-24T13:30:43Z</time>
      </trkpt>
      <trkpt lat="40.264267" lon="-4.907233">
        <ele>2051.0</ele>
        <time>2018-06-24T13:30:44Z</time>
      </trkpt>
      <trkpt lat="40.264367" lon="-4.907217">
        <ele>2056.0</ele>
        <time>2018-06-24T13:30:45Z</time>
      </trkpt>
      <trkpt lat="40.264450" lon="-4.907183">
        <ele>2060.0</ele>
        <time>2018-06-24T13:30:46Z</time>
      </trkpt>
      <trkpt lat="40.264533" lon="-4.907150">
        <ele>2063.0</ele>
        <time>2018-06-24T13:30:47Z</time>
      </trkpt>
      <trkpt lat="40.264617" lon="-4.907083">
        <ele>2066.0</ele>
        <time>2018-06-24T13:30:48Z</time>
      </trkpt>
      <trkpt lat="40.264700" lon="-4.906983">
        <ele>2069.0</ele>
        <time>2018-06-24T13:30:49Z</time>
      </trkpt>
      <trkpt lat="40.264767" lon="-4.906867">
        <ele>2071.0</ele>
        <time>2018-06-24T13:30:50Z</time>
      </trkpt>
      <trkpt lat="40.264817" lon="-4.906733">
        <ele>2074.0</ele>
        <time>2018-06-24T13:30:51Z</time>
      </trkpt>
      <trkpt lat="40.264850" lon="-4.906583">
        <ele>2077.0</ele>
        <time>2018-06-24T13:30:52Z</time>
      </trkpt>
      <trkpt lat="40.264867" lon="-4.906433">
        <ele>2080.0</ele>
        <time>2018-06-24T13:30:53Z</time>
      </trkpt>
      <trkpt lat="40.264850" lon="-4.906300">
        <ele>2083.0</ele>
        <time>2018-06-24T13:30:54Z</time>
      </trkpt>
      <trkpt lat="40.264800" lon="-4.906183">
        <ele>2086.0</ele>
        <time>2018-06-24T13:30:55Z</time>
      </trkpt>
      <trkpt lat="40.264733" lon="-4.906100">
        <ele>2088.0</ele>
        <time>2018-06-24T13:30:56Z</time>
      </trkpt>
      <trkpt lat="40.264633" lon="-4.906067">
        <ele>2090.0</ele>
        <time>2018-06-24T13:30:57Z</time>
      </trkpt>
      <trkpt lat="40.264533" lon="-4.906083">
        <ele>2091.0</ele>
        <time>2018-06-24T13:30:58Z</time>
      </trkpt>
      <trkpt lat="40.264450" lon="-4.906150">
        <ele>2094.0</ele>
        <time>2018-06-24T13:30:59Z</time>
      </trkpt>
      <trkpt lat="40.264433" lon="-4.906267">
        <ele>2099.0</ele>
        <time>2018-06-24T13:31:00Z</time>
      </trkpt>
      <trkpt lat="40.264450" lon="-4.906367">
        <ele>2102.0</ele>
        <time>2018-06-24T13:31:01Z</time>
      </trkpt>
      <trkpt lat="40.264517" lon="-4.906433">
        <ele>2106.0</ele>
        <time>2018-06-24T13:31:02Z</time>
      </trkpt>
      <trkpt lat="40.264600" lon="-4.906467">
        <ele>2110.0</ele>
        <time>2018-06-24T13:31:03Z</time>
      </trkpt>
      <trkpt lat="40.264683" lon="-4.906483">
        <ele>2114.0</ele>
        <time>2018-06-24T13:31:04Z</time>
      </trkpt>
      <trkpt lat="40.264750" lon="-4.906483">
        <ele>2117.0</ele>
        <time>2018-06-24T13:31:05Z</time>
      </trkpt>
      <trkpt lat="40.264833" lon="-4.906467">
        <ele>2120.0</ele>
        <time>2018-06-24T13:31:06Z</time>
      </trkpt>
      <trkpt lat="40.264917" lon="-4.906433">
        <ele>2122.0</ele>
        <time>2018-06-24T13:31:07Z</time>
      </trkpt>
      <trkpt lat="40.265000" lon="-4.906333">
        <ele>2122.0</ele>
        <time>2018-06-24T13:31:08Z</time>
      </trkpt>
      <trkpt lat="40.265067" lon="-4.906183">
        <ele>2122.0</ele>
        <time>2018-06-24T13:31:09Z</time>
      </trkpt>
      <trkpt lat="40.265083" lon="-4.906017">
        <ele>2124.0</ele>
        <time>2018-06-24T13:31:10Z</time>
      </trkpt>
      <trkpt lat="40.265050" lon="-4.905850">
        <ele>2126.0</ele>
        <time>2018-06-24T13:31:11Z</time>
      </trkpt>
      <trkpt lat="40.264967" lon="-4.905717">
        <ele>2127.0</ele>
        <time>2018-06-24T13:31:12Z</time>
      </trkpt>
      <trkpt lat="40.264867" lon="-4.905650">
        <ele>2130.0</ele>
        <time>2018-06-24T13:31:13Z</time>
      </trkpt>
      <trkpt lat="40.264767" lon="-4.905633">
        <ele>2133.0</ele>
        <time>2018-06-24T13:31:14Z</time>
      </trkpt>
      <trkpt lat="40.264667" lon="-4.905667">
        <ele>2138.0</ele>
        <time>2018-06-24T13:31:15Z</time>
      </trkpt>
      <trkpt lat="40.264600" lon="-4.905717">
        <ele>2142.0</ele>
        <time>2018-06-24T13:31:16Z</time>
      </trkpt>
      <trkpt lat="40.264550" lon="-4.905767">
        <ele>2146.0</ele>
        <time>2018-06-24T13:31:17Z</time>
      </trkpt>
      <trkpt lat="40.264500" lon="-4.905833">
        <ele>2148.0</ele>
        <time>2018-06-24T13:31:18Z</time>
      </trkpt>
      <trkpt lat="40.264483" lon="-4.905883">
        <ele>2150.0</ele>
        <time>2018-06-24T13:31:19Z</time>
      </trkpt>
      <trkpt lat="40.264483" lon="-4.905967">
        <ele>2152.0</ele>
        <time>2018-06-24T13:31:20Z</time>
      </trkpt>
      <trkpt lat="40.264500" lon="-4.906033">
        <ele>2154.0</ele>
        <time>2018-06-24T13:31:21Z</time>
      </trkpt>
      <trkpt lat="40.264550" lon="-4.906117">
        <ele>2155.0</ele>
        <time>2018-06-24T13:31:22Z</time>
      </trkpt>
      <trkpt lat="40.264617" lon="-4.906167">
        <ele>2158.0</ele>
        <time>2018-06-24T13:31:23Z</time>
      </trkpt>
      <trkpt lat="40.264717" lon="-4.906183">
        <ele>2161.0</ele>
        <time>2018-06-24T13:31:24Z</time>
      </trkpt>
      <trkpt lat="40.264817" lon="-4.906133">
        <ele>2164.0</ele>
        <time>2018-06-24T13:31:25Z</time>
      </trkpt>
      <trkpt lat="40.264900" lon="-4.906067">
        <ele>2167.0</ele>
        <time>2018-06-24T13:31:26Z</time>
      </trkpt>
      <trkpt lat="40.264967" lon="-4.905950">
        <ele>2168.0</ele>
        <time>2018-06-24T13:31:27Z</time>
      </trkpt>
      <trkpt lat="40.265017" lon="-4.905800">
        <ele>2170.0</ele>
        <time>2018-06-24T13:31:28Z</time>
      </trkpt>
      <trkpt lat="40.265033" lon="-4.905650">
        <ele>2172.0</ele>
        <time>2018-06-24T13:31:29Z</time>
      </trkpt>
      <trkpt lat="40.265017" lon="-4.905483">
        <ele>2175.0</ele>
        <time>2018-06-24T13:31:30Z</time>
      </trkpt>
      <trkpt lat="40.264967" lon="-4.905333">
        <ele>2177.0</ele>
        <time>2018-06-24T13:31:31Z</time>
      </trkpt>
      <trkpt lat="40.264883" lon="-4.905217">
        <ele>2179.0</ele>
        <time>2018-06-24T13:31:32Z</time>
      </trkpt>
      <trkpt lat="40.264783" lon="-4.905150">
        <ele>2183.0</ele>
        <time>2018-06-24T13:31:33Z</time>
      </trkpt>
      <trkpt lat="40.264683" lon="-4.905117">
        <ele>2186.0</ele>
        <time>2018-06-24T13:31:34Z</time>
      </trkpt>
      <trkpt lat="40.264600" lon="-4.905133">
        <ele>2190.0</ele>
        <time>2018-06-24T13:31:35Z</time>
      </trkpt>
      <trkpt lat="40.264533" lon="-4.905167">
        <ele>2192.0</ele>
        <time>2018-06-24T13:31:36Z</time>
      </trkpt>
      <trkpt lat="40.264483" lon="-4.905233">
        <ele>2194.0</ele>
        <time>2018-06-24T13:31:37Z</time>
      </trkpt>
      <trkpt lat="40.264433" lon="-4.905317">
        <ele>2196.0</ele>
        <time>2018-06-24T13:31:38Z</time>
      </trkpt>
      <trkpt lat="40.264433" lon="-4.905433">
        <ele>2198.0</ele>
        <time>2018-06-24T13:31:39Z</time>
      </trkpt>
      <trkpt lat="40.264450" lon="-4.905533">
        <ele>2200.0</ele>
        <time>2018-06-24T13:31:40Z</time>
      </trkpt>
      <trkpt lat="40.264483" lon="-4.905617">
        <ele>2203.0</ele>
        <time>2018-06-24T13:31:41Z</time>
      </trkpt>
      <trkpt lat="40.264550" lon="-4.905683">
        <ele>2206.0</ele>
        <time>2018-06-24T13:31:42Z</time>
      </trkpt>
      <trkpt lat="40.264633" lon="-4.905700">
        <ele>2209.0</ele>
        <time>2018-06-24T13:31:43Z</time>
      </trkpt>
      <trkpt lat="40.264717" lon="-4.905700">
        <ele>2212.0</ele>
        <time>2018-06-24T13:31:44Z</time>
      </trkpt>
      <trkpt lat="40.264817" lon="-4.905667">
        <ele>2214.0</ele>
        <time>2018-06-24T13:31:45Z</time>
      </trkpt>
      <trkpt lat="40.264900" lon="-4.905567">
        <ele>2217.0</ele>
        <time>2018-06-24T13:31:46Z</time>
      </trkpt>
      <trkpt lat="40.264967" lon="-4.905450">
        <ele>2219.0</ele>
        <time>2018-06-24T13:31:47Z</time>
      </trkpt>
      <trkpt lat="40.265017" lon="-4.905300">
        <ele>2222.0</ele>
        <time>2018-06-24T13:31:48Z</time>
      </trkpt>
      <trkpt lat="40.265033" lon="-4.905133">
        <ele>2225.0</ele>
        <time>2018-06-24T13:31:49Z</time>
      </trkpt>
      <trkpt lat="40.265000" lon="-4.904983">
        <ele>2227.0</ele>
        <time>2018-06-24T13:31:50Z</time>
      </trkpt>
      <trkpt lat="40.264950" lon="-4.904850">
        <ele>2229.0</ele>
        <time>2018-06-24T13:31:51Z</time>
      </trkpt>
      <trkpt lat="40.264883" lon="-4.904733">
        <ele>2230.0</ele>
        <time>2018-06-24T13:31:52Z</time>
      </trkpt>
      <trkpt lat="40.264783" lon="-4.904667">
        <ele>2232.0</ele>
        <time>2018-06-24T13:31:53Z</time>
      </trkpt>
      <trkpt lat="40.264667" lon="-4.904650">
        <ele>2235.0</ele>
        <time>2018-06-24T13:31:54Z</time>
      </trkpt>
      <trkpt lat="40.264567" lon="-4.904650">
        <ele>2238.0</ele>
        <time>2018-06-24T13:31:55Z</time>
      </trkpt>
      <trkpt lat="40.264500" lon="-4.904700">
        <ele>2241.0</ele>
        <time>2018-06-24T13:31:56Z</time>
      </trkpt>
      <trkpt lat="40.264433" lon="-4.904767">
        <ele>2243.0</ele>
        <time>2018-06-24T13:31:57Z</time>
      </trkpt>
      <trkpt lat="40.264400" lon="-4.904850">
        <ele>2246.0</ele>
        <time>2018-06-24T13:31:58Z</time>
      </trkpt>
      <trkpt lat="40.264400" lon="-4.904933">
        <ele>2248.0</ele>
        <time>2018-06-24T13:31:59Z</time>
      </trkpt>
      <trkpt lat="40.264417" lon="-4.905033">
        <ele>2249.0</ele>
        <time>2018-06-24T13:32:00Z</time>
      </trkpt>
      <trkpt lat="40.264483" lon="-4.905100">
        <ele>2251.0</ele>
        <time>2018-06-24T13:32:01Z</time>
      </trkpt>
      <trkpt lat="40.264583" lon="-4.905133">
        <ele>2252.0</ele>
        <time>2018-06-24T13:32:02Z</time>
      </trkpt>
      <trkpt lat="40.264683" lon="-4.905100">
        <ele>2254.0</ele>
        <time>2018-06-24T13:32:03Z</time>
      </trkpt>
      <trkpt lat="40.264783" lon="-4.905033">
        <ele>2257.0</ele>
        <time>2018-06-24T13:32:04Z</time>
      </trkpt>
      <trkpt lat="40.264883" lon="-4.904933">
        <ele>2261.0</ele>
        <time>2018-06-24T13:32:05Z</time>
      </trkpt>
      <trkpt lat="40.264933" lon="-4.904783">
        <ele>2264.0</ele>
        <time>2018-06-24T13:32:06Z</time>
      </trkpt>
      <trkpt lat="40.264967" lon="-4.904633">
        <ele>2268.0</ele>
        <time>2018-06-24T13:32:07Z</time>
      </trkpt>
      <trkpt lat="40.264967" lon="-4.904483">
        <ele>2271.0</ele>
        <time>2018-06-24T13:32:08Z</time>
      </trkpt>
      <trkpt lat="40.264933" lon="-4.904333">
        <ele>2274.0</ele>
        <time>2018-06-24T13:32:09Z</time>
      </trkpt>
      <trkpt lat="40.264900" lon="-4.904183">
        <ele>2276.0</ele>
        <time>2018-06-24T13:32:10Z</time>
      </trkpt>
      <trkpt lat="40.264817" lon="-4.904050">
        <ele>2278.0</ele>
        <time>2018-06-24T13:32:11Z</time>
      </trkpt>
      <trkpt lat="40.264717" lon="-4.903950">
        <ele>2279.0</ele>
        <time>2018-06-24T13:32:12Z</time>
      </trkpt>
      <trkpt lat="40.264600" lon="-4.903900">
        <ele>2280.0</ele>
        <time>2018-06-24T13:32:13Z</time>
      </trkpt>
      <trkpt lat="40.264483" lon="-4.903900">
        <ele>2282.0</ele>
        <time>2018-06-24T13:32:14Z</time>
      </trkpt>
      <trkpt lat="40.264400" lon="-4.903967">
        <ele>2285.0</ele>
        <time>2018-06-24T13:32:15Z</time>
      </trkpt>
      <trkpt lat="40.264350" lon="-4.904067">
        <ele>2287.0</ele>
        <time>2018-06-24T13:32:16Z</time>
      </trkpt>
      <trkpt lat="40.264350" lon="-4.904167">
        <ele>2289.0</ele>
        <time>2018-06-24T13:32:17Z</time>
      </trkpt>
      <trkpt lat="40.264367" lon="-4.904250">
        <ele>2291.0</ele>
        <time>2018-06-24T13:32:18Z</time>
      </trkpt>
      <trkpt lat="40.264400" lon="-4.904333">
        <ele>2294.0</ele>
        <time>2018-06-24T13:32:19Z</time>
      </trkpt>
      <trkpt lat="40.264450" lon="-4.904383">
        <ele>2297.0</ele>
        <time>2018-06-24T13:32:20Z</time>
      </trkpt>
      <trkpt lat="40.264500" lon="-4.904417">
        <ele>2299.0</ele>
        <time>2018-06-24T13:32:21Z</time>
      </trkpt>
      <trkpt lat="40.264567" lon="-4.904433">
        <ele>2300.0</ele>
        <time>2018-06-24T13:32:22Z</time>
      </trkpt>
      <trkpt lat="40.264667" lon="-4.904400">
        <ele>2300.0</ele>
        <time>2018-06-24T13:32:23Z</time>
      </trkpt>
      <trkpt lat="40.264767" lon="-4.904350">
        <ele>2300.0</ele>
        <time>2018-06-24T13:32:24Z</time>
      </trkpt>
      <trkpt lat="40.264850" lon="-4.904233">
        <ele>2302.0</ele>
        <time>2018-06-24T13:32:25Z</time>
      </trkpt>
      <trkpt lat="40.264917" lon="-4.904083">
        <ele>2303.0</ele>
        <time>2018-06-24T13:32:26Z</time>
      </trkpt>
      <trkpt lat="40.264950" lon="-4.903900">
        <ele>2305.0</ele>
        <time>2018-06-24T13:32:27Z</time>
      </trkpt>
      <trkpt lat="40.264917" lon="-4.903733">
        <ele>2308.0</ele>
        <time>2018-06-24T13:32:28Z</time>
      </trkpt>
      <trkpt lat="40.264850" lon="-4.903567">
        <ele>2310.0</ele>
        <time>2018-06-24T13:32:29Z</time>
      </trkpt>
      <trkpt lat="40.264767" lon="-4.903467">
        <ele>2312.0</ele>
        <time>2018-06-24T13:32:30Z</time>
      </trkpt>
      <trkpt lat="40.264667" lon="-4.903400">
        <ele>2314.0</ele>
        <time>2018-06-24T13:32:31Z</time>
      </trkpt>
      <trkpt lat="40.264567" lon="-4.903367">
        <ele>2315.0</ele>
        <time>2018-06-24T13:32:32Z</time>
      </trkpt>
      <trkpt lat="40.264467" lon="-4.903400">
        <ele>2316.0</ele>
        <time>2018-06-24T13:32:33Z</time>
      </trkpt>
      <trkpt lat="40.264400" lon="-4.903433">
        <ele>2317.0</ele>
        <time>2018-06-24T13:32:34Z</time>
      </trkpt>
      <trkpt lat="40.264333" lon="-4.903500">
        <ele>2319.0</ele>
        <time>2018-06-24T13:32:35Z</time>
      </trkpt>
      <trkpt lat="40.264300" lon="-4.903583">
        <ele>2320.0</ele>
        <time>2018-06-24T13:32:36Z</time>
      </trkpt>
      <trkpt lat="40.264300" lon="-4.903667">
        <ele>2320.0</ele>
        <time>2018-06-24T13:32:37Z</time>
      </trkpt>
      <trkpt lat="40.264317" lon="-4.903750">
        <ele>2320.0</ele>
        <time>2018-06-24T13:32:38Z</time>
      </trkpt>
      <trkpt lat="40.264367" lon="-4.903833">
        <ele>2321.0</ele>
        <time>2018-06-24T13:32:39Z</time>
      </trkpt>
      <trkpt lat="40.264450" lon="-4.903900">
        <ele>2321.0</ele>
        <time>2018-06-24T13:32:40Z</time>
      </trkpt>
      <trkpt lat="40.264533" lon="-4.903933">
        <ele>2322.0</ele>
        <time>2018-06-24T13:32:41Z</time>
      </trkpt>
      <trkpt lat="40.264633" lon="-4.903933">
        <ele>2323.0</ele>
        <time>2018-06-24T13:32:42Z</time>
      </trkpt>
      <trkpt lat="40.264733" lon="-4.903900">
        <ele>2325.0</ele>
        <time>2018-06-24T13:32:43Z</time>
      </trkpt>
      <trkpt lat="40.264817" lon="-4.903833">
        <ele>2325.0</ele>
        <time>2018-06-24T13:32:44Z</time>
      </trkpt>
      <trkpt lat="40.264900" lon="-4.903750">
        <ele>2326.0</ele>
        <time>2018-06-24T13:32:45Z</time>
      </trkpt>
      <trkpt lat="40.264983" lon="-4.903650">
        <ele>2327.0</ele>
        <time>2018-06-24T13:32:46Z</time>
      </trkpt>
      <trkpt lat="40.265050" lon="-4.903517">
        <ele>2329.0</ele>
        <time>2018-06-24T13:32:47Z</time>
      </trkpt>
      <trkpt lat="40.265100" lon="-4.903383">
        <ele>2331.0</ele>
        <time>2018-06-24T13:32:48Z</time>
      </trkpt>
      <trkpt lat="40.265133" lon="-4.903250">
        <ele>2332.0</ele>
        <time>2018-06-24T13:32:49Z</time>
      </trkpt>
      <trkpt lat="40.265133" lon="-4.903100">
        <ele>2334.0</ele>
        <time>2018-06-24T13:32:50Z</time>
      </trkpt>
      <trkpt lat="40.265133" lon="-4.902933">
        <ele>2335.0</ele>
        <time>2018-06-24T13:32:51Z</time>
      </trkpt>
      <trkpt lat="40.265117" lon="-4.902783">
        <ele>2337.0</ele>
        <time>2018-06-24T13:32:52Z</time>
      </trkpt>
      <trkpt lat="40.265067" lon="-4.902650">
        <ele>2337.0</ele>
        <time>2018-06-24T13:32:53Z</time>
      </trkpt>
      <trkpt lat="40.265000" lon="-4.902533">
        <ele>2337.0</ele>
        <time>2018-06-24T13:32:54Z</time>
      </trkpt>
      <trkpt lat="40.264900" lon="-4.902450">
        <ele>2336.0</ele>
        <time>2018-06-24T13:32:55Z</time>
      </trkpt>
      <trkpt lat="40.264783" lon="-4.902417">
        <ele>2336.0</ele>
        <time>2018-06-24T13:32:56Z</time>
      </trkpt>
      <trkpt lat="40.264683" lon="-4.902400">
        <ele>2337.0</ele>
        <time>2018-06-24T13:32:57Z</time>
      </trkpt>
      <trkpt lat="40.264583" lon="-4.902433">
        <ele>2339.0</ele>
        <time>2018-06-24T13:32:58Z</time>
      </trkpt>
      <trkpt lat="40.264517" lon="-4.902483">
        <ele>2340.0</ele>
        <time>2018-06-24T13:32:59Z</time>
      </trkpt>
      <trkpt lat="40.264483" lon="-4.902550">
        <ele>2340.0</ele>
        <time>2018-06-24T13:33:00Z</time>
      </trkpt>
      <trkpt lat="40.264450" lon="-4.902633">
        <ele>2340.0</ele>
        <time>2018-06-24T13:33:01Z</time>
      </trkpt>
      <trkpt lat="40.264450" lon="-4.902717">
        <ele>2340.0</ele>
        <time>2018-06-24T13:33:02Z</time>
      </trkpt>
      <trkpt lat="40.264483" lon="-4.902800">
        <ele>2339.0</ele>
        <time>2018-06-24T13:33:03Z</time>
      </trkpt>
      <trkpt lat="40.264517" lon="-4.902883">
        <ele>2339.0</ele>
        <time>2018-06-24T13:33:04Z</time>
      </trkpt>
      <trkpt lat="40.264550" lon="-4.902950">
        <ele>2338.0</ele>
        <time>2018-06-24T13:33:05Z</time>
      </trkpt>
      <trkpt lat="40.264617" lon="-4.903017">
        <ele>2337.0</ele>
        <time>2018-06-24T13:33:06Z</time>
      </trkpt>
      <trkpt lat="40.264683" lon="-4.903067">
        <ele>2336.0</ele>
        <time>2018-06-24T13:33:07Z</time>
      </trkpt>
      <trkpt lat="40.264767" lon="-4.903117">
        <ele>2335.0</ele>
        <time>2018-06-24T13:33:08Z</time>
      </trkpt>
      <trkpt lat="40.264850" lon="-4.903150">
        <ele>2333.0</ele>
        <time>2018-06-24T13:33:09Z</time>
      </trkpt>
      <trkpt lat="40.264950" lon="-4.903183">
        <ele>2332.0</ele>
        <time>2018-06-24T13:33:10Z</time>
      </trkpt>
      <trkpt lat="40.265050" lon="-4.903217">
        <ele>2331.0</ele>
        <time>2018-06-24T13:33:11Z</time>
      </trkpt>
      <trkpt lat="40.265167" lon="-4.903233">
        <ele>2331.0</ele>
        <time>2018-06-24T13:33:12Z</time>
      </trkpt>
      <trkpt lat="40.265283" lon="-4.903217">
        <ele>2333.0</ele>
        <time>2018-06-24T13:33:13Z</time>
      </trkpt>
      <trkpt lat="40.265383" lon="-4.903200">
        <ele>2336.0</ele>
        <time>2018-06-24T13:33:14Z</time>
      </trkpt>
      <trkpt lat="40.265500" lon="-4.903183">
        <ele>2339.0</ele>
        <time>2018-06-24T13:33:15Z</time>
      </trkpt>
      <trkpt lat="40.265600" lon="-4.903133">
        <ele>2344.0</ele>
        <time>2018-06-24T13:33:16Z</time>
      </trkpt>
      <trkpt lat="40.265717" lon="-4.903067">
        <ele>2349.0</ele>
        <time>2018-06-24T13:33:17Z</time>
      </trkpt>
      <trkpt lat="40.265800" lon="-4.903033">
        <ele>2354.0</ele>
        <time>2018-06-24T13:33:18Z</time>
      </trkpt>
      <trkpt lat="40.265883" lon="-4.902983">
        <ele>2359.0</ele>
        <time>2018-06-24T13:33:19Z</time>
      </trkpt>
      <trkpt lat="40.265967" lon="-4.902933">
        <ele>2362.0</ele>
        <time>2018-06-24T13:33:20Z</time>
      </trkpt>
      <trkpt lat="40.266050" lon="-4.902833">
        <ele>2363.0</ele>
        <time>2018-06-24T13:33:21Z</time>
      </trkpt>
      <trkpt lat="40.266117" lon="-4.902700">
        <ele>2363.0</ele>
        <time>2018-06-24T13:33:22Z</time>
      </trkpt>
      <trkpt lat="40.266150" lon="-4.902517">
        <ele>2363.0</ele>
        <time>2018-06-24T13:33:23Z</time>
      </trkpt>
      <trkpt lat="40.266150" lon="-4.902333">
        <ele>2364.0</ele>
        <time>2018-06-24T13:33:24Z</time>
      </trkpt>
      <trkpt lat="40.266083" lon="-4.902167">
        <ele>2365.0</ele>
        <time>2018-06-24T13:33:25Z</time>
      </trkpt>
      <trkpt lat="40.266000" lon="-4.902050">
        <ele>2367.0</ele>
        <time>2018-06-24T13:33:26Z</time>
      </trkpt>
      <trkpt lat="40.265883" lon="-4.902000">
        <ele>2369.0</ele>
        <time>2018-06-24T13:33:27Z</time>
      </trkpt>
      <trkpt lat="40.265800" lon="-4.902000">
        <ele>2373.0</ele>
        <time>2018-06-24T13:33:28Z</time>
      </trkpt>
      <trkpt lat="40.265717" lon="-4.902050">
        <ele>2375.0</ele>
        <time>2018-06-24T13:33:29Z</time>
      </trkpt>
      <trkpt lat="40.265683" lon="-4.902133">
        <ele>2378.0</ele>
        <time>2018-06-24T13:33:30Z</time>
      </trkpt>
      <trkpt lat="40.265667" lon="-4.902233">
        <ele>2380.0</ele>
        <time>2018-06-24T13:33:31Z</time>
      </trkpt>
      <trkpt lat="40.265700" lon="-4.902333">
        <ele>2383.0</ele>
        <time>2018-06-24T13:33:32Z</time>
      </trkpt>
      <trkpt lat="40.265733" lon="-4.902433">
        <ele>2387.0</ele>
        <time>2018-06-24T13:33:33Z</time>
      </trkpt>
      <trkpt lat="40.265800" lon="-4.902533">
        <ele>2393.0</ele>
        <time>2018-06-24T13:33:34Z</time>
      </trkpt>
      <trkpt lat="40.265883" lon="-4.902583">
        <ele>2399.0</ele>
        <time>2018-06-24T13:33:35Z</time>
      </trkpt>
      <trkpt lat="40.265950" lon="-4.902617">
        <ele>2404.0</ele>
        <time>2018-06-24T13:33:36Z</time>
      </trkpt>
      <trkpt lat="40.266033" lon="-4.902633">
        <ele>2408.0</ele>
        <time>2018-06-24T13:33:37Z</time>
      </trkpt>
      <trkpt lat="40.266100" lon="-4.902617">
        <ele>2410.0</ele>
        <time>2018-06-24T13:33:38Z</time>
      </trkpt>
      <trkpt lat="40.266183" lon="-4.902567">
        <ele>2409.0</ele>
        <time>2018-06-24T13:33:39Z</time>
      </trkpt>
      <trkpt lat="40.266283" lon="-4.902467">
        <ele>2408.0</ele>
        <time>2018-06-24T13:33:40Z</time>
      </trkpt>
      <trkpt lat="40.266350" lon="-4.902300">
        <ele>2406.0</ele>
        <time>2018-06-24T13:33:41Z</time>
      </trkpt>
      <trkpt lat="40.266383" lon="-4.902117">
        <ele>2406.0</ele>
        <time>2018-06-24T13:33:42Z</time>
      </trkpt>
      <trkpt lat="40.266367" lon="-4.901917">
        <ele>2406.0</ele>
        <time>2018-06-24T13:33:43Z</time>
      </trkpt>
      <trkpt lat="40.266300" lon="-4.901767">
        <ele>2406.0</ele>
        <time>2018-06-24T13:33:44Z</time>
      </trkpt>
      <trkpt lat="40.266200" lon="-4.901650">
        <ele>2407.0</ele>
        <time>2018-06-24T13:33:45Z</time>
      </trkpt>
      <trkpt lat="40.266100" lon="-4.901600">
        <ele>2408.0</ele>
        <time>2018-06-24T13:33:46Z</time>
      </trkpt>
      <trkpt lat="40.266000" lon="-4.901567">
        <ele>2410.0</ele>
        <time>2018-06-24T13:33:47Z</time>
      </trkpt>
      <trkpt lat="40.265900" lon="-4.901567">
        <ele>2413.0</ele>
        <time>2018-06-24T13:33:48Z</time>
      </trkpt>
      <trkpt lat="40.265817" lon="-4.901567">
        <ele>2417.0</ele>
        <time>2018-06-24T13:33:49Z</time>
      </trkpt>
      <trkpt lat="40.265733" lon="-4.901583">
        <ele>2421.0</ele>
        <time>2018-06-24T13:33:50Z</time>
      </trkpt>
      <trkpt lat="40.265667" lon="-4.901600">
        <ele>2424.0</ele>
        <time>2018-06-24T13:33:51Z</time>
      </trkpt>
      <trkpt lat="40.265617" lon="-4.901633">
        <ele>2426.0</ele>
        <time>2018-06-24T13:33:52Z</time>
      </trkpt>
      <trkpt lat="40.265550" lon="-4.901683">
        <ele>2427.0</ele>
        <time>2018-06-24T13:33:53Z</time>
      </trkpt>
      <trkpt lat="40.265517" lon="-4.901750">
        <ele>2427.0</ele>
        <time>2018-06-24T13:33:54Z</time>
      </trkpt>
      <trkpt lat="40.265517" lon="-4.901850">
        <ele>2427.0</ele>
        <time>2018-06-24T13:33:55Z</time>
      </trkpt>
      <trkpt lat="40.265550" lon="-4.901950">
        <ele>2427.0</ele>
        <time>2018-06-24T13:33:56Z</time>
      </trkpt>
      <trkpt lat="40.265617" lon="-4.902033">
        <ele>2428.0</ele>
        <time>2018-06-24T13:33:57Z</time>
      </trkpt>
      <trkpt lat="40.265700" lon="-4.902100">
        <ele>2431.0</ele>
        <time>2018-06-24T13:33:58Z</time>
      </trkpt>
      <trkpt lat="40.265783" lon="-4.902150">
        <ele>2437.0</ele>
        <time>2018-06-24T13:33:59Z</time>
      </trkpt>
      <trkpt lat="40.265867" lon="-4.902183">
        <ele>2443.0</ele>
        <time>2018-06-24T13:34:00Z</time>
      </trkpt>
      <trkpt lat="40.265933" lon="-4.902183">
        <ele>2448.0</ele>
        <time>2018-06-24T13:34:01Z</time>
      </trkpt>
      <trkpt lat="40.266017" lon="-4.902183">
        <ele>2452.0</ele>
        <time>2018-06-24T13:34:02Z</time>
      </trkpt>
      <trkpt lat="40.266083" lon="-4.902200">
        <ele>2454.0</ele>
        <time>2018-06-24T13:34:03Z</time>
      </trkpt>
      <trkpt lat="40.266167" lon="-4.902233">
        <ele>2457.0</ele>
        <time>2018-06-24T13:34:04Z</time>
      </trkpt>
      <trkpt lat="40.266217" lon="-4.902283">
        <ele>2459.0</ele>
        <time>2018-06-24T13:34:05Z</time>
      </trkpt>
      <trkpt lat="40.266283" lon="-4.902333">
        <ele>2463.0</ele>
        <time>2018-06-24T13:34:06Z</time>
      </trkpt>
      <trkpt lat="40.266350" lon="-4.902350">
        <ele>2466.0</ele>
        <time>2018-06-24T13:34:07Z</time>
      </trkpt>
      <trkpt lat="40.266417" lon="-4.902350">
        <ele>2468.0</ele>
        <time>2018-06-24T13:34:08Z</time>
      </trkpt>
      <trkpt lat="40.266517" lon="-4.902300">
        <ele>2469.0</ele>
        <time>2018-06-24T13:34:09Z</time>
      </trkpt>
      <trkpt lat="40.266600" lon="-4.902183">
        <ele>2468.0</ele>
        <time>2018-06-24T13:34:10Z</time>
      </trkpt>
      <trkpt lat="40.266667" lon="-4.902017">
        <ele>2468.0</ele>
        <time>2018-06-24T13:34:11Z</time>
      </trkpt>
      <trkpt lat="40.266683" lon="-4.901833">
        <ele>2469.0</ele>
        <time>2018-06-24T13:34:12Z</time>
      </trkpt>
      <trkpt lat="40.266650" lon="-4.901667">
        <ele>2470.0</ele>
        <time>2018-06-24T13:34:13Z</time>
      </trkpt>
      <trkpt lat="40.266567" lon="-4.901533">
        <ele>2470.0</ele>
        <time>2018-06-24T13:34:14Z</time>
      </trkpt>
      <trkpt lat="40.266467" lon="-4.901450">
        <ele>2471.0</ele>
        <time>2018-06-24T13:34:15Z</time>
      </trkpt>
      <trkpt lat="40.266350" lon="-4.901433">
        <ele>2473.0</ele>
        <time>2018-06-24T13:34:16Z</time>
      </trkpt>
      <trkpt lat="40.266267" lon="-4.901450">
        <ele>2475.0</ele>
        <time>2018-06-24T13:34:17Z</time>
      </trkpt>
      <trkpt lat="40.266200" lon="-4.901517">
        <ele>2477.0</ele>
        <time>2018-06-24T13:34:18Z</time>
      </trkpt>
      <trkpt lat="40.266150" lon="-4.901600">
        <ele>2479.0</ele>
        <time>2018-06-24T13:34:19Z</time>
      </trkpt>
      <trkpt lat="40.266117" lon="-4.901700">
        <ele>2482.0</ele>
        <time>2018-06-24T13:34:20Z</time>
      </trkpt>
      <trkpt lat="40.266083" lon="-4.901800">
        <ele>2485.0</ele>
        <time>2018-06-24T13:34:21Z</time>
      </trkpt>
      <trkpt lat="40.266050" lon="-4.901917">
        <ele>2489.0</ele>
        <time>2018-06-24T13:34:22Z</time>
      </trkpt>
      <trkpt lat="40.266017" lon="-4.902017">
        <ele>2494.0</ele>
        <time>2018-06-24T13:34:23Z</time>
      </trkpt>
      <trkpt lat="40.266000" lon="-4.902100">
        <ele>2498.0</ele>
        <time>2018-06-24T13:34:24Z</time>
      </trkpt>
      <trkpt lat="40.266017" lon="-4.902167">
        <ele>2503.0</ele>
        <time>2018-06-24T13:34:25Z</time>
      </trkpt>
      <trkpt lat="40.266017" lon="-4.902217">
        <ele>2507.0</ele>
        <time>2018-06-24T13:34:26Z</time>
      </trkpt>
      <trkpt lat="40.266033" lon="-4.902317">
        <ele>2511.0</ele>
        <time>2018-06-24T13:34:27Z</time>
      </trkpt>
      <trkpt lat="40.266033" lon="-4.902350">
        <ele>2514.0</ele>
        <time>2018-06-24T13:34:28Z</time>
      </trkpt>
      <trkpt lat="40.266050" lon="-4.902417">
        <ele>2518.0</ele>
        <time>2018-06-24T13:34:29Z</time>
      </trkpt>
      <trkpt lat="40.266067" lon="-4.902483">
        <ele>2521.0</ele>
        <time>2018-06-24T13:34:30Z</time>
      </trkpt>
      <trkpt lat="40.266117" lon="-4.902550">
        <ele>2524.0</ele>
        <time>2018-06-24T13:34:31Z</time>
      </trkpt>
      <trkpt lat="40.266200" lon="-4.902583">
        <ele>2527.0</ele>
        <time>2018-06-24T13:34:32Z</time>
      </trkpt>
      <trkpt lat="40.266267" lon="-4.902617">
        <ele>2530.0</ele>
        <time>2018-06-24T13:34:33Z</time>
      </trkpt>
      <trkpt lat="40.266333" lon="-4.902650">
        <ele>2534.0</ele>
        <time>2018-06-24T13:34:34Z</time>
      </trkpt>
      <trkpt lat="40.266417" lon="-4.902650">
        <ele>2538.0</ele>
        <time>2018-06-24T13:34:35Z</time>
      </trkpt>
      <trkpt lat="40.266500" lon="-4.902633">
        <ele>2540.0</ele>
        <time>2018-06-24T13:34:36Z</time>
      </trkpt>
      <trkpt lat="40.266583" lon="-4.902567">
        <ele>2541.0</ele>
        <time>2018-06-24T13:34:37Z</time>
      </trkpt>
      <trkpt lat="40.266667" lon="-4.902450">
        <ele>2543.0</ele>
        <time>2018-06-24T13:34:38Z</time>
      </trkpt>
      <trkpt lat="40.266717" lon="-4.902300">
        <ele>2546.0</ele>
        <time>2018-06-24T13:34:39Z</time>
      </trkpt>
      <trkpt lat="40.266733" lon="-4.902133">
        <ele>2548.0</ele>
        <time>2018-06-24T13:34:40Z</time>
      </trkpt>
      <trkpt lat="40.266700" lon="-4.901983">
        <ele>2549.0</ele>
        <time>2018-06-24T13:34:41Z</time>
      </trkpt>
      <trkpt lat="40.266650" lon="-4.901850">
        <ele>2549.0</ele>
        <time>2018-06-24T13:34:42Z</time>
      </trkpt>
      <trkpt lat="40.266567" lon="-4.901750">
        <ele>2550.0</ele>
        <time>2018-06-24T13:34:43Z</time>
      </trkpt>
      <trkpt lat="40.266467" lon="-4.901650">
        <ele>2552.0</ele>
        <time>2018-06-24T13:34:44Z</time>
      </trkpt>
      <trkpt lat="40.266367" lon="-4.901600">
        <ele>2554.0</ele>
        <time>2018-06-24T13:34:45Z</time>
      </trkpt>
      <trkpt lat="40.266267" lon="-4.901583">
        <ele>2557.0</ele>
        <time>2018-06-24T13:34:46Z</time>
      </trkpt>
      <trkpt lat="40.266200" lon="-4.901600">
        <ele>2559.0</ele>
        <time>2018-06-24T13:34:47Z</time>
      </trkpt>
      <trkpt lat="40.266117" lon="-4.901667">
        <ele>2560.0</ele>
        <time>2018-06-24T13:34:48Z</time>
      </trkpt>
      <trkpt lat="40.266083" lon="-4.901750">
        <ele>2562.0</ele>
        <time>2018-06-24T13:34:49Z</time>
      </trkpt>
      <trkpt lat="40.266050" lon="-4.901850">
        <ele>2565.0</ele>
        <time>2018-06-24T13:34:50Z</time>
      </trkpt>
      <trkpt lat="40.266067" lon="-4.901933">
        <ele>2569.0</ele>
        <time>2018-06-24T13:34:51Z</time>
      </trkpt>
      <trkpt lat="40.266083" lon="-4.902017">
        <ele>2572.0</ele>
        <time>2018-06-24T13:34:52Z</time>
      </trkpt>
      <trkpt lat="40.266133" lon="-4.902100">
        <ele>2576.0</ele>
        <time>2018-06-24T13:34:53Z</time>
      </trkpt>
      <trkpt lat="40.266167" lon="-4.902167">
        <ele>2578.0</ele>
        <time>2018-06-24T13:34:54Z</time>
      </trkpt>
      <trkpt lat="40.266217" lon="-4.902233">
        <ele>2580.0</ele>
        <time>2018-06-24T13:34:55Z</time>
      </trkpt>
      <trkpt lat="40.266250" lon="-4.902300">
        <ele>2581.0</ele>
        <time>2018-06-24T13:34:56Z</time>
      </trkpt>
      <trkpt lat="40.266300" lon="-4.902367">
        <ele>2582.0</ele>
        <time>2018-06-24T13:34:57Z</time>
      </trkpt>
      <trkpt lat="40.266367" lon="-4.902383">
        <ele>2583.0</ele>
        <time>2018-06-24T13:34:58Z</time>
      </trkpt>
      <trkpt lat="40.266450" lon="-4.902367">
        <ele>2583.0</ele>
        <time>2018-06-24T13:34:59Z</time>
      </trkpt>
      <trkpt lat="40.266533" lon="-4.902317">
        <ele>2583.0</ele>
        <time>2018-06-24T13:35:00Z</time>
      </trkpt>
      <trkpt lat="40.266617" lon="-4.902233">
        <ele>2584.0</ele>
        <time>2018-06-24T13:35:01Z</time>
      </trkpt>
      <trkpt lat="40.266683" lon="-4.902117">
        <ele>2586.0</ele>
        <time>2018-06-24T13:35:02Z</time>
      </trkpt>
      <trkpt lat="40.266733" lon="-4.902000">
        <ele>2587.0</ele>
        <time>2018-06-24T13:35:03Z</time>
      </trkpt>
      <trkpt lat="40.266767" lon="-4.901850">
        <ele>2588.0</ele>
        <time>2018-06-24T13:35:04Z</time>
      </trkpt>
      <trkpt lat="40.266767" lon="-4.901683">
        <ele>2589.0</ele>
        <time>2018-06-24T13:35:05Z</time>
      </trkpt>
      <trkpt lat="40.266733" lon="-4.901500">
        <ele>2589.0</ele>
        <time>2018-06-24T13:35:06Z</time>
      </trkpt>
      <trkpt lat="40.266683" lon="-4.901350">
        <ele>2591.0</ele>
        <time>2018-06-24T13:35:07Z</time>
      </trkpt>
      <trkpt lat="40.266617" lon="-4.901217">
        <ele>2593.0</ele>
        <time>2018-06-24T13:35:08Z</time>
      </trkpt>
      <trkpt lat="40.266533" lon="-4.901117">
        <ele>2595.0</ele>
        <time>2018-06-24T13:35:09Z</time>
      </trkpt>
      <trkpt lat="40.266433" lon="-4.901067">
        <ele>2597.0</ele>
        <time>2018-06-24T13:35:10Z</time>
      </trkpt>
      <trkpt lat="40.266350" lon="-4.901033">
        <ele>2599.0</ele>
        <time>2018-06-24T13:35:11Z</time>
      </trkpt>
      <trkpt lat="40.266267" lon="-4.901033">
        <ele>2601.0</ele>
        <time>2018-06-24T13:35:12Z</time>
      </trkpt>
      <trkpt lat="40.266183" lon="-4.901083">
        <ele>2602.0</ele>
        <time>2018-06-24T13:35:13Z</time>
      </trkpt>
      <trkpt lat="40.266133" lon="-4.901183">
        <ele>2604.0</ele>
        <time>2018-06-24T13:35:14Z</time>
      </trkpt>
      <trkpt lat="40.266117" lon="-4.901300">
        <ele>2606.0</ele>
        <time>2018-06-24T13:35:15Z</time>
      </trkpt>
      <trkpt lat="40.266150" lon="-4.901400">
        <ele>2609.0</ele>
        <time>2018-06-24T13:35:16Z</time>
      </trkpt>
      <trkpt lat="40.266217" lon="-4.901467">
        <ele>2612.0</ele>
        <time>2018-06-24T13:35:17Z</time>
      </trkpt>
      <trkpt lat="40.266300" lon="-4.901483">
        <ele>2614.0</ele>
        <time>2018-06-24T13:35:18Z</time>
      </trkpt>
      <trkpt lat="40.266367" lon="-4.901483">
        <ele>2616.0</ele>
        <time>2018-06-24T13:35:19Z</time>
      </trkpt>
      <trkpt lat="40.266433" lon="-4.901467">
        <ele>2618.0</ele>
        <time>2018-06-24T13:35:20Z</time>
      </trkpt>
      <trkpt lat="40.266500" lon="-4.901467">
        <ele>2619.0</ele>
        <time>2018-06-24T13:35:21Z</time>
      </trkpt>
      <trkpt lat="40.266583" lon="-4.901467">
        <ele>2619.0</ele>
        <time>2018-06-24T13:35:22Z</time>
      </trkpt>
      <trkpt lat="40.266667" lon="-4.901433">
        <ele>2619.0</ele>
        <time>2018-06-24T13:35:23Z</time>
      </trkpt>
      <trkpt lat="40.266750" lon="-4.901417">
        <ele>2620.0</ele>
        <time>2018-06-24T13:35:24Z</time>
      </trkpt>
      <trkpt lat="40.266850" lon="-4.901383">
        <ele>2622.0</ele>
        <time>2018-06-24T13:35:25Z</time>
      </trkpt>
      <trkpt lat="40.266950" lon="-4.901350">
        <ele>2624.0</ele>
        <time>2018-06-24T13:35:26Z</time>
      </trkpt>
      <trkpt lat="40.267017" lon="-4.901300">
        <ele>2626.0</ele>
        <time>2018-06-24T13:35:27Z</time>
      </trkpt>
      <trkpt lat="40.267100" lon="-4.901267">
        <ele>2626.0</ele>
        <time>2018-06-24T13:35:28Z</time>
      </trkpt>
      <trkpt lat="40.267167" lon="-4.901233">
        <ele>2626.0</ele>
        <time>2018-06-24T13:35:29Z</time>
      </trkpt>
      <trkpt lat="40.267233" lon="-4.901200">
        <ele>2624.0</ele>
        <time>2018-06-24T13:35:30Z</time>
      </trkpt>
      <trkpt lat="40.267333" lon="-4.901150">
        <ele>2623.0</ele>
        <time>2018-06-24T13:35:31Z</time>
      </trkpt>
      <trkpt lat="40.267433" lon="-4.901100">
        <ele>2621.0</ele>
        <time>2018-06-24T13:35:32Z</time>
      </trkpt>
      <trkpt lat="40.267533" lon="-4.901033">
        <ele>2621.0</ele>
        <time>2018-06-24T13:35:33Z</time>
      </trkpt>
      <trkpt lat="40.267650" lon="-4.900967">
        <ele>2622.0</ele>
        <time>2018-06-24T13:35:34Z</time>
      </trkpt>
      <trkpt lat="40.267767" lon="-4.900917">
        <ele>2623.0</ele>
        <time>2018-06-24T13:35:35Z</time>
      </trkpt>
      <trkpt lat="40.267883" lon="-4.900867">
        <ele>2625.0</ele>
        <time>2018-06-24T13:35:36Z</time>
      </trkpt>
      <trkpt lat="40.268000" lon="-4.900817">
        <ele>2628.0</ele>
        <time>2018-06-24T13:35:37Z</time>
      </trkpt>
      <trkpt lat="40.268100" lon="-4.900783">
        <ele>2630.0</ele>
        <time>2018-06-24T13:35:38Z</time>
      </trkpt>
      <trkpt lat="40.268200" lon="-4.900733">
        <ele>2632.0</ele>
        <time>2018-06-24T13:35:39Z</time>
      </trkpt>
      <trkpt lat="40.268300" lon="-4.900700">
        <ele>2634.0</ele>
        <time>2018-06-24T13:35:40Z</time>
      </trkpt>
      <trkpt lat="40.268400" lon="-4.900650">
        <ele>2635.0</ele>
        <time>2018-06-24T13:35:41Z</time>
      </trkpt>
      <trkpt lat="40.268500" lon="-4.900617">
        <ele>2636.0</ele>
        <time>2018-06-24T13:35:42Z</time>
      </trkpt>
      <trkpt lat="40.268600" lon="-4.900550">
        <ele>2637.0</ele>
        <time>2018-06-24T13:35:43Z</time>
      </trkpt>
      <trkpt lat="40.268700" lon="-4.900483">
        <ele>2639.0</ele>
        <time>2018-06-24T13:35:44Z</time>
      </trkpt>
      <trkpt lat="40.268783" lon="-4.900417">
        <ele>2639.0</ele>
        <time>2018-06-24T13:35:45Z</time>
      </trkpt>
      <trkpt lat="40.268867" lon="-4.900333">
        <ele>2641.0</ele>
        <time>2018-06-24T13:35:46Z</time>
      </trkpt>
      <trkpt lat="40.268950" lon="-4.900233">
        <ele>2640.0</ele>
        <time>2018-06-24T13:35:47Z</time>
      </trkpt>
      <trkpt lat="40.269000" lon="-4.900100">
        <ele>2640.0</ele>
        <time>2018-06-24T13:35:48Z</time>
      </trkpt>
      <trkpt lat="40.269033" lon="-4.899950">
        <ele>2638.0</ele>
        <time>2018-06-24T13:35:49Z</time>
      </trkpt>
      <trkpt lat="40.269050" lon="-4.899783">
        <ele>2636.0</ele>
        <time>2018-06-24T13:35:50Z</time>
      </trkpt>
      <trkpt lat="40.269050" lon="-4.899617">
        <ele>2635.0</ele>
        <time>2018-06-24T13:35:51Z</time>
      </trkpt>
      <trkpt lat="40.269033" lon="-4.899450">
        <ele>2634.0</ele>
        <time>2018-06-24T13:35:52Z</time>
      </trkpt>
      <trkpt lat="40.268983" lon="-4.899317">
        <ele>2633.0</ele>
        <time>2018-06-24T13:35:53Z</time>
      </trkpt>
      <trkpt lat="40.268900" lon="-4.899200">
        <ele>2632.0</ele>
        <time>2018-06-24T13:35:54Z</time>
      </trkpt>
      <trkpt lat="40.268817" lon="-4.899100">
        <ele>2631.0</ele>
        <time>2018-06-24T13:35:55Z</time>
      </trkpt>
      <trkpt lat="40.268733" lon="-4.899033">
        <ele>2630.0</ele>
        <time>2018-06-24T13:35:56Z</time>
      </trkpt>
      <trkpt lat="40.268633" lon="-4.899017">
        <ele>2628.0</ele>
        <time>2018-06-24T13:35:57Z</time>
      </trkpt>
      <trkpt lat="40.268567" lon="-4.899017">
        <ele>2627.0</ele>
        <time>2018-06-24T13:35:58Z</time>
      </trkpt>
      <trkpt lat="40.268483" lon="-4.899067">
        <ele>2625.0</ele>
        <time>2018-06-24T13:35:59Z</time>
      </trkpt>
      <trkpt lat="40.268450" lon="-4.899150">
        <ele>2623.0</ele>
        <time>2018-06-24T13:36:00Z</time>
      </trkpt>
      <trkpt lat="40.268433" lon="-4.899250">
        <ele>2622.0</ele>
        <time>2018-06-24T13:36:01Z</time>
      </trkpt>
      <trkpt lat="40.268450" lon="-4.899333">
        <ele>2620.0</ele>
        <time>2018-06-24T13:36:02Z</time>
      </trkpt>
      <trkpt lat="40.268500" lon="-4.899433">
        <ele>2620.0</ele>
        <time>2018-06-24T13:36:03Z</time>
      </trkpt>
      <trkpt lat="40.268550" lon="-4.899517">
        <ele>2620.0</ele>
        <time>2018-06-24T13:36:04Z</time>
      </trkpt>
      <trkpt lat="40.268617" lon="-4.899583">
        <ele>2621.0</ele>
        <time>2018-06-24T13:36:05Z</time>
      </trkpt>
      <trkpt lat="40.268700" lon="-4.899650">
        <ele>2622.0</ele>
        <time>2018-06-24T13:36:06Z</time>
      </trkpt>
      <trkpt lat="40.268767" lon="-4.899700">
        <ele>2623.0</ele>
        <time>2018-06-24T13:36:07Z</time>
      </trkpt>
      <trkpt lat="40.268867" lon="-4.899750">
        <ele>2624.0</ele>
        <time>2018-06-24T13:36:08Z</time>
      </trkpt>
      <trkpt lat="40.268950" lon="-4.899800">
        <ele>2624.0</ele>
        <time>2018-06-24T13:36:09Z</time>
      </trkpt>
      <trkpt lat="40.269033" lon="-4.899833">
        <ele>2625.0</ele>
        <time>2018-06-24T13:36:10Z</time>
      </trkpt>
      <trkpt lat="40.269133" lon="-4.899867">
        <ele>2625.0</ele>
        <time>2018-06-24T13:36:11Z</time>
      </trkpt>
      <trkpt lat="40.269233" lon="-4.899883">
        <ele>2625.0</ele>
        <time>2018-06-24T13:36:12Z</time>
      </trkpt>
      <trkpt lat="40.269333" lon="-4.899900">
        <ele>2625.0</ele>
        <time>2018-06-24T13:36:13Z</time>
      </trkpt>
      <trkpt lat="40.269433" lon="-4.899883">
        <ele>2626.0</ele>
        <time>2018-06-24T13:36:14Z</time>
      </trkpt>
      <trkpt lat="40.269533" lon="-4.899883">
        <ele>2625.0</ele>
        <time>2018-06-24T13:36:15Z</time>
      </trkpt>
      <trkpt lat="40.269633" lon="-4.899883">
        <ele>2624.0</ele>
        <time>2018-06-24T13:36:16Z</time>
      </trkpt>
      <trkpt lat="40.269733" lon="-4.899867">
        <ele>2621.0</ele>
        <time>2018-06-24T13:36:17Z</time>
      </trkpt>
      <trkpt lat="40.269850" lon="-4.899850">
        <ele>2618.0</ele>
        <time>2018-06-24T13:36:18Z</time>
      </trkpt>
      <trkpt lat="40.269983" lon="-4.899833">
        <ele>2615.0</ele>
        <time>2018-06-24T13:36:19Z</time>
      </trkpt>
      <trkpt lat="40.270100" lon="-4.899800">
        <ele>2613.0</ele>
        <time>2018-06-24T13:36:20Z</time>
      </trkpt>
      <trkpt lat="40.270217" lon="-4.899767">
        <ele>2612.0</ele>
        <time>2018-06-24T13:36:21Z</time>
      </trkpt>
      <trkpt lat="40.270333" lon="-4.899717">
        <ele>2611.0</ele>
        <time>2018-06-24T13:36:22Z</time>
      </trkpt>
      <trkpt lat="40.270433" lon="-4.899633">
        <ele>2610.0</ele>
        <time>2018-06-24T13:36:23Z</time>
      </trkpt>
      <trkpt lat="40.270517" lon="-4.899550">
        <ele>2608.0</ele>
        <time>2018-06-24T13:36:24Z</time>
      </trkpt>
      <trkpt lat="40.270583" lon="-4.899467">
        <ele>2605.0</ele>
        <time>2018-06-24T13:36:25Z</time>
      </trkpt>
      <trkpt lat="40.270667" lon="-4.899417">
        <ele>2602.0</ele>
        <time>2018-06-24T13:36:26Z</time>
      </trkpt>
      <trkpt lat="40.270767" lon="-4.899383">
        <ele>2598.0</ele>
        <time>2018-06-24T13:36:27Z</time>
      </trkpt>
      <trkpt lat="40.270883" lon="-4.899367">
        <ele>2595.0</ele>
        <time>2018-06-24T13:36:28Z</time>
      </trkpt>
      <trkpt lat="40.271017" lon="-4.899367">
        <ele>2593.0</ele>
        <time>2018-06-24T13:36:29Z</time>
      </trkpt>
      <trkpt lat="40.271133" lon="-4.899383">
        <ele>2592.0</ele>
        <time>2018-06-24T13:36:30Z</time>
      </trkpt>
      <trkpt lat="40.271250" lon="-4.899383">
        <ele>2591.0</ele>
        <time>2018-06-24T13:36:31Z</time>
      </trkpt>
      <trkpt lat="40.271350" lon="-4.899400">
        <ele>2590.0</ele>
        <time>2018-06-24T13:36:32Z</time>
      </trkpt>
      <trkpt lat="40.271467" lon="-4.899400">
        <ele>2589.0</ele>
        <time>2018-06-24T13:36:33Z</time>
      </trkpt>
      <trkpt lat="40.271567" lon="-4.899400">
        <ele>2588.0</ele>
        <time>2018-06-24T13:36:34Z</time>
      </trkpt>
      <trkpt lat="40.271683" lon="-4.899400">
        <ele>2586.0</ele>
        <time>2018-06-24T13:36:35Z</time>
      </trkpt>
      <trkpt lat="40.271817" lon="-4.899383">
        <ele>2585.0</ele>
        <time>2018-06-24T13:36:36Z</time>
      </trkpt>
      <trkpt lat="40.271933" lon="-4.899367">
        <ele>2584.0</ele>
        <time>2018-06-24T13:36:37Z</time>
      </trkpt>
      <trkpt lat="40.272067" lon="-4.899333">
        <ele>2584.0</ele>
        <time>2018-06-24T13:36:38Z</time>
      </trkpt>
      <trkpt lat="40.272183" lon="-4.899300">
        <ele>2584.0</ele>
        <time>2018-06-24T13:36:39Z</time>
      </trkpt>
      <trkpt lat="40.272300" lon="-4.899283">
        <ele>2584.0</ele>
        <time>2018-06-24T13:36:40Z</time>
      </trkpt>
      <trkpt lat="40.272417" lon="-4.899250">
        <ele>2583.0</ele>
        <time>2018-06-24T13:36:41Z</time>
      </trkpt>
      <trkpt lat="40.272550" lon="-4.899217">
        <ele>2582.0</ele>
        <time>2018-06-24T13:36:42Z</time>
      </trkpt>
      <trkpt lat="40.272667" lon="-4.899200">
        <ele>2581.0</ele>
        <time>2018-06-24T13:36:43Z</time>
      </trkpt>
      <trkpt lat="40.272800" lon="-4.899167">
        <ele>2580.0</ele>
        <time>2018-06-24T13:36:44Z</time>
      </trkpt>
      <trkpt lat="40.272917" lon="-4.899150">
        <ele>2579.0</ele>
        <time>2018-06-24T13:36:45Z</time>
      </trkpt>
      <trkpt lat="40.273050" lon="-4.899133">
        <ele>2578.0</ele>
        <time>2018-06-24T13:36:46Z</time>
      </trkpt>
      <trkpt lat="40.273167" lon="-4.899117">
        <ele>2579.0</ele>
        <time>2018-06-24T13:36:47Z</time>
      </trkpt>
      <trkpt lat="40.273300" lon="-4.899083">
        <ele>2581.0</ele>
        <time>2018-06-24T13:36:48Z</time>
      </trkpt>
      <trkpt lat="40.273400" lon="-4.899050">
        <ele>2584.0</ele>
        <time>2018-06-24T13:36:49Z</time>
      </trkpt>
      <trkpt lat="40.273500" lon="-4.899017">
        <ele>2586.0</ele>
        <time>2018-06-24T13:36:50Z</time>
      </trkpt>
      <trkpt lat="40.273583" lon="-4.898983">
        <ele>2587.0</ele>
        <time>2018-06-24T13:36:51Z</time>
      </trkpt>
      <trkpt lat="40.273683" lon="-4.898950">
        <ele>2588.0</ele>
        <time>2018-06-24T13:36:52Z</time>
      </trkpt>
      <trkpt lat="40.273767" lon="-4.898900">
        <ele>2588.0</ele>
        <time>2018-06-24T13:36:53Z</time>
      </trkpt>
      <trkpt lat="40.273850" lon="-4.898833">
        <ele>2588.0</ele>
        <time>2018-06-24T13:36:54Z</time>
      </trkpt>
      <trkpt lat="40.273900" lon="-4.898733">
        <ele>2588.0</ele>
        <time>2018-06-24T13:36:55Z</time>
      </trkpt>
      <trkpt lat="40.273950" lon="-4.898600">
        <ele>2586.0</ele>
        <time>2018-06-24T13:36:56Z</time>
      </trkpt>
      <trkpt lat="40.273967" lon="-4.898450">
        <ele>2584.0</ele>
        <time>2018-06-24T13:36:57Z</time>
      </trkpt>
      <trkpt lat="40.273967" lon="-4.898317">
        <ele>2583.0</ele>
        <time>2018-06-24T13:36:58Z</time>
      </trkpt>
      <trkpt lat="40.273950" lon="-4.898167">
        <ele>2582.0</ele>
        <time>2018-06-24T13:36:59Z</time>
      </trkpt>
      <trkpt lat="40.273900" lon="-4.898033">
        <ele>2581.0</ele>
        <time>2018-06-24T13:37:00Z</time>
      </trkpt>
      <trkpt lat="40.273850" lon="-4.897933">
        <ele>2581.0</ele>
        <time>2018-06-24T13:37:01Z</time>
      </trkpt>
      <trkpt lat="40.273767" lon="-4.897867">
        <ele>2580.0</ele>
        <time>2018-06-24T13:37:02Z</time>
      </trkpt>
      <trkpt lat="40.273683" lon="-4.897817">
        <ele>2579.0</ele>
        <time>2018-06-24T13:37:03Z</time>
      </trkpt>
      <trkpt lat="40.273600" lon="-4.897800">
        <ele>2579.0</ele>
        <time>2018-06-24T13:37:04Z</time>
      </trkpt>
      <trkpt lat="40.273533" lon="-4.897817">
        <ele>2578.0</ele>
        <time>2018-06-24T13:37:05Z</time>
      </trkpt>
      <trkpt lat="40.273467" lon="-4.897883">
        <ele>2578.0</ele>
        <time>2018-06-24T13:37:06Z</time>
      </trkpt>
      <trkpt lat="40.273433" lon="-4.897967">
        <ele>2578.0</ele>
        <time>2018-06-24T13:37:07Z</time>
      </trkpt>
      <trkpt lat="40.273433" lon="-4.898050">
        <ele>2578.0</ele>
        <time>2018-06-24T13:37:08Z</time>
      </trkpt>
      <trkpt lat="40.273433" lon="-4.898133">
        <ele>2579.0</ele>
        <time>2018-06-24T13:37:09Z</time>
      </trkpt>
      <trkpt lat="40.273450" lon="-4.898217">
        <ele>2579.0</ele>
        <time>2018-06-24T13:37:10Z</time>
      </trkpt>
      <trkpt lat="40.273483" lon="-4.898300">
        <ele>2579.0</ele>
        <time>2018-06-24T13:37:11Z</time>
      </trkpt>
      <trkpt lat="40.273550" lon="-4.898367">
        <ele>2579.0</ele>
        <time>2018-06-24T13:37:12Z</time>
      </trkpt>
      <trkpt lat="40.273633" lon="-4.898417">
        <ele>2578.0</ele>
        <time>2018-06-24T13:37:13Z</time>
      </trkpt>
      <trkpt lat="40.273733" lon="-4.898467">
        <ele>2578.0</ele>
        <time>2018-06-24T13:37:14Z</time>
      </trkpt>
      <trkpt lat="40.273833" lon="-4.898483">
        <ele>2578.0</ele>
        <time>2018-06-24T13:37:15Z</time>
      </trkpt>
      <trkpt lat="40.273917" lon="-4.898483">
        <ele>2580.0</ele>
        <time>2018-06-24T13:37:16Z</time>
      </trkpt>
      <trkpt lat="40.274017" lon="-4.898483">
        <ele>2581.0</ele>
        <time>2018-06-24T13:37:17Z</time>
      </trkpt>
      <trkpt lat="40.274100" lon="-4.898483">
        <ele>2581.0</ele>
        <time>2018-06-24T13:37:18Z</time>
      </trkpt>
      <trkpt lat="40.274183" lon="-4.898467">
        <ele>2580.0</ele>
        <time>2018-06-24T13:37:19Z</time>
      </trkpt>
      <trkpt lat="40.274283" lon="-4.898450">
        <ele>2579.0</ele>
        <time>2018-06-24T13:37:20Z</time>
      </trkpt>
      <trkpt lat="40.274367" lon="-4.898433">
        <ele>2577.0</ele>
        <time>2018-06-24T13:37:21Z</time>
      </trkpt>
      <trkpt lat="40.274467" lon="-4.898400">
        <ele>2574.0</ele>
        <time>2018-06-24T13:37:22Z</time>
      </trkpt>
      <trkpt lat="40.274567" lon="-4.898383">
        <ele>2571.0</ele>
        <time>2018-06-24T13:37:23Z</time>
      </trkpt>
      <trkpt lat="40.274683" lon="-4.898367">
        <ele>2568.0</ele>
        <time>2018-06-24T13:37:24Z</time>
      </trkpt>
      <trkpt lat="40.274800" lon="-4.898367">
        <ele>2564.0</ele>
        <time>2018-06-24T13:37:25Z</time>
      </trkpt>
      <trkpt lat="40.274917" lon="-4.898383">
        <ele>2562.0</ele>
        <time>2018-06-24T13:37:26Z</time>
      </trkpt>
      <trkpt lat="40.275033" lon="-4.898417">
        <ele>2561.0</ele>
        <time>2018-06-24T13:37:27Z</time>
      </trkpt>
      <trkpt lat="40.275133" lon="-4.898433">
        <ele>2560.0</ele>
        <time>2018-06-24T13:37:28Z</time>
      </trkpt>
      <trkpt lat="40.275233" lon="-4.898450">
        <ele>2558.0</ele>
        <time>2018-06-24T13:37:29Z</time>
      </trkpt>
      <trkpt lat="40.275317" lon="-4.898467">
        <ele>2556.0</ele>
        <time>2018-06-24T13:37:30Z</time>
      </trkpt>
      <trkpt lat="40.275433" lon="-4.898467">
        <ele>2554.0</ele>
        <time>2018-06-24T13:37:31Z</time>
      </trkpt>
      <trkpt lat="40.275550" lon="-4.898483">
        <ele>2552.0</ele>
        <time>2018-06-24T13:37:32Z</time>
      </trkpt>
      <trkpt lat="40.275667" lon="-4.898467">
        <ele>2550.0</ele>
        <time>2018-06-24T13:37:33Z</time>
      </trkpt>
      <trkpt lat="40.275767" lon="-4.898467">
        <ele>2549.0</ele>
        <time>2018-06-24T13:37:34Z</time>
      </trkpt>
      <trkpt lat="40.275883" lon="-4.898450">
        <ele>2547.0</ele>
        <time>2018-06-24T13:37:35Z</time>
      </trkpt>
      <trkpt lat="40.275983" lon="-4.898433">
        <ele>2546.0</ele>
        <time>2018-06-24T13:37:36Z</time>
      </trkpt>
      <trkpt lat="40.276083" lon="-4.898417">
        <ele>2544.0</ele>
        <time>2018-06-24T13:37:37Z</time>
      </trkpt>
      <trkpt lat="40.276200" lon="-4.898383">
        <ele>2542.0</ele>
        <time>2018-06-24T13:37:38Z</time>
      </trkpt>
      <trkpt lat="40.276333" lon="-4.898350">
        <ele>2541.0</ele>
        <time>2018-06-24T13:37:39Z</time>
      </trkpt>
      <trkpt lat="40.276450" lon="-4.898317">
        <ele>2540.0</ele>
        <time>2018-06-24T13:37:40Z</time>
      </trkpt>
      <trkpt lat="40.276567" lon="-4.898283">
        <ele>2539.0</ele>
        <time>2018-06-24T13:37:41Z</time>
      </trkpt>
      <trkpt lat="40.276667" lon="-4.898250">
        <ele>2537.0</ele>
        <time>2018-06-24T13:37:42Z</time>
      </trkpt>
      <trkpt lat="40.276783" lon="-4.898183">
        <ele>2535.0</ele>
        <time>2018-06-24T13:37:43Z</time>
      </trkpt>
      <trkpt lat="40.276900" lon="-4.898117">
        <ele>2532.0</ele>
        <time>2018-06-24T13:37:44Z</time>
      </trkpt>
      <trkpt lat="40.277017" lon="-4.898050">
        <ele>2528.0</ele>
        <time>2018-06-24T13:37:45Z</time>
      </trkpt>
      <trkpt lat="40.277133" lon="-4.898000">
        <ele>2524.0</ele>
        <time>2018-06-24T13:37:46Z</time>
      </trkpt>
      <trkpt lat="40.277267" lon="-4.897933">
        <ele>2521.0</ele>
        <time>2018-06-24T13:37:47Z</time>
      </trkpt>
      <trkpt lat="40.277400" lon="-4.897883">
        <ele>2518.0</ele>
        <time>2018-06-24T13:37:48Z</time>
      </trkpt>
      <trkpt lat="40.277517" lon="-4.897817">
        <ele>2516.0</ele>
        <time>2018-06-24T13:37:49Z</time>
      </trkpt>
      <trkpt lat="40.277617" lon="-4.897767">
        <ele>2515.0</ele>
        <time>2018-06-24T13:37:50Z</time>
      </trkpt>
      <trkpt lat="40.277717" lon="-4.897700">
        <ele>2512.0</ele>
        <time>2018-06-24T13:37:51Z</time>
      </trkpt>
      <trkpt lat="40.277817" lon="-4.897650">
        <ele>2509.0</ele>
        <time>2018-06-24T13:37:52Z</time>
      </trkpt>
      <trkpt lat="40.277933" lon="-4.897617">
        <ele>2505.0</ele>
        <time>2018-06-24T13:37:53Z</time>
      </trkpt>
      <trkpt lat="40.278050" lon="-4.897600">
        <ele>2501.0</ele>
        <time>2018-06-24T13:37:54Z</time>
      </trkpt>
      <trkpt lat="40.278183" lon="-4.897567">
        <ele>2498.0</ele>
        <time>2018-06-24T13:37:55Z</time>
      </trkpt>
      <trkpt lat="40.278300" lon="-4.897533">
        <ele>2496.0</ele>
        <time>2018-06-24T13:37:56Z</time>
      </trkpt>
      <trkpt lat="40.278417" lon="-4.897500">
        <ele>2494.0</ele>
        <time>2018-06-24T13:37:57Z</time>
      </trkpt>
      <trkpt lat="40.278533" lon="-4.897467">
        <ele>2492.0</ele>
        <time>2018-06-24T13:37:58Z</time>
      </trkpt>
      <trkpt lat="40.278633" lon="-4.897450">
        <ele>2489.0</ele>
        <time>2018-06-24T13:37:59Z</time>
      </trkpt>
      <trkpt lat="40.278750" lon="-4.897450">
        <ele>2485.0</ele>
        <time>2018-06-24T13:38:00Z</time>
      </trkpt>
      <trkpt lat="40.278867" lon="-4.897433">
        <ele>2483.0</ele>
        <time>2018-06-24T13:38:01Z</time>
      </trkpt>
      <trkpt lat="40.279000" lon="-4.897400">
        <ele>2481.0</ele>
        <time>2018-06-24T13:38:02Z</time>
      </trkpt>
      <trkpt lat="40.279117" lon="-4.897350">
        <ele>2479.0</ele>
        <time>2018-06-24T13:38:03Z</time>
      </trkpt>
      <trkpt lat="40.279217" lon="-4.897300">
        <ele>2477.0</ele>
        <time>2018-06-24T13:38:04Z</time>
      </trkpt>
      <trkpt lat="40.279333" lon="-4.897250">
        <ele>2475.0</ele>
        <time>2018-06-24T13:38:05Z</time>
      </trkpt>
      <trkpt lat="40.279467" lon="-4.897217">
        <ele>2472.0</ele>
        <time>2018-06-24T13:38:06Z</time>
      </trkpt>
      <trkpt lat="40.279583" lon="-4.897183">
        <ele>2469.0</ele>
        <time>2018-06-24T13:38:07Z</time>
      </trkpt>
      <trkpt lat="40.279717" lon="-4.897150">
        <ele>2467.0</ele>
        <time>2018-06-24T13:38:08Z</time>
      </trkpt>
      <trkpt lat="40.279833" lon="-4.897100">
        <ele>2465.0</ele>
        <time>2018-06-24T13:38:09Z</time>
      </trkpt>
      <trkpt lat="40.279967" lon="-4.897067">
        <ele>2464.0</ele>
        <time>2018-06-24T13:38:10Z</time>
      </trkpt>
      <trkpt lat="40.280083" lon="-4.897033">
        <ele>2462.0</ele>
        <time>2018-06-24T13:38:11Z</time>
      </trkpt>
      <trkpt lat="40.280217" lon="-4.897033">
        <ele>2460.0</ele>
        <time>2018-06-24T13:38:12Z</time>
      </trkpt>
      <trkpt lat="40.280333" lon="-4.897033">
        <ele>2458.0</ele>
        <time>2018-06-24T13:38:13Z</time>
      </trkpt>
      <trkpt lat="40.280450" lon="-4.897033">
        <ele>2455.0</ele>
        <time>2018-06-24T13:38:14Z</time>
      </trkpt>
      <trkpt lat="40.280583" lon="-4.897017">
        <ele>2453.0</ele>
        <time>2018-06-24T13:38:15Z</time>
      </trkpt>
      <trkpt lat="40.280700" lon="-4.897000">
        <ele>2451.0</ele>
        <time>2018-06-24T13:38:16Z</time>
      </trkpt>
      <trkpt lat="40.280833" lon="-4.897000">
        <ele>2450.0</ele>
        <time>2018-06-24T13:38:17Z</time>
      </trkpt>
      <trkpt lat="40.280950" lon="-4.896983">
        <ele>2450.0</ele>
        <time>2018-06-24T13:38:18Z</time>
      </trkpt>
      <trkpt lat="40.281050" lon="-4.896950">
        <ele>2450.0</ele>
        <time>2018-06-24T13:38:19Z</time>
      </trkpt>
      <trkpt lat="40.281167" lon="-4.896917">
        <ele>2449.0</ele>
        <time>2018-06-24T13:38:20Z</time>
      </trkpt>
      <trkpt lat="40.281283" lon="-4.896883">
        <ele>2449.0</ele>
        <time>2018-06-24T13:38:21Z</time>
      </trkpt>
      <trkpt lat="40.281383" lon="-4.896867">
        <ele>2448.0</ele>
        <time>2018-06-24T13:38:22Z</time>
      </trkpt>
      <trkpt lat="40.281500" lon="-4.896850">
        <ele>2446.0</ele>
        <time>2018-06-24T13:38:23Z</time>
      </trkpt>
      <trkpt lat="40.281617" lon="-4.896833">
        <ele>2444.0</ele>
        <time>2018-06-24T13:38:24Z</time>
      </trkpt>
      <trkpt lat="40.281733" lon="-4.896833">
        <ele>2442.0</ele>
        <time>2018-06-24T13:38:25Z</time>
      </trkpt>
      <trkpt lat="40.281850" lon="-4.896817">
        <ele>2439.0</ele>
        <time>2018-06-24T13:38:26Z</time>
      </trkpt>
      <trkpt lat="40.281950" lon="-4.896783">
        <ele>2436.0</ele>
        <time>2018-06-24T13:38:27Z</time>
      </trkpt>
      <trkpt lat="40.282067" lon="-4.896750">
        <ele>2433.0</ele>
        <time>2018-06-24T13:38:28Z</time>
      </trkpt>
      <trkpt lat="40.282183" lon="-4.896717">
        <ele>2429.0</ele>
        <time>2018-06-24T13:38:29Z</time>
      </trkpt>
      <trkpt lat="40.282300" lon="-4.896700">
        <ele>2425.0</ele>
        <time>2018-06-24T13:38:30Z</time>
      </trkpt>
      <trkpt lat="40.282417" lon="-4.896667">
        <ele>2421.0</ele>
        <time>2018-06-24T13:38:31Z</time>
      </trkpt>
      <trkpt lat="40.282533" lon="-4.896633">
        <ele>2418.0</ele>
        <time>2018-06-24T13:38:32Z</time>
      </trkpt>
      <trkpt lat="40.282667" lon="-4.896583">
        <ele>2414.0</ele>
        <time>2018-06-24T13:38:33Z</time>
      </trkpt>
      <trkpt lat="40.282800" lon="-4.896533">
        <ele>2411.0</ele>
        <time>2018-06-24T13:38:34Z</time>
      </trkpt>
      <trkpt lat="40.282917" lon="-4.896500">
        <ele>2409.0</ele>
        <time>2018-06-24T13:38:35Z</time>
      </trkpt>
      <trkpt lat="40.283050" lon="-4.896467">
        <ele>2406.0</ele>
        <time>2018-06-24T13:38:36Z</time>
      </trkpt>
      <trkpt lat="40.283167" lon="-4.896433">
        <ele>2403.0</ele>
        <time>2018-06-24T13:38:37Z</time>
      </trkpt>
      <trkpt lat="40.283300" lon="-4.896383">
        <ele>2400.0</ele>
        <time>2018-06-24T13:38:38Z</time>
      </trkpt>
      <trkpt lat="40.283433" lon="-4.896333">
        <ele>2397.0</ele>
        <time>2018-06-24T13:38:39Z</time>
      </trkpt>
      <trkpt lat="40.283583" lon="-4.896267">
        <ele>2394.0</ele>
        <time>2018-06-24T13:38:40Z</time>
      </trkpt>
      <trkpt lat="40.283717" lon="-4.896233">
        <ele>2392.0</ele>
        <time>2018-06-24T13:38:41Z</time>
      </trkpt>
      <trkpt lat="40.283867" lon="-4.896200">
        <ele>2391.0</ele>
        <time>2018-06-24T13:38:42Z</time>
      </trkpt>
      <trkpt lat="40.284000" lon="-4.896167">
        <ele>2390.0</ele>
        <time>2018-06-24T13:38:43Z</time>
      </trkpt>
      <trkpt lat="40.284133" lon="-4.896117">
        <ele>2389.0</ele>
        <time>2018-06-24T13:38:44Z</time>
      </trkpt>
      <trkpt lat="40.284267" lon="-4.896067">
        <ele>2389.0</ele>
        <time>2018-06-24T13:38:45Z</time>
      </trkpt>
      <trkpt lat="40.284383" lon="-4.896017">
        <ele>2389.0</ele>
        <time>2018-06-24T13:38:46Z</time>
      </trkpt>
      <trkpt lat="40.284517" lon="-4.895967">
        <ele>2388.0</ele>
        <time>2018-06-24T13:38:47Z</time>
      </trkpt>
      <trkpt lat="40.284633" lon="-4.895917">
        <ele>2386.0</ele>
        <time>2018-06-24T13:38:48Z</time>
      </trkpt>
      <trkpt lat="40.284750" lon="-4.895883">
        <ele>2385.0</ele>
        <time>2018-06-24T13:38:49Z</time>
      </trkpt>
      <trkpt lat="40.284883" lon="-4.895833">
        <ele>2383.0</ele>
        <time>2018-06-24T13:38:50Z</time>
      </trkpt>
      <trkpt lat="40.285017" lon="-4.895783">
        <ele>2381.0</ele>
        <time>2018-06-24T13:38:51Z</time>
      </trkpt>
      <trkpt lat="40.285150" lon="-4.895717">
        <ele>2380.0</ele>
        <time>2018-06-24T13:38:52Z</time>
      </trkpt>
      <trkpt lat="40.285267" lon="-4.895650">
        <ele>2380.0</ele>
        <time>2018-06-24T13:38:53Z</time>
      </trkpt>
      <trkpt lat="40.285383" lon="-4.895600">
        <ele>2380.0</ele>
        <time>2018-06-24T13:38:54Z</time>
      </trkpt>
      <trkpt lat="40.285500" lon="-4.895567">
        <ele>2380.0</ele>
        <time>2018-06-24T13:38:55Z</time>
      </trkpt>
      <trkpt lat="40.285600" lon="-4.895517">
        <ele>2379.0</ele>
        <time>2018-06-24T13:38:56Z</time>
      </trkpt>
      <trkpt lat="40.285717" lon="-4.895450">
        <ele>2379.0</ele>
        <time>2018-06-24T13:38:57Z</time>
      </trkpt>
      <trkpt lat="40.285833" lon="-4.895383">
        <ele>2378.0</ele>
        <time>2018-06-24T13:38:58Z</time>
      </trkpt>
      <trkpt lat="40.285950" lon="-4.895317">
        <ele>2378.0</ele>
        <time>2018-06-24T13:38:59Z</time>
      </trkpt>
      <trkpt lat="40.286067" lon="-4.895233">
        <ele>2377.0</ele>
        <time>2018-06-24T13:39:00Z</time>
      </trkpt>
      <trkpt lat="40.286167" lon="-4.895183">
        <ele>2377.0</ele>
        <time>2018-06-24T13:39:01Z</time>
      </trkpt>
      <trkpt lat="40.286283" lon="-4.895133">
        <ele>2376.0</ele>
        <time>2018-06-24T13:39:02Z</time>
      </trkpt>
      <trkpt lat="40.286383" lon="-4.895100">
        <ele>2375.0</ele>
        <time>2018-06-24T13:39:03Z</time>
      </trkpt>
      <trkpt lat="40.286500" lon="-4.895050">
        <ele>2375.0</ele>
        <time>2018-06-24T13:39:04Z</time>
      </trkpt>
      <trkpt lat="40.286600" lon="-4.895000">
        <ele>2374.0</ele>
        <time>2018-06-24T13:39:05Z</time>
      </trkpt>
      <trkpt lat="40.286700" lon="-4.894967">
        <ele>2373.0</ele>
        <time>2018-06-24T13:39:06Z</time>
      </trkpt>
      <trkpt lat="40.286800" lon="-4.894933">
        <ele>2372.0</ele>
        <time>2018-06-24T13:39:07Z</time>
      </trkpt>
      <trkpt lat="40.286917" lon="-4.894900">
        <ele>2371.0</ele>
        <time>2018-06-24T13:39:08Z</time>
      </trkpt>
      <trkpt lat="40.287033" lon="-4.894883">
        <ele>2370.0</ele>
        <time>2018-06-24T13:39:09Z</time>
      </trkpt>
      <trkpt lat="40.287150" lon="-4.894850">
        <ele>2369.0</ele>
        <time>2018-06-24T13:39:10Z</time>
      </trkpt>
      <trkpt lat="40.287267" lon="-4.894833">
        <ele>2369.0</ele>
        <time>2018-06-24T13:39:11Z</time>
      </trkpt>
      <trkpt lat="40.287367" lon="-4.894817">
        <ele>2369.0</ele>
        <time>2018-06-24T13:39:12Z</time>
      </trkpt>
      <trkpt lat="40.287450" lon="-4.894800">
        <ele>2370.0</ele>
        <time>2018-06-24T13:39:13Z</time>
      </trkpt>
      <trkpt lat="40.287533" lon="-4.894767">
        <ele>2370.0</ele>
        <time>2018-06-24T13:39:14Z</time>
      </trkpt>
      <trkpt lat="40.287617" lon="-4.894717">
        <ele>2369.0</ele>
        <time>2018-06-24T13:39:15Z</time>
      </trkpt>
      <trkpt lat="40.287717" lon="-4.894667">
        <ele>2368.0</ele>
        <time>2018-06-24T13:39:16Z</time>
      </trkpt>
      <trkpt lat="40.287817" lon="-4.894617">
        <ele>2366.0</ele>
        <time>2018-06-24T13:39:17Z</time>
      </trkpt>
      <trkpt lat="40.287950" lon="-4.894600">
        <ele>2365.0</ele>
        <time>2018-06-24T13:39:18Z</time>
      </trkpt>
      <trkpt lat="40.288083" lon="-4.894583">
        <ele>2365.0</ele>
        <time>2018-06-24T13:39:19Z</time>
      </trkpt>
      <trkpt lat="40.288217" lon="-4.894550">
        <ele>2366.0</ele>
        <time>2018-06-24T13:39:20Z</time>
      </trkpt>
      <trkpt lat="40.288333" lon="-4.894500">
        <ele>2369.0</ele>
        <time>2018-06-24T13:39:21Z</time>
      </trkpt>
      <trkpt lat="40.288450" lon="-4.894467">
        <ele>2372.0</ele>
        <time>2018-06-24T13:39:22Z</time>
      </trkpt>
      <trkpt lat="40.288550" lon="-4.894433">
        <ele>2376.0</ele>
        <time>2018-06-24T13:39:23Z</time>
      </trkpt>
      <trkpt lat="40.288650" lon="-4.894400">
        <ele>2377.0</ele>
        <time>2018-06-24T13:39:24Z</time>
      </trkpt>
      <trkpt lat="40.288750" lon="-4.894367">
        <ele>2378.0</ele>
        <time>2018-06-24T13:39:25Z</time>
      </trkpt>
      <trkpt lat="40.288850" lon="-4.894333">
        <ele>2378.0</ele>
        <time>2018-06-24T13:39:26Z</time>
      </trkpt>
      <trkpt lat="40.288950" lon="-4.894250">
        <ele>2379.0</ele>
        <time>2018-06-24T13:39:27Z</time>
      </trkpt>
      <trkpt lat="40.289033" lon="-4.894117">
        <ele>2380.0</ele>
        <time>2018-06-24T13:39:28Z</time>
      </trkpt>
      <trkpt lat="40.289100" lon="-4.893950">
        <ele>2380.0</ele>
        <time>2018-06-24T13:39:29Z</time>
      </trkpt>
      <trkpt lat="40.289133" lon="-4.893767">
        <ele>2380.0</ele>
        <time>2018-06-24T13:39:30Z</time>
      </trkpt>
      <trkpt lat="40.289133" lon="-4.893583">
        <ele>2381.0</ele>
        <time>2018-06-24T13:39:31Z</time>
      </trkpt>
      <trkpt lat="40.289100" lon="-4.893417">
        <ele>2381.0</ele>
        <time>2018-06-24T13:39:32Z</time>
      </trkpt>
      <trkpt lat="40.289033" lon="-4.893283">
        <ele>2381.0</ele>
        <time>2018-06-24T13:39:33Z</time>
      </trkpt>
      <trkpt lat="40.288950" lon="-4.893200">
        <ele>2380.0</ele>
        <time>2018-06-24T13:39:34Z</time>
      </trkpt>
      <trkpt lat="40.288850" lon="-4.893183">
        <ele>2379.0</ele>
        <time>2018-06-24T13:39:35Z</time>
      </trkpt>
      <trkpt lat="40.288783" lon="-4.893217">
        <ele>2379.0</ele>
        <time>2018-06-24T13:39:36Z</time>
      </trkpt>
      <trkpt lat="40.288750" lon="-4.893283">
        <ele>2378.0</ele>
        <time>2018-06-24T13:39:37Z</time>
      </trkpt>
      <trkpt lat="40.288750" lon="-4.893367">
        <ele>2378.0</ele>
        <time>2018-06-24T13:39:38Z</time>
      </trkpt>
      <trkpt lat="40.288767" lon="-4.893433">
        <ele>2380.0</ele>
        <time>2018-06-24T13:39:39Z</time>
      </trkpt>
      <trkpt lat="40.288817" lon="-4.893483">
        <ele>2382.0</ele>
        <time>2018-06-24T13:39:40Z</time>
      </trkpt>
      <trkpt lat="40.288850" lon="-4.893517">
        <ele>2384.0</ele>
        <time>2018-06-24T13:39:41Z</time>
      </trkpt>
      <trkpt lat="40.288900" lon="-4.893550">
        <ele>2385.0</ele>
        <time>2018-06-24T13:39:42Z</time>
      </trkpt>
      <trkpt lat="40.288950" lon="-4.893583">
        <ele>2385.0</ele>
        <time>2018-06-24T13:39:43Z</time>
      </trkpt>
      <trkpt lat="40.289000" lon="-4.893600">
        <ele>2386.0</ele>
        <time>2018-06-24T13:39:44Z</time>
      </trkpt>
      <trkpt lat="40.289067" lon="-4.893633">
        <ele>2385.0</ele>
        <time>2018-06-24T13:39:45Z</time>
      </trkpt>
      <trkpt lat="40.289150" lon="-4.893650">
        <ele>2385.0</ele>
        <time>2018-06-24T13:39:46Z</time>
      </trkpt>
      <trkpt lat="40.289250" lon="-4.893633">
        <ele>2385.0</ele>
        <time>2018-06-24T13:39:47Z</time>
      </trkpt>
      <trkpt lat="40.289350" lon="-4.893600">
        <ele>2386.0</ele>
        <time>2018-06-24T13:39:48Z</time>
      </trkpt>
      <trkpt lat="40.289467" lon="-4.893550">
        <ele>2387.0</ele>
        <time>2018-06-24T13:39:49Z</time>
      </trkpt>
      <trkpt lat="40.289567" lon="-4.893483">
        <ele>2389.0</ele>
        <time>2018-06-24T13:39:50Z</time>
      </trkpt>
      <trkpt lat="40.289650" lon="-4.893433">
        <ele>2391.0</ele>
        <time>2018-06-24T13:39:51Z</time>
      </trkpt>
      <trkpt lat="40.289733" lon="-4.893383">
        <ele>2391.0</ele>
        <time>2018-06-24T13:39:52Z</time>
      </trkpt>
      <trkpt lat="40.289833" lon="-4.893350">
        <ele>2390.0</ele>
        <time>2018-06-24T13:39:53Z</time>
      </trkpt>
      <trkpt lat="40.289917" lon="-4.893317">
        <ele>2390.0</ele>
        <time>2018-06-24T13:39:54Z</time>
      </trkpt>
      <trkpt lat="40.290000" lon="-4.893250">
        <ele>2389.0</ele>
        <time>2018-06-24T13:39:55Z</time>
      </trkpt>
      <trkpt lat="40.290100" lon="-4.893183">
        <ele>2387.0</ele>
        <time>2018-06-24T13:39:56Z</time>
      </trkpt>
      <trkpt lat="40.290200" lon="-4.893100">
        <ele>2385.0</ele>
        <time>2018-06-24T13:39:57Z</time>
      </trkpt>
      <trkpt lat="40.290283" lon="-4.893033">
        <ele>2383.0</ele>
        <time>2018-06-24T13:39:58Z</time>
      </trkpt>
      <trkpt lat="40.290383" lon="-4.892983">
        <ele>2382.0</ele>
        <time>2018-06-24T13:39:59Z</time>
      </trkpt>
      <trkpt lat="40.290483" lon="-4.892933">
        <ele>2380.0</ele>
        <time>2018-06-24T13:40:00Z</time>
      </trkpt>
      <trkpt lat="40.290583" lon="-4.892900">
        <ele>2379.0</ele>
        <time>2018-06-24T13:40:01Z</time>
      </trkpt>
      <trkpt lat="40.290683" lon="-4.892867">
        <ele>2378.0</ele>
        <time>2018-06-24T13:40:02Z</time>
      </trkpt>
      <trkpt lat="40.290767" lon="-4.892850">
        <ele>2377.0</ele>
        <time>2018-06-24T13:40:03Z</time>
      </trkpt>
      <trkpt lat="40.290867" lon="-4.892833">
        <ele>2375.0</ele>
        <time>2018-06-24T13:40:04Z</time>
      </trkpt>
      <trkpt lat="40.290967" lon="-4.892800">
        <ele>2373.0</ele>
        <time>2018-06-24T13:40:05Z</time>
      </trkpt>
      <trkpt lat="40.291050" lon="-4.892750">
        <ele>2371.0</ele>
        <time>2018-06-24T13:40:06Z</time>
      </trkpt>
      <trkpt lat="40.291150" lon="-4.892717">
        <ele>2369.0</ele>
        <time>2018-06-24T13:40:07Z</time>
      </trkpt>
      <trkpt lat="40.291250" lon="-4.892650">
        <ele>2367.0</ele>
        <time>2018-06-24T13:40:08Z</time>
      </trkpt>
      <trkpt lat="40.291350" lon="-4.892600">
        <ele>2364.0</ele>
        <time>2018-06-24T13:40:09Z</time>
      </trkpt>
      <trkpt lat="40.291467" lon="-4.892533">
        <ele>2361.0</ele>
        <time>2018-06-24T13:40:10Z</time>
      </trkpt>
      <trkpt lat="40.291567" lon="-4.892483">
        <ele>2358.0</ele>
        <time>2018-06-24T13:40:11Z</time>
      </trkpt>
      <trkpt lat="40.291683" lon="-4.892433">
        <ele>2356.0</ele>
        <time>2018-06-24T13:40:12Z</time>
      </trkpt>
      <trkpt lat="40.291783" lon="-4.892400">
        <ele>2354.0</ele>
        <time>2018-06-24T13:40:13Z</time>
      </trkpt>
      <trkpt lat="40.291900" lon="-4.892333">
        <ele>2352.0</ele>
        <time>2018-06-24T13:40:14Z</time>
      </trkpt>
      <trkpt lat="40.292000" lon="-4.892283">
        <ele>2351.0</ele>
        <time>2018-06-24T13:40:15Z</time>
      </trkpt>
      <trkpt lat="40.292117" lon="-4.892217">
        <ele>2348.0</ele>
        <time>2018-06-24T13:40:16Z</time>
      </trkpt>
      <trkpt lat="40.292217" lon="-4.892183">
        <ele>2346.0</ele>
        <time>2018-06-24T13:40:17Z</time>
      </trkpt>
      <trkpt lat="40.292333" lon="-4.892133">
        <ele>2344.0</ele>
        <time>2018-06-24T13:40:18Z</time>
      </trkpt>
      <trkpt lat="40.292450" lon="-4.892100">
        <ele>2343.0</ele>
        <time>2018-06-24T13:40:19Z</time>
      </trkpt>
      <trkpt lat="40.292550" lon="-4.892050">
        <ele>2342.0</ele>
        <time>2018-06-24T13:40:20Z</time>
      </trkpt>
      <trkpt lat="40.292667" lon="-4.892000">
        <ele>2340.0</ele>
        <time>2018-06-24T13:40:21Z</time>
      </trkpt>
      <trkpt lat="40.292783" lon="-4.891950">
        <ele>2338.0</ele>
        <time>2018-06-24T13:40:22Z</time>
      </trkpt>
      <trkpt lat="40.292883" lon="-4.891917">
        <ele>2335.0</ele>
        <time>2018-06-24T13:40:23Z</time>
      </trkpt>
      <trkpt lat="40.293000" lon="-4.891867">
        <ele>2332.0</ele>
        <time>2018-06-24T13:40:24Z</time>
      </trkpt>
      <trkpt lat="40.293117" lon="-4.891800">
        <ele>2330.0</ele>
        <time>2018-06-24T13:40:25Z</time>
      </trkpt>
      <trkpt lat="40.293233" lon="-4.891750">
        <ele>2328.0</ele>
        <time>2018-06-24T13:40:26Z</time>
      </trkpt>
      <trkpt lat="40.293350" lon="-4.891700">
        <ele>2326.0</ele>
        <time>2018-06-24T13:40:27Z</time>
      </trkpt>
      <trkpt lat="40.293450" lon="-4.891650">
        <ele>2324.0</ele>
        <time>2018-06-24T13:40:28Z</time>
      </trkpt>
      <trkpt lat="40.293567" lon="-4.891600">
        <ele>2321.0</ele>
        <time>2018-06-24T13:40:29Z</time>
      </trkpt>
      <trkpt lat="40.293683" lon="-4.891567">
        <ele>2319.0</ele>
        <time>2018-06-24T13:40:30Z</time>
      </trkpt>
      <trkpt lat="40.293783" lon="-4.891533">
        <ele>2316.0</ele>
        <time>2018-06-24T13:40:31Z</time>
      </trkpt>
      <trkpt lat="40.293900" lon="-4.891500">
        <ele>2313.0</ele>
        <time>2018-06-24T13:40:32Z</time>
      </trkpt>
      <trkpt lat="40.294017" lon="-4.891467">
        <ele>2310.0</ele>
        <time>2018-06-24T13:40:33Z</time>
      </trkpt>
      <trkpt lat="40.294133" lon="-4.891433">
        <ele>2308.0</ele>
        <time>2018-06-24T13:40:34Z</time>
      </trkpt>
      <trkpt lat="40.294250" lon="-4.891383">
        <ele>2305.0</ele>
        <time>2018-06-24T13:40:35Z</time>
      </trkpt>
      <trkpt lat="40.294367" lon="-4.891333">
        <ele>2303.0</ele>
        <time>2018-06-24T13:40:36Z</time>
      </trkpt>
      <trkpt lat="40.294483" lon="-4.891283">
        <ele>2301.0</ele>
        <time>2018-06-24T13:40:37Z</time>
      </trkpt>
      <trkpt lat="40.294600" lon="-4.891217">
        <ele>2299.0</ele>
        <time>2018-06-24T13:40:38Z</time>
      </trkpt>
      <trkpt lat="40.294717" lon="-4.891150">
        <ele>2298.0</ele>
        <time>2018-06-24T13:40:39Z</time>
      </trkpt>
      <trkpt lat="40.294833" lon="-4.891100">
        <ele>2296.0</ele>
        <time>2018-06-24T13:40:40Z</time>
      </trkpt>
      <trkpt lat="40.294933" lon="-4.891067">
        <ele>2293.0</ele>
        <time>2018-06-24T13:40:41Z</time>
      </trkpt>
      <trkpt lat="40.295050" lon="-4.891033">
        <ele>2290.0</ele>
        <time>2018-06-24T13:40:42Z</time>
      </trkpt>
      <trkpt lat="40.295167" lon="-4.891000">
        <ele>2287.0</ele>
        <time>2018-06-24T13:40:43Z</time>
      </trkpt>
      <trkpt lat="40.295300" lon="-4.890967">
        <ele>2284.0</ele>
        <time>2018-06-24T13:40:44Z</time>
      </trkpt>
      <trkpt lat="40.295417" lon="-4.890933">
        <ele>2282.0</ele>
        <time>2018-06-24T13:40:45Z</time>
      </trkpt>
      <trkpt lat="40.295550" lon="-4.890900">
        <ele>2280.0</ele>
        <time>2018-06-24T13:40:46Z</time>
      </trkpt>
      <trkpt lat="40.295667" lon="-4.890867">
        <ele>2278.0</ele>
        <time>2018-06-24T13:40:47Z</time>
      </trkpt>
      <trkpt lat="40.295783" lon="-4.890833">
        <ele>2276.0</ele>
        <time>2018-06-24T13:40:48Z</time>
      </trkpt>
      <trkpt lat="40.295917" lon="-4.890783">
        <ele>2273.0</ele>
        <time>2018-06-24T13:40:49Z</time>
      </trkpt>
      <trkpt lat="40.296067" lon="-4.890717">
        <ele>2272.0</ele>
        <time>2018-06-24T13:40:50Z</time>
      </trkpt>
      <trkpt lat="40.296183" lon="-4.890633">
        <ele>2273.0</ele>
        <time>2018-06-24T13:40:51Z</time>
      </trkpt>
      <trkpt lat="40.296317" lon="-4.890583">
        <ele>2275.0</ele>
        <time>2018-06-24T13:40:52Z</time>
      </trkpt>
      <trkpt lat="40.296417" lon="-4.890533">
        <ele>2276.0</ele>
        <time>2018-06-24T13:40:53Z</time>
      </trkpt>
      <trkpt lat="40.296517" lon="-4.890483">
        <ele>2276.0</ele>
        <time>2018-06-24T13:40:54Z</time>
      </trkpt>
      <trkpt lat="40.296617" lon="-4.890450">
        <ele>2275.0</ele>
        <time>2018-06-24T13:40:55Z</time>
      </trkpt>
      <trkpt lat="40.296733" lon="-4.890400">
        <ele>2274.0</ele>
        <time>2018-06-24T13:40:56Z</time>
      </trkpt>
      <trkpt lat="40.296850" lon="-4.890383">
        <ele>2272.0</ele>
        <time>2018-06-24T13:40:57Z</time>
      </trkpt>
      <trkpt lat="40.296967" lon="-4.890383">
        <ele>2271.0</ele>
        <time>2018-06-24T13:40:58Z</time>
      </trkpt>
      <trkpt lat="40.297083" lon="-4.890417">
        <ele>2270.0</ele>
        <time>2018-06-24T13:40:59Z</time>
      </trkpt>
      <trkpt lat="40.297183" lon="-4.890433">
        <ele>2269.0</ele>
        <time>2018-06-24T13:41:00Z</time>
      </trkpt>
      <trkpt lat="40.297283" lon="-4.890467">
        <ele>2270.0</ele>
        <time>2018-06-24T13:41:01Z</time>
      </trkpt>
      <trkpt lat="40.297367" lon="-4.890500">
        <ele>2270.0</ele>
        <time>2018-06-24T13:41:02Z</time>
      </trkpt>
      <trkpt lat="40.297450" lon="-4.890550">
        <ele>2270.0</ele>
        <time>2018-06-24T13:41:03Z</time>
      </trkpt>
      <trkpt lat="40.297517" lon="-4.890617">
        <ele>2269.0</ele>
        <time>2018-06-24T13:41:04Z</time>
      </trkpt>
      <trkpt lat="40.297600" lon="-4.890683">
        <ele>2269.0</ele>
        <time>2018-06-24T13:41:05Z</time>
      </trkpt>
      <trkpt lat="40.297667" lon="-4.890767">
        <ele>2269.0</ele>
        <time>2018-06-24T13:41:06Z</time>
      </trkpt>
      <trkpt lat="40.297750" lon="-4.890833">
        <ele>2268.0</ele>
        <time>2018-06-24T13:41:07Z</time>
      </trkpt>
      <trkpt lat="40.297817" lon="-4.890917">
        <ele>2268.0</ele>
        <time>2018-06-24T13:41:08Z</time>
      </trkpt>
      <trkpt lat="40.297883" lon="-4.890983">
        <ele>2268.0</ele>
        <time>2018-06-24T13:41:09Z</time>
      </trkpt>
      <trkpt lat="40.297950" lon="-4.891067">
        <ele>2267.0</ele>
        <time>2018-06-24T13:41:10Z</time>
      </trkpt>
      <trkpt lat="40.298033" lon="-4.891133">
        <ele>2267.0</ele>
        <time>2018-06-24T13:41:11Z</time>
      </trkpt>
      <trkpt lat="40.298117" lon="-4.891167">
        <ele>2266.0</ele>
        <time>2018-06-24T13:41:12Z</time>
      </trkpt>
      <trkpt lat="40.298217" lon="-4.891200">
        <ele>2265.0</ele>
        <time>2018-06-24T13:41:13Z</time>
      </trkpt>
      <trkpt lat="40.298333" lon="-4.891217">
        <ele>2264.0</ele>
        <time>2018-06-24T13:41:14Z</time>
      </trkpt>
      <trkpt lat="40.298450" lon="-4.891233">
        <ele>2263.0</ele>
        <time>2018-06-24T13:41:15Z</time>
      </trkpt>
      <trkpt lat="40.298567" lon="-4.891217">
        <ele>2262.0</ele>
        <time>2018-06-24T13:41:16Z</time>
      </trkpt>
      <trkpt lat="40.298683" lon="-4.891217">
        <ele>2262.0</ele>
        <time>2018-06-24T13:41:17Z</time>
      </trkpt>
      <trkpt lat="40.298817" lon="-4.891183">
        <ele>2261.0</ele>
        <time>2018-06-24T13:41:18Z</time>
      </trkpt>
      <trkpt lat="40.298933" lon="-4.891150">
        <ele>2261.0</ele>
        <time>2018-06-24T13:41:19Z</time>
      </trkpt>
      <trkpt lat="40.299050" lon="-4.891100">
        <ele>2261.0</ele>
        <time>2018-06-24T13:41:20Z</time>
      </trkpt>
      <trkpt lat="40.299167" lon="-4.891050">
        <ele>2261.0</ele>
        <time>2018-06-24T13:41:21Z</time>
      </trkpt>
      <trkpt lat="40.299283" lon="-4.890983">
        <ele>2261.0</ele>
        <time>2018-06-24T13:41:22Z</time>
      </trkpt>
      <trkpt lat="40.299383" lon="-4.890917">
        <ele>2260.0</ele>
        <time>2018-06-24T13:41:23Z</time>
      </trkpt>
      <trkpt lat="40.299500" lon="-4.890833">
        <ele>2259.0</ele>
        <time>2018-06-24T13:41:24Z</time>
      </trkpt>
      <trkpt lat="40.299633" lon="-4.890767">
        <ele>2258.0</ele>
        <time>2018-06-24T13:41:25Z</time>
      </trkpt>
      <trkpt lat="40.299750" lon="-4.890700">
        <ele>2258.0</ele>
        <time>2018-06-24T13:41:26Z</time>
      </trkpt>
      <trkpt lat="40.299883" lon="-4.890633">
        <ele>2258.0</ele>
        <time>2018-06-24T13:41:27Z</time>
      </trkpt>
      <trkpt lat="40.300000" lon="-4.890550">
        <ele>2259.0</ele>
        <time>2018-06-24T13:41:28Z</time>
      </trkpt>
      <trkpt lat="40.300100" lon="-4.890483">
        <ele>2259.0</ele>
        <time>2018-06-24T13:41:29Z</time>
      </trkpt>
      <trkpt lat="40.300183" lon="-4.890433">
        <ele>2259.0</ele>
        <time>2018-06-24T13:41:30Z</time>
      </trkpt>
      <trkpt lat="40.300283" lon="-4.890367">
        <ele>2258.0</ele>
        <time>2018-06-24T13:41:31Z</time>
      </trkpt>
      <trkpt lat="40.300367" lon="-4.890300">
        <ele>2256.0</ele>
        <time>2018-06-24T13:41:32Z</time>
      </trkpt>
      <trkpt lat="40.300467" lon="-4.890233">
        <ele>2253.0</ele>
        <time>2018-06-24T13:41:33Z</time>
      </trkpt>
      <trkpt lat="40.300550" lon="-4.890150">
        <ele>2250.0</ele>
        <time>2018-06-24T13:41:34Z</time>
      </trkpt>
      <trkpt lat="40.300650" lon="-4.890050">
        <ele>2248.0</ele>
        <time>2018-06-24T13:41:35Z</time>
      </trkpt>
      <trkpt lat="40.300767" lon="-4.889967">
        <ele>2245.0</ele>
        <time>2018-06-24T13:41:36Z</time>
      </trkpt>
      <trkpt lat="40.300850" lon="-4.889850">
        <ele>2244.0</ele>
        <time>2018-06-24T13:41:37Z</time>
      </trkpt>
      <trkpt lat="40.300950" lon="-4.889733">
        <ele>2243.0</ele>
        <time>2018-06-24T13:41:38Z</time>
      </trkpt>
      <trkpt lat="40.301017" lon="-4.889633">
        <ele>2243.0</ele>
        <time>2018-06-24T13:41:39Z</time>
      </trkpt>
      <trkpt lat="40.301100" lon="-4.889517">
        <ele>2243.0</ele>
        <time>2018-06-24T13:41:40Z</time>
      </trkpt>
      <trkpt lat="40.301167" lon="-4.889417">
        <ele>2243.0</ele>
        <time>2018-06-24T13:41:41Z</time>
      </trkpt>
      <trkpt lat="40.301250" lon="-4.889317">
        <ele>2243.0</ele>
        <time>2018-06-24T13:41:42Z</time>
      </trkpt>
      <trkpt lat="40.301317" lon="-4.889233">
        <ele>2243.0</ele>
        <time>2018-06-24T13:41:43Z</time>
      </trkpt>
      <trkpt lat="40.301400" lon="-4.889150">
        <ele>2242.0</ele>
        <time>2018-06-24T13:41:44Z</time>
      </trkpt>
      <trkpt lat="40.301467" lon="-4.889067">
        <ele>2242.0</ele>
        <time>2018-06-24T13:41:45Z</time>
      </trkpt>
      <trkpt lat="40.301550" lon="-4.888983">
        <ele>2241.0</ele>
        <time>2018-06-24T13:41:46Z</time>
      </trkpt>
      <trkpt lat="40.301633" lon="-4.888900">
        <ele>2241.0</ele>
        <time>2018-06-24T13:41:47Z</time>
      </trkpt>
      <trkpt lat="40.301733" lon="-4.888817">
        <ele>2241.0</ele>
        <time>2018-06-24T13:41:48Z</time>
      </trkpt>
      <trkpt lat="40.301817" lon="-4.888733">
        <ele>2241.0</ele>
        <time>2018-06-24T13:41:49Z</time>
      </trkpt>
      <trkpt lat="40.301900" lon="-4.888650">
        <ele>2241.0</ele>
        <time>2018-06-24T13:41:50Z</time>
      </trkpt>
      <trkpt lat="40.301983" lon="-4.888583">
        <ele>2241.0</ele>
        <time>2018-06-24T13:41:51Z</time>
      </trkpt>
      <trkpt lat="40.302067" lon="-4.888483">
        <ele>2240.0</ele>
        <time>2018-06-24T13:41:52Z</time>
      </trkpt>
      <trkpt lat="40.302150" lon="-4.888383">
        <ele>2239.0</ele>
        <time>2018-06-24T13:41:53Z</time>
      </trkpt>
      <trkpt lat="40.302233" lon="-4.888300">
        <ele>2239.0</ele>
        <time>2018-06-24T13:41:54Z</time>
      </trkpt>
      <trkpt lat="40.302317" lon="-4.888200">
        <ele>2239.0</ele>
        <time>2018-06-24T13:41:55Z</time>
      </trkpt>
      <trkpt lat="40.302400" lon="-4.888117">
        <ele>2239.0</ele>
        <time>2018-06-24T13:41:56Z</time>
      </trkpt>
      <trkpt lat="40.302483" lon="-4.888033">
        <ele>2239.0</ele>
        <time>2018-06-24T13:41:57Z</time>
      </trkpt>
      <trkpt lat="40.302583" lon="-4.887950">
        <ele>2239.0</ele>
        <time>2018-06-24T13:41:58Z</time>
      </trkpt>
      <trkpt lat="40.302667" lon="-4.887867">
        <ele>2238.0</ele>
        <time>2018-06-24T13:41:59Z</time>
      </trkpt>
      <trkpt lat="40.302783" lon="-4.887783">
        <ele>2236.0</ele>
        <time>2018-06-24T13:42:00Z</time>
      </trkpt>
      <trkpt lat="40.302883" lon="-4.887700">
        <ele>2236.0</ele>
        <time>2018-06-24T13:42:01Z</time>
      </trkpt>
      <trkpt lat="40.302983" lon="-4.887600">
        <ele>2236.0</ele>
        <time>2018-06-24T13:42:02Z</time>
      </trkpt>
      <trkpt lat="40.303067" lon="-4.887517">
        <ele>2237.0</ele>
        <time>2018-06-24T13:42:03Z</time>
      </trkpt>
      <trkpt lat="40.303150" lon="-4.887433">
        <ele>2237.0</ele>
        <time>2018-06-24T13:42:04Z</time>
      </trkpt>
      <trkpt lat="40.303233" lon="-4.887350">
        <ele>2236.0</ele>
        <time>2018-06-24T13:42:05Z</time>
      </trkpt>
      <trkpt lat="40.303317" lon="-4.887267">
        <ele>2234.0</ele>
        <time>2018-06-24T13:42:06Z</time>
      </trkpt>
      <trkpt lat="40.303400" lon="-4.887167">
        <ele>2232.0</ele>
        <time>2018-06-24T13:42:07Z</time>
      </trkpt>
      <trkpt lat="40.303483" lon="-4.887050">
        <ele>2230.0</ele>
        <time>2018-06-24T13:42:08Z</time>
      </trkpt>
      <trkpt lat="40.303567" lon="-4.886933">
        <ele>2229.0</ele>
        <time>2018-06-24T13:42:09Z</time>
      </trkpt>
      <trkpt lat="40.303633" lon="-4.886800">
        <ele>2228.0</ele>
        <time>2018-06-24T13:42:10Z</time>
      </trkpt>
      <trkpt lat="40.303683" lon="-4.886683">
        <ele>2228.0</ele>
        <time>2018-06-24T13:42:11Z</time>
      </trkpt>
      <trkpt lat="40.303750" lon="-4.886567">
        <ele>2226.0</ele>
        <time>2018-06-24T13:42:12Z</time>
      </trkpt>
      <trkpt lat="40.303817" lon="-4.886467">
        <ele>2225.0</ele>
        <time>2018-06-24T13:42:13Z</time>
      </trkpt>
      <trkpt lat="40.303900" lon="-4.886350">
        <ele>2222.0</ele>
        <time>2018-06-24T13:42:14Z</time>
      </trkpt>
      <trkpt lat="40.303983" lon="-4.886250">
        <ele>2220.0</ele>
        <time>2018-06-24T13:42:15Z</time>
      </trkpt>
      <trkpt lat="40.304067" lon="-4.886133">
        <ele>2217.0</ele>
        <time>2018-06-24T13:42:16Z</time>
      </trkpt>
      <trkpt lat="40.304167" lon="-4.886033">
        <ele>2215.0</ele>
        <time>2018-06-24T13:42:17Z</time>
      </trkpt>
      <trkpt lat="40.304300" lon="-4.885917">
        <ele>2214.0</ele>
        <time>2018-06-24T13:42:18Z</time>
      </trkpt>
      <trkpt lat="40.304367" lon="-4.885833">
        <ele>2213.0</ele>
        <time>2018-06-24T13:42:19Z</time>
      </trkpt>
      <trkpt lat="40.304467" lon="-4.885733">
        <ele>2212.0</ele>
        <time>2018-06-24T13:42:20Z</time>
      </trkpt>
      <trkpt lat="40.304567" lon="-4.885633">
        <ele>2211.0</ele>
        <time>2018-06-24T13:42:21Z</time>
      </trkpt>
      <trkpt lat="40.304667" lon="-4.885533">
        <ele>2210.0</ele>
        <time>2018-06-24T13:42:22Z</time>
      </trkpt>
      <trkpt lat="40.304733" lon="-4.885433">
        <ele>2210.0</ele>
        <time>2018-06-24T13:42:23Z</time>
      </trkpt>
      <trkpt lat="40.304800" lon="-4.885317">
        <ele>2209.0</ele>
        <time>2018-06-24T13:42:24Z</time>
      </trkpt>
      <trkpt lat="40.304850" lon="-4.885200">
        <ele>2207.0</ele>
        <time>2018-06-24T13:42:25Z</time>
      </trkpt>
      <trkpt lat="40.304900" lon="-4.885067">
        <ele>2206.0</ele>
        <time>2018-06-24T13:42:26Z</time>
      </trkpt>
      <trkpt lat="40.304933" lon="-4.884933">
        <ele>2204.0</ele>
        <time>2018-06-24T13:42:27Z</time>
      </trkpt>
      <trkpt lat="40.304950" lon="-4.884800">
        <ele>2203.0</ele>
        <time>2018-06-24T13:42:28Z</time>
      </trkpt>
      <trkpt lat="40.304967" lon="-4.884667">
        <ele>2203.0</ele>
        <time>2018-06-24T13:42:29Z</time>
      </trkpt>
      <trkpt lat="40.304950" lon="-4.884550">
        <ele>2203.0</ele>
        <time>2018-06-24T13:42:30Z</time>
      </trkpt>
      <trkpt lat="40.304933" lon="-4.884417">
        <ele>2203.0</ele>
        <time>2018-06-24T13:42:31Z</time>
      </trkpt>
      <trkpt lat="40.304917" lon="-4.884300">
        <ele>2202.0</ele>
        <time>2018-06-24T13:42:32Z</time>
      </trkpt>
      <trkpt lat="40.304900" lon="-4.884183">
        <ele>2201.0</ele>
        <time>2018-06-24T13:42:33Z</time>
      </trkpt>
      <trkpt lat="40.304867" lon="-4.884050">
        <ele>2199.0</ele>
        <time>2018-06-24T13:42:34Z</time>
      </trkpt>
      <trkpt lat="40.304850" lon="-4.883917">
        <ele>2197.0</ele>
        <time>2018-06-24T13:42:35Z</time>
      </trkpt>
      <trkpt lat="40.304833" lon="-4.883783">
        <ele>2196.0</ele>
        <time>2018-06-24T13:42:36Z</time>
      </trkpt>
      <trkpt lat="40.304833" lon="-4.883650">
        <ele>2194.0</ele>
        <time>2018-06-24T13:42:37Z</time>
      </trkpt>
      <trkpt lat="40.304850" lon="-4.883500">
        <ele>2191.0</ele>
        <time>2018-06-24T13:42:38Z</time>
      </trkpt>
      <trkpt lat="40.304883" lon="-4.883350">
        <ele>2189.0</ele>
        <time>2018-06-24T13:42:39Z</time>
      </trkpt>
      <trkpt lat="40.304900" lon="-4.883200">
        <ele>2187.0</ele>
        <time>2018-06-24T13:42:40Z</time>
      </trkpt>
      <trkpt lat="40.304917" lon="-4.883050">
        <ele>2185.0</ele>
        <time>2018-06-24T13:42:41Z</time>
      </trkpt>
      <trkpt lat="40.304917" lon="-4.882917">
        <ele>2184.0</ele>
        <time>2018-06-24T13:42:42Z</time>
      </trkpt>
      <trkpt lat="40.304933" lon="-4.882783">
        <ele>2182.0</ele>
        <time>2018-06-24T13:42:43Z</time>
      </trkpt>
      <trkpt lat="40.304933" lon="-4.882633">
        <ele>2179.0</ele>
        <time>2018-06-24T13:42:44Z</time>
      </trkpt>
      <trkpt lat="40.304933" lon="-4.882500">
        <ele>2175.0</ele>
        <time>2018-06-24T13:42:45Z</time>
      </trkpt>
      <trkpt lat="40.304917" lon="-4.882350">
        <ele>2172.0</ele>
        <time>2018-06-24T13:42:46Z</time>
      </trkpt>
      <trkpt lat="40.304867" lon="-4.882217">
        <ele>2169.0</ele>
        <time>2018-06-24T13:42:47Z</time>
      </trkpt>
      <trkpt lat="40.304833" lon="-4.882067">
        <ele>2168.0</ele>
        <time>2018-06-24T13:42:48Z</time>
      </trkpt>
      <trkpt lat="40.304783" lon="-4.881950">
        <ele>2168.0</ele>
        <time>2018-06-24T13:42:49Z</time>
      </trkpt>
      <trkpt lat="40.304750" lon="-4.881833">
        <ele>2167.0</ele>
        <time>2018-06-24T13:42:50Z</time>
      </trkpt>
      <trkpt lat="40.304733" lon="-4.881700">
        <ele>2165.0</ele>
        <time>2018-06-24T13:42:51Z</time>
      </trkpt>
      <trkpt lat="40.304717" lon="-4.881583">
        <ele>2162.0</ele>
        <time>2018-06-24T13:42:52Z</time>
      </trkpt>
      <trkpt lat="40.304683" lon="-4.881433">
        <ele>2158.0</ele>
        <time>2018-06-24T13:42:53Z</time>
      </trkpt>
      <trkpt lat="40.304650" lon="-4.881283">
        <ele>2155.0</ele>
        <time>2018-06-24T13:42:54Z</time>
      </trkpt>
      <trkpt lat="40.304633" lon="-4.881133">
        <ele>2153.0</ele>
        <time>2018-06-24T13:42:55Z</time>
      </trkpt>
      <trkpt lat="40.304617" lon="-4.880967">
        <ele>2151.0</ele>
        <time>2018-06-24T13:42:56Z</time>
      </trkpt>
      <trkpt lat="40.304600" lon="-4.880833">
        <ele>2151.0</ele>
        <time>2018-06-24T13:42:57Z</time>
      </trkpt>
      <trkpt lat="40.304583" lon="-4.880700">
        <ele>2151.0</ele>
        <time>2018-06-24T13:42:58Z</time>
      </trkpt>
      <trkpt lat="40.304550" lon="-4.880583">
        <ele>2150.0</ele>
        <time>2018-06-24T13:42:59Z</time>
      </trkpt>
      <trkpt lat="40.304533" lon="-4.880467">
        <ele>2148.0</ele>
        <time>2018-06-24T13:43:00Z</time>
      </trkpt>
      <trkpt lat="40.304517" lon="-4.880350">
        <ele>2146.0</ele>
        <time>2018-06-24T13:43:01Z</time>
      </trkpt>
      <trkpt lat="40.304483" lon="-4.880217">
        <ele>2143.0</ele>
        <time>2018-06-24T13:43:02Z</time>
      </trkpt>
      <trkpt lat="40.304450" lon="-4.880100">
        <ele>2139.0</ele>
        <time>2018-06-24T13:43:03Z</time>
      </trkpt>
      <trkpt lat="40.304417" lon="-4.879967">
        <ele>2137.0</ele>
        <time>2018-06-24T13:43:04Z</time>
      </trkpt>
      <trkpt lat="40.304367" lon="-4.879833">
        <ele>2135.0</ele>
        <time>2018-06-24T13:43:05Z</time>
      </trkpt>
      <trkpt lat="40.304333" lon="-4.879717">
        <ele>2133.0</ele>
        <time>2018-06-24T13:43:06Z</time>
      </trkpt>
      <trkpt lat="40.304283" lon="-4.879583">
        <ele>2131.0</ele>
        <time>2018-06-24T13:43:07Z</time>
      </trkpt>
      <trkpt lat="40.304250" lon="-4.879467">
        <ele>2129.0</ele>
        <time>2018-06-24T13:43:08Z</time>
      </trkpt>
      <trkpt lat="40.304200" lon="-4.879350">
        <ele>2127.0</ele>
        <time>2018-06-24T13:43:09Z</time>
      </trkpt>
      <trkpt lat="40.304133" lon="-4.879217">
        <ele>2125.0</ele>
        <time>2018-06-24T13:43:10Z</time>
      </trkpt>
      <trkpt lat="40.304083" lon="-4.879083">
        <ele>2123.0</ele>
        <time>2018-06-24T13:43:11Z</time>
      </trkpt>
      <trkpt lat="40.304050" lon="-4.878950">
        <ele>2122.0</ele>
        <time>2018-06-24T13:43:12Z</time>
      </trkpt>
      <trkpt lat="40.304017" lon="-4.878817">
        <ele>2121.0</ele>
        <time>2018-06-24T13:43:13Z</time>
      </trkpt>
      <trkpt lat="40.303983" lon="-4.878700">
        <ele>2120.0</ele>
        <time>2018-06-24T13:43:14Z</time>
      </trkpt>
      <trkpt lat="40.303950" lon="-4.878567">
        <ele>2118.0</ele>
        <time>2018-06-24T13:43:15Z</time>
      </trkpt>
      <trkpt lat="40.303933" lon="-4.878433">
        <ele>2116.0</ele>
        <time>2018-06-24T13:43:16Z</time>
      </trkpt>
      <trkpt lat="40.303917" lon="-4.878283">
        <ele>2113.0</ele>
        <time>2018-06-24T13:43:17Z</time>
      </trkpt>
      <trkpt lat="40.303917" lon="-4.878133">
        <ele>2112.0</ele>
        <time>2018-06-24T13:43:18Z</time>
      </trkpt>
      <trkpt lat="40.303917" lon="-4.877983">
        <ele>2111.0</ele>
        <time>2018-06-24T13:43:19Z</time>
      </trkpt>
      <trkpt lat="40.303933" lon="-4.877833">
        <ele>2110.0</ele>
        <time>2018-06-24T13:43:20Z</time>
      </trkpt>
      <trkpt lat="40.303950" lon="-4.877700">
        <ele>2109.0</ele>
        <time>2018-06-24T13:43:21Z</time>
      </trkpt>
      <trkpt lat="40.303967" lon="-4.877583">
        <ele>2108.0</ele>
        <time>2018-06-24T13:43:22Z</time>
      </trkpt>
      <trkpt lat="40.304000" lon="-4.877433">
        <ele>2105.0</ele>
        <time>2018-06-24T13:43:23Z</time>
      </trkpt>
      <trkpt lat="40.304017" lon="-4.877300">
        <ele>2102.0</ele>
        <time>2018-06-24T13:43:24Z</time>
      </trkpt>
      <trkpt lat="40.304050" lon="-4.877133">
        <ele>2099.0</ele>
        <time>2018-06-24T13:43:25Z</time>
      </trkpt>
      <trkpt lat="40.304067" lon="-4.876967">
        <ele>2098.0</ele>
        <time>2018-06-24T13:43:26Z</time>
      </trkpt>
      <trkpt lat="40.304083" lon="-4.876817">
        <ele>2098.0</ele>
        <time>2018-06-24T13:43:27Z</time>
      </trkpt>
      <trkpt lat="40.304083" lon="-4.876667">
        <ele>2099.0</ele>
        <time>2018-06-24T13:43:28Z</time>
      </trkpt>
      <trkpt lat="40.304067" lon="-4.876550">
        <ele>2099.0</ele>
        <time>2018-06-24T13:43:29Z</time>
      </trkpt>
      <trkpt lat="40.304050" lon="-4.876417">
        <ele>2097.0</ele>
        <time>2018-06-24T13:43:30Z</time>
      </trkpt>
      <trkpt lat="40.304033" lon="-4.876283">
        <ele>2095.0</ele>
        <time>2018-06-24T13:43:31Z</time>
      </trkpt>
      <trkpt lat="40.304033" lon="-4.876133">
        <ele>2093.0</ele>
        <time>2018-06-24T13:43:32Z</time>
      </trkpt>
      <trkpt lat="40.304017" lon="-4.875983">
        <ele>2091.0</ele>
        <time>2018-06-24T13:43:33Z</time>
      </trkpt>
      <trkpt lat="40.304017" lon="-4.875817">
        <ele>2090.0</ele>
        <time>2018-06-24T13:43:34Z</time>
      </trkpt>
      <trkpt lat="40.304017" lon="-4.875667">
        <ele>2090.0</ele>
        <time>2018-06-24T13:43:35Z</time>
      </trkpt>
      <trkpt lat="40.304017" lon="-4.875533">
        <ele>2089.0</ele>
        <time>2018-06-24T13:43:36Z</time>
      </trkpt>
      <trkpt lat="40.304017" lon="-4.875383">
        <ele>2088.0</ele>
        <time>2018-06-24T13:43:37Z</time>
      </trkpt>
      <trkpt lat="40.304050" lon="-4.875233">
        <ele>2086.0</ele>
        <time>2018-06-24T13:43:38Z</time>
      </trkpt>
      <trkpt lat="40.304083" lon="-4.875083">
        <ele>2085.0</ele>
        <time>2018-06-24T13:43:39Z</time>
      </trkpt>
      <trkpt lat="40.304100" lon="-4.874933">
        <ele>2084.0</ele>
        <time>2018-06-24T13:43:40Z</time>
      </trkpt>
      <trkpt lat="40.304133" lon="-4.874783">
        <ele>2083.0</ele>
        <time>2018-06-24T13:43:41Z</time>
      </trkpt>
      <trkpt lat="40.304167" lon="-4.874633">
        <ele>2083.0</ele>
        <time>2018-06-24T13:43:42Z</time>
      </trkpt>
      <trkpt lat="40.304200" lon="-4.874500">
        <ele>2083.0</ele>
        <time>2018-06-24T13:43:43Z</time>
      </trkpt>
      <trkpt lat="40.304217" lon="-4.874350">
        <ele>2083.0</ele>
        <time>2018-06-24T13:43:44Z</time>
      </trkpt>
      <trkpt lat="40.304233" lon="-4.874217">
        <ele>2083.0</ele>
        <time>2018-06-24T13:43:45Z</time>
      </trkpt>
      <trkpt lat="40.304233" lon="-4.874067">
        <ele>2083.0</ele>
        <time>2018-06-24T13:43:46Z</time>
      </trkpt>
      <trkpt lat="40.304233" lon="-4.873917">
        <ele>2083.0</ele>
        <time>2018-06-24T13:43:47Z</time>
      </trkpt>
      <trkpt lat="40.304250" lon="-4.873767">
        <ele>2084.0</ele>
        <time>2018-06-24T13:43:48Z</time>
      </trkpt>
      <trkpt lat="40.304250" lon="-4.873617">
        <ele>2084.0</ele>
        <time>2018-06-24T13:43:49Z</time>
      </trkpt>
      <trkpt lat="40.304267" lon="-4.873467">
        <ele>2084.0</ele>
        <time>2018-06-24T13:43:50Z</time>
      </trkpt>
      <trkpt lat="40.304283" lon="-4.873300">
        <ele>2084.0</ele>
        <time>2018-06-24T13:43:51Z</time>
      </trkpt>
      <trkpt lat="40.304283" lon="-4.873150">
        <ele>2084.0</ele>
        <time>2018-06-24T13:43:52Z</time>
      </trkpt>
      <trkpt lat="40.304300" lon="-4.873000">
        <ele>2084.0</ele>
        <time>2018-06-24T13:43:53Z</time>
      </trkpt>
      <trkpt lat="40.304333" lon="-4.872850">
        <ele>2084.0</ele>
        <time>2018-06-24T13:43:54Z</time>
      </trkpt>
      <trkpt lat="40.304350" lon="-4.872683">
        <ele>2083.0</ele>
        <time>2018-06-24T13:43:55Z</time>
      </trkpt>
      <trkpt lat="40.304367" lon="-4.872533">
        <ele>2083.0</ele>
        <time>2018-06-24T13:43:56Z</time>
      </trkpt>
      <trkpt lat="40.304383" lon="-4.872367">
        <ele>2084.0</ele>
        <time>2018-06-24T13:43:57Z</time>
      </trkpt>
      <trkpt lat="40.304400" lon="-4.872233">
        <ele>2084.0</ele>
        <time>2018-06-24T13:43:58Z</time>
      </trkpt>
      <trkpt lat="40.304417" lon="-4.872083">
        <ele>2084.0</ele>
        <time>2018-06-24T13:43:59Z</time>
      </trkpt>
      <trkpt lat="40.304450" lon="-4.871933">
        <ele>2083.0</ele>
        <time>2018-06-24T13:44:00Z</time>
      </trkpt>
      <trkpt lat="40.304467" lon="-4.871767">
        <ele>2082.0</ele>
        <time>2018-06-24T13:44:01Z</time>
      </trkpt>
      <trkpt lat="40.304483" lon="-4.871617">
        <ele>2081.0</ele>
        <time>2018-06-24T13:44:02Z</time>
      </trkpt>
      <trkpt lat="40.304483" lon="-4.871450">
        <ele>2081.0</ele>
        <time>2018-06-24T13:44:03Z</time>
      </trkpt>
      <trkpt lat="40.304500" lon="-4.871300">
        <ele>2081.0</ele>
        <time>2018-06-24T13:44:04Z</time>
      </trkpt>
      <trkpt lat="40.304517" lon="-4.871150">
        <ele>2082.0</ele>
        <time>2018-06-24T13:44:05Z</time>
      </trkpt>
      <trkpt lat="40.304533" lon="-4.871033">
        <ele>2082.0</ele>
        <time>2018-06-24T13:44:06Z</time>
      </trkpt>
      <trkpt lat="40.304550" lon="-4.870900">
        <ele>2081.0</ele>
        <time>2018-06-24T13:44:07Z</time>
      </trkpt>
      <trkpt lat="40.304533" lon="-4.870767">
        <ele>2080.0</ele>
        <time>2018-06-24T13:44:08Z</time>
      </trkpt>
      <trkpt lat="40.304517" lon="-4.870633">
        <ele>2077.0</ele>
        <time>2018-06-24T13:44:09Z</time>
      </trkpt>
      <trkpt lat="40.304500" lon="-4.870483">
        <ele>2076.0</ele>
        <time>2018-06-24T13:44:10Z</time>
      </trkpt>
      <trkpt lat="40.304500" lon="-4.870333">
        <ele>2075.0</ele>
        <time>2018-06-24T13:44:11Z</time>
      </trkpt>
      <trkpt lat="40.304483" lon="-4.870183">
        <ele>2076.0</ele>
        <time>2018-06-24T13:44:12Z</time>
      </trkpt>
      <trkpt lat="40.304483" lon="-4.870050">
        <ele>2076.0</ele>
        <time>2018-06-24T13:44:13Z</time>
      </trkpt>
      <trkpt lat="40.304483" lon="-4.869917">
        <ele>2076.0</ele>
        <time>2018-06-24T13:44:14Z</time>
      </trkpt>
      <trkpt lat="40.304517" lon="-4.869767">
        <ele>2075.0</ele>
        <time>2018-06-24T13:44:15Z</time>
      </trkpt>
      <trkpt lat="40.304550" lon="-4.869617">
        <ele>2073.0</ele>
        <time>2018-06-24T13:44:16Z</time>
      </trkpt>
      <trkpt lat="40.304617" lon="-4.869450">
        <ele>2073.0</ele>
        <time>2018-06-24T13:44:17Z</time>
      </trkpt>
      <trkpt lat="40.304700" lon="-4.869317">
        <ele>2073.0</ele>
        <time>2018-06-24T13:44:18Z</time>
      </trkpt>
      <trkpt lat="40.304800" lon="-4.869200">
        <ele>2075.0</ele>
        <time>2018-06-24T13:44:19Z</time>
      </trkpt>
      <trkpt lat="40.304883" lon="-4.869100">
        <ele>2077.0</ele>
        <time>2018-06-24T13:44:20Z</time>
      </trkpt>
      <trkpt lat="40.304967" lon="-4.868983">
        <ele>2078.0</ele>
        <time>2018-06-24T13:44:21Z</time>
      </trkpt>
      <trkpt lat="40.305033" lon="-4.868850">
        <ele>2078.0</ele>
        <time>2018-06-24T13:44:22Z</time>
      </trkpt>
      <trkpt lat="40.305100" lon="-4.868700">
        <ele>2078.0</ele>
        <time>2018-06-24T13:44:23Z</time>
      </trkpt>
      <trkpt lat="40.305183" lon="-4.868550">
        <ele>2080.0</ele>
        <time>2018-06-24T13:44:24Z</time>
      </trkpt>
      <trkpt lat="40.305283" lon="-4.868417">
        <ele>2082.0</ele>
        <time>2018-06-24T13:44:25Z</time>
      </trkpt>
      <trkpt lat="40.305383" lon="-4.868317">
        <ele>2084.0</ele>
        <time>2018-06-24T13:44:26Z</time>
      </trkpt>
      <trkpt lat="40.305483" lon="-4.868233">
        <ele>2086.0</ele>
        <time>2018-06-24T13:44:27Z</time>
      </trkpt>
      <trkpt lat="40.305600" lon="-4.868200">
        <ele>2087.0</ele>
        <time>2018-06-24T13:44:28Z</time>
      </trkpt>
      <trkpt lat="40.305733" lon="-4.868183">
        <ele>2088.0</ele>
        <time>2018-06-24T13:44:29Z</time>
      </trkpt>
      <trkpt lat="40.305867" lon="-4.868233">
        <ele>2088.0</ele>
        <time>2018-06-24T13:44:30Z</time>
      </trkpt>
      <trkpt lat="40.305967" lon="-4.868333">
        <ele>2089.0</ele>
        <time>2018-06-24T13:44:31Z</time>
      </trkpt>
      <trkpt lat="40.306050" lon="-4.868467">
        <ele>2090.0</ele>
        <time>2018-06-24T13:44:32Z</time>
      </trkpt>
      <trkpt lat="40.306083" lon="-4.868617">
        <ele>2092.0</ele>
        <time>2018-06-24T13:44:33Z</time>
      </trkpt>
      <trkpt lat="40.306067" lon="-4.868750">
        <ele>2094.0</ele>
        <time>2018-06-24T13:44:34Z</time>
      </trkpt>
      <trkpt lat="40.306017" lon="-4.868850">
        <ele>2096.0</ele>
        <time>2018-06-24T13:44:35Z</time>
      </trkpt>
      <trkpt lat="40.305950" lon="-4.868900">
        <ele>2099.0</ele>
        <time>2018-06-24T13:44:36Z</time>
      </trkpt>
      <trkpt lat="40.305883" lon="-4.868900">
        <ele>2102.0</ele>
        <time>2018-06-24T13:44:37Z</time>
      </trkpt>
      <trkpt lat="40.305833" lon="-4.868867">
        <ele>2104.0</ele>
        <time>2018-06-24T13:44:38Z</time>
      </trkpt>
      <trkpt lat="40.305783" lon="-4.868783">
        <ele>2106.0</ele>
        <time>2018-06-24T13:44:39Z</time>
      </trkpt>
      <trkpt lat="40.305750" lon="-4.868683">
        <ele>2107.0</ele>
        <time>2018-06-24T13:44:40Z</time>
      </trkpt>
      <trkpt lat="40.305733" lon="-4.868550">
        <ele>2107.0</ele>
        <time>2018-06-24T13:44:41Z</time>
      </trkpt>
      <trkpt lat="40.305767" lon="-4.868383">
        <ele>2107.0</ele>
        <time>2018-06-24T13:44:42Z</time>
      </trkpt>
      <trkpt lat="40.305817" lon="-4.868217">
        <ele>2108.0</ele>
        <time>2018-06-24T13:44:43Z</time>
      </trkpt>
      <trkpt lat="40.305883" lon="-4.868067">
        <ele>2110.0</ele>
        <time>2018-06-24T13:44:44Z</time>
      </trkpt>
      <trkpt lat="40.305983" lon="-4.867933">
        <ele>2113.0</ele>
        <time>2018-06-24T13:44:45Z</time>
      </trkpt>
      <trkpt lat="40.306100" lon="-4.867850">
        <ele>2115.0</ele>
        <time>2018-06-24T13:44:46Z</time>
      </trkpt>
      <trkpt lat="40.306217" lon="-4.867800">
        <ele>2117.0</ele>
        <time>2018-06-24T13:44:47Z</time>
      </trkpt>
      <trkpt lat="40.306350" lon="-4.867783">
        <ele>2119.0</ele>
        <time>2018-06-24T13:44:48Z</time>
      </trkpt>
      <trkpt lat="40.306483" lon="-4.867800">
        <ele>2120.0</ele>
        <time>2018-06-24T13:44:49Z</time>
      </trkpt>
      <trkpt lat="40.306617" lon="-4.867867">
        <ele>2122.0</ele>
        <time>2018-06-24T13:44:50Z</time>
      </trkpt>
      <trkpt lat="40.306700" lon="-4.867967">
        <ele>2125.0</ele>
        <time>2018-06-24T13:44:51Z</time>
      </trkpt>
      <trkpt lat="40.306767" lon="-4.868100">
        <ele>2126.0</ele>
        <time>2018-06-24T13:44:52Z</time>
      </trkpt>
      <trkpt lat="40.306783" lon="-4.868233">
        <ele>2127.0</ele>
        <time>2018-06-24T13:44:53Z</time>
      </trkpt>
      <trkpt lat="40.306783" lon="-4.868350">
        <ele>2129.0</ele>
        <time>2018-06-24T13:44:54Z</time>
      </trkpt>
      <trkpt lat="40.306750" lon="-4.868467">
        <ele>2131.0</ele>
        <time>2018-06-24T13:44:55Z</time>
      </trkpt>
      <trkpt lat="40.306683" lon="-4.868533">
        <ele>2134.0</ele>
        <time>2018-06-24T13:44:56Z</time>
      </trkpt>
      <trkpt lat="40.306617" lon="-4.868550">
        <ele>2136.0</ele>
        <time>2018-06-24T13:44:57Z</time>
      </trkpt>
      <trkpt lat="40.306567" lon="-4.868533">
        <ele>2138.0</ele>
        <time>2018-06-24T13:44:58Z</time>
      </trkpt>
      <trkpt lat="40.306500" lon="-4.868467">
        <ele>2140.0</ele>
        <time>2018-06-24T13:44:59Z</time>
      </trkpt>
      <trkpt lat="40.306467" lon="-4.868350">
        <ele>2141.0</ele>
        <time>2018-06-24T13:45:00Z</time>
      </trkpt>
      <trkpt lat="40.306467" lon="-4.868217">
        <ele>2142.0</ele>
        <time>2018-06-24T13:45:01Z</time>
      </trkpt>
      <trkpt lat="40.306483" lon="-4.868050">
        <ele>2144.0</ele>
        <time>2018-06-24T13:45:02Z</time>
      </trkpt>
      <trkpt lat="40.306550" lon="-4.867900">
        <ele>2146.0</ele>
        <time>2018-06-24T13:45:03Z</time>
      </trkpt>
      <trkpt lat="40.306633" lon="-4.867750">
        <ele>2148.0</ele>
        <time>2018-06-24T13:45:04Z</time>
      </trkpt>
      <trkpt lat="40.306750" lon="-4.867667">
        <ele>2150.0</ele>
        <time>2018-06-24T13:45:05Z</time>
      </trkpt>
      <trkpt lat="40.306883" lon="-4.867617">
        <ele>2152.0</ele>
        <time>2018-06-24T13:45:06Z</time>
      </trkpt>
      <trkpt lat="40.307017" lon="-4.867617">
        <ele>2153.0</ele>
        <time>2018-06-24T13:45:07Z</time>
      </trkpt>
      <trkpt lat="40.307133" lon="-4.867683">
        <ele>2154.0</ele>
        <time>2018-06-24T13:45:08Z</time>
      </trkpt>
      <trkpt lat="40.307233" lon="-4.867783">
        <ele>2156.0</ele>
        <time>2018-06-24T13:45:09Z</time>
      </trkpt>
      <trkpt lat="40.307267" lon="-4.867917">
        <ele>2158.0</ele>
        <time>2018-06-24T13:45:10Z</time>
      </trkpt>
      <trkpt lat="40.307267" lon="-4.868033">
        <ele>2161.0</ele>
        <time>2018-06-24T13:45:11Z</time>
      </trkpt>
      <trkpt lat="40.307233" lon="-4.868133">
        <ele>2164.0</ele>
        <time>2018-06-24T13:45:12Z</time>
      </trkpt>
      <trkpt lat="40.307183" lon="-4.868167">
        <ele>2167.0</ele>
        <time>2018-06-24T13:45:13Z</time>
      </trkpt>
      <trkpt lat="40.307117" lon="-4.868167">
        <ele>2169.0</ele>
        <time>2018-06-24T13:45:14Z</time>
      </trkpt>
      <trkpt lat="40.307067" lon="-4.868117">
        <ele>2171.0</ele>
        <time>2018-06-24T13:45:15Z</time>
      </trkpt>
      <trkpt lat="40.307017" lon="-4.868017">
        <ele>2173.0</ele>
        <time>2018-06-24T13:45:16Z</time>
      </trkpt>
      <trkpt lat="40.307000" lon="-4.867883">
        <ele>2173.0</ele>
        <time>2018-06-24T13:45:17Z</time>
      </trkpt>
      <trkpt lat="40.307033" lon="-4.867733">
        <ele>2175.0</ele>
        <time>2018-06-24T13:45:18Z</time>
      </trkpt>
      <trkpt lat="40.307083" lon="-4.867567">
        <ele>2177.0</ele>
        <time>2018-06-24T13:45:19Z</time>
      </trkpt>
      <trkpt lat="40.307183" lon="-4.867433">
        <ele>2179.0</ele>
        <time>2018-06-24T13:45:20Z</time>
      </trkpt>
      <trkpt lat="40.307317" lon="-4.867367">
        <ele>2181.0</ele>
        <time>2018-06-24T13:45:21Z</time>
      </trkpt>
      <trkpt lat="40.307450" lon="-4.867350">
        <ele>2182.0</ele>
        <time>2018-06-24T13:45:22Z</time>
      </trkpt>
      <trkpt lat="40.307583" lon="-4.867383">
        <ele>2183.0</ele>
        <time>2018-06-24T13:45:23Z</time>
      </trkpt>
      <trkpt lat="40.307700" lon="-4.867467">
        <ele>2184.0</ele>
        <time>2018-06-24T13:45:24Z</time>
      </trkpt>
      <trkpt lat="40.307767" lon="-4.867583">
        <ele>2186.0</ele>
        <time>2018-06-24T13:45:25Z</time>
      </trkpt>
      <trkpt lat="40.307800" lon="-4.867700">
        <ele>2189.0</ele>
        <time>2018-06-24T13:45:26Z</time>
      </trkpt>
      <trkpt lat="40.307783" lon="-4.867817">
        <ele>2191.0</ele>
        <time>2018-06-24T13:45:27Z</time>
      </trkpt>
      <trkpt lat="40.307750" lon="-4.867900">
        <ele>2193.0</ele>
        <time>2018-06-24T13:45:28Z</time>
      </trkpt>
      <trkpt lat="40.307717" lon="-4.867950">
        <ele>2195.0</ele>
        <time>2018-06-24T13:45:29Z</time>
      </trkpt>
      <trkpt lat="40.307667" lon="-4.867983">
        <ele>2198.0</ele>
        <time>2018-06-24T13:45:30Z</time>
      </trkpt>
      <trkpt lat="40.307600" lon="-4.867983">
        <ele>2200.0</ele>
        <time>2018-06-24T13:45:31Z</time>
      </trkpt>
      <trkpt lat="40.307550" lon="-4.867933">
        <ele>2200.0</ele>
        <time>2018-06-24T13:45:32Z</time>
      </trkpt>
      <trkpt lat="40.307500" lon="-4.867817">
        <ele>2201.0</ele>
        <time>2018-06-24T13:45:33Z</time>
      </trkpt>
      <trkpt lat="40.307500" lon="-4.867667">
        <ele>2201.0</ele>
        <time>2018-06-24T13:45:34Z</time>
      </trkpt>
      <trkpt lat="40.307550" lon="-4.867517">
        <ele>2202.0</ele>
        <time>2018-06-24T13:45:35Z</time>
      </trkpt>
      <trkpt lat="40.307650" lon="-4.867367">
        <ele>2204.0</ele>
        <time>2018-06-24T13:45:36Z</time>
      </trkpt>
      <trkpt lat="40.307783" lon="-4.867250">
        <ele>2206.0</ele>
        <time>2018-06-24T13:45:37Z</time>
      </trkpt>
      <trkpt lat="40.307933" lon="-4.867200">
        <ele>2208.0</ele>
        <time>2018-06-24T13:45:38Z</time>
      </trkpt>
      <trkpt lat="40.308067" lon="-4.867183">
        <ele>2210.0</ele>
        <time>2018-06-24T13:45:39Z</time>
      </trkpt>
      <trkpt lat="40.308183" lon="-4.867217">
        <ele>2212.0</ele>
        <time>2018-06-24T13:45:40Z</time>
      </trkpt>
      <trkpt lat="40.308283" lon="-4.867283">
        <ele>2213.0</ele>
        <time>2018-06-24T13:45:41Z</time>
      </trkpt>
      <trkpt lat="40.308367" lon="-4.867367">
        <ele>2213.0</ele>
        <time>2018-06-24T13:45:42Z</time>
      </trkpt>
      <trkpt lat="40.308417" lon="-4.867483">
        <ele>2213.0</ele>
        <time>2018-06-24T13:45:43Z</time>
      </trkpt>
      <trkpt lat="40.308433" lon="-4.867600">
        <ele>2214.0</ele>
        <time>2018-06-24T13:45:44Z</time>
      </trkpt>
      <trkpt lat="40.308433" lon="-4.867700">
        <ele>2215.0</ele>
        <time>2018-06-24T13:45:45Z</time>
      </trkpt>
      <trkpt lat="40.308400" lon="-4.867783">
        <ele>2216.0</ele>
        <time>2018-06-24T13:45:46Z</time>
      </trkpt>
      <trkpt lat="40.308350" lon="-4.867833">
        <ele>2217.0</ele>
        <time>2018-06-24T13:45:47Z</time>
      </trkpt>
      <trkpt lat="40.308267" lon="-4.867833">
        <ele>2218.0</ele>
        <time>2018-06-24T13:45:48Z</time>
      </trkpt>
      <trkpt lat="40.308183" lon="-4.867783">
        <ele>2219.0</ele>
        <time>2018-06-24T13:45:49Z</time>
      </trkpt>
      <trkpt lat="40.308117" lon="-4.867667">
        <ele>2221.0</ele>
        <time>2018-06-24T13:45:50Z</time>
      </trkpt>
      <trkpt lat="40.308050" lon="-4.867533">
        <ele>2224.0</ele>
        <time>2018-06-24T13:45:51Z</time>
      </trkpt>
      <trkpt lat="40.308017" lon="-4.867417">
        <ele>2227.0</ele>
        <time>2018-06-24T13:45:52Z</time>
      </trkpt>
      <trkpt lat="40.307983" lon="-4.867283">
        <ele>2230.0</ele>
        <time>2018-06-24T13:45:53Z</time>
      </trkpt>
      <trkpt lat="40.307983" lon="-4.867150">
        <ele>2232.0</ele>
        <time>2018-06-24T13:45:54Z</time>
      </trkpt>
      <trkpt lat="40.308000" lon="-4.867000">
        <ele>2233.0</ele>
        <time>2018-06-24T13:45:55Z</time>
      </trkpt>
      <trkpt lat="40.308067" lon="-4.866833">
        <ele>2233.0</ele>
        <time>2018-06-24T13:45:56Z</time>
      </trkpt>
      <trkpt lat="40.308167" lon="-4.866700">
        <ele>2234.0</ele>
        <time>2018-06-24T13:45:57Z</time>
      </trkpt>
      <trkpt lat="40.308300" lon="-4.866600">
        <ele>2237.0</ele>
        <time>2018-06-24T13:45:58Z</time>
      </trkpt>
      <trkpt lat="40.308417" lon="-4.866567">
        <ele>2239.0</ele>
        <time>2018-06-24T13:45:59Z</time>
      </trkpt>
      <trkpt lat="40.308533" lon="-4.866600">
        <ele>2241.0</ele>
        <time>2018-06-24T13:46:00Z</time>
      </trkpt>
      <trkpt lat="40.308633" lon="-4.866650">
        <ele>2243.0</ele>
        <time>2018-06-24T13:46:01Z</time>
      </trkpt>
      <trkpt lat="40.308717" lon="-4.866717">
        <ele>2244.0</ele>
        <time>2018-06-24T13:46:02Z</time>
      </trkpt>
      <trkpt lat="40.308767" lon="-4.866817">
        <ele>2244.0</ele>
        <time>2018-06-24T13:46:03Z</time>
      </trkpt>
      <trkpt lat="40.308783" lon="-4.866933">
        <ele>2243.0</ele>
        <time>2018-06-24T13:46:04Z</time>
      </trkpt>
      <trkpt lat="40.308767" lon="-4.867050">
        <ele>2242.0</ele>
        <time>2018-06-24T13:46:05Z</time>
      </trkpt>
      <trkpt lat="40.308717" lon="-4.867150">
        <ele>2243.0</ele>
        <time>2018-06-24T13:46:06Z</time>
      </trkpt>
      <trkpt lat="40.308650" lon="-4.867200">
        <ele>2245.0</ele>
        <time>2018-06-24T13:46:07Z</time>
      </trkpt>
      <trkpt lat="40.308583" lon="-4.867200">
        <ele>2247.0</ele>
        <time>2018-06-24T13:46:08Z</time>
      </trkpt>
      <trkpt lat="40.308500" lon="-4.867150">
        <ele>2249.0</ele>
        <time>2018-06-24T13:46:09Z</time>
      </trkpt>
      <trkpt lat="40.308433" lon="-4.867067">
        <ele>2251.0</ele>
        <time>2018-06-24T13:46:10Z</time>
      </trkpt>
      <trkpt lat="40.308383" lon="-4.866933">
        <ele>2253.0</ele>
        <time>2018-06-24T13:46:11Z</time>
      </trkpt>
      <trkpt lat="40.308383" lon="-4.866800">
        <ele>2256.0</ele>
        <time>2018-06-24T13:46:12Z</time>
      </trkpt>
      <trkpt lat="40.308400" lon="-4.866650">
        <ele>2257.0</ele>
        <time>2018-06-24T13:46:13Z</time>
      </trkpt>
      <trkpt lat="40.308467" lon="-4.866517">
        <ele>2258.0</ele>
        <time>2018-06-24T13:46:14Z</time>
      </trkpt>
      <trkpt lat="40.308550" lon="-4.866383">
        <ele>2258.0</ele>
        <time>2018-06-24T13:46:15Z</time>
      </trkpt>
      <trkpt lat="40.308667" lon="-4.866267">
        <ele>2259.0</ele>
        <time>2018-06-24T13:46:16Z</time>
      </trkpt>
      <trkpt lat="40.308783" lon="-4.866200">
        <ele>2260.0</ele>
        <time>2018-06-24T13:46:17Z</time>
      </trkpt>
      <trkpt lat="40.308917" lon="-4.866200">
        <ele>2262.0</ele>
        <time>2018-06-24T13:46:18Z</time>
      </trkpt>
      <trkpt lat="40.309033" lon="-4.866233">
        <ele>2263.0</ele>
        <time>2018-06-24T13:46:19Z</time>
      </trkpt>
      <trkpt lat="40.309117" lon="-4.866317">
        <ele>2263.0</ele>
        <time>2018-06-24T13:46:20Z</time>
      </trkpt>
      <trkpt lat="40.309183" lon="-4.866417">
        <ele>2263.0</ele>
        <time>2018-06-24T13:46:21Z</time>
      </trkpt>
      <trkpt lat="40.309217" lon="-4.866533">
        <ele>2262.0</ele>
        <time>2018-06-24T13:46:22Z</time>
      </trkpt>
      <trkpt lat="40.309217" lon="-4.866667">
        <ele>2262.0</ele>
        <time>2018-06-24T13:46:23Z</time>
      </trkpt>
      <trkpt lat="40.309200" lon="-4.866767">
        <ele>2263.0</ele>
        <time>2018-06-24T13:46:24Z</time>
      </trkpt>
      <trkpt lat="40.309150" lon="-4.866850">
        <ele>2264.0</ele>
        <time>2018-06-24T13:46:25Z</time>
      </trkpt>
      <trkpt lat="40.309067" lon="-4.866883">
        <ele>2266.0</ele>
        <time>2018-06-24T13:46:26Z</time>
      </trkpt>
      <trkpt lat="40.308967" lon="-4.866850">
        <ele>2267.0</ele>
        <time>2018-06-24T13:46:27Z</time>
      </trkpt>
      <trkpt lat="40.308900" lon="-4.866783">
        <ele>2269.0</ele>
        <time>2018-06-24T13:46:28Z</time>
      </trkpt>
      <trkpt lat="40.308867" lon="-4.866667">
        <ele>2271.0</ele>
        <time>2018-06-24T13:46:29Z</time>
      </trkpt>
      <trkpt lat="40.308833" lon="-4.866533">
        <ele>2273.0</ele>
        <time>2018-06-24T13:46:30Z</time>
      </trkpt>
      <trkpt lat="40.308850" lon="-4.866383">
        <ele>2273.0</ele>
        <time>2018-06-24T13:46:31Z</time>
      </trkpt>
      <trkpt lat="40.308883" lon="-4.866233">
        <ele>2273.0</ele>
        <time>2018-06-24T13:46:32Z</time>
      </trkpt>
      <trkpt lat="40.308950" lon="-4.866067">
        <ele>2273.0</ele>
        <time>2018-06-24T13:46:33Z</time>
      </trkpt>
      <trkpt lat="40.309050" lon="-4.865933">
        <ele>2274.0</ele>
        <time>2018-06-24T13:46:34Z</time>
      </trkpt>
      <trkpt lat="40.309150" lon="-4.865817">
        <ele>2275.0</ele>
        <time>2018-06-24T13:46:35Z</time>
      </trkpt>
      <trkpt lat="40.309267" lon="-4.865750">
        <ele>2277.0</ele>
        <time>2018-06-24T13:46:36Z</time>
      </trkpt>
      <trkpt lat="40.309383" lon="-4.865717">
        <ele>2278.0</ele>
        <time>2018-06-24T13:46:37Z</time>
      </trkpt>
      <trkpt lat="40.309517" lon="-4.865717">
        <ele>2277.0</ele>
        <time>2018-06-24T13:46:38Z</time>
      </trkpt>
      <trkpt lat="40.309633" lon="-4.865767">
        <ele>2275.0</ele>
        <time>2018-06-24T13:46:39Z</time>
      </trkpt>
      <trkpt lat="40.309733" lon="-4.865867">
        <ele>2275.0</ele>
        <time>2018-06-24T13:46:40Z</time>
      </trkpt>
      <trkpt lat="40.309800" lon="-4.866000">
        <ele>2275.0</ele>
        <time>2018-06-24T13:46:41Z</time>
      </trkpt>
      <trkpt lat="40.309833" lon="-4.866133">
        <ele>2276.0</ele>
        <time>2018-06-24T13:46:42Z</time>
      </trkpt>
      <trkpt lat="40.309833" lon="-4.866250">
        <ele>2277.0</ele>
        <time>2018-06-24T13:46:43Z</time>
      </trkpt>
      <trkpt lat="40.309800" lon="-4.866333">
        <ele>2278.0</ele>
        <time>2018-06-24T13:46:44Z</time>
      </trkpt>
      <trkpt lat="40.309750" lon="-4.866383">
        <ele>2279.0</ele>
        <time>2018-06-24T13:46:45Z</time>
      </trkpt>
      <trkpt lat="40.309700" lon="-4.866400">
        <ele>2280.0</ele>
        <time>2018-06-24T13:46:46Z</time>
      </trkpt>
      <trkpt lat="40.309633" lon="-4.866367">
        <ele>2281.0</ele>
        <time>2018-06-24T13:46:47Z</time>
      </trkpt>
      <trkpt lat="40.309583" lon="-4.866283">
        <ele>2281.0</ele>
        <time>2018-06-24T13:46:48Z</time>
      </trkpt>
      <trkpt lat="40.309550" lon="-4.866167">
        <ele>2281.0</ele>
        <time>2018-06-24T13:46:49Z</time>
      </trkpt>
      <trkpt lat="40.309550" lon="-4.866017">
        <ele>2281.0</ele>
        <time>2018-06-24T13:46:50Z</time>
      </trkpt>
      <trkpt lat="40.309583" lon="-4.865867">
        <ele>2281.0</ele>
        <time>2018-06-24T13:46:51Z</time>
      </trkpt>
      <trkpt lat="40.309617" lon="-4.865717">
        <ele>2282.0</ele>
        <time>2018-06-24T13:46:52Z</time>
      </trkpt>
      <trkpt lat="40.309683" lon="-4.865600">
        <ele>2282.0</ele>
        <time>2018-06-24T13:46:53Z</time>
      </trkpt>
      <trkpt lat="40.309783" lon="-4.865483">
        <ele>2283.0</ele>
        <time>2018-06-24T13:46:54Z</time>
      </trkpt>
      <trkpt lat="40.309900" lon="-4.865400">
        <ele>2282.0</ele>
        <time>2018-06-24T13:46:55Z</time>
      </trkpt>
      <trkpt lat="40.310033" lon="-4.865350">
        <ele>2282.0</ele>
        <time>2018-06-24T13:46:56Z</time>
      </trkpt>
      <trkpt lat="40.310167" lon="-4.865350">
        <ele>2283.0</ele>
        <time>2018-06-24T13:46:57Z</time>
      </trkpt>
      <trkpt lat="40.310283" lon="-4.865400">
        <ele>2283.0</ele>
        <time>2018-06-24T13:46:58Z</time>
      </trkpt>
      <trkpt lat="40.310367" lon="-4.865500">
        <ele>2282.0</ele>
        <time>2018-06-24T13:46:59Z</time>
      </trkpt>
      <trkpt lat="40.310433" lon="-4.865617">
        <ele>2281.0</ele>
        <time>2018-06-24T13:47:00Z</time>
      </trkpt>
      <trkpt lat="40.310450" lon="-4.865750">
        <ele>2281.0</ele>
        <time>2018-06-24T13:47:01Z</time>
      </trkpt>
      <trkpt lat="40.310450" lon="-4.865867">
        <ele>2282.0</ele>
        <time>2018-06-24T13:47:02Z</time>
      </trkpt>
      <trkpt lat="40.310417" lon="-4.865950">
        <ele>2282.0</ele>
        <time>2018-06-24T13:47:03Z</time>
      </trkpt>
      <trkpt lat="40.310367" lon="-4.866017">
        <ele>2282.0</ele>
        <time>2018-06-24T13:47:04Z</time>
      </trkpt>
      <trkpt lat="40.310300" lon="-4.866050">
        <ele>2282.0</ele>
        <time>2018-06-24T13:47:05Z</time>
      </trkpt>
      <trkpt lat="40.310233" lon="-4.866050">
        <ele>2282.0</ele>
        <time>2018-06-24T13:47:06Z</time>
      </trkpt>
      <trkpt lat="40.310167" lon="-4.866017">
        <ele>2283.0</ele>
        <time>2018-06-24T13:47:07Z</time>
      </trkpt>
      <trkpt lat="40.310100" lon="-4.865983">
        <ele>2283.0</ele>
        <time>2018-06-24T13:47:08Z</time>
      </trkpt>
      <trkpt lat="40.310050" lon="-4.865933">
        <ele>2284.0</ele>
        <time>2018-06-24T13:47:09Z</time>
      </trkpt>
      <trkpt lat="40.309983" lon="-4.865867">
        <ele>2284.0</ele>
        <time>2018-06-24T13:47:10Z</time>
      </trkpt>
      <trkpt lat="40.309933" lon="-4.865800">
        <ele>2284.0</ele>
        <time>2018-06-24T13:47:11Z</time>
      </trkpt>
      <trkpt lat="40.309883" lon="-4.865700">
        <ele>2283.0</ele>
        <time>2018-06-24T13:47:12Z</time>
      </trkpt>
      <trkpt lat="40.309850" lon="-4.865567">
        <ele>2282.0</ele>
        <time>2018-06-24T13:47:13Z</time>
      </trkpt>
      <trkpt lat="40.309833" lon="-4.865417">
        <ele>2282.0</ele>
        <time>2018-06-24T13:47:14Z</time>
      </trkpt>
      <trkpt lat="40.309817" lon="-4.865250">
        <ele>2283.0</ele>
        <time>2018-06-24T13:47:15Z</time>
      </trkpt>
      <trkpt lat="40.309817" lon="-4.865083">
        <ele>2283.0</ele>
        <time>2018-06-24T13:47:16Z</time>
      </trkpt>
      <trkpt lat="40.309817" lon="-4.864933">
        <ele>2284.0</ele>
        <time>2018-06-24T13:47:17Z</time>
      </trkpt>
      <trkpt lat="40.309833" lon="-4.864767">
        <ele>2285.0</ele>
        <time>2018-06-24T13:47:18Z</time>
      </trkpt>
      <trkpt lat="40.309883" lon="-4.864617">
        <ele>2287.0</ele>
        <time>2018-06-24T13:47:19Z</time>
      </trkpt>
      <trkpt lat="40.309933" lon="-4.864483">
        <ele>2287.0</ele>
        <time>2018-06-24T13:47:20Z</time>
      </trkpt>
      <trkpt lat="40.310017" lon="-4.864367">
        <ele>2287.0</ele>
        <time>2018-06-24T13:47:21Z</time>
      </trkpt>
      <trkpt lat="40.310133" lon="-4.864300">
        <ele>2285.0</ele>
        <time>2018-06-24T13:47:22Z</time>
      </trkpt>
      <trkpt lat="40.310250" lon="-4.864233">
        <ele>2284.0</ele>
        <time>2018-06-24T13:47:23Z</time>
      </trkpt>
      <trkpt lat="40.310383" lon="-4.864217">
        <ele>2284.0</ele>
        <time>2018-06-24T13:47:24Z</time>
      </trkpt>
      <trkpt lat="40.310500" lon="-4.864233">
        <ele>2284.0</ele>
        <time>2018-06-24T13:47:25Z</time>
      </trkpt>
      <trkpt lat="40.310617" lon="-4.864300">
        <ele>2284.0</ele>
        <time>2018-06-24T13:47:26Z</time>
      </trkpt>
      <trkpt lat="40.310700" lon="-4.864383">
        <ele>2284.0</ele>
        <time>2018-06-24T13:47:27Z</time>
      </trkpt>
      <trkpt lat="40.310767" lon="-4.864500">
        <ele>2284.0</ele>
        <time>2018-06-24T13:47:28Z</time>
      </trkpt>
      <trkpt lat="40.310783" lon="-4.864617">
        <ele>2284.0</ele>
        <time>2018-06-24T13:47:29Z</time>
      </trkpt>
      <trkpt lat="40.310800" lon="-4.864717">
        <ele>2284.0</ele>
        <time>2018-06-24T13:47:30Z</time>
      </trkpt>
      <trkpt lat="40.310767" lon="-4.864817">
        <ele>2284.0</ele>
        <time>2018-06-24T13:47:31Z</time>
      </trkpt>
      <trkpt lat="40.310717" lon="-4.864883">
        <ele>2282.0</ele>
        <time>2018-06-24T13:47:32Z</time>
      </trkpt>
      <trkpt lat="40.310633" lon="-4.864900">
        <ele>2281.0</ele>
        <time>2018-06-24T13:47:33Z</time>
      </trkpt>
      <trkpt lat="40.310550" lon="-4.864883">
        <ele>2279.0</ele>
        <time>2018-06-24T13:47:34Z</time>
      </trkpt>
      <trkpt lat="40.310467" lon="-4.864817">
        <ele>2278.0</ele>
        <time>2018-06-24T13:47:35Z</time>
      </trkpt>
      <trkpt lat="40.310400" lon="-4.864733">
        <ele>2278.0</ele>
        <time>2018-06-24T13:47:36Z</time>
      </trkpt>
      <trkpt lat="40.310350" lon="-4.864633">
        <ele>2279.0</ele>
        <time>2018-06-24T13:47:37Z</time>
      </trkpt>
      <trkpt lat="40.310317" lon="-4.864533">
        <ele>2279.0</ele>
        <time>2018-06-24T13:47:38Z</time>
      </trkpt>
      <trkpt lat="40.310283" lon="-4.864433">
        <ele>2279.0</ele>
        <time>2018-06-24T13:47:39Z</time>
      </trkpt>
      <trkpt lat="40.310267" lon="-4.864317">
        <ele>2279.0</ele>
        <time>2018-06-24T13:47:40Z</time>
      </trkpt>
      <trkpt lat="40.310250" lon="-4.864200">
        <ele>2277.0</ele>
        <time>2018-06-24T13:47:41Z</time>
      </trkpt>
      <trkpt lat="40.310233" lon="-4.864067">
        <ele>2276.0</ele>
        <time>2018-06-24T13:47:42Z</time>
      </trkpt>
      <trkpt lat="40.310217" lon="-4.863933">
        <ele>2273.0</ele>
        <time>2018-06-24T13:47:43Z</time>
      </trkpt>
      <trkpt lat="40.310183" lon="-4.863817">
        <ele>2271.0</ele>
        <time>2018-06-24T13:47:44Z</time>
      </trkpt>
      <trkpt lat="40.310117" lon="-4.863683">
        <ele>2269.0</ele>
        <time>2018-06-24T13:47:45Z</time>
      </trkpt>
      <trkpt lat="40.310067" lon="-4.863567">
        <ele>2268.0</ele>
        <time>2018-06-24T13:47:46Z</time>
      </trkpt>
      <trkpt lat="40.310017" lon="-4.863450">
        <ele>2269.0</ele>
        <time>2018-06-24T13:47:47Z</time>
      </trkpt>
      <trkpt lat="40.309967" lon="-4.863350">
        <ele>2268.0</ele>
        <time>2018-06-24T13:47:48Z</time>
      </trkpt>
      <trkpt lat="40.309917" lon="-4.863233">
        <ele>2267.0</ele>
        <time>2018-06-24T13:47:49Z</time>
      </trkpt>
      <trkpt lat="40.309883" lon="-4.863117">
        <ele>2265.0</ele>
        <time>2018-06-24T13:47:50Z</time>
      </trkpt>
      <trkpt lat="40.309833" lon="-4.863000">
        <ele>2264.0</ele>
        <time>2018-06-24T13:47:51Z</time>
      </trkpt>
      <trkpt lat="40.309800" lon="-4.862850">
        <ele>2262.0</ele>
        <time>2018-06-24T13:47:52Z</time>
      </trkpt>
      <trkpt lat="40.309750" lon="-4.862717">
        <ele>2261.0</ele>
        <time>2018-06-24T13:47:53Z</time>
      </trkpt>
      <trkpt lat="40.309700" lon="-4.862583">
        <ele>2261.0</ele>
        <time>2018-06-24T13:47:54Z</time>
      </trkpt>
      <trkpt lat="40.309667" lon="-4.862450">
        <ele>2261.0</ele>
        <time>2018-06-24T13:47:55Z</time>
      </trkpt>
      <trkpt lat="40.309633" lon="-4.862317">
        <ele>2262.0</ele>
        <time>2018-06-24T13:47:56Z</time>
      </trkpt>
      <trkpt lat="40.309617" lon="-4.862183">
        <ele>2261.0</ele>
        <time>2018-06-24T13:47:57Z</time>
      </trkpt>
      <trkpt lat="40.309567" lon="-4.862050">
        <ele>2260.0</ele>
        <time>2018-06-24T13:47:58Z</time>
      </trkpt>
      <trkpt lat="40.309533" lon="-4.861917">
        <ele>2258.0</ele>
        <time>2018-06-24T13:47:59Z</time>
      </trkpt>
      <trkpt lat="40.309483" lon="-4.861783">
        <ele>2257.0</ele>
        <time>2018-06-24T13:48:00Z</time>
      </trkpt>
      <trkpt lat="40.309433" lon="-4.861650">
        <ele>2257.0</ele>
        <time>2018-06-24T13:48:01Z</time>
      </trkpt>
      <trkpt lat="40.309383" lon="-4.861533">
        <ele>2257.0</ele>
        <time>2018-06-24T13:48:02Z</time>
      </trkpt>
      <trkpt lat="40.309350" lon="-4.861400">
        <ele>2257.0</ele>
        <time>2018-06-24T13:48:03Z</time>
      </trkpt>
      <trkpt lat="40.309300" lon="-4.861283">
        <ele>2257.0</ele>
        <time>2018-06-24T13:48:04Z</time>
      </trkpt>
      <trkpt lat="40.309267" lon="-4.861150">
        <ele>2256.0</ele>
        <time>2018-06-24T13:48:05Z</time>
      </trkpt>
      <trkpt lat="40.309217" lon="-4.861017">
        <ele>2254.0</ele>
        <time>2018-06-24T13:48:06Z</time>
      </trkpt>
      <trkpt lat="40.309167" lon="-4.860883">
        <ele>2253.0</ele>
        <time>2018-06-24T13:48:07Z</time>
      </trkpt>
      <trkpt lat="40.309117" lon="-4.860767">
        <ele>2252.0</ele>
        <time>2018-06-24T13:48:08Z</time>
      </trkpt>
      <trkpt lat="40.309067" lon="-4.860650">
        <ele>2250.0</ele>
        <time>2018-06-24T13:48:09Z</time>
      </trkpt>
      <trkpt lat="40.309033" lon="-4.860533">
        <ele>2248.0</ele>
        <time>2018-06-24T13:48:10Z</time>
      </trkpt>
      <trkpt lat="40.308983" lon="-4.860417">
        <ele>2246.0</ele>
        <time>2018-06-24T13:48:11Z</time>
      </trkpt>
      <trkpt lat="40.308933" lon="-4.860283">
        <ele>2244.0</ele>
        <time>2018-06-24T13:48:12Z</time>
      </trkpt>
      <trkpt lat="40.308883" lon="-4.860150">
        <ele>2243.0</ele>
        <time>2018-06-24T13:48:13Z</time>
      </trkpt>
      <trkpt lat="40.308850" lon="-4.860017">
        <ele>2242.0</ele>
        <time>2018-06-24T13:48:14Z</time>
      </trkpt>
      <trkpt lat="40.308817" lon="-4.859900">
        <ele>2241.0</ele>
        <time>2018-06-24T13:48:15Z</time>
      </trkpt>
      <trkpt lat="40.308783" lon="-4.859767">
        <ele>2240.0</ele>
        <time>2018-06-24T13:48:16Z</time>
      </trkpt>
      <trkpt lat="40.308750" lon="-4.859617">
        <ele>2237.0</ele>
        <time>2018-06-24T13:48:17Z</time>
      </trkpt>
      <trkpt lat="40.308717" lon="-4.859483">
        <ele>2235.0</ele>
        <time>2018-06-24T13:48:18Z</time>
      </trkpt>
      <trkpt lat="40.308683" lon="-4.859350">
        <ele>2231.0</ele>
        <time>2018-06-24T13:48:19Z</time>
      </trkpt>
      <trkpt lat="40.308633" lon="-4.859200">
        <ele>2228.0</ele>
        <time>2018-06-24T13:48:20Z</time>
      </trkpt>
      <trkpt lat="40.308583" lon="-4.859050">
        <ele>2226.0</ele>
        <time>2018-06-24T13:48:21Z</time>
      </trkpt>
      <trkpt lat="40.308550" lon="-4.858900">
        <ele>2224.0</ele>
        <time>2018-06-24T13:48:22Z</time>
      </trkpt>
      <trkpt lat="40.308500" lon="-4.858767">
        <ele>2223.0</ele>
        <time>2018-06-24T13:48:23Z</time>
      </trkpt>
      <trkpt lat="40.308450" lon="-4.858650">
        <ele>2220.0</ele>
        <time>2018-06-24T13:48:24Z</time>
      </trkpt>
      <trkpt lat="40.308400" lon="-4.858517">
        <ele>2217.0</ele>
        <time>2018-06-24T13:48:25Z</time>
      </trkpt>
      <trkpt lat="40.308367" lon="-4.858367">
        <ele>2214.0</ele>
        <time>2018-06-24T13:48:26Z</time>
      </trkpt>
      <trkpt lat="40.308317" lon="-4.858217">
        <ele>2212.0</ele>
        <time>2018-06-24T13:48:27Z</time>
      </trkpt>
      <trkpt lat="40.308283" lon="-4.858067">
        <ele>2210.0</ele>
        <time>2018-06-24T13:48:28Z</time>
      </trkpt>
      <trkpt lat="40.308233" lon="-4.857917">
        <ele>2209.0</ele>
        <time>2018-06-24T13:48:29Z</time>
      </trkpt>
      <trkpt lat="40.308200" lon="-4.857783">
        <ele>2207.0</ele>
        <time>2018-06-24T13:48:30Z</time>
      </trkpt>
      <trkpt lat="40.308150" lon="-4.857650">
        <ele>2204.0</ele>
        <time>2018-06-24T13:48:31Z</time>
      </trkpt>
      <trkpt lat="40.308100" lon="-4.857517">
        <ele>2201.0</ele>
        <time>2018-06-24T13:48:32Z</time>
      </trkpt>
      <trkpt lat="40.308050" lon="-4.857367">
        <ele>2198.0</ele>
        <time>2018-06-24T13:48:33Z</time>
      </trkpt>
      <trkpt lat="40.307983" lon="-4.857233">
        <ele>2196.0</ele>
        <time>2018-06-24T13:48:34Z</time>
      </trkpt>
      <trkpt lat="40.307917" lon="-4.857083">
        <ele>2195.0</ele>
        <time>2018-06-24T13:48:35Z</time>
      </trkpt>
      <trkpt lat="40.307850" lon="-4.856950">
        <ele>2194.0</ele>
        <time>2018-06-24T13:48:36Z</time>
      </trkpt>
      <trkpt lat="40.307800" lon="-4.856817">
        <ele>2193.0</ele>
        <time>2018-06-24T13:48:37Z</time>
      </trkpt>
      <trkpt lat="40.307750" lon="-4.856700">
        <ele>2192.0</ele>
        <time>2018-06-24T13:48:38Z</time>
      </trkpt>
      <trkpt lat="40.307683" lon="-4.856567">
        <ele>2190.0</ele>
        <time>2018-06-24T13:48:39Z</time>
      </trkpt>
      <trkpt lat="40.307633" lon="-4.856433">
        <ele>2187.0</ele>
        <time>2018-06-24T13:48:40Z</time>
      </trkpt>
      <trkpt lat="40.307567" lon="-4.856300">
        <ele>2186.0</ele>
        <time>2018-06-24T13:48:41Z</time>
      </trkpt>
      <trkpt lat="40.307517" lon="-4.856167">
        <ele>2185.0</ele>
        <time>2018-06-24T13:48:42Z</time>
      </trkpt>
      <trkpt lat="40.307467" lon="-4.856050">
        <ele>2185.0</ele>
        <time>2018-06-24T13:48:43Z</time>
      </trkpt>
      <trkpt lat="40.307417" lon="-4.855950">
        <ele>2184.0</ele>
        <time>2018-06-24T13:48:44Z</time>
      </trkpt>
      <trkpt lat="40.307350" lon="-4.855833">
        <ele>2183.0</ele>
        <time>2018-06-24T13:48:45Z</time>
      </trkpt>
      <trkpt lat="40.307300" lon="-4.855733">
        <ele>2181.0</ele>
        <time>2018-06-24T13:48:46Z</time>
      </trkpt>
      <trkpt lat="40.307250" lon="-4.855617">
        <ele>2180.0</ele>
        <time>2018-06-24T13:48:47Z</time>
      </trkpt>
      <trkpt lat="40.307217" lon="-4.855500">
        <ele>2177.0</ele>
        <time>2018-06-24T13:48:48Z</time>
      </trkpt>
      <trkpt lat="40.307167" lon="-4.855383">
        <ele>2175.0</ele>
        <time>2018-06-24T13:48:49Z</time>
      </trkpt>
      <trkpt lat="40.307117" lon="-4.855250">
        <ele>2172.0</ele>
        <time>2018-06-24T13:48:50Z</time>
      </trkpt>
      <trkpt lat="40.307067" lon="-4.855117">
        <ele>2169.0</ele>
        <time>2018-06-24T13:48:51Z</time>
      </trkpt>
      <trkpt lat="40.307033" lon="-4.854967">
        <ele>2166.0</ele>
        <time>2018-06-24T13:48:52Z</time>
      </trkpt>
      <trkpt lat="40.306983" lon="-4.854817">
        <ele>2163.0</ele>
        <time>2018-06-24T13:48:53Z</time>
      </trkpt>
      <trkpt lat="40.306950" lon="-4.854650">
        <ele>2160.0</ele>
        <time>2018-06-24T13:48:54Z</time>
      </trkpt>
      <trkpt lat="40.306917" lon="-4.854483">
        <ele>2158.0</ele>
        <time>2018-06-24T13:48:55Z</time>
      </trkpt>
      <trkpt lat="40.306883" lon="-4.854333">
        <ele>2157.0</ele>
        <time>2018-06-24T13:48:56Z</time>
      </trkpt>
      <trkpt lat="40.306833" lon="-4.854200">
        <ele>2155.0</ele>
        <time>2018-06-24T13:48:57Z</time>
      </trkpt>
      <trkpt lat="40.306817" lon="-4.854050">
        <ele>2152.0</ele>
        <time>2018-06-24T13:48:58Z</time>
      </trkpt>
      <trkpt lat="40.306783" lon="-4.853917">
        <ele>2149.0</ele>
        <time>2018-06-24T13:48:59Z</time>
      </trkpt>
      <trkpt lat="40.306750" lon="-4.853767">
        <ele>2146.0</ele>
        <time>2018-06-24T13:49:00Z</time>
      </trkpt>
      <trkpt lat="40.306717" lon="-4.853617">
        <ele>2143.0</ele>
        <time>2018-06-24T13:49:01Z</time>
      </trkpt>
      <trkpt lat="40.306683" lon="-4.853467">
        <ele>2140.0</ele>
        <time>2018-06-24T13:49:02Z</time>
      </trkpt>
      <trkpt lat="40.306650" lon="-4.853317">
        <ele>2137.0</ele>
        <time>2018-06-24T13:49:03Z</time>
      </trkpt>
      <trkpt lat="40.306617" lon="-4.853167">
        <ele>2134.0</ele>
        <time>2018-06-24T13:49:04Z</time>
      </trkpt>
      <trkpt lat="40.306567" lon="-4.853017">
        <ele>2132.0</ele>
        <time>2018-06-24T13:49:05Z</time>
      </trkpt>
      <trkpt lat="40.306533" lon="-4.852883">
        <ele>2129.0</ele>
        <time>2018-06-24T13:49:06Z</time>
      </trkpt>
      <trkpt lat="40.306483" lon="-4.852733">
        <ele>2126.0</ele>
        <time>2018-06-24T13:49:07Z</time>
      </trkpt>
      <trkpt lat="40.306450" lon="-4.852583">
        <ele>2124.0</ele>
        <time>2018-06-24T13:49:08Z</time>
      </trkpt>
      <trkpt lat="40.306400" lon="-4.852450">
        <ele>2122.0</ele>
        <time>2018-06-24T13:49:09Z</time>
      </trkpt>
      <trkpt lat="40.306350" lon="-4.852300">
        <ele>2119.0</ele>
        <time>2018-06-24T13:49:10Z</time>
      </trkpt>
      <trkpt lat="40.306300" lon="-4.852167">
        <ele>2117.0</ele>
        <time>2018-06-24T13:49:11Z</time>
      </trkpt>
      <trkpt lat="40.306267" lon="-4.852033">
        <ele>2115.0</ele>
        <time>2018-06-24T13:49:12Z</time>
      </trkpt>
      <trkpt lat="40.306217" lon="-4.851900">
        <ele>2113.0</ele>
        <time>2018-06-24T13:49:13Z</time>
      </trkpt>
      <trkpt lat="40.306183" lon="-4.851767">
        <ele>2111.0</ele>
        <time>2018-06-24T13:49:14Z</time>
      </trkpt>
      <trkpt lat="40.306133" lon="-4.851617">
        <ele>2110.0</ele>
        <time>2018-06-24T13:49:15Z</time>
      </trkpt>
      <trkpt lat="40.306100" lon="-4.851483">
        <ele>2108.0</ele>
        <time>2018-06-24T13:49:16Z</time>
      </trkpt>
      <trkpt lat="40.306067" lon="-4.851350">
        <ele>2107.0</ele>
        <time>2018-06-24T13:49:17Z</time>
      </trkpt>
      <trkpt lat="40.306033" lon="-4.851200">
        <ele>2105.0</ele>
        <time>2018-06-24T13:49:18Z</time>
      </trkpt>
      <trkpt lat="40.306000" lon="-4.851067">
        <ele>2104.0</ele>
        <time>2018-06-24T13:49:19Z</time>
      </trkpt>
      <trkpt lat="40.305967" lon="-4.850933">
        <ele>2102.0</ele>
        <time>2018-06-24T13:49:20Z</time>
      </trkpt>
      <trkpt lat="40.305933" lon="-4.850800">
        <ele>2101.0</ele>
        <time>2018-06-24T13:49:21Z</time>
      </trkpt>
      <trkpt lat="40.305883" lon="-4.850667">
        <ele>2099.0</ele>
        <time>2018-06-24T13:49:22Z</time>
      </trkpt>
      <trkpt lat="40.305850" lon="-4.850533">
        <ele>2097.0</ele>
        <time>2018-06-24T13:49:23Z</time>
      </trkpt>
      <trkpt lat="40.305817" lon="-4.850400">
        <ele>2096.0</ele>
        <time>2018-06-24T13:49:24Z</time>
      </trkpt>
      <trkpt lat="40.305783" lon="-4.850267">
        <ele>2094.0</ele>
        <time>2018-06-24T13:49:25Z</time>
      </trkpt>
      <trkpt lat="40.305750" lon="-4.850133">
        <ele>2092.0</ele>
        <time>2018-06-24T13:49:26Z</time>
      </trkpt>
      <trkpt lat="40.305717" lon="-4.850000">
        <ele>2090.0</ele>
        <time>2018-06-24T13:49:27Z</time>
      </trkpt>
      <trkpt lat="40.305683" lon="-4.849850">
        <ele>2088.0</ele>
        <time>2018-06-24T13:49:28Z</time>
      </trkpt>
      <trkpt lat="40.305633" lon="-4.849717">
        <ele>2086.0</ele>
        <time>2018-06-24T13:49:29Z</time>
      </trkpt>
      <trkpt lat="40.305600" lon="-4.849567">
        <ele>2085.0</ele>
        <time>2018-06-24T13:49:30Z</time>
      </trkpt>
      <trkpt lat="40.305567" lon="-4.849433">
        <ele>2084.0</ele>
        <time>2018-06-24T13:49:31Z</time>
      </trkpt>
      <trkpt lat="40.305517" lon="-4.849300">
        <ele>2082.0</ele>
        <time>2018-06-24T13:49:32Z</time>
      </trkpt>
      <trkpt lat="40.305483" lon="-4.849167">
        <ele>2080.0</ele>
        <time>2018-06-24T13:49:33Z</time>
      </trkpt>
      <trkpt lat="40.305433" lon="-4.849033">
        <ele>2079.0</ele>
        <time>2018-06-24T13:49:34Z</time>
      </trkpt>
      <trkpt lat="40.305383" lon="-4.848900">
        <ele>2077.0</ele>
        <time>2018-06-24T13:49:35Z</time>
      </trkpt>
      <trkpt lat="40.305333" lon="-4.848767">
        <ele>2076.0</ele>
        <time>2018-06-24T13:49:36Z</time>
      </trkpt>
      <trkpt lat="40.305283" lon="-4.848633">
        <ele>2075.0</ele>
        <time>2018-06-24T13:49:37Z</time>
      </trkpt>
      <trkpt lat="40.305233" lon="-4.848500">
        <ele>2074.0</ele>
        <time>2018-06-24T13:49:38Z</time>
      </trkpt>
      <trkpt lat="40.305183" lon="-4.848383">
        <ele>2073.0</ele>
        <time>2018-06-24T13:49:39Z</time>
      </trkpt>
      <trkpt lat="40.305150" lon="-4.848250">
        <ele>2071.0</ele>
        <time>2018-06-24T13:49:40Z</time>
      </trkpt>
      <trkpt lat="40.305100" lon="-4.848117">
        <ele>2069.0</ele>
        <time>2018-06-24T13:49:41Z</time>
      </trkpt>
      <trkpt lat="40.305050" lon="-4.847983">
        <ele>2067.0</ele>
        <time>2018-06-24T13:49:42Z</time>
      </trkpt>
      <trkpt lat="40.305017" lon="-4.847833">
        <ele>2065.0</ele>
        <time>2018-06-24T13:49:43Z</time>
      </trkpt>
      <trkpt lat="40.304983" lon="-4.847683">
        <ele>2064.0</ele>
        <time>2018-06-24T13:49:44Z</time>
      </trkpt>
      <trkpt lat="40.304950" lon="-4.847533">
        <ele>2063.0</ele>
        <time>2018-06-24T13:49:45Z</time>
      </trkpt>
      <trkpt lat="40.304917" lon="-4.847400">
        <ele>2062.0</ele>
        <time>2018-06-24T13:49:46Z</time>
      </trkpt>
      <trkpt lat="40.304883" lon="-4.847267">
        <ele>2061.0</ele>
        <time>2018-06-24T13:49:47Z</time>
      </trkpt>
      <trkpt lat="40.304833" lon="-4.847133">
        <ele>2060.0</ele>
        <time>2018-06-24T13:49:48Z</time>
      </trkpt>
      <trkpt lat="40.304800" lon="-4.847000">
        <ele>2058.0</ele>
        <time>2018-06-24T13:49:49Z</time>
      </trkpt>
      <trkpt lat="40.304783" lon="-4.846850">
        <ele>2056.0</ele>
        <time>2018-06-24T13:49:50Z</time>
      </trkpt>
      <trkpt lat="40.304750" lon="-4.846700">
        <ele>2054.0</ele>
        <time>2018-06-24T13:49:51Z</time>
      </trkpt>
      <trkpt lat="40.304717" lon="-4.846550">
        <ele>2053.0</ele>
        <time>2018-06-24T13:49:52Z</time>
      </trkpt>
      <trkpt lat="40.304683" lon="-4.846417">
        <ele>2051.0</ele>
        <time>2018-06-24T13:49:53Z</time>
      </trkpt>
      <trkpt lat="40.304667" lon="-4.846267">
        <ele>2050.0</ele>
        <time>2018-06-24T13:49:54Z</time>
      </trkpt>
      <trkpt lat="40.304633" lon="-4.846117">
        <ele>2048.0</ele>
        <time>2018-06-24T13:49:55Z</time>
      </trkpt>
      <trkpt lat="40.304617" lon="-4.845967">
        <ele>2047.0</ele>
        <time>2018-06-24T13:49:56Z</time>
      </trkpt>
      <trkpt lat="40.304600" lon="-4.845817">
        <ele>2045.0</ele>
        <time>2018-06-24T13:49:57Z</time>
      </trkpt>
      <trkpt lat="40.304583" lon="-4.845667">
        <ele>2043.0</ele>
        <time>2018-06-24T13:49:58Z</time>
      </trkpt>
      <trkpt lat="40.304567" lon="-4.845517">
        <ele>2041.0</ele>
        <time>2018-06-24T13:49:59Z</time>
      </trkpt>
      <trkpt lat="40.304550" lon="-4.845367">
        <ele>2039.0</ele>
        <time>2018-06-24T13:50:00Z</time>
      </trkpt>
      <trkpt lat="40.304517" lon="-4.845217">
        <ele>2037.0</ele>
        <time>2018-06-24T13:50:01Z</time>
      </trkpt>
      <trkpt lat="40.304483" lon="-4.845067">
        <ele>2036.0</ele>
        <time>2018-06-24T13:50:02Z</time>
      </trkpt>
      <trkpt lat="40.304450" lon="-4.844933">
        <ele>2034.0</ele>
        <time>2018-06-24T13:50:03Z</time>
      </trkpt>
      <trkpt lat="40.304417" lon="-4.844783">
        <ele>2032.0</ele>
        <time>2018-06-24T13:50:04Z</time>
      </trkpt>
      <trkpt lat="40.304383" lon="-4.844650">
        <ele>2030.0</ele>
        <time>2018-06-24T13:50:05Z</time>
      </trkpt>
      <trkpt lat="40.304350" lon="-4.844500">
        <ele>2028.0</ele>
        <time>2018-06-24T13:50:06Z</time>
      </trkpt>
      <trkpt lat="40.304317" lon="-4.844350">
        <ele>2026.0</ele>
        <time>2018-06-24T13:50:07Z</time>
      </trkpt>
      <trkpt lat="40.304283" lon="-4.844200">
        <ele>2025.0</ele>
        <time>2018-06-24T13:50:08Z</time>
      </trkpt>
      <trkpt lat="40.304250" lon="-4.844067">
        <ele>2023.0</ele>
        <time>2018-06-24T13:50:09Z</time>
      </trkpt>
      <trkpt lat="40.304217" lon="-4.843917">
        <ele>2021.0</ele>
        <time>2018-06-24T13:50:10Z</time>
      </trkpt>
      <trkpt lat="40.304183" lon="-4.843783">
        <ele>2019.0</ele>
        <time>2018-06-24T13:50:11Z</time>
      </trkpt>
      <trkpt lat="40.304150" lon="-4.843633">
        <ele>2017.0</ele>
        <time>2018-06-24T13:50:12Z</time>
      </trkpt>
      <trkpt lat="40.304117" lon="-4.843483">
        <ele>2015.0</ele>
        <time>2018-06-24T13:50:13Z</time>
      </trkpt>
      <trkpt lat="40.304083" lon="-4.843350">
        <ele>2013.0</ele>
        <time>2018-06-24T13:50:14Z</time>
      </trkpt>
      <trkpt lat="40.304050" lon="-4.843200">
        <ele>2011.0</ele>
        <time>2018-06-24T13:50:15Z</time>
      </trkpt>
      <trkpt lat="40.304017" lon="-4.843050">
        <ele>2010.0</ele>
        <time>2018-06-24T13:50:16Z</time>
      </trkpt>
      <trkpt lat="40.304000" lon="-4.842900">
        <ele>2008.0</ele>
        <time>2018-06-24T13:50:17Z</time>
      </trkpt>
      <trkpt lat="40.303983" lon="-4.842750">
        <ele>2007.0</ele>
        <time>2018-06-24T13:50:18Z</time>
      </trkpt>
      <trkpt lat="40.303967" lon="-4.842600">
        <ele>2005.0</ele>
        <time>2018-06-24T13:50:19Z</time>
      </trkpt>
      <trkpt lat="40.303933" lon="-4.842467">
        <ele>2004.0</ele>
        <time>2018-06-24T13:50:20Z</time>
      </trkpt>
      <trkpt lat="40.303883" lon="-4.842333">
        <ele>2002.0</ele>
        <time>2018-06-24T13:50:21Z</time>
      </trkpt>
      <trkpt lat="40.303817" lon="-4.842217">
        <ele>2000.0</ele>
        <time>2018-06-24T13:50:22Z</time>
      </trkpt>
      <trkpt lat="40.303750" lon="-4.842100">
        <ele>1999.0</ele>
        <time>2018-06-24T13:50:23Z</time>
      </trkpt>
      <trkpt lat="40.303700" lon="-4.841983">
        <ele>1998.0</ele>
        <time>2018-06-24T13:50:24Z</time>
      </trkpt>
      <trkpt lat="40.303633" lon="-4.841867">
        <ele>1997.0</ele>
        <time>2018-06-24T13:50:25Z</time>
      </trkpt>
      <trkpt lat="40.303583" lon="-4.841750">
        <ele>1996.0</ele>
        <time>2018-06-24T13:50:26Z</time>
      </trkpt>
      <trkpt lat="40.303533" lon="-4.841633">
        <ele>1995.0</ele>
        <time>2018-06-24T13:50:27Z</time>
      </trkpt>
      <trkpt lat="40.303483" lon="-4.841517">
        <ele>1993.0</ele>
        <time>2018-06-24T13:50:28Z</time>
      </trkpt>
      <trkpt lat="40.303417" lon="-4.841400">
        <ele>1992.0</ele>
        <time>2018-06-24T13:50:29Z</time>
      </trkpt>
      <trkpt lat="40.303367" lon="-4.841267">
        <ele>1991.0</ele>
        <time>2018-06-24T13:50:30Z</time>
      </trkpt>
      <trkpt lat="40.303317" lon="-4.841150">
        <ele>1989.0</ele>
        <time>2018-06-24T13:50:31Z</time>
      </trkpt>
      <trkpt lat="40.303283" lon="-4.841017">
        <ele>1988.0</ele>
        <time>2018-06-24T13:50:32Z</time>
      </trkpt>
      <trkpt lat="40.303233" lon="-4.840883">
        <ele>1987.0</ele>
        <time>2018-06-24T13:50:33Z</time>
      </trkpt>
      <trkpt lat="40.303183" lon="-4.840750">
        <ele>1985.0</ele>
        <time>2018-06-24T13:50:34Z</time>
      </trkpt>
      <trkpt lat="40.303133" lon="-4.840617">
        <ele>1984.0</ele>
        <time>2018-06-24T13:50:35Z</time>
      </trkpt>
      <trkpt lat="40.303100" lon="-4.840483">
        <ele>1983.0</ele>
        <time>2018-06-24T13:50:36Z</time>
      </trkpt>
      <trkpt lat="40.303050" lon="-4.840350">
        <ele>1982.0</ele>
        <time>2018-06-24T13:50:37Z</time>
      </trkpt>
      <trkpt lat="40.303017" lon="-4.840217">
        <ele>1981.0</ele>
        <time>2018-06-24T13:50:38Z</time>
      </trkpt>
      <trkpt lat="40.302983" lon="-4.840083">
        <ele>1980.0</ele>
        <time>2018-06-24T13:50:39Z</time>
      </trkpt>
      <trkpt lat="40.302950" lon="-4.839950">
        <ele>1979.0</ele>
        <time>2018-06-24T13:50:40Z</time>
      </trkpt>
      <trkpt lat="40.302917" lon="-4.839800">
        <ele>1977.0</ele>
        <time>2018-06-24T13:50:41Z</time>
      </trkpt>
      <trkpt lat="40.302900" lon="-4.839650">
        <ele>1976.0</ele>
        <time>2018-06-24T13:50:42Z</time>
      </trkpt>
      <trkpt lat="40.302883" lon="-4.839500">
        <ele>1975.0</ele>
        <time>2018-06-24T13:50:43Z</time>
      </trkpt>
      <trkpt lat="40.302867" lon="-4.839350">
        <ele>1974.0</ele>
        <time>2018-06-24T13:50:44Z</time>
      </trkpt>
      <trkpt lat="40.302833" lon="-4.839217">
        <ele>1972.0</ele>
        <time>2018-06-24T13:50:45Z</time>
      </trkpt>
      <trkpt lat="40.302817" lon="-4.839067">
        <ele>1971.0</ele>
        <time>2018-06-24T13:50:46Z</time>
      </trkpt>
      <trkpt lat="40.302783" lon="-4.838917">
        <ele>1970.0</ele>
        <time>2018-06-24T13:50:47Z</time>
      </trkpt>
      <trkpt lat="40.302750" lon="-4.838783">
        <ele>1969.0</ele>
        <time>2018-06-24T13:50:48Z</time>
      </trkpt>
      <trkpt lat="40.302717" lon="-4.838633">
        <ele>1967.0</ele>
        <time>2018-06-24T13:50:49Z</time>
      </trkpt>
      <trkpt lat="40.302683" lon="-4.838500">
        <ele>1966.0</ele>
        <time>2018-06-24T13:50:50Z</time>
      </trkpt>
      <trkpt lat="40.302667" lon="-4.838350">
        <ele>1966.0</ele>
        <time>2018-06-24T13:50:51Z</time>
      </trkpt>
      <trkpt lat="40.302650" lon="-4.838200">
        <ele>1965.0</ele>
        <time>2018-06-24T13:50:52Z</time>
      </trkpt>
      <trkpt lat="40.302617" lon="-4.838067">
        <ele>1964.0</ele>
        <time>2018-06-24T13:50:53Z</time>
      </trkpt>
      <trkpt lat="40.302600" lon="-4.837933">
        <ele>1963.0</ele>
        <time>2018-06-24T13:50:54Z</time>
      </trkpt>
      <trkpt lat="40.302567" lon="-4.837783">
        <ele>1962.0</ele>
        <time>2018-06-24T13:50:55Z</time>
      </trkpt>
      <trkpt lat="40.302533" lon="-4.837650">
        <ele>1960.0</ele>
        <time>2018-06-24T13:50:56Z</time>
      </trkpt>
      <trkpt lat="40.302500" lon="-4.837500">
        <ele>1959.0</ele>
        <time>2018-06-24T13:50:57Z</time>
      </trkpt>
      <trkpt lat="40.302467" lon="-4.837350">
        <ele>1958.0</ele>
        <time>2018-06-24T13:50:58Z</time>
      </trkpt>
      <trkpt lat="40.302450" lon="-4.837217">
        <ele>1958.0</ele>
        <time>2018-06-24T13:50:59Z</time>
      </trkpt>
      <trkpt lat="40.302417" lon="-4.837067">
        <ele>1957.0</ele>
        <time>2018-06-24T13:51:00Z</time>
      </trkpt>
      <trkpt lat="40.302400" lon="-4.836933">
        <ele>1956.0</ele>
        <time>2018-06-24T13:51:01Z</time>
      </trkpt>
      <trkpt lat="40.302367" lon="-4.836800">
        <ele>1955.0</ele>
        <time>2018-06-24T13:51:02Z</time>
      </trkpt>
      <trkpt lat="40.302317" lon="-4.836667">
        <ele>1954.0</ele>
        <time>2018-06-24T13:51:03Z</time>
      </trkpt>
      <trkpt lat="40.302283" lon="-4.836533">
        <ele>1952.0</ele>
        <time>2018-06-24T13:51:04Z</time>
      </trkpt>
      <trkpt lat="40.302233" lon="-4.836400">
        <ele>1951.0</ele>
        <time>2018-06-24T13:51:05Z</time>
      </trkpt>
      <trkpt lat="40.302183" lon="-4.836250">
        <ele>1951.0</ele>
        <time>2018-06-24T13:51:06Z</time>
      </trkpt>
      <trkpt lat="40.302150" lon="-4.836117">
        <ele>1950.0</ele>
        <time>2018-06-24T13:51:07Z</time>
      </trkpt>
      <trkpt lat="40.302100" lon="-4.836000">
        <ele>1950.0</ele>
        <time>2018-06-24T13:51:08Z</time>
      </trkpt>
      <trkpt lat="40.302050" lon="-4.835867">
        <ele>1949.0</ele>
        <time>2018-06-24T13:51:09Z</time>
      </trkpt>
      <trkpt lat="40.302000" lon="-4.835750">
        <ele>1947.0</ele>
        <time>2018-06-24T13:51:10Z</time>
      </trkpt>
      <trkpt lat="40.301950" lon="-4.835617">
        <ele>1946.0</ele>
        <time>2018-06-24T13:51:11Z</time>
      </trkpt>
      <trkpt lat="40.301900" lon="-4.835500">
        <ele>1944.0</ele>
        <time>2018-06-24T13:51:12Z</time>
      </trkpt>
      <trkpt lat="40.301833" lon="-4.835367">
        <ele>1944.0</ele>
        <time>2018-06-24T13:51:13Z</time>
      </trkpt>
      <trkpt lat="40.301767" lon="-4.835267">
        <ele>1943.0</ele>
        <time>2018-06-24T13:51:14Z</time>
      </trkpt>
      <trkpt lat="40.301700" lon="-4.835150">
        <ele>1943.0</ele>
        <time>2018-06-24T13:51:15Z</time>
      </trkpt>
      <trkpt lat="40.301633" lon="-4.835067">
        <ele>1942.0</ele>
        <time>2018-06-24T13:51:16Z</time>
      </trkpt>
      <trkpt lat="40.301567" lon="-4.834967">
        <ele>1941.0</ele>
        <time>2018-06-24T13:51:17Z</time>
      </trkpt>
      <trkpt lat="40.301500" lon="-4.834883">
        <ele>1940.0</ele>
        <time>2018-06-24T13:51:18Z</time>
      </trkpt>
      <trkpt lat="40.301433" lon="-4.834783">
        <ele>1939.0</ele>
        <time>2018-06-24T13:51:19Z</time>
      </trkpt>
      <trkpt lat="40.301367" lon="-4.834683">
        <ele>1937.0</ele>
        <time>2018-06-24T13:51:20Z</time>
      </trkpt>
      <trkpt lat="40.301300" lon="-4.834567">
        <ele>1936.0</ele>
        <time>2018-06-24T13:51:21Z</time>
      </trkpt>
      <trkpt lat="40.301233" lon="-4.834467">
        <ele>1935.0</ele>
        <time>2018-06-24T13:51:22Z</time>
      </trkpt>
      <trkpt lat="40.301183" lon="-4.834350">
        <ele>1934.0</ele>
        <time>2018-06-24T13:51:23Z</time>
      </trkpt>
      <trkpt lat="40.301133" lon="-4.834233">
        <ele>1933.0</ele>
        <time>2018-06-24T13:51:24Z</time>
      </trkpt>
      <trkpt lat="40.301083" lon="-4.834117">
        <ele>1931.0</ele>
        <time>2018-06-24T13:51:25Z</time>
      </trkpt>
      <trkpt lat="40.301033" lon="-4.833983">
        <ele>1929.0</ele>
        <time>2018-06-24T13:51:26Z</time>
      </trkpt>
      <trkpt lat="40.300983" lon="-4.833850">
        <ele>1927.0</ele>
        <time>2018-06-24T13:51:27Z</time>
      </trkpt>
      <trkpt lat="40.300950" lon="-4.833717">
        <ele>1926.0</ele>
        <time>2018-06-24T13:51:28Z</time>
      </trkpt>
      <trkpt lat="40.300917" lon="-4.833567">
        <ele>1924.0</ele>
        <time>2018-06-24T13:51:29Z</time>
      </trkpt>
      <trkpt lat="40.300867" lon="-4.833433">
        <ele>1923.0</ele>
        <time>2018-06-24T13:51:30Z</time>
      </trkpt>
      <trkpt lat="40.300833" lon="-4.833300">
        <ele>1922.0</ele>
        <time>2018-06-24T13:51:31Z</time>
      </trkpt>
      <trkpt lat="40.300800" lon="-4.833150">
        <ele>1920.0</ele>
        <time>2018-06-24T13:51:32Z</time>
      </trkpt>
      <trkpt lat="40.300767" lon="-4.833000">
        <ele>1919.0</ele>
        <time>2018-06-24T13:51:33Z</time>
      </trkpt>
      <trkpt lat="40.300733" lon="-4.832867">
        <ele>1918.0</ele>
        <time>2018-06-24T13:51:34Z</time>
      </trkpt>
      <trkpt lat="40.300700" lon="-4.832733">
        <ele>1917.0</ele>
        <time>2018-06-24T13:51:35Z</time>
      </trkpt>
      <trkpt lat="40.300650" lon="-4.832600">
        <ele>1917.0</ele>
        <time>2018-06-24T13:51:36Z</time>
      </trkpt>
      <trkpt lat="40.300600" lon="-4.832483">
        <ele>1916.0</ele>
        <time>2018-06-24T13:51:37Z</time>
      </trkpt>
      <trkpt lat="40.300550" lon="-4.832367">
        <ele>1915.0</ele>
        <time>2018-06-24T13:51:38Z</time>
      </trkpt>
      <trkpt lat="40.300500" lon="-4.832233">
        <ele>1914.0</ele>
        <time>2018-06-24T13:51:39Z</time>
      </trkpt>
      <trkpt lat="40.300467" lon="-4.832100">
        <ele>1913.0</ele>
        <time>2018-06-24T13:51:40Z</time>
      </trkpt>
      <trkpt lat="40.300417" lon="-4.831967">
        <ele>1911.0</ele>
        <time>2018-06-24T13:51:41Z</time>
      </trkpt>
      <trkpt lat="40.300383" lon="-4.831833">
        <ele>1910.0</ele>
        <time>2018-06-24T13:51:42Z</time>
      </trkpt>
      <trkpt lat="40.300333" lon="-4.831717">
        <ele>1908.0</ele>
        <time>2018-06-24T13:51:43Z</time>
      </trkpt>
      <trkpt lat="40.300300" lon="-4.831583">
        <ele>1907.0</ele>
        <time>2018-06-24T13:51:44Z</time>
      </trkpt>
      <trkpt lat="40.300250" lon="-4.831450">
        <ele>1906.0</ele>
        <time>2018-06-24T13:51:45Z</time>
      </trkpt>
      <trkpt lat="40.300200" lon="-4.831317">
        <ele>1904.0</ele>
        <time>2018-06-24T13:51:46Z</time>
      </trkpt>
      <trkpt lat="40.300150" lon="-4.831200">
        <ele>1903.0</ele>
        <time>2018-06-24T13:51:47Z</time>
      </trkpt>
      <trkpt lat="40.300100" lon="-4.831083">
        <ele>1901.0</ele>
        <time>2018-06-24T13:51:48Z</time>
      </trkpt>
      <trkpt lat="40.300050" lon="-4.830950">
        <ele>1899.0</ele>
        <time>2018-06-24T13:51:49Z</time>
      </trkpt>
      <trkpt lat="40.300000" lon="-4.830817">
        <ele>1898.0</ele>
        <time>2018-06-24T13:51:50Z</time>
      </trkpt>
      <trkpt lat="40.299967" lon="-4.830683">
        <ele>1897.0</ele>
        <time>2018-06-24T13:51:51Z</time>
      </trkpt>
      <trkpt lat="40.299917" lon="-4.830550">
        <ele>1895.0</ele>
        <time>2018-06-24T13:51:52Z</time>
      </trkpt>
      <trkpt lat="40.299883" lon="-4.830433">
        <ele>1894.0</ele>
        <time>2018-06-24T13:51:53Z</time>
      </trkpt>
      <trkpt lat="40.299850" lon="-4.830300">
        <ele>1892.0</ele>
        <time>2018-06-24T13:51:54Z</time>
      </trkpt>
      <trkpt lat="40.299800" lon="-4.830183">
        <ele>1890.0</ele>
        <time>2018-06-24T13:51:55Z</time>
      </trkpt>
      <trkpt lat="40.299750" lon="-4.830050">
        <ele>1888.0</ele>
        <time>2018-06-24T13:51:56Z</time>
      </trkpt>
      <trkpt lat="40.299700" lon="-4.829917">
        <ele>1886.0</ele>
        <time>2018-06-24T13:51:57Z</time>
      </trkpt>
      <trkpt lat="40.299633" lon="-4.829800">
        <ele>1885.0</ele>
        <time>2018-06-24T13:51:58Z</time>
      </trkpt>
      <trkpt lat="40.299583" lon="-4.829683">
        <ele>1883.0</ele>
        <time>2018-06-24T13:51:59Z</time>
      </trkpt>
      <trkpt lat="40.299517" lon="-4.829567">
        <ele>1881.0</ele>
        <time>2018-06-24T13:52:00Z</time>
      </trkpt>
      <trkpt lat="40.299450" lon="-4.829450">
        <ele>1879.0</ele>
        <time>2018-06-24T13:52:01Z</time>
      </trkpt>
      <trkpt lat="40.299400" lon="-4.829333">
        <ele>1877.0</ele>
        <time>2018-06-24T13:52:02Z</time>
      </trkpt>
      <trkpt lat="40.299333" lon="-4.829200">
        <ele>1875.0</ele>
        <time>2018-06-24T13:52:03Z</time>
      </trkpt>
      <trkpt lat="40.299283" lon="-4.829067">
        <ele>1874.0</ele>
        <time>2018-06-24T13:52:04Z</time>
      </trkpt>
      <trkpt lat="40.299250" lon="-4.828933">
        <ele>1872.0</ele>
        <time>2018-06-24T13:52:05Z</time>
      </trkpt>
      <trkpt lat="40.299217" lon="-4.828800">
        <ele>1871.0</ele>
        <time>2018-06-24T13:52:06Z</time>
      </trkpt>
      <trkpt lat="40.299183" lon="-4.828667">
        <ele>1869.0</ele>
        <time>2018-06-24T13:52:07Z</time>
      </trkpt>
      <trkpt lat="40.299150" lon="-4.828533">
        <ele>1867.0</ele>
        <time>2018-06-24T13:52:08Z</time>
      </trkpt>
      <trkpt lat="40.299133" lon="-4.828400">
        <ele>1866.0</ele>
        <time>2018-06-24T13:52:09Z</time>
      </trkpt>
      <trkpt lat="40.299100" lon="-4.828267">
        <ele>1864.0</ele>
        <time>2018-06-24T13:52:10Z</time>
      </trkpt>
      <trkpt lat="40.299067" lon="-4.828133">
        <ele>1864.0</ele>
        <time>2018-06-24T13:52:11Z</time>
      </trkpt>
      <trkpt lat="40.299033" lon="-4.828017">
        <ele>1864.0</ele>
        <time>2018-06-24T13:52:12Z</time>
      </trkpt>
      <trkpt lat="40.299017" lon="-4.827917">
        <ele>1865.0</ele>
        <time>2018-06-24T13:52:13Z</time>
      </trkpt>
      <trkpt lat="40.298983" lon="-4.827850">
        <ele>1867.0</ele>
        <time>2018-06-24T13:52:14Z</time>
      </trkpt>
      <trkpt lat="40.298933" lon="-4.827783">
        <ele>1867.0</ele>
        <time>2018-06-24T13:52:15Z</time>
      </trkpt>
      <trkpt lat="40.298883" lon="-4.827733">
        <ele>1867.0</ele>
        <time>2018-06-24T13:52:16Z</time>
      </trkpt>
      <trkpt lat="40.298800" lon="-4.827683">
        <ele>1865.0</ele>
        <time>2018-06-24T13:52:17Z</time>
      </trkpt>
      <trkpt lat="40.298733" lon="-4.827600">
        <ele>1865.0</ele>
        <time>2018-06-24T13:52:18Z</time>
      </trkpt>
      <trkpt lat="40.298683" lon="-4.827517">
        <ele>1865.0</ele>
        <time>2018-06-24T13:52:19Z</time>
      </trkpt>
      <trkpt lat="40.298650" lon="-4.827400">
        <ele>1866.0</ele>
        <time>2018-06-24T13:52:20Z</time>
      </trkpt>
      <trkpt lat="40.298633" lon="-4.827283">
        <ele>1867.0</ele>
        <time>2018-06-24T13:52:21Z</time>
      </trkpt>
      <trkpt lat="40.298633" lon="-4.827183">
        <ele>1868.0</ele>
        <time>2018-06-24T13:52:22Z</time>
      </trkpt>
      <trkpt lat="40.298667" lon="-4.827083">
        <ele>1869.0</ele>
        <time>2018-06-24T13:52:23Z</time>
      </trkpt>
      <trkpt lat="40.298733" lon="-4.826983">
        <ele>1868.0</ele>
        <time>2018-06-24T13:52:24Z</time>
      </trkpt>
      <trkpt lat="40.298817" lon="-4.826900">
        <ele>1867.0</ele>
        <time>2018-06-24T13:52:25Z</time>
      </trkpt>
      <trkpt lat="40.298900" lon="-4.826817">
        <ele>1867.0</ele>
        <time>2018-06-24T13:52:26Z</time>
      </trkpt>
      <trkpt lat="40.298983" lon="-4.826750">
        <ele>1866.0</ele>
        <time>2018-06-24T13:52:27Z</time>
      </trkpt>
      <trkpt lat="40.299067" lon="-4.826667">
        <ele>1866.0</ele>
        <time>2018-06-24T13:52:28Z</time>
      </trkpt>
      <trkpt lat="40.299133" lon="-4.826567">
        <ele>1865.0</ele>
        <time>2018-06-24T13:52:29Z</time>
      </trkpt>
      <trkpt lat="40.299167" lon="-4.826483">
        <ele>1864.0</ele>
        <time>2018-06-24T13:52:30Z</time>
      </trkpt>
      <trkpt lat="40.299183" lon="-4.826383">
        <ele>1863.0</ele>
        <time>2018-06-24T13:52:31Z</time>
      </trkpt>
      <trkpt lat="40.299167" lon="-4.826300">
        <ele>1861.0</ele>
        <time>2018-06-24T13:52:32Z</time>
      </trkpt>
      <trkpt lat="40.299133" lon="-4.826233">
        <ele>1860.0</ele>
        <time>2018-06-24T13:52:33Z</time>
      </trkpt>
      <trkpt lat="40.299100" lon="-4.826167">
        <ele>1859.0</ele>
        <time>2018-06-24T13:52:34Z</time>
      </trkpt>
      <trkpt lat="40.299050" lon="-4.826117">
        <ele>1856.0</ele>
        <time>2018-06-24T13:52:35Z</time>
      </trkpt>
      <trkpt lat="40.299000" lon="-4.826050">
        <ele>1854.0</ele>
        <time>2018-06-24T13:52:36Z</time>
      </trkpt>
      <trkpt lat="40.298950" lon="-4.826000">
        <ele>1851.0</ele>
        <time>2018-06-24T13:52:37Z</time>
      </trkpt>
      <trkpt lat="40.298883" lon="-4.825933">
        <ele>1849.0</ele>
        <time>2018-06-24T13:52:38Z</time>
      </trkpt>
      <trkpt lat="40.298817" lon="-4.825883">
        <ele>1848.0</ele>
        <time>2018-06-24T13:52:39Z</time>
      </trkpt>
      <trkpt lat="40.298750" lon="-4.825833">
        <ele>1847.0</ele>
        <time>2018-06-24T13:52:40Z</time>
      </trkpt>
      <trkpt lat="40.298700" lon="-4.825783">
        <ele>1846.0</ele>
        <time>2018-06-24T13:52:41Z</time>
      </trkpt>
      <trkpt lat="40.298633" lon="-4.825733">
        <ele>1844.0</ele>
        <time>2018-06-24T13:52:42Z</time>
      </trkpt>
      <trkpt lat="40.298567" lon="-4.825683">
        <ele>1842.0</ele>
        <time>2018-06-24T13:52:43Z</time>
      </trkpt>
      <trkpt lat="40.298483" lon="-4.825617">
        <ele>1841.0</ele>
        <time>2018-06-24T13:52:44Z</time>
      </trkpt>
      <trkpt lat="40.298417" lon="-4.825550">
        <ele>1840.0</ele>
        <time>2018-06-24T13:52:45Z</time>
      </trkpt>
      <trkpt lat="40.298333" lon="-4.825483">
        <ele>1840.0</ele>
        <time>2018-06-24T13:52:46Z</time>
      </trkpt>
      <trkpt lat="40.298283" lon="-4.825433">
        <ele>1842.0</ele>
        <time>2018-06-24T13:52:47Z</time>
      </trkpt>
      <trkpt lat="40.298233" lon="-4.825383">
        <ele>1843.0</ele>
        <time>2018-06-24T13:52:48Z</time>
      </trkpt>
      <trkpt lat="40.298183" lon="-4.825333">
        <ele>1843.0</ele>
        <time>2018-06-24T13:52:49Z</time>
      </trkpt>
      <trkpt lat="40.298150" lon="-4.825300">
        <ele>1842.0</ele>
        <time>2018-06-24T13:52:50Z</time>
      </trkpt>
      <trkpt lat="40.298100" lon="-4.825250">
        <ele>1840.0</ele>
        <time>2018-06-24T13:52:51Z</time>
      </trkpt>
      <trkpt lat="40.298050" lon="-4.825200">
        <ele>1838.0</ele>
        <time>2018-06-24T13:52:52Z</time>
      </trkpt>
      <trkpt lat="40.297983" lon="-4.825133">
        <ele>1835.0</ele>
        <time>2018-06-24T13:52:53Z</time>
      </trkpt>
      <trkpt lat="40.297933" lon="-4.825067">
        <ele>1834.0</ele>
        <time>2018-06-24T13:52:54Z</time>
      </trkpt>
      <trkpt lat="40.297867" lon="-4.825000">
        <ele>1832.0</ele>
        <time>2018-06-24T13:52:55Z</time>
      </trkpt>
      <trkpt lat="40.297817" lon="-4.824950">
        <ele>1831.0</ele>
        <time>2018-06-24T13:52:56Z</time>
      </trkpt>
      <trkpt lat="40.297750" lon="-4.824900">
        <ele>1830.0</ele>
        <time>2018-06-24T13:52:57Z</time>
      </trkpt>
      <trkpt lat="40.297683" lon="-4.824850">
        <ele>1828.0</ele>
        <time>2018-06-24T13:52:58Z</time>
      </trkpt>
      <trkpt lat="40.297617" lon="-4.824800">
        <ele>1826.0</ele>
        <time>2018-06-24T13:52:59Z</time>
      </trkpt>
      <trkpt lat="40.297550" lon="-4.824733">
        <ele>1825.0</ele>
        <time>2018-06-24T13:53:00Z</time>
      </trkpt>
      <trkpt lat="40.297500" lon="-4.824667">
        <ele>1824.0</ele>
        <time>2018-06-24T13:53:01Z</time>
      </trkpt>
      <trkpt lat="40.297450" lon="-4.824600">
        <ele>1823.0</ele>
        <time>2018-06-24T13:53:02Z</time>
      </trkpt>
      <trkpt lat="40.297400" lon="-4.824533">
        <ele>1823.0</ele>
        <time>2018-06-24T13:53:03Z</time>
      </trkpt>
      <trkpt lat="40.297367" lon="-4.824483">
        <ele>1822.0</ele>
        <time>2018-06-24T13:53:04Z</time>
      </trkpt>
      <trkpt lat="40.297300" lon="-4.824417">
        <ele>1820.0</ele>
        <time>2018-06-24T13:53:05Z</time>
      </trkpt>
      <trkpt lat="40.297250" lon="-4.824367">
        <ele>1818.0</ele>
        <time>2018-06-24T13:53:06Z</time>
      </trkpt>
      <trkpt lat="40.297183" lon="-4.824300">
        <ele>1816.0</ele>
        <time>2018-06-24T13:53:07Z</time>
      </trkpt>
      <trkpt lat="40.297117" lon="-4.824233">
        <ele>1814.0</ele>
        <time>2018-06-24T13:53:08Z</time>
      </trkpt>
      <trkpt lat="40.297050" lon="-4.824167">
        <ele>1814.0</ele>
        <time>2018-06-24T13:53:09Z</time>
      </trkpt>
      <trkpt lat="40.297000" lon="-4.824117">
        <ele>1813.0</ele>
        <time>2018-06-24T13:53:10Z</time>
      </trkpt>
      <trkpt lat="40.296917" lon="-4.824067">
        <ele>1812.0</ele>
        <time>2018-06-24T13:53:11Z</time>
      </trkpt>
      <trkpt lat="40.296850" lon="-4.824033">
        <ele>1810.0</ele>
        <time>2018-06-24T13:53:12Z</time>
      </trkpt>
      <trkpt lat="40.296767" lon="-4.824017">
        <ele>1809.0</ele>
        <time>2018-06-24T13:53:13Z</time>
      </trkpt>
      <trkpt lat="40.296700" lon="-4.823983">
        <ele>1807.0</ele>
        <time>2018-06-24T13:53:14Z</time>
      </trkpt>
      <trkpt lat="40.296633" lon="-4.823933">
        <ele>1806.0</ele>
        <time>2018-06-24T13:53:15Z</time>
      </trkpt>
      <trkpt lat="40.296550" lon="-4.823900">
        <ele>1805.0</ele>
        <time>2018-06-24T13:53:16Z</time>
      </trkpt>
      <trkpt lat="40.296483" lon="-4.823867">
        <ele>1803.0</ele>
        <time>2018-06-24T13:53:17Z</time>
      </trkpt>
      <trkpt lat="40.296400" lon="-4.823850">
        <ele>1802.0</ele>
        <time>2018-06-24T13:53:18Z</time>
      </trkpt>
      <trkpt lat="40.296333" lon="-4.823833">
        <ele>1801.0</ele>
        <time>2018-06-24T13:53:19Z</time>
      </trkpt>
      <trkpt lat="40.296250" lon="-4.823800">
        <ele>1800.0</ele>
        <time>2018-06-24T13:53:20Z</time>
      </trkpt>
      <trkpt lat="40.296183" lon="-4.823767">
        <ele>1798.0</ele>
        <time>2018-06-24T13:53:21Z</time>
      </trkpt>
      <trkpt lat="40.296117" lon="-4.823733">
        <ele>1796.0</ele>
        <time>2018-06-24T13:53:22Z</time>
      </trkpt>
      <trkpt lat="40.296050" lon="-4.823683">
        <ele>1794.0</ele>
        <time>2018-06-24T13:53:23Z</time>
      </trkpt>
      <trkpt lat="40.295967" lon="-4.823650">
        <ele>1793.0</ele>
        <time>2018-06-24T13:53:24Z</time>
      </trkpt>
      <trkpt lat="40.295900" lon="-4.823600">
        <ele>1791.0</ele>
        <time>2018-06-24T13:53:25Z</time>
      </trkpt>
      <trkpt lat="40.295850" lon="-4.823567">
        <ele>1789.0</ele>
        <time>2018-06-24T13:53:26Z</time>
      </trkpt>
      <trkpt lat="40.295783" lon="-4.823517">
        <ele>1786.0</ele>
        <time>2018-06-24T13:53:27Z</time>
      </trkpt>
      <trkpt lat="40.295733" lon="-4.823467">
        <ele>1782.0</ele>
        <time>2018-06-24T13:53:28Z</time>
      </trkpt>
      <trkpt lat="40.295667" lon="-4.823400">
        <ele>1776.0</ele>
        <time>2018-06-24T13:53:29Z</time>
      </trkpt>
      <trkpt lat="40.295583" lon="-4.823333">
        <ele>1771.0</ele>
        <time>2018-06-24T13:53:30Z</time>
      </trkpt>
      <trkpt lat="40.295500" lon="-4.823267">
        <ele>1766.0</ele>
        <time>2018-06-24T13:53:31Z</time>
      </trkpt>
      <trkpt lat="40.295417" lon="-4.823217">
        <ele>1762.0</ele>
        <time>2018-06-24T13:53:32Z</time>
      </trkpt>
      <trkpt lat="40.295333" lon="-4.823167">
        <ele>1759.0</ele>
        <time>2018-06-24T13:53:33Z</time>
      </trkpt>
      <trkpt lat="40.295250" lon="-4.823117">
        <ele>1755.0</ele>
        <time>2018-06-24T13:53:34Z</time>
      </trkpt>
      <trkpt lat="40.295167" lon="-4.823050">
        <ele>1751.0</ele>
        <time>2018-06-24T13:53:35Z</time>
      </trkpt>
      <trkpt lat="40.295067" lon="-4.823000">
        <ele>1747.0</ele>
        <time>2018-06-24T13:53:36Z</time>
      </trkpt>
      <trkpt lat="40.294983" lon="-4.822967">
        <ele>1745.0</ele>
        <time>2018-06-24T13:53:37Z</time>
      </trkpt>
      <trkpt lat="40.294900" lon="-4.822933">
        <ele>1742.0</ele>
        <time>2018-06-24T13:53:38Z</time>
      </trkpt>
      <trkpt lat="40.294817" lon="-4.822900">
        <ele>1740.0</ele>
        <time>2018-06-24T13:53:39Z</time>
      </trkpt>
      <trkpt lat="40.294733" lon="-4.822850">
        <ele>1737.0</ele>
        <time>2018-06-24T13:53:40Z</time>
      </trkpt>
      <trkpt lat="40.294667" lon="-4.822783">
        <ele>1733.0</ele>
        <time>2018-06-24T13:53:41Z</time>
      </trkpt>
      <trkpt lat="40.294583" lon="-4.822717">
        <ele>1730.0</ele>
        <time>2018-06-24T13:53:42Z</time>
      </trkpt>
      <trkpt lat="40.294500" lon="-4.822633">
        <ele>1727.0</ele>
        <time>2018-06-24T13:53:43Z</time>
      </trkpt>
      <trkpt lat="40.294417" lon="-4.822550">
        <ele>1724.0</ele>
        <time>2018-06-24T13:53:44Z</time>
      </trkpt>
      <trkpt lat="40.294350" lon="-4.822467">
        <ele>1722.0</ele>
        <time>2018-06-24T13:53:45Z</time>
      </trkpt>
      <trkpt lat="40.294283" lon="-4.822383">
        <ele>1719.0</ele>
        <time>2018-06-24T13:53:46Z</time>
      </trkpt>
      <trkpt lat="40.294217" lon="-4.822300">
        <ele>1716.0</ele>
        <time>2018-06-24T13:53:47Z</time>
      </trkpt>
      <trkpt lat="40.294150" lon="-4.822200">
        <ele>1713.0</ele>
        <time>2018-06-24T13:53:48Z</time>
      </trkpt>
      <trkpt lat="40.294083" lon="-4.822100">
        <ele>1711.0</ele>
        <time>2018-06-24T13:53:49Z</time>
      </trkpt>
      <trkpt lat="40.294033" lon="-4.822000">
        <ele>1708.0</ele>
        <time>2018-06-24T13:53:50Z</time>
      </trkpt>
      <trkpt lat="40.293967" lon="-4.821883">
        <ele>1705.0</ele>
        <time>2018-06-24T13:53:51Z</time>
      </trkpt>
      <trkpt lat="40.293917" lon="-4.821783">
        <ele>1702.0</ele>
        <time>2018-06-24T13:53:52Z</time>
      </trkpt>
      <trkpt lat="40.293850" lon="-4.821700">
        <ele>1700.0</ele>
        <time>2018-06-24T13:53:53Z</time>
      </trkpt>
      <trkpt lat="40.293767" lon="-4.821633">
        <ele>1696.0</ele>
        <time>2018-06-24T13:53:54Z</time>
      </trkpt>
      <trkpt lat="40.293667" lon="-4.821583">
        <ele>1693.0</ele>
        <time>2018-06-24T13:53:55Z</time>
      </trkpt>
      <trkpt lat="40.293583" lon="-4.821583">
        <ele>1690.0</ele>
        <time>2018-06-24T13:53:56Z</time>
      </trkpt>
      <trkpt lat="40.293483" lon="-4.821600">
        <ele>1687.0</ele>
        <time>2018-06-24T13:53:57Z</time>
      </trkpt>
      <trkpt lat="40.293400" lon="-4.821650">
        <ele>1684.0</ele>
        <time>2018-06-24T13:53:58Z</time>
      </trkpt>
      <trkpt lat="40.293333" lon="-4.821767">
        <ele>1681.0</ele>
        <time>2018-06-24T13:53:59Z</time>
      </trkpt>
      <trkpt lat="40.293317" lon="-4.821867">
        <ele>1678.0</ele>
        <time>2018-06-24T13:54:00Z</time>
      </trkpt>
      <trkpt lat="40.293317" lon="-4.821983">
        <ele>1676.0</ele>
        <time>2018-06-24T13:54:01Z</time>
      </trkpt>
      <trkpt lat="40.293333" lon="-4.822100">
        <ele>1675.0</ele>
        <time>2018-06-24T13:54:02Z</time>
      </trkpt>
      <trkpt lat="40.293383" lon="-4.822200">
        <ele>1673.0</ele>
        <time>2018-06-24T13:54:03Z</time>
      </trkpt>
      <trkpt lat="40.293467" lon="-4.822283">
        <ele>1671.0</ele>
        <time>2018-06-24T13:54:04Z</time>
      </trkpt>
      <trkpt lat="40.293567" lon="-4.822333">
        <ele>1668.0</ele>
        <time>2018-06-24T13:54:05Z</time>
      </trkpt>
      <trkpt lat="40.293683" lon="-4.822350">
        <ele>1665.0</ele>
        <time>2018-06-24T13:54:06Z</time>
      </trkpt>
      <trkpt lat="40.293783" lon="-4.822333">
        <ele>1662.0</ele>
        <time>2018-06-24T13:54:07Z</time>
      </trkpt>
      <trkpt lat="40.293900" lon="-4.822283">
        <ele>1660.0</ele>
        <time>2018-06-24T13:54:08Z</time>
      </trkpt>
      <trkpt lat="40.293983" lon="-4.822217">
        <ele>1658.0</ele>
        <time>2018-06-24T13:54:09Z</time>
      </trkpt>
      <trkpt lat="40.294067" lon="-4.822133">
        <ele>1656.0</ele>
        <time>2018-06-24T13:54:10Z</time>
      </trkpt>
      <trkpt lat="40.294133" lon="-4.822033">
        <ele>1653.0</ele>
        <time>2018-06-24T13:54:11Z</time>
      </trkpt>
      <trkpt lat="40.294217" lon="-4.821933">
        <ele>1649.0</ele>
        <time>2018-06-24T13:54:12Z</time>
      </trkpt>
      <trkpt lat="40.294283" lon="-4.821833">
        <ele>1645.0</ele>
        <time>2018-06-24T13:54:13Z</time>
      </trkpt>
      <trkpt lat="40.294350" lon="-4.821717">
        <ele>1641.0</ele>
        <time>2018-06-24T13:54:14Z</time>
      </trkpt>
      <trkpt lat="40.294417" lon="-4.821583">
        <ele>1638.0</ele>
        <time>2018-06-24T13:54:15Z</time>
      </trkpt>
      <trkpt lat="40.294450" lon="-4.821450">
        <ele>1635.0</ele>
        <time>2018-06-24T13:54:16Z</time>
      </trkpt>
      <trkpt lat="40.294467" lon="-4.821317">
        <ele>1633.0</ele>
        <time>2018-06-24T13:54:17Z</time>
      </trkpt>
      <trkpt lat="40.294450" lon="-4.821183">
        <ele>1630.0</ele>
        <time>2018-06-24T13:54:18Z</time>
      </trkpt>
      <trkpt lat="40.294450" lon="-4.821050">
        <ele>1629.0</ele>
        <time>2018-06-24T13:54:19Z</time>
      </trkpt>
      <trkpt lat="40.294433" lon="-4.820933">
        <ele>1628.0</ele>
        <time>2018-06-24T13:54:20Z</time>
      </trkpt>
      <trkpt lat="40.294417" lon="-4.820833">
        <ele>1627.0</ele>
        <time>2018-06-24T13:54:21Z</time>
      </trkpt>
      <trkpt lat="40.294400" lon="-4.820717">
        <ele>1626.0</ele>
        <time>2018-06-24T13:54:22Z</time>
      </trkpt>
      <trkpt lat="40.294400" lon="-4.820600">
        <ele>1624.0</ele>
        <time>2018-06-24T13:54:23Z</time>
      </trkpt>
      <trkpt lat="40.294417" lon="-4.820483">
        <ele>1623.0</ele>
        <time>2018-06-24T13:54:24Z</time>
      </trkpt>
      <trkpt lat="40.294450" lon="-4.820350">
        <ele>1621.0</ele>
        <time>2018-06-24T13:54:25Z</time>
      </trkpt>
      <trkpt lat="40.294500" lon="-4.820233">
        <ele>1621.0</ele>
        <time>2018-06-24T13:54:26Z</time>
      </trkpt>
      <trkpt lat="40.294533" lon="-4.820117">
        <ele>1621.0</ele>
        <time>2018-06-24T13:54:27Z</time>
      </trkpt>
      <trkpt lat="40.294567" lon="-4.820000">
        <ele>1623.0</ele>
        <time>2018-06-24T13:54:28Z</time>
      </trkpt>
      <trkpt lat="40.294583" lon="-4.819900">
        <ele>1623.0</ele>
        <time>2018-06-24T13:54:29Z</time>
      </trkpt>
      <trkpt lat="40.294600" lon="-4.819817">
        <ele>1623.0</ele>
        <time>2018-06-24T13:54:30Z</time>
      </trkpt>
      <trkpt lat="40.294633" lon="-4.819717">
        <ele>1622.0</ele>
        <time>2018-06-24T13:54:31Z</time>
      </trkpt>
      <trkpt lat="40.294683" lon="-4.819617">
        <ele>1620.0</ele>
        <time>2018-06-24T13:54:32Z</time>
      </trkpt>
      <trkpt lat="40.294750" lon="-4.819500">
        <ele>1619.0</ele>
        <time>2018-06-24T13:54:33Z</time>
      </trkpt>
      <trkpt lat="40.294800" lon="-4.819383">
        <ele>1620.0</ele>
        <time>2018-06-24T13:54:34Z</time>
      </trkpt>
      <trkpt lat="40.294867" lon="-4.819300">
        <ele>1622.0</ele>
        <time>2018-06-24T13:54:35Z</time>
      </trkpt>
      <trkpt lat="40.294917" lon="-4.819233">
        <ele>1624.0</ele>
        <time>2018-06-24T13:54:36Z</time>
      </trkpt>
      <trkpt lat="40.295000" lon="-4.819217">
        <ele>1624.0</ele>
        <time>2018-06-24T13:54:37Z</time>
      </trkpt>
      <trkpt lat="40.295067" lon="-4.819200">
        <ele>1623.0</ele>
        <time>2018-06-24T13:54:38Z</time>
      </trkpt>
      <trkpt lat="40.295167" lon="-4.819183">
        <ele>1622.0</ele>
        <time>2018-06-24T13:54:39Z</time>
      </trkpt>
      <trkpt lat="40.295267" lon="-4.819183">
        <ele>1622.0</ele>
        <time>2018-06-24T13:54:40Z</time>
      </trkpt>
      <trkpt lat="40.295400" lon="-4.819217">
        <ele>1622.0</ele>
        <time>2018-06-24T13:54:41Z</time>
      </trkpt>
      <trkpt lat="40.295483" lon="-4.819267">
        <ele>1624.0</ele>
        <time>2018-06-24T13:54:42Z</time>
      </trkpt>
      <trkpt lat="40.295567" lon="-4.819350">
        <ele>1624.0</ele>
        <time>2018-06-24T13:54:43Z</time>
      </trkpt>
      <trkpt lat="40.295633" lon="-4.819433">
        <ele>1625.0</ele>
        <time>2018-06-24T13:54:44Z</time>
      </trkpt>
      <trkpt lat="40.295717" lon="-4.819533">
        <ele>1627.0</ele>
        <time>2018-06-24T13:54:45Z</time>
      </trkpt>
      <trkpt lat="40.295783" lon="-4.819633">
        <ele>1628.0</ele>
        <time>2018-06-24T13:54:46Z</time>
      </trkpt>
      <trkpt lat="40.295867" lon="-4.819717">
        <ele>1630.0</ele>
        <time>2018-06-24T13:54:47Z</time>
      </trkpt>
      <trkpt lat="40.295967" lon="-4.819783">
        <ele>1632.0</ele>
        <time>2018-06-24T13:54:48Z</time>
      </trkpt>
      <trkpt lat="40.296050" lon="-4.819833">
        <ele>1634.0</ele>
        <time>2018-06-24T13:54:49Z</time>
      </trkpt>
      <trkpt lat="40.296150" lon="-4.819833">
        <ele>1636.0</ele>
        <time>2018-06-24T13:54:50Z</time>
      </trkpt>
      <trkpt lat="40.296250" lon="-4.819800">
        <ele>1638.0</ele>
        <time>2018-06-24T13:54:51Z</time>
      </trkpt>
      <trkpt lat="40.296333" lon="-4.819733">
        <ele>1640.0</ele>
        <time>2018-06-24T13:54:52Z</time>
      </trkpt>
      <trkpt lat="40.296383" lon="-4.819650">
        <ele>1641.0</ele>
        <time>2018-06-24T13:54:53Z</time>
      </trkpt>
      <trkpt lat="40.296400" lon="-4.819550">
        <ele>1641.0</ele>
        <time>2018-06-24T13:54:54Z</time>
      </trkpt>
      <trkpt lat="40.296383" lon="-4.819467">
        <ele>1641.0</ele>
        <time>2018-06-24T13:54:55Z</time>
      </trkpt>
      <trkpt lat="40.296317" lon="-4.819383">
        <ele>1640.0</ele>
        <time>2018-06-24T13:54:56Z</time>
      </trkpt>
      <trkpt lat="40.296233" lon="-4.819367">
        <ele>1639.0</ele>
        <time>2018-06-24T13:54:57Z</time>
      </trkpt>
      <trkpt lat="40.296133" lon="-4.819400">
        <ele>1639.0</ele>
        <time>2018-06-24T13:54:58Z</time>
      </trkpt>
      <trkpt lat="40.296050" lon="-4.819467">
        <ele>1639.0</ele>
        <time>2018-06-24T13:54:59Z</time>
      </trkpt>
      <trkpt lat="40.295983" lon="-4.819533">
        <ele>1641.0</ele>
        <time>2018-06-24T13:55:00Z</time>
      </trkpt>
      <trkpt lat="40.295917" lon="-4.819617">
        <ele>1643.0</ele>
        <time>2018-06-24T13:55:01Z</time>
      </trkpt>
      <trkpt lat="40.295867" lon="-4.819667">
        <ele>1645.0</ele>
        <time>2018-06-24T13:55:02Z</time>
      </trkpt>
      <trkpt lat="40.295800" lon="-4.819750">
        <ele>1648.0</ele>
        <time>2018-06-24T13:55:03Z</time>
      </trkpt>
      <trkpt lat="40.295767" lon="-4.819850">
        <ele>1649.0</ele>
        <time>2018-06-24T13:55:04Z</time>
      </trkpt>
      <trkpt lat="40.295750" lon="-4.819967">
        <ele>1651.0</ele>
        <time>2018-06-24T13:55:05Z</time>
      </trkpt>
      <trkpt lat="40.295750" lon="-4.820100">
        <ele>1651.0</ele>
        <time>2018-06-24T13:55:06Z</time>
      </trkpt>
      <trkpt lat="40.295783" lon="-4.820233">
        <ele>1653.0</ele>
        <time>2018-06-24T13:55:07Z</time>
      </trkpt>
      <trkpt lat="40.295833" lon="-4.820367">
        <ele>1656.0</ele>
        <time>2018-06-24T13:55:08Z</time>
      </trkpt>
      <trkpt lat="40.295917" lon="-4.820483">
        <ele>1658.0</ele>
        <time>2018-06-24T13:55:09Z</time>
      </trkpt>
      <trkpt lat="40.296017" lon="-4.820550">
        <ele>1659.0</ele>
        <time>2018-06-24T13:55:10Z</time>
      </trkpt>
      <trkpt lat="40.296133" lon="-4.820567">
        <ele>1660.0</ele>
        <time>2018-06-24T13:55:11Z</time>
      </trkpt>
      <trkpt lat="40.296250" lon="-4.820533">
        <ele>1661.0</ele>
        <time>2018-06-24T13:55:12Z</time>
      </trkpt>
      <trkpt lat="40.296333" lon="-4.820483">
        <ele>1664.0</ele>
        <time>2018-06-24T13:55:13Z</time>
      </trkpt>
      <trkpt lat="40.296400" lon="-4.820400">
        <ele>1666.0</ele>
        <time>2018-06-24T13:55:14Z</time>
      </trkpt>
      <trkpt lat="40.296417" lon="-4.820300">
        <ele>1667.0</ele>
        <time>2018-06-24T13:55:15Z</time>
      </trkpt>
      <trkpt lat="40.296417" lon="-4.820217">
        <ele>1668.0</ele>
        <time>2018-06-24T13:55:16Z</time>
      </trkpt>
      <trkpt lat="40.296383" lon="-4.820133">
        <ele>1669.0</ele>
        <time>2018-06-24T13:55:17Z</time>
      </trkpt>
      <trkpt lat="40.296333" lon="-4.820067">
        <ele>1669.0</ele>
        <time>2018-06-24T13:55:18Z</time>
      </trkpt>
      <trkpt lat="40.296250" lon="-4.820033">
        <ele>1669.0</ele>
        <time>2018-06-24T13:55:19Z</time>
      </trkpt>
      <trkpt lat="40.296150" lon="-4.820050">
        <ele>1669.0</ele>
        <time>2018-06-24T13:55:20Z</time>
      </trkpt>
      <trkpt lat="40.296067" lon="-4.820133">
        <ele>1671.0</ele>
        <time>2018-06-24T13:55:21Z</time>
      </trkpt>
      <trkpt lat="40.296000" lon="-4.820233">
        <ele>1674.0</ele>
        <time>2018-06-24T13:55:22Z</time>
      </trkpt>
      <trkpt lat="40.295983" lon="-4.820350">
        <ele>1676.0</ele>
        <time>2018-06-24T13:55:23Z</time>
      </trkpt>
      <trkpt lat="40.296000" lon="-4.820483">
        <ele>1678.0</ele>
        <time>2018-06-24T13:55:24Z</time>
      </trkpt>
      <trkpt lat="40.296033" lon="-4.820600">
        <ele>1678.0</ele>
        <time>2018-06-24T13:55:25Z</time>
      </trkpt>
      <trkpt lat="40.296117" lon="-4.820717">
        <ele>1678.0</ele>
        <time>2018-06-24T13:55:26Z</time>
      </trkpt>
      <trkpt lat="40.296217" lon="-4.820817">
        <ele>1679.0</ele>
        <time>2018-06-24T13:55:27Z</time>
      </trkpt>
      <trkpt lat="40.296333" lon="-4.820867">
        <ele>1680.0</ele>
        <time>2018-06-24T13:55:28Z</time>
      </trkpt>
      <trkpt lat="40.296450" lon="-4.820883">
        <ele>1681.0</ele>
        <time>2018-06-24T13:55:29Z</time>
      </trkpt>
      <trkpt lat="40.296550" lon="-4.820883">
        <ele>1683.0</ele>
        <time>2018-06-24T13:55:30Z</time>
      </trkpt>
      <trkpt lat="40.296633" lon="-4.820833">
        <ele>1685.0</ele>
        <time>2018-06-24T13:55:31Z</time>
      </trkpt>
      <trkpt lat="40.296717" lon="-4.820783">
        <ele>1687.0</ele>
        <time>2018-06-24T13:55:32Z</time>
      </trkpt>
      <trkpt lat="40.296767" lon="-4.820683">
        <ele>1688.0</ele>
        <time>2018-06-24T13:55:33Z</time>
      </trkpt>
      <trkpt lat="40.296783" lon="-4.820583">
        <ele>1688.0</ele>
        <time>2018-06-24T13:55:34Z</time>
      </trkpt>
      <trkpt lat="40.296750" lon="-4.820483">
        <ele>1689.0</ele>
        <time>2018-06-24T13:55:35Z</time>
      </trkpt>
      <trkpt lat="40.296700" lon="-4.820417">
        <ele>1690.0</ele>
        <time>2018-06-24T13:55:36Z</time>
      </trkpt>
      <trkpt lat="40.296617" lon="-4.820383">
        <ele>1691.0</ele>
        <time>2018-06-24T13:55:37Z</time>
      </trkpt>
      <trkpt lat="40.296533" lon="-4.820400">
        <ele>1691.0</ele>
        <time>2018-06-24T13:55:38Z</time>
      </trkpt>
      <trkpt lat="40.296450" lon="-4.820450">
        <ele>1691.0</ele>
        <time>2018-06-24T13:55:39Z</time>
      </trkpt>
      <trkpt lat="40.296383" lon="-4.820550">
        <ele>1693.0</ele>
        <time>2018-06-24T13:55:40Z</time>
      </trkpt>
      <trkpt lat="40.296333" lon="-4.820667">
        <ele>1695.0</ele>
        <time>2018-06-24T13:55:41Z</time>
      </trkpt>
      <trkpt lat="40.296333" lon="-4.820800">
        <ele>1697.0</ele>
        <time>2018-06-24T13:55:42Z</time>
      </trkpt>
      <trkpt lat="40.296350" lon="-4.820933">
        <ele>1697.0</ele>
        <time>2018-06-24T13:55:43Z</time>
      </trkpt>
      <trkpt lat="40.296383" lon="-4.821083">
        <ele>1698.0</ele>
        <time>2018-06-24T13:55:44Z</time>
      </trkpt>
      <trkpt lat="40.296433" lon="-4.821217">
        <ele>1698.0</ele>
        <time>2018-06-24T13:55:45Z</time>
      </trkpt>
      <trkpt lat="40.296500" lon="-4.821317">
        <ele>1699.0</ele>
        <time>2018-06-24T13:55:46Z</time>
      </trkpt>
      <trkpt lat="40.296600" lon="-4.821400">
        <ele>1697.0</ele>
        <time>2018-06-24T13:55:47Z</time>
      </trkpt>
      <trkpt lat="40.296733" lon="-4.821450">
        <ele>1696.0</ele>
        <time>2018-06-24T13:55:48Z</time>
      </trkpt>
      <trkpt lat="40.296850" lon="-4.821467">
        <ele>1695.0</ele>
        <time>2018-06-24T13:55:49Z</time>
      </trkpt>
      <trkpt lat="40.296983" lon="-4.821450">
        <ele>1694.0</ele>
        <time>2018-06-24T13:55:50Z</time>
      </trkpt>
      <trkpt lat="40.297117" lon="-4.821400">
        <ele>1693.0</ele>
        <time>2018-06-24T13:55:51Z</time>
      </trkpt>
      <trkpt lat="40.297217" lon="-4.821317">
        <ele>1694.0</ele>
        <time>2018-06-24T13:55:52Z</time>
      </trkpt>
      <trkpt lat="40.297283" lon="-4.821217">
        <ele>1696.0</ele>
        <time>2018-06-24T13:55:53Z</time>
      </trkpt>
      <trkpt lat="40.297333" lon="-4.821117">
        <ele>1699.0</ele>
        <time>2018-06-24T13:55:54Z</time>
      </trkpt>
      <trkpt lat="40.297367" lon="-4.821050">
        <ele>1702.0</ele>
        <time>2018-06-24T13:55:55Z</time>
      </trkpt>
      <trkpt lat="40.297400" lon="-4.821000">
        <ele>1703.0</ele>
        <time>2018-06-24T13:55:56Z</time>
      </trkpt>
      <trkpt lat="40.297450" lon="-4.820933">
        <ele>1704.0</ele>
        <time>2018-06-24T13:55:57Z</time>
      </trkpt>
      <trkpt lat="40.297500" lon="-4.820867">
        <ele>1704.0</ele>
        <time>2018-06-24T13:55:58Z</time>
      </trkpt>
      <trkpt lat="40.297533" lon="-4.820783">
        <ele>1703.0</ele>
        <time>2018-06-24T13:55:59Z</time>
      </trkpt>
      <trkpt lat="40.297533" lon="-4.820667">
        <ele>1703.0</ele>
        <time>2018-06-24T13:56:00Z</time>
      </trkpt>
      <trkpt lat="40.297517" lon="-4.820550">
        <ele>1703.0</ele>
        <time>2018-06-24T13:56:01Z</time>
      </trkpt>
      <trkpt lat="40.297517" lon="-4.820450">
        <ele>1705.0</ele>
        <time>2018-06-24T13:56:02Z</time>
      </trkpt>
      <trkpt lat="40.297517" lon="-4.820383">
        <ele>1707.0</ele>
        <time>2018-06-24T13:56:03Z</time>
      </trkpt>
      <trkpt lat="40.297517" lon="-4.820317">
        <ele>1708.0</ele>
        <time>2018-06-24T13:56:04Z</time>
      </trkpt>
      <trkpt lat="40.297533" lon="-4.820250">
        <ele>1708.0</ele>
        <time>2018-06-24T13:56:05Z</time>
      </trkpt>
      <trkpt lat="40.297517" lon="-4.820167">
        <ele>1708.0</ele>
        <time>2018-06-24T13:56:06Z</time>
      </trkpt>
      <trkpt lat="40.297483" lon="-4.820083">
        <ele>1706.0</ele>
        <time>2018-06-24T13:56:07Z</time>
      </trkpt>
      <trkpt lat="40.297400" lon="-4.820033">
        <ele>1705.0</ele>
        <time>2018-06-24T13:56:08Z</time>
      </trkpt>
      <trkpt lat="40.297300" lon="-4.820033">
        <ele>1704.0</ele>
        <time>2018-06-24T13:56:09Z</time>
      </trkpt>
      <trkpt lat="40.297200" lon="-4.820067">
        <ele>1703.0</ele>
        <time>2018-06-24T13:56:10Z</time>
      </trkpt>
      <trkpt lat="40.297117" lon="-4.820150">
        <ele>1703.0</ele>
        <time>2018-06-24T13:56:11Z</time>
      </trkpt>
      <trkpt lat="40.297033" lon="-4.820267">
        <ele>1703.0</ele>
        <time>2018-06-24T13:56:12Z</time>
      </trkpt>
      <trkpt lat="40.296983" lon="-4.820400">
        <ele>1702.0</ele>
        <time>2018-06-24T13:56:13Z</time>
      </trkpt>
      <trkpt lat="40.296967" lon="-4.820550">
        <ele>1702.0</ele>
        <time>2018-06-24T13:56:14Z</time>
      </trkpt>
      <trkpt lat="40.296967" lon="-4.820700">
        <ele>1700.0</ele>
        <time>2018-06-24T13:56:15Z</time>
      </trkpt>
      <trkpt lat="40.296983" lon="-4.820850">
        <ele>1699.0</ele>
        <time>2018-06-24T13:56:16Z</time>
      </trkpt>
      <trkpt lat="40.297033" lon="-4.821000">
        <ele>1697.0</ele>
        <time>2018-06-24T13:56:17Z</time>
      </trkpt>
      <trkpt lat="40.297083" lon="-4.821133">
        <ele>1696.0</ele>
        <time>2018-06-24T13:56:18Z</time>
      </trkpt>
      <trkpt lat="40.297183" lon="-4.821250">
        <ele>1695.0</ele>
        <time>2018-06-24T13:56:19Z</time>
      </trkpt>
      <trkpt lat="40.297283" lon="-4.821333">
        <ele>1694.0</ele>
        <time>2018-06-24T13:56:20Z</time>
      </trkpt>
      <trkpt lat="40.297400" lon="-4.821400">
        <ele>1694.0</ele>
        <time>2018-06-24T13:56:21Z</time>
      </trkpt>
      <trkpt lat="40.297500" lon="-4.821467">
        <ele>1695.0</ele>
        <time>2018-06-24T13:56:22Z</time>
      </trkpt>
      <trkpt lat="40.297617" lon="-4.821517">
        <ele>1694.0</ele>
        <time>2018-06-24T13:56:23Z</time>
      </trkpt>
      <trkpt lat="40.297733" lon="-4.821533">
        <ele>1694.0</ele>
        <time>2018-06-24T13:56:24Z</time>
      </trkpt>
      <trkpt lat="40.297850" lon="-4.821533">
        <ele>1693.0</ele>
        <time>2018-06-24T13:56:25Z</time>
      </trkpt>
      <trkpt lat="40.297950" lon="-4.821517">
        <ele>1694.0</ele>
        <time>2018-06-24T13:56:26Z</time>
      </trkpt>
      <trkpt lat="40.298067" lon="-4.821483">
        <ele>1696.0</ele>
        <time>2018-06-24T13:56:27Z</time>
      </trkpt>
      <trkpt lat="40.298167" lon="-4.821433">
        <ele>1698.0</ele>
        <time>2018-06-24T13:56:28Z</time>
      </trkpt>
      <trkpt lat="40.298250" lon="-4.821400">
        <ele>1699.0</ele>
        <time>2018-06-24T13:56:29Z</time>
      </trkpt>
      <trkpt lat="40.298333" lon="-4.821350">
        <ele>1700.0</ele>
        <time>2018-06-24T13:56:30Z</time>
      </trkpt>
      <trkpt lat="40.298417" lon="-4.821283">
        <ele>1700.0</ele>
        <time>2018-06-24T13:56:31Z</time>
      </trkpt>
      <trkpt lat="40.298467" lon="-4.821200">
        <ele>1700.0</ele>
        <time>2018-06-24T13:56:32Z</time>
      </trkpt>
      <trkpt lat="40.298517" lon="-4.821100">
        <ele>1699.0</ele>
        <time>2018-06-24T13:56:33Z</time>
      </trkpt>
      <trkpt lat="40.298533" lon="-4.821000">
        <ele>1700.0</ele>
        <time>2018-06-24T13:56:34Z</time>
      </trkpt>
      <trkpt lat="40.298533" lon="-4.820917">
        <ele>1701.0</ele>
        <time>2018-06-24T13:56:35Z</time>
      </trkpt>
      <trkpt lat="40.298517" lon="-4.820817">
        <ele>1701.0</ele>
        <time>2018-06-24T13:56:36Z</time>
      </trkpt>
      <trkpt lat="40.298483" lon="-4.820733">
        <ele>1703.0</ele>
        <time>2018-06-24T13:56:37Z</time>
      </trkpt>
      <trkpt lat="40.298450" lon="-4.820650">
        <ele>1705.0</ele>
        <time>2018-06-24T13:56:38Z</time>
      </trkpt>
      <trkpt lat="40.298433" lon="-4.820583">
        <ele>1707.0</ele>
        <time>2018-06-24T13:56:39Z</time>
      </trkpt>
      <trkpt lat="40.298400" lon="-4.820500">
        <ele>1707.0</ele>
        <time>2018-06-24T13:56:40Z</time>
      </trkpt>
      <trkpt lat="40.298367" lon="-4.820433">
        <ele>1707.0</ele>
        <time>2018-06-24T13:56:41Z</time>
      </trkpt>
      <trkpt lat="40.298300" lon="-4.820400">
        <ele>1707.0</ele>
        <time>2018-06-24T13:56:42Z</time>
      </trkpt>
      <trkpt lat="40.298217" lon="-4.820383">
        <ele>1705.0</ele>
        <time>2018-06-24T13:56:43Z</time>
      </trkpt>
      <trkpt lat="40.298117" lon="-4.820400">
        <ele>1704.0</ele>
        <time>2018-06-24T13:56:44Z</time>
      </trkpt>
      <trkpt lat="40.298033" lon="-4.820467">
        <ele>1703.0</ele>
        <time>2018-06-24T13:56:45Z</time>
      </trkpt>
      <trkpt lat="40.297950" lon="-4.820567">
        <ele>1703.0</ele>
        <time>2018-06-24T13:56:46Z</time>
      </trkpt>
      <trkpt lat="40.297917" lon="-4.820717">
        <ele>1703.0</ele>
        <time>2018-06-24T13:56:47Z</time>
      </trkpt>
      <trkpt lat="40.297917" lon="-4.820883">
        <ele>1703.0</ele>
        <time>2018-06-24T13:56:48Z</time>
      </trkpt>
      <trkpt lat="40.297950" lon="-4.821033">
        <ele>1703.0</ele>
        <time>2018-06-24T13:56:49Z</time>
      </trkpt>
      <trkpt lat="40.298017" lon="-4.821150">
        <ele>1704.0</ele>
        <time>2018-06-24T13:56:50Z</time>
      </trkpt>
      <trkpt lat="40.298117" lon="-4.821250">
        <ele>1704.0</ele>
        <time>2018-06-24T13:56:51Z</time>
      </trkpt>
      <trkpt lat="40.298233" lon="-4.821300">
        <ele>1704.0</ele>
        <time>2018-06-24T13:56:52Z</time>
      </trkpt>
      <trkpt lat="40.298350" lon="-4.821300">
        <ele>1704.0</ele>
        <time>2018-06-24T13:56:53Z</time>
      </trkpt>
      <trkpt lat="40.298467" lon="-4.821267">
        <ele>1704.0</ele>
        <time>2018-06-24T13:56:54Z</time>
      </trkpt>
      <trkpt lat="40.298567" lon="-4.821200">
        <ele>1705.0</ele>
        <time>2018-06-24T13:56:55Z</time>
      </trkpt>
      <trkpt lat="40.298667" lon="-4.821117">
        <ele>1707.0</ele>
        <time>2018-06-24T13:56:56Z</time>
      </trkpt>
      <trkpt lat="40.298733" lon="-4.821017">
        <ele>1709.0</ele>
        <time>2018-06-24T13:56:57Z</time>
      </trkpt>
      <trkpt lat="40.298783" lon="-4.820917">
        <ele>1711.0</ele>
        <time>2018-06-24T13:56:58Z</time>
      </trkpt>
      <trkpt lat="40.298833" lon="-4.820833">
        <ele>1713.0</ele>
        <time>2018-06-24T13:56:59Z</time>
      </trkpt>
      <trkpt lat="40.298883" lon="-4.820733">
        <ele>1715.0</ele>
        <time>2018-06-24T13:57:00Z</time>
      </trkpt>
      <trkpt lat="40.298933" lon="-4.820650">
        <ele>1718.0</ele>
        <time>2018-06-24T13:57:01Z</time>
      </trkpt>
      <trkpt lat="40.299000" lon="-4.820583">
        <ele>1720.0</ele>
        <time>2018-06-24T13:57:02Z</time>
      </trkpt>
      <trkpt lat="40.299050" lon="-4.820517">
        <ele>1720.0</ele>
        <time>2018-06-24T13:57:03Z</time>
      </trkpt>
      <trkpt lat="40.299083" lon="-4.820467">
        <ele>1720.0</ele>
        <time>2018-06-24T13:57:04Z</time>
      </trkpt>
      <trkpt lat="40.299100" lon="-4.820383">
        <ele>1718.0</ele>
        <time>2018-06-24T13:57:05Z</time>
      </trkpt>
      <trkpt lat="40.299083" lon="-4.820300">
        <ele>1715.0</ele>
        <time>2018-06-24T13:57:06Z</time>
      </trkpt>
      <trkpt lat="40.299017" lon="-4.820217">
        <ele>1712.0</ele>
        <time>2018-06-24T13:57:07Z</time>
      </trkpt>
      <trkpt lat="40.298933" lon="-4.820150">
        <ele>1710.0</ele>
        <time>2018-06-24T13:57:08Z</time>
      </trkpt>
      <trkpt lat="40.298833" lon="-4.820117">
        <ele>1710.0</ele>
        <time>2018-06-24T13:57:09Z</time>
      </trkpt>
      <trkpt lat="40.298733" lon="-4.820100">
        <ele>1712.0</ele>
        <time>2018-06-24T13:57:10Z</time>
      </trkpt>
      <trkpt lat="40.298633" lon="-4.820100">
        <ele>1715.0</ele>
        <time>2018-06-24T13:57:11Z</time>
      </trkpt>
      <trkpt lat="40.298550" lon="-4.820083">
        <ele>1716.0</ele>
        <time>2018-06-24T13:57:12Z</time>
      </trkpt>
      <trkpt lat="40.298483" lon="-4.820050">
        <ele>1717.0</ele>
        <time>2018-06-24T13:57:13Z</time>
      </trkpt>
      <trkpt lat="40.298417" lon="-4.820017">
        <ele>1717.0</ele>
        <time>2018-06-24T13:57:14Z</time>
      </trkpt>
      <trkpt lat="40.298350" lon="-4.819983">
        <ele>1717.0</ele>
        <time>2018-06-24T13:57:15Z</time>
      </trkpt>
      <trkpt lat="40.298267" lon="-4.819983">
        <ele>1717.0</ele>
        <time>2018-06-24T13:57:16Z</time>
      </trkpt>
      <trkpt lat="40.298183" lon="-4.820000">
        <ele>1716.0</ele>
        <time>2018-06-24T13:57:17Z</time>
      </trkpt>
      <trkpt lat="40.298083" lon="-4.820033">
        <ele>1717.0</ele>
        <time>2018-06-24T13:57:18Z</time>
      </trkpt>
      <trkpt lat="40.298000" lon="-4.820067">
        <ele>1719.0</ele>
        <time>2018-06-24T13:57:19Z</time>
      </trkpt>
      <trkpt lat="40.297933" lon="-4.820100">
        <ele>1721.0</ele>
        <time>2018-06-24T13:57:20Z</time>
      </trkpt>
      <trkpt lat="40.297867" lon="-4.820133">
        <ele>1724.0</ele>
        <time>2018-06-24T13:57:21Z</time>
      </trkpt>
      <trkpt lat="40.297817" lon="-4.820200">
        <ele>1725.0</ele>
        <time>2018-06-24T13:57:22Z</time>
      </trkpt>
      <trkpt lat="40.297767" lon="-4.820300">
        <ele>1725.0</ele>
        <time>2018-06-24T13:57:23Z</time>
      </trkpt>
      <trkpt lat="40.297750" lon="-4.820433">
        <ele>1725.0</ele>
        <time>2018-06-24T13:57:24Z</time>
      </trkpt>
      <trkpt lat="40.297750" lon="-4.820583">
        <ele>1726.0</ele>
        <time>2018-06-24T13:57:25Z</time>
      </trkpt>
      <trkpt lat="40.297783" lon="-4.820733">
        <ele>1728.0</ele>
        <time>2018-06-24T13:57:26Z</time>
      </trkpt>
      <trkpt lat="40.297867" lon="-4.820850">
        <ele>1729.0</ele>
        <time>2018-06-24T13:57:27Z</time>
      </trkpt>
      <trkpt lat="40.297967" lon="-4.820950">
        <ele>1729.0</ele>
        <time>2018-06-24T13:57:28Z</time>
      </trkpt>
      <trkpt lat="40.298117" lon="-4.821017">
        <ele>1729.0</ele>
        <time>2018-06-24T13:57:29Z</time>
      </trkpt>
      <trkpt lat="40.298183" lon="-4.821033">
        <ele>1730.0</ele>
        <time>2018-06-24T13:57:30Z</time>
      </trkpt>
      <trkpt lat="40.298283" lon="-4.821017">
        <ele>1731.0</ele>
        <time>2018-06-24T13:57:31Z</time>
      </trkpt>
      <trkpt lat="40.298367" lon="-4.820983">
        <ele>1732.0</ele>
        <time>2018-06-24T13:57:32Z</time>
      </trkpt>
      <trkpt lat="40.298433" lon="-4.820900">
        <ele>1732.0</ele>
        <time>2018-06-24T13:57:33Z</time>
      </trkpt>
      <trkpt lat="40.298500" lon="-4.820817">
        <ele>1732.0</ele>
        <time>2018-06-24T13:57:34Z</time>
      </trkpt>
      <trkpt lat="40.298550" lon="-4.820717">
        <ele>1733.0</ele>
        <time>2018-06-24T13:57:35Z</time>
      </trkpt>
      <trkpt lat="40.298583" lon="-4.820633">
        <ele>1734.0</ele>
        <time>2018-06-24T13:57:36Z</time>
      </trkpt>
      <trkpt lat="40.298617" lon="-4.820533">
        <ele>1734.0</ele>
        <time>2018-06-24T13:57:37Z</time>
      </trkpt>
      <trkpt lat="40.298617" lon="-4.820433">
        <ele>1733.0</ele>
        <time>2018-06-24T13:57:38Z</time>
      </trkpt>
      <trkpt lat="40.298633" lon="-4.820317">
        <ele>1733.0</ele>
        <time>2018-06-24T13:57:39Z</time>
      </trkpt>
      <trkpt lat="40.298633" lon="-4.820200">
        <ele>1733.0</ele>
        <time>2018-06-24T13:57:40Z</time>
      </trkpt>
      <trkpt lat="40.298633" lon="-4.820083">
        <ele>1734.0</ele>
        <time>2018-06-24T13:57:41Z</time>
      </trkpt>
      <trkpt lat="40.298633" lon="-4.819983">
        <ele>1736.0</ele>
        <time>2018-06-24T13:57:42Z</time>
      </trkpt>
      <trkpt lat="40.298600" lon="-4.819900">
        <ele>1737.0</ele>
        <time>2018-06-24T13:57:43Z</time>
      </trkpt>
      <trkpt lat="40.298550" lon="-4.819833">
        <ele>1737.0</ele>
        <time>2018-06-24T13:57:44Z</time>
      </trkpt>
      <trkpt lat="40.298500" lon="-4.819800">
        <ele>1736.0</ele>
        <time>2018-06-24T13:57:45Z</time>
      </trkpt>
      <trkpt lat="40.298417" lon="-4.819783">
        <ele>1737.0</ele>
        <time>2018-06-24T13:57:46Z</time>
      </trkpt>
      <trkpt lat="40.298350" lon="-4.819783">
        <ele>1738.0</ele>
        <time>2018-06-24T13:57:47Z</time>
      </trkpt>
      <trkpt lat="40.298300" lon="-4.819833">
        <ele>1738.0</ele>
        <time>2018-06-24T13:57:48Z</time>
      </trkpt>
      <trkpt lat="40.298250" lon="-4.819917">
        <ele>1738.0</ele>
        <time>2018-06-24T13:57:49Z</time>
      </trkpt>
      <trkpt lat="40.298217" lon="-4.820017">
        <ele>1737.0</ele>
        <time>2018-06-24T13:57:50Z</time>
      </trkpt>
      <trkpt lat="40.298200" lon="-4.820133">
        <ele>1737.0</ele>
        <time>2018-06-24T13:57:51Z</time>
      </trkpt>
      <trkpt lat="40.298183" lon="-4.820233">
        <ele>1737.0</ele>
        <time>2018-06-24T13:57:52Z</time>
      </trkpt>
      <trkpt lat="40.298200" lon="-4.820350">
        <ele>1737.0</ele>
        <time>2018-06-24T13:57:53Z</time>
      </trkpt>
      <trkpt lat="40.298217" lon="-4.820467">
        <ele>1736.0</ele>
        <time>2018-06-24T13:57:54Z</time>
      </trkpt>
      <trkpt lat="40.298267" lon="-4.820583">
        <ele>1734.0</ele>
        <time>2018-06-24T13:57:55Z</time>
      </trkpt>
      <trkpt lat="40.298317" lon="-4.820700">
        <ele>1734.0</ele>
        <time>2018-06-24T13:57:56Z</time>
      </trkpt>
      <trkpt lat="40.298383" lon="-4.820833">
        <ele>1733.0</ele>
        <time>2018-06-24T13:57:57Z</time>
      </trkpt>
      <trkpt lat="40.298450" lon="-4.820950">
        <ele>1733.0</ele>
        <time>2018-06-24T13:57:58Z</time>
      </trkpt>
      <trkpt lat="40.298533" lon="-4.821067">
        <ele>1733.0</ele>
        <time>2018-06-24T13:57:59Z</time>
      </trkpt>
      <trkpt lat="40.298633" lon="-4.821167">
        <ele>1733.0</ele>
        <time>2018-06-24T13:58:00Z</time>
      </trkpt>
      <trkpt lat="40.298733" lon="-4.821250">
        <ele>1733.0</ele>
        <time>2018-06-24T13:58:01Z</time>
      </trkpt>
      <trkpt lat="40.298850" lon="-4.821317">
        <ele>1734.0</ele>
        <time>2018-06-24T13:58:02Z</time>
      </trkpt>
      <trkpt lat="40.298983" lon="-4.821350">
        <ele>1735.0</ele>
        <time>2018-06-24T13:58:03Z</time>
      </trkpt>
      <trkpt lat="40.299100" lon="-4.821350">
        <ele>1736.0</ele>
        <time>2018-06-24T13:58:04Z</time>
      </trkpt>
      <trkpt lat="40.299217" lon="-4.821317">
        <ele>1738.0</ele>
        <time>2018-06-24T13:58:05Z</time>
      </trkpt>
      <trkpt lat="40.299317" lon="-4.821283">
        <ele>1739.0</ele>
        <time>2018-06-24T13:58:06Z</time>
      </trkpt>
      <trkpt lat="40.299400" lon="-4.821233">
        <ele>1740.0</ele>
        <time>2018-06-24T13:58:07Z</time>
      </trkpt>
      <trkpt lat="40.299500" lon="-4.821167">
        <ele>1741.0</ele>
        <time>2018-06-24T13:58:08Z</time>
      </trkpt>
      <trkpt lat="40.299600" lon="-4.821100">
        <ele>1742.0</ele>
        <time>2018-06-24T13:58:09Z</time>
      </trkpt>
      <trkpt lat="40.299667" lon="-4.821017">
        <ele>1743.0</ele>
        <time>2018-06-24T13:58:10Z</time>
      </trkpt>
      <trkpt lat="40.299717" lon="-4.820917">
        <ele>1744.0</ele>
        <time>2018-06-24T13:58:11Z</time>
      </trkpt>
      <trkpt lat="40.299733" lon="-4.820817">
        <ele>1744.0</ele>
        <time>2018-06-24T13:58:12Z</time>
      </trkpt>
      <trkpt lat="40.299733" lon="-4.820700">
        <ele>1745.0</ele>
        <time>2018-06-24T13:58:13Z</time>
      </trkpt>
      <trkpt lat="40.299683" lon="-4.820600">
        <ele>1746.0</ele>
        <time>2018-06-24T13:58:14Z</time>
      </trkpt>
      <trkpt lat="40.299650" lon="-4.820517">
        <ele>1748.0</ele>
        <time>2018-06-24T13:58:15Z</time>
      </trkpt>
      <trkpt lat="40.299583" lon="-4.820450">
        <ele>1751.0</ele>
        <time>2018-06-24T13:58:16Z</time>
      </trkpt>
      <trkpt lat="40.299533" lon="-4.820433">
        <ele>1753.0</ele>
        <time>2018-06-24T13:58:17Z</time>
      </trkpt>
      <trkpt lat="40.299467" lon="-4.820433">
        <ele>1753.0</ele>
        <time>2018-06-24T13:58:18Z</time>
      </trkpt>
      <trkpt lat="40.299417" lon="-4.820467">
        <ele>1753.0</ele>
        <time>2018-06-24T13:58:19Z</time>
      </trkpt>
      <trkpt lat="40.299367" lon="-4.820533">
        <ele>1753.0</ele>
        <time>2018-06-24T13:58:20Z</time>
      </trkpt>
      <trkpt lat="40.299333" lon="-4.820650">
        <ele>1752.0</ele>
        <time>2018-06-24T13:58:21Z</time>
      </trkpt>
      <trkpt lat="40.299317" lon="-4.820767">
        <ele>1751.0</ele>
        <time>2018-06-24T13:58:22Z</time>
      </trkpt>
      <trkpt lat="40.299317" lon="-4.820917">
        <ele>1750.0</ele>
        <time>2018-06-24T13:58:23Z</time>
      </trkpt>
      <trkpt lat="40.299350" lon="-4.821083">
        <ele>1750.0</ele>
        <time>2018-06-24T13:58:24Z</time>
      </trkpt>
      <trkpt lat="40.299417" lon="-4.821233">
        <ele>1750.0</ele>
        <time>2018-06-24T13:58:25Z</time>
      </trkpt>
      <trkpt lat="40.299500" lon="-4.821367">
        <ele>1751.0</ele>
        <time>2018-06-24T13:58:26Z</time>
      </trkpt>
      <trkpt lat="40.299600" lon="-4.821483">
        <ele>1754.0</ele>
        <time>2018-06-24T13:58:27Z</time>
      </trkpt>
      <trkpt lat="40.299700" lon="-4.821567">
        <ele>1756.0</ele>
        <time>2018-06-24T13:58:28Z</time>
      </trkpt>
      <trkpt lat="40.299817" lon="-4.821600">
        <ele>1759.0</ele>
        <time>2018-06-24T13:58:29Z</time>
      </trkpt>
      <trkpt lat="40.299917" lon="-4.821617">
        <ele>1760.0</ele>
        <time>2018-06-24T13:58:30Z</time>
      </trkpt>
      <trkpt lat="40.300033" lon="-4.821600">
        <ele>1760.0</ele>
        <time>2018-06-24T13:58:31Z</time>
      </trkpt>
      <trkpt lat="40.300150" lon="-4.821533">
        <ele>1760.0</ele>
        <time>2018-06-24T13:58:32Z</time>
      </trkpt>
      <trkpt lat="40.300217" lon="-4.821433">
        <ele>1761.0</ele>
        <time>2018-06-24T13:58:33Z</time>
      </trkpt>
      <trkpt lat="40.300267" lon="-4.821300">
        <ele>1762.0</ele>
        <time>2018-06-24T13:58:34Z</time>
      </trkpt>
      <trkpt lat="40.300250" lon="-4.821200">
        <ele>1763.0</ele>
        <time>2018-06-24T13:58:35Z</time>
      </trkpt>
      <trkpt lat="40.300183" lon="-4.821117">
        <ele>1765.0</ele>
        <time>2018-06-24T13:58:36Z</time>
      </trkpt>
      <trkpt lat="40.300100" lon="-4.821117">
        <ele>1766.0</ele>
        <time>2018-06-24T13:58:37Z</time>
      </trkpt>
      <trkpt lat="40.300033" lon="-4.821167">
        <ele>1768.0</ele>
        <time>2018-06-24T13:58:38Z</time>
      </trkpt>
      <trkpt lat="40.300000" lon="-4.821283">
        <ele>1771.0</ele>
        <time>2018-06-24T13:58:39Z</time>
      </trkpt>
      <trkpt lat="40.299983" lon="-4.821433">
        <ele>1772.0</ele>
        <time>2018-06-24T13:58:40Z</time>
      </trkpt>
      <trkpt lat="40.300033" lon="-4.821583">
        <ele>1773.0</ele>
        <time>2018-06-24T13:58:41Z</time>
      </trkpt>
      <trkpt lat="40.300100" lon="-4.821717">
        <ele>1775.0</ele>
        <time>2018-06-24T13:58:42Z</time>
      </trkpt>
      <trkpt lat="40.300200" lon="-4.821833">
        <ele>1776.0</ele>
        <time>2018-06-24T13:58:43Z</time>
      </trkpt>
      <trkpt lat="40.300333" lon="-4.821883">
        <ele>1777.0</ele>
        <time>2018-06-24T13:58:44Z</time>
      </trkpt>
      <trkpt lat="40.300467" lon="-4.821900">
        <ele>1778.0</ele>
        <time>2018-06-24T13:58:45Z</time>
      </trkpt>
      <trkpt lat="40.300583" lon="-4.821850">
        <ele>1781.0</ele>
        <time>2018-06-24T13:58:46Z</time>
      </trkpt>
      <trkpt lat="40.300667" lon="-4.821767">
        <ele>1782.0</ele>
        <time>2018-06-24T13:58:47Z</time>
      </trkpt>
      <trkpt lat="40.300717" lon="-4.821667">
        <ele>1784.0</ele>
        <time>2018-06-24T13:58:48Z</time>
      </trkpt>
      <trkpt lat="40.300733" lon="-4.821567">
        <ele>1786.0</ele>
        <time>2018-06-24T13:58:49Z</time>
      </trkpt>
      <trkpt lat="40.300717" lon="-4.821467">
        <ele>1787.0</ele>
        <time>2018-06-24T13:58:50Z</time>
      </trkpt>
      <trkpt lat="40.300683" lon="-4.821400">
        <ele>1789.0</ele>
        <time>2018-06-24T13:58:51Z</time>
      </trkpt>
      <trkpt lat="40.300617" lon="-4.821367">
        <ele>1789.0</ele>
        <time>2018-06-24T13:58:52Z</time>
      </trkpt>
      <trkpt lat="40.300533" lon="-4.821383">
        <ele>1789.0</ele>
        <time>2018-06-24T13:58:53Z</time>
      </trkpt>
      <trkpt lat="40.300467" lon="-4.821450">
        <ele>1790.0</ele>
        <time>2018-06-24T13:58:54Z</time>
      </trkpt>
      <trkpt lat="40.300417" lon="-4.821567">
        <ele>1790.0</ele>
        <time>2018-06-24T13:58:55Z</time>
      </trkpt>
      <trkpt lat="40.300400" lon="-4.821700">
        <ele>1791.0</ele>
        <time>2018-06-24T13:58:56Z</time>
      </trkpt>
      <trkpt lat="40.300417" lon="-4.821850">
        <ele>1791.0</ele>
        <time>2018-06-24T13:58:57Z</time>
      </trkpt>
      <trkpt lat="40.300450" lon="-4.821983">
        <ele>1793.0</ele>
        <time>2018-06-24T13:58:58Z</time>
      </trkpt>
      <trkpt lat="40.300517" lon="-4.822117">
        <ele>1794.0</ele>
        <time>2018-06-24T13:58:59Z</time>
      </trkpt>
      <trkpt lat="40.300600" lon="-4.822233">
        <ele>1795.0</ele>
        <time>2018-06-24T13:59:00Z</time>
      </trkpt>
      <trkpt lat="40.300700" lon="-4.822317">
        <ele>1797.0</ele>
        <time>2018-06-24T13:59:01Z</time>
      </trkpt>
      <trkpt lat="40.300817" lon="-4.822333">
        <ele>1797.0</ele>
        <time>2018-06-24T13:59:02Z</time>
      </trkpt>
      <trkpt lat="40.300933" lon="-4.822300">
        <ele>1798.0</ele>
        <time>2018-06-24T13:59:03Z</time>
      </trkpt>
      <trkpt lat="40.301017" lon="-4.822233">
        <ele>1799.0</ele>
        <time>2018-06-24T13:59:04Z</time>
      </trkpt>
      <trkpt lat="40.301083" lon="-4.822167">
        <ele>1800.0</ele>
        <time>2018-06-24T13:59:05Z</time>
      </trkpt>
      <trkpt lat="40.301117" lon="-4.822083">
        <ele>1802.0</ele>
        <time>2018-06-24T13:59:06Z</time>
      </trkpt>
      <trkpt lat="40.301117" lon="-4.821983">
        <ele>1803.0</ele>
        <time>2018-06-24T13:59:07Z</time>
      </trkpt>
      <trkpt lat="40.301083" lon="-4.821917">
        <ele>1804.0</ele>
        <time>2018-06-24T13:59:08Z</time>
      </trkpt>
      <trkpt lat="40.301050" lon="-4.821900">
        <ele>1805.0</ele>
        <time>2018-06-24T13:59:09Z</time>
      </trkpt>
      <trkpt lat="40.300983" lon="-4.821917">
        <ele>1804.0</ele>
        <time>2018-06-24T13:59:10Z</time>
      </trkpt>
      <trkpt lat="40.300933" lon="-4.822000">
        <ele>1802.0</ele>
        <time>2018-06-24T13:59:11Z</time>
      </trkpt>
      <trkpt lat="40.300900" lon="-4.822117">
        <ele>1802.0</ele>
        <time>2018-06-24T13:59:12Z</time>
      </trkpt>
      <trkpt lat="40.300867" lon="-4.822250">
        <ele>1803.0</ele>
        <time>2018-06-24T13:59:13Z</time>
      </trkpt>
      <trkpt lat="40.300850" lon="-4.822400">
        <ele>1805.0</ele>
        <time>2018-06-24T13:59:14Z</time>
      </trkpt>
      <trkpt lat="40.300883" lon="-4.822550">
        <ele>1807.0</ele>
        <time>2018-06-24T13:59:15Z</time>
      </trkpt>
      <trkpt lat="40.300933" lon="-4.822683">
        <ele>1807.0</ele>
        <time>2018-06-24T13:59:16Z</time>
      </trkpt>
      <trkpt lat="40.301050" lon="-4.822800">
        <ele>1807.0</ele>
        <time>2018-06-24T13:59:17Z</time>
      </trkpt>
      <trkpt lat="40.301167" lon="-4.822867">
        <ele>1809.0</ele>
        <time>2018-06-24T13:59:18Z</time>
      </trkpt>
      <trkpt lat="40.301283" lon="-4.822900">
        <ele>1812.0</ele>
        <time>2018-06-24T13:59:19Z</time>
      </trkpt>
      <trkpt lat="40.301383" lon="-4.822883">
        <ele>1815.0</ele>
        <time>2018-06-24T13:59:20Z</time>
      </trkpt>
      <trkpt lat="40.301467" lon="-4.822850">
        <ele>1817.0</ele>
        <time>2018-06-24T13:59:21Z</time>
      </trkpt>
      <trkpt lat="40.301550" lon="-4.822817">
        <ele>1818.0</ele>
        <time>2018-06-24T13:59:22Z</time>
      </trkpt>
      <trkpt lat="40.301617" lon="-4.822767">
        <ele>1820.0</ele>
        <time>2018-06-24T13:59:23Z</time>
      </trkpt>
      <trkpt lat="40.301667" lon="-4.822700">
        <ele>1821.0</ele>
        <time>2018-06-24T13:59:24Z</time>
      </trkpt>
      <trkpt lat="40.301700" lon="-4.822600">
        <ele>1821.0</ele>
        <time>2018-06-24T13:59:25Z</time>
      </trkpt>
      <trkpt lat="40.301683" lon="-4.822500">
        <ele>1819.0</ele>
        <time>2018-06-24T13:59:26Z</time>
      </trkpt>
      <trkpt lat="40.301617" lon="-4.822417">
        <ele>1818.0</ele>
        <time>2018-06-24T13:59:27Z</time>
      </trkpt>
      <trkpt lat="40.301550" lon="-4.822383">
        <ele>1820.0</ele>
        <time>2018-06-24T13:59:28Z</time>
      </trkpt>
      <trkpt lat="40.301500" lon="-4.822367">
        <ele>1823.0</ele>
        <time>2018-06-24T13:59:29Z</time>
      </trkpt>
      <trkpt lat="40.301450" lon="-4.822383">
        <ele>1825.0</ele>
        <time>2018-06-24T13:59:30Z</time>
      </trkpt>
      <trkpt lat="40.301417" lon="-4.822400">
        <ele>1826.0</ele>
        <time>2018-06-24T13:59:31Z</time>
      </trkpt>
      <trkpt lat="40.301367" lon="-4.822450">
        <ele>1825.0</ele>
        <time>2018-06-24T13:59:32Z</time>
      </trkpt>
      <trkpt lat="40.301300" lon="-4.822533">
        <ele>1822.0</ele>
        <time>2018-06-24T13:59:33Z</time>
      </trkpt>
      <trkpt lat="40.301250" lon="-4.822667">
        <ele>1821.0</ele>
        <time>2018-06-24T13:59:34Z</time>
      </trkpt>
      <trkpt lat="40.301217" lon="-4.822833">
        <ele>1822.0</ele>
        <time>2018-06-24T13:59:35Z</time>
      </trkpt>
      <trkpt lat="40.301217" lon="-4.823000">
        <ele>1825.0</ele>
        <time>2018-06-24T13:59:36Z</time>
      </trkpt>
      <trkpt lat="40.301250" lon="-4.823133">
        <ele>1828.0</ele>
        <time>2018-06-24T13:59:37Z</time>
      </trkpt>
      <trkpt lat="40.301317" lon="-4.823267">
        <ele>1830.0</ele>
        <time>2018-06-24T13:59:38Z</time>
      </trkpt>
      <trkpt lat="40.301383" lon="-4.823383">
        <ele>1830.0</ele>
        <time>2018-06-24T13:59:39Z</time>
      </trkpt>
      <trkpt lat="40.301467" lon="-4.823517">
        <ele>1830.0</ele>
        <time>2018-06-24T13:59:40Z</time>
      </trkpt>
      <trkpt lat="40.301567" lon="-4.823617">
        <ele>1830.0</ele>
        <time>2018-06-24T13:59:41Z</time>
      </trkpt>
      <trkpt lat="40.301683" lon="-4.823667">
        <ele>1830.0</ele>
        <time>2018-06-24T13:59:42Z</time>
      </trkpt>
      <trkpt lat="40.301800" lon="-4.823650">
        <ele>1829.0</ele>
        <time>2018-06-24T13:59:43Z</time>
      </trkpt>
      <trkpt lat="40.301917" lon="-4.823583">
        <ele>1828.0</ele>
        <time>2018-06-24T13:59:44Z</time>
      </trkpt>
      <trkpt lat="40.302000" lon="-4.823500">
        <ele>1830.0</ele>
        <time>2018-06-24T13:59:45Z</time>
      </trkpt>
      <trkpt lat="40.302067" lon="-4.823417">
        <ele>1833.0</ele>
        <time>2018-06-24T13:59:46Z</time>
      </trkpt>
      <trkpt lat="40.302100" lon="-4.823350">
        <ele>1835.0</ele>
        <time>2018-06-24T13:59:47Z</time>
      </trkpt>
      <trkpt lat="40.302117" lon="-4.823283">
        <ele>1836.0</ele>
        <time>2018-06-24T13:59:48Z</time>
      </trkpt>
      <trkpt lat="40.302117" lon="-4.823200">
        <ele>1836.0</ele>
        <time>2018-06-24T13:59:49Z</time>
      </trkpt>
      <trkpt lat="40.302117" lon="-4.823133">
        <ele>1835.0</ele>
        <time>2018-06-24T13:59:50Z</time>
      </trkpt>
      <trkpt lat="40.302083" lon="-4.823033">
        <ele>1834.0</ele>
        <time>2018-06-24T13:59:51Z</time>
      </trkpt>
      <trkpt lat="40.302033" lon="-4.822950">
        <ele>1832.0</ele>
        <time>2018-06-24T13:59:52Z</time>
      </trkpt>
      <trkpt lat="40.301967" lon="-4.822867">
        <ele>1832.0</ele>
        <time>2018-06-24T13:59:53Z</time>
      </trkpt>
      <trkpt lat="40.301883" lon="-4.822850">
        <ele>1833.0</ele>
        <time>2018-06-24T13:59:54Z</time>
      </trkpt>
      <trkpt lat="40.301800" lon="-4.822883">
        <ele>1835.0</ele>
        <time>2018-06-24T13:59:55Z</time>
      </trkpt>
      <trkpt lat="40.301717" lon="-4.822933">
        <ele>1837.0</ele>
        <time>2018-06-24T13:59:56Z</time>
      </trkpt>
      <trkpt lat="40.301667" lon="-4.822983">
        <ele>1839.0</ele>
        <time>2018-06-24T13:59:57Z</time>
      </trkpt>
      <trkpt lat="40.301633" lon="-4.823067">
        <ele>1841.0</ele>
        <time>2018-06-24T13:59:58Z</time>
      </trkpt>
      <trkpt lat="40.301600" lon="-4.823150">
        <ele>1842.0</ele>
        <time>2018-06-24T13:59:59Z</time>
      </trkpt>
      <trkpt lat="40.301583" lon="-4.823250">
        <ele>1842.0</ele>
        <time>2018-06-24T14:00:00Z</time>
      </trkpt>
      <trkpt lat="40.301567" lon="-4.823383">
        <ele>1841.0</ele>
        <time>2018-06-24T14:00:01Z</time>
      </trkpt>
      <trkpt lat="40.301567" lon="-4.823533">
        <ele>1841.0</ele>
        <time>2018-06-24T14:00:02Z</time>
      </trkpt>
      <trkpt lat="40.301600" lon="-4.823700">
        <ele>1842.0</ele>
        <time>2018-06-24T14:00:03Z</time>
      </trkpt>
      <trkpt lat="40.301667" lon="-4.823850">
        <ele>1844.0</ele>
        <time>2018-06-24T14:00:04Z</time>
      </trkpt>
      <trkpt lat="40.301767" lon="-4.823967">
        <ele>1845.0</ele>
        <time>2018-06-24T14:00:05Z</time>
      </trkpt>
      <trkpt lat="40.301867" lon="-4.824033">
        <ele>1846.0</ele>
        <time>2018-06-24T14:00:06Z</time>
      </trkpt>
      <trkpt lat="40.301983" lon="-4.824083">
        <ele>1848.0</ele>
        <time>2018-06-24T14:00:07Z</time>
      </trkpt>
      <trkpt lat="40.302083" lon="-4.824100">
        <ele>1848.0</ele>
        <time>2018-06-24T14:00:08Z</time>
      </trkpt>
      <trkpt lat="40.302167" lon="-4.824100">
        <ele>1849.0</ele>
        <time>2018-06-24T14:00:09Z</time>
      </trkpt>
      <trkpt lat="40.302267" lon="-4.824067">
        <ele>1848.0</ele>
        <time>2018-06-24T14:00:10Z</time>
      </trkpt>
      <trkpt lat="40.302333" lon="-4.824017">
        <ele>1847.0</ele>
        <time>2018-06-24T14:00:11Z</time>
      </trkpt>
      <trkpt lat="40.302383" lon="-4.823933">
        <ele>1847.0</ele>
        <time>2018-06-24T14:00:12Z</time>
      </trkpt>
      <trkpt lat="40.302417" lon="-4.823833">
        <ele>1846.0</ele>
        <time>2018-06-24T14:00:13Z</time>
      </trkpt>
      <trkpt lat="40.302433" lon="-4.823750">
        <ele>1845.0</ele>
        <time>2018-06-24T14:00:14Z</time>
      </trkpt>
      <trkpt lat="40.302400" lon="-4.823650">
        <ele>1844.0</ele>
        <time>2018-06-24T14:00:15Z</time>
      </trkpt>
      <trkpt lat="40.302367" lon="-4.823550">
        <ele>1843.0</ele>
        <time>2018-06-24T14:00:16Z</time>
      </trkpt>
      <trkpt lat="40.302350" lon="-4.823417">
        <ele>1844.0</ele>
        <time>2018-06-24T14:00:17Z</time>
      </trkpt>
      <trkpt lat="40.302350" lon="-4.823300">
        <ele>1845.0</ele>
        <time>2018-06-24T14:00:18Z</time>
      </trkpt>
      <trkpt lat="40.302383" lon="-4.823200">
        <ele>1847.0</ele>
        <time>2018-06-24T14:00:19Z</time>
      </trkpt>
      <trkpt lat="40.302450" lon="-4.823117">
        <ele>1847.0</ele>
        <time>2018-06-24T14:00:20Z</time>
      </trkpt>
      <trkpt lat="40.302500" lon="-4.823033">
        <ele>1846.0</ele>
        <time>2018-06-24T14:00:21Z</time>
      </trkpt>
      <trkpt lat="40.302567" lon="-4.822917">
        <ele>1845.0</ele>
        <time>2018-06-24T14:00:22Z</time>
      </trkpt>
      <trkpt lat="40.302617" lon="-4.822800">
        <ele>1845.0</ele>
        <time>2018-06-24T14:00:23Z</time>
      </trkpt>
      <trkpt lat="40.302633" lon="-4.822667">
        <ele>1845.0</ele>
        <time>2018-06-24T14:00:24Z</time>
      </trkpt>
      <trkpt lat="40.302617" lon="-4.822550">
        <ele>1845.0</ele>
        <time>2018-06-24T14:00:25Z</time>
      </trkpt>
      <trkpt lat="40.302600" lon="-4.822433">
        <ele>1846.0</ele>
        <time>2018-06-24T14:00:26Z</time>
      </trkpt>
      <trkpt lat="40.302567" lon="-4.822333">
        <ele>1847.0</ele>
        <time>2018-06-24T14:00:27Z</time>
      </trkpt>
      <trkpt lat="40.302533" lon="-4.822250">
        <ele>1849.0</ele>
        <time>2018-06-24T14:00:28Z</time>
      </trkpt>
      <trkpt lat="40.302483" lon="-4.822183">
        <ele>1849.0</ele>
        <time>2018-06-24T14:00:29Z</time>
      </trkpt>
      <trkpt lat="40.302417" lon="-4.822150">
        <ele>1848.0</ele>
        <time>2018-06-24T14:00:30Z</time>
      </trkpt>
      <trkpt lat="40.302333" lon="-4.822150">
        <ele>1845.0</ele>
        <time>2018-06-24T14:00:31Z</time>
      </trkpt>
      <trkpt lat="40.302267" lon="-4.822233">
        <ele>1843.0</ele>
        <time>2018-06-24T14:00:32Z</time>
      </trkpt>
      <trkpt lat="40.302217" lon="-4.822350">
        <ele>1841.0</ele>
        <time>2018-06-24T14:00:33Z</time>
      </trkpt>
      <trkpt lat="40.302200" lon="-4.822483">
        <ele>1839.0</ele>
        <time>2018-06-24T14:00:34Z</time>
      </trkpt>
      <trkpt lat="40.302200" lon="-4.822617">
        <ele>1837.0</ele>
        <time>2018-06-24T14:00:35Z</time>
      </trkpt>
      <trkpt lat="40.302250" lon="-4.822750">
        <ele>1836.0</ele>
        <time>2018-06-24T14:00:36Z</time>
      </trkpt>
      <trkpt lat="40.302317" lon="-4.822867">
        <ele>1833.0</ele>
        <time>2018-06-24T14:00:37Z</time>
      </trkpt>
      <trkpt lat="40.302417" lon="-4.822950">
        <ele>1830.0</ele>
        <time>2018-06-24T14:00:38Z</time>
      </trkpt>
      <trkpt lat="40.302550" lon="-4.823000">
        <ele>1829.0</ele>
        <time>2018-06-24T14:00:39Z</time>
      </trkpt>
      <trkpt lat="40.302683" lon="-4.823017">
        <ele>1829.0</ele>
        <time>2018-06-24T14:00:40Z</time>
      </trkpt>
      <trkpt lat="40.302800" lon="-4.822967">
        <ele>1829.0</ele>
        <time>2018-06-24T14:00:41Z</time>
      </trkpt>
      <trkpt lat="40.302900" lon="-4.822900">
        <ele>1829.0</ele>
        <time>2018-06-24T14:00:42Z</time>
      </trkpt>
      <trkpt lat="40.302983" lon="-4.822817">
        <ele>1830.0</ele>
        <time>2018-06-24T14:00:43Z</time>
      </trkpt>
      <trkpt lat="40.303067" lon="-4.822717">
        <ele>1831.0</ele>
        <time>2018-06-24T14:00:44Z</time>
      </trkpt>
      <trkpt lat="40.303133" lon="-4.822600">
        <ele>1833.0</ele>
        <time>2018-06-24T14:00:45Z</time>
      </trkpt>
      <trkpt lat="40.303200" lon="-4.822500">
        <ele>1833.0</ele>
        <time>2018-06-24T14:00:46Z</time>
      </trkpt>
      <trkpt lat="40.303250" lon="-4.822383">
        <ele>1834.0</ele>
        <time>2018-06-24T14:00:47Z</time>
      </trkpt>
      <trkpt lat="40.303283" lon="-4.822267">
        <ele>1833.0</ele>
        <time>2018-06-24T14:00:48Z</time>
      </trkpt>
      <trkpt lat="40.303283" lon="-4.822117">
        <ele>1832.0</ele>
        <time>2018-06-24T14:00:49Z</time>
      </trkpt>
      <trkpt lat="40.303267" lon="-4.821983">
        <ele>1831.0</ele>
        <time>2018-06-24T14:00:50Z</time>
      </trkpt>
      <trkpt lat="40.303233" lon="-4.821867">
        <ele>1830.0</ele>
        <time>2018-06-24T14:00:51Z</time>
      </trkpt>
      <trkpt lat="40.303167" lon="-4.821767">
        <ele>1827.0</ele>
        <time>2018-06-24T14:00:52Z</time>
      </trkpt>
      <trkpt lat="40.303100" lon="-4.821700">
        <ele>1824.0</ele>
        <time>2018-06-24T14:00:53Z</time>
      </trkpt>
      <trkpt lat="40.303017" lon="-4.821650">
        <ele>1820.0</ele>
        <time>2018-06-24T14:00:54Z</time>
      </trkpt>
      <trkpt lat="40.302933" lon="-4.821600">
        <ele>1816.0</ele>
        <time>2018-06-24T14:00:55Z</time>
      </trkpt>
      <trkpt lat="40.302833" lon="-4.821567">
        <ele>1812.0</ele>
        <time>2018-06-24T14:00:56Z</time>
      </trkpt>
      <trkpt lat="40.302733" lon="-4.821517">
        <ele>1807.0</ele>
        <time>2018-06-24T14:00:57Z</time>
      </trkpt>
      <trkpt lat="40.302617" lon="-4.821500">
        <ele>1804.0</ele>
        <time>2018-06-24T14:00:58Z</time>
      </trkpt>
      <trkpt lat="40.302517" lon="-4.821500">
        <ele>1802.0</ele>
        <time>2018-06-24T14:00:59Z</time>
      </trkpt>
      <trkpt lat="40.302417" lon="-4.821500">
        <ele>1802.0</ele>
        <time>2018-06-24T14:01:00Z</time>
      </trkpt>
      <trkpt lat="40.302333" lon="-4.821500">
        <ele>1801.0</ele>
        <time>2018-06-24T14:01:01Z</time>
      </trkpt>
      <trkpt lat="40.302283" lon="-4.821483">
        <ele>1799.0</ele>
        <time>2018-06-24T14:01:02Z</time>
      </trkpt>
      <trkpt lat="40.302217" lon="-4.821450">
        <ele>1796.0</ele>
        <time>2018-06-24T14:01:03Z</time>
      </trkpt>
      <trkpt lat="40.302150" lon="-4.821417">
        <ele>1793.0</ele>
        <time>2018-06-24T14:01:04Z</time>
      </trkpt>
      <trkpt lat="40.302083" lon="-4.821383">
        <ele>1791.0</ele>
        <time>2018-06-24T14:01:05Z</time>
      </trkpt>
      <trkpt lat="40.302000" lon="-4.821367">
        <ele>1790.0</ele>
        <time>2018-06-24T14:01:06Z</time>
      </trkpt>
      <trkpt lat="40.301933" lon="-4.821333">
        <ele>1790.0</ele>
        <time>2018-06-24T14:01:07Z</time>
      </trkpt>
      <trkpt lat="40.301867" lon="-4.821300">
        <ele>1789.0</ele>
        <time>2018-06-24T14:01:08Z</time>
      </trkpt>
      <trkpt lat="40.301800" lon="-4.821267">
        <ele>1789.0</ele>
        <time>2018-06-24T14:01:09Z</time>
      </trkpt>
      <trkpt lat="40.301733" lon="-4.821217">
        <ele>1790.0</ele>
        <time>2018-06-24T14:01:10Z</time>
      </trkpt>
      <trkpt lat="40.301667" lon="-4.821183">
        <ele>1790.0</ele>
        <time>2018-06-24T14:01:11Z</time>
      </trkpt>
      <trkpt lat="40.301600" lon="-4.821133">
        <ele>1790.0</ele>
        <time>2018-06-24T14:01:12Z</time>
      </trkpt>
      <trkpt lat="40.301550" lon="-4.821067">
        <ele>1790.0</ele>
        <time>2018-06-24T14:01:13Z</time>
      </trkpt>
      <trkpt lat="40.301483" lon="-4.821000">
        <ele>1790.0</ele>
        <time>2018-06-24T14:01:14Z</time>
      </trkpt>
      <trkpt lat="40.301433" lon="-4.820933">
        <ele>1790.0</ele>
        <time>2018-06-24T14:01:15Z</time>
      </trkpt>
      <trkpt lat="40.301367" lon="-4.820867">
        <ele>1791.0</ele>
        <time>2018-06-24T14:01:16Z</time>
      </trkpt>
      <trkpt lat="40.301317" lon="-4.820800">
        <ele>1791.0</ele>
        <time>2018-06-24T14:01:17Z</time>
      </trkpt>
      <trkpt lat="40.301250" lon="-4.820733">
        <ele>1792.0</ele>
        <time>2018-06-24T14:01:18Z</time>
      </trkpt>
      <trkpt lat="40.301183" lon="-4.820683">
        <ele>1792.0</ele>
        <time>2018-06-24T14:01:19Z</time>
      </trkpt>
      <trkpt lat="40.301117" lon="-4.820633">
        <ele>1792.0</ele>
        <time>2018-06-24T14:01:20Z</time>
      </trkpt>
      <trkpt lat="40.301050" lon="-4.820583">
        <ele>1792.0</ele>
        <time>2018-06-24T14:01:21Z</time>
      </trkpt>
      <trkpt lat="40.300983" lon="-4.820533">
        <ele>1791.0</ele>
        <time>2018-06-24T14:01:22Z</time>
      </trkpt>
      <trkpt lat="40.300900" lon="-4.820483">
        <ele>1791.0</ele>
        <time>2018-06-24T14:01:23Z</time>
      </trkpt>
      <trkpt lat="40.300833" lon="-4.820417">
        <ele>1792.0</ele>
        <time>2018-06-24T14:01:24Z</time>
      </trkpt>
      <trkpt lat="40.300750" lon="-4.820350">
        <ele>1794.0</ele>
        <time>2018-06-24T14:01:25Z</time>
      </trkpt>
      <trkpt lat="40.300667" lon="-4.820300">
        <ele>1795.0</ele>
        <time>2018-06-24T14:01:26Z</time>
      </trkpt>
      <trkpt lat="40.300600" lon="-4.820250">
        <ele>1797.0</ele>
        <time>2018-06-24T14:01:27Z</time>
      </trkpt>
      <trkpt lat="40.300533" lon="-4.820200">
        <ele>1797.0</ele>
        <time>2018-06-24T14:01:28Z</time>
      </trkpt>
      <trkpt lat="40.300467" lon="-4.820133">
        <ele>1797.0</ele>
        <time>2018-06-24T14:01:29Z</time>
      </trkpt>
      <trkpt lat="40.300400" lon="-4.820050">
        <ele>1797.0</ele>
        <time>2018-06-24T14:01:30Z</time>
      </trkpt>
      <trkpt lat="40.300333" lon="-4.819933">
        <ele>1797.0</ele>
        <time>2018-06-24T14:01:31Z</time>
      </trkpt>
      <trkpt lat="40.300300" lon="-4.819817">
        <ele>1796.0</ele>
        <time>2018-06-24T14:01:32Z</time>
      </trkpt>
      <trkpt lat="40.300267" lon="-4.819700">
        <ele>1797.0</ele>
        <time>2018-06-24T14:01:33Z</time>
      </trkpt>
      <trkpt lat="40.300233" lon="-4.819567">
        <ele>1798.0</ele>
        <time>2018-06-24T14:01:34Z</time>
      </trkpt>
      <trkpt lat="40.300217" lon="-4.819467">
        <ele>1799.0</ele>
        <time>2018-06-24T14:01:35Z</time>
      </trkpt>
      <trkpt lat="40.300183" lon="-4.819350">
        <ele>1799.0</ele>
        <time>2018-06-24T14:01:36Z</time>
      </trkpt>
      <trkpt lat="40.300150" lon="-4.819250">
        <ele>1799.0</ele>
        <time>2018-06-24T14:01:37Z</time>
      </trkpt>
      <trkpt lat="40.300100" lon="-4.819150">
        <ele>1799.0</ele>
        <time>2018-06-24T14:01:38Z</time>
      </trkpt>
      <trkpt lat="40.300033" lon="-4.819033">
        <ele>1799.0</ele>
        <time>2018-06-24T14:01:39Z</time>
      </trkpt>
      <trkpt lat="40.299983" lon="-4.818933">
        <ele>1799.0</ele>
        <time>2018-06-24T14:01:40Z</time>
      </trkpt>
      <trkpt lat="40.299933" lon="-4.818817">
        <ele>1799.0</ele>
        <time>2018-06-24T14:01:41Z</time>
      </trkpt>
      <trkpt lat="40.299883" lon="-4.818733">
        <ele>1798.0</ele>
        <time>2018-06-24T14:01:42Z</time>
      </trkpt>
      <trkpt lat="40.299833" lon="-4.818633">
        <ele>1796.0</ele>
        <time>2018-06-24T14:01:43Z</time>
      </trkpt>
      <trkpt lat="40.299783" lon="-4.818533">
        <ele>1794.0</ele>
        <time>2018-06-24T14:01:44Z</time>
      </trkpt>
      <trkpt lat="40.299750" lon="-4.818417">
        <ele>1793.0</ele>
        <time>2018-06-24T14:01:45Z</time>
      </trkpt>
      <trkpt lat="40.299700" lon="-4.818283">
        <ele>1792.0</ele>
        <time>2018-06-24T14:01:46Z</time>
      </trkpt>
      <trkpt lat="40.299650" lon="-4.818167">
        <ele>1791.0</ele>
        <time>2018-06-24T14:01:47Z</time>
      </trkpt>
      <trkpt lat="40.299600" lon="-4.818050">
        <ele>1791.0</ele>
        <time>2018-06-24T14:01:48Z</time>
      </trkpt>
      <trkpt lat="40.299567" lon="-4.817933">
        <ele>1790.0</ele>
        <time>2018-06-24T14:01:49Z</time>
      </trkpt>
      <trkpt lat="40.299550" lon="-4.817817">
        <ele>1789.0</ele>
        <time>2018-06-24T14:01:50Z</time>
      </trkpt>
      <trkpt lat="40.299517" lon="-4.817700">
        <ele>1787.0</ele>
        <time>2018-06-24T14:01:51Z</time>
      </trkpt>
      <trkpt lat="40.299500" lon="-4.817583">
        <ele>1784.0</ele>
        <time>2018-06-24T14:01:52Z</time>
      </trkpt>
      <trkpt lat="40.299467" lon="-4.817450">
        <ele>1782.0</ele>
        <time>2018-06-24T14:01:53Z</time>
      </trkpt>
      <trkpt lat="40.299417" lon="-4.817333">
        <ele>1780.0</ele>
        <time>2018-06-24T14:01:54Z</time>
      </trkpt>
      <trkpt lat="40.299350" lon="-4.817233">
        <ele>1779.0</ele>
        <time>2018-06-24T14:01:55Z</time>
      </trkpt>
      <trkpt lat="40.299300" lon="-4.817133">
        <ele>1778.0</ele>
        <time>2018-06-24T14:01:56Z</time>
      </trkpt>
      <trkpt lat="40.299233" lon="-4.817033">
        <ele>1778.0</ele>
        <time>2018-06-24T14:01:57Z</time>
      </trkpt>
      <trkpt lat="40.299183" lon="-4.816950">
        <ele>1777.0</ele>
        <time>2018-06-24T14:01:58Z</time>
      </trkpt>
      <trkpt lat="40.299133" lon="-4.816850">
        <ele>1776.0</ele>
        <time>2018-06-24T14:01:59Z</time>
      </trkpt>
      <trkpt lat="40.299067" lon="-4.816750">
        <ele>1774.0</ele>
        <time>2018-06-24T14:02:00Z</time>
      </trkpt>
      <trkpt lat="40.299000" lon="-4.816667">
        <ele>1773.0</ele>
        <time>2018-06-24T14:02:01Z</time>
      </trkpt>
      <trkpt lat="40.298950" lon="-4.816567">
        <ele>1772.0</ele>
        <time>2018-06-24T14:02:02Z</time>
      </trkpt>
      <trkpt lat="40.298917" lon="-4.816450">
        <ele>1770.0</ele>
        <time>2018-06-24T14:02:03Z</time>
      </trkpt>
      <trkpt lat="40.298900" lon="-4.816350">
        <ele>1767.0</ele>
        <time>2018-06-24T14:02:04Z</time>
      </trkpt>
      <trkpt lat="40.298883" lon="-4.816217">
        <ele>1764.0</ele>
        <time>2018-06-24T14:02:05Z</time>
      </trkpt>
      <trkpt lat="40.298850" lon="-4.816100">
        <ele>1760.0</ele>
        <time>2018-06-24T14:02:06Z</time>
      </trkpt>
      <trkpt lat="40.298833" lon="-4.815967">
        <ele>1758.0</ele>
        <time>2018-06-24T14:02:07Z</time>
      </trkpt>
      <trkpt lat="40.298817" lon="-4.815833">
        <ele>1756.0</ele>
        <time>2018-06-24T14:02:08Z</time>
      </trkpt>
      <trkpt lat="40.298800" lon="-4.815700">
        <ele>1755.0</ele>
        <time>2018-06-24T14:02:09Z</time>
      </trkpt>
      <trkpt lat="40.298783" lon="-4.815583">
        <ele>1752.0</ele>
        <time>2018-06-24T14:02:10Z</time>
      </trkpt>
      <trkpt lat="40.298783" lon="-4.815467">
        <ele>1750.0</ele>
        <time>2018-06-24T14:02:11Z</time>
      </trkpt>
      <trkpt lat="40.298783" lon="-4.815333">
        <ele>1747.0</ele>
        <time>2018-06-24T14:02:12Z</time>
      </trkpt>
      <trkpt lat="40.298767" lon="-4.815183">
        <ele>1745.0</ele>
        <time>2018-06-24T14:02:13Z</time>
      </trkpt>
      <trkpt lat="40.298750" lon="-4.815033">
        <ele>1745.0</ele>
        <time>2018-06-24T14:02:14Z</time>
      </trkpt>
      <trkpt lat="40.298717" lon="-4.814917">
        <ele>1746.0</ele>
        <time>2018-06-24T14:02:15Z</time>
      </trkpt>
      <trkpt lat="40.298683" lon="-4.814800">
        <ele>1747.0</ele>
        <time>2018-06-24T14:02:16Z</time>
      </trkpt>
      <trkpt lat="40.298667" lon="-4.814717">
        <ele>1748.0</ele>
        <time>2018-06-24T14:02:17Z</time>
      </trkpt>
      <trkpt lat="40.298633" lon="-4.814617">
        <ele>1747.0</ele>
        <time>2018-06-24T14:02:18Z</time>
      </trkpt>
      <trkpt lat="40.298633" lon="-4.814517">
        <ele>1746.0</ele>
        <time>2018-06-24T14:02:19Z</time>
      </trkpt>
      <trkpt lat="40.298617" lon="-4.814400">
        <ele>1745.0</ele>
        <time>2018-06-24T14:02:20Z</time>
      </trkpt>
      <trkpt lat="40.298600" lon="-4.814300">
        <ele>1745.0</ele>
        <time>2018-06-24T14:02:21Z</time>
      </trkpt>
      <trkpt lat="40.298600" lon="-4.814183">
        <ele>1744.0</ele>
        <time>2018-06-24T14:02:22Z</time>
      </trkpt>
      <trkpt lat="40.298600" lon="-4.814067">
        <ele>1744.0</ele>
        <time>2018-06-24T14:02:23Z</time>
      </trkpt>
      <trkpt lat="40.298600" lon="-4.813950">
        <ele>1743.0</ele>
        <time>2018-06-24T14:02:24Z</time>
      </trkpt>
      <trkpt lat="40.298600" lon="-4.813833">
        <ele>1743.0</ele>
        <time>2018-06-24T14:02:25Z</time>
      </trkpt>
      <trkpt lat="40.298600" lon="-4.813717">
        <ele>1743.0</ele>
        <time>2018-06-24T14:02:26Z</time>
      </trkpt>
      <trkpt lat="40.298617" lon="-4.813617">
        <ele>1742.0</ele>
        <time>2018-06-24T14:02:27Z</time>
      </trkpt>
      <trkpt lat="40.298650" lon="-4.813500">
        <ele>1742.0</ele>
        <time>2018-06-24T14:02:28Z</time>
      </trkpt>
      <trkpt lat="40.298700" lon="-4.813400">
        <ele>1741.0</ele>
        <time>2018-06-24T14:02:29Z</time>
      </trkpt>
      <trkpt lat="40.298767" lon="-4.813300">
        <ele>1740.0</ele>
        <time>2018-06-24T14:02:30Z</time>
      </trkpt>
      <trkpt lat="40.298850" lon="-4.813183">
        <ele>1738.0</ele>
        <time>2018-06-24T14:02:31Z</time>
      </trkpt>
      <trkpt lat="40.298883" lon="-4.813117">
        <ele>1736.0</ele>
        <time>2018-06-24T14:02:32Z</time>
      </trkpt>
      <trkpt lat="40.298950" lon="-4.813033">
        <ele>1734.0</ele>
        <time>2018-06-24T14:02:33Z</time>
      </trkpt>
      <trkpt lat="40.299017" lon="-4.812933">
        <ele>1732.0</ele>
        <time>2018-06-24T14:02:34Z</time>
      </trkpt>
      <trkpt lat="40.299067" lon="-4.812833">
        <ele>1729.0</ele>
        <time>2018-06-24T14:02:35Z</time>
      </trkpt>
      <trkpt lat="40.299100" lon="-4.812717">
        <ele>1727.0</ele>
        <time>2018-06-24T14:02:36Z</time>
      </trkpt>
      <trkpt lat="40.299133" lon="-4.812600">
        <ele>1725.0</ele>
        <time>2018-06-24T14:02:37Z</time>
      </trkpt>
      <trkpt lat="40.299150" lon="-4.812483">
        <ele>1724.0</ele>
        <time>2018-06-24T14:02:38Z</time>
      </trkpt>
      <trkpt lat="40.299150" lon="-4.812367">
        <ele>1723.0</ele>
        <time>2018-06-24T14:02:39Z</time>
      </trkpt>
      <trkpt lat="40.299150" lon="-4.812267">
        <ele>1722.0</ele>
        <time>2018-06-24T14:02:40Z</time>
      </trkpt>
      <trkpt lat="40.299167" lon="-4.812167">
        <ele>1721.0</ele>
        <time>2018-06-24T14:02:41Z</time>
      </trkpt>
      <trkpt lat="40.299167" lon="-4.812050">
        <ele>1719.0</ele>
        <time>2018-06-24T14:02:42Z</time>
      </trkpt>
      <trkpt lat="40.299150" lon="-4.811933">
        <ele>1717.0</ele>
        <time>2018-06-24T14:02:43Z</time>
      </trkpt>
      <trkpt lat="40.299150" lon="-4.811817">
        <ele>1715.0</ele>
        <time>2018-06-24T14:02:44Z</time>
      </trkpt>
      <trkpt lat="40.299150" lon="-4.811683">
        <ele>1713.0</ele>
        <time>2018-06-24T14:02:45Z</time>
      </trkpt>
      <trkpt lat="40.299167" lon="-4.811567">
        <ele>1712.0</ele>
        <time>2018-06-24T14:02:46Z</time>
      </trkpt>
      <trkpt lat="40.299217" lon="-4.811450">
        <ele>1711.0</ele>
        <time>2018-06-24T14:02:47Z</time>
      </trkpt>
      <trkpt lat="40.299267" lon="-4.811367">
        <ele>1710.0</ele>
        <time>2018-06-24T14:02:48Z</time>
      </trkpt>
      <trkpt lat="40.299350" lon="-4.811300">
        <ele>1709.0</ele>
        <time>2018-06-24T14:02:49Z</time>
      </trkpt>
      <trkpt lat="40.299417" lon="-4.811267">
        <ele>1708.0</ele>
        <time>2018-06-24T14:02:50Z</time>
      </trkpt>
      <trkpt lat="40.299500" lon="-4.811250">
        <ele>1706.0</ele>
        <time>2018-06-24T14:02:51Z</time>
      </trkpt>
      <trkpt lat="40.299600" lon="-4.811267">
        <ele>1703.0</ele>
        <time>2018-06-24T14:02:52Z</time>
      </trkpt>
      <trkpt lat="40.299700" lon="-4.811283">
        <ele>1700.0</ele>
        <time>2018-06-24T14:02:53Z</time>
      </trkpt>
      <trkpt lat="40.299800" lon="-4.811333">
        <ele>1698.0</ele>
        <time>2018-06-24T14:02:54Z</time>
      </trkpt>
      <trkpt lat="40.299900" lon="-4.811400">
        <ele>1696.0</ele>
        <time>2018-06-24T14:02:55Z</time>
      </trkpt>
      <trkpt lat="40.299983" lon="-4.811467">
        <ele>1695.0</ele>
        <time>2018-06-24T14:02:56Z</time>
      </trkpt>
      <trkpt lat="40.300067" lon="-4.811550">
        <ele>1694.0</ele>
        <time>2018-06-24T14:02:57Z</time>
      </trkpt>
      <trkpt lat="40.300133" lon="-4.811617">
        <ele>1692.0</ele>
        <time>2018-06-24T14:02:58Z</time>
      </trkpt>
      <trkpt lat="40.300217" lon="-4.811683">
        <ele>1691.0</ele>
        <time>2018-06-24T14:02:59Z</time>
      </trkpt>
      <trkpt lat="40.300300" lon="-4.811767">
        <ele>1689.0</ele>
        <time>2018-06-24T14:03:00Z</time>
      </trkpt>
      <trkpt lat="40.300400" lon="-4.811833">
        <ele>1687.0</ele>
        <time>2018-06-24T14:03:01Z</time>
      </trkpt>
      <trkpt lat="40.300483" lon="-4.811883">
        <ele>1686.0</ele>
        <time>2018-06-24T14:03:02Z</time>
      </trkpt>
      <trkpt lat="40.300583" lon="-4.811933">
        <ele>1684.0</ele>
        <time>2018-06-24T14:03:03Z</time>
      </trkpt>
      <trkpt lat="40.300683" lon="-4.811983">
        <ele>1682.0</ele>
        <time>2018-06-24T14:03:04Z</time>
      </trkpt>
      <trkpt lat="40.300783" lon="-4.812017">
        <ele>1680.0</ele>
        <time>2018-06-24T14:03:05Z</time>
      </trkpt>
      <trkpt lat="40.300883" lon="-4.812033">
        <ele>1678.0</ele>
        <time>2018-06-24T14:03:06Z</time>
      </trkpt>
      <trkpt lat="40.300983" lon="-4.812033">
        <ele>1676.0</ele>
        <time>2018-06-24T14:03:07Z</time>
      </trkpt>
      <trkpt lat="40.301083" lon="-4.812033">
        <ele>1674.0</ele>
        <time>2018-06-24T14:03:08Z</time>
      </trkpt>
      <trkpt lat="40.301183" lon="-4.812017">
        <ele>1672.0</ele>
        <time>2018-06-24T14:03:09Z</time>
      </trkpt>
      <trkpt lat="40.301300" lon="-4.812000">
        <ele>1670.0</ele>
        <time>2018-06-24T14:03:10Z</time>
      </trkpt>
      <trkpt lat="40.301400" lon="-4.812000">
        <ele>1669.0</ele>
        <time>2018-06-24T14:03:11Z</time>
      </trkpt>
      <trkpt lat="40.301500" lon="-4.812017">
        <ele>1667.0</ele>
        <time>2018-06-24T14:03:12Z</time>
      </trkpt>
      <trkpt lat="40.301600" lon="-4.812017">
        <ele>1666.0</ele>
        <time>2018-06-24T14:03:13Z</time>
      </trkpt>
      <trkpt lat="40.301700" lon="-4.812033">
        <ele>1664.0</ele>
        <time>2018-06-24T14:03:14Z</time>
      </trkpt>
      <trkpt lat="40.301800" lon="-4.812067">
        <ele>1662.0</ele>
        <time>2018-06-24T14:03:15Z</time>
      </trkpt>
      <trkpt lat="40.301900" lon="-4.812133">
        <ele>1660.0</ele>
        <time>2018-06-24T14:03:16Z</time>
      </trkpt>
      <trkpt lat="40.302000" lon="-4.812217">
        <ele>1657.0</ele>
        <time>2018-06-24T14:03:17Z</time>
      </trkpt>
      <trkpt lat="40.302100" lon="-4.812317">
        <ele>1654.0</ele>
        <time>2018-06-24T14:03:18Z</time>
      </trkpt>
      <trkpt lat="40.302183" lon="-4.812417">
        <ele>1653.0</ele>
        <time>2018-06-24T14:03:19Z</time>
      </trkpt>
      <trkpt lat="40.302283" lon="-4.812517">
        <ele>1651.0</ele>
        <time>2018-06-24T14:03:20Z</time>
      </trkpt>
      <trkpt lat="40.302367" lon="-4.812633">
        <ele>1649.0</ele>
        <time>2018-06-24T14:03:21Z</time>
      </trkpt>
      <trkpt lat="40.302467" lon="-4.812733">
        <ele>1646.0</ele>
        <time>2018-06-24T14:03:22Z</time>
      </trkpt>
      <trkpt lat="40.302550" lon="-4.812850">
        <ele>1644.0</ele>
        <time>2018-06-24T14:03:23Z</time>
      </trkpt>
      <trkpt lat="40.302650" lon="-4.812950">
        <ele>1641.0</ele>
        <time>2018-06-24T14:03:24Z</time>
      </trkpt>
      <trkpt lat="40.302733" lon="-4.813083">
        <ele>1639.0</ele>
        <time>2018-06-24T14:03:25Z</time>
      </trkpt>
      <trkpt lat="40.302817" lon="-4.813217">
        <ele>1638.0</ele>
        <time>2018-06-24T14:03:26Z</time>
      </trkpt>
      <trkpt lat="40.302883" lon="-4.813350">
        <ele>1637.0</ele>
        <time>2018-06-24T14:03:27Z</time>
      </trkpt>
      <trkpt lat="40.302950" lon="-4.813467">
        <ele>1636.0</ele>
        <time>2018-06-24T14:03:28Z</time>
      </trkpt>
      <trkpt lat="40.303017" lon="-4.813617">
        <ele>1635.0</ele>
        <time>2018-06-24T14:03:29Z</time>
      </trkpt>
      <trkpt lat="40.303067" lon="-4.813750">
        <ele>1634.0</ele>
        <time>2018-06-24T14:03:30Z</time>
      </trkpt>
      <trkpt lat="40.303133" lon="-4.813867">
        <ele>1633.0</ele>
        <time>2018-06-24T14:03:31Z</time>
      </trkpt>
      <trkpt lat="40.303200" lon="-4.814000">
        <ele>1631.0</ele>
        <time>2018-06-24T14:03:32Z</time>
      </trkpt>
      <trkpt lat="40.303283" lon="-4.814100">
        <ele>1629.0</ele>
        <time>2018-06-24T14:03:33Z</time>
      </trkpt>
      <trkpt lat="40.303383" lon="-4.814200">
        <ele>1627.0</ele>
        <time>2018-06-24T14:03:34Z</time>
      </trkpt>
      <trkpt lat="40.303467" lon="-4.814300">
        <ele>1625.0</ele>
        <time>2018-06-24T14:03:35Z</time>
      </trkpt>
      <trkpt lat="40.303583" lon="-4.814367">
        <ele>1623.0</ele>
        <time>2018-06-24T14:03:36Z</time>
      </trkpt>
      <trkpt lat="40.303683" lon="-4.814450">
        <ele>1621.0</ele>
        <time>2018-06-24T14:03:37Z</time>
      </trkpt>
      <trkpt lat="40.303783" lon="-4.814517">
        <ele>1620.0</ele>
        <time>2018-06-24T14:03:38Z</time>
      </trkpt>
      <trkpt lat="40.303900" lon="-4.814600">
        <ele>1619.0</ele>
        <time>2018-06-24T14:03:39Z</time>
      </trkpt>
      <trkpt lat="40.304000" lon="-4.814683">
        <ele>1618.0</ele>
        <time>2018-06-24T14:03:40Z</time>
      </trkpt>
      <trkpt lat="40.304100" lon="-4.814750">
        <ele>1617.0</ele>
        <time>2018-06-24T14:03:41Z</time>
      </trkpt>
      <trkpt lat="40.304200" lon="-4.814817">
        <ele>1617.0</ele>
        <time>2018-06-24T14:03:42Z</time>
      </trkpt>
      <trkpt lat="40.304317" lon="-4.814867">
        <ele>1615.0</ele>
        <time>2018-06-24T14:03:43Z</time>
      </trkpt>
      <trkpt lat="40.304433" lon="-4.814917">
        <ele>1614.0</ele>
        <time>2018-06-24T14:03:44Z</time>
      </trkpt>
      <trkpt lat="40.304567" lon="-4.814950">
        <ele>1614.0</ele>
        <time>2018-06-24T14:03:45Z</time>
      </trkpt>
      <trkpt lat="40.304683" lon="-4.814950">
        <ele>1615.0</ele>
        <time>2018-06-24T14:03:46Z</time>
      </trkpt>
      <trkpt lat="40.304817" lon="-4.814933">
        <ele>1616.0</ele>
        <time>2018-06-24T14:03:47Z</time>
      </trkpt>
      <trkpt lat="40.304950" lon="-4.814933">
        <ele>1618.0</ele>
        <time>2018-06-24T14:03:48Z</time>
      </trkpt>
      <trkpt lat="40.305050" lon="-4.814933">
        <ele>1621.0</ele>
        <time>2018-06-24T14:03:49Z</time>
      </trkpt>
      <trkpt lat="40.305150" lon="-4.814950">
        <ele>1623.0</ele>
        <time>2018-06-24T14:03:50Z</time>
      </trkpt>
      <trkpt lat="40.305250" lon="-4.814933">
        <ele>1624.0</ele>
        <time>2018-06-24T14:03:51Z</time>
      </trkpt>
      <trkpt lat="40.305333" lon="-4.814883">
        <ele>1623.0</ele>
        <time>2018-06-24T14:03:52Z</time>
      </trkpt>
      <trkpt lat="40.305400" lon="-4.814800">
        <ele>1622.0</ele>
        <time>2018-06-24T14:03:53Z</time>
      </trkpt>
      <trkpt lat="40.305450" lon="-4.814683">
        <ele>1620.0</ele>
        <time>2018-06-24T14:03:54Z</time>
      </trkpt>
      <trkpt lat="40.305450" lon="-4.814567">
        <ele>1618.0</ele>
        <time>2018-06-24T14:03:55Z</time>
      </trkpt>
      <trkpt lat="40.305400" lon="-4.814433">
        <ele>1617.0</ele>
        <time>2018-06-24T14:03:56Z</time>
      </trkpt>
      <trkpt lat="40.305350" lon="-4.814383">
        <ele>1616.0</ele>
        <time>2018-06-24T14:03:57Z</time>
      </trkpt>
      <trkpt lat="40.305267" lon="-4.814367">
        <ele>1616.0</ele>
        <time>2018-06-24T14:03:58Z</time>
      </trkpt>
      <trkpt lat="40.305183" lon="-4.814400">
        <ele>1617.0</ele>
        <time>2018-06-24T14:03:59Z</time>
      </trkpt>
      <trkpt lat="40.305117" lon="-4.814467">
        <ele>1617.0</ele>
        <time>2018-06-24T14:04:00Z</time>
      </trkpt>
      <trkpt lat="40.305050" lon="-4.814550">
        <ele>1618.0</ele>
        <time>2018-06-24T14:04:01Z</time>
      </trkpt>
      <trkpt lat="40.305000" lon="-4.814650">
        <ele>1618.0</ele>
        <time>2018-06-24T14:04:02Z</time>
      </trkpt>
      <trkpt lat="40.304967" lon="-4.814750">
        <ele>1617.0</ele>
        <time>2018-06-24T14:04:03Z</time>
      </trkpt>
      <trkpt lat="40.304933" lon="-4.814867">
        <ele>1616.0</ele>
        <time>2018-06-24T14:04:04Z</time>
      </trkpt>
      <trkpt lat="40.304917" lon="-4.814983">
        <ele>1615.0</ele>
        <time>2018-06-24T14:04:05Z</time>
      </trkpt>
      <trkpt lat="40.304900" lon="-4.815133">
        <ele>1614.0</ele>
        <time>2018-06-24T14:04:06Z</time>
      </trkpt>
      <trkpt lat="40.304900" lon="-4.815283">
        <ele>1613.0</ele>
        <time>2018-06-24T14:04:07Z</time>
      </trkpt>
      <trkpt lat="40.304933" lon="-4.815450">
        <ele>1613.0</ele>
        <time>2018-06-24T14:04:08Z</time>
      </trkpt>
      <trkpt lat="40.304983" lon="-4.815583">
        <ele>1615.0</ele>
        <time>2018-06-24T14:04:09Z</time>
      </trkpt>
      <trkpt lat="40.305050" lon="-4.815700">
        <ele>1617.0</ele>
        <time>2018-06-24T14:04:10Z</time>
      </trkpt>
      <trkpt lat="40.305117" lon="-4.815800">
        <ele>1618.0</ele>
        <time>2018-06-24T14:04:11Z</time>
      </trkpt>
      <trkpt lat="40.305183" lon="-4.815900">
        <ele>1619.0</ele>
        <time>2018-06-24T14:04:12Z</time>
      </trkpt>
      <trkpt lat="40.305267" lon="-4.815967">
        <ele>1619.0</ele>
        <time>2018-06-24T14:04:13Z</time>
      </trkpt>
      <trkpt lat="40.305350" lon="-4.816033">
        <ele>1618.0</ele>
        <time>2018-06-24T14:04:14Z</time>
      </trkpt>
      <trkpt lat="40.305467" lon="-4.816083">
        <ele>1616.0</ele>
        <time>2018-06-24T14:04:15Z</time>
      </trkpt>
      <trkpt lat="40.305600" lon="-4.816067">
        <ele>1614.0</ele>
        <time>2018-06-24T14:04:16Z</time>
      </trkpt>
      <trkpt lat="40.305733" lon="-4.816017">
        <ele>1612.0</ele>
        <time>2018-06-24T14:04:17Z</time>
      </trkpt>
      <trkpt lat="40.305850" lon="-4.815933">
        <ele>1612.0</ele>
        <time>2018-06-24T14:04:18Z</time>
      </trkpt>
      <trkpt lat="40.305950" lon="-4.815800">
        <ele>1613.0</ele>
        <time>2018-06-24T14:04:19Z</time>
      </trkpt>
      <trkpt lat="40.306017" lon="-4.815683">
        <ele>1614.0</ele>
        <time>2018-06-24T14:04:20Z</time>
      </trkpt>
      <trkpt lat="40.306067" lon="-4.815533">
        <ele>1615.0</ele>
        <time>2018-06-24T14:04:21Z</time>
      </trkpt>
      <trkpt lat="40.306117" lon="-4.815400">
        <ele>1617.0</ele>
        <time>2018-06-24T14:04:22Z</time>
      </trkpt>
      <trkpt lat="40.306133" lon="-4.815233">
        <ele>1618.0</ele>
        <time>2018-06-24T14:04:23Z</time>
      </trkpt>
      <trkpt lat="40.306150" lon="-4.815067">
        <ele>1620.0</ele>
        <time>2018-06-24T14:04:24Z</time>
      </trkpt>
      <trkpt lat="40.306167" lon="-4.814917">
        <ele>1622.0</ele>
        <time>2018-06-24T14:04:25Z</time>
      </trkpt>
      <trkpt lat="40.306183" lon="-4.814767">
        <ele>1625.0</ele>
        <time>2018-06-24T14:04:26Z</time>
      </trkpt>
      <trkpt lat="40.306200" lon="-4.814633">
        <ele>1628.0</ele>
        <time>2018-06-24T14:04:27Z</time>
      </trkpt>
      <trkpt lat="40.306233" lon="-4.814500">
        <ele>1631.0</ele>
        <time>2018-06-24T14:04:28Z</time>
      </trkpt>
      <trkpt lat="40.306300" lon="-4.814367">
        <ele>1633.0</ele>
        <time>2018-06-24T14:04:29Z</time>
      </trkpt>
      <trkpt lat="40.306383" lon="-4.814233">
        <ele>1635.0</ele>
        <time>2018-06-24T14:04:30Z</time>
      </trkpt>
      <trkpt lat="40.306483" lon="-4.814133">
        <ele>1637.0</ele>
        <time>2018-06-24T14:04:31Z</time>
      </trkpt>
      <trkpt lat="40.306617" lon="-4.814100">
        <ele>1640.0</ele>
        <time>2018-06-24T14:04:32Z</time>
      </trkpt>
      <trkpt lat="40.306733" lon="-4.814150">
        <ele>1639.0</ele>
        <time>2018-06-24T14:04:33Z</time>
      </trkpt>
      <trkpt lat="40.306833" lon="-4.814250">
        <ele>1638.0</ele>
        <time>2018-06-24T14:04:34Z</time>
      </trkpt>
      <trkpt lat="40.306883" lon="-4.814383">
        <ele>1637.0</ele>
        <time>2018-06-24T14:04:35Z</time>
      </trkpt>
      <trkpt lat="40.306867" lon="-4.814517">
        <ele>1637.0</ele>
        <time>2018-06-24T14:04:36Z</time>
      </trkpt>
      <trkpt lat="40.306800" lon="-4.814583">
        <ele>1639.0</ele>
        <time>2018-06-24T14:04:37Z</time>
      </trkpt>
      <trkpt lat="40.306733" lon="-4.814583">
        <ele>1641.0</ele>
        <time>2018-06-24T14:04:38Z</time>
      </trkpt>
      <trkpt lat="40.306667" lon="-4.814550">
        <ele>1644.0</ele>
        <time>2018-06-24T14:04:39Z</time>
      </trkpt>
      <trkpt lat="40.306617" lon="-4.814500">
        <ele>1647.0</ele>
        <time>2018-06-24T14:04:40Z</time>
      </trkpt>
      <trkpt lat="40.306583" lon="-4.814417">
        <ele>1649.0</ele>
        <time>2018-06-24T14:04:41Z</time>
      </trkpt>
      <trkpt lat="40.306550" lon="-4.814317">
        <ele>1651.0</ele>
        <time>2018-06-24T14:04:42Z</time>
      </trkpt>
      <trkpt lat="40.306533" lon="-4.814200">
        <ele>1652.0</ele>
        <time>2018-06-24T14:04:43Z</time>
      </trkpt>
      <trkpt lat="40.306517" lon="-4.814067">
        <ele>1654.0</ele>
        <time>2018-06-24T14:04:44Z</time>
      </trkpt>
      <trkpt lat="40.306500" lon="-4.813933">
        <ele>1656.0</ele>
        <time>2018-06-24T14:04:45Z</time>
      </trkpt>
      <trkpt lat="40.306517" lon="-4.813783">
        <ele>1659.0</ele>
        <time>2018-06-24T14:04:46Z</time>
      </trkpt>
      <trkpt lat="40.306533" lon="-4.813650">
        <ele>1663.0</ele>
        <time>2018-06-24T14:04:47Z</time>
      </trkpt>
      <trkpt lat="40.306567" lon="-4.813517">
        <ele>1666.0</ele>
        <time>2018-06-24T14:04:48Z</time>
      </trkpt>
      <trkpt lat="40.306600" lon="-4.813400">
        <ele>1670.0</ele>
        <time>2018-06-24T14:04:49Z</time>
      </trkpt>
      <trkpt lat="40.306650" lon="-4.813300">
        <ele>1673.0</ele>
        <time>2018-06-24T14:04:50Z</time>
      </trkpt>
      <trkpt lat="40.306733" lon="-4.813233">
        <ele>1674.0</ele>
        <time>2018-06-24T14:04:51Z</time>
      </trkpt>
      <trkpt lat="40.306833" lon="-4.813183">
        <ele>1674.0</ele>
        <time>2018-06-24T14:04:52Z</time>
      </trkpt>
      <trkpt lat="40.306967" lon="-4.813183">
        <ele>1673.0</ele>
        <time>2018-06-24T14:04:53Z</time>
      </trkpt>
      <trkpt lat="40.307083" lon="-4.813233">
        <ele>1673.0</ele>
        <time>2018-06-24T14:04:54Z</time>
      </trkpt>
      <trkpt lat="40.307200" lon="-4.813317">
        <ele>1674.0</ele>
        <time>2018-06-24T14:04:55Z</time>
      </trkpt>
      <trkpt lat="40.307300" lon="-4.813450">
        <ele>1676.0</ele>
        <time>2018-06-24T14:04:56Z</time>
      </trkpt>
      <trkpt lat="40.307367" lon="-4.813583">
        <ele>1679.0</ele>
        <time>2018-06-24T14:04:57Z</time>
      </trkpt>
      <trkpt lat="40.307400" lon="-4.813717">
        <ele>1680.0</ele>
        <time>2018-06-24T14:04:58Z</time>
      </trkpt>
      <trkpt lat="40.307383" lon="-4.813833">
        <ele>1681.0</ele>
        <time>2018-06-24T14:04:59Z</time>
      </trkpt>
      <trkpt lat="40.307333" lon="-4.813917">
        <ele>1680.0</ele>
        <time>2018-06-24T14:05:00Z</time>
      </trkpt>
      <trkpt lat="40.307250" lon="-4.813950">
        <ele>1681.0</ele>
        <time>2018-06-24T14:05:01Z</time>
      </trkpt>
      <trkpt lat="40.307167" lon="-4.813933">
        <ele>1684.0</ele>
        <time>2018-06-24T14:05:02Z</time>
      </trkpt>
      <trkpt lat="40.307083" lon="-4.813883">
        <ele>1687.0</ele>
        <time>2018-06-24T14:05:03Z</time>
      </trkpt>
      <trkpt lat="40.307033" lon="-4.813783">
        <ele>1690.0</ele>
        <time>2018-06-24T14:05:04Z</time>
      </trkpt>
      <trkpt lat="40.306983" lon="-4.813667">
        <ele>1693.0</ele>
        <time>2018-06-24T14:05:05Z</time>
      </trkpt>
      <trkpt lat="40.306967" lon="-4.813533">
        <ele>1696.0</ele>
        <time>2018-06-24T14:05:06Z</time>
      </trkpt>
      <trkpt lat="40.306983" lon="-4.813417">
        <ele>1699.0</ele>
        <time>2018-06-24T14:05:07Z</time>
      </trkpt>
      <trkpt lat="40.307017" lon="-4.813283">
        <ele>1701.0</ele>
        <time>2018-06-24T14:05:08Z</time>
      </trkpt>
      <trkpt lat="40.307083" lon="-4.813150">
        <ele>1703.0</ele>
        <time>2018-06-24T14:05:09Z</time>
      </trkpt>
      <trkpt lat="40.307183" lon="-4.813050">
        <ele>1704.0</ele>
        <time>2018-06-24T14:05:10Z</time>
      </trkpt>
      <trkpt lat="40.307300" lon="-4.813000">
        <ele>1705.0</ele>
        <time>2018-06-24T14:05:11Z</time>
      </trkpt>
      <trkpt lat="40.307433" lon="-4.813017">
        <ele>1706.0</ele>
        <time>2018-06-24T14:05:12Z</time>
      </trkpt>
      <trkpt lat="40.307550" lon="-4.813083">
        <ele>1706.0</ele>
        <time>2018-06-24T14:05:13Z</time>
      </trkpt>
      <trkpt lat="40.307633" lon="-4.813200">
        <ele>1707.0</ele>
        <time>2018-06-24T14:05:14Z</time>
      </trkpt>
      <trkpt lat="40.307700" lon="-4.813333">
        <ele>1709.0</ele>
        <time>2018-06-24T14:05:15Z</time>
      </trkpt>
      <trkpt lat="40.307733" lon="-4.813467">
        <ele>1711.0</ele>
        <time>2018-06-24T14:05:16Z</time>
      </trkpt>
      <trkpt lat="40.307717" lon="-4.813583">
        <ele>1713.0</ele>
        <time>2018-06-24T14:05:17Z</time>
      </trkpt>
      <trkpt lat="40.307683" lon="-4.813667">
        <ele>1715.0</ele>
        <time>2018-06-24T14:05:18Z</time>
      </trkpt>
      <trkpt lat="40.307633" lon="-4.813717">
        <ele>1716.0</ele>
        <time>2018-06-24T14:05:19Z</time>
      </trkpt>
      <trkpt lat="40.307550" lon="-4.813733">
        <ele>1718.0</ele>
        <time>2018-06-24T14:05:20Z</time>
      </trkpt>
      <trkpt lat="40.307483" lon="-4.813750">
        <ele>1719.0</ele>
        <time>2018-06-24T14:05:21Z</time>
      </trkpt>
      <trkpt lat="40.307400" lon="-4.813733">
        <ele>1722.0</ele>
        <time>2018-06-24T14:05:22Z</time>
      </trkpt>
      <trkpt lat="40.307333" lon="-4.813700">
        <ele>1725.0</ele>
        <time>2018-06-24T14:05:23Z</time>
      </trkpt>
      <trkpt lat="40.307267" lon="-4.813650">
        <ele>1728.0</ele>
        <time>2018-06-24T14:05:24Z</time>
      </trkpt>
      <trkpt lat="40.307217" lon="-4.813617">
        <ele>1731.0</ele>
        <time>2018-06-24T14:05:25Z</time>
      </trkpt>
      <trkpt lat="40.307150" lon="-4.813567">
        <ele>1733.0</ele>
        <time>2018-06-24T14:05:26Z</time>
      </trkpt>
      <trkpt lat="40.307100" lon="-4.813500">
        <ele>1735.0</ele>
        <time>2018-06-24T14:05:27Z</time>
      </trkpt>
      <trkpt lat="40.307067" lon="-4.813400">
        <ele>1737.0</ele>
        <time>2018-06-24T14:05:28Z</time>
      </trkpt>
      <trkpt lat="40.307067" lon="-4.813267">
        <ele>1738.0</ele>
        <time>2018-06-24T14:05:29Z</time>
      </trkpt>
      <trkpt lat="40.307100" lon="-4.813133">
        <ele>1739.0</ele>
        <time>2018-06-24T14:05:30Z</time>
      </trkpt>
      <trkpt lat="40.307183" lon="-4.813017">
        <ele>1740.0</ele>
        <time>2018-06-24T14:05:31Z</time>
      </trkpt>
      <trkpt lat="40.307300" lon="-4.812933">
        <ele>1742.0</ele>
        <time>2018-06-24T14:05:32Z</time>
      </trkpt>
      <trkpt lat="40.307433" lon="-4.812900">
        <ele>1744.0</ele>
        <time>2018-06-24T14:05:33Z</time>
      </trkpt>
      <trkpt lat="40.307550" lon="-4.812900">
        <ele>1747.0</ele>
        <time>2018-06-24T14:05:34Z</time>
      </trkpt>
      <trkpt lat="40.307650" lon="-4.812933">
        <ele>1748.0</ele>
        <time>2018-06-24T14:05:35Z</time>
      </trkpt>
      <trkpt lat="40.307750" lon="-4.813017">
        <ele>1749.0</ele>
        <time>2018-06-24T14:05:36Z</time>
      </trkpt>
      <trkpt lat="40.307800" lon="-4.813150">
        <ele>1749.0</ele>
        <time>2018-06-24T14:05:37Z</time>
      </trkpt>
      <trkpt lat="40.307833" lon="-4.813283">
        <ele>1749.0</ele>
        <time>2018-06-24T14:05:38Z</time>
      </trkpt>
      <trkpt lat="40.307850" lon="-4.813417">
        <ele>1750.0</ele>
        <time>2018-06-24T14:05:39Z</time>
      </trkpt>
      <trkpt lat="40.307817" lon="-4.813517">
        <ele>1752.0</ele>
        <time>2018-06-24T14:05:40Z</time>
      </trkpt>
      <trkpt lat="40.307733" lon="-4.813567">
        <ele>1754.0</ele>
        <time>2018-06-24T14:05:41Z</time>
      </trkpt>
      <trkpt lat="40.307650" lon="-4.813567">
        <ele>1756.0</ele>
        <time>2018-06-24T14:05:42Z</time>
      </trkpt>
      <trkpt lat="40.307550" lon="-4.813533">
        <ele>1757.0</ele>
        <time>2018-06-24T14:05:43Z</time>
      </trkpt>
      <trkpt lat="40.307483" lon="-4.813433">
        <ele>1760.0</ele>
        <time>2018-06-24T14:05:44Z</time>
      </trkpt>
      <trkpt lat="40.307433" lon="-4.813317">
        <ele>1762.0</ele>
        <time>2018-06-24T14:05:45Z</time>
      </trkpt>
      <trkpt lat="40.307417" lon="-4.813183">
        <ele>1766.0</ele>
        <time>2018-06-24T14:05:46Z</time>
      </trkpt>
      <trkpt lat="40.307467" lon="-4.813050">
        <ele>1768.0</ele>
        <time>2018-06-24T14:05:47Z</time>
      </trkpt>
      <trkpt lat="40.307550" lon="-4.812933">
        <ele>1769.0</ele>
        <time>2018-06-24T14:05:48Z</time>
      </trkpt>
      <trkpt lat="40.307650" lon="-4.812850">
        <ele>1771.0</ele>
        <time>2018-06-24T14:05:49Z</time>
      </trkpt>
      <trkpt lat="40.307750" lon="-4.812800">
        <ele>1773.0</ele>
        <time>2018-06-24T14:05:50Z</time>
      </trkpt>
      <trkpt lat="40.307867" lon="-4.812800">
        <ele>1775.0</ele>
        <time>2018-06-24T14:05:51Z</time>
      </trkpt>
      <trkpt lat="40.308000" lon="-4.812833">
        <ele>1776.0</ele>
        <time>2018-06-24T14:05:52Z</time>
      </trkpt>
      <trkpt lat="40.308100" lon="-4.812917">
        <ele>1776.0</ele>
        <time>2018-06-24T14:05:53Z</time>
      </trkpt>
      <trkpt lat="40.308183" lon="-4.813033">
        <ele>1776.0</ele>
        <time>2018-06-24T14:05:54Z</time>
      </trkpt>
      <trkpt lat="40.308217" lon="-4.813183">
        <ele>1776.0</ele>
        <time>2018-06-24T14:05:55Z</time>
      </trkpt>
      <trkpt lat="40.308200" lon="-4.813317">
        <ele>1776.0</ele>
        <time>2018-06-24T14:05:56Z</time>
      </trkpt>
      <trkpt lat="40.308150" lon="-4.813433">
        <ele>1778.0</ele>
        <time>2018-06-24T14:05:57Z</time>
      </trkpt>
      <trkpt lat="40.308067" lon="-4.813467">
        <ele>1781.0</ele>
        <time>2018-06-24T14:05:58Z</time>
      </trkpt>
      <trkpt lat="40.307983" lon="-4.813467">
        <ele>1784.0</ele>
        <time>2018-06-24T14:05:59Z</time>
      </trkpt>
      <trkpt lat="40.307917" lon="-4.813417">
        <ele>1786.0</ele>
        <time>2018-06-24T14:06:00Z</time>
      </trkpt>
      <trkpt lat="40.307850" lon="-4.813333">
        <ele>1789.0</ele>
        <time>2018-06-24T14:06:01Z</time>
      </trkpt>
      <trkpt lat="40.307783" lon="-4.813233">
        <ele>1791.0</ele>
        <time>2018-06-24T14:06:02Z</time>
      </trkpt>
      <trkpt lat="40.307750" lon="-4.813117">
        <ele>1792.0</ele>
        <time>2018-06-24T14:06:03Z</time>
      </trkpt>
      <trkpt lat="40.307750" lon="-4.812950">
        <ele>1794.0</ele>
        <time>2018-06-24T14:06:04Z</time>
      </trkpt>
      <trkpt lat="40.307800" lon="-4.812800">
        <ele>1796.0</ele>
        <time>2018-06-24T14:06:05Z</time>
      </trkpt>
      <trkpt lat="40.307883" lon="-4.812683">
        <ele>1798.0</ele>
        <time>2018-06-24T14:06:06Z</time>
      </trkpt>
      <trkpt lat="40.308017" lon="-4.812633">
        <ele>1801.0</ele>
        <time>2018-06-24T14:06:07Z</time>
      </trkpt>
      <trkpt lat="40.308133" lon="-4.812650">
        <ele>1802.0</ele>
        <time>2018-06-24T14:06:08Z</time>
      </trkpt>
      <trkpt lat="40.308233" lon="-4.812717">
        <ele>1803.0</ele>
        <time>2018-06-24T14:06:09Z</time>
      </trkpt>
      <trkpt lat="40.308317" lon="-4.812817">
        <ele>1803.0</ele>
        <time>2018-06-24T14:06:10Z</time>
      </trkpt>
      <trkpt lat="40.308367" lon="-4.812950">
        <ele>1803.0</ele>
        <time>2018-06-24T14:06:11Z</time>
      </trkpt>
      <trkpt lat="40.308383" lon="-4.813100">
        <ele>1803.0</ele>
        <time>2018-06-24T14:06:12Z</time>
      </trkpt>
      <trkpt lat="40.308350" lon="-4.813217">
        <ele>1804.0</ele>
        <time>2018-06-24T14:06:13Z</time>
      </trkpt>
      <trkpt lat="40.308283" lon="-4.813300">
        <ele>1805.0</ele>
        <time>2018-06-24T14:06:14Z</time>
      </trkpt>
      <trkpt lat="40.308183" lon="-4.813317">
        <ele>1807.0</ele>
        <time>2018-06-24T14:06:15Z</time>
      </trkpt>
      <trkpt lat="40.308083" lon="-4.813283">
        <ele>1810.0</ele>
        <time>2018-06-24T14:06:16Z</time>
      </trkpt>
      <trkpt lat="40.308000" lon="-4.813183">
        <ele>1814.0</ele>
        <time>2018-06-24T14:06:17Z</time>
      </trkpt>
      <trkpt lat="40.307967" lon="-4.813067">
        <ele>1818.0</ele>
        <time>2018-06-24T14:06:18Z</time>
      </trkpt>
      <trkpt lat="40.307950" lon="-4.812950">
        <ele>1823.0</ele>
        <time>2018-06-24T14:06:19Z</time>
      </trkpt>
      <trkpt lat="40.307933" lon="-4.812817">
        <ele>1826.0</ele>
        <time>2018-06-24T14:06:20Z</time>
      </trkpt>
      <trkpt lat="40.307933" lon="-4.812717">
        <ele>1829.0</ele>
        <time>2018-06-24T14:06:21Z</time>
      </trkpt>
      <trkpt lat="40.307967" lon="-4.812600">
        <ele>1831.0</ele>
        <time>2018-06-24T14:06:22Z</time>
      </trkpt>
      <trkpt lat="40.308033" lon="-4.812517">
        <ele>1832.0</ele>
        <time>2018-06-24T14:06:23Z</time>
      </trkpt>
      <trkpt lat="40.308133" lon="-4.812450">
        <ele>1832.0</ele>
        <time>2018-06-24T14:06:24Z</time>
      </trkpt>
      <trkpt lat="40.308267" lon="-4.812450">
        <ele>1831.0</ele>
        <time>2018-06-24T14:06:25Z</time>
      </trkpt>
      <trkpt lat="40.308433" lon="-4.812550">
        <ele>1831.0</ele>
        <time>2018-06-24T14:06:26Z</time>
      </trkpt>
      <trkpt lat="40.308500" lon="-4.812650">
        <ele>1832.0</ele>
        <time>2018-06-24T14:06:27Z</time>
      </trkpt>
      <trkpt lat="40.308517" lon="-4.812800">
        <ele>1833.0</ele>
        <time>2018-06-24T14:06:28Z</time>
      </trkpt>
      <trkpt lat="40.308467" lon="-4.812933">
        <ele>1833.0</ele>
        <time>2018-06-24T14:06:29Z</time>
      </trkpt>
      <trkpt lat="40.308383" lon="-4.812983">
        <ele>1834.0</ele>
        <time>2018-06-24T14:06:30Z</time>
      </trkpt>
      <trkpt lat="40.308283" lon="-4.812967">
        <ele>1836.0</ele>
        <time>2018-06-24T14:06:31Z</time>
      </trkpt>
      <trkpt lat="40.308200" lon="-4.812900">
        <ele>1839.0</ele>
        <time>2018-06-24T14:06:32Z</time>
      </trkpt>
      <trkpt lat="40.308133" lon="-4.812800">
        <ele>1842.0</ele>
        <time>2018-06-24T14:06:33Z</time>
      </trkpt>
      <trkpt lat="40.308083" lon="-4.812717">
        <ele>1845.0</ele>
        <time>2018-06-24T14:06:34Z</time>
      </trkpt>
      <trkpt lat="40.308033" lon="-4.812617">
        <ele>1848.0</ele>
        <time>2018-06-24T14:06:35Z</time>
      </trkpt>
      <trkpt lat="40.308000" lon="-4.812500">
        <ele>1852.0</ele>
        <time>2018-06-24T14:06:36Z</time>
      </trkpt>
      <trkpt lat="40.307967" lon="-4.812383">
        <ele>1855.0</ele>
        <time>2018-06-24T14:06:37Z</time>
      </trkpt>
      <trkpt lat="40.307950" lon="-4.812250">
        <ele>1857.0</ele>
        <time>2018-06-24T14:06:38Z</time>
      </trkpt>
      <trkpt lat="40.307967" lon="-4.812100">
        <ele>1860.0</ele>
        <time>2018-06-24T14:06:39Z</time>
      </trkpt>
      <trkpt lat="40.308017" lon="-4.811967">
        <ele>1864.0</ele>
        <time>2018-06-24T14:06:40Z</time>
      </trkpt>
      <trkpt lat="40.308067" lon="-4.811833">
        <ele>1869.0</ele>
        <time>2018-06-24T14:06:41Z</time>
      </trkpt>
      <trkpt lat="40.308117" lon="-4.811733">
        <ele>1874.0</ele>
        <time>2018-06-24T14:06:42Z</time>
      </trkpt>
      <trkpt lat="40.308167" lon="-4.811650">
        <ele>1879.0</ele>
        <time>2018-06-24T14:06:43Z</time>
      </trkpt>
      <trkpt lat="40.308250" lon="-4.811567">
        <ele>1881.0</ele>
        <time>2018-06-24T14:06:44Z</time>
      </trkpt>
      <trkpt lat="40.308333" lon="-4.811517">
        <ele>1882.0</ele>
        <time>2018-06-24T14:06:45Z</time>
      </trkpt>
      <trkpt lat="40.308467" lon="-4.811483">
        <ele>1882.0</ele>
        <time>2018-06-24T14:06:46Z</time>
      </trkpt>
      <trkpt lat="40.308617" lon="-4.811517">
        <ele>1882.0</ele>
        <time>2018-06-24T14:06:47Z</time>
      </trkpt>
      <trkpt lat="40.308733" lon="-4.811633">
        <ele>1882.0</ele>
        <time>2018-06-24T14:06:48Z</time>
      </trkpt>
      <trkpt lat="40.308800" lon="-4.811783">
        <ele>1884.0</ele>
        <time>2018-06-24T14:06:49Z</time>
      </trkpt>
      <trkpt lat="40.308800" lon="-4.811933">
        <ele>1886.0</ele>
        <time>2018-06-24T14:06:50Z</time>
      </trkpt>
      <trkpt lat="40.308733" lon="-4.812033">
        <ele>1887.0</ele>
        <time>2018-06-24T14:06:51Z</time>
      </trkpt>
      <trkpt lat="40.308667" lon="-4.812067">
        <ele>1887.0</ele>
        <time>2018-06-24T14:06:52Z</time>
      </trkpt>
      <trkpt lat="40.308567" lon="-4.812067">
        <ele>1890.0</ele>
        <time>2018-06-24T14:06:53Z</time>
      </trkpt>
      <trkpt lat="40.308500" lon="-4.812033">
        <ele>1893.0</ele>
        <time>2018-06-24T14:06:54Z</time>
      </trkpt>
      <trkpt lat="40.308433" lon="-4.812000">
        <ele>1897.0</ele>
        <time>2018-06-24T14:06:55Z</time>
      </trkpt>
      <trkpt lat="40.308367" lon="-4.811967">
        <ele>1900.0</ele>
        <time>2018-06-24T14:06:56Z</time>
      </trkpt>
      <trkpt lat="40.308300" lon="-4.811917">
        <ele>1902.0</ele>
        <time>2018-06-24T14:06:57Z</time>
      </trkpt>
      <trkpt lat="40.308250" lon="-4.811833">
        <ele>1904.0</ele>
        <time>2018-06-24T14:06:58Z</time>
      </trkpt>
      <trkpt lat="40.308183" lon="-4.811717">
        <ele>1905.0</ele>
        <time>2018-06-24T14:06:59Z</time>
      </trkpt>
      <trkpt lat="40.308150" lon="-4.811567">
        <ele>1908.0</ele>
        <time>2018-06-24T14:07:00Z</time>
      </trkpt>
      <trkpt lat="40.308117" lon="-4.811400">
        <ele>1911.0</ele>
        <time>2018-06-24T14:07:01Z</time>
      </trkpt>
      <trkpt lat="40.308133" lon="-4.811233">
        <ele>1916.0</ele>
        <time>2018-06-24T14:07:02Z</time>
      </trkpt>
      <trkpt lat="40.308150" lon="-4.811100">
        <ele>1923.0</ele>
        <time>2018-06-24T14:07:03Z</time>
      </trkpt>
      <trkpt lat="40.308167" lon="-4.810983">
        <ele>1928.0</ele>
        <time>2018-06-24T14:07:04Z</time>
      </trkpt>
      <trkpt lat="40.308200" lon="-4.810883">
        <ele>1932.0</ele>
        <time>2018-06-24T14:07:05Z</time>
      </trkpt>
      <trkpt lat="40.308233" lon="-4.810767">
        <ele>1935.0</ele>
        <time>2018-06-24T14:07:06Z</time>
      </trkpt>
      <trkpt lat="40.308267" lon="-4.810650">
        <ele>1936.0</ele>
        <time>2018-06-24T14:07:07Z</time>
      </trkpt>
      <trkpt lat="40.308350" lon="-4.810533">
        <ele>1936.0</ele>
        <time>2018-06-24T14:07:08Z</time>
      </trkpt>
      <trkpt lat="40.308467" lon="-4.810467">
        <ele>1936.0</ele>
        <time>2018-06-24T14:07:09Z</time>
      </trkpt>
      <trkpt lat="40.308600" lon="-4.810450">
        <ele>1936.0</ele>
        <time>2018-06-24T14:07:10Z</time>
      </trkpt>
      <trkpt lat="40.308717" lon="-4.810500">
        <ele>1937.0</ele>
        <time>2018-06-24T14:07:11Z</time>
      </trkpt>
      <trkpt lat="40.308800" lon="-4.810633">
        <ele>1940.0</ele>
        <time>2018-06-24T14:07:12Z</time>
      </trkpt>
      <trkpt lat="40.308833" lon="-4.810767">
        <ele>1943.0</ele>
        <time>2018-06-24T14:07:13Z</time>
      </trkpt>
      <trkpt lat="40.308800" lon="-4.810883">
        <ele>1945.0</ele>
        <time>2018-06-24T14:07:14Z</time>
      </trkpt>
      <trkpt lat="40.308733" lon="-4.810983">
        <ele>1947.0</ele>
        <time>2018-06-24T14:07:15Z</time>
      </trkpt>
      <trkpt lat="40.308667" lon="-4.811017">
        <ele>1949.0</ele>
        <time>2018-06-24T14:07:16Z</time>
      </trkpt>
      <trkpt lat="40.308600" lon="-4.811033">
        <ele>1951.0</ele>
        <time>2018-06-24T14:07:17Z</time>
      </trkpt>
      <trkpt lat="40.308533" lon="-4.811017">
        <ele>1954.0</ele>
        <time>2018-06-24T14:07:18Z</time>
      </trkpt>
      <trkpt lat="40.308483" lon="-4.810983">
        <ele>1956.0</ele>
        <time>2018-06-24T14:07:19Z</time>
      </trkpt>
      <trkpt lat="40.308433" lon="-4.810933">
        <ele>1959.0</ele>
        <time>2018-06-24T14:07:20Z</time>
      </trkpt>
      <trkpt lat="40.308383" lon="-4.810867">
        <ele>1961.0</ele>
        <time>2018-06-24T14:07:21Z</time>
      </trkpt>
      <trkpt lat="40.308350" lon="-4.810783">
        <ele>1963.0</ele>
        <time>2018-06-24T14:07:22Z</time>
      </trkpt>
      <trkpt lat="40.308317" lon="-4.810667">
        <ele>1964.0</ele>
        <time>2018-06-24T14:07:23Z</time>
      </trkpt>
      <trkpt lat="40.308317" lon="-4.810550">
        <ele>1966.0</ele>
        <time>2018-06-24T14:07:24Z</time>
      </trkpt>
      <trkpt lat="40.308317" lon="-4.810400">
        <ele>1968.0</ele>
        <time>2018-06-24T14:07:25Z</time>
      </trkpt>
      <trkpt lat="40.308350" lon="-4.810250">
        <ele>1970.0</ele>
        <time>2018-06-24T14:07:26Z</time>
      </trkpt>
      <trkpt lat="40.308400" lon="-4.810117">
        <ele>1972.0</ele>
        <time>2018-06-24T14:07:27Z</time>
      </trkpt>
      <trkpt lat="40.308467" lon="-4.810017">
        <ele>1974.0</ele>
        <time>2018-06-24T14:07:28Z</time>
      </trkpt>
      <trkpt lat="40.308550" lon="-4.809917">
        <ele>1975.0</ele>
        <time>2018-06-24T14:07:29Z</time>
      </trkpt>
      <trkpt lat="40.308633" lon="-4.809833">
        <ele>1976.0</ele>
        <time>2018-06-24T14:07:30Z</time>
      </trkpt>
      <trkpt lat="40.308750" lon="-4.809800">
        <ele>1975.0</ele>
        <time>2018-06-24T14:07:31Z</time>
      </trkpt>
      <trkpt lat="40.308867" lon="-4.809783">
        <ele>1975.0</ele>
        <time>2018-06-24T14:07:32Z</time>
      </trkpt>
      <trkpt lat="40.308983" lon="-4.809833">
        <ele>1976.0</ele>
        <time>2018-06-24T14:07:33Z</time>
      </trkpt>
      <trkpt lat="40.309067" lon="-4.809900">
        <ele>1977.0</ele>
        <time>2018-06-24T14:07:34Z</time>
      </trkpt>
      <trkpt lat="40.309133" lon="-4.810000">
        <ele>1978.0</ele>
        <time>2018-06-24T14:07:35Z</time>
      </trkpt>
      <trkpt lat="40.309150" lon="-4.810133">
        <ele>1978.0</ele>
        <time>2018-06-24T14:07:36Z</time>
      </trkpt>
      <trkpt lat="40.309133" lon="-4.810267">
        <ele>1977.0</ele>
        <time>2018-06-24T14:07:37Z</time>
      </trkpt>
      <trkpt lat="40.309083" lon="-4.810367">
        <ele>1978.0</ele>
        <time>2018-06-24T14:07:38Z</time>
      </trkpt>
      <trkpt lat="40.309000" lon="-4.810450">
        <ele>1979.0</ele>
        <time>2018-06-24T14:07:39Z</time>
      </trkpt>
      <trkpt lat="40.308917" lon="-4.810467">
        <ele>1981.0</ele>
        <time>2018-06-24T14:07:40Z</time>
      </trkpt>
      <trkpt lat="40.308817" lon="-4.810450">
        <ele>1983.0</ele>
        <time>2018-06-24T14:07:41Z</time>
      </trkpt>
      <trkpt lat="40.308750" lon="-4.810417">
        <ele>1986.0</ele>
        <time>2018-06-24T14:07:42Z</time>
      </trkpt>
      <trkpt lat="40.308700" lon="-4.810350">
        <ele>1989.0</ele>
        <time>2018-06-24T14:07:43Z</time>
      </trkpt>
      <trkpt lat="40.308650" lon="-4.810300">
        <ele>1992.0</ele>
        <time>2018-06-24T14:07:44Z</time>
      </trkpt>
      <trkpt lat="40.308600" lon="-4.810233">
        <ele>1993.0</ele>
        <time>2018-06-24T14:07:45Z</time>
      </trkpt>
      <trkpt lat="40.308567" lon="-4.810133">
        <ele>1993.0</ele>
        <time>2018-06-24T14:07:46Z</time>
      </trkpt>
      <trkpt lat="40.308550" lon="-4.810000">
        <ele>1993.0</ele>
        <time>2018-06-24T14:07:47Z</time>
      </trkpt>
      <trkpt lat="40.308567" lon="-4.809833">
        <ele>1993.0</ele>
        <time>2018-06-24T14:07:48Z</time>
      </trkpt>
      <trkpt lat="40.308617" lon="-4.809683">
        <ele>1995.0</ele>
        <time>2018-06-24T14:07:49Z</time>
      </trkpt>
      <trkpt lat="40.308667" lon="-4.809550">
        <ele>1998.0</ele>
        <time>2018-06-24T14:07:50Z</time>
      </trkpt>
      <trkpt lat="40.308733" lon="-4.809467">
        <ele>2001.0</ele>
        <time>2018-06-24T14:07:51Z</time>
      </trkpt>
      <trkpt lat="40.308800" lon="-4.809383">
        <ele>2003.0</ele>
        <time>2018-06-24T14:07:52Z</time>
      </trkpt>
      <trkpt lat="40.308883" lon="-4.809333">
        <ele>2004.0</ele>
        <time>2018-06-24T14:07:53Z</time>
      </trkpt>
      <trkpt lat="40.308950" lon="-4.809283">
        <ele>2003.0</ele>
        <time>2018-06-24T14:07:54Z</time>
      </trkpt>
      <trkpt lat="40.309050" lon="-4.809250">
        <ele>2001.0</ele>
        <time>2018-06-24T14:07:55Z</time>
      </trkpt>
      <trkpt lat="40.309150" lon="-4.809283">
        <ele>2001.0</ele>
        <time>2018-06-24T14:07:56Z</time>
      </trkpt>
      <trkpt lat="40.309233" lon="-4.809350">
        <ele>2001.0</ele>
        <time>2018-06-24T14:07:57Z</time>
      </trkpt>
      <trkpt lat="40.309283" lon="-4.809450">
        <ele>2000.0</ele>
        <time>2018-06-24T14:07:58Z</time>
      </trkpt>
      <trkpt lat="40.309317" lon="-4.809583">
        <ele>2001.0</ele>
        <time>2018-06-24T14:07:59Z</time>
      </trkpt>
      <trkpt lat="40.309300" lon="-4.809717">
        <ele>2001.0</ele>
        <time>2018-06-24T14:08:00Z</time>
      </trkpt>
      <trkpt lat="40.309233" lon="-4.809817">
        <ele>2002.0</ele>
        <time>2018-06-24T14:08:01Z</time>
      </trkpt>
      <trkpt lat="40.309150" lon="-4.809883">
        <ele>2002.0</ele>
        <time>2018-06-24T14:08:02Z</time>
      </trkpt>
      <trkpt lat="40.309050" lon="-4.809917">
        <ele>2001.0</ele>
        <time>2018-06-24T14:08:03Z</time>
      </trkpt>
      <trkpt lat="40.308933" lon="-4.809900">
        <ele>2002.0</ele>
        <time>2018-06-24T14:08:04Z</time>
      </trkpt>
      <trkpt lat="40.308850" lon="-4.809850">
        <ele>2004.0</ele>
        <time>2018-06-24T14:08:05Z</time>
      </trkpt>
      <trkpt lat="40.308783" lon="-4.809767">
        <ele>2007.0</ele>
        <time>2018-06-24T14:08:06Z</time>
      </trkpt>
      <trkpt lat="40.308733" lon="-4.809683">
        <ele>2009.0</ele>
        <time>2018-06-24T14:08:07Z</time>
      </trkpt>
      <trkpt lat="40.308683" lon="-4.809583">
        <ele>2011.0</ele>
        <time>2018-06-24T14:08:08Z</time>
      </trkpt>
      <trkpt lat="40.308617" lon="-4.809500">
        <ele>2011.0</ele>
        <time>2018-06-24T14:08:09Z</time>
      </trkpt>
      <trkpt lat="40.308550" lon="-4.809433">
        <ele>2012.0</ele>
        <time>2018-06-24T14:08:10Z</time>
      </trkpt>
      <trkpt lat="40.308483" lon="-4.809350">
        <ele>2012.0</ele>
        <time>2018-06-24T14:08:11Z</time>
      </trkpt>
      <trkpt lat="40.308417" lon="-4.809250">
        <ele>2013.0</ele>
        <time>2018-06-24T14:08:12Z</time>
      </trkpt>
      <trkpt lat="40.308350" lon="-4.809150">
        <ele>2014.0</ele>
        <time>2018-06-24T14:08:13Z</time>
      </trkpt>
      <trkpt lat="40.308333" lon="-4.809050">
        <ele>2015.0</ele>
        <time>2018-06-24T14:08:14Z</time>
      </trkpt>
      <trkpt lat="40.308317" lon="-4.808933">
        <ele>2016.0</ele>
        <time>2018-06-24T14:08:15Z</time>
      </trkpt>
      <trkpt lat="40.308317" lon="-4.808817">
        <ele>2016.0</ele>
        <time>2018-06-24T14:08:16Z</time>
      </trkpt>
      <trkpt lat="40.308333" lon="-4.808700">
        <ele>2015.0</ele>
        <time>2018-06-24T14:08:17Z</time>
      </trkpt>
      <trkpt lat="40.308350" lon="-4.808550">
        <ele>2014.0</ele>
        <time>2018-06-24T14:08:18Z</time>
      </trkpt>
      <trkpt lat="40.308367" lon="-4.808400">
        <ele>2013.0</ele>
        <time>2018-06-24T14:08:19Z</time>
      </trkpt>
      <trkpt lat="40.308417" lon="-4.808267">
        <ele>2012.0</ele>
        <time>2018-06-24T14:08:20Z</time>
      </trkpt>
      <trkpt lat="40.308500" lon="-4.808150">
        <ele>2012.0</ele>
        <time>2018-06-24T14:08:21Z</time>
      </trkpt>
      <trkpt lat="40.308583" lon="-4.808067">
        <ele>2012.0</ele>
        <time>2018-06-24T14:08:22Z</time>
      </trkpt>
      <trkpt lat="40.308683" lon="-4.808017">
        <ele>2012.0</ele>
        <time>2018-06-24T14:08:23Z</time>
      </trkpt>
      <trkpt lat="40.308783" lon="-4.807967">
        <ele>2012.0</ele>
        <time>2018-06-24T14:08:24Z</time>
      </trkpt>
      <trkpt lat="40.308883" lon="-4.807900">
        <ele>2012.0</ele>
        <time>2018-06-24T14:08:25Z</time>
      </trkpt>
      <trkpt lat="40.308983" lon="-4.807850">
        <ele>2011.0</ele>
        <time>2018-06-24T14:08:26Z</time>
      </trkpt>
      <trkpt lat="40.309083" lon="-4.807767">
        <ele>2010.0</ele>
        <time>2018-06-24T14:08:27Z</time>
      </trkpt>
      <trkpt lat="40.309183" lon="-4.807667">
        <ele>2009.0</ele>
        <time>2018-06-24T14:08:28Z</time>
      </trkpt>
      <trkpt lat="40.309250" lon="-4.807550">
        <ele>2008.0</ele>
        <time>2018-06-24T14:08:29Z</time>
      </trkpt>
      <trkpt lat="40.309333" lon="-4.807433">
        <ele>2007.0</ele>
        <time>2018-06-24T14:08:30Z</time>
      </trkpt>
      <trkpt lat="40.309400" lon="-4.807317">
        <ele>2007.0</ele>
        <time>2018-06-24T14:08:31Z</time>
      </trkpt>
      <trkpt lat="40.309467" lon="-4.807183">
        <ele>2006.0</ele>
        <time>2018-06-24T14:08:32Z</time>
      </trkpt>
      <trkpt lat="40.309533" lon="-4.807067">
        <ele>2005.0</ele>
        <time>2018-06-24T14:08:33Z</time>
      </trkpt>
      <trkpt lat="40.309600" lon="-4.806967">
        <ele>2005.0</ele>
        <time>2018-06-24T14:08:34Z</time>
      </trkpt>
      <trkpt lat="40.309667" lon="-4.806850">
        <ele>2004.0</ele>
        <time>2018-06-24T14:08:35Z</time>
      </trkpt>
      <trkpt lat="40.309717" lon="-4.806733">
        <ele>2003.0</ele>
        <time>2018-06-24T14:08:36Z</time>
      </trkpt>
      <trkpt lat="40.309783" lon="-4.806617">
        <ele>2003.0</ele>
        <time>2018-06-24T14:08:37Z</time>
      </trkpt>
      <trkpt lat="40.309850" lon="-4.806500">
        <ele>2005.0</ele>
        <time>2018-06-24T14:08:38Z</time>
      </trkpt>
      <trkpt lat="40.309917" lon="-4.806400">
        <ele>2007.0</ele>
        <time>2018-06-24T14:08:39Z</time>
      </trkpt>
      <trkpt lat="40.310000" lon="-4.806300">
        <ele>2009.0</ele>
        <time>2018-06-24T14:08:40Z</time>
      </trkpt>
      <trkpt lat="40.310100" lon="-4.806217">
        <ele>2012.0</ele>
        <time>2018-06-24T14:08:41Z</time>
      </trkpt>
      <trkpt lat="40.310183" lon="-4.806150">
        <ele>2015.0</ele>
        <time>2018-06-24T14:08:42Z</time>
      </trkpt>
      <trkpt lat="40.310267" lon="-4.806067">
        <ele>2019.0</ele>
        <time>2018-06-24T14:08:43Z</time>
      </trkpt>
      <trkpt lat="40.310317" lon="-4.805967">
        <ele>2022.0</ele>
        <time>2018-06-24T14:08:44Z</time>
      </trkpt>
      <trkpt lat="40.310350" lon="-4.805867">
        <ele>2024.0</ele>
        <time>2018-06-24T14:08:45Z</time>
      </trkpt>
      <trkpt lat="40.310333" lon="-4.805767">
        <ele>2025.0</ele>
        <time>2018-06-24T14:08:46Z</time>
      </trkpt>
      <trkpt lat="40.310283" lon="-4.805683">
        <ele>2026.0</ele>
        <time>2018-06-24T14:08:47Z</time>
      </trkpt>
      <trkpt lat="40.310200" lon="-4.805650">
        <ele>2029.0</ele>
        <time>2018-06-24T14:08:48Z</time>
      </trkpt>
      <trkpt lat="40.310117" lon="-4.805717">
        <ele>2032.0</ele>
        <time>2018-06-24T14:08:49Z</time>
      </trkpt>
      <trkpt lat="40.310083" lon="-4.805833">
        <ele>2034.0</ele>
        <time>2018-06-24T14:08:50Z</time>
      </trkpt>
      <trkpt lat="40.310083" lon="-4.805983">
        <ele>2036.0</ele>
        <time>2018-06-24T14:08:51Z</time>
      </trkpt>
      <trkpt lat="40.310133" lon="-4.806150">
        <ele>2038.0</ele>
        <time>2018-06-24T14:08:52Z</time>
      </trkpt>
      <trkpt lat="40.310250" lon="-4.806267">
        <ele>2041.0</ele>
        <time>2018-06-24T14:08:53Z</time>
      </trkpt>
      <trkpt lat="40.310383" lon="-4.806317">
        <ele>2043.0</ele>
        <time>2018-06-24T14:08:54Z</time>
      </trkpt>
      <trkpt lat="40.310517" lon="-4.806300">
        <ele>2046.0</ele>
        <time>2018-06-24T14:08:55Z</time>
      </trkpt>
      <trkpt lat="40.310633" lon="-4.806233">
        <ele>2050.0</ele>
        <time>2018-06-24T14:08:56Z</time>
      </trkpt>
      <trkpt lat="40.310717" lon="-4.806133">
        <ele>2053.0</ele>
        <time>2018-06-24T14:08:57Z</time>
      </trkpt>
      <trkpt lat="40.310783" lon="-4.806050">
        <ele>2057.0</ele>
        <time>2018-06-24T14:08:58Z</time>
      </trkpt>
      <trkpt lat="40.310817" lon="-4.805933">
        <ele>2060.0</ele>
        <time>2018-06-24T14:08:59Z</time>
      </trkpt>
      <trkpt lat="40.310833" lon="-4.805833">
        <ele>2062.0</ele>
        <time>2018-06-24T14:09:00Z</time>
      </trkpt>
      <trkpt lat="40.310800" lon="-4.805733">
        <ele>2063.0</ele>
        <time>2018-06-24T14:09:01Z</time>
      </trkpt>
      <trkpt lat="40.310733" lon="-4.805667">
        <ele>2065.0</ele>
        <time>2018-06-24T14:09:02Z</time>
      </trkpt>
      <trkpt lat="40.310650" lon="-4.805650">
        <ele>2067.0</ele>
        <time>2018-06-24T14:09:03Z</time>
      </trkpt>
      <trkpt lat="40.310583" lon="-4.805717">
        <ele>2070.0</ele>
        <time>2018-06-24T14:09:04Z</time>
      </trkpt>
      <trkpt lat="40.310550" lon="-4.805817">
        <ele>2073.0</ele>
        <time>2018-06-24T14:09:05Z</time>
      </trkpt>
      <trkpt lat="40.310533" lon="-4.805933">
        <ele>2077.0</ele>
        <time>2018-06-24T14:09:06Z</time>
      </trkpt>
      <trkpt lat="40.310550" lon="-4.806083">
        <ele>2080.0</ele>
        <time>2018-06-24T14:09:07Z</time>
      </trkpt>
      <trkpt lat="40.310600" lon="-4.806217">
        <ele>2083.0</ele>
        <time>2018-06-24T14:09:08Z</time>
      </trkpt>
      <trkpt lat="40.310683" lon="-4.806333">
        <ele>2084.0</ele>
        <time>2018-06-24T14:09:09Z</time>
      </trkpt>
      <trkpt lat="40.310800" lon="-4.806400">
        <ele>2086.0</ele>
        <time>2018-06-24T14:09:10Z</time>
      </trkpt>
      <trkpt lat="40.310933" lon="-4.806417">
        <ele>2087.0</ele>
        <time>2018-06-24T14:09:11Z</time>
      </trkpt>
      <trkpt lat="40.311067" lon="-4.806383">
        <ele>2090.0</ele>
        <time>2018-06-24T14:09:12Z</time>
      </trkpt>
      <trkpt lat="40.311167" lon="-4.806300">
        <ele>2093.0</ele>
        <time>2018-06-24T14:09:13Z</time>
      </trkpt>
      <trkpt lat="40.311233" lon="-4.806200">
        <ele>2096.0</ele>
        <time>2018-06-24T14:09:14Z</time>
      </trkpt>
      <trkpt lat="40.311283" lon="-4.806100">
        <ele>2100.0</ele>
        <time>2018-06-24T14:09:15Z</time>
      </trkpt>
      <trkpt lat="40.311317" lon="-4.806000">
        <ele>2103.0</ele>
        <time>2018-06-24T14:09:16Z</time>
      </trkpt>
      <trkpt lat="40.311317" lon="-4.805883">
        <ele>2105.0</ele>
        <time>2018-06-24T14:09:17Z</time>
      </trkpt>
      <trkpt lat="40.311300" lon="-4.805783">
        <ele>2106.0</ele>
        <time>2018-06-24T14:09:18Z</time>
      </trkpt>
      <trkpt lat="40.311250" lon="-4.805700">
        <ele>2107.0</ele>
        <time>2018-06-24T14:09:19Z</time>
      </trkpt>
      <trkpt lat="40.311183" lon="-4.805650">
        <ele>2108.0</ele>
        <time>2018-06-24T14:09:20Z</time>
      </trkpt>
      <trkpt lat="40.311117" lon="-4.805667">
        <ele>2110.0</ele>
        <time>2018-06-24T14:09:21Z</time>
      </trkpt>
      <trkpt lat="40.311050" lon="-4.805717">
        <ele>2113.0</ele>
        <time>2018-06-24T14:09:22Z</time>
      </trkpt>
      <trkpt lat="40.311000" lon="-4.805800">
        <ele>2116.0</ele>
        <time>2018-06-24T14:09:23Z</time>
      </trkpt>
      <trkpt lat="40.310983" lon="-4.805933">
        <ele>2119.0</ele>
        <time>2018-06-24T14:09:24Z</time>
      </trkpt>
      <trkpt lat="40.311000" lon="-4.806083">
        <ele>2122.0</ele>
        <time>2018-06-24T14:09:25Z</time>
      </trkpt>
      <trkpt lat="40.311050" lon="-4.806233">
        <ele>2125.0</ele>
        <time>2018-06-24T14:09:26Z</time>
      </trkpt>
      <trkpt lat="40.311117" lon="-4.806367">
        <ele>2128.0</ele>
        <time>2018-06-24T14:09:27Z</time>
      </trkpt>
      <trkpt lat="40.311233" lon="-4.806467">
        <ele>2132.0</ele>
        <time>2018-06-24T14:09:28Z</time>
      </trkpt>
      <trkpt lat="40.311367" lon="-4.806517">
        <ele>2135.0</ele>
        <time>2018-06-24T14:09:29Z</time>
      </trkpt>
      <trkpt lat="40.311500" lon="-4.806517">
        <ele>2138.0</ele>
        <time>2018-06-24T14:09:30Z</time>
      </trkpt>
      <trkpt lat="40.311617" lon="-4.806467">
        <ele>2141.0</ele>
        <time>2018-06-24T14:09:31Z</time>
      </trkpt>
      <trkpt lat="40.311700" lon="-4.806383">
        <ele>2144.0</ele>
        <time>2018-06-24T14:09:32Z</time>
      </trkpt>
      <trkpt lat="40.311783" lon="-4.806283">
        <ele>2146.0</ele>
        <time>2018-06-24T14:09:33Z</time>
      </trkpt>
      <trkpt lat="40.311817" lon="-4.806167">
        <ele>2148.0</ele>
        <time>2018-06-24T14:09:34Z</time>
      </trkpt>
      <trkpt lat="40.311833" lon="-4.806033">
        <ele>2150.0</ele>
        <time>2018-06-24T14:09:35Z</time>
      </trkpt>
      <trkpt lat="40.311800" lon="-4.805917">
        <ele>2152.0</ele>
        <time>2018-06-24T14:09:36Z</time>
      </trkpt>
      <trkpt lat="40.311733" lon="-4.805817">
        <ele>2153.0</ele>
        <time>2018-06-24T14:09:37Z</time>
      </trkpt>
      <trkpt lat="40.311650" lon="-4.805783">
        <ele>2155.0</ele>
        <time>2018-06-24T14:09:38Z</time>
      </trkpt>
      <trkpt lat="40.311567" lon="-4.805817">
        <ele>2156.0</ele>
        <time>2018-06-24T14:09:39Z</time>
      </trkpt>
      <trkpt lat="40.311500" lon="-4.805917">
        <ele>2158.0</ele>
        <time>2018-06-24T14:09:40Z</time>
      </trkpt>
      <trkpt lat="40.311467" lon="-4.806067">
        <ele>2160.0</ele>
        <time>2018-06-24T14:09:41Z</time>
      </trkpt>
      <trkpt lat="40.311467" lon="-4.806233">
        <ele>2164.0</ele>
        <time>2018-06-24T14:09:42Z</time>
      </trkpt>
      <trkpt lat="40.311500" lon="-4.806400">
        <ele>2168.0</ele>
        <time>2018-06-24T14:09:43Z</time>
      </trkpt>
      <trkpt lat="40.311550" lon="-4.806533">
        <ele>2172.0</ele>
        <time>2018-06-24T14:09:44Z</time>
      </trkpt>
      <trkpt lat="40.311633" lon="-4.806650">
        <ele>2175.0</ele>
        <time>2018-06-24T14:09:45Z</time>
      </trkpt>
      <trkpt lat="40.311733" lon="-4.806733">
        <ele>2178.0</ele>
        <time>2018-06-24T14:09:46Z</time>
      </trkpt>
      <trkpt lat="40.311867" lon="-4.806783">
        <ele>2180.0</ele>
        <time>2018-06-24T14:09:47Z</time>
      </trkpt>
      <trkpt lat="40.311983" lon="-4.806783">
        <ele>2182.0</ele>
        <time>2018-06-24T14:09:48Z</time>
      </trkpt>
      <trkpt lat="40.312100" lon="-4.806750">
        <ele>2184.0</ele>
        <time>2018-06-24T14:09:49Z</time>
      </trkpt>
      <trkpt lat="40.312200" lon="-4.806650">
        <ele>2187.0</ele>
        <time>2018-06-24T14:09:50Z</time>
      </trkpt>
      <trkpt lat="40.312283" lon="-4.806533">
        <ele>2189.0</ele>
        <time>2018-06-24T14:09:51Z</time>
      </trkpt>
      <trkpt lat="40.312333" lon="-4.806417">
        <ele>2191.0</ele>
        <time>2018-06-24T14:09:52Z</time>
      </trkpt>
      <trkpt lat="40.312350" lon="-4.806267">
        <ele>2194.0</ele>
        <time>2018-06-24T14:09:53Z</time>
      </trkpt>
      <trkpt lat="40.312350" lon="-4.806150">
        <ele>2197.0</ele>
        <time>2018-06-24T14:09:54Z</time>
      </trkpt>
      <trkpt lat="40.312317" lon="-4.806033">
        <ele>2198.0</ele>
        <time>2018-06-24T14:09:55Z</time>
      </trkpt>
      <trkpt lat="40.312250" lon="-4.805967">
        <ele>2199.0</ele>
        <time>2018-06-24T14:09:56Z</time>
      </trkpt>
      <trkpt lat="40.312150" lon="-4.805950">
        <ele>2201.0</ele>
        <time>2018-06-24T14:09:57Z</time>
      </trkpt>
      <trkpt lat="40.312067" lon="-4.806017">
        <ele>2202.0</ele>
        <time>2018-06-24T14:09:58Z</time>
      </trkpt>
      <trkpt lat="40.312017" lon="-4.806167">
        <ele>2204.0</ele>
        <time>2018-06-24T14:09:59Z</time>
      </trkpt>
      <trkpt lat="40.312033" lon="-4.806333">
        <ele>2205.0</ele>
        <time>2018-06-24T14:10:00Z</time>
      </trkpt>
      <trkpt lat="40.312083" lon="-4.806500">
        <ele>2209.0</ele>
        <time>2018-06-24T14:10:01Z</time>
      </trkpt>
      <trkpt lat="40.312167" lon="-4.806617">
        <ele>2214.0</ele>
        <time>2018-06-24T14:10:02Z</time>
      </trkpt>
      <trkpt lat="40.312250" lon="-4.806700">
        <ele>2218.0</ele>
        <time>2018-06-24T14:10:03Z</time>
      </trkpt>
      <trkpt lat="40.312333" lon="-4.806733">
        <ele>2220.0</ele>
        <time>2018-06-24T14:10:04Z</time>
      </trkpt>
      <trkpt lat="40.312433" lon="-4.806767">
        <ele>2222.0</ele>
        <time>2018-06-24T14:10:05Z</time>
      </trkpt>
      <trkpt lat="40.312550" lon="-4.806767">
        <ele>2224.0</ele>
        <time>2018-06-24T14:10:06Z</time>
      </trkpt>
      <trkpt lat="40.312650" lon="-4.806733">
        <ele>2225.0</ele>
        <time>2018-06-24T14:10:07Z</time>
      </trkpt>
      <trkpt lat="40.312750" lon="-4.806633">
        <ele>2226.0</ele>
        <time>2018-06-24T14:10:08Z</time>
      </trkpt>
      <trkpt lat="40.312800" lon="-4.806517">
        <ele>2226.0</ele>
        <time>2018-06-24T14:10:09Z</time>
      </trkpt>
      <trkpt lat="40.312817" lon="-4.806383">
        <ele>2227.0</ele>
        <time>2018-06-24T14:10:10Z</time>
      </trkpt>
      <trkpt lat="40.312800" lon="-4.806250">
        <ele>2229.0</ele>
        <time>2018-06-24T14:10:11Z</time>
      </trkpt>
      <trkpt lat="40.312783" lon="-4.806133">
        <ele>2231.0</ele>
        <time>2018-06-24T14:10:12Z</time>
      </trkpt>
      <trkpt lat="40.312733" lon="-4.806033">
        <ele>2233.0</ele>
        <time>2018-06-24T14:10:13Z</time>
      </trkpt>
      <trkpt lat="40.312683" lon="-4.805933">
        <ele>2234.0</ele>
        <time>2018-06-24T14:10:14Z</time>
      </trkpt>
      <trkpt lat="40.312617" lon="-4.805867">
        <ele>2236.0</ele>
        <time>2018-06-24T14:10:15Z</time>
      </trkpt>
      <trkpt lat="40.312533" lon="-4.805817">
        <ele>2238.0</ele>
        <time>2018-06-24T14:10:16Z</time>
      </trkpt>
      <trkpt lat="40.312450" lon="-4.805767">
        <ele>2240.0</ele>
        <time>2018-06-24T14:10:17Z</time>
      </trkpt>
      <trkpt lat="40.312367" lon="-4.805767">
        <ele>2243.0</ele>
        <time>2018-06-24T14:10:18Z</time>
      </trkpt>
      <trkpt lat="40.312300" lon="-4.805783">
        <ele>2247.0</ele>
        <time>2018-06-24T14:10:19Z</time>
      </trkpt>
      <trkpt lat="40.312250" lon="-4.805817">
        <ele>2252.0</ele>
        <time>2018-06-24T14:10:20Z</time>
      </trkpt>
      <trkpt lat="40.312200" lon="-4.805850">
        <ele>2256.0</ele>
        <time>2018-06-24T14:10:21Z</time>
      </trkpt>
      <trkpt lat="40.312150" lon="-4.805883">
        <ele>2259.0</ele>
        <time>2018-06-24T14:10:22Z</time>
      </trkpt>
      <trkpt lat="40.312100" lon="-4.805917">
        <ele>2260.0</ele>
        <time>2018-06-24T14:10:23Z</time>
      </trkpt>
      <trkpt lat="40.312050" lon="-4.806000">
        <ele>2261.0</ele>
        <time>2018-06-24T14:10:24Z</time>
      </trkpt>
      <trkpt lat="40.312050" lon="-4.806133">
        <ele>2261.0</ele>
        <time>2018-06-24T14:10:25Z</time>
      </trkpt>
      <trkpt lat="40.312083" lon="-4.806283">
        <ele>2262.0</ele>
        <time>2018-06-24T14:10:26Z</time>
      </trkpt>
      <trkpt lat="40.312183" lon="-4.806417">
        <ele>2264.0</ele>
        <time>2018-06-24T14:10:27Z</time>
      </trkpt>
      <trkpt lat="40.312317" lon="-4.806467">
        <ele>2265.0</ele>
        <time>2018-06-24T14:10:28Z</time>
      </trkpt>
      <trkpt lat="40.312450" lon="-4.806433">
        <ele>2267.0</ele>
        <time>2018-06-24T14:10:29Z</time>
      </trkpt>
      <trkpt lat="40.312583" lon="-4.806383">
        <ele>2271.0</ele>
        <time>2018-06-24T14:10:30Z</time>
      </trkpt>
      <trkpt lat="40.312683" lon="-4.806300">
        <ele>2276.0</ele>
        <time>2018-06-24T14:10:31Z</time>
      </trkpt>
      <trkpt lat="40.312783" lon="-4.806233">
        <ele>2281.0</ele>
        <time>2018-06-24T14:10:32Z</time>
      </trkpt>
      <trkpt lat="40.312867" lon="-4.806167">
        <ele>2286.0</ele>
        <time>2018-06-24T14:10:33Z</time>
      </trkpt>
      <trkpt lat="40.312950" lon="-4.806100">
        <ele>2289.0</ele>
        <time>2018-06-24T14:10:34Z</time>
      </trkpt>
      <trkpt lat="40.313017" lon="-4.806033">
        <ele>2292.0</ele>
        <time>2018-06-24T14:10:35Z</time>
      </trkpt>
      <trkpt lat="40.313067" lon="-4.805917">
        <ele>2294.0</ele>
        <time>2018-06-24T14:10:36Z</time>
      </trkpt>
      <trkpt lat="40.313083" lon="-4.805783">
        <ele>2295.0</ele>
        <time>2018-06-24T14:10:37Z</time>
      </trkpt>
      <trkpt lat="40.313083" lon="-4.805633">
        <ele>2297.0</ele>
        <time>2018-06-24T14:10:38Z</time>
      </trkpt>
      <trkpt lat="40.313050" lon="-4.805500">
        <ele>2299.0</ele>
        <time>2018-06-24T14:10:39Z</time>
      </trkpt>
      <trkpt lat="40.313000" lon="-4.805400">
        <ele>2301.0</ele>
        <time>2018-06-24T14:10:40Z</time>
      </trkpt>
      <trkpt lat="40.312933" lon="-4.805317">
        <ele>2303.0</ele>
        <time>2018-06-24T14:10:41Z</time>
      </trkpt>
      <trkpt lat="40.312850" lon="-4.805267">
        <ele>2306.0</ele>
        <time>2018-06-24T14:10:42Z</time>
      </trkpt>
      <trkpt lat="40.312767" lon="-4.805250">
        <ele>2308.0</ele>
        <time>2018-06-24T14:10:43Z</time>
      </trkpt>
      <trkpt lat="40.312683" lon="-4.805283">
        <ele>2310.0</ele>
        <time>2018-06-24T14:10:44Z</time>
      </trkpt>
      <trkpt lat="40.312617" lon="-4.805367">
        <ele>2314.0</ele>
        <time>2018-06-24T14:10:45Z</time>
      </trkpt>
      <trkpt lat="40.312567" lon="-4.805483">
        <ele>2317.0</ele>
        <time>2018-06-24T14:10:46Z</time>
      </trkpt>
      <trkpt lat="40.312567" lon="-4.805600">
        <ele>2320.0</ele>
        <time>2018-06-24T14:10:47Z</time>
      </trkpt>
      <trkpt lat="40.312600" lon="-4.805733">
        <ele>2323.0</ele>
        <time>2018-06-24T14:10:48Z</time>
      </trkpt>
      <trkpt lat="40.312667" lon="-4.805850">
        <ele>2325.0</ele>
        <time>2018-06-24T14:10:49Z</time>
      </trkpt>
      <trkpt lat="40.312767" lon="-4.805933">
        <ele>2327.0</ele>
        <time>2018-06-24T14:10:50Z</time>
      </trkpt>
      <trkpt lat="40.312883" lon="-4.805967">
        <ele>2330.0</ele>
        <time>2018-06-24T14:10:51Z</time>
      </trkpt>
      <trkpt lat="40.313017" lon="-4.805950">
        <ele>2332.0</ele>
        <time>2018-06-24T14:10:52Z</time>
      </trkpt>
      <trkpt lat="40.313117" lon="-4.805883">
        <ele>2335.0</ele>
        <time>2018-06-24T14:10:53Z</time>
      </trkpt>
      <trkpt lat="40.313183" lon="-4.805750">
        <ele>2338.0</ele>
        <time>2018-06-24T14:10:54Z</time>
      </trkpt>
      <trkpt lat="40.313200" lon="-4.805600">
        <ele>2340.0</ele>
        <time>2018-06-24T14:10:55Z</time>
      </trkpt>
      <trkpt lat="40.313167" lon="-4.805467">
        <ele>2343.0</ele>
        <time>2018-06-24T14:10:56Z</time>
      </trkpt>
      <trkpt lat="40.313117" lon="-4.805367">
        <ele>2345.0</ele>
        <time>2018-06-24T14:10:57Z</time>
      </trkpt>
      <trkpt lat="40.313033" lon="-4.805317">
        <ele>2348.0</ele>
        <time>2018-06-24T14:10:58Z</time>
      </trkpt>
      <trkpt lat="40.312933" lon="-4.805300">
        <ele>2351.0</ele>
        <time>2018-06-24T14:10:59Z</time>
      </trkpt>
      <trkpt lat="40.312850" lon="-4.805333">
        <ele>2354.0</ele>
        <time>2018-06-24T14:11:00Z</time>
      </trkpt>
      <trkpt lat="40.312783" lon="-4.805433">
        <ele>2357.0</ele>
        <time>2018-06-24T14:11:01Z</time>
      </trkpt>
      <trkpt lat="40.312767" lon="-4.805550">
        <ele>2359.0</ele>
        <time>2018-06-24T14:11:02Z</time>
      </trkpt>
      <trkpt lat="40.312767" lon="-4.805683">
        <ele>2362.0</ele>
        <time>2018-06-24T14:11:03Z</time>
      </trkpt>
      <trkpt lat="40.312833" lon="-4.805800">
        <ele>2363.0</ele>
        <time>2018-06-24T14:11:04Z</time>
      </trkpt>
      <trkpt lat="40.312933" lon="-4.805883">
        <ele>2365.0</ele>
        <time>2018-06-24T14:11:05Z</time>
      </trkpt>
      <trkpt lat="40.313067" lon="-4.805933">
        <ele>2366.0</ele>
        <time>2018-06-24T14:11:06Z</time>
      </trkpt>
      <trkpt lat="40.313183" lon="-4.805917">
        <ele>2369.0</ele>
        <time>2018-06-24T14:11:07Z</time>
      </trkpt>
      <trkpt lat="40.313283" lon="-4.805850">
        <ele>2372.0</ele>
        <time>2018-06-24T14:11:08Z</time>
      </trkpt>
      <trkpt lat="40.313350" lon="-4.805717">
        <ele>2375.0</ele>
        <time>2018-06-24T14:11:09Z</time>
      </trkpt>
      <trkpt lat="40.313350" lon="-4.805583">
        <ele>2377.0</ele>
        <time>2018-06-24T14:11:10Z</time>
      </trkpt>
      <trkpt lat="40.313300" lon="-4.805467">
        <ele>2379.0</ele>
        <time>2018-06-24T14:11:11Z</time>
      </trkpt>
      <trkpt lat="40.313233" lon="-4.805383">
        <ele>2381.0</ele>
        <time>2018-06-24T14:11:12Z</time>
      </trkpt>
      <trkpt lat="40.313150" lon="-4.805317">
        <ele>2384.0</ele>
        <time>2018-06-24T14:11:13Z</time>
      </trkpt>
      <trkpt lat="40.313050" lon="-4.805300">
        <ele>2386.0</ele>
        <time>2018-06-24T14:11:14Z</time>
      </trkpt>
      <trkpt lat="40.312967" lon="-4.805333">
        <ele>2389.0</ele>
        <time>2018-06-24T14:11:15Z</time>
      </trkpt>
      <trkpt lat="40.312917" lon="-4.805433">
        <ele>2391.0</ele>
        <time>2018-06-24T14:11:16Z</time>
      </trkpt>
      <trkpt lat="40.312900" lon="-4.805567">
        <ele>2391.0</ele>
        <time>2018-06-24T14:11:17Z</time>
      </trkpt>
      <trkpt lat="40.312950" lon="-4.805717">
        <ele>2392.0</ele>
        <time>2018-06-24T14:11:18Z</time>
      </trkpt>
      <trkpt lat="40.313017" lon="-4.805850">
        <ele>2393.0</ele>
        <time>2018-06-24T14:11:19Z</time>
      </trkpt>
      <trkpt lat="40.313117" lon="-4.805950">
        <ele>2396.0</ele>
        <time>2018-06-24T14:11:20Z</time>
      </trkpt>
      <trkpt lat="40.313233" lon="-4.806017">
        <ele>2399.0</ele>
        <time>2018-06-24T14:11:21Z</time>
      </trkpt>
      <trkpt lat="40.313333" lon="-4.806050">
        <ele>2402.0</ele>
        <time>2018-06-24T14:11:22Z</time>
      </trkpt>
      <trkpt lat="40.313450" lon="-4.806050">
        <ele>2405.0</ele>
        <time>2018-06-24T14:11:23Z</time>
      </trkpt>
      <trkpt lat="40.313550" lon="-4.806033">
        <ele>2407.0</ele>
        <time>2018-06-24T14:11:24Z</time>
      </trkpt>
      <trkpt lat="40.313650" lon="-4.805967">
        <ele>2408.0</ele>
        <time>2018-06-24T14:11:25Z</time>
      </trkpt>
      <trkpt lat="40.313750" lon="-4.805883">
        <ele>2409.0</ele>
        <time>2018-06-24T14:11:26Z</time>
      </trkpt>
      <trkpt lat="40.313833" lon="-4.805783">
        <ele>2410.0</ele>
        <time>2018-06-24T14:11:27Z</time>
      </trkpt>
      <trkpt lat="40.313900" lon="-4.805667">
        <ele>2412.0</ele>
        <time>2018-06-24T14:11:28Z</time>
      </trkpt>
      <trkpt lat="40.313950" lon="-4.805517">
        <ele>2414.0</ele>
        <time>2018-06-24T14:11:29Z</time>
      </trkpt>
      <trkpt lat="40.313950" lon="-4.805367">
        <ele>2418.0</ele>
        <time>2018-06-24T14:11:30Z</time>
      </trkpt>
      <trkpt lat="40.313933" lon="-4.805217">
        <ele>2421.0</ele>
        <time>2018-06-24T14:11:31Z</time>
      </trkpt>
      <trkpt lat="40.313883" lon="-4.805083">
        <ele>2425.0</ele>
        <time>2018-06-24T14:11:32Z</time>
      </trkpt>
      <trkpt lat="40.313833" lon="-4.804967">
        <ele>2429.0</ele>
        <time>2018-06-24T14:11:33Z</time>
      </trkpt>
      <trkpt lat="40.313767" lon="-4.804850">
        <ele>2434.0</ele>
        <time>2018-06-24T14:11:34Z</time>
      </trkpt>
      <trkpt lat="40.313717" lon="-4.804767">
        <ele>2438.0</ele>
        <time>2018-06-24T14:11:35Z</time>
      </trkpt>
      <trkpt lat="40.313650" lon="-4.804683">
        <ele>2440.0</ele>
        <time>2018-06-24T14:11:36Z</time>
      </trkpt>
      <trkpt lat="40.313567" lon="-4.804617">
        <ele>2441.0</ele>
        <time>2018-06-24T14:11:37Z</time>
      </trkpt>
      <trkpt lat="40.313467" lon="-4.804583">
        <ele>2441.0</ele>
        <time>2018-06-24T14:11:38Z</time>
      </trkpt>
      <trkpt lat="40.313350" lon="-4.804617">
        <ele>2443.0</ele>
        <time>2018-06-24T14:11:39Z</time>
      </trkpt>
      <trkpt lat="40.313267" lon="-4.804700">
        <ele>2445.0</ele>
        <time>2018-06-24T14:11:40Z</time>
      </trkpt>
      <trkpt lat="40.313217" lon="-4.804817">
        <ele>2447.0</ele>
        <time>2018-06-24T14:11:41Z</time>
      </trkpt>
      <trkpt lat="40.313217" lon="-4.804950">
        <ele>2448.0</ele>
        <time>2018-06-24T14:11:42Z</time>
      </trkpt>
      <trkpt lat="40.313250" lon="-4.805100">
        <ele>2450.0</ele>
        <time>2018-06-24T14:11:43Z</time>
      </trkpt>
      <trkpt lat="40.313300" lon="-4.805217">
        <ele>2454.0</ele>
        <time>2018-06-24T14:11:44Z</time>
      </trkpt>
      <trkpt lat="40.313383" lon="-4.805300">
        <ele>2457.0</ele>
        <time>2018-06-24T14:11:45Z</time>
      </trkpt>
      <trkpt lat="40.313467" lon="-4.805367">
        <ele>2459.0</ele>
        <time>2018-06-24T14:11:46Z</time>
      </trkpt>
      <trkpt lat="40.313567" lon="-4.805400">
        <ele>2461.0</ele>
        <time>2018-06-24T14:11:47Z</time>
      </trkpt>
      <trkpt lat="40.313683" lon="-4.805400">
        <ele>2462.0</ele>
        <time>2018-06-24T14:11:48Z</time>
      </trkpt>
      <trkpt lat="40.313800" lon="-4.805367">
        <ele>2463.0</ele>
        <time>2018-06-24T14:11:49Z</time>
      </trkpt>
      <trkpt lat="40.313917" lon="-4.805317">
        <ele>2465.0</ele>
        <time>2018-06-24T14:11:50Z</time>
      </trkpt>
      <trkpt lat="40.314000" lon="-4.805217">
        <ele>2467.0</ele>
        <time>2018-06-24T14:11:51Z</time>
      </trkpt>
      <trkpt lat="40.314067" lon="-4.805100">
        <ele>2469.0</ele>
        <time>2018-06-24T14:11:52Z</time>
      </trkpt>
      <trkpt lat="40.314100" lon="-4.804950">
        <ele>2471.0</ele>
        <time>2018-06-24T14:11:53Z</time>
      </trkpt>
      <trkpt lat="40.314100" lon="-4.804783">
        <ele>2473.0</ele>
        <time>2018-06-24T14:11:54Z</time>
      </trkpt>
      <trkpt lat="40.314050" lon="-4.804650">
        <ele>2477.0</ele>
        <time>2018-06-24T14:11:55Z</time>
      </trkpt>
      <trkpt lat="40.314000" lon="-4.804517">
        <ele>2481.0</ele>
        <time>2018-06-24T14:11:56Z</time>
      </trkpt>
      <trkpt lat="40.313933" lon="-4.804400">
        <ele>2486.0</ele>
        <time>2018-06-24T14:11:57Z</time>
      </trkpt>
      <trkpt lat="40.313883" lon="-4.804300">
        <ele>2489.0</ele>
        <time>2018-06-24T14:11:58Z</time>
      </trkpt>
      <trkpt lat="40.313817" lon="-4.804200">
        <ele>2492.0</ele>
        <time>2018-06-24T14:11:59Z</time>
      </trkpt>
      <trkpt lat="40.313750" lon="-4.804117">
        <ele>2494.0</ele>
        <time>2018-06-24T14:12:00Z</time>
      </trkpt>
      <trkpt lat="40.313667" lon="-4.804083">
        <ele>2496.0</ele>
        <time>2018-06-24T14:12:01Z</time>
      </trkpt>
      <trkpt lat="40.313583" lon="-4.804083">
        <ele>2498.0</ele>
        <time>2018-06-24T14:12:02Z</time>
      </trkpt>
      <trkpt lat="40.313500" lon="-4.804133">
        <ele>2498.0</ele>
        <time>2018-06-24T14:12:03Z</time>
      </trkpt>
      <trkpt lat="40.313433" lon="-4.804217">
        <ele>2499.0</ele>
        <time>2018-06-24T14:12:04Z</time>
      </trkpt>
      <trkpt lat="40.313400" lon="-4.804333">
        <ele>2500.0</ele>
        <time>2018-06-24T14:12:05Z</time>
      </trkpt>
      <trkpt lat="40.313383" lon="-4.804467">
        <ele>2501.0</ele>
        <time>2018-06-24T14:12:06Z</time>
      </trkpt>
      <trkpt lat="40.313400" lon="-4.804600">
        <ele>2501.0</ele>
        <time>2018-06-24T14:12:07Z</time>
      </trkpt>
      <trkpt lat="40.313450" lon="-4.804717">
        <ele>2502.0</ele>
        <time>2018-06-24T14:12:08Z</time>
      </trkpt>
      <trkpt lat="40.313517" lon="-4.804833">
        <ele>2503.0</ele>
        <time>2018-06-24T14:12:09Z</time>
      </trkpt>
      <trkpt lat="40.313583" lon="-4.804917">
        <ele>2505.0</ele>
        <time>2018-06-24T14:12:10Z</time>
      </trkpt>
      <trkpt lat="40.313667" lon="-4.804983">
        <ele>2507.0</ele>
        <time>2018-06-24T14:12:11Z</time>
      </trkpt>
      <trkpt lat="40.313767" lon="-4.805017">
        <ele>2510.0</ele>
        <time>2018-06-24T14:12:12Z</time>
      </trkpt>
      <trkpt lat="40.313850" lon="-4.805050">
        <ele>2512.0</ele>
        <time>2018-06-24T14:12:13Z</time>
      </trkpt>
      <trkpt lat="40.313950" lon="-4.805083">
        <ele>2514.0</ele>
        <time>2018-06-24T14:12:14Z</time>
      </trkpt>
      <trkpt lat="40.314050" lon="-4.805100">
        <ele>2516.0</ele>
        <time>2018-06-24T14:12:15Z</time>
      </trkpt>
      <trkpt lat="40.314150" lon="-4.805100">
        <ele>2518.0</ele>
        <time>2018-06-24T14:12:16Z</time>
      </trkpt>
      <trkpt lat="40.314267" lon="-4.805083">
        <ele>2519.0</ele>
        <time>2018-06-24T14:12:17Z</time>
      </trkpt>
      <trkpt lat="40.314367" lon="-4.805000">
        <ele>2520.0</ele>
        <time>2018-06-24T14:12:18Z</time>
      </trkpt>
      <trkpt lat="40.314450" lon="-4.804900">
        <ele>2522.0</ele>
        <time>2018-06-24T14:12:19Z</time>
      </trkpt>
      <trkpt lat="40.314517" lon="-4.804767">
        <ele>2524.0</ele>
        <time>2018-06-24T14:12:20Z</time>
      </trkpt>
      <trkpt lat="40.314550" lon="-4.804617">
        <ele>2527.0</ele>
        <time>2018-06-24T14:12:21Z</time>
      </trkpt>
      <trkpt lat="40.314533" lon="-4.804467">
        <ele>2529.0</ele>
        <time>2018-06-24T14:12:22Z</time>
      </trkpt>
      <trkpt lat="40.314500" lon="-4.804350">
        <ele>2532.0</ele>
        <time>2018-06-24T14:12:23Z</time>
      </trkpt>
      <trkpt lat="40.314433" lon="-4.804250">
        <ele>2534.0</ele>
        <time>2018-06-24T14:12:24Z</time>
      </trkpt>
      <trkpt lat="40.314350" lon="-4.804183">
        <ele>2536.0</ele>
        <time>2018-06-24T14:12:25Z</time>
      </trkpt>
      <trkpt lat="40.314233" lon="-4.804167">
        <ele>2537.0</ele>
        <time>2018-06-24T14:12:26Z</time>
      </trkpt>
      <trkpt lat="40.314150" lon="-4.804183">
        <ele>2540.0</ele>
        <time>2018-06-24T14:12:27Z</time>
      </trkpt>
      <trkpt lat="40.314067" lon="-4.804267">
        <ele>2543.0</ele>
        <time>2018-06-24T14:12:28Z</time>
      </trkpt>
      <trkpt lat="40.314017" lon="-4.804350">
        <ele>2545.0</ele>
        <time>2018-06-24T14:12:29Z</time>
      </trkpt>
      <trkpt lat="40.314000" lon="-4.804467">
        <ele>2547.0</ele>
        <time>2018-06-24T14:12:30Z</time>
      </trkpt>
      <trkpt lat="40.314017" lon="-4.804567">
        <ele>2549.0</ele>
        <time>2018-06-24T14:12:31Z</time>
      </trkpt>
      <trkpt lat="40.314050" lon="-4.804683">
        <ele>2550.0</ele>
        <time>2018-06-24T14:12:32Z</time>
      </trkpt>
      <trkpt lat="40.314117" lon="-4.804767">
        <ele>2552.0</ele>
        <time>2018-06-24T14:12:33Z</time>
      </trkpt>
      <trkpt lat="40.314200" lon="-4.804817">
        <ele>2553.0</ele>
        <time>2018-06-24T14:12:34Z</time>
      </trkpt>
      <trkpt lat="40.314300" lon="-4.804833">
        <ele>2554.0</ele>
        <time>2018-06-24T14:12:35Z</time>
      </trkpt>
      <trkpt lat="40.314417" lon="-4.804800">
        <ele>2556.0</ele>
        <time>2018-06-24T14:12:36Z</time>
      </trkpt>
      <trkpt lat="40.314517" lon="-4.804733">
        <ele>2557.0</ele>
        <time>2018-06-24T14:12:37Z</time>
      </trkpt>
      <trkpt lat="40.314600" lon="-4.804633">
        <ele>2559.0</ele>
        <time>2018-06-24T14:12:38Z</time>
      </trkpt>
      <trkpt lat="40.314650" lon="-4.804500">
        <ele>2561.0</ele>
        <time>2018-06-24T14:12:39Z</time>
      </trkpt>
      <trkpt lat="40.314667" lon="-4.804350">
        <ele>2561.0</ele>
        <time>2018-06-24T14:12:40Z</time>
      </trkpt>
      <trkpt lat="40.314650" lon="-4.804183">
        <ele>2562.0</ele>
        <time>2018-06-24T14:12:41Z</time>
      </trkpt>
      <trkpt lat="40.314600" lon="-4.804050">
        <ele>2564.0</ele>
        <time>2018-06-24T14:12:42Z</time>
      </trkpt>
      <trkpt lat="40.314533" lon="-4.803933">
        <ele>2567.0</ele>
        <time>2018-06-24T14:12:43Z</time>
      </trkpt>
      <trkpt lat="40.314433" lon="-4.803850">
        <ele>2570.0</ele>
        <time>2018-06-24T14:12:44Z</time>
      </trkpt>
      <trkpt lat="40.314333" lon="-4.803817">
        <ele>2573.0</ele>
        <time>2018-06-24T14:12:45Z</time>
      </trkpt>
      <trkpt lat="40.314250" lon="-4.803817">
        <ele>2575.0</ele>
        <time>2018-06-24T14:12:46Z</time>
      </trkpt>
      <trkpt lat="40.314150" lon="-4.803867">
        <ele>2577.0</ele>
        <time>2018-06-24T14:12:47Z</time>
      </trkpt>
      <trkpt lat="40.314067" lon="-4.803933">
        <ele>2578.0</ele>
        <time>2018-06-24T14:12:48Z</time>
      </trkpt>
      <trkpt lat="40.314017" lon="-4.804033">
        <ele>2579.0</ele>
        <time>2018-06-24T14:12:49Z</time>
      </trkpt>
      <trkpt lat="40.313983" lon="-4.804183">
        <ele>2581.0</ele>
        <time>2018-06-24T14:12:50Z</time>
      </trkpt>
      <trkpt lat="40.314000" lon="-4.804267">
        <ele>2582.0</ele>
        <time>2018-06-24T14:12:51Z</time>
      </trkpt>
      <trkpt lat="40.314067" lon="-4.804367">
        <ele>2583.0</ele>
        <time>2018-06-24T14:12:52Z</time>
      </trkpt>
      <trkpt lat="40.314150" lon="-4.804433">
        <ele>2584.0</ele>
        <time>2018-06-24T14:12:53Z</time>
      </trkpt>
      <trkpt lat="40.314250" lon="-4.804450">
        <ele>2585.0</ele>
        <time>2018-06-24T14:12:54Z</time>
      </trkpt>
      <trkpt lat="40.314367" lon="-4.804433">
        <ele>2587.0</ele>
        <time>2018-06-24T14:12:55Z</time>
      </trkpt>
      <trkpt lat="40.314467" lon="-4.804383">
        <ele>2589.0</ele>
        <time>2018-06-24T14:12:56Z</time>
      </trkpt>
      <trkpt lat="40.314550" lon="-4.804300">
        <ele>2591.0</ele>
        <time>2018-06-24T14:12:57Z</time>
      </trkpt>
      <trkpt lat="40.314600" lon="-4.804183">
        <ele>2593.0</ele>
        <time>2018-06-24T14:12:58Z</time>
      </trkpt>
      <trkpt lat="40.314650" lon="-4.804067">
        <ele>2594.0</ele>
        <time>2018-06-24T14:12:59Z</time>
      </trkpt>
      <trkpt lat="40.314650" lon="-4.803917">
        <ele>2595.0</ele>
        <time>2018-06-24T14:13:00Z</time>
      </trkpt>
      <trkpt lat="40.314617" lon="-4.803767">
        <ele>2596.0</ele>
        <time>2018-06-24T14:13:01Z</time>
      </trkpt>
      <trkpt lat="40.314550" lon="-4.803617">
        <ele>2599.0</ele>
        <time>2018-06-24T14:13:02Z</time>
      </trkpt>
      <trkpt lat="40.314467" lon="-4.803517">
        <ele>2601.0</ele>
        <time>2018-06-24T14:13:03Z</time>
      </trkpt>
      <trkpt lat="40.314367" lon="-4.803450">
        <ele>2604.0</ele>
        <time>2018-06-24T14:13:04Z</time>
      </trkpt>
      <trkpt lat="40.314267" lon="-4.803433">
        <ele>2606.0</ele>
        <time>2018-06-24T14:13:05Z</time>
      </trkpt>
      <trkpt lat="40.314167" lon="-4.803450">
        <ele>2608.0</ele>
        <time>2018-06-24T14:13:06Z</time>
      </trkpt>
      <trkpt lat="40.314067" lon="-4.803483">
        <ele>2610.0</ele>
        <time>2018-06-24T14:13:07Z</time>
      </trkpt>
      <trkpt lat="40.313983" lon="-4.803567">
        <ele>2611.0</ele>
        <time>2018-06-24T14:13:08Z</time>
      </trkpt>
      <trkpt lat="40.313933" lon="-4.803650">
        <ele>2612.0</ele>
        <time>2018-06-24T14:13:09Z</time>
      </trkpt>
      <trkpt lat="40.313900" lon="-4.803767">
        <ele>2613.0</ele>
        <time>2018-06-24T14:13:10Z</time>
      </trkpt>
      <trkpt lat="40.313900" lon="-4.803900">
        <ele>2613.0</ele>
        <time>2018-06-24T14:13:11Z</time>
      </trkpt>
      <trkpt lat="40.313950" lon="-4.804000">
        <ele>2613.0</ele>
        <time>2018-06-24T14:13:12Z</time>
      </trkpt>
      <trkpt lat="40.314017" lon="-4.804100">
        <ele>2614.0</ele>
        <time>2018-06-24T14:13:13Z</time>
      </trkpt>
      <trkpt lat="40.314100" lon="-4.804133">
        <ele>2615.0</ele>
        <time>2018-06-24T14:13:14Z</time>
      </trkpt>
      <trkpt lat="40.314200" lon="-4.804150">
        <ele>2616.0</ele>
        <time>2018-06-24T14:13:15Z</time>
      </trkpt>
      <trkpt lat="40.314300" lon="-4.804117">
        <ele>2617.0</ele>
        <time>2018-06-24T14:13:16Z</time>
      </trkpt>
      <trkpt lat="40.314400" lon="-4.804033">
        <ele>2618.0</ele>
        <time>2018-06-24T14:13:17Z</time>
      </trkpt>
      <trkpt lat="40.314467" lon="-4.803933">
        <ele>2619.0</ele>
        <time>2018-06-24T14:13:18Z</time>
      </trkpt>
      <trkpt lat="40.314517" lon="-4.803783">
        <ele>2621.0</ele>
        <time>2018-06-24T14:13:19Z</time>
      </trkpt>
      <trkpt lat="40.314533" lon="-4.803650">
        <ele>2623.0</ele>
        <time>2018-06-24T14:13:20Z</time>
      </trkpt>
      <trkpt lat="40.314533" lon="-4.803517">
        <ele>2625.0</ele>
        <time>2018-06-24T14:13:21Z</time>
      </trkpt>
      <trkpt lat="40.314517" lon="-4.803383">
        <ele>2627.0</ele>
        <time>2018-06-24T14:13:22Z</time>
      </trkpt>
      <trkpt lat="40.314467" lon="-4.803267">
        <ele>2628.0</ele>
        <time>2018-06-24T14:13:23Z</time>
      </trkpt>
      <trkpt lat="40.314383" lon="-4.803150">
        <ele>2628.0</ele>
        <time>2018-06-24T14:13:24Z</time>
      </trkpt>
      <trkpt lat="40.314300" lon="-4.803067">
        <ele>2629.0</ele>
        <time>2018-06-24T14:13:25Z</time>
      </trkpt>
      <trkpt lat="40.314183" lon="-4.803017">
        <ele>2631.0</ele>
        <time>2018-06-24T14:13:26Z</time>
      </trkpt>
      <trkpt lat="40.314083" lon="-4.803017">
        <ele>2633.0</ele>
        <time>2018-06-24T14:13:27Z</time>
      </trkpt>
      <trkpt lat="40.313983" lon="-4.803050">
        <ele>2635.0</ele>
        <time>2018-06-24T14:13:28Z</time>
      </trkpt>
      <trkpt lat="40.313900" lon="-4.803117">
        <ele>2636.0</ele>
        <time>2018-06-24T14:13:29Z</time>
      </trkpt>
      <trkpt lat="40.313850" lon="-4.803217">
        <ele>2637.0</ele>
        <time>2018-06-24T14:13:30Z</time>
      </trkpt>
      <trkpt lat="40.313800" lon="-4.803317">
        <ele>2638.0</ele>
        <time>2018-06-24T14:13:31Z</time>
      </trkpt>
      <trkpt lat="40.313800" lon="-4.803433">
        <ele>2638.0</ele>
        <time>2018-06-24T14:13:32Z</time>
      </trkpt>
      <trkpt lat="40.313833" lon="-4.803550">
        <ele>2638.0</ele>
        <time>2018-06-24T14:13:33Z</time>
      </trkpt>
      <trkpt lat="40.313883" lon="-4.803650">
        <ele>2638.0</ele>
        <time>2018-06-24T14:13:34Z</time>
      </trkpt>
      <trkpt lat="40.313967" lon="-4.803700">
        <ele>2639.0</ele>
        <time>2018-06-24T14:13:35Z</time>
      </trkpt>
      <trkpt lat="40.314067" lon="-4.803717">
        <ele>2640.0</ele>
        <time>2018-06-24T14:13:36Z</time>
      </trkpt>
      <trkpt lat="40.314167" lon="-4.803683">
        <ele>2641.0</ele>
        <time>2018-06-24T14:13:37Z</time>
      </trkpt>
      <trkpt lat="40.314267" lon="-4.803617">
        <ele>2642.0</ele>
        <time>2018-06-24T14:13:38Z</time>
      </trkpt>
      <trkpt lat="40.314333" lon="-4.803500">
        <ele>2644.0</ele>
        <time>2018-06-24T14:13:39Z</time>
      </trkpt>
      <trkpt lat="40.314400" lon="-4.803383">
        <ele>2646.0</ele>
        <time>2018-06-24T14:13:40Z</time>
      </trkpt>
      <trkpt lat="40.314417" lon="-4.803233">
        <ele>2648.0</ele>
        <time>2018-06-24T14:13:41Z</time>
      </trkpt>
      <trkpt lat="40.314417" lon="-4.803083">
        <ele>2651.0</ele>
        <time>2018-06-24T14:13:42Z</time>
      </trkpt>
      <trkpt lat="40.314383" lon="-4.802950">
        <ele>2653.0</ele>
        <time>2018-06-24T14:13:43Z</time>
      </trkpt>
      <trkpt lat="40.314317" lon="-4.802833">
        <ele>2654.0</ele>
        <time>2018-06-24T14:13:44Z</time>
      </trkpt>
      <trkpt lat="40.314217" lon="-4.802750">
        <ele>2654.0</ele>
        <time>2018-06-24T14:13:45Z</time>
      </trkpt>
      <trkpt lat="40.314117" lon="-4.802700">
        <ele>2655.0</ele>
        <time>2018-06-24T14:13:46Z</time>
      </trkpt>
      <trkpt lat="40.314000" lon="-4.802700">
        <ele>2657.0</ele>
        <time>2018-06-24T14:13:47Z</time>
      </trkpt>
      <trkpt lat="40.313900" lon="-4.802733">
        <ele>2659.0</ele>
        <time>2018-06-24T14:13:48Z</time>
      </trkpt>
      <trkpt lat="40.313817" lon="-4.802783">
        <ele>2660.0</ele>
        <time>2018-06-24T14:13:49Z</time>
      </trkpt>
      <trkpt lat="40.313767" lon="-4.802850">
        <ele>2661.0</ele>
        <time>2018-06-24T14:13:50Z</time>
      </trkpt>
      <trkpt lat="40.313717" lon="-4.802950">
        <ele>2661.0</ele>
        <time>2018-06-24T14:13:51Z</time>
      </trkpt>
      <trkpt lat="40.313683" lon="-4.803050">
        <ele>2660.0</ele>
        <time>2018-06-24T14:13:52Z</time>
      </trkpt>
      <trkpt lat="40.313683" lon="-4.803167">
        <ele>2660.0</ele>
        <time>2018-06-24T14:13:53Z</time>
      </trkpt>
      <trkpt lat="40.313717" lon="-4.803283">
        <ele>2659.0</ele>
        <time>2018-06-24T14:13:54Z</time>
      </trkpt>
      <trkpt lat="40.313783" lon="-4.803367">
        <ele>2659.0</ele>
        <time>2018-06-24T14:13:55Z</time>
      </trkpt>
      <trkpt lat="40.313867" lon="-4.803417">
        <ele>2659.0</ele>
        <time>2018-06-24T14:13:56Z</time>
      </trkpt>
      <trkpt lat="40.313950" lon="-4.803417">
        <ele>2660.0</ele>
        <time>2018-06-24T14:13:57Z</time>
      </trkpt>
      <trkpt lat="40.314033" lon="-4.803367">
        <ele>2661.0</ele>
        <time>2018-06-24T14:13:58Z</time>
      </trkpt>
      <trkpt lat="40.314117" lon="-4.803300">
        <ele>2661.0</ele>
        <time>2018-06-24T14:13:59Z</time>
      </trkpt>
      <trkpt lat="40.314183" lon="-4.803183">
        <ele>2662.0</ele>
        <time>2018-06-24T14:14:00Z</time>
      </trkpt>
      <trkpt lat="40.314217" lon="-4.803050">
        <ele>2664.0</ele>
        <time>2018-06-24T14:14:01Z</time>
      </trkpt>
      <trkpt lat="40.314233" lon="-4.802917">
        <ele>2666.0</ele>
        <time>2018-06-24T14:14:02Z</time>
      </trkpt>
      <trkpt lat="40.314200" lon="-4.802783">
        <ele>2667.0</ele>
        <time>2018-06-24T14:14:03Z</time>
      </trkpt>
      <trkpt lat="40.314133" lon="-4.802650">
        <ele>2668.0</ele>
        <time>2018-06-24T14:14:04Z</time>
      </trkpt>
      <trkpt lat="40.314033" lon="-4.802550">
        <ele>2668.0</ele>
        <time>2018-06-24T14:14:05Z</time>
      </trkpt>
      <trkpt lat="40.313917" lon="-4.802517">
        <ele>2669.0</ele>
        <time>2018-06-24T14:14:06Z</time>
      </trkpt>
      <trkpt lat="40.313817" lon="-4.802500">
        <ele>2671.0</ele>
        <time>2018-06-24T14:14:07Z</time>
      </trkpt>
      <trkpt lat="40.313717" lon="-4.802517">
        <ele>2673.0</ele>
        <time>2018-06-24T14:14:08Z</time>
      </trkpt>
      <trkpt lat="40.313650" lon="-4.802533">
        <ele>2674.0</ele>
        <time>2018-06-24T14:14:09Z</time>
      </trkpt>
      <trkpt lat="40.313567" lon="-4.802567">
        <ele>2673.0</ele>
        <time>2018-06-24T14:14:10Z</time>
      </trkpt>
      <trkpt lat="40.313483" lon="-4.802600">
        <ele>2672.0</ele>
        <time>2018-06-24T14:14:11Z</time>
      </trkpt>
      <trkpt lat="40.313400" lon="-4.802667">
        <ele>2670.0</ele>
        <time>2018-06-24T14:14:12Z</time>
      </trkpt>
      <trkpt lat="40.313317" lon="-4.802733">
        <ele>2669.0</ele>
        <time>2018-06-24T14:14:13Z</time>
      </trkpt>
      <trkpt lat="40.313250" lon="-4.802833">
        <ele>2668.0</ele>
        <time>2018-06-24T14:14:14Z</time>
      </trkpt>
      <trkpt lat="40.313183" lon="-4.802933">
        <ele>2667.0</ele>
        <time>2018-06-24T14:14:15Z</time>
      </trkpt>
      <trkpt lat="40.313117" lon="-4.803017">
        <ele>2666.0</ele>
        <time>2018-06-24T14:14:16Z</time>
      </trkpt>
      <trkpt lat="40.313033" lon="-4.803100">
        <ele>2665.0</ele>
        <time>2018-06-24T14:14:17Z</time>
      </trkpt>
      <trkpt lat="40.312950" lon="-4.803183">
        <ele>2664.0</ele>
        <time>2018-06-24T14:14:18Z</time>
      </trkpt>
      <trkpt lat="40.312867" lon="-4.803267">
        <ele>2664.0</ele>
        <time>2018-06-24T14:14:19Z</time>
      </trkpt>
      <trkpt lat="40.312783" lon="-4.803350">
        <ele>2664.0</ele>
        <time>2018-06-24T14:14:20Z</time>
      </trkpt>
      <trkpt lat="40.312700" lon="-4.803400">
        <ele>2666.0</ele>
        <time>2018-06-24T14:14:21Z</time>
      </trkpt>
      <trkpt lat="40.312617" lon="-4.803450">
        <ele>2667.0</ele>
        <time>2018-06-24T14:14:22Z</time>
      </trkpt>
      <trkpt lat="40.312533" lon="-4.803483">
        <ele>2667.0</ele>
        <time>2018-06-24T14:14:23Z</time>
      </trkpt>
      <trkpt lat="40.312450" lon="-4.803517">
        <ele>2666.0</ele>
        <time>2018-06-24T14:14:24Z</time>
      </trkpt>
      <trkpt lat="40.312367" lon="-4.803567">
        <ele>2666.0</ele>
        <time>2018-06-24T14:14:25Z</time>
      </trkpt>
      <trkpt lat="40.312267" lon="-4.803617">
        <ele>2665.0</ele>
        <time>2018-06-24T14:14:26Z</time>
      </trkpt>
      <trkpt lat="40.312183" lon="-4.803667">
        <ele>2664.0</ele>
        <time>2018-06-24T14:14:27Z</time>
      </trkpt>
      <trkpt lat="40.312083" lon="-4.803700">
        <ele>2664.0</ele>
        <time>2018-06-24T14:14:28Z</time>
      </trkpt>
      <trkpt lat="40.311983" lon="-4.803717">
        <ele>2663.0</ele>
        <time>2018-06-24T14:14:29Z</time>
      </trkpt>
      <trkpt lat="40.311883" lon="-4.803733">
        <ele>2662.0</ele>
        <time>2018-06-24T14:14:30Z</time>
      </trkpt>
      <trkpt lat="40.311800" lon="-4.803750">
        <ele>2662.0</ele>
        <time>2018-06-24T14:14:31Z</time>
      </trkpt>
      <trkpt lat="40.311700" lon="-4.803800">
        <ele>2661.0</ele>
        <time>2018-06-24T14:14:32Z</time>
      </trkpt>
      <trkpt lat="40.311617" lon="-4.803850">
        <ele>2660.0</ele>
        <time>2018-06-24T14:14:33Z</time>
      </trkpt>
      <trkpt lat="40.311517" lon="-4.803900">
        <ele>2659.0</ele>
        <time>2018-06-24T14:14:34Z</time>
      </trkpt>
      <trkpt lat="40.311417" lon="-4.803950">
        <ele>2659.0</ele>
        <time>2018-06-24T14:14:35Z</time>
      </trkpt>
      <trkpt lat="40.311333" lon="-4.804000">
        <ele>2658.0</ele>
        <time>2018-06-24T14:14:36Z</time>
      </trkpt>
      <trkpt lat="40.311250" lon="-4.804033">
        <ele>2658.0</ele>
        <time>2018-06-24T14:14:37Z</time>
      </trkpt>
      <trkpt lat="40.311150" lon="-4.804083">
        <ele>2657.0</ele>
        <time>2018-06-24T14:14:38Z</time>
      </trkpt>
      <trkpt lat="40.311067" lon="-4.804117">
        <ele>2656.0</ele>
        <time>2018-06-24T14:14:39Z</time>
      </trkpt>
      <trkpt lat="40.310983" lon="-4.804150">
        <ele>2655.0</ele>
        <time>2018-06-24T14:14:40Z</time>
      </trkpt>
      <trkpt lat="40.310900" lon="-4.804183">
        <ele>2653.0</ele>
        <time>2018-06-24T14:14:41Z</time>
      </trkpt>
      <trkpt lat="40.310800" lon="-4.804217">
        <ele>2650.0</ele>
        <time>2018-06-24T14:14:42Z</time>
      </trkpt>
      <trkpt lat="40.310700" lon="-4.804267">
        <ele>2648.0</ele>
        <time>2018-06-24T14:14:43Z</time>
      </trkpt>
      <trkpt lat="40.310617" lon="-4.804317">
        <ele>2646.0</ele>
        <time>2018-06-24T14:14:44Z</time>
      </trkpt>
      <trkpt lat="40.310517" lon="-4.804367">
        <ele>2644.0</ele>
        <time>2018-06-24T14:14:45Z</time>
      </trkpt>
      <trkpt lat="40.310417" lon="-4.804417">
        <ele>2643.0</ele>
        <time>2018-06-24T14:14:46Z</time>
      </trkpt>
      <trkpt lat="40.310333" lon="-4.804467">
        <ele>2643.0</ele>
        <time>2018-06-24T14:14:47Z</time>
      </trkpt>
      <trkpt lat="40.310250" lon="-4.804517">
        <ele>2641.0</ele>
        <time>2018-06-24T14:14:48Z</time>
      </trkpt>
      <trkpt lat="40.310167" lon="-4.804583">
        <ele>2639.0</ele>
        <time>2018-06-24T14:14:49Z</time>
      </trkpt>
      <trkpt lat="40.310083" lon="-4.804650">
        <ele>2638.0</ele>
        <time>2018-06-24T14:14:50Z</time>
      </trkpt>
      <trkpt lat="40.310000" lon="-4.804733">
        <ele>2637.0</ele>
        <time>2018-06-24T14:14:51Z</time>
      </trkpt>
      <trkpt lat="40.309917" lon="-4.804800">
        <ele>2638.0</ele>
        <time>2018-06-24T14:14:52Z</time>
      </trkpt>
      <trkpt lat="40.309850" lon="-4.804867">
        <ele>2639.0</ele>
        <time>2018-06-24T14:14:53Z</time>
      </trkpt>
      <trkpt lat="40.309783" lon="-4.804917">
        <ele>2639.0</ele>
        <time>2018-06-24T14:14:54Z</time>
      </trkpt>
      <trkpt lat="40.309717" lon="-4.804950">
        <ele>2639.0</ele>
        <time>2018-06-24T14:14:55Z</time>
      </trkpt>
      <trkpt lat="40.309633" lon="-4.805000">
        <ele>2640.0</ele>
        <time>2018-06-24T14:14:56Z</time>
      </trkpt>
      <trkpt lat="40.309567" lon="-4.805050">
        <ele>2641.0</ele>
        <time>2018-06-24T14:14:57Z</time>
      </trkpt>
      <trkpt lat="40.309483" lon="-4.805100">
        <ele>2642.0</ele>
        <time>2018-06-24T14:14:58Z</time>
      </trkpt>
      <trkpt lat="40.309417" lon="-4.805150">
        <ele>2645.0</ele>
        <time>2018-06-24T14:14:59Z</time>
      </trkpt>
      <trkpt lat="40.309350" lon="-4.805183">
        <ele>2647.0</ele>
        <time>2018-06-24T14:15:00Z</time>
      </trkpt>
      <trkpt lat="40.309300" lon="-4.805217">
        <ele>2650.0</ele>
        <time>2018-06-24T14:15:01Z</time>
      </trkpt>
      <trkpt lat="40.309267" lon="-4.805233">
        <ele>2652.0</ele>
        <time>2018-06-24T14:15:02Z</time>
      </trkpt>
      <trkpt lat="40.309233" lon="-4.805283">
        <ele>2654.0</ele>
        <time>2018-06-24T14:15:03Z</time>
      </trkpt>
      <trkpt lat="40.309233" lon="-4.805333">
        <ele>2654.0</ele>
        <time>2018-06-24T14:15:04Z</time>
      </trkpt>
      <trkpt lat="40.309267" lon="-4.805400">
        <ele>2653.0</ele>
        <time>2018-06-24T14:15:05Z</time>
      </trkpt>
      <trkpt lat="40.309317" lon="-4.805450">
        <ele>2653.0</ele>
        <time>2018-06-24T14:15:06Z</time>
      </trkpt>
      <trkpt lat="40.309400" lon="-4.805483">
        <ele>2655.0</ele>
        <time>2018-06-24T14:15:07Z</time>
      </trkpt>
      <trkpt lat="40.309483" lon="-4.805467">
        <ele>2656.0</ele>
        <time>2018-06-24T14:15:08Z</time>
      </trkpt>
      <trkpt lat="40.309583" lon="-4.805383">
        <ele>2657.0</ele>
        <time>2018-06-24T14:15:09Z</time>
      </trkpt>
      <trkpt lat="40.309650" lon="-4.805283">
        <ele>2659.0</ele>
        <time>2018-06-24T14:15:10Z</time>
      </trkpt>
      <trkpt lat="40.309700" lon="-4.805117">
        <ele>2661.0</ele>
        <time>2018-06-24T14:15:11Z</time>
      </trkpt>
      <trkpt lat="40.309700" lon="-4.804950">
        <ele>2663.0</ele>
        <time>2018-06-24T14:15:12Z</time>
      </trkpt>
      <trkpt lat="40.309683" lon="-4.804767">
        <ele>2664.0</ele>
        <time>2018-06-24T14:15:13Z</time>
      </trkpt>
      <trkpt lat="40.309617" lon="-4.804633">
        <ele>2665.0</ele>
        <time>2018-06-24T14:15:14Z</time>
      </trkpt>
      <trkpt lat="40.309550" lon="-4.804533">
        <ele>2667.0</ele>
        <time>2018-06-24T14:15:15Z</time>
      </trkpt>
      <trkpt lat="40.309450" lon="-4.804433">
        <ele>2668.0</ele>
        <time>2018-06-24T14:15:16Z</time>
      </trkpt>
      <trkpt lat="40.309367" lon="-4.804367">
        <ele>2670.0</ele>
        <time>2018-06-24T14:15:17Z</time>
      </trkpt>
      <trkpt lat="40.309283" lon="-4.804283">
        <ele>2672.0</ele>
        <time>2018-06-24T14:15:18Z</time>
      </trkpt>
      <trkpt lat="40.309200" lon="-4.804233">
        <ele>2673.0</ele>
        <time>2018-06-24T14:15:19Z</time>
      </trkpt>
      <trkpt lat="40.309100" lon="-4.804183">
        <ele>2673.0</ele>
        <time>2018-06-24T14:15:20Z</time>
      </trkpt>
      <trkpt lat="40.309017" lon="-4.804183">
        <ele>2671.0</ele>
        <time>2018-06-24T14:15:21Z</time>
      </trkpt>
      <trkpt lat="40.308967" lon="-4.804233">
        <ele>2662.0</ele>
        <time>2018-06-24T14:15:22Z</time>
      </trkpt>
      <trkpt lat="40.308933" lon="-4.804333">
        <ele>2658.0</ele>
        <time>2018-06-24T14:15:23Z</time>
      </trkpt>
      <trkpt lat="40.308900" lon="-4.804433">
        <ele>2658.0</ele>
        <time>2018-06-24T14:15:24Z</time>
      </trkpt>
      <trkpt lat="40.308867" lon="-4.804533">
        <ele>2660.0</ele>
        <time>2018-06-24T14:15:25Z</time>
      </trkpt>
      <trkpt lat="40.308833" lon="-4.804600">
        <ele>2661.0</ele>
        <time>2018-06-24T14:15:26Z</time>
      </trkpt>
      <trkpt lat="40.308783" lon="-4.804650">
        <ele>2660.0</ele>
        <time>2018-06-24T14:15:27Z</time>
      </trkpt>
      <trkpt lat="40.308733" lon="-4.804700">
        <ele>2658.0</ele>
        <time>2018-06-24T14:15:28Z</time>
      </trkpt>
      <trkpt lat="40.308683" lon="-4.804750">
        <ele>2656.0</ele>
        <time>2018-06-24T14:15:29Z</time>
      </trkpt>
      <trkpt lat="40.308600" lon="-4.804817">
        <ele>2655.0</ele>
        <time>2018-06-24T14:15:30Z</time>
      </trkpt>
      <trkpt lat="40.308533" lon="-4.804867">
        <ele>2654.0</ele>
        <time>2018-06-24T14:15:31Z</time>
      </trkpt>
      <trkpt lat="40.308450" lon="-4.804900">
        <ele>2655.0</ele>
        <time>2018-06-24T14:15:32Z</time>
      </trkpt>
      <trkpt lat="40.308400" lon="-4.804933">
        <ele>2656.0</ele>
        <time>2018-06-24T14:15:33Z</time>
      </trkpt>
      <trkpt lat="40.308367" lon="-4.804967">
        <ele>2657.0</ele>
        <time>2018-06-24T14:15:34Z</time>
      </trkpt>
      <trkpt lat="40.308333" lon="-4.805000">
        <ele>2657.0</ele>
        <time>2018-06-24T14:15:35Z</time>
      </trkpt>
      <trkpt lat="40.308300" lon="-4.805033">
        <ele>2658.0</ele>
        <time>2018-06-24T14:15:36Z</time>
      </trkpt>
      <trkpt lat="40.308267" lon="-4.805050">
        <ele>2657.0</ele>
        <time>2018-06-24T14:15:37Z</time>
      </trkpt>
      <trkpt lat="40.308217" lon="-4.805083">
        <ele>2656.0</ele>
        <time>2018-06-24T14:15:38Z</time>
      </trkpt>
      <trkpt lat="40.308183" lon="-4.805133">
        <ele>2654.0</ele>
        <time>2018-06-24T14:15:39Z</time>
      </trkpt>
      <trkpt lat="40.308133" lon="-4.805167">
        <ele>2652.0</ele>
        <time>2018-06-24T14:15:40Z</time>
      </trkpt>
      <trkpt lat="40.308067" lon="-4.805200">
        <ele>2652.0</ele>
        <time>2018-06-24T14:15:41Z</time>
      </trkpt>
      <trkpt lat="40.308017" lon="-4.805233">
        <ele>2652.0</ele>
        <time>2018-06-24T14:15:42Z</time>
      </trkpt>
      <trkpt lat="40.307967" lon="-4.805250">
        <ele>2652.0</ele>
        <time>2018-06-24T14:15:43Z</time>
      </trkpt>
      <trkpt lat="40.307900" lon="-4.805267">
        <ele>2651.0</ele>
        <time>2018-06-24T14:15:44Z</time>
      </trkpt>
      <trkpt lat="40.307833" lon="-4.805283">
        <ele>2650.0</ele>
        <time>2018-06-24T14:15:45Z</time>
      </trkpt>
      <trkpt lat="40.307767" lon="-4.805283">
        <ele>2649.0</ele>
        <time>2018-06-24T14:15:46Z</time>
      </trkpt>
      <trkpt lat="40.307717" lon="-4.805300">
        <ele>2648.0</ele>
        <time>2018-06-24T14:15:47Z</time>
      </trkpt>
      <trkpt lat="40.307667" lon="-4.805350">
        <ele>2646.0</ele>
        <time>2018-06-24T14:15:48Z</time>
      </trkpt>
      <trkpt lat="40.307617" lon="-4.805383">
        <ele>2642.0</ele>
        <time>2018-06-24T14:15:49Z</time>
      </trkpt>
      <trkpt lat="40.307550" lon="-4.805433">
        <ele>2639.0</ele>
        <time>2018-06-24T14:15:50Z</time>
      </trkpt>
      <trkpt lat="40.307467" lon="-4.805483">
        <ele>2637.0</ele>
        <time>2018-06-24T14:15:51Z</time>
      </trkpt>
      <trkpt lat="40.307400" lon="-4.805517">
        <ele>2636.0</ele>
        <time>2018-06-24T14:15:52Z</time>
      </trkpt>
      <trkpt lat="40.307317" lon="-4.805567">
        <ele>2634.0</ele>
        <time>2018-06-24T14:15:53Z</time>
      </trkpt>
      <trkpt lat="40.307233" lon="-4.805600">
        <ele>2632.0</ele>
        <time>2018-06-24T14:15:54Z</time>
      </trkpt>
      <trkpt lat="40.307150" lon="-4.805650">
        <ele>2630.0</ele>
        <time>2018-06-24T14:15:55Z</time>
      </trkpt>
      <trkpt lat="40.307083" lon="-4.805700">
        <ele>2628.0</ele>
        <time>2018-06-24T14:15:56Z</time>
      </trkpt>
      <trkpt lat="40.307000" lon="-4.805767">
        <ele>2627.0</ele>
        <time>2018-06-24T14:15:57Z</time>
      </trkpt>
      <trkpt lat="40.306933" lon="-4.805817">
        <ele>2626.0</ele>
        <time>2018-06-24T14:15:58Z</time>
      </trkpt>
      <trkpt lat="40.306883" lon="-4.805867">
        <ele>2624.0</ele>
        <time>2018-06-24T14:15:59Z</time>
      </trkpt>
      <trkpt lat="40.306817" lon="-4.805917">
        <ele>2621.0</ele>
        <time>2018-06-24T14:16:00Z</time>
      </trkpt>
      <trkpt lat="40.306733" lon="-4.805983">
        <ele>2617.0</ele>
        <time>2018-06-24T14:16:01Z</time>
      </trkpt>
      <trkpt lat="40.306650" lon="-4.806050">
        <ele>2614.0</ele>
        <time>2018-06-24T14:16:02Z</time>
      </trkpt>
      <trkpt lat="40.306567" lon="-4.806117">
        <ele>2611.0</ele>
        <time>2018-06-24T14:16:03Z</time>
      </trkpt>
      <trkpt lat="40.306500" lon="-4.806167">
        <ele>2609.0</ele>
        <time>2018-06-24T14:16:04Z</time>
      </trkpt>
      <trkpt lat="40.306417" lon="-4.806233">
        <ele>2607.0</ele>
        <time>2018-06-24T14:16:05Z</time>
      </trkpt>
      <trkpt lat="40.306333" lon="-4.806267">
        <ele>2606.0</ele>
        <time>2018-06-24T14:16:06Z</time>
      </trkpt>
      <trkpt lat="40.306250" lon="-4.806317">
        <ele>2605.0</ele>
        <time>2018-06-24T14:16:07Z</time>
      </trkpt>
      <trkpt lat="40.306167" lon="-4.806350">
        <ele>2602.0</ele>
        <time>2018-06-24T14:16:08Z</time>
      </trkpt>
      <trkpt lat="40.306083" lon="-4.806400">
        <ele>2599.0</ele>
        <time>2018-06-24T14:16:09Z</time>
      </trkpt>
      <trkpt lat="40.306000" lon="-4.806450">
        <ele>2597.0</ele>
        <time>2018-06-24T14:16:10Z</time>
      </trkpt>
      <trkpt lat="40.305917" lon="-4.806500">
        <ele>2594.0</ele>
        <time>2018-06-24T14:16:11Z</time>
      </trkpt>
      <trkpt lat="40.305817" lon="-4.806550">
        <ele>2593.0</ele>
        <time>2018-06-24T14:16:12Z</time>
      </trkpt>
      <trkpt lat="40.305733" lon="-4.806600">
        <ele>2592.0</ele>
        <time>2018-06-24T14:16:13Z</time>
      </trkpt>
      <trkpt lat="40.305633" lon="-4.806633">
        <ele>2591.0</ele>
        <time>2018-06-24T14:16:14Z</time>
      </trkpt>
      <trkpt lat="40.305550" lon="-4.806667">
        <ele>2590.0</ele>
        <time>2018-06-24T14:16:15Z</time>
      </trkpt>
      <trkpt lat="40.305450" lon="-4.806717">
        <ele>2588.0</ele>
        <time>2018-06-24T14:16:16Z</time>
      </trkpt>
      <trkpt lat="40.305367" lon="-4.806767">
        <ele>2587.0</ele>
        <time>2018-06-24T14:16:17Z</time>
      </trkpt>
      <trkpt lat="40.305267" lon="-4.806817">
        <ele>2586.0</ele>
        <time>2018-06-24T14:16:18Z</time>
      </trkpt>
      <trkpt lat="40.305183" lon="-4.806867">
        <ele>2584.0</ele>
        <time>2018-06-24T14:16:19Z</time>
      </trkpt>
      <trkpt lat="40.305100" lon="-4.806917">
        <ele>2583.0</ele>
        <time>2018-06-24T14:16:20Z</time>
      </trkpt>
      <trkpt lat="40.305017" lon="-4.806983">
        <ele>2582.0</ele>
        <time>2018-06-24T14:16:21Z</time>
      </trkpt>
      <trkpt lat="40.304933" lon="-4.807033">
        <ele>2581.0</ele>
        <time>2018-06-24T14:16:22Z</time>
      </trkpt>
      <trkpt lat="40.304850" lon="-4.807100">
        <ele>2580.0</ele>
        <time>2018-06-24T14:16:23Z</time>
      </trkpt>
      <trkpt lat="40.304767" lon="-4.807167">
        <ele>2578.0</ele>
        <time>2018-06-24T14:16:24Z</time>
      </trkpt>
      <trkpt lat="40.304683" lon="-4.807217">
        <ele>2577.0</ele>
        <time>2018-06-24T14:16:25Z</time>
      </trkpt>
      <trkpt lat="40.304583" lon="-4.807283">
        <ele>2575.0</ele>
        <time>2018-06-24T14:16:26Z</time>
      </trkpt>
      <trkpt lat="40.304500" lon="-4.807333">
        <ele>2575.0</ele>
        <time>2018-06-24T14:16:27Z</time>
      </trkpt>
      <trkpt lat="40.304417" lon="-4.807383">
        <ele>2574.0</ele>
        <time>2018-06-24T14:16:28Z</time>
      </trkpt>
      <trkpt lat="40.304333" lon="-4.807417">
        <ele>2572.0</ele>
        <time>2018-06-24T14:16:29Z</time>
      </trkpt>
      <trkpt lat="40.304250" lon="-4.807467">
        <ele>2570.0</ele>
        <time>2018-06-24T14:16:30Z</time>
      </trkpt>
      <trkpt lat="40.304183" lon="-4.807517">
        <ele>2568.0</ele>
        <time>2018-06-24T14:16:31Z</time>
      </trkpt>
      <trkpt lat="40.304100" lon="-4.807567">
        <ele>2566.0</ele>
        <time>2018-06-24T14:16:32Z</time>
      </trkpt>
      <trkpt lat="40.304017" lon="-4.807617">
        <ele>2564.0</ele>
        <time>2018-06-24T14:16:33Z</time>
      </trkpt>
      <trkpt lat="40.303933" lon="-4.807667">
        <ele>2562.0</ele>
        <time>2018-06-24T14:16:34Z</time>
      </trkpt>
      <trkpt lat="40.303850" lon="-4.807733">
        <ele>2559.0</ele>
        <time>2018-06-24T14:16:35Z</time>
      </trkpt>
      <trkpt lat="40.303783" lon="-4.807800">
        <ele>2558.0</ele>
        <time>2018-06-24T14:16:36Z</time>
      </trkpt>
      <trkpt lat="40.303700" lon="-4.807867">
        <ele>2556.0</ele>
        <time>2018-06-24T14:16:37Z</time>
      </trkpt>
      <trkpt lat="40.303617" lon="-4.807933">
        <ele>2554.0</ele>
        <time>2018-06-24T14:16:38Z</time>
      </trkpt>
      <trkpt lat="40.303533" lon="-4.807983">
        <ele>2552.0</ele>
        <time>2018-06-24T14:16:39Z</time>
      </trkpt>
      <trkpt lat="40.303467" lon="-4.808050">
        <ele>2550.0</ele>
        <time>2018-06-24T14:16:40Z</time>
      </trkpt>
      <trkpt lat="40.303383" lon="-4.808100">
        <ele>2548.0</ele>
        <time>2018-06-24T14:16:41Z</time>
      </trkpt>
      <trkpt lat="40.303300" lon="-4.808167">
        <ele>2546.0</ele>
        <time>2018-06-24T14:16:42Z</time>
      </trkpt>
      <trkpt lat="40.303217" lon="-4.808217">
        <ele>2544.0</ele>
        <time>2018-06-24T14:16:43Z</time>
      </trkpt>
      <trkpt lat="40.303117" lon="-4.808283">
        <ele>2542.0</ele>
        <time>2018-06-24T14:16:44Z</time>
      </trkpt>
      <trkpt lat="40.303033" lon="-4.808350">
        <ele>2542.0</ele>
        <time>2018-06-24T14:16:45Z</time>
      </trkpt>
      <trkpt lat="40.302950" lon="-4.808417">
        <ele>2542.0</ele>
        <time>2018-06-24T14:16:46Z</time>
      </trkpt>
      <trkpt lat="40.302883" lon="-4.808467">
        <ele>2542.0</ele>
        <time>2018-06-24T14:16:47Z</time>
      </trkpt>
      <trkpt lat="40.302800" lon="-4.808533">
        <ele>2541.0</ele>
        <time>2018-06-24T14:16:48Z</time>
      </trkpt>
      <trkpt lat="40.302733" lon="-4.808583">
        <ele>2539.0</ele>
        <time>2018-06-24T14:16:49Z</time>
      </trkpt>
      <trkpt lat="40.302650" lon="-4.808667">
        <ele>2537.0</ele>
        <time>2018-06-24T14:16:50Z</time>
      </trkpt>
      <trkpt lat="40.302583" lon="-4.808733">
        <ele>2535.0</ele>
        <time>2018-06-24T14:16:51Z</time>
      </trkpt>
      <trkpt lat="40.302500" lon="-4.808817">
        <ele>2533.0</ele>
        <time>2018-06-24T14:16:52Z</time>
      </trkpt>
      <trkpt lat="40.302433" lon="-4.808883">
        <ele>2532.0</ele>
        <time>2018-06-24T14:16:53Z</time>
      </trkpt>
      <trkpt lat="40.302367" lon="-4.808950">
        <ele>2531.0</ele>
        <time>2018-06-24T14:16:54Z</time>
      </trkpt>
      <trkpt lat="40.302300" lon="-4.809017">
        <ele>2529.0</ele>
        <time>2018-06-24T14:16:55Z</time>
      </trkpt>
      <trkpt lat="40.302250" lon="-4.809083">
        <ele>2527.0</ele>
        <time>2018-06-24T14:16:56Z</time>
      </trkpt>
      <trkpt lat="40.302183" lon="-4.809150">
        <ele>2524.0</ele>
        <time>2018-06-24T14:16:57Z</time>
      </trkpt>
      <trkpt lat="40.302117" lon="-4.809217">
        <ele>2522.0</ele>
        <time>2018-06-24T14:16:58Z</time>
      </trkpt>
      <trkpt lat="40.302050" lon="-4.809283">
        <ele>2520.0</ele>
        <time>2018-06-24T14:16:59Z</time>
      </trkpt>
      <trkpt lat="40.301983" lon="-4.809367">
        <ele>2518.0</ele>
        <time>2018-06-24T14:17:00Z</time>
      </trkpt>
      <trkpt lat="40.301917" lon="-4.809433">
        <ele>2516.0</ele>
        <time>2018-06-24T14:17:01Z</time>
      </trkpt>
      <trkpt lat="40.301867" lon="-4.809517">
        <ele>2514.0</ele>
        <time>2018-06-24T14:17:02Z</time>
      </trkpt>
      <trkpt lat="40.301800" lon="-4.809583">
        <ele>2512.0</ele>
        <time>2018-06-24T14:17:03Z</time>
      </trkpt>
      <trkpt lat="40.301733" lon="-4.809650">
        <ele>2510.0</ele>
        <time>2018-06-24T14:17:04Z</time>
      </trkpt>
      <trkpt lat="40.301667" lon="-4.809717">
        <ele>2507.0</ele>
        <time>2018-06-24T14:17:05Z</time>
      </trkpt>
      <trkpt lat="40.301600" lon="-4.809800">
        <ele>2505.0</ele>
        <time>2018-06-24T14:17:06Z</time>
      </trkpt>
      <trkpt lat="40.301533" lon="-4.809867">
        <ele>2503.0</ele>
        <time>2018-06-24T14:17:07Z</time>
      </trkpt>
      <trkpt lat="40.301467" lon="-4.809950">
        <ele>2501.0</ele>
        <time>2018-06-24T14:17:08Z</time>
      </trkpt>
      <trkpt lat="40.301400" lon="-4.810017">
        <ele>2500.0</ele>
        <time>2018-06-24T14:17:09Z</time>
      </trkpt>
      <trkpt lat="40.301333" lon="-4.810083">
        <ele>2498.0</ele>
        <time>2018-06-24T14:17:10Z</time>
      </trkpt>
      <trkpt lat="40.301283" lon="-4.810167">
        <ele>2496.0</ele>
        <time>2018-06-24T14:17:11Z</time>
      </trkpt>
      <trkpt lat="40.301217" lon="-4.810233">
        <ele>2494.0</ele>
        <time>2018-06-24T14:17:12Z</time>
      </trkpt>
      <trkpt lat="40.301150" lon="-4.810317">
        <ele>2492.0</ele>
        <time>2018-06-24T14:17:13Z</time>
      </trkpt>
      <trkpt lat="40.301083" lon="-4.810383">
        <ele>2490.0</ele>
        <time>2018-06-24T14:17:14Z</time>
      </trkpt>
      <trkpt lat="40.301017" lon="-4.810467">
        <ele>2489.0</ele>
        <time>2018-06-24T14:17:15Z</time>
      </trkpt>
      <trkpt lat="40.300950" lon="-4.810550">
        <ele>2488.0</ele>
        <time>2018-06-24T14:17:16Z</time>
      </trkpt>
      <trkpt lat="40.300883" lon="-4.810617">
        <ele>2486.0</ele>
        <time>2018-06-24T14:17:17Z</time>
      </trkpt>
      <trkpt lat="40.300817" lon="-4.810700">
        <ele>2486.0</ele>
        <time>2018-06-24T14:17:18Z</time>
      </trkpt>
      <trkpt lat="40.300750" lon="-4.810783">
        <ele>2483.0</ele>
        <time>2018-06-24T14:17:19Z</time>
      </trkpt>
      <trkpt lat="40.300683" lon="-4.810850">
        <ele>2482.0</ele>
        <time>2018-06-24T14:17:20Z</time>
      </trkpt>
      <trkpt lat="40.300617" lon="-4.810933">
        <ele>2481.0</ele>
        <time>2018-06-24T14:17:21Z</time>
      </trkpt>
      <trkpt lat="40.300550" lon="-4.811017">
        <ele>2480.0</ele>
        <time>2018-06-24T14:17:22Z</time>
      </trkpt>
      <trkpt lat="40.300467" lon="-4.811083">
        <ele>2478.0</ele>
        <time>2018-06-24T14:17:23Z</time>
      </trkpt>
      <trkpt lat="40.300400" lon="-4.811150">
        <ele>2477.0</ele>
        <time>2018-06-24T14:17:24Z</time>
      </trkpt>
      <trkpt lat="40.300333" lon="-4.811217">
        <ele>2476.0</ele>
        <time>2018-06-24T14:17:25Z</time>
      </trkpt>
      <trkpt lat="40.300250" lon="-4.811283">
        <ele>2475.0</ele>
        <time>2018-06-24T14:17:26Z</time>
      </trkpt>
      <trkpt lat="40.300183" lon="-4.811333">
        <ele>2475.0</ele>
        <time>2018-06-24T14:17:27Z</time>
      </trkpt>
      <trkpt lat="40.300100" lon="-4.811400">
        <ele>2473.0</ele>
        <time>2018-06-24T14:17:28Z</time>
      </trkpt>
      <trkpt lat="40.300017" lon="-4.811450">
        <ele>2472.0</ele>
        <time>2018-06-24T14:17:29Z</time>
      </trkpt>
      <trkpt lat="40.299950" lon="-4.811500">
        <ele>2470.0</ele>
        <time>2018-06-24T14:17:30Z</time>
      </trkpt>
      <trkpt lat="40.299867" lon="-4.811567">
        <ele>2469.0</ele>
        <time>2018-06-24T14:17:31Z</time>
      </trkpt>
      <trkpt lat="40.299800" lon="-4.811617">
        <ele>2468.0</ele>
        <time>2018-06-24T14:17:32Z</time>
      </trkpt>
      <trkpt lat="40.299717" lon="-4.811650">
        <ele>2466.0</ele>
        <time>2018-06-24T14:17:33Z</time>
      </trkpt>
      <trkpt lat="40.299650" lon="-4.811700">
        <ele>2464.0</ele>
        <time>2018-06-24T14:17:34Z</time>
      </trkpt>
      <trkpt lat="40.299583" lon="-4.811767">
        <ele>2461.0</ele>
        <time>2018-06-24T14:17:35Z</time>
      </trkpt>
      <trkpt lat="40.299500" lon="-4.811817">
        <ele>2459.0</ele>
        <time>2018-06-24T14:17:36Z</time>
      </trkpt>
      <trkpt lat="40.299417" lon="-4.811883">
        <ele>2458.0</ele>
        <time>2018-06-24T14:17:37Z</time>
      </trkpt>
      <trkpt lat="40.299350" lon="-4.811950">
        <ele>2456.0</ele>
        <time>2018-06-24T14:17:38Z</time>
      </trkpt>
      <trkpt lat="40.299267" lon="-4.812017">
        <ele>2455.0</ele>
        <time>2018-06-24T14:17:39Z</time>
      </trkpt>
      <trkpt lat="40.299183" lon="-4.812083">
        <ele>2454.0</ele>
        <time>2018-06-24T14:17:40Z</time>
      </trkpt>
      <trkpt lat="40.299117" lon="-4.812150">
        <ele>2452.0</ele>
        <time>2018-06-24T14:17:41Z</time>
      </trkpt>
      <trkpt lat="40.299050" lon="-4.812217">
        <ele>2450.0</ele>
        <time>2018-06-24T14:17:42Z</time>
      </trkpt>
      <trkpt lat="40.298967" lon="-4.812300">
        <ele>2449.0</ele>
        <time>2018-06-24T14:17:43Z</time>
      </trkpt>
      <trkpt lat="40.298900" lon="-4.812367">
        <ele>2448.0</ele>
        <time>2018-06-24T14:17:44Z</time>
      </trkpt>
      <trkpt lat="40.298817" lon="-4.812433">
        <ele>2447.0</ele>
        <time>2018-06-24T14:17:45Z</time>
      </trkpt>
      <trkpt lat="40.298750" lon="-4.812517">
        <ele>2446.0</ele>
        <time>2018-06-24T14:17:46Z</time>
      </trkpt>
      <trkpt lat="40.298683" lon="-4.812583">
        <ele>2444.0</ele>
        <time>2018-06-24T14:17:47Z</time>
      </trkpt>
      <trkpt lat="40.298600" lon="-4.812667">
        <ele>2443.0</ele>
        <time>2018-06-24T14:17:48Z</time>
      </trkpt>
      <trkpt lat="40.298533" lon="-4.812733">
        <ele>2442.0</ele>
        <time>2018-06-24T14:17:49Z</time>
      </trkpt>
      <trkpt lat="40.298467" lon="-4.812800">
        <ele>2440.0</ele>
        <time>2018-06-24T14:17:50Z</time>
      </trkpt>
      <trkpt lat="40.298400" lon="-4.812883">
        <ele>2439.0</ele>
        <time>2018-06-24T14:17:51Z</time>
      </trkpt>
      <trkpt lat="40.298333" lon="-4.812967">
        <ele>2437.0</ele>
        <time>2018-06-24T14:17:52Z</time>
      </trkpt>
      <trkpt lat="40.298267" lon="-4.813067">
        <ele>2436.0</ele>
        <time>2018-06-24T14:17:53Z</time>
      </trkpt>
      <trkpt lat="40.298200" lon="-4.813133">
        <ele>2435.0</ele>
        <time>2018-06-24T14:17:54Z</time>
      </trkpt>
      <trkpt lat="40.298117" lon="-4.813200">
        <ele>2435.0</ele>
        <time>2018-06-24T14:17:55Z</time>
      </trkpt>
      <trkpt lat="40.298050" lon="-4.813267">
        <ele>2433.0</ele>
        <time>2018-06-24T14:17:56Z</time>
      </trkpt>
      <trkpt lat="40.297967" lon="-4.813317">
        <ele>2433.0</ele>
        <time>2018-06-24T14:17:57Z</time>
      </trkpt>
      <trkpt lat="40.297883" lon="-4.813383">
        <ele>2432.0</ele>
        <time>2018-06-24T14:17:58Z</time>
      </trkpt>
      <trkpt lat="40.297817" lon="-4.813450">
        <ele>2432.0</ele>
        <time>2018-06-24T14:17:59Z</time>
      </trkpt>
      <trkpt lat="40.297750" lon="-4.813500">
        <ele>2431.0</ele>
        <time>2018-06-24T14:18:00Z</time>
      </trkpt>
      <trkpt lat="40.297667" lon="-4.813550">
        <ele>2429.0</ele>
        <time>2018-06-24T14:18:01Z</time>
      </trkpt>
      <trkpt lat="40.297583" lon="-4.813583">
        <ele>2428.0</ele>
        <time>2018-06-24T14:18:02Z</time>
      </trkpt>
      <trkpt lat="40.297500" lon="-4.813633">
        <ele>2427.0</ele>
        <time>2018-06-24T14:18:03Z</time>
      </trkpt>
      <trkpt lat="40.297400" lon="-4.813667">
        <ele>2427.0</ele>
        <time>2018-06-24T14:18:04Z</time>
      </trkpt>
      <trkpt lat="40.297317" lon="-4.813700">
        <ele>2426.0</ele>
        <time>2018-06-24T14:18:05Z</time>
      </trkpt>
      <trkpt lat="40.297233" lon="-4.813750">
        <ele>2429.0</ele>
        <time>2018-06-24T14:18:06Z</time>
      </trkpt>
      <trkpt lat="40.297133" lon="-4.813783">
        <ele>2428.0</ele>
        <time>2018-06-24T14:18:07Z</time>
      </trkpt>
      <trkpt lat="40.297050" lon="-4.813817">
        <ele>2426.0</ele>
        <time>2018-06-24T14:18:08Z</time>
      </trkpt>
      <trkpt lat="40.296950" lon="-4.813850">
        <ele>2423.0</ele>
        <time>2018-06-24T14:18:09Z</time>
      </trkpt>
      <trkpt lat="40.296867" lon="-4.813883">
        <ele>2421.0</ele>
        <time>2018-06-24T14:18:10Z</time>
      </trkpt>
      <trkpt lat="40.296783" lon="-4.813950">
        <ele>2420.0</ele>
        <time>2018-06-24T14:18:11Z</time>
      </trkpt>
      <trkpt lat="40.296700" lon="-4.814000">
        <ele>2419.0</ele>
        <time>2018-06-24T14:18:12Z</time>
      </trkpt>
      <trkpt lat="40.296633" lon="-4.814050">
        <ele>2418.0</ele>
        <time>2018-06-24T14:18:13Z</time>
      </trkpt>
      <trkpt lat="40.296567" lon="-4.814117">
        <ele>2416.0</ele>
        <time>2018-06-24T14:18:14Z</time>
      </trkpt>
      <trkpt lat="40.296483" lon="-4.814167">
        <ele>2414.0</ele>
        <time>2018-06-24T14:18:15Z</time>
      </trkpt>
      <trkpt lat="40.296417" lon="-4.814233">
        <ele>2412.0</ele>
        <time>2018-06-24T14:18:16Z</time>
      </trkpt>
      <trkpt lat="40.296333" lon="-4.814283">
        <ele>2410.0</ele>
        <time>2018-06-24T14:18:17Z</time>
      </trkpt>
      <trkpt lat="40.296250" lon="-4.814350">
        <ele>2408.0</ele>
        <time>2018-06-24T14:18:18Z</time>
      </trkpt>
      <trkpt lat="40.296183" lon="-4.814417">
        <ele>2407.0</ele>
        <time>2018-06-24T14:18:19Z</time>
      </trkpt>
      <trkpt lat="40.296100" lon="-4.814483">
        <ele>2406.0</ele>
        <time>2018-06-24T14:18:20Z</time>
      </trkpt>
      <trkpt lat="40.296033" lon="-4.814550">
        <ele>2406.0</ele>
        <time>2018-06-24T14:18:21Z</time>
      </trkpt>
      <trkpt lat="40.295967" lon="-4.814600">
        <ele>2404.0</ele>
        <time>2018-06-24T14:18:22Z</time>
      </trkpt>
      <trkpt lat="40.295883" lon="-4.814667">
        <ele>2403.0</ele>
        <time>2018-06-24T14:18:23Z</time>
      </trkpt>
      <trkpt lat="40.295817" lon="-4.814717">
        <ele>2401.0</ele>
        <time>2018-06-24T14:18:24Z</time>
      </trkpt>
      <trkpt lat="40.295733" lon="-4.814783">
        <ele>2400.0</ele>
        <time>2018-06-24T14:18:25Z</time>
      </trkpt>
      <trkpt lat="40.295650" lon="-4.814850">
        <ele>2399.0</ele>
        <time>2018-06-24T14:18:26Z</time>
      </trkpt>
      <trkpt lat="40.295583" lon="-4.814917">
        <ele>2398.0</ele>
        <time>2018-06-24T14:18:27Z</time>
      </trkpt>
      <trkpt lat="40.295517" lon="-4.814983">
        <ele>2397.0</ele>
        <time>2018-06-24T14:18:28Z</time>
      </trkpt>
      <trkpt lat="40.295450" lon="-4.815050">
        <ele>2395.0</ele>
        <time>2018-06-24T14:18:29Z</time>
      </trkpt>
      <trkpt lat="40.295367" lon="-4.815117">
        <ele>2393.0</ele>
        <time>2018-06-24T14:18:30Z</time>
      </trkpt>
      <trkpt lat="40.295300" lon="-4.815183">
        <ele>2391.0</ele>
        <time>2018-06-24T14:18:31Z</time>
      </trkpt>
      <trkpt lat="40.295217" lon="-4.815267">
        <ele>2390.0</ele>
        <time>2018-06-24T14:18:32Z</time>
      </trkpt>
      <trkpt lat="40.295150" lon="-4.815333">
        <ele>2389.0</ele>
        <time>2018-06-24T14:18:33Z</time>
      </trkpt>
      <trkpt lat="40.295083" lon="-4.815400">
        <ele>2388.0</ele>
        <time>2018-06-24T14:18:34Z</time>
      </trkpt>
      <trkpt lat="40.295000" lon="-4.815450">
        <ele>2387.0</ele>
        <time>2018-06-24T14:18:35Z</time>
      </trkpt>
      <trkpt lat="40.294933" lon="-4.815517">
        <ele>2385.0</ele>
        <time>2018-06-24T14:18:36Z</time>
      </trkpt>
      <trkpt lat="40.294867" lon="-4.815583">
        <ele>2383.0</ele>
        <time>2018-06-24T14:18:37Z</time>
      </trkpt>
      <trkpt lat="40.294783" lon="-4.815650">
        <ele>2381.0</ele>
        <time>2018-06-24T14:18:38Z</time>
      </trkpt>
      <trkpt lat="40.294717" lon="-4.815717">
        <ele>2379.0</ele>
        <time>2018-06-24T14:18:39Z</time>
      </trkpt>
      <trkpt lat="40.294633" lon="-4.815800">
        <ele>2378.0</ele>
        <time>2018-06-24T14:18:40Z</time>
      </trkpt>
      <trkpt lat="40.294567" lon="-4.815867">
        <ele>2377.0</ele>
        <time>2018-06-24T14:18:41Z</time>
      </trkpt>
      <trkpt lat="40.294500" lon="-4.815933">
        <ele>2376.0</ele>
        <time>2018-06-24T14:18:42Z</time>
      </trkpt>
      <trkpt lat="40.294433" lon="-4.816000">
        <ele>2375.0</ele>
        <time>2018-06-24T14:18:43Z</time>
      </trkpt>
      <trkpt lat="40.294367" lon="-4.816067">
        <ele>2374.0</ele>
        <time>2018-06-24T14:18:44Z</time>
      </trkpt>
      <trkpt lat="40.294300" lon="-4.816133">
        <ele>2372.0</ele>
        <time>2018-06-24T14:18:45Z</time>
      </trkpt>
      <trkpt lat="40.294233" lon="-4.816200">
        <ele>2371.0</ele>
        <time>2018-06-24T14:18:46Z</time>
      </trkpt>
      <trkpt lat="40.294150" lon="-4.816283">
        <ele>2370.0</ele>
        <time>2018-06-24T14:18:47Z</time>
      </trkpt>
      <trkpt lat="40.294083" lon="-4.816350">
        <ele>2369.0</ele>
        <time>2018-06-24T14:18:48Z</time>
      </trkpt>
      <trkpt lat="40.294033" lon="-4.816417">
        <ele>2368.0</ele>
        <time>2018-06-24T14:18:49Z</time>
      </trkpt>
      <trkpt lat="40.293967" lon="-4.816483">
        <ele>2367.0</ele>
        <time>2018-06-24T14:18:50Z</time>
      </trkpt>
      <trkpt lat="40.293900" lon="-4.816550">
        <ele>2366.0</ele>
        <time>2018-06-24T14:18:51Z</time>
      </trkpt>
      <trkpt lat="40.293833" lon="-4.816617">
        <ele>2364.0</ele>
        <time>2018-06-24T14:18:52Z</time>
      </trkpt>
      <trkpt lat="40.293767" lon="-4.816700">
        <ele>2363.0</ele>
        <time>2018-06-24T14:18:53Z</time>
      </trkpt>
      <trkpt lat="40.293700" lon="-4.816767">
        <ele>2361.0</ele>
        <time>2018-06-24T14:18:54Z</time>
      </trkpt>
      <trkpt lat="40.293633" lon="-4.816833">
        <ele>2359.0</ele>
        <time>2018-06-24T14:18:55Z</time>
      </trkpt>
      <trkpt lat="40.293567" lon="-4.816917">
        <ele>2358.0</ele>
        <time>2018-06-24T14:18:56Z</time>
      </trkpt>
      <trkpt lat="40.293500" lon="-4.817000">
        <ele>2356.0</ele>
        <time>2018-06-24T14:18:57Z</time>
      </trkpt>
      <trkpt lat="40.293450" lon="-4.817067">
        <ele>2355.0</ele>
        <time>2018-06-24T14:18:58Z</time>
      </trkpt>
      <trkpt lat="40.293383" lon="-4.817150">
        <ele>2353.0</ele>
        <time>2018-06-24T14:18:59Z</time>
      </trkpt>
      <trkpt lat="40.293317" lon="-4.817233">
        <ele>2351.0</ele>
        <time>2018-06-24T14:19:00Z</time>
      </trkpt>
      <trkpt lat="40.293233" lon="-4.817300">
        <ele>2350.0</ele>
        <time>2018-06-24T14:19:01Z</time>
      </trkpt>
      <trkpt lat="40.293167" lon="-4.817367">
        <ele>2348.0</ele>
        <time>2018-06-24T14:19:02Z</time>
      </trkpt>
      <trkpt lat="40.293083" lon="-4.817417">
        <ele>2346.0</ele>
        <time>2018-06-24T14:19:03Z</time>
      </trkpt>
      <trkpt lat="40.293000" lon="-4.817467">
        <ele>2344.0</ele>
        <time>2018-06-24T14:19:04Z</time>
      </trkpt>
      <trkpt lat="40.292917" lon="-4.817517">
        <ele>2343.0</ele>
        <time>2018-06-24T14:19:05Z</time>
      </trkpt>
      <trkpt lat="40.292817" lon="-4.817567">
        <ele>2342.0</ele>
        <time>2018-06-24T14:19:06Z</time>
      </trkpt>
      <trkpt lat="40.292733" lon="-4.817617">
        <ele>2340.0</ele>
        <time>2018-06-24T14:19:07Z</time>
      </trkpt>
      <trkpt lat="40.292650" lon="-4.817650">
        <ele>2339.0</ele>
        <time>2018-06-24T14:19:08Z</time>
      </trkpt>
      <trkpt lat="40.292567" lon="-4.817700">
        <ele>2337.0</ele>
        <time>2018-06-24T14:19:09Z</time>
      </trkpt>
      <trkpt lat="40.292483" lon="-4.817750">
        <ele>2336.0</ele>
        <time>2018-06-24T14:19:10Z</time>
      </trkpt>
      <trkpt lat="40.292400" lon="-4.817800">
        <ele>2334.0</ele>
        <time>2018-06-24T14:19:11Z</time>
      </trkpt>
      <trkpt lat="40.292317" lon="-4.817850">
        <ele>2333.0</ele>
        <time>2018-06-24T14:19:12Z</time>
      </trkpt>
      <trkpt lat="40.292233" lon="-4.817900">
        <ele>2332.0</ele>
        <time>2018-06-24T14:19:13Z</time>
      </trkpt>
      <trkpt lat="40.292150" lon="-4.817933">
        <ele>2331.0</ele>
        <time>2018-06-24T14:19:14Z</time>
      </trkpt>
      <trkpt lat="40.292083" lon="-4.818000">
        <ele>2329.0</ele>
        <time>2018-06-24T14:19:15Z</time>
      </trkpt>
      <trkpt lat="40.292000" lon="-4.818050">
        <ele>2328.0</ele>
        <time>2018-06-24T14:19:16Z</time>
      </trkpt>
      <trkpt lat="40.291933" lon="-4.818133">
        <ele>2326.0</ele>
        <time>2018-06-24T14:19:17Z</time>
      </trkpt>
      <trkpt lat="40.291867" lon="-4.818200">
        <ele>2325.0</ele>
        <time>2018-06-24T14:19:18Z</time>
      </trkpt>
      <trkpt lat="40.291800" lon="-4.818300">
        <ele>2323.0</ele>
        <time>2018-06-24T14:19:19Z</time>
      </trkpt>
      <trkpt lat="40.291750" lon="-4.818383">
        <ele>2322.0</ele>
        <time>2018-06-24T14:19:20Z</time>
      </trkpt>
      <trkpt lat="40.291700" lon="-4.818467">
        <ele>2321.0</ele>
        <time>2018-06-24T14:19:21Z</time>
      </trkpt>
      <trkpt lat="40.291650" lon="-4.818567">
        <ele>2320.0</ele>
        <time>2018-06-24T14:19:22Z</time>
      </trkpt>
      <trkpt lat="40.291600" lon="-4.818650">
        <ele>2318.0</ele>
        <time>2018-06-24T14:19:23Z</time>
      </trkpt>
      <trkpt lat="40.291550" lon="-4.818733">
        <ele>2316.0</ele>
        <time>2018-06-24T14:19:24Z</time>
      </trkpt>
      <trkpt lat="40.291483" lon="-4.818833">
        <ele>2314.0</ele>
        <time>2018-06-24T14:19:25Z</time>
      </trkpt>
      <trkpt lat="40.291433" lon="-4.818917">
        <ele>2313.0</ele>
        <time>2018-06-24T14:19:26Z</time>
      </trkpt>
      <trkpt lat="40.291383" lon="-4.819017">
        <ele>2311.0</ele>
        <time>2018-06-24T14:19:27Z</time>
      </trkpt>
      <trkpt lat="40.291350" lon="-4.819117">
        <ele>2309.0</ele>
        <time>2018-06-24T14:19:28Z</time>
      </trkpt>
      <trkpt lat="40.291317" lon="-4.819217">
        <ele>2307.0</ele>
        <time>2018-06-24T14:19:29Z</time>
      </trkpt>
      <trkpt lat="40.291283" lon="-4.819333">
        <ele>2306.0</ele>
        <time>2018-06-24T14:19:30Z</time>
      </trkpt>
      <trkpt lat="40.291250" lon="-4.819433">
        <ele>2304.0</ele>
        <time>2018-06-24T14:19:31Z</time>
      </trkpt>
      <trkpt lat="40.291217" lon="-4.819550">
        <ele>2302.0</ele>
        <time>2018-06-24T14:19:32Z</time>
      </trkpt>
      <trkpt lat="40.291183" lon="-4.819667">
        <ele>2300.0</ele>
        <time>2018-06-24T14:19:33Z</time>
      </trkpt>
      <trkpt lat="40.291150" lon="-4.819767">
        <ele>2298.0</ele>
        <time>2018-06-24T14:19:34Z</time>
      </trkpt>
      <trkpt lat="40.291083" lon="-4.819850">
        <ele>2296.0</ele>
        <time>2018-06-24T14:19:35Z</time>
      </trkpt>
      <trkpt lat="40.291017" lon="-4.819917">
        <ele>2294.0</ele>
        <time>2018-06-24T14:19:36Z</time>
      </trkpt>
      <trkpt lat="40.290933" lon="-4.819967">
        <ele>2292.0</ele>
        <time>2018-06-24T14:19:37Z</time>
      </trkpt>
      <trkpt lat="40.290833" lon="-4.820000">
        <ele>2290.0</ele>
        <time>2018-06-24T14:19:38Z</time>
      </trkpt>
      <trkpt lat="40.290750" lon="-4.820017">
        <ele>2289.0</ele>
        <time>2018-06-24T14:19:39Z</time>
      </trkpt>
      <trkpt lat="40.290650" lon="-4.820017">
        <ele>2288.0</ele>
        <time>2018-06-24T14:19:40Z</time>
      </trkpt>
      <trkpt lat="40.290550" lon="-4.820000">
        <ele>2286.0</ele>
        <time>2018-06-24T14:19:41Z</time>
      </trkpt>
      <trkpt lat="40.290467" lon="-4.819983">
        <ele>2284.0</ele>
        <time>2018-06-24T14:19:42Z</time>
      </trkpt>
      <trkpt lat="40.290367" lon="-4.819933">
        <ele>2282.0</ele>
        <time>2018-06-24T14:19:43Z</time>
      </trkpt>
      <trkpt lat="40.290267" lon="-4.819883">
        <ele>2280.0</ele>
        <time>2018-06-24T14:19:44Z</time>
      </trkpt>
      <trkpt lat="40.290183" lon="-4.819817">
        <ele>2278.0</ele>
        <time>2018-06-24T14:19:45Z</time>
      </trkpt>
      <trkpt lat="40.290083" lon="-4.819750">
        <ele>2276.0</ele>
        <time>2018-06-24T14:19:46Z</time>
      </trkpt>
      <trkpt lat="40.290000" lon="-4.819667">
        <ele>2275.0</ele>
        <time>2018-06-24T14:19:47Z</time>
      </trkpt>
      <trkpt lat="40.289917" lon="-4.819600">
        <ele>2274.0</ele>
        <time>2018-06-24T14:19:48Z</time>
      </trkpt>
      <trkpt lat="40.289833" lon="-4.819533">
        <ele>2272.0</ele>
        <time>2018-06-24T14:19:49Z</time>
      </trkpt>
      <trkpt lat="40.289750" lon="-4.819467">
        <ele>2270.0</ele>
        <time>2018-06-24T14:19:50Z</time>
      </trkpt>
      <trkpt lat="40.289667" lon="-4.819367">
        <ele>2268.0</ele>
        <time>2018-06-24T14:19:51Z</time>
      </trkpt>
      <trkpt lat="40.289583" lon="-4.819267">
        <ele>2266.0</ele>
        <time>2018-06-24T14:19:52Z</time>
      </trkpt>
      <trkpt lat="40.289500" lon="-4.819167">
        <ele>2265.0</ele>
        <time>2018-06-24T14:19:53Z</time>
      </trkpt>
      <trkpt lat="40.289433" lon="-4.819067">
        <ele>2263.0</ele>
        <time>2018-06-24T14:19:54Z</time>
      </trkpt>
      <trkpt lat="40.289350" lon="-4.818967">
        <ele>2262.0</ele>
        <time>2018-06-24T14:19:55Z</time>
      </trkpt>
      <trkpt lat="40.289283" lon="-4.818867">
        <ele>2260.0</ele>
        <time>2018-06-24T14:19:56Z</time>
      </trkpt>
      <trkpt lat="40.289200" lon="-4.818750">
        <ele>2259.0</ele>
        <time>2018-06-24T14:19:57Z</time>
      </trkpt>
      <trkpt lat="40.289133" lon="-4.818650">
        <ele>2257.0</ele>
        <time>2018-06-24T14:19:58Z</time>
      </trkpt>
      <trkpt lat="40.289067" lon="-4.818550">
        <ele>2255.0</ele>
        <time>2018-06-24T14:19:59Z</time>
      </trkpt>
      <trkpt lat="40.288983" lon="-4.818433">
        <ele>2253.0</ele>
        <time>2018-06-24T14:20:00Z</time>
      </trkpt>
      <trkpt lat="40.288917" lon="-4.818317">
        <ele>2252.0</ele>
        <time>2018-06-24T14:20:01Z</time>
      </trkpt>
      <trkpt lat="40.288850" lon="-4.818200">
        <ele>2250.0</ele>
        <time>2018-06-24T14:20:02Z</time>
      </trkpt>
      <trkpt lat="40.288783" lon="-4.818083">
        <ele>2249.0</ele>
        <time>2018-06-24T14:20:03Z</time>
      </trkpt>
      <trkpt lat="40.288717" lon="-4.817983">
        <ele>2247.0</ele>
        <time>2018-06-24T14:20:04Z</time>
      </trkpt>
      <trkpt lat="40.288650" lon="-4.817867">
        <ele>2245.0</ele>
        <time>2018-06-24T14:20:05Z</time>
      </trkpt>
      <trkpt lat="40.288567" lon="-4.817750">
        <ele>2243.0</ele>
        <time>2018-06-24T14:20:06Z</time>
      </trkpt>
      <trkpt lat="40.288500" lon="-4.817633">
        <ele>2241.0</ele>
        <time>2018-06-24T14:20:07Z</time>
      </trkpt>
      <trkpt lat="40.288450" lon="-4.817500">
        <ele>2240.0</ele>
        <time>2018-06-24T14:20:08Z</time>
      </trkpt>
      <trkpt lat="40.288383" lon="-4.817367">
        <ele>2239.0</ele>
        <time>2018-06-24T14:20:09Z</time>
      </trkpt>
      <trkpt lat="40.288333" lon="-4.817250">
        <ele>2237.0</ele>
        <time>2018-06-24T14:20:10Z</time>
      </trkpt>
      <trkpt lat="40.288267" lon="-4.817133">
        <ele>2236.0</ele>
        <time>2018-06-24T14:20:11Z</time>
      </trkpt>
      <trkpt lat="40.288200" lon="-4.817017">
        <ele>2234.0</ele>
        <time>2018-06-24T14:20:12Z</time>
      </trkpt>
      <trkpt lat="40.288150" lon="-4.816883">
        <ele>2232.0</ele>
        <time>2018-06-24T14:20:13Z</time>
      </trkpt>
      <trkpt lat="40.288083" lon="-4.816750">
        <ele>2231.0</ele>
        <time>2018-06-24T14:20:14Z</time>
      </trkpt>
      <trkpt lat="40.288033" lon="-4.816633">
        <ele>2230.0</ele>
        <time>2018-06-24T14:20:15Z</time>
      </trkpt>
      <trkpt lat="40.287967" lon="-4.816500">
        <ele>2228.0</ele>
        <time>2018-06-24T14:20:16Z</time>
      </trkpt>
      <trkpt lat="40.287917" lon="-4.816383">
        <ele>2228.0</ele>
        <time>2018-06-24T14:20:17Z</time>
      </trkpt>
      <trkpt lat="40.287850" lon="-4.816250">
        <ele>2226.0</ele>
        <time>2018-06-24T14:20:18Z</time>
      </trkpt>
      <trkpt lat="40.287800" lon="-4.816117">
        <ele>2225.0</ele>
        <time>2018-06-24T14:20:19Z</time>
      </trkpt>
      <trkpt lat="40.287750" lon="-4.815983">
        <ele>2223.0</ele>
        <time>2018-06-24T14:20:20Z</time>
      </trkpt>
      <trkpt lat="40.287683" lon="-4.815867">
        <ele>2222.0</ele>
        <time>2018-06-24T14:20:21Z</time>
      </trkpt>
      <trkpt lat="40.287617" lon="-4.815733">
        <ele>2221.0</ele>
        <time>2018-06-24T14:20:22Z</time>
      </trkpt>
      <trkpt lat="40.287567" lon="-4.815617">
        <ele>2220.0</ele>
        <time>2018-06-24T14:20:23Z</time>
      </trkpt>
      <trkpt lat="40.287500" lon="-4.815483">
        <ele>2219.0</ele>
        <time>2018-06-24T14:20:24Z</time>
      </trkpt>
      <trkpt lat="40.287450" lon="-4.815367">
        <ele>2217.0</ele>
        <time>2018-06-24T14:20:25Z</time>
      </trkpt>
      <trkpt lat="40.287367" lon="-4.815250">
        <ele>2216.0</ele>
        <time>2018-06-24T14:20:26Z</time>
      </trkpt>
      <trkpt lat="40.287300" lon="-4.815150">
        <ele>2214.0</ele>
        <time>2018-06-24T14:20:27Z</time>
      </trkpt>
      <trkpt lat="40.287217" lon="-4.815050">
        <ele>2213.0</ele>
        <time>2018-06-24T14:20:28Z</time>
      </trkpt>
      <trkpt lat="40.287133" lon="-4.814967">
        <ele>2212.0</ele>
        <time>2018-06-24T14:20:29Z</time>
      </trkpt>
      <trkpt lat="40.287050" lon="-4.814867">
        <ele>2210.0</ele>
        <time>2018-06-24T14:20:30Z</time>
      </trkpt>
      <trkpt lat="40.286967" lon="-4.814783">
        <ele>2209.0</ele>
        <time>2018-06-24T14:20:31Z</time>
      </trkpt>
      <trkpt lat="40.286883" lon="-4.814717">
        <ele>2207.0</ele>
        <time>2018-06-24T14:20:32Z</time>
      </trkpt>
      <trkpt lat="40.286800" lon="-4.814633">
        <ele>2206.0</ele>
        <time>2018-06-24T14:20:33Z</time>
      </trkpt>
      <trkpt lat="40.286717" lon="-4.814550">
        <ele>2204.0</ele>
        <time>2018-06-24T14:20:34Z</time>
      </trkpt>
      <trkpt lat="40.286633" lon="-4.814450">
        <ele>2202.0</ele>
        <time>2018-06-24T14:20:35Z</time>
      </trkpt>
      <trkpt lat="40.286550" lon="-4.814350">
        <ele>2201.0</ele>
        <time>2018-06-24T14:20:36Z</time>
      </trkpt>
      <trkpt lat="40.286467" lon="-4.814250">
        <ele>2200.0</ele>
        <time>2018-06-24T14:20:37Z</time>
      </trkpt>
      <trkpt lat="40.286383" lon="-4.814150">
        <ele>2199.0</ele>
        <time>2018-06-24T14:20:38Z</time>
      </trkpt>
      <trkpt lat="40.286300" lon="-4.814067">
        <ele>2198.0</ele>
        <time>2018-06-24T14:20:39Z</time>
      </trkpt>
      <trkpt lat="40.286233" lon="-4.813983">
        <ele>2198.0</ele>
        <time>2018-06-24T14:20:40Z</time>
      </trkpt>
      <trkpt lat="40.286167" lon="-4.813900">
        <ele>2196.0</ele>
        <time>2018-06-24T14:20:41Z</time>
      </trkpt>
      <trkpt lat="40.286083" lon="-4.813833">
        <ele>2194.0</ele>
        <time>2018-06-24T14:20:42Z</time>
      </trkpt>
      <trkpt lat="40.286000" lon="-4.813750">
        <ele>2193.0</ele>
        <time>2018-06-24T14:20:43Z</time>
      </trkpt>
      <trkpt lat="40.285917" lon="-4.813667">
        <ele>2191.0</ele>
        <time>2018-06-24T14:20:44Z</time>
      </trkpt>
      <trkpt lat="40.285833" lon="-4.813583">
        <ele>2190.0</ele>
        <time>2018-06-24T14:20:45Z</time>
      </trkpt>
      <trkpt lat="40.285750" lon="-4.813500">
        <ele>2189.0</ele>
        <time>2018-06-24T14:20:46Z</time>
      </trkpt>
      <trkpt lat="40.285667" lon="-4.813417">
        <ele>2188.0</ele>
        <time>2018-06-24T14:20:47Z</time>
      </trkpt>
      <trkpt lat="40.285600" lon="-4.813333">
        <ele>2187.0</ele>
        <time>2018-06-24T14:20:48Z</time>
      </trkpt>
      <trkpt lat="40.285533" lon="-4.813233">
        <ele>2186.0</ele>
        <time>2018-06-24T14:20:49Z</time>
      </trkpt>
      <trkpt lat="40.285450" lon="-4.813150">
        <ele>2184.0</ele>
        <time>2018-06-24T14:20:50Z</time>
      </trkpt>
      <trkpt lat="40.285383" lon="-4.813050">
        <ele>2183.0</ele>
        <time>2018-06-24T14:20:51Z</time>
      </trkpt>
      <trkpt lat="40.285300" lon="-4.812967">
        <ele>2182.0</ele>
        <time>2018-06-24T14:20:52Z</time>
      </trkpt>
      <trkpt lat="40.285233" lon="-4.812883">
        <ele>2181.0</ele>
        <time>2018-06-24T14:20:53Z</time>
      </trkpt>
      <trkpt lat="40.285150" lon="-4.812800">
        <ele>2181.0</ele>
        <time>2018-06-24T14:20:54Z</time>
      </trkpt>
      <trkpt lat="40.285067" lon="-4.812733">
        <ele>2180.0</ele>
        <time>2018-06-24T14:20:55Z</time>
      </trkpt>
      <trkpt lat="40.284983" lon="-4.812667">
        <ele>2178.0</ele>
        <time>2018-06-24T14:20:56Z</time>
      </trkpt>
      <trkpt lat="40.284900" lon="-4.812600">
        <ele>2177.0</ele>
        <time>2018-06-24T14:20:57Z</time>
      </trkpt>
      <trkpt lat="40.284817" lon="-4.812533">
        <ele>2176.0</ele>
        <time>2018-06-24T14:20:58Z</time>
      </trkpt>
      <trkpt lat="40.284733" lon="-4.812450">
        <ele>2175.0</ele>
        <time>2018-06-24T14:20:59Z</time>
      </trkpt>
      <trkpt lat="40.284667" lon="-4.812367">
        <ele>2174.0</ele>
        <time>2018-06-24T14:21:00Z</time>
      </trkpt>
      <trkpt lat="40.284583" lon="-4.812283">
        <ele>2174.0</ele>
        <time>2018-06-24T14:21:01Z</time>
      </trkpt>
      <trkpt lat="40.284517" lon="-4.812183">
        <ele>2173.0</ele>
        <time>2018-06-24T14:21:02Z</time>
      </trkpt>
      <trkpt lat="40.284450" lon="-4.812100">
        <ele>2173.0</ele>
        <time>2018-06-24T14:21:03Z</time>
      </trkpt>
      <trkpt lat="40.284383" lon="-4.812000">
        <ele>2172.0</ele>
        <time>2018-06-24T14:21:04Z</time>
      </trkpt>
      <trkpt lat="40.284300" lon="-4.811900">
        <ele>2171.0</ele>
        <time>2018-06-24T14:21:05Z</time>
      </trkpt>
      <trkpt lat="40.284233" lon="-4.811800">
        <ele>2169.0</ele>
        <time>2018-06-24T14:21:06Z</time>
      </trkpt>
      <trkpt lat="40.284150" lon="-4.811700">
        <ele>2168.0</ele>
        <time>2018-06-24T14:21:07Z</time>
      </trkpt>
      <trkpt lat="40.284083" lon="-4.811600">
        <ele>2166.0</ele>
        <time>2018-06-24T14:21:08Z</time>
      </trkpt>
      <trkpt lat="40.284000" lon="-4.811483">
        <ele>2165.0</ele>
        <time>2018-06-24T14:21:09Z</time>
      </trkpt>
      <trkpt lat="40.283933" lon="-4.811367">
        <ele>2163.0</ele>
        <time>2018-06-24T14:21:10Z</time>
      </trkpt>
      <trkpt lat="40.283867" lon="-4.811250">
        <ele>2161.0</ele>
        <time>2018-06-24T14:21:11Z</time>
      </trkpt>
      <trkpt lat="40.283817" lon="-4.811117">
        <ele>2160.0</ele>
        <time>2018-06-24T14:21:12Z</time>
      </trkpt>
      <trkpt lat="40.283750" lon="-4.811000">
        <ele>2159.0</ele>
        <time>2018-06-24T14:21:13Z</time>
      </trkpt>
      <trkpt lat="40.283683" lon="-4.810883">
        <ele>2158.0</ele>
        <time>2018-06-24T14:21:14Z</time>
      </trkpt>
      <trkpt lat="40.283617" lon="-4.810767">
        <ele>2157.0</ele>
        <time>2018-06-24T14:21:15Z</time>
      </trkpt>
      <trkpt lat="40.283567" lon="-4.810650">
        <ele>2155.0</ele>
        <time>2018-06-24T14:21:16Z</time>
      </trkpt>
      <trkpt lat="40.283500" lon="-4.810533">
        <ele>2154.0</ele>
        <time>2018-06-24T14:21:17Z</time>
      </trkpt>
      <trkpt lat="40.283417" lon="-4.810417">
        <ele>2152.0</ele>
        <time>2018-06-24T14:21:18Z</time>
      </trkpt>
      <trkpt lat="40.283350" lon="-4.810300">
        <ele>2151.0</ele>
        <time>2018-06-24T14:21:19Z</time>
      </trkpt>
      <trkpt lat="40.283267" lon="-4.810200">
        <ele>2149.0</ele>
        <time>2018-06-24T14:21:20Z</time>
      </trkpt>
      <trkpt lat="40.283200" lon="-4.810083">
        <ele>2148.0</ele>
        <time>2018-06-24T14:21:21Z</time>
      </trkpt>
      <trkpt lat="40.283133" lon="-4.809983">
        <ele>2146.0</ele>
        <time>2018-06-24T14:21:22Z</time>
      </trkpt>
      <trkpt lat="40.283050" lon="-4.809850">
        <ele>2144.0</ele>
        <time>2018-06-24T14:21:23Z</time>
      </trkpt>
      <trkpt lat="40.282983" lon="-4.809733">
        <ele>2142.0</ele>
        <time>2018-06-24T14:21:24Z</time>
      </trkpt>
      <trkpt lat="40.282917" lon="-4.809617">
        <ele>2141.0</ele>
        <time>2018-06-24T14:21:25Z</time>
      </trkpt>
      <trkpt lat="40.282850" lon="-4.809517">
        <ele>2141.0</ele>
        <time>2018-06-24T14:21:26Z</time>
      </trkpt>
      <trkpt lat="40.282783" lon="-4.809400">
        <ele>2140.0</ele>
        <time>2018-06-24T14:21:27Z</time>
      </trkpt>
      <trkpt lat="40.282717" lon="-4.809300">
        <ele>2139.0</ele>
        <time>2018-06-24T14:21:28Z</time>
      </trkpt>
      <trkpt lat="40.282633" lon="-4.809183">
        <ele>2138.0</ele>
        <time>2018-06-24T14:21:29Z</time>
      </trkpt>
      <trkpt lat="40.282567" lon="-4.809083">
        <ele>2137.0</ele>
        <time>2018-06-24T14:21:30Z</time>
      </trkpt>
      <trkpt lat="40.282483" lon="-4.808983">
        <ele>2136.0</ele>
        <time>2018-06-24T14:21:31Z</time>
      </trkpt>
      <trkpt lat="40.282417" lon="-4.808900">
        <ele>2135.0</ele>
        <time>2018-06-24T14:21:32Z</time>
      </trkpt>
      <trkpt lat="40.282350" lon="-4.808800">
        <ele>2134.0</ele>
        <time>2018-06-24T14:21:33Z</time>
      </trkpt>
      <trkpt lat="40.282267" lon="-4.808700">
        <ele>2133.0</ele>
        <time>2018-06-24T14:21:34Z</time>
      </trkpt>
      <trkpt lat="40.282200" lon="-4.808617">
        <ele>2131.0</ele>
        <time>2018-06-24T14:21:35Z</time>
      </trkpt>
      <trkpt lat="40.282133" lon="-4.808517">
        <ele>2129.0</ele>
        <time>2018-06-24T14:21:36Z</time>
      </trkpt>
      <trkpt lat="40.282050" lon="-4.808433">
        <ele>2127.0</ele>
        <time>2018-06-24T14:21:37Z</time>
      </trkpt>
      <trkpt lat="40.281967" lon="-4.808333">
        <ele>2125.0</ele>
        <time>2018-06-24T14:21:38Z</time>
      </trkpt>
      <trkpt lat="40.281867" lon="-4.808250">
        <ele>2123.0</ele>
        <time>2018-06-24T14:21:39Z</time>
      </trkpt>
      <trkpt lat="40.281800" lon="-4.808150">
        <ele>2122.0</ele>
        <time>2018-06-24T14:21:40Z</time>
      </trkpt>
      <trkpt lat="40.281717" lon="-4.808050">
        <ele>2121.0</ele>
        <time>2018-06-24T14:21:41Z</time>
      </trkpt>
      <trkpt lat="40.281633" lon="-4.807967">
        <ele>2119.0</ele>
        <time>2018-06-24T14:21:42Z</time>
      </trkpt>
      <trkpt lat="40.281550" lon="-4.807883">
        <ele>2118.0</ele>
        <time>2018-06-24T14:21:43Z</time>
      </trkpt>
      <trkpt lat="40.281483" lon="-4.807783">
        <ele>2116.0</ele>
        <time>2018-06-24T14:21:44Z</time>
      </trkpt>
      <trkpt lat="40.281400" lon="-4.807700">
        <ele>2115.0</ele>
        <time>2018-06-24T14:21:45Z</time>
      </trkpt>
      <trkpt lat="40.281333" lon="-4.807583">
        <ele>2113.0</ele>
        <time>2018-06-24T14:21:46Z</time>
      </trkpt>
      <trkpt lat="40.281250" lon="-4.807467">
        <ele>2112.0</ele>
        <time>2018-06-24T14:21:47Z</time>
      </trkpt>
      <trkpt lat="40.281183" lon="-4.807350">
        <ele>2111.0</ele>
        <time>2018-06-24T14:21:48Z</time>
      </trkpt>
      <trkpt lat="40.281133" lon="-4.807233">
        <ele>2110.0</ele>
        <time>2018-06-24T14:21:49Z</time>
      </trkpt>
      <trkpt lat="40.281067" lon="-4.807117">
        <ele>2109.0</ele>
        <time>2018-06-24T14:21:50Z</time>
      </trkpt>
      <trkpt lat="40.281000" lon="-4.806983">
        <ele>2107.0</ele>
        <time>2018-06-24T14:21:51Z</time>
      </trkpt>
      <trkpt lat="40.280933" lon="-4.806867">
        <ele>2105.0</ele>
        <time>2018-06-24T14:21:52Z</time>
      </trkpt>
      <trkpt lat="40.280867" lon="-4.806733">
        <ele>2104.0</ele>
        <time>2018-06-24T14:21:53Z</time>
      </trkpt>
      <trkpt lat="40.280800" lon="-4.806617">
        <ele>2103.0</ele>
        <time>2018-06-24T14:21:54Z</time>
      </trkpt>
      <trkpt lat="40.280733" lon="-4.806500">
        <ele>2102.0</ele>
        <time>2018-06-24T14:21:55Z</time>
      </trkpt>
      <trkpt lat="40.280667" lon="-4.806383">
        <ele>2101.0</ele>
        <time>2018-06-24T14:21:56Z</time>
      </trkpt>
      <trkpt lat="40.280617" lon="-4.806267">
        <ele>2100.0</ele>
        <time>2018-06-24T14:21:57Z</time>
      </trkpt>
      <trkpt lat="40.280567" lon="-4.806150">
        <ele>2098.0</ele>
        <time>2018-06-24T14:21:58Z</time>
      </trkpt>
      <trkpt lat="40.280500" lon="-4.806033">
        <ele>2096.0</ele>
        <time>2018-06-24T14:21:59Z</time>
      </trkpt>
      <trkpt lat="40.280433" lon="-4.805900">
        <ele>2094.0</ele>
        <time>2018-06-24T14:22:00Z</time>
      </trkpt>
      <trkpt lat="40.280383" lon="-4.805767">
        <ele>2093.0</ele>
        <time>2018-06-24T14:22:01Z</time>
      </trkpt>
      <trkpt lat="40.280333" lon="-4.805633">
        <ele>2093.0</ele>
        <time>2018-06-24T14:22:02Z</time>
      </trkpt>
      <trkpt lat="40.280283" lon="-4.805500">
        <ele>2092.0</ele>
        <time>2018-06-24T14:22:03Z</time>
      </trkpt>
      <trkpt lat="40.280233" lon="-4.805367">
        <ele>2091.0</ele>
        <time>2018-06-24T14:22:04Z</time>
      </trkpt>
      <trkpt lat="40.280183" lon="-4.805233">
        <ele>2090.0</ele>
        <time>2018-06-24T14:22:05Z</time>
      </trkpt>
      <trkpt lat="40.280133" lon="-4.805117">
        <ele>2089.0</ele>
        <time>2018-06-24T14:22:06Z</time>
      </trkpt>
      <trkpt lat="40.280067" lon="-4.805000">
        <ele>2088.0</ele>
        <time>2018-06-24T14:22:07Z</time>
      </trkpt>
      <trkpt lat="40.279983" lon="-4.804900">
        <ele>2087.0</ele>
        <time>2018-06-24T14:22:08Z</time>
      </trkpt>
      <trkpt lat="40.279917" lon="-4.804783">
        <ele>2086.0</ele>
        <time>2018-06-24T14:22:09Z</time>
      </trkpt>
      <trkpt lat="40.279850" lon="-4.804683">
        <ele>2084.0</ele>
        <time>2018-06-24T14:22:10Z</time>
      </trkpt>
      <trkpt lat="40.279800" lon="-4.804567">
        <ele>2083.0</ele>
        <time>2018-06-24T14:22:11Z</time>
      </trkpt>
      <trkpt lat="40.279733" lon="-4.804433">
        <ele>2081.0</ele>
        <time>2018-06-24T14:22:12Z</time>
      </trkpt>
      <trkpt lat="40.279683" lon="-4.804300">
        <ele>2080.0</ele>
        <time>2018-06-24T14:22:13Z</time>
      </trkpt>
      <trkpt lat="40.279617" lon="-4.804167">
        <ele>2080.0</ele>
        <time>2018-06-24T14:22:14Z</time>
      </trkpt>
      <trkpt lat="40.279567" lon="-4.804050">
        <ele>2079.0</ele>
        <time>2018-06-24T14:22:15Z</time>
      </trkpt>
      <trkpt lat="40.279500" lon="-4.803917">
        <ele>2078.0</ele>
        <time>2018-06-24T14:22:16Z</time>
      </trkpt>
      <trkpt lat="40.279450" lon="-4.803800">
        <ele>2077.0</ele>
        <time>2018-06-24T14:22:17Z</time>
      </trkpt>
      <trkpt lat="40.279383" lon="-4.803650">
        <ele>2075.0</ele>
        <time>2018-06-24T14:22:18Z</time>
      </trkpt>
      <trkpt lat="40.279333" lon="-4.803517">
        <ele>2073.0</ele>
        <time>2018-06-24T14:22:19Z</time>
      </trkpt>
      <trkpt lat="40.279267" lon="-4.803350">
        <ele>2071.0</ele>
        <time>2018-06-24T14:22:20Z</time>
      </trkpt>
      <trkpt lat="40.279200" lon="-4.803200">
        <ele>2070.0</ele>
        <time>2018-06-24T14:22:21Z</time>
      </trkpt>
      <trkpt lat="40.279150" lon="-4.803050">
        <ele>2069.0</ele>
        <time>2018-06-24T14:22:22Z</time>
      </trkpt>
      <trkpt lat="40.279083" lon="-4.802917">
        <ele>2069.0</ele>
        <time>2018-06-24T14:22:23Z</time>
      </trkpt>
      <trkpt lat="40.279017" lon="-4.802767">
        <ele>2068.0</ele>
        <time>2018-06-24T14:22:24Z</time>
      </trkpt>
      <trkpt lat="40.278967" lon="-4.802633">
        <ele>2067.0</ele>
        <time>2018-06-24T14:22:25Z</time>
      </trkpt>
      <trkpt lat="40.278900" lon="-4.802500">
        <ele>2066.0</ele>
        <time>2018-06-24T14:22:26Z</time>
      </trkpt>
      <trkpt lat="40.278833" lon="-4.802367">
        <ele>2064.0</ele>
        <time>2018-06-24T14:22:27Z</time>
      </trkpt>
      <trkpt lat="40.278767" lon="-4.802233">
        <ele>2063.0</ele>
        <time>2018-06-24T14:22:28Z</time>
      </trkpt>
      <trkpt lat="40.278683" lon="-4.802100">
        <ele>2062.0</ele>
        <time>2018-06-24T14:22:29Z</time>
      </trkpt>
      <trkpt lat="40.278617" lon="-4.801967">
        <ele>2061.0</ele>
        <time>2018-06-24T14:22:30Z</time>
      </trkpt>
      <trkpt lat="40.278533" lon="-4.801850">
        <ele>2060.0</ele>
        <time>2018-06-24T14:22:31Z</time>
      </trkpt>
      <trkpt lat="40.278450" lon="-4.801733">
        <ele>2059.0</ele>
        <time>2018-06-24T14:22:32Z</time>
      </trkpt>
      <trkpt lat="40.278367" lon="-4.801617">
        <ele>2059.0</ele>
        <time>2018-06-24T14:22:33Z</time>
      </trkpt>
      <trkpt lat="40.278283" lon="-4.801517">
        <ele>2058.0</ele>
        <time>2018-06-24T14:22:34Z</time>
      </trkpt>
      <trkpt lat="40.278200" lon="-4.801400">
        <ele>2056.0</ele>
        <time>2018-06-24T14:22:35Z</time>
      </trkpt>
      <trkpt lat="40.278117" lon="-4.801300">
        <ele>2055.0</ele>
        <time>2018-06-24T14:22:36Z</time>
      </trkpt>
      <trkpt lat="40.278017" lon="-4.801217">
        <ele>2054.0</ele>
        <time>2018-06-24T14:22:37Z</time>
      </trkpt>
      <trkpt lat="40.277933" lon="-4.801133">
        <ele>2053.0</ele>
        <time>2018-06-24T14:22:38Z</time>
      </trkpt>
      <trkpt lat="40.277833" lon="-4.801033">
        <ele>2052.0</ele>
        <time>2018-06-24T14:22:39Z</time>
      </trkpt>
      <trkpt lat="40.277750" lon="-4.800950">
        <ele>2052.0</ele>
        <time>2018-06-24T14:22:40Z</time>
      </trkpt>
      <trkpt lat="40.277650" lon="-4.800867">
        <ele>2051.0</ele>
        <time>2018-06-24T14:22:41Z</time>
      </trkpt>
      <trkpt lat="40.277567" lon="-4.800767">
        <ele>2049.0</ele>
        <time>2018-06-24T14:22:42Z</time>
      </trkpt>
      <trkpt lat="40.277467" lon="-4.800683">
        <ele>2048.0</ele>
        <time>2018-06-24T14:22:43Z</time>
      </trkpt>
      <trkpt lat="40.277383" lon="-4.800583">
        <ele>2047.0</ele>
        <time>2018-06-24T14:22:44Z</time>
      </trkpt>
      <trkpt lat="40.277300" lon="-4.800483">
        <ele>2046.0</ele>
        <time>2018-06-24T14:22:45Z</time>
      </trkpt>
      <trkpt lat="40.277200" lon="-4.800383">
        <ele>2045.0</ele>
        <time>2018-06-24T14:22:46Z</time>
      </trkpt>
      <trkpt lat="40.277133" lon="-4.800267">
        <ele>2044.0</ele>
        <time>2018-06-24T14:22:47Z</time>
      </trkpt>
      <trkpt lat="40.277050" lon="-4.800167">
        <ele>2044.0</ele>
        <time>2018-06-24T14:22:48Z</time>
      </trkpt>
      <trkpt lat="40.276967" lon="-4.800050">
        <ele>2043.0</ele>
        <time>2018-06-24T14:22:49Z</time>
      </trkpt>
      <trkpt lat="40.276883" lon="-4.799933">
        <ele>2042.0</ele>
        <time>2018-06-24T14:22:50Z</time>
      </trkpt>
      <trkpt lat="40.276817" lon="-4.799817">
        <ele>2041.0</ele>
        <time>2018-06-24T14:22:51Z</time>
      </trkpt>
      <trkpt lat="40.276733" lon="-4.799683">
        <ele>2040.0</ele>
        <time>2018-06-24T14:22:52Z</time>
      </trkpt>
      <trkpt lat="40.276650" lon="-4.799567">
        <ele>2039.0</ele>
        <time>2018-06-24T14:22:53Z</time>
      </trkpt>
      <trkpt lat="40.276567" lon="-4.799450">
        <ele>2039.0</ele>
        <time>2018-06-24T14:22:54Z</time>
      </trkpt>
      <trkpt lat="40.276500" lon="-4.799333">
        <ele>2038.0</ele>
        <time>2018-06-24T14:22:55Z</time>
      </trkpt>
      <trkpt lat="40.276417" lon="-4.799217">
        <ele>2037.0</ele>
        <time>2018-06-24T14:22:56Z</time>
      </trkpt>
      <trkpt lat="40.276333" lon="-4.799100">
        <ele>2036.0</ele>
        <time>2018-06-24T14:22:57Z</time>
      </trkpt>
      <trkpt lat="40.276250" lon="-4.799000">
        <ele>2035.0</ele>
        <time>2018-06-24T14:22:58Z</time>
      </trkpt>
      <trkpt lat="40.276167" lon="-4.798900">
        <ele>2034.0</ele>
        <time>2018-06-24T14:22:59Z</time>
      </trkpt>
      <trkpt lat="40.276067" lon="-4.798800">
        <ele>2033.0</ele>
        <time>2018-06-24T14:23:00Z</time>
      </trkpt>
      <trkpt lat="40.275983" lon="-4.798700">
        <ele>2032.0</ele>
        <time>2018-06-24T14:23:01Z</time>
      </trkpt>
      <trkpt lat="40.275883" lon="-4.798583">
        <ele>2031.0</ele>
        <time>2018-06-24T14:23:02Z</time>
      </trkpt>
      <trkpt lat="40.275800" lon="-4.798467">
        <ele>2030.0</ele>
        <time>2018-06-24T14:23:03Z</time>
      </trkpt>
      <trkpt lat="40.275717" lon="-4.798350">
        <ele>2030.0</ele>
        <time>2018-06-24T14:23:04Z</time>
      </trkpt>
      <trkpt lat="40.275633" lon="-4.798233">
        <ele>2030.0</ele>
        <time>2018-06-24T14:23:05Z</time>
      </trkpt>
      <trkpt lat="40.275533" lon="-4.798133">
        <ele>2029.0</ele>
        <time>2018-06-24T14:23:06Z</time>
      </trkpt>
      <trkpt lat="40.275450" lon="-4.798017">
        <ele>2028.0</ele>
        <time>2018-06-24T14:23:07Z</time>
      </trkpt>
      <trkpt lat="40.275367" lon="-4.797917">
        <ele>2027.0</ele>
        <time>2018-06-24T14:23:08Z</time>
      </trkpt>
      <trkpt lat="40.275267" lon="-4.797783">
        <ele>2026.0</ele>
        <time>2018-06-24T14:23:09Z</time>
      </trkpt>
      <trkpt lat="40.275183" lon="-4.797683">
        <ele>2026.0</ele>
        <time>2018-06-24T14:23:10Z</time>
      </trkpt>
      <trkpt lat="40.275117" lon="-4.797567">
        <ele>2026.0</ele>
        <time>2018-06-24T14:23:11Z</time>
      </trkpt>
      <trkpt lat="40.275033" lon="-4.797467">
        <ele>2026.0</ele>
        <time>2018-06-24T14:23:12Z</time>
      </trkpt>
      <trkpt lat="40.274950" lon="-4.797367">
        <ele>2025.0</ele>
        <time>2018-06-24T14:23:13Z</time>
      </trkpt>
      <trkpt lat="40.274867" lon="-4.797267">
        <ele>2024.0</ele>
        <time>2018-06-24T14:23:14Z</time>
      </trkpt>
      <trkpt lat="40.274783" lon="-4.797167">
        <ele>2022.0</ele>
        <time>2018-06-24T14:23:15Z</time>
      </trkpt>
      <trkpt lat="40.274700" lon="-4.797067">
        <ele>2021.0</ele>
        <time>2018-06-24T14:23:16Z</time>
      </trkpt>
      <trkpt lat="40.274617" lon="-4.796967">
        <ele>2020.0</ele>
        <time>2018-06-24T14:23:17Z</time>
      </trkpt>
      <trkpt lat="40.274533" lon="-4.796883">
        <ele>2018.0</ele>
        <time>2018-06-24T14:23:18Z</time>
      </trkpt>
      <trkpt lat="40.274433" lon="-4.796783">
        <ele>2017.0</ele>
        <time>2018-06-24T14:23:19Z</time>
      </trkpt>
      <trkpt lat="40.274350" lon="-4.796683">
        <ele>2015.0</ele>
        <time>2018-06-24T14:23:20Z</time>
      </trkpt>
      <trkpt lat="40.274267" lon="-4.796567">
        <ele>2014.0</ele>
        <time>2018-06-24T14:23:21Z</time>
      </trkpt>
      <trkpt lat="40.274183" lon="-4.796450">
        <ele>2012.0</ele>
        <time>2018-06-24T14:23:22Z</time>
      </trkpt>
      <trkpt lat="40.274083" lon="-4.796350">
        <ele>2011.0</ele>
        <time>2018-06-24T14:23:23Z</time>
      </trkpt>
      <trkpt lat="40.274000" lon="-4.796233">
        <ele>2009.0</ele>
        <time>2018-06-24T14:23:24Z</time>
      </trkpt>
      <trkpt lat="40.273917" lon="-4.796117">
        <ele>2008.0</ele>
        <time>2018-06-24T14:23:25Z</time>
      </trkpt>
      <trkpt lat="40.273833" lon="-4.795983">
        <ele>2007.0</ele>
        <time>2018-06-24T14:23:26Z</time>
      </trkpt>
      <trkpt lat="40.273750" lon="-4.795867">
        <ele>2005.0</ele>
        <time>2018-06-24T14:23:27Z</time>
      </trkpt>
      <trkpt lat="40.273667" lon="-4.795750">
        <ele>2004.0</ele>
        <time>2018-06-24T14:23:28Z</time>
      </trkpt>
      <trkpt lat="40.273583" lon="-4.795617">
        <ele>2003.0</ele>
        <time>2018-06-24T14:23:29Z</time>
      </trkpt>
      <trkpt lat="40.273500" lon="-4.795500">
        <ele>2002.0</ele>
        <time>2018-06-24T14:23:30Z</time>
      </trkpt>
      <trkpt lat="40.273417" lon="-4.795367">
        <ele>2000.0</ele>
        <time>2018-06-24T14:23:31Z</time>
      </trkpt>
      <trkpt lat="40.273333" lon="-4.795233">
        <ele>1999.0</ele>
        <time>2018-06-24T14:23:32Z</time>
      </trkpt>
      <trkpt lat="40.273250" lon="-4.795100">
        <ele>1998.0</ele>
        <time>2018-06-24T14:23:33Z</time>
      </trkpt>
      <trkpt lat="40.273167" lon="-4.794983">
        <ele>1997.0</ele>
        <time>2018-06-24T14:23:34Z</time>
      </trkpt>
      <trkpt lat="40.273067" lon="-4.794883">
        <ele>1996.0</ele>
        <time>2018-06-24T14:23:35Z</time>
      </trkpt>
      <trkpt lat="40.272983" lon="-4.794767">
        <ele>1995.0</ele>
        <time>2018-06-24T14:23:36Z</time>
      </trkpt>
      <trkpt lat="40.272900" lon="-4.794667">
        <ele>1993.0</ele>
        <time>2018-06-24T14:23:37Z</time>
      </trkpt>
      <trkpt lat="40.272800" lon="-4.794567">
        <ele>1992.0</ele>
        <time>2018-06-24T14:23:38Z</time>
      </trkpt>
      <trkpt lat="40.272700" lon="-4.794467">
        <ele>1990.0</ele>
        <time>2018-06-24T14:23:39Z</time>
      </trkpt>
      <trkpt lat="40.272617" lon="-4.794383">
        <ele>1989.0</ele>
        <time>2018-06-24T14:23:40Z</time>
      </trkpt>
      <trkpt lat="40.272517" lon="-4.794300">
        <ele>1987.0</ele>
        <time>2018-06-24T14:23:41Z</time>
      </trkpt>
      <trkpt lat="40.272417" lon="-4.794200">
        <ele>1985.0</ele>
        <time>2018-06-24T14:23:42Z</time>
      </trkpt>
      <trkpt lat="40.272317" lon="-4.794100">
        <ele>1983.0</ele>
        <time>2018-06-24T14:23:43Z</time>
      </trkpt>
      <trkpt lat="40.272217" lon="-4.794000">
        <ele>1981.0</ele>
        <time>2018-06-24T14:23:44Z</time>
      </trkpt>
      <trkpt lat="40.272117" lon="-4.793883">
        <ele>1980.0</ele>
        <time>2018-06-24T14:23:45Z</time>
      </trkpt>
      <trkpt lat="40.272033" lon="-4.793767">
        <ele>1979.0</ele>
        <time>2018-06-24T14:23:46Z</time>
      </trkpt>
      <trkpt lat="40.271950" lon="-4.793650">
        <ele>1978.0</ele>
        <time>2018-06-24T14:23:47Z</time>
      </trkpt>
      <trkpt lat="40.271850" lon="-4.793533">
        <ele>1976.0</ele>
        <time>2018-06-24T14:23:48Z</time>
      </trkpt>
      <trkpt lat="40.271767" lon="-4.793417">
        <ele>1975.0</ele>
        <time>2018-06-24T14:23:49Z</time>
      </trkpt>
      <trkpt lat="40.271667" lon="-4.793300">
        <ele>1974.0</ele>
        <time>2018-06-24T14:23:50Z</time>
      </trkpt>
      <trkpt lat="40.271583" lon="-4.793183">
        <ele>1972.0</ele>
        <time>2018-06-24T14:23:51Z</time>
      </trkpt>
      <trkpt lat="40.271500" lon="-4.793050">
        <ele>1971.0</ele>
        <time>2018-06-24T14:23:52Z</time>
      </trkpt>
      <trkpt lat="40.271417" lon="-4.792933">
        <ele>1970.0</ele>
        <time>2018-06-24T14:23:53Z</time>
      </trkpt>
      <trkpt lat="40.271317" lon="-4.792817">
        <ele>1969.0</ele>
        <time>2018-06-24T14:23:54Z</time>
      </trkpt>
      <trkpt lat="40.271233" lon="-4.792717">
        <ele>1969.0</ele>
        <time>2018-06-24T14:23:55Z</time>
      </trkpt>
      <trkpt lat="40.271133" lon="-4.792600">
        <ele>1969.0</ele>
        <time>2018-06-24T14:23:56Z</time>
      </trkpt>
      <trkpt lat="40.271067" lon="-4.792483">
        <ele>1968.0</ele>
        <time>2018-06-24T14:23:57Z</time>
      </trkpt>
      <trkpt lat="40.270983" lon="-4.792367">
        <ele>1968.0</ele>
        <time>2018-06-24T14:23:58Z</time>
      </trkpt>
      <trkpt lat="40.270900" lon="-4.792250">
        <ele>1967.0</ele>
        <time>2018-06-24T14:23:59Z</time>
      </trkpt>
      <trkpt lat="40.270817" lon="-4.792150">
        <ele>1966.0</ele>
        <time>2018-06-24T14:24:00Z</time>
      </trkpt>
      <trkpt lat="40.270733" lon="-4.792033">
        <ele>1964.0</ele>
        <time>2018-06-24T14:24:01Z</time>
      </trkpt>
      <trkpt lat="40.270633" lon="-4.791933">
        <ele>1963.0</ele>
        <time>2018-06-24T14:24:02Z</time>
      </trkpt>
      <trkpt lat="40.270550" lon="-4.791833">
        <ele>1963.0</ele>
        <time>2018-06-24T14:24:03Z</time>
      </trkpt>
      <trkpt lat="40.270450" lon="-4.791733">
        <ele>1962.0</ele>
        <time>2018-06-24T14:24:04Z</time>
      </trkpt>
      <trkpt lat="40.270350" lon="-4.791650">
        <ele>1961.0</ele>
        <time>2018-06-24T14:24:05Z</time>
      </trkpt>
      <trkpt lat="40.270267" lon="-4.791533">
        <ele>1959.0</ele>
        <time>2018-06-24T14:24:06Z</time>
      </trkpt>
      <trkpt lat="40.270183" lon="-4.791433">
        <ele>1958.0</ele>
        <time>2018-06-24T14:24:07Z</time>
      </trkpt>
      <trkpt lat="40.270083" lon="-4.791317">
        <ele>1957.0</ele>
        <time>2018-06-24T14:24:08Z</time>
      </trkpt>
      <trkpt lat="40.270000" lon="-4.791200">
        <ele>1955.0</ele>
        <time>2018-06-24T14:24:09Z</time>
      </trkpt>
      <trkpt lat="40.269917" lon="-4.791100">
        <ele>1954.0</ele>
        <time>2018-06-24T14:24:10Z</time>
      </trkpt>
      <trkpt lat="40.269817" lon="-4.790983">
        <ele>1953.0</ele>
        <time>2018-06-24T14:24:11Z</time>
      </trkpt>
      <trkpt lat="40.269733" lon="-4.790883">
        <ele>1951.0</ele>
        <time>2018-06-24T14:24:12Z</time>
      </trkpt>
      <trkpt lat="40.269650" lon="-4.790800">
        <ele>1950.0</ele>
        <time>2018-06-24T14:24:13Z</time>
      </trkpt>
      <trkpt lat="40.269550" lon="-4.790700">
        <ele>1948.0</ele>
        <time>2018-06-24T14:24:14Z</time>
      </trkpt>
      <trkpt lat="40.269450" lon="-4.790600">
        <ele>1946.0</ele>
        <time>2018-06-24T14:24:15Z</time>
      </trkpt>
      <trkpt lat="40.269350" lon="-4.790517">
        <ele>1944.0</ele>
        <time>2018-06-24T14:24:16Z</time>
      </trkpt>
      <trkpt lat="40.269250" lon="-4.790417">
        <ele>1942.0</ele>
        <time>2018-06-24T14:24:17Z</time>
      </trkpt>
      <trkpt lat="40.269150" lon="-4.790317">
        <ele>1941.0</ele>
        <time>2018-06-24T14:24:18Z</time>
      </trkpt>
      <trkpt lat="40.269050" lon="-4.790233">
        <ele>1939.0</ele>
        <time>2018-06-24T14:24:19Z</time>
      </trkpt>
      <trkpt lat="40.268950" lon="-4.790150">
        <ele>1938.0</ele>
        <time>2018-06-24T14:24:20Z</time>
      </trkpt>
      <trkpt lat="40.268850" lon="-4.790067">
        <ele>1936.0</ele>
        <time>2018-06-24T14:24:21Z</time>
      </trkpt>
      <trkpt lat="40.268750" lon="-4.789967">
        <ele>1934.0</ele>
        <time>2018-06-24T14:24:22Z</time>
      </trkpt>
      <trkpt lat="40.268667" lon="-4.789867">
        <ele>1932.0</ele>
        <time>2018-06-24T14:24:23Z</time>
      </trkpt>
      <trkpt lat="40.268567" lon="-4.789767">
        <ele>1931.0</ele>
        <time>2018-06-24T14:24:24Z</time>
      </trkpt>
      <trkpt lat="40.268467" lon="-4.789683">
        <ele>1930.0</ele>
        <time>2018-06-24T14:24:25Z</time>
      </trkpt>
      <trkpt lat="40.268367" lon="-4.789600">
        <ele>1928.0</ele>
        <time>2018-06-24T14:24:26Z</time>
      </trkpt>
      <trkpt lat="40.268267" lon="-4.789517">
        <ele>1927.0</ele>
        <time>2018-06-24T14:24:27Z</time>
      </trkpt>
      <trkpt lat="40.268167" lon="-4.789433">
        <ele>1925.0</ele>
        <time>2018-06-24T14:24:28Z</time>
      </trkpt>
      <trkpt lat="40.268083" lon="-4.789333">
        <ele>1922.0</ele>
        <time>2018-06-24T14:24:29Z</time>
      </trkpt>
      <trkpt lat="40.267983" lon="-4.789233">
        <ele>1920.0</ele>
        <time>2018-06-24T14:24:30Z</time>
      </trkpt>
      <trkpt lat="40.267900" lon="-4.789117">
        <ele>1917.0</ele>
        <time>2018-06-24T14:24:31Z</time>
      </trkpt>
      <trkpt lat="40.267800" lon="-4.789000">
        <ele>1915.0</ele>
        <time>2018-06-24T14:24:32Z</time>
      </trkpt>
      <trkpt lat="40.267700" lon="-4.788900">
        <ele>1913.0</ele>
        <time>2018-06-24T14:24:33Z</time>
      </trkpt>
      <trkpt lat="40.267617" lon="-4.788783">
        <ele>1911.0</ele>
        <time>2018-06-24T14:24:34Z</time>
      </trkpt>
      <trkpt lat="40.267533" lon="-4.788667">
        <ele>1909.0</ele>
        <time>2018-06-24T14:24:35Z</time>
      </trkpt>
      <trkpt lat="40.267450" lon="-4.788550">
        <ele>1907.0</ele>
        <time>2018-06-24T14:24:36Z</time>
      </trkpt>
      <trkpt lat="40.267367" lon="-4.788433">
        <ele>1905.0</ele>
        <time>2018-06-24T14:24:37Z</time>
      </trkpt>
      <trkpt lat="40.267283" lon="-4.788317">
        <ele>1902.0</ele>
        <time>2018-06-24T14:24:38Z</time>
      </trkpt>
      <trkpt lat="40.267200" lon="-4.788200">
        <ele>1899.0</ele>
        <time>2018-06-24T14:24:39Z</time>
      </trkpt>
      <trkpt lat="40.267100" lon="-4.788083">
        <ele>1897.0</ele>
        <time>2018-06-24T14:24:40Z</time>
      </trkpt>
      <trkpt lat="40.267000" lon="-4.787967">
        <ele>1894.0</ele>
        <time>2018-06-24T14:24:41Z</time>
      </trkpt>
      <trkpt lat="40.266917" lon="-4.787833">
        <ele>1892.0</ele>
        <time>2018-06-24T14:24:42Z</time>
      </trkpt>
      <trkpt lat="40.266817" lon="-4.787700">
        <ele>1890.0</ele>
        <time>2018-06-24T14:24:43Z</time>
      </trkpt>
      <trkpt lat="40.266733" lon="-4.787567">
        <ele>1888.0</ele>
        <time>2018-06-24T14:24:44Z</time>
      </trkpt>
      <trkpt lat="40.266650" lon="-4.787433">
        <ele>1886.0</ele>
        <time>2018-06-24T14:24:45Z</time>
      </trkpt>
      <trkpt lat="40.266567" lon="-4.787300">
        <ele>1884.0</ele>
        <time>2018-06-24T14:24:46Z</time>
      </trkpt>
      <trkpt lat="40.266467" lon="-4.787167">
        <ele>1883.0</ele>
        <time>2018-06-24T14:24:47Z</time>
      </trkpt>
      <trkpt lat="40.266400" lon="-4.787033">
        <ele>1883.0</ele>
        <time>2018-06-24T14:24:48Z</time>
      </trkpt>
      <trkpt lat="40.266333" lon="-4.786883">
        <ele>1883.0</ele>
        <time>2018-06-24T14:24:49Z</time>
      </trkpt>
      <trkpt lat="40.266283" lon="-4.786750">
        <ele>1883.0</ele>
        <time>2018-06-24T14:24:50Z</time>
      </trkpt>
      <trkpt lat="40.266233" lon="-4.786617">
        <ele>1882.0</ele>
        <time>2018-06-24T14:24:51Z</time>
      </trkpt>
      <trkpt lat="40.266167" lon="-4.786483">
        <ele>1880.0</ele>
        <time>2018-06-24T14:24:52Z</time>
      </trkpt>
      <trkpt lat="40.266100" lon="-4.786367">
        <ele>1879.0</ele>
        <time>2018-06-24T14:24:53Z</time>
      </trkpt>
      <trkpt lat="40.266033" lon="-4.786250">
        <ele>1878.0</ele>
        <time>2018-06-24T14:24:54Z</time>
      </trkpt>
      <trkpt lat="40.265967" lon="-4.786133">
        <ele>1876.0</ele>
        <time>2018-06-24T14:24:55Z</time>
      </trkpt>
      <trkpt lat="40.265900" lon="-4.786000">
        <ele>1875.0</ele>
        <time>2018-06-24T14:24:56Z</time>
      </trkpt>
      <trkpt lat="40.265833" lon="-4.785883">
        <ele>1873.0</ele>
        <time>2018-06-24T14:24:57Z</time>
      </trkpt>
      <trkpt lat="40.265767" lon="-4.785750">
        <ele>1871.0</ele>
        <time>2018-06-24T14:24:58Z</time>
      </trkpt>
      <trkpt lat="40.265700" lon="-4.785633">
        <ele>1869.0</ele>
        <time>2018-06-24T14:24:59Z</time>
      </trkpt>
      <trkpt lat="40.265633" lon="-4.785517">
        <ele>1868.0</ele>
        <time>2018-06-24T14:25:00Z</time>
      </trkpt>
      <trkpt lat="40.265550" lon="-4.785383">
        <ele>1866.0</ele>
        <time>2018-06-24T14:25:01Z</time>
      </trkpt>
      <trkpt lat="40.265483" lon="-4.785250">
        <ele>1866.0</ele>
        <time>2018-06-24T14:25:02Z</time>
      </trkpt>
      <trkpt lat="40.265417" lon="-4.785117">
        <ele>1865.0</ele>
        <time>2018-06-24T14:25:03Z</time>
      </trkpt>
      <trkpt lat="40.265333" lon="-4.785000">
        <ele>1864.0</ele>
        <time>2018-06-24T14:25:04Z</time>
      </trkpt>
      <trkpt lat="40.265267" lon="-4.784867">
        <ele>1863.0</ele>
        <time>2018-06-24T14:25:05Z</time>
      </trkpt>
      <trkpt lat="40.265200" lon="-4.784750">
        <ele>1862.0</ele>
        <time>2018-06-24T14:25:06Z</time>
      </trkpt>
      <trkpt lat="40.265133" lon="-4.784617">
        <ele>1860.0</ele>
        <time>2018-06-24T14:25:07Z</time>
      </trkpt>
      <trkpt lat="40.265067" lon="-4.784500">
        <ele>1859.0</ele>
        <time>2018-06-24T14:25:08Z</time>
      </trkpt>
      <trkpt lat="40.265000" lon="-4.784383">
        <ele>1858.0</ele>
        <time>2018-06-24T14:25:09Z</time>
      </trkpt>
      <trkpt lat="40.264933" lon="-4.784267">
        <ele>1857.0</ele>
        <time>2018-06-24T14:25:10Z</time>
      </trkpt>
      <trkpt lat="40.264867" lon="-4.784150">
        <ele>1856.0</ele>
        <time>2018-06-24T14:25:11Z</time>
      </trkpt>
      <trkpt lat="40.264800" lon="-4.784033">
        <ele>1855.0</ele>
        <time>2018-06-24T14:25:12Z</time>
      </trkpt>
      <trkpt lat="40.264733" lon="-4.783917">
        <ele>1853.0</ele>
        <time>2018-06-24T14:25:13Z</time>
      </trkpt>
      <trkpt lat="40.264667" lon="-4.783800">
        <ele>1851.0</ele>
        <time>2018-06-24T14:25:14Z</time>
      </trkpt>
      <trkpt lat="40.264600" lon="-4.783683">
        <ele>1849.0</ele>
        <time>2018-06-24T14:25:15Z</time>
      </trkpt>
      <trkpt lat="40.264533" lon="-4.783583">
        <ele>1847.0</ele>
        <time>2018-06-24T14:25:16Z</time>
      </trkpt>
      <trkpt lat="40.264467" lon="-4.783450">
        <ele>1845.0</ele>
        <time>2018-06-24T14:25:17Z</time>
      </trkpt>
      <trkpt lat="40.264400" lon="-4.783333">
        <ele>1844.0</ele>
        <time>2018-06-24T14:25:18Z</time>
      </trkpt>
      <trkpt lat="40.264317" lon="-4.783200">
        <ele>1842.0</ele>
        <time>2018-06-24T14:25:19Z</time>
      </trkpt>
      <trkpt lat="40.264250" lon="-4.783083">
        <ele>1841.0</ele>
        <time>2018-06-24T14:25:20Z</time>
      </trkpt>
      <trkpt lat="40.264183" lon="-4.782967">
        <ele>1840.0</ele>
        <time>2018-06-24T14:25:21Z</time>
      </trkpt>
      <trkpt lat="40.264100" lon="-4.782850">
        <ele>1839.0</ele>
        <time>2018-06-24T14:25:22Z</time>
      </trkpt>
      <trkpt lat="40.264033" lon="-4.782733">
        <ele>1838.0</ele>
        <time>2018-06-24T14:25:23Z</time>
      </trkpt>
      <trkpt lat="40.263950" lon="-4.782617">
        <ele>1837.0</ele>
        <time>2018-06-24T14:25:24Z</time>
      </trkpt>
      <trkpt lat="40.263883" lon="-4.782500">
        <ele>1836.0</ele>
        <time>2018-06-24T14:25:25Z</time>
      </trkpt>
      <trkpt lat="40.263800" lon="-4.782400">
        <ele>1835.0</ele>
        <time>2018-06-24T14:25:26Z</time>
      </trkpt>
      <trkpt lat="40.263717" lon="-4.782283">
        <ele>1834.0</ele>
        <time>2018-06-24T14:25:27Z</time>
      </trkpt>
      <trkpt lat="40.263650" lon="-4.782167">
        <ele>1833.0</ele>
        <time>2018-06-24T14:25:28Z</time>
      </trkpt>
      <trkpt lat="40.263567" lon="-4.782050">
        <ele>1832.0</ele>
        <time>2018-06-24T14:25:29Z</time>
      </trkpt>
      <trkpt lat="40.263483" lon="-4.781933">
        <ele>1831.0</ele>
        <time>2018-06-24T14:25:30Z</time>
      </trkpt>
      <trkpt lat="40.263417" lon="-4.781833">
        <ele>1830.0</ele>
        <time>2018-06-24T14:25:31Z</time>
      </trkpt>
      <trkpt lat="40.263350" lon="-4.781717">
        <ele>1829.0</ele>
        <time>2018-06-24T14:25:32Z</time>
      </trkpt>
      <trkpt lat="40.263267" lon="-4.781617">
        <ele>1828.0</ele>
        <time>2018-06-24T14:25:33Z</time>
      </trkpt>
      <trkpt lat="40.263200" lon="-4.781500">
        <ele>1826.0</ele>
        <time>2018-06-24T14:25:34Z</time>
      </trkpt>
      <trkpt lat="40.263117" lon="-4.781400">
        <ele>1824.0</ele>
        <time>2018-06-24T14:25:35Z</time>
      </trkpt>
      <trkpt lat="40.263050" lon="-4.781283">
        <ele>1823.0</ele>
        <time>2018-06-24T14:25:36Z</time>
      </trkpt>
      <trkpt lat="40.262967" lon="-4.781167">
        <ele>1822.0</ele>
        <time>2018-06-24T14:25:37Z</time>
      </trkpt>
      <trkpt lat="40.262900" lon="-4.781050">
        <ele>1822.0</ele>
        <time>2018-06-24T14:25:38Z</time>
      </trkpt>
      <trkpt lat="40.262817" lon="-4.780950">
        <ele>1821.0</ele>
        <time>2018-06-24T14:25:39Z</time>
      </trkpt>
      <trkpt lat="40.262733" lon="-4.780833">
        <ele>1819.0</ele>
        <time>2018-06-24T14:25:40Z</time>
      </trkpt>
      <trkpt lat="40.262667" lon="-4.780700">
        <ele>1817.0</ele>
        <time>2018-06-24T14:25:41Z</time>
      </trkpt>
      <trkpt lat="40.262600" lon="-4.780567">
        <ele>1815.0</ele>
        <time>2018-06-24T14:25:42Z</time>
      </trkpt>
      <trkpt lat="40.262517" lon="-4.780417">
        <ele>1812.0</ele>
        <time>2018-06-24T14:25:43Z</time>
      </trkpt>
      <trkpt lat="40.262450" lon="-4.780283">
        <ele>1810.0</ele>
        <time>2018-06-24T14:25:44Z</time>
      </trkpt>
      <trkpt lat="40.262367" lon="-4.780133">
        <ele>1809.0</ele>
        <time>2018-06-24T14:25:45Z</time>
      </trkpt>
      <trkpt lat="40.262283" lon="-4.780000">
        <ele>1807.0</ele>
        <time>2018-06-24T14:25:46Z</time>
      </trkpt>
      <trkpt lat="40.262217" lon="-4.779867">
        <ele>1806.0</ele>
        <time>2018-06-24T14:25:47Z</time>
      </trkpt>
      <trkpt lat="40.262133" lon="-4.779750">
        <ele>1804.0</ele>
        <time>2018-06-24T14:25:48Z</time>
      </trkpt>
      <trkpt lat="40.262050" lon="-4.779650">
        <ele>1802.0</ele>
        <time>2018-06-24T14:25:49Z</time>
      </trkpt>
      <trkpt lat="40.261967" lon="-4.779533">
        <ele>1800.0</ele>
        <time>2018-06-24T14:25:50Z</time>
      </trkpt>
      <trkpt lat="40.261867" lon="-4.779433">
        <ele>1798.0</ele>
        <time>2018-06-24T14:25:51Z</time>
      </trkpt>
      <trkpt lat="40.261783" lon="-4.779317">
        <ele>1796.0</ele>
        <time>2018-06-24T14:25:52Z</time>
      </trkpt>
      <trkpt lat="40.261683" lon="-4.779200">
        <ele>1795.0</ele>
        <time>2018-06-24T14:25:53Z</time>
      </trkpt>
      <trkpt lat="40.261600" lon="-4.779100">
        <ele>1793.0</ele>
        <time>2018-06-24T14:25:54Z</time>
      </trkpt>
      <trkpt lat="40.261517" lon="-4.779017">
        <ele>1792.0</ele>
        <time>2018-06-24T14:25:55Z</time>
      </trkpt>
      <trkpt lat="40.261433" lon="-4.778900">
        <ele>1790.0</ele>
        <time>2018-06-24T14:25:56Z</time>
      </trkpt>
      <trkpt lat="40.261367" lon="-4.778800">
        <ele>1788.0</ele>
        <time>2018-06-24T14:25:57Z</time>
      </trkpt>
      <trkpt lat="40.261283" lon="-4.778683">
        <ele>1785.0</ele>
        <time>2018-06-24T14:25:58Z</time>
      </trkpt>
      <trkpt lat="40.261200" lon="-4.778567">
        <ele>1783.0</ele>
        <time>2018-06-24T14:25:59Z</time>
      </trkpt>
      <trkpt lat="40.261117" lon="-4.778450">
        <ele>1780.0</ele>
        <time>2018-06-24T14:26:00Z</time>
      </trkpt>
      <trkpt lat="40.261033" lon="-4.778333">
        <ele>1778.0</ele>
        <time>2018-06-24T14:26:01Z</time>
      </trkpt>
      <trkpt lat="40.260950" lon="-4.778233">
        <ele>1777.0</ele>
        <time>2018-06-24T14:26:02Z</time>
      </trkpt>
      <trkpt lat="40.260867" lon="-4.778117">
        <ele>1775.0</ele>
        <time>2018-06-24T14:26:03Z</time>
      </trkpt>
      <trkpt lat="40.260783" lon="-4.778017">
        <ele>1773.0</ele>
        <time>2018-06-24T14:26:04Z</time>
      </trkpt>
      <trkpt lat="40.260700" lon="-4.777917">
        <ele>1771.0</ele>
        <time>2018-06-24T14:26:05Z</time>
      </trkpt>
      <trkpt lat="40.260617" lon="-4.777817">
        <ele>1769.0</ele>
        <time>2018-06-24T14:26:06Z</time>
      </trkpt>
      <trkpt lat="40.260533" lon="-4.777717">
        <ele>1766.0</ele>
        <time>2018-06-24T14:26:07Z</time>
      </trkpt>
      <trkpt lat="40.260450" lon="-4.777617">
        <ele>1765.0</ele>
        <time>2018-06-24T14:26:08Z</time>
      </trkpt>
      <trkpt lat="40.260350" lon="-4.777517">
        <ele>1763.0</ele>
        <time>2018-06-24T14:26:09Z</time>
      </trkpt>
      <trkpt lat="40.260267" lon="-4.777417">
        <ele>1761.0</ele>
        <time>2018-06-24T14:26:10Z</time>
      </trkpt>
      <trkpt lat="40.260183" lon="-4.777317">
        <ele>1758.0</ele>
        <time>2018-06-24T14:26:11Z</time>
      </trkpt>
      <trkpt lat="40.260100" lon="-4.777217">
        <ele>1757.0</ele>
        <time>2018-06-24T14:26:12Z</time>
      </trkpt>
      <trkpt lat="40.260000" lon="-4.777133">
        <ele>1754.0</ele>
        <time>2018-06-24T14:26:13Z</time>
      </trkpt>
      <trkpt lat="40.259917" lon="-4.777033">
        <ele>1752.0</ele>
        <time>2018-06-24T14:26:14Z</time>
      </trkpt>
      <trkpt lat="40.259833" lon="-4.776933">
        <ele>1750.0</ele>
        <time>2018-06-24T14:26:15Z</time>
      </trkpt>
      <trkpt lat="40.259750" lon="-4.776817">
        <ele>1747.0</ele>
        <time>2018-06-24T14:26:16Z</time>
      </trkpt>
      <trkpt lat="40.259667" lon="-4.776717">
        <ele>1745.0</ele>
        <time>2018-06-24T14:26:17Z</time>
      </trkpt>
      <trkpt lat="40.259583" lon="-4.776600">
        <ele>1743.0</ele>
        <time>2018-06-24T14:26:18Z</time>
      </trkpt>
      <trkpt lat="40.259500" lon="-4.776500">
        <ele>1741.0</ele>
        <time>2018-06-24T14:26:19Z</time>
      </trkpt>
      <trkpt lat="40.259417" lon="-4.776400">
        <ele>1739.0</ele>
        <time>2018-06-24T14:26:20Z</time>
      </trkpt>
      <trkpt lat="40.259333" lon="-4.776283">
        <ele>1738.0</ele>
        <time>2018-06-24T14:26:21Z</time>
      </trkpt>
      <trkpt lat="40.259250" lon="-4.776183">
        <ele>1736.0</ele>
        <time>2018-06-24T14:26:22Z</time>
      </trkpt>
      <trkpt lat="40.259183" lon="-4.776067">
        <ele>1734.0</ele>
        <time>2018-06-24T14:26:23Z</time>
      </trkpt>
      <trkpt lat="40.259117" lon="-4.775950">
        <ele>1733.0</ele>
        <time>2018-06-24T14:26:24Z</time>
      </trkpt>
      <trkpt lat="40.259050" lon="-4.775833">
        <ele>1731.0</ele>
        <time>2018-06-24T14:26:25Z</time>
      </trkpt>
      <trkpt lat="40.258983" lon="-4.775717">
        <ele>1729.0</ele>
        <time>2018-06-24T14:26:26Z</time>
      </trkpt>
      <trkpt lat="40.258900" lon="-4.775617">
        <ele>1727.0</ele>
        <time>2018-06-24T14:26:27Z</time>
      </trkpt>
      <trkpt lat="40.258817" lon="-4.775500">
        <ele>1725.0</ele>
        <time>2018-06-24T14:26:28Z</time>
      </trkpt>
      <trkpt lat="40.258733" lon="-4.775400">
        <ele>1722.0</ele>
        <time>2018-06-24T14:26:29Z</time>
      </trkpt>
      <trkpt lat="40.258650" lon="-4.775300">
        <ele>1720.0</ele>
        <time>2018-06-24T14:26:30Z</time>
      </trkpt>
      <trkpt lat="40.258567" lon="-4.775200">
        <ele>1718.0</ele>
        <time>2018-06-24T14:26:31Z</time>
      </trkpt>
      <trkpt lat="40.258483" lon="-4.775100">
        <ele>1717.0</ele>
        <time>2018-06-24T14:26:32Z</time>
      </trkpt>
      <trkpt lat="40.258400" lon="-4.775000">
        <ele>1716.0</ele>
        <time>2018-06-24T14:26:33Z</time>
      </trkpt>
      <trkpt lat="40.258317" lon="-4.774900">
        <ele>1714.0</ele>
        <time>2018-06-24T14:26:34Z</time>
      </trkpt>
      <trkpt lat="40.258233" lon="-4.774800">
        <ele>1713.0</ele>
        <time>2018-06-24T14:26:35Z</time>
      </trkpt>
      <trkpt lat="40.258167" lon="-4.774683">
        <ele>1711.0</ele>
        <time>2018-06-24T14:26:36Z</time>
      </trkpt>
      <trkpt lat="40.258083" lon="-4.774583">
        <ele>1710.0</ele>
        <time>2018-06-24T14:26:37Z</time>
      </trkpt>
      <trkpt lat="40.258000" lon="-4.774483">
        <ele>1708.0</ele>
        <time>2018-06-24T14:26:38Z</time>
      </trkpt>
      <trkpt lat="40.257933" lon="-4.774367">
        <ele>1706.0</ele>
        <time>2018-06-24T14:26:39Z</time>
      </trkpt>
      <trkpt lat="40.257850" lon="-4.774250">
        <ele>1704.0</ele>
        <time>2018-06-24T14:26:40Z</time>
      </trkpt>
      <trkpt lat="40.257783" lon="-4.774133">
        <ele>1702.0</ele>
        <time>2018-06-24T14:26:41Z</time>
      </trkpt>
      <trkpt lat="40.257700" lon="-4.774017">
        <ele>1700.0</ele>
        <time>2018-06-24T14:26:42Z</time>
      </trkpt>
      <trkpt lat="40.257633" lon="-4.773900">
        <ele>1698.0</ele>
        <time>2018-06-24T14:26:43Z</time>
      </trkpt>
      <trkpt lat="40.257550" lon="-4.773800">
        <ele>1696.0</ele>
        <time>2018-06-24T14:26:44Z</time>
      </trkpt>
      <trkpt lat="40.257467" lon="-4.773683">
        <ele>1694.0</ele>
        <time>2018-06-24T14:26:45Z</time>
      </trkpt>
      <trkpt lat="40.257400" lon="-4.773583">
        <ele>1692.0</ele>
        <time>2018-06-24T14:26:46Z</time>
      </trkpt>
      <trkpt lat="40.257317" lon="-4.773467">
        <ele>1690.0</ele>
        <time>2018-06-24T14:26:47Z</time>
      </trkpt>
      <trkpt lat="40.257233" lon="-4.773367">
        <ele>1688.0</ele>
        <time>2018-06-24T14:26:48Z</time>
      </trkpt>
      <trkpt lat="40.257150" lon="-4.773267">
        <ele>1686.0</ele>
        <time>2018-06-24T14:26:49Z</time>
      </trkpt>
      <trkpt lat="40.257067" lon="-4.773167">
        <ele>1684.0</ele>
        <time>2018-06-24T14:26:50Z</time>
      </trkpt>
      <trkpt lat="40.256967" lon="-4.773067">
        <ele>1683.0</ele>
        <time>2018-06-24T14:26:51Z</time>
      </trkpt>
      <trkpt lat="40.256883" lon="-4.772967">
        <ele>1682.0</ele>
        <time>2018-06-24T14:26:52Z</time>
      </trkpt>
      <trkpt lat="40.256817" lon="-4.772867">
        <ele>1681.0</ele>
        <time>2018-06-24T14:26:53Z</time>
      </trkpt>
      <trkpt lat="40.256733" lon="-4.772767">
        <ele>1680.0</ele>
        <time>2018-06-24T14:26:54Z</time>
      </trkpt>
      <trkpt lat="40.256650" lon="-4.772667">
        <ele>1678.0</ele>
        <time>2018-06-24T14:26:55Z</time>
      </trkpt>
      <trkpt lat="40.256567" lon="-4.772583">
        <ele>1676.0</ele>
        <time>2018-06-24T14:26:56Z</time>
      </trkpt>
      <trkpt lat="40.256483" lon="-4.772467">
        <ele>1674.0</ele>
        <time>2018-06-24T14:26:57Z</time>
      </trkpt>
      <trkpt lat="40.256400" lon="-4.772367">
        <ele>1673.0</ele>
        <time>2018-06-24T14:26:58Z</time>
      </trkpt>
      <trkpt lat="40.256317" lon="-4.772250">
        <ele>1671.0</ele>
        <time>2018-06-24T14:26:59Z</time>
      </trkpt>
      <trkpt lat="40.256233" lon="-4.772133">
        <ele>1670.0</ele>
        <time>2018-06-24T14:27:00Z</time>
      </trkpt>
      <trkpt lat="40.256167" lon="-4.772033">
        <ele>1669.0</ele>
        <time>2018-06-24T14:27:01Z</time>
      </trkpt>
      <trkpt lat="40.256083" lon="-4.771917">
        <ele>1668.0</ele>
        <time>2018-06-24T14:27:02Z</time>
      </trkpt>
      <trkpt lat="40.256000" lon="-4.771817">
        <ele>1667.0</ele>
        <time>2018-06-24T14:27:03Z</time>
      </trkpt>
      <trkpt lat="40.255917" lon="-4.771700">
        <ele>1665.0</ele>
        <time>2018-06-24T14:27:04Z</time>
      </trkpt>
      <trkpt lat="40.255833" lon="-4.771583">
        <ele>1664.0</ele>
        <time>2018-06-24T14:27:05Z</time>
      </trkpt>
      <trkpt lat="40.255750" lon="-4.771483">
        <ele>1663.0</ele>
        <time>2018-06-24T14:27:06Z</time>
      </trkpt>
      <trkpt lat="40.255667" lon="-4.771383">
        <ele>1662.0</ele>
        <time>2018-06-24T14:27:07Z</time>
      </trkpt>
      <trkpt lat="40.255583" lon="-4.771283">
        <ele>1661.0</ele>
        <time>2018-06-24T14:27:08Z</time>
      </trkpt>
      <trkpt lat="40.255483" lon="-4.771183">
        <ele>1659.0</ele>
        <time>2018-06-24T14:27:09Z</time>
      </trkpt>
      <trkpt lat="40.255400" lon="-4.771100">
        <ele>1658.0</ele>
        <time>2018-06-24T14:27:10Z</time>
      </trkpt>
      <trkpt lat="40.255317" lon="-4.771000">
        <ele>1656.0</ele>
        <time>2018-06-24T14:27:11Z</time>
      </trkpt>
      <trkpt lat="40.255217" lon="-4.770917">
        <ele>1655.0</ele>
        <time>2018-06-24T14:27:12Z</time>
      </trkpt>
      <trkpt lat="40.255117" lon="-4.770817">
        <ele>1653.0</ele>
        <time>2018-06-24T14:27:13Z</time>
      </trkpt>
      <trkpt lat="40.255017" lon="-4.770733">
        <ele>1652.0</ele>
        <time>2018-06-24T14:27:14Z</time>
      </trkpt>
      <trkpt lat="40.254933" lon="-4.770633">
        <ele>1652.0</ele>
        <time>2018-06-24T14:27:15Z</time>
      </trkpt>
      <trkpt lat="40.254833" lon="-4.770550">
        <ele>1651.0</ele>
        <time>2018-06-24T14:27:16Z</time>
      </trkpt>
      <trkpt lat="40.254750" lon="-4.770450">
        <ele>1650.0</ele>
        <time>2018-06-24T14:27:17Z</time>
      </trkpt>
      <trkpt lat="40.254667" lon="-4.770350">
        <ele>1648.0</ele>
        <time>2018-06-24T14:27:18Z</time>
      </trkpt>
      <trkpt lat="40.254567" lon="-4.770250">
        <ele>1647.0</ele>
        <time>2018-06-24T14:27:19Z</time>
      </trkpt>
      <trkpt lat="40.254483" lon="-4.770167">
        <ele>1646.0</ele>
        <time>2018-06-24T14:27:20Z</time>
      </trkpt>
      <trkpt lat="40.254383" lon="-4.770067">
        <ele>1645.0</ele>
        <time>2018-06-24T14:27:21Z</time>
      </trkpt>
      <trkpt lat="40.254283" lon="-4.769967">
        <ele>1644.0</ele>
        <time>2018-06-24T14:27:22Z</time>
      </trkpt>
      <trkpt lat="40.254200" lon="-4.769867">
        <ele>1644.0</ele>
        <time>2018-06-24T14:27:23Z</time>
      </trkpt>
      <trkpt lat="40.254100" lon="-4.769783">
        <ele>1643.0</ele>
        <time>2018-06-24T14:27:24Z</time>
      </trkpt>
      <trkpt lat="40.254017" lon="-4.769700">
        <ele>1642.0</ele>
        <time>2018-06-24T14:27:25Z</time>
      </trkpt>
      <trkpt lat="40.253917" lon="-4.769617">
        <ele>1640.0</ele>
        <time>2018-06-24T14:27:26Z</time>
      </trkpt>
      <trkpt lat="40.253817" lon="-4.769517">
        <ele>1639.0</ele>
        <time>2018-06-24T14:27:27Z</time>
      </trkpt>
      <trkpt lat="40.253717" lon="-4.769433">
        <ele>1638.0</ele>
        <time>2018-06-24T14:27:28Z</time>
      </trkpt>
      <trkpt lat="40.253617" lon="-4.769333">
        <ele>1637.0</ele>
        <time>2018-06-24T14:27:29Z</time>
      </trkpt>
      <trkpt lat="40.253533" lon="-4.769250">
        <ele>1637.0</ele>
        <time>2018-06-24T14:27:30Z</time>
      </trkpt>
      <trkpt lat="40.253433" lon="-4.769167">
        <ele>1636.0</ele>
        <time>2018-06-24T14:27:31Z</time>
      </trkpt>
      <trkpt lat="40.253350" lon="-4.769083">
        <ele>1635.0</ele>
        <time>2018-06-24T14:27:32Z</time>
      </trkpt>
      <trkpt lat="40.253250" lon="-4.768983">
        <ele>1633.0</ele>
        <time>2018-06-24T14:27:33Z</time>
      </trkpt>
      <trkpt lat="40.253150" lon="-4.768883">
        <ele>1632.0</ele>
        <time>2018-06-24T14:27:34Z</time>
      </trkpt>
      <trkpt lat="40.253067" lon="-4.768800">
        <ele>1631.0</ele>
        <time>2018-06-24T14:27:35Z</time>
      </trkpt>
      <trkpt lat="40.252967" lon="-4.768700">
        <ele>1629.0</ele>
        <time>2018-06-24T14:27:36Z</time>
      </trkpt>
      <trkpt lat="40.252883" lon="-4.768600">
        <ele>1628.0</ele>
        <time>2018-06-24T14:27:37Z</time>
      </trkpt>
      <trkpt lat="40.252783" lon="-4.768517">
        <ele>1627.0</ele>
        <time>2018-06-24T14:27:38Z</time>
      </trkpt>
      <trkpt lat="40.252683" lon="-4.768417">
        <ele>1626.0</ele>
        <time>2018-06-24T14:27:39Z</time>
      </trkpt>
      <trkpt lat="40.252600" lon="-4.768317">
        <ele>1624.0</ele>
        <time>2018-06-24T14:27:40Z</time>
      </trkpt>
      <trkpt lat="40.252500" lon="-4.768217">
        <ele>1623.0</ele>
        <time>2018-06-24T14:27:41Z</time>
      </trkpt>
      <trkpt lat="40.252400" lon="-4.768117">
        <ele>1622.0</ele>
        <time>2018-06-24T14:27:42Z</time>
      </trkpt>
      <trkpt lat="40.252317" lon="-4.768017">
        <ele>1621.0</ele>
        <time>2018-06-24T14:27:43Z</time>
      </trkpt>
      <trkpt lat="40.252217" lon="-4.767917">
        <ele>1620.0</ele>
        <time>2018-06-24T14:27:44Z</time>
      </trkpt>
      <trkpt lat="40.252133" lon="-4.767817">
        <ele>1619.0</ele>
        <time>2018-06-24T14:27:45Z</time>
      </trkpt>
      <trkpt lat="40.252050" lon="-4.767717">
        <ele>1617.0</ele>
        <time>2018-06-24T14:27:46Z</time>
      </trkpt>
      <trkpt lat="40.251950" lon="-4.767617">
        <ele>1616.0</ele>
        <time>2018-06-24T14:27:47Z</time>
      </trkpt>
      <trkpt lat="40.251867" lon="-4.767517">
        <ele>1614.0</ele>
        <time>2018-06-24T14:27:48Z</time>
      </trkpt>
      <trkpt lat="40.251767" lon="-4.767417">
        <ele>1612.0</ele>
        <time>2018-06-24T14:27:49Z</time>
      </trkpt>
      <trkpt lat="40.251667" lon="-4.767317">
        <ele>1610.0</ele>
        <time>2018-06-24T14:27:50Z</time>
      </trkpt>
      <trkpt lat="40.251583" lon="-4.767217">
        <ele>1609.0</ele>
        <time>2018-06-24T14:27:51Z</time>
      </trkpt>
      <trkpt lat="40.251500" lon="-4.767117">
        <ele>1607.0</ele>
        <time>2018-06-24T14:27:52Z</time>
      </trkpt>
      <trkpt lat="40.251400" lon="-4.767017">
        <ele>1606.0</ele>
        <time>2018-06-24T14:27:53Z</time>
      </trkpt>
      <trkpt lat="40.251317" lon="-4.766917">
        <ele>1604.0</ele>
        <time>2018-06-24T14:27:54Z</time>
      </trkpt>
      <trkpt lat="40.251217" lon="-4.766817">
        <ele>1602.0</ele>
        <time>2018-06-24T14:27:55Z</time>
      </trkpt>
      <trkpt lat="40.251133" lon="-4.766733">
        <ele>1600.0</ele>
        <time>2018-06-24T14:27:56Z</time>
      </trkpt>
      <trkpt lat="40.251033" lon="-4.766633">
        <ele>1598.0</ele>
        <time>2018-06-24T14:27:57Z</time>
      </trkpt>
      <trkpt lat="40.250950" lon="-4.766550">
        <ele>1597.0</ele>
        <time>2018-06-24T14:27:58Z</time>
      </trkpt>
      <trkpt lat="40.250867" lon="-4.766450">
        <ele>1595.0</ele>
        <time>2018-06-24T14:27:59Z</time>
      </trkpt>
      <trkpt lat="40.250767" lon="-4.766367">
        <ele>1593.0</ele>
        <time>2018-06-24T14:28:00Z</time>
      </trkpt>
      <trkpt lat="40.250683" lon="-4.766283">
        <ele>1590.0</ele>
        <time>2018-06-24T14:28:01Z</time>
      </trkpt>
      <trkpt lat="40.250600" lon="-4.766183">
        <ele>1588.0</ele>
        <time>2018-06-24T14:28:02Z</time>
      </trkpt>
      <trkpt lat="40.250500" lon="-4.766083">
        <ele>1586.0</ele>
        <time>2018-06-24T14:28:03Z</time>
      </trkpt>
      <trkpt lat="40.250417" lon="-4.765983">
        <ele>1583.0</ele>
        <time>2018-06-24T14:28:04Z</time>
      </trkpt>
      <trkpt lat="40.250333" lon="-4.765900">
        <ele>1582.0</ele>
        <time>2018-06-24T14:28:05Z</time>
      </trkpt>
      <trkpt lat="40.250233" lon="-4.765800">
        <ele>1580.0</ele>
        <time>2018-06-24T14:28:06Z</time>
      </trkpt>
      <trkpt lat="40.250150" lon="-4.765700">
        <ele>1578.0</ele>
        <time>2018-06-24T14:28:07Z</time>
      </trkpt>
      <trkpt lat="40.250067" lon="-4.765600">
        <ele>1576.0</ele>
        <time>2018-06-24T14:28:08Z</time>
      </trkpt>
      <trkpt lat="40.249983" lon="-4.765500">
        <ele>1574.0</ele>
        <time>2018-06-24T14:28:09Z</time>
      </trkpt>
      <trkpt lat="40.249900" lon="-4.765400">
        <ele>1572.0</ele>
        <time>2018-06-24T14:28:10Z</time>
      </trkpt>
      <trkpt lat="40.249817" lon="-4.765300">
        <ele>1569.0</ele>
        <time>2018-06-24T14:28:11Z</time>
      </trkpt>
      <trkpt lat="40.249733" lon="-4.765217">
        <ele>1567.0</ele>
        <time>2018-06-24T14:28:12Z</time>
      </trkpt>
      <trkpt lat="40.249633" lon="-4.765133">
        <ele>1564.0</ele>
        <time>2018-06-24T14:28:13Z</time>
      </trkpt>
      <trkpt lat="40.249533" lon="-4.765067">
        <ele>1562.0</ele>
        <time>2018-06-24T14:28:14Z</time>
      </trkpt>
      <trkpt lat="40.249433" lon="-4.765000">
        <ele>1560.0</ele>
        <time>2018-06-24T14:28:15Z</time>
      </trkpt>
      <trkpt lat="40.249333" lon="-4.764950">
        <ele>1559.0</ele>
        <time>2018-06-24T14:28:16Z</time>
      </trkpt>
      <trkpt lat="40.249233" lon="-4.764883">
        <ele>1557.0</ele>
        <time>2018-06-24T14:28:17Z</time>
      </trkpt>
      <trkpt lat="40.249133" lon="-4.764817">
        <ele>1555.0</ele>
        <time>2018-06-24T14:28:18Z</time>
      </trkpt>
      <trkpt lat="40.249033" lon="-4.764733">
        <ele>1552.0</ele>
        <time>2018-06-24T14:28:19Z</time>
      </trkpt>
      <trkpt lat="40.248933" lon="-4.764650">
        <ele>1550.0</ele>
        <time>2018-06-24T14:28:20Z</time>
      </trkpt>
      <trkpt lat="40.248850" lon="-4.764567">
        <ele>1547.0</ele>
        <time>2018-06-24T14:28:21Z</time>
      </trkpt>
      <trkpt lat="40.248750" lon="-4.764483">
        <ele>1544.0</ele>
        <time>2018-06-24T14:28:22Z</time>
      </trkpt>
      <trkpt lat="40.248667" lon="-4.764400">
        <ele>1542.0</ele>
        <time>2018-06-24T14:28:23Z</time>
      </trkpt>
      <trkpt lat="40.248567" lon="-4.764300">
        <ele>1539.0</ele>
        <time>2018-06-24T14:28:24Z</time>
      </trkpt>
      <trkpt lat="40.248467" lon="-4.764217">
        <ele>1537.0</ele>
        <time>2018-06-24T14:28:25Z</time>
      </trkpt>
      <trkpt lat="40.248383" lon="-4.764117">
        <ele>1534.0</ele>
        <time>2018-06-24T14:28:26Z</time>
      </trkpt>
      <trkpt lat="40.248300" lon="-4.764033">
        <ele>1532.0</ele>
        <time>2018-06-24T14:28:27Z</time>
      </trkpt>
      <trkpt lat="40.248200" lon="-4.763933">
        <ele>1529.0</ele>
        <time>2018-06-24T14:28:28Z</time>
      </trkpt>
      <trkpt lat="40.248117" lon="-4.763833">
        <ele>1527.0</ele>
        <time>2018-06-24T14:28:29Z</time>
      </trkpt>
      <trkpt lat="40.248033" lon="-4.763750">
        <ele>1524.0</ele>
        <time>2018-06-24T14:28:30Z</time>
      </trkpt>
      <trkpt lat="40.247933" lon="-4.763650">
        <ele>1521.0</ele>
        <time>2018-06-24T14:28:31Z</time>
      </trkpt>
      <trkpt lat="40.247850" lon="-4.763550">
        <ele>1518.0</ele>
        <time>2018-06-24T14:28:32Z</time>
      </trkpt>
      <trkpt lat="40.247767" lon="-4.763450">
        <ele>1516.0</ele>
        <time>2018-06-24T14:28:33Z</time>
      </trkpt>
      <trkpt lat="40.247683" lon="-4.763367">
        <ele>1513.0</ele>
        <time>2018-06-24T14:28:34Z</time>
      </trkpt>
      <trkpt lat="40.247583" lon="-4.763283">
        <ele>1510.0</ele>
        <time>2018-06-24T14:28:35Z</time>
      </trkpt>
      <trkpt lat="40.247500" lon="-4.763217">
        <ele>1508.0</ele>
        <time>2018-06-24T14:28:36Z</time>
      </trkpt>
      <trkpt lat="40.247417" lon="-4.763133">
        <ele>1504.0</ele>
        <time>2018-06-24T14:28:37Z</time>
      </trkpt>
      <trkpt lat="40.247317" lon="-4.763067">
        <ele>1501.0</ele>
        <time>2018-06-24T14:28:38Z</time>
      </trkpt>
      <trkpt lat="40.247233" lon="-4.762983">
        <ele>1497.0</ele>
        <time>2018-06-24T14:28:39Z</time>
      </trkpt>
      <trkpt lat="40.247133" lon="-4.762900">
        <ele>1495.0</ele>
        <time>2018-06-24T14:28:40Z</time>
      </trkpt>
      <trkpt lat="40.247050" lon="-4.762817">
        <ele>1492.0</ele>
        <time>2018-06-24T14:28:41Z</time>
      </trkpt>
      <trkpt lat="40.246967" lon="-4.762733">
        <ele>1490.0</ele>
        <time>2018-06-24T14:28:42Z</time>
      </trkpt>
      <trkpt lat="40.246883" lon="-4.762650">
        <ele>1488.0</ele>
        <time>2018-06-24T14:28:43Z</time>
      </trkpt>
      <trkpt lat="40.246817" lon="-4.762583">
        <ele>1486.0</ele>
        <time>2018-06-24T14:28:44Z</time>
      </trkpt>
      <trkpt lat="40.246733" lon="-4.762500">
        <ele>1483.0</ele>
        <time>2018-06-24T14:28:45Z</time>
      </trkpt>
      <trkpt lat="40.246650" lon="-4.762417">
        <ele>1479.0</ele>
        <time>2018-06-24T14:28:46Z</time>
      </trkpt>
      <trkpt lat="40.246567" lon="-4.762333">
        <ele>1476.0</ele>
        <time>2018-06-24T14:28:47Z</time>
      </trkpt>
      <trkpt lat="40.246483" lon="-4.762250">
        <ele>1474.0</ele>
        <time>2018-06-24T14:28:48Z</time>
      </trkpt>
      <trkpt lat="40.246400" lon="-4.762167">
        <ele>1471.0</ele>
        <time>2018-06-24T14:28:49Z</time>
      </trkpt>
      <trkpt lat="40.246333" lon="-4.762100">
        <ele>1470.0</ele>
        <time>2018-06-24T14:28:50Z</time>
      </trkpt>
      <trkpt lat="40.246250" lon="-4.762017">
        <ele>1468.0</ele>
        <time>2018-06-24T14:28:51Z</time>
      </trkpt>
      <trkpt lat="40.246183" lon="-4.761933">
        <ele>1468.0</ele>
        <time>2018-06-24T14:28:52Z</time>
      </trkpt>
      <trkpt lat="40.246117" lon="-4.761867">
        <ele>1468.0</ele>
        <time>2018-06-24T14:28:53Z</time>
      </trkpt>
      <trkpt lat="40.246067" lon="-4.761800">
        <ele>1469.0</ele>
        <time>2018-06-24T14:28:54Z</time>
      </trkpt>
      <trkpt lat="40.246017" lon="-4.761750">
        <ele>1469.0</ele>
        <time>2018-06-24T14:28:55Z</time>
      </trkpt>
      <trkpt lat="40.245967" lon="-4.761683">
        <ele>1468.0</ele>
        <time>2018-06-24T14:28:56Z</time>
      </trkpt>
      <trkpt lat="40.245917" lon="-4.761633">
        <ele>1467.0</ele>
        <time>2018-06-24T14:28:57Z</time>
      </trkpt>
      <trkpt lat="40.245867" lon="-4.761567">
        <ele>1466.0</ele>
        <time>2018-06-24T14:28:58Z</time>
      </trkpt>
      <trkpt lat="40.245817" lon="-4.761517">
        <ele>1465.0</ele>
        <time>2018-06-24T14:28:59Z</time>
      </trkpt>
      <trkpt lat="40.245750" lon="-4.761450">
        <ele>1464.0</ele>
        <time>2018-06-24T14:29:00Z</time>
      </trkpt>
      <trkpt lat="40.245700" lon="-4.761383">
        <ele>1464.0</ele>
        <time>2018-06-24T14:29:01Z</time>
      </trkpt>
      <trkpt lat="40.245650" lon="-4.761333">
        <ele>1463.0</ele>
        <time>2018-06-24T14:29:02Z</time>
      </trkpt>
      <trkpt lat="40.245600" lon="-4.761267">
        <ele>1462.0</ele>
        <time>2018-06-24T14:29:03Z</time>
      </trkpt>
      <trkpt lat="40.245567" lon="-4.761200">
        <ele>1460.0</ele>
        <time>2018-06-24T14:29:04Z</time>
      </trkpt>
      <trkpt lat="40.245517" lon="-4.761133">
        <ele>1457.0</ele>
        <time>2018-06-24T14:29:05Z</time>
      </trkpt>
      <trkpt lat="40.245467" lon="-4.761067">
        <ele>1455.0</ele>
        <time>2018-06-24T14:29:06Z</time>
      </trkpt>
      <trkpt lat="40.245417" lon="-4.761017">
        <ele>1454.0</ele>
        <time>2018-06-24T14:29:07Z</time>
      </trkpt>
      <trkpt lat="40.245350" lon="-4.760950">
        <ele>1451.0</ele>
        <time>2018-06-24T14:29:08Z</time>
      </trkpt>
      <trkpt lat="40.245300" lon="-4.760867">
        <ele>1449.0</ele>
        <time>2018-06-24T14:29:09Z</time>
      </trkpt>
      <trkpt lat="40.245250" lon="-4.760783">
        <ele>1445.0</ele>
        <time>2018-06-24T14:29:10Z</time>
      </trkpt>
      <trkpt lat="40.245183" lon="-4.760683">
        <ele>1443.0</ele>
        <time>2018-06-24T14:29:11Z</time>
      </trkpt>
      <trkpt lat="40.245100" lon="-4.760583">
        <ele>1441.0</ele>
        <time>2018-06-24T14:29:12Z</time>
      </trkpt>
      <trkpt lat="40.245033" lon="-4.760483">
        <ele>1441.0</ele>
        <time>2018-06-24T14:29:13Z</time>
      </trkpt>
      <trkpt lat="40.244950" lon="-4.760400">
        <ele>1443.0</ele>
        <time>2018-06-24T14:29:14Z</time>
      </trkpt>
      <trkpt lat="40.244900" lon="-4.760333">
        <ele>1445.0</ele>
        <time>2018-06-24T14:29:15Z</time>
      </trkpt>
      <trkpt lat="40.244850" lon="-4.760267">
        <ele>1446.0</ele>
        <time>2018-06-24T14:29:16Z</time>
      </trkpt>
      <trkpt lat="40.244783" lon="-4.760183">
        <ele>1445.0</ele>
        <time>2018-06-24T14:29:17Z</time>
      </trkpt>
      <trkpt lat="40.244733" lon="-4.760100">
        <ele>1445.0</ele>
        <time>2018-06-24T14:29:18Z</time>
      </trkpt>
      <trkpt lat="40.244667" lon="-4.760017">
        <ele>1444.0</ele>
        <time>2018-06-24T14:29:19Z</time>
      </trkpt>
      <trkpt lat="40.244583" lon="-4.759933">
        <ele>1444.0</ele>
        <time>2018-06-24T14:29:20Z</time>
      </trkpt>
      <trkpt lat="40.244517" lon="-4.759850">
        <ele>1444.0</ele>
        <time>2018-06-24T14:29:21Z</time>
      </trkpt>
      <trkpt lat="40.244433" lon="-4.759767">
        <ele>1445.0</ele>
        <time>2018-06-24T14:29:22Z</time>
      </trkpt>
      <trkpt lat="40.244367" lon="-4.759683">
        <ele>1446.0</ele>
        <time>2018-06-24T14:29:23Z</time>
      </trkpt>
      <trkpt lat="40.244317" lon="-4.759583">
        <ele>1447.0</ele>
        <time>2018-06-24T14:29:24Z</time>
      </trkpt>
      <trkpt lat="40.244267" lon="-4.759467">
        <ele>1447.0</ele>
        <time>2018-06-24T14:29:25Z</time>
      </trkpt>
      <trkpt lat="40.244233" lon="-4.759367">
        <ele>1448.0</ele>
        <time>2018-06-24T14:29:26Z</time>
      </trkpt>
      <trkpt lat="40.244217" lon="-4.759250">
        <ele>1447.0</ele>
        <time>2018-06-24T14:29:27Z</time>
      </trkpt>
      <trkpt lat="40.244200" lon="-4.759133">
        <ele>1446.0</ele>
        <time>2018-06-24T14:29:28Z</time>
      </trkpt>
      <trkpt lat="40.244183" lon="-4.759017">
        <ele>1445.0</ele>
        <time>2018-06-24T14:29:29Z</time>
      </trkpt>
      <trkpt lat="40.244133" lon="-4.758917">
        <ele>1443.0</ele>
        <time>2018-06-24T14:29:30Z</time>
      </trkpt>
      <trkpt lat="40.244083" lon="-4.758817">
        <ele>1443.0</ele>
        <time>2018-06-24T14:29:31Z</time>
      </trkpt>
      <trkpt lat="40.244033" lon="-4.758750">
        <ele>1442.0</ele>
        <time>2018-06-24T14:29:32Z</time>
      </trkpt>
      <trkpt lat="40.244000" lon="-4.758667">
        <ele>1442.0</ele>
        <time>2018-06-24T14:29:33Z</time>
      </trkpt>
      <trkpt lat="40.243950" lon="-4.758600">
        <ele>1441.0</ele>
        <time>2018-06-24T14:29:34Z</time>
      </trkpt>
      <trkpt lat="40.243900" lon="-4.758533">
        <ele>1439.0</ele>
        <time>2018-06-24T14:29:35Z</time>
      </trkpt>
      <trkpt lat="40.243833" lon="-4.758483">
        <ele>1438.0</ele>
        <time>2018-06-24T14:29:36Z</time>
      </trkpt>
      <trkpt lat="40.243733" lon="-4.758433">
        <ele>1436.0</ele>
        <time>2018-06-24T14:29:37Z</time>
      </trkpt>
      <trkpt lat="40.243650" lon="-4.758383">
        <ele>1435.0</ele>
        <time>2018-06-24T14:29:38Z</time>
      </trkpt>
      <trkpt lat="40.243583" lon="-4.758333">
        <ele>1435.0</ele>
        <time>2018-06-24T14:29:39Z</time>
      </trkpt>
      <trkpt lat="40.243517" lon="-4.758300">
        <ele>1435.0</ele>
        <time>2018-06-24T14:29:40Z</time>
      </trkpt>
      <trkpt lat="40.243450" lon="-4.758267">
        <ele>1434.0</ele>
        <time>2018-06-24T14:29:41Z</time>
      </trkpt>
      <trkpt lat="40.243367" lon="-4.758233">
        <ele>1431.0</ele>
        <time>2018-06-24T14:29:42Z</time>
      </trkpt>
      <trkpt lat="40.243300" lon="-4.758183">
        <ele>1428.0</ele>
        <time>2018-06-24T14:29:43Z</time>
      </trkpt>
      <trkpt lat="40.243217" lon="-4.758117">
        <ele>1425.0</ele>
        <time>2018-06-24T14:29:44Z</time>
      </trkpt>
      <trkpt lat="40.243150" lon="-4.758050">
        <ele>1422.0</ele>
        <time>2018-06-24T14:29:45Z</time>
      </trkpt>
      <trkpt lat="40.243067" lon="-4.757983">
        <ele>1420.0</ele>
        <time>2018-06-24T14:29:46Z</time>
      </trkpt>
      <trkpt lat="40.243000" lon="-4.757933">
        <ele>1418.0</ele>
        <time>2018-06-24T14:29:47Z</time>
      </trkpt>
      <trkpt lat="40.242917" lon="-4.757883">
        <ele>1416.0</ele>
        <time>2018-06-24T14:29:48Z</time>
      </trkpt>
      <trkpt lat="40.242850" lon="-4.757817">
        <ele>1413.0</ele>
        <time>2018-06-24T14:29:49Z</time>
      </trkpt>
      <trkpt lat="40.242767" lon="-4.757750">
        <ele>1410.0</ele>
        <time>2018-06-24T14:29:50Z</time>
      </trkpt>
      <trkpt lat="40.242683" lon="-4.757700">
        <ele>1407.0</ele>
        <time>2018-06-24T14:29:51Z</time>
      </trkpt>
      <trkpt lat="40.242600" lon="-4.757633">
        <ele>1405.0</ele>
        <time>2018-06-24T14:29:52Z</time>
      </trkpt>
      <trkpt lat="40.242533" lon="-4.757583">
        <ele>1403.0</ele>
        <time>2018-06-24T14:29:53Z</time>
      </trkpt>
      <trkpt lat="40.242450" lon="-4.757533">
        <ele>1401.0</ele>
        <time>2018-06-24T14:29:54Z</time>
      </trkpt>
      <trkpt lat="40.242383" lon="-4.757467">
        <ele>1399.0</ele>
        <time>2018-06-24T14:29:55Z</time>
      </trkpt>
      <trkpt lat="40.242300" lon="-4.757400">
        <ele>1396.0</ele>
        <time>2018-06-24T14:29:56Z</time>
      </trkpt>
      <trkpt lat="40.242233" lon="-4.757350">
        <ele>1393.0</ele>
        <time>2018-06-24T14:29:57Z</time>
      </trkpt>
      <trkpt lat="40.242150" lon="-4.757300">
        <ele>1391.0</ele>
        <time>2018-06-24T14:29:58Z</time>
      </trkpt>
      <trkpt lat="40.242067" lon="-4.757267">
        <ele>1389.0</ele>
        <time>2018-06-24T14:29:59Z</time>
      </trkpt>
      <trkpt lat="40.241983" lon="-4.757200">
        <ele>1387.0</ele>
        <time>2018-06-24T14:30:00Z</time>
      </trkpt>
      <trkpt lat="40.241917" lon="-4.757150">
        <ele>1385.0</ele>
        <time>2018-06-24T14:30:01Z</time>
      </trkpt>
      <trkpt lat="40.241833" lon="-4.757083">
        <ele>1383.0</ele>
        <time>2018-06-24T14:30:02Z</time>
      </trkpt>
      <trkpt lat="40.241767" lon="-4.757033">
        <ele>1381.0</ele>
        <time>2018-06-24T14:30:03Z</time>
      </trkpt>
      <trkpt lat="40.241683" lon="-4.756983">
        <ele>1379.0</ele>
        <time>2018-06-24T14:30:04Z</time>
      </trkpt>
      <trkpt lat="40.241600" lon="-4.756933">
        <ele>1378.0</ele>
        <time>2018-06-24T14:30:05Z</time>
      </trkpt>
      <trkpt lat="40.241517" lon="-4.756883">
        <ele>1376.0</ele>
        <time>2018-06-24T14:30:06Z</time>
      </trkpt>
      <trkpt lat="40.241450" lon="-4.756833">
        <ele>1374.0</ele>
        <time>2018-06-24T14:30:07Z</time>
      </trkpt>
      <trkpt lat="40.241367" lon="-4.756800">
        <ele>1371.0</ele>
        <time>2018-06-24T14:30:08Z</time>
      </trkpt>
      <trkpt lat="40.241283" lon="-4.756750">
        <ele>1369.0</ele>
        <time>2018-06-24T14:30:09Z</time>
      </trkpt>
      <trkpt lat="40.241200" lon="-4.756717">
        <ele>1367.0</ele>
        <time>2018-06-24T14:30:10Z</time>
      </trkpt>
      <trkpt lat="40.241117" lon="-4.756667">
        <ele>1366.0</ele>
        <time>2018-06-24T14:30:11Z</time>
      </trkpt>
      <trkpt lat="40.241033" lon="-4.756617">
        <ele>1364.0</ele>
        <time>2018-06-24T14:30:12Z</time>
      </trkpt>
      <trkpt lat="40.240950" lon="-4.756583">
        <ele>1362.0</ele>
        <time>2018-06-24T14:30:13Z</time>
      </trkpt>
      <trkpt lat="40.240850" lon="-4.756550">
        <ele>1361.0</ele>
        <time>2018-06-24T14:30:14Z</time>
      </trkpt>
      <trkpt lat="40.240767" lon="-4.756500">
        <ele>1360.0</ele>
        <time>2018-06-24T14:30:15Z</time>
      </trkpt>
      <trkpt lat="40.240683" lon="-4.756450">
        <ele>1360.0</ele>
        <time>2018-06-24T14:30:16Z</time>
      </trkpt>
      <trkpt lat="40.240600" lon="-4.756383">
        <ele>1359.0</ele>
        <time>2018-06-24T14:30:17Z</time>
      </trkpt>
      <trkpt lat="40.240517" lon="-4.756300">
        <ele>1359.0</ele>
        <time>2018-06-24T14:30:18Z</time>
      </trkpt>
      <trkpt lat="40.240433" lon="-4.756233">
        <ele>1359.0</ele>
        <time>2018-06-24T14:30:19Z</time>
      </trkpt>
      <trkpt lat="40.240350" lon="-4.756167">
        <ele>1359.0</ele>
        <time>2018-06-24T14:30:20Z</time>
      </trkpt>
      <trkpt lat="40.240267" lon="-4.756100">
        <ele>1359.0</ele>
        <time>2018-06-24T14:30:21Z</time>
      </trkpt>
      <trkpt lat="40.240183" lon="-4.756033">
        <ele>1359.0</ele>
        <time>2018-06-24T14:30:22Z</time>
      </trkpt>
      <trkpt lat="40.240100" lon="-4.755950">
        <ele>1360.0</ele>
        <time>2018-06-24T14:30:23Z</time>
      </trkpt>
      <trkpt lat="40.240017" lon="-4.755883">
        <ele>1360.0</ele>
        <time>2018-06-24T14:30:24Z</time>
      </trkpt>
      <trkpt lat="40.239933" lon="-4.755833">
        <ele>1361.0</ele>
        <time>2018-06-24T14:30:25Z</time>
      </trkpt>
      <trkpt lat="40.239850" lon="-4.755767">
        <ele>1361.0</ele>
        <time>2018-06-24T14:30:26Z</time>
      </trkpt>
      <trkpt lat="40.239783" lon="-4.755717">
        <ele>1361.0</ele>
        <time>2018-06-24T14:30:27Z</time>
      </trkpt>
      <trkpt lat="40.239717" lon="-4.755667">
        <ele>1361.0</ele>
        <time>2018-06-24T14:30:28Z</time>
      </trkpt>
      <trkpt lat="40.239650" lon="-4.755617">
        <ele>1361.0</ele>
        <time>2018-06-24T14:30:29Z</time>
      </trkpt>
      <trkpt lat="40.239567" lon="-4.755567">
        <ele>1360.0</ele>
        <time>2018-06-24T14:30:30Z</time>
      </trkpt>
      <trkpt lat="40.239500" lon="-4.755533">
        <ele>1359.0</ele>
        <time>2018-06-24T14:30:31Z</time>
      </trkpt>
      <trkpt lat="40.239417" lon="-4.755483">
        <ele>1359.0</ele>
        <time>2018-06-24T14:30:32Z</time>
      </trkpt>
      <trkpt lat="40.239350" lon="-4.755417">
        <ele>1359.0</ele>
        <time>2018-06-24T14:30:33Z</time>
      </trkpt>
      <trkpt lat="40.239283" lon="-4.755367">
        <ele>1359.0</ele>
        <time>2018-06-24T14:30:34Z</time>
      </trkpt>
      <trkpt lat="40.239217" lon="-4.755300">
        <ele>1360.0</ele>
        <time>2018-06-24T14:30:35Z</time>
      </trkpt>
      <trkpt lat="40.239133" lon="-4.755267">
        <ele>1361.0</ele>
        <time>2018-06-24T14:30:36Z</time>
      </trkpt>
      <trkpt lat="40.239050" lon="-4.755217">
        <ele>1363.0</ele>
        <time>2018-06-24T14:30:37Z</time>
      </trkpt>
      <trkpt lat="40.238967" lon="-4.755150">
        <ele>1365.0</ele>
        <time>2018-06-24T14:30:38Z</time>
      </trkpt>
      <trkpt lat="40.238883" lon="-4.755100">
        <ele>1368.0</ele>
        <time>2018-06-24T14:30:39Z</time>
      </trkpt>
      <trkpt lat="40.238817" lon="-4.755067">
        <ele>1372.0</ele>
        <time>2018-06-24T14:30:40Z</time>
      </trkpt>
      <trkpt lat="40.238767" lon="-4.755067">
        <ele>1376.0</ele>
        <time>2018-06-24T14:30:41Z</time>
      </trkpt>
      <trkpt lat="40.238700" lon="-4.755100">
        <ele>1378.0</ele>
        <time>2018-06-24T14:30:42Z</time>
      </trkpt>
      <trkpt lat="40.238667" lon="-4.755167">
        <ele>1379.0</ele>
        <time>2018-06-24T14:30:43Z</time>
      </trkpt>
      <trkpt lat="40.238667" lon="-4.755267">
        <ele>1381.0</ele>
        <time>2018-06-24T14:30:44Z</time>
      </trkpt>
      <trkpt lat="40.238700" lon="-4.755367">
        <ele>1383.0</ele>
        <time>2018-06-24T14:30:45Z</time>
      </trkpt>
      <trkpt lat="40.238783" lon="-4.755450">
        <ele>1384.0</ele>
        <time>2018-06-24T14:30:46Z</time>
      </trkpt>
      <trkpt lat="40.238883" lon="-4.755500">
        <ele>1386.0</ele>
        <time>2018-06-24T14:30:47Z</time>
      </trkpt>
      <trkpt lat="40.239017" lon="-4.755467">
        <ele>1388.0</ele>
        <time>2018-06-24T14:30:48Z</time>
      </trkpt>
      <trkpt lat="40.239117" lon="-4.755367">
        <ele>1389.0</ele>
        <time>2018-06-24T14:30:49Z</time>
      </trkpt>
      <trkpt lat="40.239200" lon="-4.755233">
        <ele>1391.0</ele>
        <time>2018-06-24T14:30:50Z</time>
      </trkpt>
      <trkpt lat="40.239250" lon="-4.755083">
        <ele>1393.0</ele>
        <time>2018-06-24T14:30:51Z</time>
      </trkpt>
      <trkpt lat="40.239283" lon="-4.754933">
        <ele>1396.0</ele>
        <time>2018-06-24T14:30:52Z</time>
      </trkpt>
      <trkpt lat="40.239300" lon="-4.754800">
        <ele>1399.0</ele>
        <time>2018-06-24T14:30:53Z</time>
      </trkpt>
      <trkpt lat="40.239300" lon="-4.754650">
        <ele>1402.0</ele>
        <time>2018-06-24T14:30:54Z</time>
      </trkpt>
      <trkpt lat="40.239300" lon="-4.754517">
        <ele>1404.0</ele>
        <time>2018-06-24T14:30:55Z</time>
      </trkpt>
      <trkpt lat="40.239283" lon="-4.754400">
        <ele>1405.0</ele>
        <time>2018-06-24T14:30:56Z</time>
      </trkpt>
      <trkpt lat="40.239233" lon="-4.754283">
        <ele>1407.0</ele>
        <time>2018-06-24T14:30:57Z</time>
      </trkpt>
      <trkpt lat="40.239150" lon="-4.754200">
        <ele>1407.0</ele>
        <time>2018-06-24T14:30:58Z</time>
      </trkpt>
      <trkpt lat="40.239050" lon="-4.754200">
        <ele>1406.0</ele>
        <time>2018-06-24T14:30:59Z</time>
      </trkpt>
      <trkpt lat="40.238967" lon="-4.754267">
        <ele>1405.0</ele>
        <time>2018-06-24T14:31:00Z</time>
      </trkpt>
      <trkpt lat="40.238900" lon="-4.754383">
        <ele>1405.0</ele>
        <time>2018-06-24T14:31:01Z</time>
      </trkpt>
      <trkpt lat="40.238900" lon="-4.754533">
        <ele>1407.0</ele>
        <time>2018-06-24T14:31:02Z</time>
      </trkpt>
      <trkpt lat="40.238967" lon="-4.754667">
        <ele>1411.0</ele>
        <time>2018-06-24T14:31:03Z</time>
      </trkpt>
      <trkpt lat="40.239067" lon="-4.754750">
        <ele>1415.0</ele>
        <time>2018-06-24T14:31:04Z</time>
      </trkpt>
      <trkpt lat="40.239183" lon="-4.754800">
        <ele>1420.0</ele>
        <time>2018-06-24T14:31:05Z</time>
      </trkpt>
      <trkpt lat="40.239283" lon="-4.754817">
        <ele>1425.0</ele>
        <time>2018-06-24T14:31:06Z</time>
      </trkpt>
      <trkpt lat="40.239367" lon="-4.754833">
        <ele>1429.0</ele>
        <time>2018-06-24T14:31:07Z</time>
      </trkpt>
      <trkpt lat="40.239450" lon="-4.754867">
        <ele>1431.0</ele>
        <time>2018-06-24T14:31:08Z</time>
      </trkpt>
      <trkpt lat="40.239550" lon="-4.754867">
        <ele>1433.0</ele>
        <time>2018-06-24T14:31:09Z</time>
      </trkpt>
      <trkpt lat="40.239650" lon="-4.754833">
        <ele>1435.0</ele>
        <time>2018-06-24T14:31:10Z</time>
      </trkpt>
      <trkpt lat="40.239750" lon="-4.754750">
        <ele>1435.0</ele>
        <time>2018-06-24T14:31:11Z</time>
      </trkpt>
      <trkpt lat="40.239817" lon="-4.754617">
        <ele>1435.0</ele>
        <time>2018-06-24T14:31:12Z</time>
      </trkpt>
      <trkpt lat="40.239850" lon="-4.754450">
        <ele>1435.0</ele>
        <time>2018-06-24T14:31:13Z</time>
      </trkpt>
      <trkpt lat="40.239850" lon="-4.754283">
        <ele>1435.0</ele>
        <time>2018-06-24T14:31:14Z</time>
      </trkpt>
      <trkpt lat="40.239800" lon="-4.754133">
        <ele>1436.0</ele>
        <time>2018-06-24T14:31:15Z</time>
      </trkpt>
      <trkpt lat="40.239717" lon="-4.754033">
        <ele>1437.0</ele>
        <time>2018-06-24T14:31:16Z</time>
      </trkpt>
      <trkpt lat="40.239633" lon="-4.753983">
        <ele>1439.0</ele>
        <time>2018-06-24T14:31:17Z</time>
      </trkpt>
      <trkpt lat="40.239533" lon="-4.753950">
        <ele>1441.0</ele>
        <time>2018-06-24T14:31:18Z</time>
      </trkpt>
      <trkpt lat="40.239467" lon="-4.753917">
        <ele>1444.0</ele>
        <time>2018-06-24T14:31:19Z</time>
      </trkpt>
      <trkpt lat="40.239400" lon="-4.753917">
        <ele>1447.0</ele>
        <time>2018-06-24T14:31:20Z</time>
      </trkpt>
      <trkpt lat="40.239333" lon="-4.753967">
        <ele>1449.0</ele>
        <time>2018-06-24T14:31:21Z</time>
      </trkpt>
      <trkpt lat="40.239317" lon="-4.754067">
        <ele>1448.0</ele>
        <time>2018-06-24T14:31:22Z</time>
      </trkpt>
      <trkpt lat="40.239350" lon="-4.754183">
        <ele>1449.0</ele>
        <time>2018-06-24T14:31:23Z</time>
      </trkpt>
      <trkpt lat="40.239417" lon="-4.754300">
        <ele>1450.0</ele>
        <time>2018-06-24T14:31:24Z</time>
      </trkpt>
      <trkpt lat="40.239550" lon="-4.754350">
        <ele>1452.0</ele>
        <time>2018-06-24T14:31:25Z</time>
      </trkpt>
      <trkpt lat="40.239683" lon="-4.754333">
        <ele>1454.0</ele>
        <time>2018-06-24T14:31:26Z</time>
      </trkpt>
      <trkpt lat="40.239800" lon="-4.754267">
        <ele>1457.0</ele>
        <time>2018-06-24T14:31:27Z</time>
      </trkpt>
      <trkpt lat="40.239883" lon="-4.754183">
        <ele>1460.0</ele>
        <time>2018-06-24T14:31:28Z</time>
      </trkpt>
      <trkpt lat="40.239950" lon="-4.754083">
        <ele>1462.0</ele>
        <time>2018-06-24T14:31:29Z</time>
      </trkpt>
      <trkpt lat="40.239983" lon="-4.753967">
        <ele>1464.0</ele>
        <time>2018-06-24T14:31:30Z</time>
      </trkpt>
      <trkpt lat="40.240017" lon="-4.753833">
        <ele>1465.0</ele>
        <time>2018-06-24T14:31:31Z</time>
      </trkpt>
      <trkpt lat="40.240017" lon="-4.753700">
        <ele>1464.0</ele>
        <time>2018-06-24T14:31:32Z</time>
      </trkpt>
      <trkpt lat="40.239983" lon="-4.753567">
        <ele>1464.0</ele>
        <time>2018-06-24T14:31:33Z</time>
      </trkpt>
      <trkpt lat="40.239917" lon="-4.753433">
        <ele>1463.0</ele>
        <time>2018-06-24T14:31:34Z</time>
      </trkpt>
      <trkpt lat="40.239817" lon="-4.753350">
        <ele>1463.0</ele>
        <time>2018-06-24T14:31:35Z</time>
      </trkpt>
      <trkpt lat="40.239717" lon="-4.753283">
        <ele>1464.0</ele>
        <time>2018-06-24T14:31:36Z</time>
      </trkpt>
      <trkpt lat="40.239617" lon="-4.753283">
        <ele>1466.0</ele>
        <time>2018-06-24T14:31:37Z</time>
      </trkpt>
      <trkpt lat="40.239517" lon="-4.753300">
        <ele>1468.0</ele>
        <time>2018-06-24T14:31:38Z</time>
      </trkpt>
      <trkpt lat="40.239433" lon="-4.753333">
        <ele>1469.0</ele>
        <time>2018-06-24T14:31:39Z</time>
      </trkpt>
      <trkpt lat="40.239350" lon="-4.753367">
        <ele>1471.0</ele>
        <time>2018-06-24T14:31:40Z</time>
      </trkpt>
      <trkpt lat="40.239267" lon="-4.753417">
        <ele>1472.0</ele>
        <time>2018-06-24T14:31:41Z</time>
      </trkpt>
      <trkpt lat="40.239183" lon="-4.753467">
        <ele>1473.0</ele>
        <time>2018-06-24T14:31:42Z</time>
      </trkpt>
      <trkpt lat="40.239100" lon="-4.753467">
        <ele>1474.0</ele>
        <time>2018-06-24T14:31:43Z</time>
      </trkpt>
      <trkpt lat="40.239017" lon="-4.753450">
        <ele>1474.0</ele>
        <time>2018-06-24T14:31:44Z</time>
      </trkpt>
      <trkpt lat="40.238933" lon="-4.753400">
        <ele>1474.0</ele>
        <time>2018-06-24T14:31:45Z</time>
      </trkpt>
      <trkpt lat="40.238850" lon="-4.753317">
        <ele>1474.0</ele>
        <time>2018-06-24T14:31:46Z</time>
      </trkpt>
      <trkpt lat="40.238767" lon="-4.753250">
        <ele>1474.0</ele>
        <time>2018-06-24T14:31:47Z</time>
      </trkpt>
      <trkpt lat="40.238683" lon="-4.753167">
        <ele>1474.0</ele>
        <time>2018-06-24T14:31:48Z</time>
      </trkpt>
      <trkpt lat="40.238600" lon="-4.753100">
        <ele>1474.0</ele>
        <time>2018-06-24T14:31:49Z</time>
      </trkpt>
      <trkpt lat="40.238517" lon="-4.753050">
        <ele>1474.0</ele>
        <time>2018-06-24T14:31:50Z</time>
      </trkpt>
      <trkpt lat="40.238433" lon="-4.753000">
        <ele>1473.0</ele>
        <time>2018-06-24T14:31:51Z</time>
      </trkpt>
      <trkpt lat="40.238350" lon="-4.752933">
        <ele>1470.0</ele>
        <time>2018-06-24T14:31:52Z</time>
      </trkpt>
      <trkpt lat="40.238250" lon="-4.752850">
        <ele>1467.0</ele>
        <time>2018-06-24T14:31:53Z</time>
      </trkpt>
      <trkpt lat="40.238150" lon="-4.752767">
        <ele>1465.0</ele>
        <time>2018-06-24T14:31:54Z</time>
      </trkpt>
      <trkpt lat="40.238050" lon="-4.752683">
        <ele>1464.0</ele>
        <time>2018-06-24T14:31:55Z</time>
      </trkpt>
      <trkpt lat="40.237950" lon="-4.752617">
        <ele>1463.0</ele>
        <time>2018-06-24T14:31:56Z</time>
      </trkpt>
      <trkpt lat="40.237850" lon="-4.752567">
        <ele>1463.0</ele>
        <time>2018-06-24T14:31:57Z</time>
      </trkpt>
      <trkpt lat="40.237767" lon="-4.752517">
        <ele>1463.0</ele>
        <time>2018-06-24T14:31:58Z</time>
      </trkpt>
      <trkpt lat="40.237667" lon="-4.752467">
        <ele>1461.0</ele>
        <time>2018-06-24T14:31:59Z</time>
      </trkpt>
      <trkpt lat="40.237567" lon="-4.752417">
        <ele>1459.0</ele>
        <time>2018-06-24T14:32:00Z</time>
      </trkpt>
      <trkpt lat="40.237467" lon="-4.752367">
        <ele>1458.0</ele>
        <time>2018-06-24T14:32:01Z</time>
      </trkpt>
      <trkpt lat="40.237367" lon="-4.752333">
        <ele>1456.0</ele>
        <time>2018-06-24T14:32:02Z</time>
      </trkpt>
      <trkpt lat="40.237250" lon="-4.752283">
        <ele>1455.0</ele>
        <time>2018-06-24T14:32:03Z</time>
      </trkpt>
      <trkpt lat="40.237150" lon="-4.752267">
        <ele>1454.0</ele>
        <time>2018-06-24T14:32:04Z</time>
      </trkpt>
      <trkpt lat="40.237050" lon="-4.752233">
        <ele>1453.0</ele>
        <time>2018-06-24T14:32:05Z</time>
      </trkpt>
      <trkpt lat="40.236950" lon="-4.752183">
        <ele>1452.0</ele>
        <time>2018-06-24T14:32:06Z</time>
      </trkpt>
      <trkpt lat="40.236850" lon="-4.752133">
        <ele>1451.0</ele>
        <time>2018-06-24T14:32:07Z</time>
      </trkpt>
      <trkpt lat="40.236750" lon="-4.752100">
        <ele>1450.0</ele>
        <time>2018-06-24T14:32:08Z</time>
      </trkpt>
      <trkpt lat="40.236650" lon="-4.752067">
        <ele>1448.0</ele>
        <time>2018-06-24T14:32:09Z</time>
      </trkpt>
      <trkpt lat="40.236533" lon="-4.752033">
        <ele>1446.0</ele>
        <time>2018-06-24T14:32:10Z</time>
      </trkpt>
      <trkpt lat="40.236417" lon="-4.752000">
        <ele>1444.0</ele>
        <time>2018-06-24T14:32:11Z</time>
      </trkpt>
      <trkpt lat="40.236300" lon="-4.751967">
        <ele>1442.0</ele>
        <time>2018-06-24T14:32:12Z</time>
      </trkpt>
      <trkpt lat="40.236200" lon="-4.751917">
        <ele>1440.0</ele>
        <time>2018-06-24T14:32:13Z</time>
      </trkpt>
      <trkpt lat="40.236083" lon="-4.751883">
        <ele>1439.0</ele>
        <time>2018-06-24T14:32:14Z</time>
      </trkpt>
      <trkpt lat="40.235967" lon="-4.751817">
        <ele>1437.0</ele>
        <time>2018-06-24T14:32:15Z</time>
      </trkpt>
      <trkpt lat="40.235867" lon="-4.751750">
        <ele>1436.0</ele>
        <time>2018-06-24T14:32:16Z</time>
      </trkpt>
      <trkpt lat="40.235750" lon="-4.751683">
        <ele>1434.0</ele>
        <time>2018-06-24T14:32:17Z</time>
      </trkpt>
      <trkpt lat="40.235650" lon="-4.751617">
        <ele>1432.0</ele>
        <time>2018-06-24T14:32:18Z</time>
      </trkpt>
      <trkpt lat="40.235533" lon="-4.751533">
        <ele>1430.0</ele>
        <time>2018-06-24T14:32:19Z</time>
      </trkpt>
      <trkpt lat="40.235433" lon="-4.751450">
        <ele>1429.0</ele>
        <time>2018-06-24T14:32:20Z</time>
      </trkpt>
      <trkpt lat="40.235317" lon="-4.751383">
        <ele>1427.0</ele>
        <time>2018-06-24T14:32:21Z</time>
      </trkpt>
      <trkpt lat="40.235217" lon="-4.751300">
        <ele>1425.0</ele>
        <time>2018-06-24T14:32:22Z</time>
      </trkpt>
      <trkpt lat="40.235117" lon="-4.751217">
        <ele>1424.0</ele>
        <time>2018-06-24T14:32:23Z</time>
      </trkpt>
      <trkpt lat="40.235017" lon="-4.751133">
        <ele>1421.0</ele>
        <time>2018-06-24T14:32:24Z</time>
      </trkpt>
      <trkpt lat="40.234900" lon="-4.751050">
        <ele>1419.0</ele>
        <time>2018-06-24T14:32:25Z</time>
      </trkpt>
      <trkpt lat="40.234800" lon="-4.750967">
        <ele>1417.0</ele>
        <time>2018-06-24T14:32:26Z</time>
      </trkpt>
      <trkpt lat="40.234683" lon="-4.750900">
        <ele>1416.0</ele>
        <time>2018-06-24T14:32:27Z</time>
      </trkpt>
      <trkpt lat="40.234583" lon="-4.750817">
        <ele>1415.0</ele>
        <time>2018-06-24T14:32:28Z</time>
      </trkpt>
      <trkpt lat="40.234483" lon="-4.750750">
        <ele>1414.0</ele>
        <time>2018-06-24T14:32:29Z</time>
      </trkpt>
      <trkpt lat="40.234383" lon="-4.750683">
        <ele>1413.0</ele>
        <time>2018-06-24T14:32:30Z</time>
      </trkpt>
      <trkpt lat="40.234283" lon="-4.750617">
        <ele>1411.0</ele>
        <time>2018-06-24T14:32:31Z</time>
      </trkpt>
      <trkpt lat="40.234183" lon="-4.750550">
        <ele>1407.0</ele>
        <time>2018-06-24T14:32:32Z</time>
      </trkpt>
      <trkpt lat="40.234083" lon="-4.750500">
        <ele>1404.0</ele>
        <time>2018-06-24T14:32:33Z</time>
      </trkpt>
      <trkpt lat="40.233967" lon="-4.750433">
        <ele>1401.0</ele>
        <time>2018-06-24T14:32:34Z</time>
      </trkpt>
      <trkpt lat="40.233833" lon="-4.750400">
        <ele>1398.0</ele>
        <time>2018-06-24T14:32:35Z</time>
      </trkpt>
      <trkpt lat="40.233717" lon="-4.750350">
        <ele>1396.0</ele>
        <time>2018-06-24T14:32:36Z</time>
      </trkpt>
      <trkpt lat="40.233600" lon="-4.750283">
        <ele>1395.0</ele>
        <time>2018-06-24T14:32:37Z</time>
      </trkpt>
      <trkpt lat="40.233500" lon="-4.750233">
        <ele>1393.0</ele>
        <time>2018-06-24T14:32:38Z</time>
      </trkpt>
      <trkpt lat="40.233383" lon="-4.750167">
        <ele>1391.0</ele>
        <time>2018-06-24T14:32:39Z</time>
      </trkpt>
      <trkpt lat="40.233283" lon="-4.750133">
        <ele>1389.0</ele>
        <time>2018-06-24T14:32:40Z</time>
      </trkpt>
      <trkpt lat="40.233183" lon="-4.750100">
        <ele>1386.0</ele>
        <time>2018-06-24T14:32:41Z</time>
      </trkpt>
      <trkpt lat="40.233067" lon="-4.750067">
        <ele>1383.0</ele>
        <time>2018-06-24T14:32:42Z</time>
      </trkpt>
      <trkpt lat="40.232950" lon="-4.750033">
        <ele>1380.0</ele>
        <time>2018-06-24T14:32:43Z</time>
      </trkpt>
      <trkpt lat="40.232817" lon="-4.750000">
        <ele>1377.0</ele>
        <time>2018-06-24T14:32:44Z</time>
      </trkpt>
      <trkpt lat="40.232700" lon="-4.749967">
        <ele>1375.0</ele>
        <time>2018-06-24T14:32:45Z</time>
      </trkpt>
      <trkpt lat="40.232600" lon="-4.749967">
        <ele>1373.0</ele>
        <time>2018-06-24T14:32:46Z</time>
      </trkpt>
      <trkpt lat="40.232483" lon="-4.749950">
        <ele>1370.0</ele>
        <time>2018-06-24T14:32:47Z</time>
      </trkpt>
      <trkpt lat="40.232383" lon="-4.749950">
        <ele>1367.0</ele>
        <time>2018-06-24T14:32:48Z</time>
      </trkpt>
      <trkpt lat="40.232283" lon="-4.749933">
        <ele>1364.0</ele>
        <time>2018-06-24T14:32:49Z</time>
      </trkpt>
      <trkpt lat="40.232183" lon="-4.749900">
        <ele>1363.0</ele>
        <time>2018-06-24T14:32:50Z</time>
      </trkpt>
      <trkpt lat="40.232117" lon="-4.749833">
        <ele>1361.0</ele>
        <time>2018-06-24T14:32:51Z</time>
      </trkpt>
      <trkpt lat="40.232050" lon="-4.749767">
        <ele>1359.0</ele>
        <time>2018-06-24T14:32:52Z</time>
      </trkpt>
      <trkpt lat="40.232000" lon="-4.749667">
        <ele>1356.0</ele>
        <time>2018-06-24T14:32:53Z</time>
      </trkpt>
      <trkpt lat="40.231967" lon="-4.749550">
        <ele>1352.0</ele>
        <time>2018-06-24T14:32:54Z</time>
      </trkpt>
      <trkpt lat="40.231933" lon="-4.749417">
        <ele>1349.0</ele>
        <time>2018-06-24T14:32:55Z</time>
      </trkpt>
      <trkpt lat="40.231900" lon="-4.749233">
        <ele>1346.0</ele>
        <time>2018-06-24T14:32:56Z</time>
      </trkpt>
      <trkpt lat="40.231883" lon="-4.749133">
        <ele>1343.0</ele>
        <time>2018-06-24T14:32:57Z</time>
      </trkpt>
      <trkpt lat="40.231883" lon="-4.748983">
        <ele>1342.0</ele>
        <time>2018-06-24T14:32:58Z</time>
      </trkpt>
      <trkpt lat="40.231883" lon="-4.748850">
        <ele>1339.0</ele>
        <time>2018-06-24T14:32:59Z</time>
      </trkpt>
      <trkpt lat="40.231883" lon="-4.748700">
        <ele>1337.0</ele>
        <time>2018-06-24T14:33:00Z</time>
      </trkpt>
      <trkpt lat="40.231883" lon="-4.748550">
        <ele>1334.0</ele>
        <time>2018-06-24T14:33:01Z</time>
      </trkpt>
      <trkpt lat="40.231883" lon="-4.748400">
        <ele>1331.0</ele>
        <time>2018-06-24T14:33:02Z</time>
      </trkpt>
      <trkpt lat="40.231900" lon="-4.748233">
        <ele>1329.0</ele>
        <time>2018-06-24T14:33:03Z</time>
      </trkpt>
      <trkpt lat="40.231917" lon="-4.748083">
        <ele>1326.0</ele>
        <time>2018-06-24T14:33:04Z</time>
      </trkpt>
      <trkpt lat="40.231933" lon="-4.747933">
        <ele>1325.0</ele>
        <time>2018-06-24T14:33:05Z</time>
      </trkpt>
      <trkpt lat="40.231933" lon="-4.747783">
        <ele>1323.0</ele>
        <time>2018-06-24T14:33:06Z</time>
      </trkpt>
      <trkpt lat="40.231950" lon="-4.747650">
        <ele>1321.0</ele>
        <time>2018-06-24T14:33:07Z</time>
      </trkpt>
      <trkpt lat="40.231950" lon="-4.747500">
        <ele>1319.0</ele>
        <time>2018-06-24T14:33:08Z</time>
      </trkpt>
      <trkpt lat="40.231950" lon="-4.747350">
        <ele>1316.0</ele>
        <time>2018-06-24T14:33:09Z</time>
      </trkpt>
      <trkpt lat="40.231950" lon="-4.747183">
        <ele>1314.0</ele>
        <time>2018-06-24T14:33:10Z</time>
      </trkpt>
      <trkpt lat="40.231967" lon="-4.747017">
        <ele>1312.0</ele>
        <time>2018-06-24T14:33:11Z</time>
      </trkpt>
      <trkpt lat="40.231983" lon="-4.746850">
        <ele>1311.0</ele>
        <time>2018-06-24T14:33:12Z</time>
      </trkpt>
      <trkpt lat="40.232000" lon="-4.746717">
        <ele>1310.0</ele>
        <time>2018-06-24T14:33:13Z</time>
      </trkpt>
      <trkpt lat="40.232017" lon="-4.746583">
        <ele>1309.0</ele>
        <time>2018-06-24T14:33:14Z</time>
      </trkpt>
      <trkpt lat="40.232033" lon="-4.746450">
        <ele>1307.0</ele>
        <time>2018-06-24T14:33:15Z</time>
      </trkpt>
      <trkpt lat="40.232050" lon="-4.746333">
        <ele>1303.0</ele>
        <time>2018-06-24T14:33:16Z</time>
      </trkpt>
      <trkpt lat="40.232067" lon="-4.746183">
        <ele>1299.0</ele>
        <time>2018-06-24T14:33:17Z</time>
      </trkpt>
      <trkpt lat="40.232083" lon="-4.746033">
        <ele>1295.0</ele>
        <time>2018-06-24T14:33:18Z</time>
      </trkpt>
      <trkpt lat="40.232100" lon="-4.745883">
        <ele>1292.0</ele>
        <time>2018-06-24T14:33:19Z</time>
      </trkpt>
      <trkpt lat="40.232133" lon="-4.745750">
        <ele>1289.0</ele>
        <time>2018-06-24T14:33:20Z</time>
      </trkpt>
      <trkpt lat="40.232150" lon="-4.745617">
        <ele>1286.0</ele>
        <time>2018-06-24T14:33:21Z</time>
      </trkpt>
      <trkpt lat="40.232183" lon="-4.745483">
        <ele>1283.0</ele>
        <time>2018-06-24T14:33:22Z</time>
      </trkpt>
      <trkpt lat="40.232217" lon="-4.745350">
        <ele>1280.0</ele>
        <time>2018-06-24T14:33:23Z</time>
      </trkpt>
      <trkpt lat="40.232233" lon="-4.745200">
        <ele>1276.0</ele>
        <time>2018-06-24T14:33:24Z</time>
      </trkpt>
      <trkpt lat="40.232267" lon="-4.745050">
        <ele>1273.0</ele>
        <time>2018-06-24T14:33:25Z</time>
      </trkpt>
      <trkpt lat="40.232283" lon="-4.744883">
        <ele>1271.0</ele>
        <time>2018-06-24T14:33:26Z</time>
      </trkpt>
      <trkpt lat="40.232300" lon="-4.744750">
        <ele>1270.0</ele>
        <time>2018-06-24T14:33:27Z</time>
      </trkpt>
      <trkpt lat="40.232333" lon="-4.744633">
        <ele>1268.0</ele>
        <time>2018-06-24T14:33:28Z</time>
      </trkpt>
      <trkpt lat="40.232350" lon="-4.744500">
        <ele>1266.0</ele>
        <time>2018-06-24T14:33:29Z</time>
      </trkpt>
      <trkpt lat="40.232350" lon="-4.744367">
        <ele>1262.0</ele>
        <time>2018-06-24T14:33:30Z</time>
      </trkpt>
      <trkpt lat="40.232367" lon="-4.744217">
        <ele>1258.0</ele>
        <time>2018-06-24T14:33:31Z</time>
      </trkpt>
      <trkpt lat="40.232367" lon="-4.744067">
        <ele>1255.0</ele>
        <time>2018-06-24T14:33:32Z</time>
      </trkpt>
      <trkpt lat="40.232383" lon="-4.743917">
        <ele>1253.0</ele>
        <time>2018-06-24T14:33:33Z</time>
      </trkpt>
      <trkpt lat="40.232383" lon="-4.743783">
        <ele>1250.0</ele>
        <time>2018-06-24T14:33:34Z</time>
      </trkpt>
      <trkpt lat="40.232400" lon="-4.743650">
        <ele>1247.0</ele>
        <time>2018-06-24T14:33:35Z</time>
      </trkpt>
      <trkpt lat="40.232400" lon="-4.743500">
        <ele>1245.0</ele>
        <time>2018-06-24T14:33:36Z</time>
      </trkpt>
      <trkpt lat="40.232400" lon="-4.743367">
        <ele>1242.0</ele>
        <time>2018-06-24T14:33:37Z</time>
      </trkpt>
      <trkpt lat="40.232383" lon="-4.743233">
        <ele>1239.0</ele>
        <time>2018-06-24T14:33:38Z</time>
      </trkpt>
      <trkpt lat="40.232367" lon="-4.743100">
        <ele>1236.0</ele>
        <time>2018-06-24T14:33:39Z</time>
      </trkpt>
      <trkpt lat="40.232350" lon="-4.742983">
        <ele>1233.0</ele>
        <time>2018-06-24T14:33:40Z</time>
      </trkpt>
      <trkpt lat="40.232333" lon="-4.742850">
        <ele>1230.0</ele>
        <time>2018-06-24T14:33:41Z</time>
      </trkpt>
      <trkpt lat="40.232317" lon="-4.742733">
        <ele>1227.0</ele>
        <time>2018-06-24T14:33:42Z</time>
      </trkpt>
      <trkpt lat="40.232317" lon="-4.742600">
        <ele>1224.0</ele>
        <time>2018-06-24T14:33:43Z</time>
      </trkpt>
      <trkpt lat="40.232317" lon="-4.742467">
        <ele>1220.0</ele>
        <time>2018-06-24T14:33:44Z</time>
      </trkpt>
      <trkpt lat="40.232317" lon="-4.742333">
        <ele>1217.0</ele>
        <time>2018-06-24T14:33:45Z</time>
      </trkpt>
      <trkpt lat="40.232317" lon="-4.742183">
        <ele>1213.0</ele>
        <time>2018-06-24T14:33:46Z</time>
      </trkpt>
      <trkpt lat="40.232333" lon="-4.742033">
        <ele>1209.0</ele>
        <time>2018-06-24T14:33:47Z</time>
      </trkpt>
      <trkpt lat="40.232350" lon="-4.741883">
        <ele>1205.0</ele>
        <time>2018-06-24T14:33:48Z</time>
      </trkpt>
      <trkpt lat="40.232367" lon="-4.741717">
        <ele>1202.0</ele>
        <time>2018-06-24T14:33:49Z</time>
      </trkpt>
      <trkpt lat="40.232367" lon="-4.741550">
        <ele>1200.0</ele>
        <time>2018-06-24T14:33:50Z</time>
      </trkpt>
      <trkpt lat="40.232383" lon="-4.741400">
        <ele>1199.0</ele>
        <time>2018-06-24T14:33:51Z</time>
      </trkpt>
      <trkpt lat="40.232383" lon="-4.741250">
        <ele>1198.0</ele>
        <time>2018-06-24T14:33:52Z</time>
      </trkpt>
      <trkpt lat="40.232400" lon="-4.741117">
        <ele>1197.0</ele>
        <time>2018-06-24T14:33:53Z</time>
      </trkpt>
      <trkpt lat="40.232400" lon="-4.740983">
        <ele>1195.0</ele>
        <time>2018-06-24T14:33:54Z</time>
      </trkpt>
      <trkpt lat="40.232417" lon="-4.740833">
        <ele>1193.0</ele>
        <time>2018-06-24T14:33:55Z</time>
      </trkpt>
      <trkpt lat="40.232417" lon="-4.740700">
        <ele>1190.0</ele>
        <time>2018-06-24T14:33:56Z</time>
      </trkpt>
      <trkpt lat="40.232433" lon="-4.740550">
        <ele>1187.0</ele>
        <time>2018-06-24T14:33:57Z</time>
      </trkpt>
      <trkpt lat="40.232433" lon="-4.740417">
        <ele>1184.0</ele>
        <time>2018-06-24T14:33:58Z</time>
      </trkpt>
      <trkpt lat="40.232450" lon="-4.740283">
        <ele>1182.0</ele>
        <time>2018-06-24T14:33:59Z</time>
      </trkpt>
      <trkpt lat="40.232467" lon="-4.740150">
        <ele>1179.0</ele>
        <time>2018-06-24T14:34:00Z</time>
      </trkpt>
      <trkpt lat="40.232467" lon="-4.740000">
        <ele>1177.0</ele>
        <time>2018-06-24T14:34:01Z</time>
      </trkpt>
      <trkpt lat="40.232483" lon="-4.739867">
        <ele>1174.0</ele>
        <time>2018-06-24T14:34:02Z</time>
      </trkpt>
      <trkpt lat="40.232517" lon="-4.739733">
        <ele>1171.0</ele>
        <time>2018-06-24T14:34:03Z</time>
      </trkpt>
      <trkpt lat="40.232550" lon="-4.739600">
        <ele>1169.0</ele>
        <time>2018-06-24T14:34:04Z</time>
      </trkpt>
      <trkpt lat="40.232583" lon="-4.739467">
        <ele>1168.0</ele>
        <time>2018-06-24T14:34:05Z</time>
      </trkpt>
      <trkpt lat="40.232617" lon="-4.739350">
        <ele>1166.0</ele>
        <time>2018-06-24T14:34:06Z</time>
      </trkpt>
      <trkpt lat="40.232667" lon="-4.739217">
        <ele>1163.0</ele>
        <time>2018-06-24T14:34:07Z</time>
      </trkpt>
      <trkpt lat="40.232700" lon="-4.739100">
        <ele>1161.0</ele>
        <time>2018-06-24T14:34:08Z</time>
      </trkpt>
      <trkpt lat="40.232750" lon="-4.738967">
        <ele>1158.0</ele>
        <time>2018-06-24T14:34:09Z</time>
      </trkpt>
      <trkpt lat="40.232783" lon="-4.738850">
        <ele>1155.0</ele>
        <time>2018-06-24T14:34:10Z</time>
      </trkpt>
      <trkpt lat="40.232800" lon="-4.738717">
        <ele>1153.0</ele>
        <time>2018-06-24T14:34:11Z</time>
      </trkpt>
      <trkpt lat="40.232817" lon="-4.738583">
        <ele>1150.0</ele>
        <time>2018-06-24T14:34:12Z</time>
      </trkpt>
      <trkpt lat="40.232850" lon="-4.738450">
        <ele>1147.0</ele>
        <time>2018-06-24T14:34:13Z</time>
      </trkpt>
      <trkpt lat="40.232867" lon="-4.738317">
        <ele>1144.0</ele>
        <time>2018-06-24T14:34:14Z</time>
      </trkpt>
      <trkpt lat="40.232883" lon="-4.738183">
        <ele>1140.0</ele>
        <time>2018-06-24T14:34:15Z</time>
      </trkpt>
      <trkpt lat="40.232883" lon="-4.738050">
        <ele>1137.0</ele>
        <time>2018-06-24T14:34:16Z</time>
      </trkpt>
      <trkpt lat="40.232900" lon="-4.737917">
        <ele>1134.0</ele>
        <time>2018-06-24T14:34:17Z</time>
      </trkpt>
      <trkpt lat="40.232933" lon="-4.737783">
        <ele>1131.0</ele>
        <time>2018-06-24T14:34:18Z</time>
      </trkpt>
      <trkpt lat="40.232967" lon="-4.737650">
        <ele>1128.0</ele>
        <time>2018-06-24T14:34:19Z</time>
      </trkpt>
      <trkpt lat="40.233000" lon="-4.737517">
        <ele>1125.0</ele>
        <time>2018-06-24T14:34:20Z</time>
      </trkpt>
      <trkpt lat="40.233033" lon="-4.737367">
        <ele>1121.0</ele>
        <time>2018-06-24T14:34:21Z</time>
      </trkpt>
      <trkpt lat="40.233067" lon="-4.737233">
        <ele>1117.0</ele>
        <time>2018-06-24T14:34:22Z</time>
      </trkpt>
      <trkpt lat="40.233133" lon="-4.737117">
        <ele>1112.0</ele>
        <time>2018-06-24T14:34:23Z</time>
      </trkpt>
      <trkpt lat="40.233200" lon="-4.736983">
        <ele>1108.0</ele>
        <time>2018-06-24T14:34:24Z</time>
      </trkpt>
      <trkpt lat="40.233283" lon="-4.736850">
        <ele>1104.0</ele>
        <time>2018-06-24T14:34:25Z</time>
      </trkpt>
      <trkpt lat="40.233367" lon="-4.736717">
        <ele>1101.0</ele>
        <time>2018-06-24T14:34:26Z</time>
      </trkpt>
      <trkpt lat="40.233450" lon="-4.736583">
        <ele>1099.0</ele>
        <time>2018-06-24T14:34:27Z</time>
      </trkpt>
      <trkpt lat="40.233517" lon="-4.736450">
        <ele>1096.0</ele>
        <time>2018-06-24T14:34:28Z</time>
      </trkpt>
      <trkpt lat="40.233583" lon="-4.736317">
        <ele>1094.0</ele>
        <time>2018-06-24T14:34:29Z</time>
      </trkpt>
      <trkpt lat="40.233633" lon="-4.736183">
        <ele>1092.0</ele>
        <time>2018-06-24T14:34:30Z</time>
      </trkpt>
      <trkpt lat="40.233700" lon="-4.736050">
        <ele>1090.0</ele>
        <time>2018-06-24T14:34:31Z</time>
      </trkpt>
      <trkpt lat="40.233767" lon="-4.735917">
        <ele>1087.0</ele>
        <time>2018-06-24T14:34:32Z</time>
      </trkpt>
      <trkpt lat="40.233833" lon="-4.735800">
        <ele>1084.0</ele>
        <time>2018-06-24T14:34:33Z</time>
      </trkpt>
      <trkpt lat="40.233883" lon="-4.735667">
        <ele>1081.0</ele>
        <time>2018-06-24T14:34:34Z</time>
      </trkpt>
      <trkpt lat="40.233950" lon="-4.735517">
        <ele>1078.0</ele>
        <time>2018-06-24T14:34:35Z</time>
      </trkpt>
      <trkpt lat="40.234000" lon="-4.735383">
        <ele>1076.0</ele>
        <time>2018-06-24T14:34:36Z</time>
      </trkpt>
      <trkpt lat="40.234067" lon="-4.735233">
        <ele>1073.0</ele>
        <time>2018-06-24T14:34:37Z</time>
      </trkpt>
      <trkpt lat="40.234133" lon="-4.735100">
        <ele>1070.0</ele>
        <time>2018-06-24T14:34:38Z</time>
      </trkpt>
      <trkpt lat="40.234200" lon="-4.734967">
        <ele>1067.0</ele>
        <time>2018-06-24T14:34:39Z</time>
      </trkpt>
      <trkpt lat="40.234267" lon="-4.734817">
        <ele>1065.0</ele>
        <time>2018-06-24T14:34:40Z</time>
      </trkpt>
      <trkpt lat="40.234317" lon="-4.734667">
        <ele>1064.0</ele>
        <time>2018-06-24T14:34:41Z</time>
      </trkpt>
      <trkpt lat="40.234367" lon="-4.734517">
        <ele>1063.0</ele>
        <time>2018-06-24T14:34:42Z</time>
      </trkpt>
      <trkpt lat="40.234417" lon="-4.734383">
        <ele>1062.0</ele>
        <time>2018-06-24T14:34:43Z</time>
      </trkpt>
      <trkpt lat="40.234467" lon="-4.734250">
        <ele>1061.0</ele>
        <time>2018-06-24T14:34:44Z</time>
      </trkpt>
      <trkpt lat="40.234533" lon="-4.734117">
        <ele>1059.0</ele>
        <time>2018-06-24T14:34:45Z</time>
      </trkpt>
      <trkpt lat="40.234600" lon="-4.733967">
        <ele>1058.0</ele>
        <time>2018-06-24T14:34:46Z</time>
      </trkpt>
      <trkpt lat="40.234667" lon="-4.733833">
        <ele>1057.0</ele>
        <time>2018-06-24T14:34:47Z</time>
      </trkpt>
      <trkpt lat="40.234750" lon="-4.733717">
        <ele>1056.0</ele>
        <time>2018-06-24T14:34:48Z</time>
      </trkpt>
      <trkpt lat="40.234817" lon="-4.733583">
        <ele>1056.0</ele>
        <time>2018-06-24T14:34:49Z</time>
      </trkpt>
      <trkpt lat="40.234883" lon="-4.733450">
        <ele>1055.0</ele>
        <time>2018-06-24T14:34:50Z</time>
      </trkpt>
      <trkpt lat="40.234933" lon="-4.733300">
        <ele>1053.0</ele>
        <time>2018-06-24T14:34:51Z</time>
      </trkpt>
      <trkpt lat="40.235000" lon="-4.733150">
        <ele>1051.0</ele>
        <time>2018-06-24T14:34:52Z</time>
      </trkpt>
      <trkpt lat="40.235050" lon="-4.732983">
        <ele>1049.0</ele>
        <time>2018-06-24T14:34:53Z</time>
      </trkpt>
      <trkpt lat="40.235117" lon="-4.732817">
        <ele>1048.0</ele>
        <time>2018-06-24T14:34:54Z</time>
      </trkpt>
      <trkpt lat="40.235167" lon="-4.732633">
        <ele>1047.0</ele>
        <time>2018-06-24T14:34:55Z</time>
      </trkpt>
      <trkpt lat="40.235233" lon="-4.732467">
        <ele>1047.0</ele>
        <time>2018-06-24T14:34:56Z</time>
      </trkpt>
      <trkpt lat="40.235300" lon="-4.732300">
        <ele>1048.0</ele>
        <time>2018-06-24T14:34:57Z</time>
      </trkpt>
      <trkpt lat="40.235367" lon="-4.732150">
        <ele>1049.0</ele>
        <time>2018-06-24T14:34:58Z</time>
      </trkpt>
      <trkpt lat="40.235433" lon="-4.732033">
        <ele>1051.0</ele>
        <time>2018-06-24T14:34:59Z</time>
      </trkpt>
      <trkpt lat="40.235483" lon="-4.731900">
        <ele>1052.0</ele>
        <time>2018-06-24T14:35:00Z</time>
      </trkpt>
      <trkpt lat="40.235550" lon="-4.731783">
        <ele>1052.0</ele>
        <time>2018-06-24T14:35:01Z</time>
      </trkpt>
      <trkpt lat="40.235583" lon="-4.731667">
        <ele>1052.0</ele>
        <time>2018-06-24T14:35:02Z</time>
      </trkpt>
      <trkpt lat="40.235633" lon="-4.731517">
        <ele>1052.0</ele>
        <time>2018-06-24T14:35:03Z</time>
      </trkpt>
      <trkpt lat="40.235667" lon="-4.731383">
        <ele>1052.0</ele>
        <time>2018-06-24T14:35:04Z</time>
      </trkpt>
      <trkpt lat="40.235700" lon="-4.731233">
        <ele>1051.0</ele>
        <time>2018-06-24T14:35:05Z</time>
      </trkpt>
      <trkpt lat="40.235733" lon="-4.731100">
        <ele>1050.0</ele>
        <time>2018-06-24T14:35:06Z</time>
      </trkpt>
      <trkpt lat="40.235767" lon="-4.730950">
        <ele>1049.0</ele>
        <time>2018-06-24T14:35:07Z</time>
      </trkpt>
      <trkpt lat="40.235817" lon="-4.730800">
        <ele>1048.0</ele>
        <time>2018-06-24T14:35:08Z</time>
      </trkpt>
      <trkpt lat="40.235867" lon="-4.730633">
        <ele>1048.0</ele>
        <time>2018-06-24T14:35:09Z</time>
      </trkpt>
      <trkpt lat="40.235917" lon="-4.730467">
        <ele>1049.0</ele>
        <time>2018-06-24T14:35:10Z</time>
      </trkpt>
      <trkpt lat="40.235983" lon="-4.730333">
        <ele>1052.0</ele>
        <time>2018-06-24T14:35:11Z</time>
      </trkpt>
      <trkpt lat="40.236050" lon="-4.730200">
        <ele>1055.0</ele>
        <time>2018-06-24T14:35:12Z</time>
      </trkpt>
      <trkpt lat="40.236100" lon="-4.730083">
        <ele>1057.0</ele>
        <time>2018-06-24T14:35:13Z</time>
      </trkpt>
      <trkpt lat="40.236150" lon="-4.729967">
        <ele>1059.0</ele>
        <time>2018-06-24T14:35:14Z</time>
      </trkpt>
      <trkpt lat="40.236183" lon="-4.729817">
        <ele>1060.0</ele>
        <time>2018-06-24T14:35:15Z</time>
      </trkpt>
      <trkpt lat="40.236200" lon="-4.729683">
        <ele>1061.0</ele>
        <time>2018-06-24T14:35:16Z</time>
      </trkpt>
      <trkpt lat="40.236183" lon="-4.729533">
        <ele>1062.0</ele>
        <time>2018-06-24T14:35:17Z</time>
      </trkpt>
      <trkpt lat="40.236133" lon="-4.729417">
        <ele>1063.0</ele>
        <time>2018-06-24T14:35:18Z</time>
      </trkpt>
      <trkpt lat="40.236067" lon="-4.729350">
        <ele>1063.0</ele>
        <time>2018-06-24T14:35:19Z</time>
      </trkpt>
      <trkpt lat="40.235967" lon="-4.729317">
        <ele>1064.0</ele>
        <time>2018-06-24T14:35:20Z</time>
      </trkpt>
      <trkpt lat="40.235883" lon="-4.729350">
        <ele>1065.0</ele>
        <time>2018-06-24T14:35:21Z</time>
      </trkpt>
      <trkpt lat="40.235817" lon="-4.729433">
        <ele>1066.0</ele>
        <time>2018-06-24T14:35:22Z</time>
      </trkpt>
      <trkpt lat="40.235800" lon="-4.729533">
        <ele>1067.0</ele>
        <time>2018-06-24T14:35:23Z</time>
      </trkpt>
      <trkpt lat="40.235817" lon="-4.729650">
        <ele>1069.0</ele>
        <time>2018-06-24T14:35:24Z</time>
      </trkpt>
      <trkpt lat="40.235867" lon="-4.729750">
        <ele>1071.0</ele>
        <time>2018-06-24T14:35:25Z</time>
      </trkpt>
      <trkpt lat="40.235933" lon="-4.729817">
        <ele>1072.0</ele>
        <time>2018-06-24T14:35:26Z</time>
      </trkpt>
      <trkpt lat="40.236017" lon="-4.729850">
        <ele>1074.0</ele>
        <time>2018-06-24T14:35:27Z</time>
      </trkpt>
      <trkpt lat="40.236117" lon="-4.729867">
        <ele>1075.0</ele>
        <time>2018-06-24T14:35:28Z</time>
      </trkpt>
      <trkpt lat="40.236217" lon="-4.729867">
        <ele>1077.0</ele>
        <time>2018-06-24T14:35:29Z</time>
      </trkpt>
      <trkpt lat="40.236317" lon="-4.729833">
        <ele>1078.0</ele>
        <time>2018-06-24T14:35:30Z</time>
      </trkpt>
      <trkpt lat="40.236417" lon="-4.729767">
        <ele>1080.0</ele>
        <time>2018-06-24T14:35:31Z</time>
      </trkpt>
      <trkpt lat="40.236500" lon="-4.729667">
        <ele>1081.0</ele>
        <time>2018-06-24T14:35:32Z</time>
      </trkpt>
      <trkpt lat="40.236567" lon="-4.729533">
        <ele>1084.0</ele>
        <time>2018-06-24T14:35:33Z</time>
      </trkpt>
      <trkpt lat="40.236600" lon="-4.729383">
        <ele>1086.0</ele>
        <time>2018-06-24T14:35:34Z</time>
      </trkpt>
      <trkpt lat="40.236617" lon="-4.729233">
        <ele>1088.0</ele>
        <time>2018-06-24T14:35:35Z</time>
      </trkpt>
      <trkpt lat="40.236600" lon="-4.729083">
        <ele>1091.0</ele>
        <time>2018-06-24T14:35:36Z</time>
      </trkpt>
      <trkpt lat="40.236567" lon="-4.728950">
        <ele>1093.0</ele>
        <time>2018-06-24T14:35:37Z</time>
      </trkpt>
      <trkpt lat="40.236517" lon="-4.728850">
        <ele>1096.0</ele>
        <time>2018-06-24T14:35:38Z</time>
      </trkpt>
      <trkpt lat="40.236450" lon="-4.728783">
        <ele>1097.0</ele>
        <time>2018-06-24T14:35:39Z</time>
      </trkpt>
      <trkpt lat="40.236367" lon="-4.728767">
        <ele>1098.0</ele>
        <time>2018-06-24T14:35:40Z</time>
      </trkpt>
      <trkpt lat="40.236283" lon="-4.728783">
        <ele>1099.0</ele>
        <time>2018-06-24T14:35:41Z</time>
      </trkpt>
      <trkpt lat="40.236233" lon="-4.728850">
        <ele>1100.0</ele>
        <time>2018-06-24T14:35:42Z</time>
      </trkpt>
      <trkpt lat="40.236200" lon="-4.728950">
        <ele>1101.0</ele>
        <time>2018-06-24T14:35:43Z</time>
      </trkpt>
      <trkpt lat="40.236217" lon="-4.729067">
        <ele>1102.0</ele>
        <time>2018-06-24T14:35:44Z</time>
      </trkpt>
      <trkpt lat="40.236283" lon="-4.729167">
        <ele>1104.0</ele>
        <time>2018-06-24T14:35:45Z</time>
      </trkpt>
      <trkpt lat="40.236367" lon="-4.729217">
        <ele>1106.0</ele>
        <time>2018-06-24T14:35:46Z</time>
      </trkpt>
      <trkpt lat="40.236450" lon="-4.729233">
        <ele>1109.0</ele>
        <time>2018-06-24T14:35:47Z</time>
      </trkpt>
      <trkpt lat="40.236533" lon="-4.729233">
        <ele>1111.0</ele>
        <time>2018-06-24T14:35:48Z</time>
      </trkpt>
      <trkpt lat="40.236617" lon="-4.729233">
        <ele>1113.0</ele>
        <time>2018-06-24T14:35:49Z</time>
      </trkpt>
      <trkpt lat="40.236700" lon="-4.729217">
        <ele>1115.0</ele>
        <time>2018-06-24T14:35:50Z</time>
      </trkpt>
      <trkpt lat="40.236800" lon="-4.729167">
        <ele>1116.0</ele>
        <time>2018-06-24T14:35:51Z</time>
      </trkpt>
      <trkpt lat="40.236883" lon="-4.729100">
        <ele>1117.0</ele>
        <time>2018-06-24T14:35:52Z</time>
      </trkpt>
      <trkpt lat="40.236983" lon="-4.729017">
        <ele>1119.0</ele>
        <time>2018-06-24T14:35:53Z</time>
      </trkpt>
      <trkpt lat="40.237050" lon="-4.728883">
        <ele>1123.0</ele>
        <time>2018-06-24T14:35:54Z</time>
      </trkpt>
      <trkpt lat="40.237067" lon="-4.728750">
        <ele>1126.0</ele>
        <time>2018-06-24T14:35:55Z</time>
      </trkpt>
      <trkpt lat="40.237067" lon="-4.728600">
        <ele>1130.0</ele>
        <time>2018-06-24T14:35:56Z</time>
      </trkpt>
      <trkpt lat="40.237033" lon="-4.728483">
        <ele>1133.0</ele>
        <time>2018-06-24T14:35:57Z</time>
      </trkpt>
      <trkpt lat="40.236983" lon="-4.728383">
        <ele>1136.0</ele>
        <time>2018-06-24T14:35:58Z</time>
      </trkpt>
      <trkpt lat="40.236933" lon="-4.728300">
        <ele>1139.0</ele>
        <time>2018-06-24T14:35:59Z</time>
      </trkpt>
      <trkpt lat="40.236850" lon="-4.728233">
        <ele>1142.0</ele>
        <time>2018-06-24T14:36:00Z</time>
      </trkpt>
      <trkpt lat="40.236767" lon="-4.728183">
        <ele>1143.0</ele>
        <time>2018-06-24T14:36:01Z</time>
      </trkpt>
      <trkpt lat="40.236683" lon="-4.728200">
        <ele>1145.0</ele>
        <time>2018-06-24T14:36:02Z</time>
      </trkpt>
      <trkpt lat="40.236617" lon="-4.728250">
        <ele>1147.0</ele>
        <time>2018-06-24T14:36:03Z</time>
      </trkpt>
      <trkpt lat="40.236583" lon="-4.728333">
        <ele>1148.0</ele>
        <time>2018-06-24T14:36:04Z</time>
      </trkpt>
      <trkpt lat="40.236600" lon="-4.728433">
        <ele>1149.0</ele>
        <time>2018-06-24T14:36:05Z</time>
      </trkpt>
      <trkpt lat="40.236650" lon="-4.728533">
        <ele>1150.0</ele>
        <time>2018-06-24T14:36:06Z</time>
      </trkpt>
      <trkpt lat="40.236733" lon="-4.728600">
        <ele>1151.0</ele>
        <time>2018-06-24T14:36:07Z</time>
      </trkpt>
      <trkpt lat="40.236833" lon="-4.728617">
        <ele>1153.0</ele>
        <time>2018-06-24T14:36:08Z</time>
      </trkpt>
      <trkpt lat="40.236950" lon="-4.728600">
        <ele>1154.0</ele>
        <time>2018-06-24T14:36:09Z</time>
      </trkpt>
      <trkpt lat="40.237050" lon="-4.728567">
        <ele>1156.0</ele>
        <time>2018-06-24T14:36:10Z</time>
      </trkpt>
      <trkpt lat="40.237150" lon="-4.728500">
        <ele>1158.0</ele>
        <time>2018-06-24T14:36:11Z</time>
      </trkpt>
      <trkpt lat="40.237233" lon="-4.728400">
        <ele>1161.0</ele>
        <time>2018-06-24T14:36:12Z</time>
      </trkpt>
      <trkpt lat="40.237317" lon="-4.728283">
        <ele>1164.0</ele>
        <time>2018-06-24T14:36:13Z</time>
      </trkpt>
      <trkpt lat="40.237367" lon="-4.728150">
        <ele>1168.0</ele>
        <time>2018-06-24T14:36:14Z</time>
      </trkpt>
      <trkpt lat="40.237383" lon="-4.728050">
        <ele>1172.0</ele>
        <time>2018-06-24T14:36:15Z</time>
      </trkpt>
      <trkpt lat="40.237400" lon="-4.727950">
        <ele>1174.0</ele>
        <time>2018-06-24T14:36:16Z</time>
      </trkpt>
      <trkpt lat="40.237417" lon="-4.727833">
        <ele>1176.0</ele>
        <time>2018-06-24T14:36:17Z</time>
      </trkpt>
      <trkpt lat="40.237417" lon="-4.727717">
        <ele>1176.0</ele>
        <time>2018-06-24T14:36:18Z</time>
      </trkpt>
      <trkpt lat="40.237383" lon="-4.727583">
        <ele>1177.0</ele>
        <time>2018-06-24T14:36:19Z</time>
      </trkpt>
      <trkpt lat="40.237317" lon="-4.727450">
        <ele>1178.0</ele>
        <time>2018-06-24T14:36:20Z</time>
      </trkpt>
      <trkpt lat="40.237233" lon="-4.727333">
        <ele>1180.0</ele>
        <time>2018-06-24T14:36:21Z</time>
      </trkpt>
      <trkpt lat="40.237133" lon="-4.727267">
        <ele>1183.0</ele>
        <time>2018-06-24T14:36:22Z</time>
      </trkpt>
      <trkpt lat="40.237050" lon="-4.727217">
        <ele>1185.0</ele>
        <time>2018-06-24T14:36:23Z</time>
      </trkpt>
      <trkpt lat="40.236967" lon="-4.727167">
        <ele>1188.0</ele>
        <time>2018-06-24T14:36:24Z</time>
      </trkpt>
      <trkpt lat="40.236883" lon="-4.727117">
        <ele>1190.0</ele>
        <time>2018-06-24T14:36:25Z</time>
      </trkpt>
      <trkpt lat="40.236800" lon="-4.727067">
        <ele>1191.0</ele>
        <time>2018-06-24T14:36:26Z</time>
      </trkpt>
      <trkpt lat="40.236700" lon="-4.727000">
        <ele>1193.0</ele>
        <time>2018-06-24T14:36:27Z</time>
      </trkpt>
      <trkpt lat="40.236600" lon="-4.726967">
        <ele>1196.0</ele>
        <time>2018-06-24T14:36:28Z</time>
      </trkpt>
      <trkpt lat="40.236517" lon="-4.726950">
        <ele>1198.0</ele>
        <time>2018-06-24T14:36:29Z</time>
      </trkpt>
      <trkpt lat="40.236417" lon="-4.726983">
        <ele>1201.0</ele>
        <time>2018-06-24T14:36:30Z</time>
      </trkpt>
      <trkpt lat="40.236350" lon="-4.727033">
        <ele>1203.0</ele>
        <time>2018-06-24T14:36:31Z</time>
      </trkpt>
      <trkpt lat="40.236300" lon="-4.727100">
        <ele>1205.0</ele>
        <time>2018-06-24T14:36:32Z</time>
      </trkpt>
      <trkpt lat="40.236283" lon="-4.727200">
        <ele>1207.0</ele>
        <time>2018-06-24T14:36:33Z</time>
      </trkpt>
      <trkpt lat="40.236283" lon="-4.727317">
        <ele>1208.0</ele>
        <time>2018-06-24T14:36:34Z</time>
      </trkpt>
      <trkpt lat="40.236333" lon="-4.727417">
        <ele>1209.0</ele>
        <time>2018-06-24T14:36:35Z</time>
      </trkpt>
      <trkpt lat="40.236400" lon="-4.727500">
        <ele>1211.0</ele>
        <time>2018-06-24T14:36:36Z</time>
      </trkpt>
      <trkpt lat="40.236500" lon="-4.727550">
        <ele>1213.0</ele>
        <time>2018-06-24T14:36:37Z</time>
      </trkpt>
      <trkpt lat="40.236600" lon="-4.727550">
        <ele>1215.0</ele>
        <time>2018-06-24T14:36:38Z</time>
      </trkpt>
      <trkpt lat="40.236700" lon="-4.727517">
        <ele>1217.0</ele>
        <time>2018-06-24T14:36:39Z</time>
      </trkpt>
      <trkpt lat="40.236800" lon="-4.727450">
        <ele>1220.0</ele>
        <time>2018-06-24T14:36:40Z</time>
      </trkpt>
      <trkpt lat="40.236883" lon="-4.727367">
        <ele>1222.0</ele>
        <time>2018-06-24T14:36:41Z</time>
      </trkpt>
      <trkpt lat="40.236967" lon="-4.727250">
        <ele>1223.0</ele>
        <time>2018-06-24T14:36:42Z</time>
      </trkpt>
      <trkpt lat="40.237017" lon="-4.727117">
        <ele>1224.0</ele>
        <time>2018-06-24T14:36:43Z</time>
      </trkpt>
      <trkpt lat="40.237033" lon="-4.726967">
        <ele>1226.0</ele>
        <time>2018-06-24T14:36:44Z</time>
      </trkpt>
      <trkpt lat="40.237033" lon="-4.726800">
        <ele>1227.0</ele>
        <time>2018-06-24T14:36:45Z</time>
      </trkpt>
      <trkpt lat="40.236983" lon="-4.726650">
        <ele>1229.0</ele>
        <time>2018-06-24T14:36:46Z</time>
      </trkpt>
      <trkpt lat="40.236900" lon="-4.726533">
        <ele>1231.0</ele>
        <time>2018-06-24T14:36:47Z</time>
      </trkpt>
      <trkpt lat="40.236800" lon="-4.726467">
        <ele>1232.0</ele>
        <time>2018-06-24T14:36:48Z</time>
      </trkpt>
      <trkpt lat="40.236683" lon="-4.726450">
        <ele>1233.0</ele>
        <time>2018-06-24T14:36:49Z</time>
      </trkpt>
      <trkpt lat="40.236567" lon="-4.726483">
        <ele>1236.0</ele>
        <time>2018-06-24T14:36:50Z</time>
      </trkpt>
      <trkpt lat="40.236483" lon="-4.726533">
        <ele>1241.0</ele>
        <time>2018-06-24T14:36:51Z</time>
      </trkpt>
      <trkpt lat="40.236433" lon="-4.726583">
        <ele>1245.0</ele>
        <time>2018-06-24T14:36:52Z</time>
      </trkpt>
      <trkpt lat="40.236383" lon="-4.726650">
        <ele>1247.0</ele>
        <time>2018-06-24T14:36:53Z</time>
      </trkpt>
      <trkpt lat="40.236350" lon="-4.726717">
        <ele>1249.0</ele>
        <time>2018-06-24T14:36:54Z</time>
      </trkpt>
      <trkpt lat="40.236350" lon="-4.726817">
        <ele>1249.0</ele>
        <time>2018-06-24T14:36:55Z</time>
      </trkpt>
      <trkpt lat="40.236383" lon="-4.726917">
        <ele>1250.0</ele>
        <time>2018-06-24T14:36:56Z</time>
      </trkpt>
      <trkpt lat="40.236450" lon="-4.727017">
        <ele>1251.0</ele>
        <time>2018-06-24T14:36:57Z</time>
      </trkpt>
      <trkpt lat="40.236533" lon="-4.727067">
        <ele>1252.0</ele>
        <time>2018-06-24T14:36:58Z</time>
      </trkpt>
      <trkpt lat="40.236617" lon="-4.727100">
        <ele>1254.0</ele>
        <time>2018-06-24T14:36:59Z</time>
      </trkpt>
      <trkpt lat="40.236733" lon="-4.727083">
        <ele>1256.0</ele>
        <time>2018-06-24T14:37:00Z</time>
      </trkpt>
      <trkpt lat="40.236833" lon="-4.727017">
        <ele>1257.0</ele>
        <time>2018-06-24T14:37:01Z</time>
      </trkpt>
      <trkpt lat="40.236917" lon="-4.726933">
        <ele>1259.0</ele>
        <time>2018-06-24T14:37:02Z</time>
      </trkpt>
      <trkpt lat="40.236983" lon="-4.726817">
        <ele>1261.0</ele>
        <time>2018-06-24T14:37:03Z</time>
      </trkpt>
      <trkpt lat="40.237033" lon="-4.726667">
        <ele>1263.0</ele>
        <time>2018-06-24T14:37:04Z</time>
      </trkpt>
      <trkpt lat="40.237050" lon="-4.726500">
        <ele>1264.0</ele>
        <time>2018-06-24T14:37:05Z</time>
      </trkpt>
      <trkpt lat="40.237017" lon="-4.726333">
        <ele>1266.0</ele>
        <time>2018-06-24T14:37:06Z</time>
      </trkpt>
      <trkpt lat="40.236950" lon="-4.726200">
        <ele>1268.0</ele>
        <time>2018-06-24T14:37:07Z</time>
      </trkpt>
      <trkpt lat="40.236883" lon="-4.726083">
        <ele>1271.0</ele>
        <time>2018-06-24T14:37:08Z</time>
      </trkpt>
      <trkpt lat="40.236800" lon="-4.726000">
        <ele>1273.0</ele>
        <time>2018-06-24T14:37:09Z</time>
      </trkpt>
      <trkpt lat="40.236717" lon="-4.725950">
        <ele>1275.0</ele>
        <time>2018-06-24T14:37:10Z</time>
      </trkpt>
      <trkpt lat="40.236617" lon="-4.725917">
        <ele>1276.0</ele>
        <time>2018-06-24T14:37:11Z</time>
      </trkpt>
      <trkpt lat="40.236517" lon="-4.725917">
        <ele>1276.0</ele>
        <time>2018-06-24T14:37:12Z</time>
      </trkpt>
      <trkpt lat="40.236433" lon="-4.725950">
        <ele>1278.0</ele>
        <time>2018-06-24T14:37:13Z</time>
      </trkpt>
      <trkpt lat="40.236350" lon="-4.726017">
        <ele>1280.0</ele>
        <time>2018-06-24T14:37:14Z</time>
      </trkpt>
      <trkpt lat="40.236317" lon="-4.726100">
        <ele>1281.0</ele>
        <time>2018-06-24T14:37:15Z</time>
      </trkpt>
      <trkpt lat="40.236283" lon="-4.726200">
        <ele>1283.0</ele>
        <time>2018-06-24T14:37:16Z</time>
      </trkpt>
      <trkpt lat="40.236283" lon="-4.726283">
        <ele>1285.0</ele>
        <time>2018-06-24T14:37:17Z</time>
      </trkpt>
      <trkpt lat="40.236317" lon="-4.726367">
        <ele>1286.0</ele>
        <time>2018-06-24T14:37:18Z</time>
      </trkpt>
      <trkpt lat="40.236367" lon="-4.726450">
        <ele>1287.0</ele>
        <time>2018-06-24T14:37:19Z</time>
      </trkpt>
      <trkpt lat="40.236450" lon="-4.726517">
        <ele>1288.0</ele>
        <time>2018-06-24T14:37:20Z</time>
      </trkpt>
      <trkpt lat="40.236550" lon="-4.726533">
        <ele>1289.0</ele>
        <time>2018-06-24T14:37:21Z</time>
      </trkpt>
      <trkpt lat="40.236650" lon="-4.726517">
        <ele>1291.0</ele>
        <time>2018-06-24T14:37:22Z</time>
      </trkpt>
      <trkpt lat="40.236750" lon="-4.726450">
        <ele>1292.0</ele>
        <time>2018-06-24T14:37:23Z</time>
      </trkpt>
      <trkpt lat="40.236817" lon="-4.726350">
        <ele>1294.0</ele>
        <time>2018-06-24T14:37:24Z</time>
      </trkpt>
      <trkpt lat="40.236867" lon="-4.726200">
        <ele>1295.0</ele>
        <time>2018-06-24T14:37:25Z</time>
      </trkpt>
      <trkpt lat="40.236883" lon="-4.726050">
        <ele>1296.0</ele>
        <time>2018-06-24T14:37:26Z</time>
      </trkpt>
      <trkpt lat="40.236867" lon="-4.725900">
        <ele>1298.0</ele>
        <time>2018-06-24T14:37:27Z</time>
      </trkpt>
      <trkpt lat="40.236817" lon="-4.725750">
        <ele>1299.0</ele>
        <time>2018-06-24T14:37:28Z</time>
      </trkpt>
      <trkpt lat="40.236750" lon="-4.725633">
        <ele>1301.0</ele>
        <time>2018-06-24T14:37:29Z</time>
      </trkpt>
      <trkpt lat="40.236683" lon="-4.725533">
        <ele>1303.0</ele>
        <time>2018-06-24T14:37:30Z</time>
      </trkpt>
      <trkpt lat="40.236600" lon="-4.725433">
        <ele>1304.0</ele>
        <time>2018-06-24T14:37:31Z</time>
      </trkpt>
      <trkpt lat="40.236500" lon="-4.725367">
        <ele>1305.0</ele>
        <time>2018-06-24T14:37:32Z</time>
      </trkpt>
      <trkpt lat="40.236400" lon="-4.725350">
        <ele>1306.0</ele>
        <time>2018-06-24T14:37:33Z</time>
      </trkpt>
      <trkpt lat="40.236317" lon="-4.725383">
        <ele>1307.0</ele>
        <time>2018-06-24T14:37:34Z</time>
      </trkpt>
      <trkpt lat="40.236233" lon="-4.725450">
        <ele>1308.0</ele>
        <time>2018-06-24T14:37:35Z</time>
      </trkpt>
      <trkpt lat="40.236200" lon="-4.725550">
        <ele>1310.0</ele>
        <time>2018-06-24T14:37:36Z</time>
      </trkpt>
      <trkpt lat="40.236183" lon="-4.725633">
        <ele>1312.0</ele>
        <time>2018-06-24T14:37:37Z</time>
      </trkpt>
      <trkpt lat="40.236183" lon="-4.725717">
        <ele>1313.0</ele>
        <time>2018-06-24T14:37:38Z</time>
      </trkpt>
      <trkpt lat="40.236217" lon="-4.725767">
        <ele>1314.0</ele>
        <time>2018-06-24T14:37:39Z</time>
      </trkpt>
      <trkpt lat="40.236267" lon="-4.725833">
        <ele>1314.0</ele>
        <time>2018-06-24T14:37:40Z</time>
      </trkpt>
      <trkpt lat="40.236333" lon="-4.725867">
        <ele>1314.0</ele>
        <time>2018-06-24T14:37:41Z</time>
      </trkpt>
      <trkpt lat="40.236433" lon="-4.725883">
        <ele>1313.0</ele>
        <time>2018-06-24T14:37:42Z</time>
      </trkpt>
      <trkpt lat="40.236550" lon="-4.725850">
        <ele>1313.0</ele>
        <time>2018-06-24T14:37:43Z</time>
      </trkpt>
      <trkpt lat="40.236650" lon="-4.725767">
        <ele>1313.0</ele>
        <time>2018-06-24T14:37:44Z</time>
      </trkpt>
      <trkpt lat="40.236733" lon="-4.725633">
        <ele>1314.0</ele>
        <time>2018-06-24T14:37:45Z</time>
      </trkpt>
      <trkpt lat="40.236783" lon="-4.725483">
        <ele>1316.0</ele>
        <time>2018-06-24T14:37:46Z</time>
      </trkpt>
      <trkpt lat="40.236817" lon="-4.725333">
        <ele>1317.0</ele>
        <time>2018-06-24T14:37:47Z</time>
      </trkpt>
      <trkpt lat="40.236817" lon="-4.725167">
        <ele>1318.0</ele>
        <time>2018-06-24T14:37:48Z</time>
      </trkpt>
      <trkpt lat="40.236817" lon="-4.725017">
        <ele>1319.0</ele>
        <time>2018-06-24T14:37:49Z</time>
      </trkpt>
      <trkpt lat="40.236817" lon="-4.724850">
        <ele>1320.0</ele>
        <time>2018-06-24T14:37:50Z</time>
      </trkpt>
      <trkpt lat="40.236800" lon="-4.724683">
        <ele>1320.0</ele>
        <time>2018-06-24T14:37:51Z</time>
      </trkpt>
      <trkpt lat="40.236767" lon="-4.724533">
        <ele>1321.0</ele>
        <time>2018-06-24T14:37:52Z</time>
      </trkpt>
      <trkpt lat="40.236733" lon="-4.724367">
        <ele>1322.0</ele>
        <time>2018-06-24T14:37:53Z</time>
      </trkpt>
      <trkpt lat="40.236683" lon="-4.724217">
        <ele>1323.0</ele>
        <time>2018-06-24T14:37:54Z</time>
      </trkpt>
      <trkpt lat="40.236633" lon="-4.724067">
        <ele>1325.0</ele>
        <time>2018-06-24T14:37:55Z</time>
      </trkpt>
      <trkpt lat="40.236583" lon="-4.723933">
        <ele>1326.0</ele>
        <time>2018-06-24T14:37:56Z</time>
      </trkpt>
      <trkpt lat="40.236533" lon="-4.723800">
        <ele>1328.0</ele>
        <time>2018-06-24T14:37:57Z</time>
      </trkpt>
      <trkpt lat="40.236500" lon="-4.723683">
        <ele>1329.0</ele>
        <time>2018-06-24T14:37:58Z</time>
      </trkpt>
      <trkpt lat="40.236433" lon="-4.723583">
        <ele>1329.0</ele>
        <time>2018-06-24T14:37:59Z</time>
      </trkpt>
      <trkpt lat="40.236350" lon="-4.723533">
        <ele>1328.0</ele>
        <time>2018-06-24T14:38:00Z</time>
      </trkpt>
      <trkpt lat="40.236283" lon="-4.723517">
        <ele>1326.0</ele>
        <time>2018-06-24T14:38:01Z</time>
      </trkpt>
      <trkpt lat="40.236217" lon="-4.723567">
        <ele>1325.0</ele>
        <time>2018-06-24T14:38:02Z</time>
      </trkpt>
      <trkpt lat="40.236200" lon="-4.723633">
        <ele>1324.0</ele>
        <time>2018-06-24T14:38:03Z</time>
      </trkpt>
      <trkpt lat="40.236233" lon="-4.723733">
        <ele>1323.0</ele>
        <time>2018-06-24T14:38:04Z</time>
      </trkpt>
      <trkpt lat="40.236300" lon="-4.723800">
        <ele>1322.0</ele>
        <time>2018-06-24T14:38:05Z</time>
      </trkpt>
      <trkpt lat="40.236383" lon="-4.723833">
        <ele>1323.0</ele>
        <time>2018-06-24T14:38:06Z</time>
      </trkpt>
      <trkpt lat="40.236483" lon="-4.723817">
        <ele>1323.0</ele>
        <time>2018-06-24T14:38:07Z</time>
      </trkpt>
      <trkpt lat="40.236583" lon="-4.723783">
        <ele>1324.0</ele>
        <time>2018-06-24T14:38:08Z</time>
      </trkpt>
      <trkpt lat="40.236700" lon="-4.723700">
        <ele>1324.0</ele>
        <time>2018-06-24T14:38:09Z</time>
      </trkpt>
      <trkpt lat="40.236817" lon="-4.723617">
        <ele>1324.0</ele>
        <time>2018-06-24T14:38:10Z</time>
      </trkpt>
      <trkpt lat="40.236933" lon="-4.723500">
        <ele>1325.0</ele>
        <time>2018-06-24T14:38:11Z</time>
      </trkpt>
      <trkpt lat="40.237033" lon="-4.723383">
        <ele>1326.0</ele>
        <time>2018-06-24T14:38:12Z</time>
      </trkpt>
      <trkpt lat="40.237117" lon="-4.723250">
        <ele>1327.0</ele>
        <time>2018-06-24T14:38:13Z</time>
      </trkpt>
      <trkpt lat="40.237217" lon="-4.723150">
        <ele>1329.0</ele>
        <time>2018-06-24T14:38:14Z</time>
      </trkpt>
      <trkpt lat="40.237317" lon="-4.723050">
        <ele>1331.0</ele>
        <time>2018-06-24T14:38:15Z</time>
      </trkpt>
      <trkpt lat="40.237433" lon="-4.722983">
        <ele>1333.0</ele>
        <time>2018-06-24T14:38:16Z</time>
      </trkpt>
      <trkpt lat="40.237533" lon="-4.722933">
        <ele>1336.0</ele>
        <time>2018-06-24T14:38:17Z</time>
      </trkpt>
      <trkpt lat="40.237650" lon="-4.722867">
        <ele>1338.0</ele>
        <time>2018-06-24T14:38:18Z</time>
      </trkpt>
      <trkpt lat="40.237750" lon="-4.722783">
        <ele>1340.0</ele>
        <time>2018-06-24T14:38:19Z</time>
      </trkpt>
      <trkpt lat="40.237833" lon="-4.722667">
        <ele>1343.0</ele>
        <time>2018-06-24T14:38:20Z</time>
      </trkpt>
      <trkpt lat="40.237900" lon="-4.722550">
        <ele>1345.0</ele>
        <time>2018-06-24T14:38:21Z</time>
      </trkpt>
      <trkpt lat="40.237950" lon="-4.722417">
        <ele>1346.0</ele>
        <time>2018-06-24T14:38:22Z</time>
      </trkpt>
      <trkpt lat="40.237983" lon="-4.722300">
        <ele>1346.0</ele>
        <time>2018-06-24T14:38:23Z</time>
      </trkpt>
      <trkpt lat="40.237983" lon="-4.722167">
        <ele>1346.0</ele>
        <time>2018-06-24T14:38:24Z</time>
      </trkpt>
      <trkpt lat="40.237950" lon="-4.722050">
        <ele>1346.0</ele>
        <time>2018-06-24T14:38:25Z</time>
      </trkpt>
      <trkpt lat="40.237900" lon="-4.721950">
        <ele>1346.0</ele>
        <time>2018-06-24T14:38:26Z</time>
      </trkpt>
      <trkpt lat="40.237833" lon="-4.721883">
        <ele>1346.0</ele>
        <time>2018-06-24T14:38:27Z</time>
      </trkpt>
      <trkpt lat="40.237750" lon="-4.721883">
        <ele>1346.0</ele>
        <time>2018-06-24T14:38:28Z</time>
      </trkpt>
      <trkpt lat="40.237683" lon="-4.721917">
        <ele>1348.0</ele>
        <time>2018-06-24T14:38:29Z</time>
      </trkpt>
      <trkpt lat="40.237617" lon="-4.722000">
        <ele>1350.0</ele>
        <time>2018-06-24T14:38:30Z</time>
      </trkpt>
      <trkpt lat="40.237617" lon="-4.722083">
        <ele>1351.0</ele>
        <time>2018-06-24T14:38:31Z</time>
      </trkpt>
      <trkpt lat="40.237617" lon="-4.722200">
        <ele>1352.0</ele>
        <time>2018-06-24T14:38:32Z</time>
      </trkpt>
      <trkpt lat="40.237650" lon="-4.722300">
        <ele>1352.0</ele>
        <time>2018-06-24T14:38:33Z</time>
      </trkpt>
      <trkpt lat="40.237700" lon="-4.722400">
        <ele>1353.0</ele>
        <time>2018-06-24T14:38:34Z</time>
      </trkpt>
      <trkpt lat="40.237733" lon="-4.722483">
        <ele>1355.0</ele>
        <time>2018-06-24T14:38:35Z</time>
      </trkpt>
      <trkpt lat="40.237800" lon="-4.722583">
        <ele>1357.0</ele>
        <time>2018-06-24T14:38:36Z</time>
      </trkpt>
      <trkpt lat="40.237867" lon="-4.722667">
        <ele>1359.0</ele>
        <time>2018-06-24T14:38:37Z</time>
      </trkpt>
      <trkpt lat="40.237933" lon="-4.722750">
        <ele>1361.0</ele>
        <time>2018-06-24T14:38:38Z</time>
      </trkpt>
      <trkpt lat="40.237983" lon="-4.722833">
        <ele>1364.0</ele>
        <time>2018-06-24T14:38:39Z</time>
      </trkpt>
      <trkpt lat="40.238033" lon="-4.722900">
        <ele>1366.0</ele>
        <time>2018-06-24T14:38:40Z</time>
      </trkpt>
      <trkpt lat="40.238067" lon="-4.722950">
        <ele>1367.0</ele>
        <time>2018-06-24T14:38:41Z</time>
      </trkpt>
      <trkpt lat="40.238133" lon="-4.722983">
        <ele>1368.0</ele>
        <time>2018-06-24T14:38:42Z</time>
      </trkpt>
      <trkpt lat="40.238233" lon="-4.723000">
        <ele>1367.0</ele>
        <time>2018-06-24T14:38:43Z</time>
      </trkpt>
      <trkpt lat="40.238333" lon="-4.722983">
        <ele>1368.0</ele>
        <time>2018-06-24T14:38:44Z</time>
      </trkpt>
      <trkpt lat="40.238450" lon="-4.722983">
        <ele>1371.0</ele>
        <time>2018-06-24T14:38:45Z</time>
      </trkpt>
      <trkpt lat="40.238550" lon="-4.722967">
        <ele>1374.0</ele>
        <time>2018-06-24T14:38:46Z</time>
      </trkpt>
      <trkpt lat="40.238633" lon="-4.722933">
        <ele>1376.0</ele>
        <time>2018-06-24T14:38:47Z</time>
      </trkpt>
      <trkpt lat="40.238717" lon="-4.722883">
        <ele>1377.0</ele>
        <time>2018-06-24T14:38:48Z</time>
      </trkpt>
      <trkpt lat="40.238783" lon="-4.722800">
        <ele>1377.0</ele>
        <time>2018-06-24T14:38:49Z</time>
      </trkpt>
      <trkpt lat="40.238867" lon="-4.722717">
        <ele>1377.0</ele>
        <time>2018-06-24T14:38:50Z</time>
      </trkpt>
      <trkpt lat="40.238933" lon="-4.722617">
        <ele>1377.0</ele>
        <time>2018-06-24T14:38:51Z</time>
      </trkpt>
      <trkpt lat="40.239000" lon="-4.722483">
        <ele>1378.0</ele>
        <time>2018-06-24T14:38:52Z</time>
      </trkpt>
      <trkpt lat="40.239033" lon="-4.722350">
        <ele>1378.0</ele>
        <time>2018-06-24T14:38:53Z</time>
      </trkpt>
      <trkpt lat="40.239067" lon="-4.722200">
        <ele>1378.0</ele>
        <time>2018-06-24T14:38:54Z</time>
      </trkpt>
      <trkpt lat="40.239050" lon="-4.722067">
        <ele>1378.0</ele>
        <time>2018-06-24T14:38:55Z</time>
      </trkpt>
      <trkpt lat="40.239033" lon="-4.721933">
        <ele>1377.0</ele>
        <time>2018-06-24T14:38:56Z</time>
      </trkpt>
      <trkpt lat="40.238983" lon="-4.721800">
        <ele>1377.0</ele>
        <time>2018-06-24T14:38:57Z</time>
      </trkpt>
      <trkpt lat="40.238917" lon="-4.721683">
        <ele>1377.0</ele>
        <time>2018-06-24T14:38:58Z</time>
      </trkpt>
      <trkpt lat="40.238833" lon="-4.721583">
        <ele>1378.0</ele>
        <time>2018-06-24T14:38:59Z</time>
      </trkpt>
      <trkpt lat="40.238767" lon="-4.721517">
        <ele>1380.0</ele>
        <time>2018-06-24T14:39:00Z</time>
      </trkpt>
      <trkpt lat="40.238700" lon="-4.721483">
        <ele>1381.0</ele>
        <time>2018-06-24T14:39:01Z</time>
      </trkpt>
      <trkpt lat="40.238617" lon="-4.721450">
        <ele>1381.0</ele>
        <time>2018-06-24T14:39:02Z</time>
      </trkpt>
      <trkpt lat="40.238533" lon="-4.721450">
        <ele>1382.0</ele>
        <time>2018-06-24T14:39:03Z</time>
      </trkpt>
      <trkpt lat="40.238450" lon="-4.721483">
        <ele>1383.0</ele>
        <time>2018-06-24T14:39:04Z</time>
      </trkpt>
      <trkpt lat="40.238383" lon="-4.721517">
        <ele>1384.0</ele>
        <time>2018-06-24T14:39:05Z</time>
      </trkpt>
      <trkpt lat="40.238333" lon="-4.721583">
        <ele>1385.0</ele>
        <time>2018-06-24T14:39:06Z</time>
      </trkpt>
      <trkpt lat="40.238300" lon="-4.721667">
        <ele>1386.0</ele>
        <time>2018-06-24T14:39:07Z</time>
      </trkpt>
      <trkpt lat="40.238283" lon="-4.721767">
        <ele>1387.0</ele>
        <time>2018-06-24T14:39:08Z</time>
      </trkpt>
      <trkpt lat="40.238283" lon="-4.721867">
        <ele>1388.0</ele>
        <time>2018-06-24T14:39:09Z</time>
      </trkpt>
      <trkpt lat="40.238300" lon="-4.721967">
        <ele>1390.0</ele>
        <time>2018-06-24T14:39:10Z</time>
      </trkpt>
      <trkpt lat="40.238350" lon="-4.722067">
        <ele>1392.0</ele>
        <time>2018-06-24T14:39:11Z</time>
      </trkpt>
      <trkpt lat="40.238400" lon="-4.722150">
        <ele>1394.0</ele>
        <time>2018-06-24T14:39:12Z</time>
      </trkpt>
      <trkpt lat="40.238483" lon="-4.722200">
        <ele>1396.0</ele>
        <time>2018-06-24T14:39:13Z</time>
      </trkpt>
      <trkpt lat="40.238567" lon="-4.722217">
        <ele>1396.0</ele>
        <time>2018-06-24T14:39:14Z</time>
      </trkpt>
      <trkpt lat="40.238667" lon="-4.722217">
        <ele>1396.0</ele>
        <time>2018-06-24T14:39:15Z</time>
      </trkpt>
      <trkpt lat="40.238767" lon="-4.722183">
        <ele>1396.0</ele>
        <time>2018-06-24T14:39:16Z</time>
      </trkpt>
      <trkpt lat="40.238850" lon="-4.722100">
        <ele>1397.0</ele>
        <time>2018-06-24T14:39:17Z</time>
      </trkpt>
      <trkpt lat="40.238917" lon="-4.721983">
        <ele>1397.0</ele>
        <time>2018-06-24T14:39:18Z</time>
      </trkpt>
      <trkpt lat="40.238967" lon="-4.721833">
        <ele>1397.0</ele>
        <time>2018-06-24T14:39:19Z</time>
      </trkpt>
      <trkpt lat="40.238983" lon="-4.721667">
        <ele>1399.0</ele>
        <time>2018-06-24T14:39:20Z</time>
      </trkpt>
      <trkpt lat="40.238983" lon="-4.721517">
        <ele>1400.0</ele>
        <time>2018-06-24T14:39:21Z</time>
      </trkpt>
      <trkpt lat="40.238950" lon="-4.721400">
        <ele>1401.0</ele>
        <time>2018-06-24T14:39:22Z</time>
      </trkpt>
      <trkpt lat="40.238900" lon="-4.721300">
        <ele>1401.0</ele>
        <time>2018-06-24T14:39:23Z</time>
      </trkpt>
      <trkpt lat="40.238817" lon="-4.721233">
        <ele>1401.0</ele>
        <time>2018-06-24T14:39:24Z</time>
      </trkpt>
      <trkpt lat="40.238733" lon="-4.721200">
        <ele>1402.0</ele>
        <time>2018-06-24T14:39:25Z</time>
      </trkpt>
      <trkpt lat="40.238667" lon="-4.721167">
        <ele>1403.0</ele>
        <time>2018-06-24T14:39:26Z</time>
      </trkpt>
      <trkpt lat="40.238600" lon="-4.721117">
        <ele>1404.0</ele>
        <time>2018-06-24T14:39:27Z</time>
      </trkpt>
      <trkpt lat="40.238533" lon="-4.721067">
        <ele>1405.0</ele>
        <time>2018-06-24T14:39:28Z</time>
      </trkpt>
      <trkpt lat="40.238450" lon="-4.721050">
        <ele>1405.0</ele>
        <time>2018-06-24T14:39:29Z</time>
      </trkpt>
      <trkpt lat="40.238367" lon="-4.721050">
        <ele>1406.0</ele>
        <time>2018-06-24T14:39:30Z</time>
      </trkpt>
      <trkpt lat="40.238283" lon="-4.721083">
        <ele>1407.0</ele>
        <time>2018-06-24T14:39:31Z</time>
      </trkpt>
      <trkpt lat="40.238217" lon="-4.721117">
        <ele>1409.0</ele>
        <time>2018-06-24T14:39:32Z</time>
      </trkpt>
      <trkpt lat="40.238183" lon="-4.721167">
        <ele>1413.0</ele>
        <time>2018-06-24T14:39:33Z</time>
      </trkpt>
      <trkpt lat="40.238183" lon="-4.721233">
        <ele>1415.0</ele>
        <time>2018-06-24T14:39:34Z</time>
      </trkpt>
      <trkpt lat="40.238200" lon="-4.721300">
        <ele>1415.0</ele>
        <time>2018-06-24T14:39:35Z</time>
      </trkpt>
      <trkpt lat="40.238233" lon="-4.721383">
        <ele>1415.0</ele>
        <time>2018-06-24T14:39:36Z</time>
      </trkpt>
      <trkpt lat="40.238300" lon="-4.721467">
        <ele>1416.0</ele>
        <time>2018-06-24T14:39:37Z</time>
      </trkpt>
      <trkpt lat="40.238383" lon="-4.721533">
        <ele>1418.0</ele>
        <time>2018-06-24T14:39:38Z</time>
      </trkpt>
      <trkpt lat="40.238483" lon="-4.721567">
        <ele>1420.0</ele>
        <time>2018-06-24T14:39:39Z</time>
      </trkpt>
      <trkpt lat="40.238583" lon="-4.721550">
        <ele>1422.0</ele>
        <time>2018-06-24T14:39:40Z</time>
      </trkpt>
      <trkpt lat="40.238683" lon="-4.721500">
        <ele>1423.0</ele>
        <time>2018-06-24T14:39:41Z</time>
      </trkpt>
      <trkpt lat="40.238767" lon="-4.721417">
        <ele>1424.0</ele>
        <time>2018-06-24T14:39:42Z</time>
      </trkpt>
      <trkpt lat="40.238833" lon="-4.721300">
        <ele>1424.0</ele>
        <time>2018-06-24T14:39:43Z</time>
      </trkpt>
      <trkpt lat="40.238883" lon="-4.721167">
        <ele>1425.0</ele>
        <time>2018-06-24T14:39:44Z</time>
      </trkpt>
      <trkpt lat="40.238900" lon="-4.721017">
        <ele>1426.0</ele>
        <time>2018-06-24T14:39:45Z</time>
      </trkpt>
      <trkpt lat="40.238883" lon="-4.720883">
        <ele>1427.0</ele>
        <time>2018-06-24T14:39:46Z</time>
      </trkpt>
      <trkpt lat="40.238833" lon="-4.720783">
        <ele>1428.0</ele>
        <time>2018-06-24T14:39:47Z</time>
      </trkpt>
      <trkpt lat="40.238767" lon="-4.720717">
        <ele>1429.0</ele>
        <time>2018-06-24T14:39:48Z</time>
      </trkpt>
      <trkpt lat="40.238700" lon="-4.720667">
        <ele>1429.0</ele>
        <time>2018-06-24T14:39:49Z</time>
      </trkpt>
      <trkpt lat="40.238633" lon="-4.720650">
        <ele>1430.0</ele>
        <time>2018-06-24T14:39:50Z</time>
      </trkpt>
      <trkpt lat="40.238567" lon="-4.720683">
        <ele>1431.0</ele>
        <time>2018-06-24T14:39:51Z</time>
      </trkpt>
      <trkpt lat="40.238517" lon="-4.720733">
        <ele>1432.0</ele>
        <time>2018-06-24T14:39:52Z</time>
      </trkpt>
      <trkpt lat="40.238483" lon="-4.720817">
        <ele>1433.0</ele>
        <time>2018-06-24T14:39:53Z</time>
      </trkpt>
      <trkpt lat="40.238483" lon="-4.720917">
        <ele>1435.0</ele>
        <time>2018-06-24T14:39:54Z</time>
      </trkpt>
      <trkpt lat="40.238500" lon="-4.721017">
        <ele>1437.0</ele>
        <time>2018-06-24T14:39:55Z</time>
      </trkpt>
      <trkpt lat="40.238550" lon="-4.721100">
        <ele>1439.0</ele>
        <time>2018-06-24T14:39:56Z</time>
      </trkpt>
      <trkpt lat="40.238600" lon="-4.721167">
        <ele>1441.0</ele>
        <time>2018-06-24T14:39:57Z</time>
      </trkpt>
      <trkpt lat="40.238683" lon="-4.721200">
        <ele>1441.0</ele>
        <time>2018-06-24T14:39:58Z</time>
      </trkpt>
      <trkpt lat="40.238783" lon="-4.721200">
        <ele>1442.0</ele>
        <time>2018-06-24T14:39:59Z</time>
      </trkpt>
      <trkpt lat="40.238883" lon="-4.721167">
        <ele>1442.0</ele>
        <time>2018-06-24T14:40:00Z</time>
      </trkpt>
      <trkpt lat="40.238967" lon="-4.721100">
        <ele>1443.0</ele>
        <time>2018-06-24T14:40:01Z</time>
      </trkpt>
      <trkpt lat="40.239050" lon="-4.721017">
        <ele>1445.0</ele>
        <time>2018-06-24T14:40:02Z</time>
      </trkpt>
      <trkpt lat="40.239100" lon="-4.720883">
        <ele>1445.0</ele>
        <time>2018-06-24T14:40:03Z</time>
      </trkpt>
      <trkpt lat="40.239133" lon="-4.720750">
        <ele>1445.0</ele>
        <time>2018-06-24T14:40:04Z</time>
      </trkpt>
      <trkpt lat="40.239133" lon="-4.720600">
        <ele>1447.0</ele>
        <time>2018-06-24T14:40:05Z</time>
      </trkpt>
      <trkpt lat="40.239133" lon="-4.720467">
        <ele>1448.0</ele>
        <time>2018-06-24T14:40:06Z</time>
      </trkpt>
      <trkpt lat="40.239117" lon="-4.720350">
        <ele>1449.0</ele>
        <time>2018-06-24T14:40:07Z</time>
      </trkpt>
      <trkpt lat="40.239083" lon="-4.720233">
        <ele>1450.0</ele>
        <time>2018-06-24T14:40:08Z</time>
      </trkpt>
      <trkpt lat="40.239033" lon="-4.720133">
        <ele>1450.0</ele>
        <time>2018-06-24T14:40:09Z</time>
      </trkpt>
      <trkpt lat="40.238950" lon="-4.720067">
        <ele>1451.0</ele>
        <time>2018-06-24T14:40:10Z</time>
      </trkpt>
      <trkpt lat="40.238883" lon="-4.720033">
        <ele>1452.0</ele>
        <time>2018-06-24T14:40:11Z</time>
      </trkpt>
      <trkpt lat="40.238800" lon="-4.720033">
        <ele>1453.0</ele>
        <time>2018-06-24T14:40:12Z</time>
      </trkpt>
      <trkpt lat="40.238750" lon="-4.720050">
        <ele>1455.0</ele>
        <time>2018-06-24T14:40:13Z</time>
      </trkpt>
      <trkpt lat="40.238700" lon="-4.720100">
        <ele>1456.0</ele>
        <time>2018-06-24T14:40:14Z</time>
      </trkpt>
      <trkpt lat="40.238683" lon="-4.720183">
        <ele>1457.0</ele>
        <time>2018-06-24T14:40:15Z</time>
      </trkpt>
      <trkpt lat="40.238683" lon="-4.720267">
        <ele>1458.0</ele>
        <time>2018-06-24T14:40:16Z</time>
      </trkpt>
      <trkpt lat="40.238700" lon="-4.720367">
        <ele>1459.0</ele>
        <time>2018-06-24T14:40:17Z</time>
      </trkpt>
      <trkpt lat="40.238750" lon="-4.720433">
        <ele>1460.0</ele>
        <time>2018-06-24T14:40:18Z</time>
      </trkpt>
      <trkpt lat="40.238833" lon="-4.720483">
        <ele>1461.0</ele>
        <time>2018-06-24T14:40:19Z</time>
      </trkpt>
      <trkpt lat="40.238917" lon="-4.720500">
        <ele>1462.0</ele>
        <time>2018-06-24T14:40:20Z</time>
      </trkpt>
      <trkpt lat="40.239033" lon="-4.720483">
        <ele>1462.0</ele>
        <time>2018-06-24T14:40:21Z</time>
      </trkpt>
      <trkpt lat="40.239133" lon="-4.720417">
        <ele>1463.0</ele>
        <time>2018-06-24T14:40:22Z</time>
      </trkpt>
      <trkpt lat="40.239217" lon="-4.720317">
        <ele>1464.0</ele>
        <time>2018-06-24T14:40:23Z</time>
      </trkpt>
      <trkpt lat="40.239283" lon="-4.720183">
        <ele>1465.0</ele>
        <time>2018-06-24T14:40:24Z</time>
      </trkpt>
      <trkpt lat="40.239317" lon="-4.720050">
        <ele>1466.0</ele>
        <time>2018-06-24T14:40:25Z</time>
      </trkpt>
      <trkpt lat="40.239317" lon="-4.719917">
        <ele>1467.0</ele>
        <time>2018-06-24T14:40:26Z</time>
      </trkpt>
      <trkpt lat="40.239283" lon="-4.719800">
        <ele>1467.0</ele>
        <time>2018-06-24T14:40:27Z</time>
      </trkpt>
      <trkpt lat="40.239233" lon="-4.719700">
        <ele>1468.0</ele>
        <time>2018-06-24T14:40:28Z</time>
      </trkpt>
      <trkpt lat="40.239167" lon="-4.719633">
        <ele>1469.0</ele>
        <time>2018-06-24T14:40:29Z</time>
      </trkpt>
      <trkpt lat="40.239100" lon="-4.719600">
        <ele>1469.0</ele>
        <time>2018-06-24T14:40:30Z</time>
      </trkpt>
      <trkpt lat="40.239033" lon="-4.719617">
        <ele>1469.0</ele>
        <time>2018-06-24T14:40:31Z</time>
      </trkpt>
      <trkpt lat="40.238967" lon="-4.719667">
        <ele>1470.0</ele>
        <time>2018-06-24T14:40:32Z</time>
      </trkpt>
      <trkpt lat="40.238917" lon="-4.719733">
        <ele>1470.0</ele>
        <time>2018-06-24T14:40:33Z</time>
      </trkpt>
      <trkpt lat="40.238883" lon="-4.719817">
        <ele>1471.0</ele>
        <time>2018-06-24T14:40:34Z</time>
      </trkpt>
      <trkpt lat="40.238883" lon="-4.719900">
        <ele>1472.0</ele>
        <time>2018-06-24T14:40:35Z</time>
      </trkpt>
      <trkpt lat="40.238917" lon="-4.719983">
        <ele>1473.0</ele>
        <time>2018-06-24T14:40:36Z</time>
      </trkpt>
      <trkpt lat="40.238983" lon="-4.720067">
        <ele>1475.0</ele>
        <time>2018-06-24T14:40:37Z</time>
      </trkpt>
      <trkpt lat="40.239083" lon="-4.720117">
        <ele>1476.0</ele>
        <time>2018-06-24T14:40:38Z</time>
      </trkpt>
      <trkpt lat="40.239183" lon="-4.720117">
        <ele>1477.0</ele>
        <time>2018-06-24T14:40:39Z</time>
      </trkpt>
      <trkpt lat="40.239283" lon="-4.720100">
        <ele>1479.0</ele>
        <time>2018-06-24T14:40:40Z</time>
      </trkpt>
      <trkpt lat="40.239367" lon="-4.720033">
        <ele>1480.0</ele>
        <time>2018-06-24T14:40:41Z</time>
      </trkpt>
      <trkpt lat="40.239433" lon="-4.719933">
        <ele>1481.0</ele>
        <time>2018-06-24T14:40:42Z</time>
      </trkpt>
      <trkpt lat="40.239500" lon="-4.719800">
        <ele>1481.0</ele>
        <time>2018-06-24T14:40:43Z</time>
      </trkpt>
      <trkpt lat="40.239517" lon="-4.719650">
        <ele>1482.0</ele>
        <time>2018-06-24T14:40:44Z</time>
      </trkpt>
      <trkpt lat="40.239500" lon="-4.719517">
        <ele>1483.0</ele>
        <time>2018-06-24T14:40:45Z</time>
      </trkpt>
      <trkpt lat="40.239450" lon="-4.719400">
        <ele>1484.0</ele>
        <time>2018-06-24T14:40:46Z</time>
      </trkpt>
      <trkpt lat="40.239400" lon="-4.719333">
        <ele>1485.0</ele>
        <time>2018-06-24T14:40:47Z</time>
      </trkpt>
      <trkpt lat="40.239317" lon="-4.719283">
        <ele>1485.0</ele>
        <time>2018-06-24T14:40:48Z</time>
      </trkpt>
      <trkpt lat="40.239233" lon="-4.719267">
        <ele>1485.0</ele>
        <time>2018-06-24T14:40:49Z</time>
      </trkpt>
      <trkpt lat="40.239150" lon="-4.719283">
        <ele>1487.0</ele>
        <time>2018-06-24T14:40:50Z</time>
      </trkpt>
      <trkpt lat="40.239083" lon="-4.719333">
        <ele>1490.0</ele>
        <time>2018-06-24T14:40:51Z</time>
      </trkpt>
      <trkpt lat="40.239050" lon="-4.719400">
        <ele>1492.0</ele>
        <time>2018-06-24T14:40:52Z</time>
      </trkpt>
      <trkpt lat="40.239033" lon="-4.719483">
        <ele>1493.0</ele>
        <time>2018-06-24T14:40:53Z</time>
      </trkpt>
      <trkpt lat="40.239050" lon="-4.719583">
        <ele>1493.0</ele>
        <time>2018-06-24T14:40:54Z</time>
      </trkpt>
      <trkpt lat="40.239083" lon="-4.719683">
        <ele>1494.0</ele>
        <time>2018-06-24T14:40:55Z</time>
      </trkpt>
      <trkpt lat="40.239167" lon="-4.719750">
        <ele>1495.0</ele>
        <time>2018-06-24T14:40:56Z</time>
      </trkpt>
      <trkpt lat="40.239267" lon="-4.719767">
        <ele>1495.0</ele>
        <time>2018-06-24T14:40:57Z</time>
      </trkpt>
      <trkpt lat="40.239367" lon="-4.719733">
        <ele>1496.0</ele>
        <time>2018-06-24T14:40:58Z</time>
      </trkpt>
      <trkpt lat="40.239467" lon="-4.719650">
        <ele>1497.0</ele>
        <time>2018-06-24T14:40:59Z</time>
      </trkpt>
      <trkpt lat="40.239533" lon="-4.719517">
        <ele>1498.0</ele>
        <time>2018-06-24T14:41:00Z</time>
      </trkpt>
      <trkpt lat="40.239567" lon="-4.719367">
        <ele>1499.0</ele>
        <time>2018-06-24T14:41:01Z</time>
      </trkpt>
      <trkpt lat="40.239550" lon="-4.719233">
        <ele>1500.0</ele>
        <time>2018-06-24T14:41:02Z</time>
      </trkpt>
      <trkpt lat="40.239517" lon="-4.719100">
        <ele>1502.0</ele>
        <time>2018-06-24T14:41:03Z</time>
      </trkpt>
      <trkpt lat="40.239467" lon="-4.718983">
        <ele>1503.0</ele>
        <time>2018-06-24T14:41:04Z</time>
      </trkpt>
      <trkpt lat="40.239400" lon="-4.718900">
        <ele>1503.0</ele>
        <time>2018-06-24T14:41:05Z</time>
      </trkpt>
      <trkpt lat="40.239333" lon="-4.718850">
        <ele>1504.0</ele>
        <time>2018-06-24T14:41:06Z</time>
      </trkpt>
      <trkpt lat="40.239250" lon="-4.718817">
        <ele>1506.0</ele>
        <time>2018-06-24T14:41:07Z</time>
      </trkpt>
      <trkpt lat="40.239183" lon="-4.718833">
        <ele>1508.0</ele>
        <time>2018-06-24T14:41:08Z</time>
      </trkpt>
      <trkpt lat="40.239117" lon="-4.718850">
        <ele>1509.0</ele>
        <time>2018-06-24T14:41:09Z</time>
      </trkpt>
      <trkpt lat="40.239067" lon="-4.718883">
        <ele>1510.0</ele>
        <time>2018-06-24T14:41:10Z</time>
      </trkpt>
      <trkpt lat="40.239017" lon="-4.718950">
        <ele>1510.0</ele>
        <time>2018-06-24T14:41:11Z</time>
      </trkpt>
      <trkpt lat="40.239000" lon="-4.719033">
        <ele>1510.0</ele>
        <time>2018-06-24T14:41:12Z</time>
      </trkpt>
      <trkpt lat="40.239017" lon="-4.719133">
        <ele>1509.0</ele>
        <time>2018-06-24T14:41:13Z</time>
      </trkpt>
      <trkpt lat="40.239067" lon="-4.719233">
        <ele>1509.0</ele>
        <time>2018-06-24T14:41:14Z</time>
      </trkpt>
      <trkpt lat="40.239133" lon="-4.719300">
        <ele>1509.0</ele>
        <time>2018-06-24T14:41:15Z</time>
      </trkpt>
      <trkpt lat="40.239233" lon="-4.719350">
        <ele>1510.0</ele>
        <time>2018-06-24T14:41:16Z</time>
      </trkpt>
      <trkpt lat="40.239333" lon="-4.719367">
        <ele>1512.0</ele>
        <time>2018-06-24T14:41:17Z</time>
      </trkpt>
      <trkpt lat="40.239433" lon="-4.719333">
        <ele>1514.0</ele>
        <time>2018-06-24T14:41:18Z</time>
      </trkpt>
      <trkpt lat="40.239517" lon="-4.719283">
        <ele>1515.0</ele>
        <time>2018-06-24T14:41:19Z</time>
      </trkpt>
      <trkpt lat="40.239600" lon="-4.719217">
        <ele>1516.0</ele>
        <time>2018-06-24T14:41:20Z</time>
      </trkpt>
      <trkpt lat="40.239683" lon="-4.719117">
        <ele>1517.0</ele>
        <time>2018-06-24T14:41:21Z</time>
      </trkpt>
      <trkpt lat="40.239750" lon="-4.719017">
        <ele>1517.0</ele>
        <time>2018-06-24T14:41:22Z</time>
      </trkpt>
      <trkpt lat="40.239783" lon="-4.718867">
        <ele>1517.0</ele>
        <time>2018-06-24T14:41:23Z</time>
      </trkpt>
      <trkpt lat="40.239783" lon="-4.718717">
        <ele>1517.0</ele>
        <time>2018-06-24T14:41:24Z</time>
      </trkpt>
      <trkpt lat="40.239750" lon="-4.718567">
        <ele>1517.0</ele>
        <time>2018-06-24T14:41:25Z</time>
      </trkpt>
      <trkpt lat="40.239683" lon="-4.718433">
        <ele>1518.0</ele>
        <time>2018-06-24T14:41:26Z</time>
      </trkpt>
      <trkpt lat="40.239583" lon="-4.718333">
        <ele>1520.0</ele>
        <time>2018-06-24T14:41:27Z</time>
      </trkpt>
      <trkpt lat="40.239500" lon="-4.718267">
        <ele>1523.0</ele>
        <time>2018-06-24T14:41:28Z</time>
      </trkpt>
      <trkpt lat="40.239417" lon="-4.718217">
        <ele>1526.0</ele>
        <time>2018-06-24T14:41:29Z</time>
      </trkpt>
      <trkpt lat="40.239333" lon="-4.718183">
        <ele>1529.0</ele>
        <time>2018-06-24T14:41:30Z</time>
      </trkpt>
      <trkpt lat="40.239267" lon="-4.718150">
        <ele>1531.0</ele>
        <time>2018-06-24T14:41:31Z</time>
      </trkpt>
      <trkpt lat="40.239183" lon="-4.718133">
        <ele>1531.0</ele>
        <time>2018-06-24T14:41:32Z</time>
      </trkpt>
      <trkpt lat="40.239117" lon="-4.718133">
        <ele>1532.0</ele>
        <time>2018-06-24T14:41:33Z</time>
      </trkpt>
      <trkpt lat="40.239050" lon="-4.718183">
        <ele>1532.0</ele>
        <time>2018-06-24T14:41:34Z</time>
      </trkpt>
      <trkpt lat="40.239017" lon="-4.718250">
        <ele>1532.0</ele>
        <time>2018-06-24T14:41:35Z</time>
      </trkpt>
      <trkpt lat="40.239017" lon="-4.718350">
        <ele>1532.0</ele>
        <time>2018-06-24T14:41:36Z</time>
      </trkpt>
      <trkpt lat="40.239050" lon="-4.718433">
        <ele>1532.0</ele>
        <time>2018-06-24T14:41:37Z</time>
      </trkpt>
      <trkpt lat="40.239117" lon="-4.718500">
        <ele>1532.0</ele>
        <time>2018-06-24T14:41:38Z</time>
      </trkpt>
      <trkpt lat="40.239183" lon="-4.718533">
        <ele>1533.0</ele>
        <time>2018-06-24T14:41:39Z</time>
      </trkpt>
      <trkpt lat="40.239267" lon="-4.718567">
        <ele>1534.0</ele>
        <time>2018-06-24T14:41:40Z</time>
      </trkpt>
      <trkpt lat="40.239350" lon="-4.718567">
        <ele>1534.0</ele>
        <time>2018-06-24T14:41:41Z</time>
      </trkpt>
      <trkpt lat="40.239433" lon="-4.718550">
        <ele>1534.0</ele>
        <time>2018-06-24T14:41:42Z</time>
      </trkpt>
      <trkpt lat="40.239533" lon="-4.718500">
        <ele>1533.0</ele>
        <time>2018-06-24T14:41:43Z</time>
      </trkpt>
      <trkpt lat="40.239617" lon="-4.718400">
        <ele>1533.0</ele>
        <time>2018-06-24T14:41:44Z</time>
      </trkpt>
      <trkpt lat="40.239700" lon="-4.718283">
        <ele>1534.0</ele>
        <time>2018-06-24T14:41:45Z</time>
      </trkpt>
      <trkpt lat="40.239750" lon="-4.718133">
        <ele>1536.0</ele>
        <time>2018-06-24T14:41:46Z</time>
      </trkpt>
      <trkpt lat="40.239767" lon="-4.717983">
        <ele>1538.0</ele>
        <time>2018-06-24T14:41:47Z</time>
      </trkpt>
      <trkpt lat="40.239750" lon="-4.717833">
        <ele>1539.0</ele>
        <time>2018-06-24T14:41:48Z</time>
      </trkpt>
      <trkpt lat="40.239733" lon="-4.717683">
        <ele>1540.0</ele>
        <time>2018-06-24T14:41:49Z</time>
      </trkpt>
      <trkpt lat="40.239683" lon="-4.717567">
        <ele>1542.0</ele>
        <time>2018-06-24T14:41:50Z</time>
      </trkpt>
      <trkpt lat="40.239617" lon="-4.717450">
        <ele>1544.0</ele>
        <time>2018-06-24T14:41:51Z</time>
      </trkpt>
      <trkpt lat="40.239567" lon="-4.717350">
        <ele>1545.0</ele>
        <time>2018-06-24T14:41:52Z</time>
      </trkpt>
      <trkpt lat="40.239500" lon="-4.717283">
        <ele>1547.0</ele>
        <time>2018-06-24T14:41:53Z</time>
      </trkpt>
      <trkpt lat="40.239417" lon="-4.717233">
        <ele>1549.0</ele>
        <time>2018-06-24T14:41:54Z</time>
      </trkpt>
      <trkpt lat="40.239350" lon="-4.717217">
        <ele>1550.0</ele>
        <time>2018-06-24T14:41:55Z</time>
      </trkpt>
      <trkpt lat="40.239300" lon="-4.717233">
        <ele>1549.0</ele>
        <time>2018-06-24T14:41:56Z</time>
      </trkpt>
      <trkpt lat="40.239250" lon="-4.717283">
        <ele>1548.0</ele>
        <time>2018-06-24T14:41:57Z</time>
      </trkpt>
      <trkpt lat="40.239233" lon="-4.717367">
        <ele>1548.0</ele>
        <time>2018-06-24T14:41:58Z</time>
      </trkpt>
      <trkpt lat="40.239267" lon="-4.717467">
        <ele>1548.0</ele>
        <time>2018-06-24T14:41:59Z</time>
      </trkpt>
      <trkpt lat="40.239333" lon="-4.717533">
        <ele>1548.0</ele>
        <time>2018-06-24T14:42:00Z</time>
      </trkpt>
      <trkpt lat="40.239417" lon="-4.717550">
        <ele>1548.0</ele>
        <time>2018-06-24T14:42:01Z</time>
      </trkpt>
      <trkpt lat="40.239533" lon="-4.717533">
        <ele>1548.0</ele>
        <time>2018-06-24T14:42:02Z</time>
      </trkpt>
      <trkpt lat="40.239633" lon="-4.717483">
        <ele>1549.0</ele>
        <time>2018-06-24T14:42:03Z</time>
      </trkpt>
      <trkpt lat="40.239733" lon="-4.717417">
        <ele>1551.0</ele>
        <time>2018-06-24T14:42:04Z</time>
      </trkpt>
      <trkpt lat="40.239817" lon="-4.717317">
        <ele>1553.0</ele>
        <time>2018-06-24T14:42:05Z</time>
      </trkpt>
      <trkpt lat="40.239883" lon="-4.717200">
        <ele>1555.0</ele>
        <time>2018-06-24T14:42:06Z</time>
      </trkpt>
      <trkpt lat="40.239917" lon="-4.717083">
        <ele>1556.0</ele>
        <time>2018-06-24T14:42:07Z</time>
      </trkpt>
      <trkpt lat="40.239933" lon="-4.716933">
        <ele>1556.0</ele>
        <time>2018-06-24T14:42:08Z</time>
      </trkpt>
      <trkpt lat="40.239933" lon="-4.716800">
        <ele>1557.0</ele>
        <time>2018-06-24T14:42:09Z</time>
      </trkpt>
      <trkpt lat="40.239917" lon="-4.716667">
        <ele>1558.0</ele>
        <time>2018-06-24T14:42:10Z</time>
      </trkpt>
      <trkpt lat="40.239867" lon="-4.716550">
        <ele>1558.0</ele>
        <time>2018-06-24T14:42:11Z</time>
      </trkpt>
      <trkpt lat="40.239817" lon="-4.716467">
        <ele>1558.0</ele>
        <time>2018-06-24T14:42:12Z</time>
      </trkpt>
      <trkpt lat="40.239750" lon="-4.716383">
        <ele>1558.0</ele>
        <time>2018-06-24T14:42:13Z</time>
      </trkpt>
      <trkpt lat="40.239683" lon="-4.716317">
        <ele>1558.0</ele>
        <time>2018-06-24T14:42:14Z</time>
      </trkpt>
      <trkpt lat="40.239617" lon="-4.716267">
        <ele>1559.0</ele>
        <time>2018-06-24T14:42:15Z</time>
      </trkpt>
      <trkpt lat="40.239550" lon="-4.716217">
        <ele>1559.0</ele>
        <time>2018-06-24T14:42:16Z</time>
      </trkpt>
      <trkpt lat="40.239483" lon="-4.716183">
        <ele>1559.0</ele>
        <time>2018-06-24T14:42:17Z</time>
      </trkpt>
      <trkpt lat="40.239400" lon="-4.716150">
        <ele>1559.0</ele>
        <time>2018-06-24T14:42:18Z</time>
      </trkpt>
      <trkpt lat="40.239333" lon="-4.716067">
        <ele>1559.0</ele>
        <time>2018-06-24T14:42:19Z</time>
      </trkpt>
      <trkpt lat="40.239250" lon="-4.715983">
        <ele>1560.0</ele>
        <time>2018-06-24T14:42:20Z</time>
      </trkpt>
      <trkpt lat="40.239167" lon="-4.715867">
        <ele>1561.0</ele>
        <time>2018-06-24T14:42:21Z</time>
      </trkpt>
      <trkpt lat="40.239100" lon="-4.715750">
        <ele>1561.0</ele>
        <time>2018-06-24T14:42:22Z</time>
      </trkpt>
      <trkpt lat="40.239050" lon="-4.715633">
        <ele>1562.0</ele>
        <time>2018-06-24T14:42:23Z</time>
      </trkpt>
      <trkpt lat="40.239000" lon="-4.715500">
        <ele>1561.0</ele>
        <time>2018-06-24T14:42:24Z</time>
      </trkpt>
      <trkpt lat="40.238967" lon="-4.715367">
        <ele>1561.0</ele>
        <time>2018-06-24T14:42:25Z</time>
      </trkpt>
      <trkpt lat="40.238917" lon="-4.715233">
        <ele>1560.0</ele>
        <time>2018-06-24T14:42:26Z</time>
      </trkpt>
      <trkpt lat="40.238883" lon="-4.715100">
        <ele>1559.0</ele>
        <time>2018-06-24T14:42:27Z</time>
      </trkpt>
      <trkpt lat="40.238833" lon="-4.714967">
        <ele>1557.0</ele>
        <time>2018-06-24T14:42:28Z</time>
      </trkpt>
      <trkpt lat="40.238800" lon="-4.714833">
        <ele>1556.0</ele>
        <time>2018-06-24T14:42:29Z</time>
      </trkpt>
      <trkpt lat="40.238750" lon="-4.714683">
        <ele>1554.0</ele>
        <time>2018-06-24T14:42:30Z</time>
      </trkpt>
      <trkpt lat="40.238700" lon="-4.714517">
        <ele>1553.0</ele>
        <time>2018-06-24T14:42:31Z</time>
      </trkpt>
      <trkpt lat="40.238667" lon="-4.714367">
        <ele>1554.0</ele>
        <time>2018-06-24T14:42:32Z</time>
      </trkpt>
      <trkpt lat="40.238650" lon="-4.714217">
        <ele>1555.0</ele>
        <time>2018-06-24T14:42:33Z</time>
      </trkpt>
      <trkpt lat="40.238633" lon="-4.714083">
        <ele>1555.0</ele>
        <time>2018-06-24T14:42:34Z</time>
      </trkpt>
      <trkpt lat="40.238617" lon="-4.713950">
        <ele>1555.0</ele>
        <time>2018-06-24T14:42:35Z</time>
      </trkpt>
      <trkpt lat="40.238583" lon="-4.713833">
        <ele>1554.0</ele>
        <time>2018-06-24T14:42:36Z</time>
      </trkpt>
      <trkpt lat="40.238550" lon="-4.713700">
        <ele>1552.0</ele>
        <time>2018-06-24T14:42:37Z</time>
      </trkpt>
      <trkpt lat="40.238517" lon="-4.713583">
        <ele>1550.0</ele>
        <time>2018-06-24T14:42:38Z</time>
      </trkpt>
      <trkpt lat="40.238483" lon="-4.713433">
        <ele>1548.0</ele>
        <time>2018-06-24T14:42:39Z</time>
      </trkpt>
      <trkpt lat="40.238467" lon="-4.713283">
        <ele>1546.0</ele>
        <time>2018-06-24T14:42:40Z</time>
      </trkpt>
      <trkpt lat="40.238450" lon="-4.713133">
        <ele>1545.0</ele>
        <time>2018-06-24T14:42:41Z</time>
      </trkpt>
      <trkpt lat="40.238433" lon="-4.712983">
        <ele>1543.0</ele>
        <time>2018-06-24T14:42:42Z</time>
      </trkpt>
      <trkpt lat="40.238417" lon="-4.712833">
        <ele>1542.0</ele>
        <time>2018-06-24T14:42:43Z</time>
      </trkpt>
      <trkpt lat="40.238383" lon="-4.712700">
        <ele>1541.0</ele>
        <time>2018-06-24T14:42:44Z</time>
      </trkpt>
      <trkpt lat="40.238367" lon="-4.712550">
        <ele>1539.0</ele>
        <time>2018-06-24T14:42:45Z</time>
      </trkpt>
      <trkpt lat="40.238333" lon="-4.712400">
        <ele>1537.0</ele>
        <time>2018-06-24T14:42:46Z</time>
      </trkpt>
      <trkpt lat="40.238300" lon="-4.712267">
        <ele>1536.0</ele>
        <time>2018-06-24T14:42:47Z</time>
      </trkpt>
      <trkpt lat="40.238267" lon="-4.712117">
        <ele>1534.0</ele>
        <time>2018-06-24T14:42:48Z</time>
      </trkpt>
      <trkpt lat="40.238233" lon="-4.711983">
        <ele>1533.0</ele>
        <time>2018-06-24T14:42:49Z</time>
      </trkpt>
      <trkpt lat="40.238183" lon="-4.711833">
        <ele>1531.0</ele>
        <time>2018-06-24T14:42:50Z</time>
      </trkpt>
      <trkpt lat="40.238150" lon="-4.711700">
        <ele>1529.0</ele>
        <time>2018-06-24T14:42:51Z</time>
      </trkpt>
      <trkpt lat="40.238117" lon="-4.711550">
        <ele>1526.0</ele>
        <time>2018-06-24T14:42:52Z</time>
      </trkpt>
      <trkpt lat="40.238083" lon="-4.711400">
        <ele>1523.0</ele>
        <time>2018-06-24T14:42:53Z</time>
      </trkpt>
      <trkpt lat="40.238050" lon="-4.711250">
        <ele>1520.0</ele>
        <time>2018-06-24T14:42:54Z</time>
      </trkpt>
      <trkpt lat="40.238000" lon="-4.711100">
        <ele>1518.0</ele>
        <time>2018-06-24T14:42:55Z</time>
      </trkpt>
      <trkpt lat="40.237950" lon="-4.710950">
        <ele>1517.0</ele>
        <time>2018-06-24T14:42:56Z</time>
      </trkpt>
      <trkpt lat="40.237917" lon="-4.710817">
        <ele>1515.0</ele>
        <time>2018-06-24T14:42:57Z</time>
      </trkpt>
      <trkpt lat="40.237867" lon="-4.710667">
        <ele>1513.0</ele>
        <time>2018-06-24T14:42:58Z</time>
      </trkpt>
      <trkpt lat="40.237833" lon="-4.710533">
        <ele>1510.0</ele>
        <time>2018-06-24T14:42:59Z</time>
      </trkpt>
      <trkpt lat="40.237783" lon="-4.710400">
        <ele>1507.0</ele>
        <time>2018-06-24T14:43:00Z</time>
      </trkpt>
      <trkpt lat="40.237733" lon="-4.710250">
        <ele>1504.0</ele>
        <time>2018-06-24T14:43:01Z</time>
      </trkpt>
      <trkpt lat="40.237700" lon="-4.710100">
        <ele>1502.0</ele>
        <time>2018-06-24T14:43:02Z</time>
      </trkpt>
      <trkpt lat="40.237667" lon="-4.709950">
        <ele>1500.0</ele>
        <time>2018-06-24T14:43:03Z</time>
      </trkpt>
      <trkpt lat="40.237633" lon="-4.709833">
        <ele>1497.0</ele>
        <time>2018-06-24T14:43:04Z</time>
      </trkpt>
      <trkpt lat="40.237600" lon="-4.709700">
        <ele>1493.0</ele>
        <time>2018-06-24T14:43:05Z</time>
      </trkpt>
      <trkpt lat="40.237550" lon="-4.709567">
        <ele>1488.0</ele>
        <time>2018-06-24T14:43:06Z</time>
      </trkpt>
      <trkpt lat="40.237483" lon="-4.709433">
        <ele>1484.0</ele>
        <time>2018-06-24T14:43:07Z</time>
      </trkpt>
      <trkpt lat="40.237433" lon="-4.709283">
        <ele>1481.0</ele>
        <time>2018-06-24T14:43:08Z</time>
      </trkpt>
      <trkpt lat="40.237383" lon="-4.709150">
        <ele>1479.0</ele>
        <time>2018-06-24T14:43:09Z</time>
      </trkpt>
      <trkpt lat="40.237333" lon="-4.709017">
        <ele>1477.0</ele>
        <time>2018-06-24T14:43:10Z</time>
      </trkpt>
      <trkpt lat="40.237300" lon="-4.708883">
        <ele>1474.0</ele>
        <time>2018-06-24T14:43:11Z</time>
      </trkpt>
      <trkpt lat="40.237267" lon="-4.708733">
        <ele>1471.0</ele>
        <time>2018-06-24T14:43:12Z</time>
      </trkpt>
      <trkpt lat="40.237217" lon="-4.708600">
        <ele>1468.0</ele>
        <time>2018-06-24T14:43:13Z</time>
      </trkpt>
      <trkpt lat="40.237183" lon="-4.708450">
        <ele>1464.0</ele>
        <time>2018-06-24T14:43:14Z</time>
      </trkpt>
      <trkpt lat="40.237167" lon="-4.708300">
        <ele>1461.0</ele>
        <time>2018-06-24T14:43:15Z</time>
      </trkpt>
      <trkpt lat="40.237167" lon="-4.708133">
        <ele>1458.0</ele>
        <time>2018-06-24T14:43:16Z</time>
      </trkpt>
      <trkpt lat="40.237150" lon="-4.707933">
        <ele>1455.0</ele>
        <time>2018-06-24T14:43:17Z</time>
      </trkpt>
      <trkpt lat="40.237167" lon="-4.707817">
        <ele>1452.0</ele>
        <time>2018-06-24T14:43:18Z</time>
      </trkpt>
      <trkpt lat="40.237167" lon="-4.707650">
        <ele>1450.0</ele>
        <time>2018-06-24T14:43:19Z</time>
      </trkpt>
      <trkpt lat="40.237167" lon="-4.707500">
        <ele>1447.0</ele>
        <time>2018-06-24T14:43:20Z</time>
      </trkpt>
      <trkpt lat="40.237167" lon="-4.707333">
        <ele>1443.0</ele>
        <time>2018-06-24T14:43:21Z</time>
      </trkpt>
      <trkpt lat="40.237167" lon="-4.707183">
        <ele>1439.0</ele>
        <time>2018-06-24T14:43:22Z</time>
      </trkpt>
      <trkpt lat="40.237167" lon="-4.707017">
        <ele>1436.0</ele>
        <time>2018-06-24T14:43:23Z</time>
      </trkpt>
      <trkpt lat="40.237150" lon="-4.706850">
        <ele>1432.0</ele>
        <time>2018-06-24T14:43:24Z</time>
      </trkpt>
      <trkpt lat="40.237133" lon="-4.706700">
        <ele>1429.0</ele>
        <time>2018-06-24T14:43:25Z</time>
      </trkpt>
      <trkpt lat="40.237117" lon="-4.706550">
        <ele>1426.0</ele>
        <time>2018-06-24T14:43:26Z</time>
      </trkpt>
      <trkpt lat="40.237083" lon="-4.706417">
        <ele>1423.0</ele>
        <time>2018-06-24T14:43:27Z</time>
      </trkpt>
      <trkpt lat="40.237067" lon="-4.706283">
        <ele>1419.0</ele>
        <time>2018-06-24T14:43:28Z</time>
      </trkpt>
      <trkpt lat="40.237033" lon="-4.706150">
        <ele>1415.0</ele>
        <time>2018-06-24T14:43:29Z</time>
      </trkpt>
      <trkpt lat="40.237000" lon="-4.706000">
        <ele>1411.0</ele>
        <time>2018-06-24T14:43:30Z</time>
      </trkpt>
      <trkpt lat="40.236950" lon="-4.705850">
        <ele>1407.0</ele>
        <time>2018-06-24T14:43:31Z</time>
      </trkpt>
      <trkpt lat="40.236917" lon="-4.705717">
        <ele>1403.0</ele>
        <time>2018-06-24T14:43:32Z</time>
      </trkpt>
      <trkpt lat="40.236883" lon="-4.705567">
        <ele>1400.0</ele>
        <time>2018-06-24T14:43:33Z</time>
      </trkpt>
      <trkpt lat="40.236850" lon="-4.705433">
        <ele>1398.0</ele>
        <time>2018-06-24T14:43:34Z</time>
      </trkpt>
      <trkpt lat="40.236817" lon="-4.705317">
        <ele>1395.0</ele>
        <time>2018-06-24T14:43:35Z</time>
      </trkpt>
      <trkpt lat="40.236783" lon="-4.705183">
        <ele>1391.0</ele>
        <time>2018-06-24T14:43:36Z</time>
      </trkpt>
      <trkpt lat="40.236750" lon="-4.705050">
        <ele>1387.0</ele>
        <time>2018-06-24T14:43:37Z</time>
      </trkpt>
      <trkpt lat="40.236733" lon="-4.704900">
        <ele>1383.0</ele>
        <time>2018-06-24T14:43:38Z</time>
      </trkpt>
      <trkpt lat="40.236700" lon="-4.704733">
        <ele>1379.0</ele>
        <time>2018-06-24T14:43:39Z</time>
      </trkpt>
      <trkpt lat="40.236683" lon="-4.704567">
        <ele>1376.0</ele>
        <time>2018-06-24T14:43:40Z</time>
      </trkpt>
      <trkpt lat="40.236683" lon="-4.704417">
        <ele>1374.0</ele>
        <time>2018-06-24T14:43:41Z</time>
      </trkpt>
      <trkpt lat="40.236667" lon="-4.704283">
        <ele>1371.0</ele>
        <time>2018-06-24T14:43:42Z</time>
      </trkpt>
      <trkpt lat="40.236650" lon="-4.704150">
        <ele>1368.0</ele>
        <time>2018-06-24T14:43:43Z</time>
      </trkpt>
      <trkpt lat="40.236650" lon="-4.704017">
        <ele>1365.0</ele>
        <time>2018-06-24T14:43:44Z</time>
      </trkpt>
      <trkpt lat="40.236650" lon="-4.703850">
        <ele>1361.0</ele>
        <time>2018-06-24T14:43:45Z</time>
      </trkpt>
      <trkpt lat="40.236650" lon="-4.703700">
        <ele>1358.0</ele>
        <time>2018-06-24T14:43:46Z</time>
      </trkpt>
      <trkpt lat="40.236650" lon="-4.703550">
        <ele>1358.0</ele>
        <time>2018-06-24T14:43:47Z</time>
      </trkpt>
      <trkpt lat="40.236667" lon="-4.703417">
        <ele>1357.0</ele>
        <time>2018-06-24T14:43:48Z</time>
      </trkpt>
      <trkpt lat="40.236683" lon="-4.703300">
        <ele>1356.0</ele>
        <time>2018-06-24T14:43:49Z</time>
      </trkpt>
      <trkpt lat="40.236683" lon="-4.703183">
        <ele>1354.0</ele>
        <time>2018-06-24T14:43:50Z</time>
      </trkpt>
      <trkpt lat="40.236667" lon="-4.703067">
        <ele>1351.0</ele>
        <time>2018-06-24T14:43:51Z</time>
      </trkpt>
      <trkpt lat="40.236650" lon="-4.702950">
        <ele>1347.0</ele>
        <time>2018-06-24T14:43:52Z</time>
      </trkpt>
      <trkpt lat="40.236617" lon="-4.702817">
        <ele>1343.0</ele>
        <time>2018-06-24T14:43:53Z</time>
      </trkpt>
      <trkpt lat="40.236600" lon="-4.702683">
        <ele>1340.0</ele>
        <time>2018-06-24T14:43:54Z</time>
      </trkpt>
      <trkpt lat="40.236583" lon="-4.702550">
        <ele>1338.0</ele>
        <time>2018-06-24T14:43:55Z</time>
      </trkpt>
      <trkpt lat="40.236567" lon="-4.702433">
        <ele>1335.0</ele>
        <time>2018-06-24T14:43:56Z</time>
      </trkpt>
      <trkpt lat="40.236550" lon="-4.702300">
        <ele>1333.0</ele>
        <time>2018-06-24T14:43:57Z</time>
      </trkpt>
      <trkpt lat="40.236533" lon="-4.702183">
        <ele>1331.0</ele>
        <time>2018-06-24T14:43:58Z</time>
      </trkpt>
      <trkpt lat="40.236500" lon="-4.702067">
        <ele>1328.0</ele>
        <time>2018-06-24T14:43:59Z</time>
      </trkpt>
      <trkpt lat="40.236467" lon="-4.701933">
        <ele>1324.0</ele>
        <time>2018-06-24T14:44:00Z</time>
      </trkpt>
      <trkpt lat="40.236433" lon="-4.701800">
        <ele>1321.0</ele>
        <time>2018-06-24T14:44:01Z</time>
      </trkpt>
      <trkpt lat="40.236400" lon="-4.701683">
        <ele>1317.0</ele>
        <time>2018-06-24T14:44:02Z</time>
      </trkpt>
      <trkpt lat="40.236367" lon="-4.701567">
        <ele>1314.0</ele>
        <time>2018-06-24T14:44:03Z</time>
      </trkpt>
      <trkpt lat="40.236317" lon="-4.701433">
        <ele>1310.0</ele>
        <time>2018-06-24T14:44:04Z</time>
      </trkpt>
      <trkpt lat="40.236267" lon="-4.701317">
        <ele>1307.0</ele>
        <time>2018-06-24T14:44:05Z</time>
      </trkpt>
      <trkpt lat="40.236217" lon="-4.701200">
        <ele>1303.0</ele>
        <time>2018-06-24T14:44:06Z</time>
      </trkpt>
      <trkpt lat="40.236167" lon="-4.701067">
        <ele>1300.0</ele>
        <time>2018-06-24T14:44:07Z</time>
      </trkpt>
      <trkpt lat="40.236117" lon="-4.700950">
        <ele>1297.0</ele>
        <time>2018-06-24T14:44:08Z</time>
      </trkpt>
      <trkpt lat="40.236067" lon="-4.700817">
        <ele>1294.0</ele>
        <time>2018-06-24T14:44:09Z</time>
      </trkpt>
      <trkpt lat="40.236033" lon="-4.700700">
        <ele>1291.0</ele>
        <time>2018-06-24T14:44:10Z</time>
      </trkpt>
      <trkpt lat="40.236000" lon="-4.700583">
        <ele>1288.0</ele>
        <time>2018-06-24T14:44:11Z</time>
      </trkpt>
      <trkpt lat="40.235950" lon="-4.700467">
        <ele>1286.0</ele>
        <time>2018-06-24T14:44:12Z</time>
      </trkpt>
      <trkpt lat="40.235917" lon="-4.700333">
        <ele>1283.0</ele>
        <time>2018-06-24T14:44:13Z</time>
      </trkpt>
      <trkpt lat="40.235883" lon="-4.700217">
        <ele>1281.0</ele>
        <time>2018-06-24T14:44:14Z</time>
      </trkpt>
      <trkpt lat="40.235833" lon="-4.700100">
        <ele>1278.0</ele>
        <time>2018-06-24T14:44:15Z</time>
      </trkpt>
      <trkpt lat="40.235767" lon="-4.699983">
        <ele>1276.0</ele>
        <time>2018-06-24T14:44:16Z</time>
      </trkpt>
      <trkpt lat="40.235683" lon="-4.699883">
        <ele>1274.0</ele>
        <time>2018-06-24T14:44:17Z</time>
      </trkpt>
      <trkpt lat="40.235600" lon="-4.699800">
        <ele>1273.0</ele>
        <time>2018-06-24T14:44:18Z</time>
      </trkpt>
      <trkpt lat="40.235517" lon="-4.699717">
        <ele>1272.0</ele>
        <time>2018-06-24T14:44:19Z</time>
      </trkpt>
      <trkpt lat="40.235450" lon="-4.699633">
        <ele>1271.0</ele>
        <time>2018-06-24T14:44:20Z</time>
      </trkpt>
      <trkpt lat="40.235367" lon="-4.699550">
        <ele>1269.0</ele>
        <time>2018-06-24T14:44:21Z</time>
      </trkpt>
      <trkpt lat="40.235283" lon="-4.699483">
        <ele>1266.0</ele>
        <time>2018-06-24T14:44:22Z</time>
      </trkpt>
      <trkpt lat="40.235217" lon="-4.699383">
        <ele>1263.0</ele>
        <time>2018-06-24T14:44:23Z</time>
      </trkpt>
      <trkpt lat="40.235133" lon="-4.699283">
        <ele>1261.0</ele>
        <time>2018-06-24T14:44:24Z</time>
      </trkpt>
      <trkpt lat="40.235067" lon="-4.699167">
        <ele>1260.0</ele>
        <time>2018-06-24T14:44:25Z</time>
      </trkpt>
      <trkpt lat="40.235017" lon="-4.699067">
        <ele>1259.0</ele>
        <time>2018-06-24T14:44:26Z</time>
      </trkpt>
      <trkpt lat="40.234967" lon="-4.698950">
        <ele>1259.0</ele>
        <time>2018-06-24T14:44:27Z</time>
      </trkpt>
      <trkpt lat="40.234933" lon="-4.698833">
        <ele>1257.0</ele>
        <time>2018-06-24T14:44:28Z</time>
      </trkpt>
      <trkpt lat="40.234900" lon="-4.698717">
        <ele>1256.0</ele>
        <time>2018-06-24T14:44:29Z</time>
      </trkpt>
      <trkpt lat="40.234850" lon="-4.698600">
        <ele>1254.0</ele>
        <time>2018-06-24T14:44:30Z</time>
      </trkpt>
      <trkpt lat="40.234800" lon="-4.698483">
        <ele>1252.0</ele>
        <time>2018-06-24T14:44:31Z</time>
      </trkpt>
      <trkpt lat="40.234733" lon="-4.698383">
        <ele>1251.0</ele>
        <time>2018-06-24T14:44:32Z</time>
      </trkpt>
      <trkpt lat="40.234667" lon="-4.698283">
        <ele>1250.0</ele>
        <time>2018-06-24T14:44:33Z</time>
      </trkpt>
      <trkpt lat="40.234600" lon="-4.698183">
        <ele>1251.0</ele>
        <time>2018-06-24T14:44:34Z</time>
      </trkpt>
      <trkpt lat="40.234550" lon="-4.698067">
        <ele>1252.0</ele>
        <time>2018-06-24T14:44:35Z</time>
      </trkpt>
      <trkpt lat="40.234500" lon="-4.697933">
        <ele>1254.0</ele>
        <time>2018-06-24T14:44:36Z</time>
      </trkpt>
      <trkpt lat="40.234467" lon="-4.697800">
        <ele>1256.0</ele>
        <time>2018-06-24T14:44:37Z</time>
      </trkpt>
      <trkpt lat="40.234433" lon="-4.697667">
        <ele>1258.0</ele>
        <time>2018-06-24T14:44:38Z</time>
      </trkpt>
      <trkpt lat="40.234383" lon="-4.697567">
        <ele>1260.0</ele>
        <time>2018-06-24T14:44:39Z</time>
      </trkpt>
      <trkpt lat="40.234333" lon="-4.697483">
        <ele>1261.0</ele>
        <time>2018-06-24T14:44:40Z</time>
      </trkpt>
      <trkpt lat="40.234250" lon="-4.697433">
        <ele>1260.0</ele>
        <time>2018-06-24T14:44:41Z</time>
      </trkpt>
      <trkpt lat="40.234167" lon="-4.697450">
        <ele>1260.0</ele>
        <time>2018-06-24T14:44:42Z</time>
      </trkpt>
      <trkpt lat="40.234083" lon="-4.697500">
        <ele>1260.0</ele>
        <time>2018-06-24T14:44:43Z</time>
      </trkpt>
      <trkpt lat="40.234050" lon="-4.697600">
        <ele>1261.0</ele>
        <time>2018-06-24T14:44:44Z</time>
      </trkpt>
      <trkpt lat="40.234033" lon="-4.697733">
        <ele>1263.0</ele>
        <time>2018-06-24T14:44:45Z</time>
      </trkpt>
      <trkpt lat="40.234067" lon="-4.697833">
        <ele>1264.0</ele>
        <time>2018-06-24T14:44:46Z</time>
      </trkpt>
      <trkpt lat="40.234133" lon="-4.697933">
        <ele>1266.0</ele>
        <time>2018-06-24T14:44:47Z</time>
      </trkpt>
      <trkpt lat="40.234233" lon="-4.698000">
        <ele>1267.0</ele>
        <time>2018-06-24T14:44:48Z</time>
      </trkpt>
      <trkpt lat="40.234333" lon="-4.698017">
        <ele>1269.0</ele>
        <time>2018-06-24T14:44:49Z</time>
      </trkpt>
      <trkpt lat="40.234433" lon="-4.698000">
        <ele>1271.0</ele>
        <time>2018-06-24T14:44:50Z</time>
      </trkpt>
      <trkpt lat="40.234533" lon="-4.697983">
        <ele>1272.0</ele>
        <time>2018-06-24T14:44:51Z</time>
      </trkpt>
      <trkpt lat="40.234617" lon="-4.697950">
        <ele>1275.0</ele>
        <time>2018-06-24T14:44:52Z</time>
      </trkpt>
      <trkpt lat="40.234717" lon="-4.697917">
        <ele>1277.0</ele>
        <time>2018-06-24T14:44:53Z</time>
      </trkpt>
      <trkpt lat="40.234800" lon="-4.697833">
        <ele>1278.0</ele>
        <time>2018-06-24T14:44:54Z</time>
      </trkpt>
      <trkpt lat="40.234883" lon="-4.697750">
        <ele>1279.0</ele>
        <time>2018-06-24T14:44:55Z</time>
      </trkpt>
      <trkpt lat="40.234950" lon="-4.697633">
        <ele>1281.0</ele>
        <time>2018-06-24T14:44:56Z</time>
      </trkpt>
      <trkpt lat="40.235000" lon="-4.697500">
        <ele>1283.0</ele>
        <time>2018-06-24T14:44:57Z</time>
      </trkpt>
      <trkpt lat="40.235033" lon="-4.697383">
        <ele>1284.0</ele>
        <time>2018-06-24T14:44:58Z</time>
      </trkpt>
      <trkpt lat="40.235050" lon="-4.697267">
        <ele>1284.0</ele>
        <time>2018-06-24T14:44:59Z</time>
      </trkpt>
      <trkpt lat="40.235033" lon="-4.697150">
        <ele>1284.0</ele>
        <time>2018-06-24T14:45:00Z</time>
      </trkpt>
      <trkpt lat="40.234983" lon="-4.697033">
        <ele>1284.0</ele>
        <time>2018-06-24T14:45:01Z</time>
      </trkpt>
      <trkpt lat="40.234917" lon="-4.696933">
        <ele>1283.0</ele>
        <time>2018-06-24T14:45:02Z</time>
      </trkpt>
      <trkpt lat="40.234817" lon="-4.696883">
        <ele>1283.0</ele>
        <time>2018-06-24T14:45:03Z</time>
      </trkpt>
      <trkpt lat="40.234733" lon="-4.696850">
        <ele>1284.0</ele>
        <time>2018-06-24T14:45:04Z</time>
      </trkpt>
      <trkpt lat="40.234650" lon="-4.696867">
        <ele>1285.0</ele>
        <time>2018-06-24T14:45:05Z</time>
      </trkpt>
      <trkpt lat="40.234583" lon="-4.696900">
        <ele>1286.0</ele>
        <time>2018-06-24T14:45:06Z</time>
      </trkpt>
      <trkpt lat="40.234517" lon="-4.696933">
        <ele>1286.0</ele>
        <time>2018-06-24T14:45:07Z</time>
      </trkpt>
      <trkpt lat="40.234450" lon="-4.696983">
        <ele>1287.0</ele>
        <time>2018-06-24T14:45:08Z</time>
      </trkpt>
      <trkpt lat="40.234383" lon="-4.697033">
        <ele>1289.0</ele>
        <time>2018-06-24T14:45:09Z</time>
      </trkpt>
      <trkpt lat="40.234317" lon="-4.697083">
        <ele>1290.0</ele>
        <time>2018-06-24T14:45:10Z</time>
      </trkpt>
      <trkpt lat="40.234267" lon="-4.697133">
        <ele>1292.0</ele>
        <time>2018-06-24T14:45:11Z</time>
      </trkpt>
      <trkpt lat="40.234200" lon="-4.697217">
        <ele>1294.0</ele>
        <time>2018-06-24T14:45:12Z</time>
      </trkpt>
      <trkpt lat="40.234167" lon="-4.697300">
        <ele>1295.0</ele>
        <time>2018-06-24T14:45:13Z</time>
      </trkpt>
      <trkpt lat="40.234150" lon="-4.697417">
        <ele>1296.0</ele>
        <time>2018-06-24T14:45:14Z</time>
      </trkpt>
      <trkpt lat="40.234167" lon="-4.697533">
        <ele>1296.0</ele>
        <time>2018-06-24T14:45:15Z</time>
      </trkpt>
      <trkpt lat="40.234217" lon="-4.697633">
        <ele>1297.0</ele>
        <time>2018-06-24T14:45:16Z</time>
      </trkpt>
      <trkpt lat="40.234300" lon="-4.697717">
        <ele>1297.0</ele>
        <time>2018-06-24T14:45:17Z</time>
      </trkpt>
      <trkpt lat="40.234400" lon="-4.697767">
        <ele>1298.0</ele>
        <time>2018-06-24T14:45:18Z</time>
      </trkpt>
      <trkpt lat="40.234500" lon="-4.697783">
        <ele>1300.0</ele>
        <time>2018-06-24T14:45:19Z</time>
      </trkpt>
      <trkpt lat="40.234617" lon="-4.697767">
        <ele>1302.0</ele>
        <time>2018-06-24T14:45:20Z</time>
      </trkpt>
      <trkpt lat="40.234700" lon="-4.697700">
        <ele>1303.0</ele>
        <time>2018-06-24T14:45:21Z</time>
      </trkpt>
      <trkpt lat="40.234783" lon="-4.697617">
        <ele>1304.0</ele>
        <time>2018-06-24T14:45:22Z</time>
      </trkpt>
      <trkpt lat="40.234833" lon="-4.697500">
        <ele>1306.0</ele>
        <time>2018-06-24T14:45:23Z</time>
      </trkpt>
      <trkpt lat="40.234867" lon="-4.697383">
        <ele>1307.0</ele>
        <time>2018-06-24T14:45:24Z</time>
      </trkpt>
      <trkpt lat="40.234883" lon="-4.697267">
        <ele>1308.0</ele>
        <time>2018-06-24T14:45:25Z</time>
      </trkpt>
      <trkpt lat="40.234867" lon="-4.697150">
        <ele>1307.0</ele>
        <time>2018-06-24T14:45:26Z</time>
      </trkpt>
      <trkpt lat="40.234833" lon="-4.697033">
        <ele>1307.0</ele>
        <time>2018-06-24T14:45:27Z</time>
      </trkpt>
      <trkpt lat="40.234767" lon="-4.696917">
        <ele>1306.0</ele>
        <time>2018-06-24T14:45:28Z</time>
      </trkpt>
      <trkpt lat="40.234683" lon="-4.696833">
        <ele>1306.0</ele>
        <time>2018-06-24T14:45:29Z</time>
      </trkpt>
      <trkpt lat="40.234600" lon="-4.696767">
        <ele>1307.0</ele>
        <time>2018-06-24T14:45:30Z</time>
      </trkpt>
      <trkpt lat="40.234517" lon="-4.696717">
        <ele>1309.0</ele>
        <time>2018-06-24T14:45:31Z</time>
      </trkpt>
      <trkpt lat="40.234433" lon="-4.696700">
        <ele>1312.0</ele>
        <time>2018-06-24T14:45:32Z</time>
      </trkpt>
      <trkpt lat="40.234350" lon="-4.696667">
        <ele>1313.0</ele>
        <time>2018-06-24T14:45:33Z</time>
      </trkpt>
      <trkpt lat="40.234283" lon="-4.696650">
        <ele>1315.0</ele>
        <time>2018-06-24T14:45:34Z</time>
      </trkpt>
      <trkpt lat="40.234217" lon="-4.696617">
        <ele>1316.0</ele>
        <time>2018-06-24T14:45:35Z</time>
      </trkpt>
      <trkpt lat="40.234150" lon="-4.696617">
        <ele>1317.0</ele>
        <time>2018-06-24T14:45:36Z</time>
      </trkpt>
      <trkpt lat="40.234067" lon="-4.696683">
        <ele>1317.0</ele>
        <time>2018-06-24T14:45:37Z</time>
      </trkpt>
      <trkpt lat="40.234017" lon="-4.696783">
        <ele>1317.0</ele>
        <time>2018-06-24T14:45:38Z</time>
      </trkpt>
      <trkpt lat="40.233983" lon="-4.696900">
        <ele>1317.0</ele>
        <time>2018-06-24T14:45:39Z</time>
      </trkpt>
      <trkpt lat="40.234000" lon="-4.697050">
        <ele>1319.0</ele>
        <time>2018-06-24T14:45:40Z</time>
      </trkpt>
      <trkpt lat="40.234050" lon="-4.697150">
        <ele>1321.0</ele>
        <time>2018-06-24T14:45:41Z</time>
      </trkpt>
      <trkpt lat="40.234117" lon="-4.697233">
        <ele>1323.0</ele>
        <time>2018-06-24T14:45:42Z</time>
      </trkpt>
      <trkpt lat="40.234200" lon="-4.697300">
        <ele>1325.0</ele>
        <time>2018-06-24T14:45:43Z</time>
      </trkpt>
      <trkpt lat="40.234283" lon="-4.697333">
        <ele>1326.0</ele>
        <time>2018-06-24T14:45:44Z</time>
      </trkpt>
      <trkpt lat="40.234383" lon="-4.697350">
        <ele>1326.0</ele>
        <time>2018-06-24T14:45:45Z</time>
      </trkpt>
      <trkpt lat="40.234500" lon="-4.697350">
        <ele>1325.0</ele>
        <time>2018-06-24T14:45:46Z</time>
      </trkpt>
      <trkpt lat="40.234600" lon="-4.697300">
        <ele>1325.0</ele>
        <time>2018-06-24T14:45:47Z</time>
      </trkpt>
      <trkpt lat="40.234700" lon="-4.697217">
        <ele>1326.0</ele>
        <time>2018-06-24T14:45:48Z</time>
      </trkpt>
      <trkpt lat="40.234767" lon="-4.697100">
        <ele>1328.0</ele>
        <time>2018-06-24T14:45:49Z</time>
      </trkpt>
      <trkpt lat="40.234817" lon="-4.696967">
        <ele>1330.0</ele>
        <time>2018-06-24T14:45:50Z</time>
      </trkpt>
      <trkpt lat="40.234833" lon="-4.696850">
        <ele>1332.0</ele>
        <time>2018-06-24T14:45:51Z</time>
      </trkpt>
      <trkpt lat="40.234817" lon="-4.696717">
        <ele>1334.0</ele>
        <time>2018-06-24T14:45:52Z</time>
      </trkpt>
      <trkpt lat="40.234783" lon="-4.696600">
        <ele>1335.0</ele>
        <time>2018-06-24T14:45:53Z</time>
      </trkpt>
      <trkpt lat="40.234733" lon="-4.696483">
        <ele>1335.0</ele>
        <time>2018-06-24T14:45:54Z</time>
      </trkpt>
      <trkpt lat="40.234650" lon="-4.696383">
        <ele>1336.0</ele>
        <time>2018-06-24T14:45:55Z</time>
      </trkpt>
      <trkpt lat="40.234567" lon="-4.696317">
        <ele>1336.0</ele>
        <time>2018-06-24T14:45:56Z</time>
      </trkpt>
      <trkpt lat="40.234483" lon="-4.696283">
        <ele>1335.0</ele>
        <time>2018-06-24T14:45:57Z</time>
      </trkpt>
      <trkpt lat="40.234383" lon="-4.696267">
        <ele>1336.0</ele>
        <time>2018-06-24T14:45:58Z</time>
      </trkpt>
      <trkpt lat="40.234283" lon="-4.696267">
        <ele>1338.0</ele>
        <time>2018-06-24T14:45:59Z</time>
      </trkpt>
      <trkpt lat="40.234200" lon="-4.696283">
        <ele>1340.0</ele>
        <time>2018-06-24T14:46:00Z</time>
      </trkpt>
      <trkpt lat="40.234133" lon="-4.696283">
        <ele>1340.0</ele>
        <time>2018-06-24T14:46:01Z</time>
      </trkpt>
      <trkpt lat="40.234067" lon="-4.696283">
        <ele>1341.0</ele>
        <time>2018-06-24T14:46:02Z</time>
      </trkpt>
      <trkpt lat="40.233983" lon="-4.696267">
        <ele>1341.0</ele>
        <time>2018-06-24T14:46:03Z</time>
      </trkpt>
      <trkpt lat="40.233900" lon="-4.696233">
        <ele>1340.0</ele>
        <time>2018-06-24T14:46:04Z</time>
      </trkpt>
      <trkpt lat="40.233817" lon="-4.696167">
        <ele>1341.0</ele>
        <time>2018-06-24T14:46:05Z</time>
      </trkpt>
      <trkpt lat="40.233733" lon="-4.696133">
        <ele>1343.0</ele>
        <time>2018-06-24T14:46:06Z</time>
      </trkpt>
      <trkpt lat="40.233667" lon="-4.696100">
        <ele>1346.0</ele>
        <time>2018-06-24T14:46:07Z</time>
      </trkpt>
      <trkpt lat="40.233600" lon="-4.696100">
        <ele>1347.0</ele>
        <time>2018-06-24T14:46:08Z</time>
      </trkpt>
      <trkpt lat="40.233533" lon="-4.696100">
        <ele>1348.0</ele>
        <time>2018-06-24T14:46:09Z</time>
      </trkpt>
      <trkpt lat="40.233467" lon="-4.696133">
        <ele>1349.0</ele>
        <time>2018-06-24T14:46:10Z</time>
      </trkpt>
      <trkpt lat="40.233417" lon="-4.696167">
        <ele>1349.0</ele>
        <time>2018-06-24T14:46:11Z</time>
      </trkpt>
      <trkpt lat="40.233367" lon="-4.696233">
        <ele>1350.0</ele>
        <time>2018-06-24T14:46:12Z</time>
      </trkpt>
      <trkpt lat="40.233367" lon="-4.696333">
        <ele>1351.0</ele>
        <time>2018-06-24T14:46:13Z</time>
      </trkpt>
      <trkpt lat="40.233367" lon="-4.696417">
        <ele>1353.0</ele>
        <time>2018-06-24T14:46:14Z</time>
      </trkpt>
      <trkpt lat="40.233417" lon="-4.696483">
        <ele>1353.0</ele>
        <time>2018-06-24T14:46:15Z</time>
      </trkpt>
      <trkpt lat="40.233500" lon="-4.696533">
        <ele>1353.0</ele>
        <time>2018-06-24T14:46:16Z</time>
      </trkpt>
      <trkpt lat="40.233583" lon="-4.696550">
        <ele>1353.0</ele>
        <time>2018-06-24T14:46:17Z</time>
      </trkpt>
      <trkpt lat="40.233683" lon="-4.696550">
        <ele>1353.0</ele>
        <time>2018-06-24T14:46:18Z</time>
      </trkpt>
      <trkpt lat="40.233783" lon="-4.696517">
        <ele>1353.0</ele>
        <time>2018-06-24T14:46:19Z</time>
      </trkpt>
      <trkpt lat="40.233883" lon="-4.696467">
        <ele>1354.0</ele>
        <time>2018-06-24T14:46:20Z</time>
      </trkpt>
      <trkpt lat="40.233983" lon="-4.696400">
        <ele>1354.0</ele>
        <time>2018-06-24T14:46:21Z</time>
      </trkpt>
      <trkpt lat="40.234067" lon="-4.696300">
        <ele>1354.0</ele>
        <time>2018-06-24T14:46:22Z</time>
      </trkpt>
      <trkpt lat="40.234133" lon="-4.696183">
        <ele>1355.0</ele>
        <time>2018-06-24T14:46:23Z</time>
      </trkpt>
      <trkpt lat="40.234167" lon="-4.696067">
        <ele>1356.0</ele>
        <time>2018-06-24T14:46:24Z</time>
      </trkpt>
      <trkpt lat="40.234167" lon="-4.695950">
        <ele>1357.0</ele>
        <time>2018-06-24T14:46:25Z</time>
      </trkpt>
      <trkpt lat="40.234133" lon="-4.695833">
        <ele>1357.0</ele>
        <time>2018-06-24T14:46:26Z</time>
      </trkpt>
      <trkpt lat="40.234083" lon="-4.695733">
        <ele>1358.0</ele>
        <time>2018-06-24T14:46:27Z</time>
      </trkpt>
      <trkpt lat="40.234033" lon="-4.695650">
        <ele>1358.0</ele>
        <time>2018-06-24T14:46:28Z</time>
      </trkpt>
      <trkpt lat="40.233967" lon="-4.695550">
        <ele>1358.0</ele>
        <time>2018-06-24T14:46:29Z</time>
      </trkpt>
      <trkpt lat="40.233900" lon="-4.695467">
        <ele>1358.0</ele>
        <time>2018-06-24T14:46:30Z</time>
      </trkpt>
      <trkpt lat="40.233817" lon="-4.695383">
        <ele>1358.0</ele>
        <time>2018-06-24T14:46:31Z</time>
      </trkpt>
      <trkpt lat="40.233733" lon="-4.695300">
        <ele>1358.0</ele>
        <time>2018-06-24T14:46:32Z</time>
      </trkpt>
      <trkpt lat="40.233650" lon="-4.695217">
        <ele>1358.0</ele>
        <time>2018-06-24T14:46:33Z</time>
      </trkpt>
      <trkpt lat="40.233583" lon="-4.695150">
        <ele>1358.0</ele>
        <time>2018-06-24T14:46:34Z</time>
      </trkpt>
      <trkpt lat="40.233500" lon="-4.695100">
        <ele>1358.0</ele>
        <time>2018-06-24T14:46:35Z</time>
      </trkpt>
      <trkpt lat="40.233400" lon="-4.695067">
        <ele>1358.0</ele>
        <time>2018-06-24T14:46:36Z</time>
      </trkpt>
      <trkpt lat="40.233300" lon="-4.695033">
        <ele>1359.0</ele>
        <time>2018-06-24T14:46:37Z</time>
      </trkpt>
      <trkpt lat="40.233200" lon="-4.695000">
        <ele>1361.0</ele>
        <time>2018-06-24T14:46:38Z</time>
      </trkpt>
      <trkpt lat="40.233100" lon="-4.694967">
        <ele>1363.0</ele>
        <time>2018-06-24T14:46:39Z</time>
      </trkpt>
      <trkpt lat="40.233017" lon="-4.694933">
        <ele>1365.0</ele>
        <time>2018-06-24T14:46:40Z</time>
      </trkpt>
      <trkpt lat="40.232933" lon="-4.694917">
        <ele>1368.0</ele>
        <time>2018-06-24T14:46:41Z</time>
      </trkpt>
      <trkpt lat="40.232850" lon="-4.694900">
        <ele>1370.0</ele>
        <time>2018-06-24T14:46:42Z</time>
      </trkpt>
      <trkpt lat="40.232767" lon="-4.694867">
        <ele>1371.0</ele>
        <time>2018-06-24T14:46:43Z</time>
      </trkpt>
      <trkpt lat="40.232683" lon="-4.694867">
        <ele>1371.0</ele>
        <time>2018-06-24T14:46:44Z</time>
      </trkpt>
      <trkpt lat="40.232583" lon="-4.694900">
        <ele>1371.0</ele>
        <time>2018-06-24T14:46:45Z</time>
      </trkpt>
      <trkpt lat="40.232517" lon="-4.694983">
        <ele>1371.0</ele>
        <time>2018-06-24T14:46:46Z</time>
      </trkpt>
      <trkpt lat="40.232467" lon="-4.695100">
        <ele>1371.0</ele>
        <time>2018-06-24T14:46:47Z</time>
      </trkpt>
      <trkpt lat="40.232483" lon="-4.695233">
        <ele>1372.0</ele>
        <time>2018-06-24T14:46:48Z</time>
      </trkpt>
      <trkpt lat="40.232517" lon="-4.695350">
        <ele>1373.0</ele>
        <time>2018-06-24T14:46:49Z</time>
      </trkpt>
      <trkpt lat="40.232567" lon="-4.695467">
        <ele>1374.0</ele>
        <time>2018-06-24T14:46:50Z</time>
      </trkpt>
      <trkpt lat="40.232633" lon="-4.695533">
        <ele>1375.0</ele>
        <time>2018-06-24T14:46:51Z</time>
      </trkpt>
      <trkpt lat="40.232733" lon="-4.695583">
        <ele>1374.0</ele>
        <time>2018-06-24T14:46:52Z</time>
      </trkpt>
      <trkpt lat="40.232850" lon="-4.695583">
        <ele>1373.0</ele>
        <time>2018-06-24T14:46:53Z</time>
      </trkpt>
      <trkpt lat="40.232967" lon="-4.695567">
        <ele>1373.0</ele>
        <time>2018-06-24T14:46:54Z</time>
      </trkpt>
      <trkpt lat="40.233067" lon="-4.695500">
        <ele>1373.0</ele>
        <time>2018-06-24T14:46:55Z</time>
      </trkpt>
      <trkpt lat="40.233167" lon="-4.695400">
        <ele>1373.0</ele>
        <time>2018-06-24T14:46:56Z</time>
      </trkpt>
      <trkpt lat="40.233233" lon="-4.695283">
        <ele>1375.0</ele>
        <time>2018-06-24T14:46:57Z</time>
      </trkpt>
      <trkpt lat="40.233283" lon="-4.695150">
        <ele>1376.0</ele>
        <time>2018-06-24T14:46:58Z</time>
      </trkpt>
      <trkpt lat="40.233317" lon="-4.695017">
        <ele>1378.0</ele>
        <time>2018-06-24T14:46:59Z</time>
      </trkpt>
      <trkpt lat="40.233333" lon="-4.694883">
        <ele>1380.0</ele>
        <time>2018-06-24T14:47:00Z</time>
      </trkpt>
      <trkpt lat="40.233317" lon="-4.694733">
        <ele>1382.0</ele>
        <time>2018-06-24T14:47:01Z</time>
      </trkpt>
      <trkpt lat="40.233283" lon="-4.694583">
        <ele>1384.0</ele>
        <time>2018-06-24T14:47:02Z</time>
      </trkpt>
      <trkpt lat="40.233233" lon="-4.694450">
        <ele>1385.0</ele>
        <time>2018-06-24T14:47:03Z</time>
      </trkpt>
      <trkpt lat="40.233167" lon="-4.694350">
        <ele>1386.0</ele>
        <time>2018-06-24T14:47:04Z</time>
      </trkpt>
      <trkpt lat="40.233083" lon="-4.694250">
        <ele>1385.0</ele>
        <time>2018-06-24T14:47:05Z</time>
      </trkpt>
      <trkpt lat="40.233000" lon="-4.694183">
        <ele>1384.0</ele>
        <time>2018-06-24T14:47:06Z</time>
      </trkpt>
      <trkpt lat="40.232883" lon="-4.694150">
        <ele>1384.0</ele>
        <time>2018-06-24T14:47:07Z</time>
      </trkpt>
      <trkpt lat="40.232750" lon="-4.694150">
        <ele>1384.0</ele>
        <time>2018-06-24T14:47:08Z</time>
      </trkpt>
      <trkpt lat="40.232650" lon="-4.694167">
        <ele>1386.0</ele>
        <time>2018-06-24T14:47:09Z</time>
      </trkpt>
      <trkpt lat="40.232550" lon="-4.694200">
        <ele>1388.0</ele>
        <time>2018-06-24T14:47:10Z</time>
      </trkpt>
      <trkpt lat="40.232467" lon="-4.694233">
        <ele>1389.0</ele>
        <time>2018-06-24T14:47:11Z</time>
      </trkpt>
      <trkpt lat="40.232400" lon="-4.694267">
        <ele>1390.0</ele>
        <time>2018-06-24T14:47:12Z</time>
      </trkpt>
      <trkpt lat="40.232350" lon="-4.694333">
        <ele>1390.0</ele>
        <time>2018-06-24T14:47:13Z</time>
      </trkpt>
      <trkpt lat="40.232300" lon="-4.694417">
        <ele>1389.0</ele>
        <time>2018-06-24T14:47:14Z</time>
      </trkpt>
      <trkpt lat="40.232267" lon="-4.694517">
        <ele>1388.0</ele>
        <time>2018-06-24T14:47:15Z</time>
      </trkpt>
      <trkpt lat="40.232267" lon="-4.694650">
        <ele>1388.0</ele>
        <time>2018-06-24T14:47:16Z</time>
      </trkpt>
      <trkpt lat="40.232283" lon="-4.694750">
        <ele>1388.0</ele>
        <time>2018-06-24T14:47:17Z</time>
      </trkpt>
      <trkpt lat="40.232333" lon="-4.694833">
        <ele>1387.0</ele>
        <time>2018-06-24T14:47:18Z</time>
      </trkpt>
      <trkpt lat="40.232417" lon="-4.694900">
        <ele>1387.0</ele>
        <time>2018-06-24T14:47:19Z</time>
      </trkpt>
      <trkpt lat="40.232500" lon="-4.694933">
        <ele>1386.0</ele>
        <time>2018-06-24T14:47:20Z</time>
      </trkpt>
      <trkpt lat="40.232600" lon="-4.694933">
        <ele>1385.0</ele>
        <time>2018-06-24T14:47:21Z</time>
      </trkpt>
      <trkpt lat="40.232700" lon="-4.694883">
        <ele>1384.0</ele>
        <time>2018-06-24T14:47:22Z</time>
      </trkpt>
      <trkpt lat="40.232800" lon="-4.694800">
        <ele>1384.0</ele>
        <time>2018-06-24T14:47:23Z</time>
      </trkpt>
      <trkpt lat="40.232850" lon="-4.694683">
        <ele>1384.0</ele>
        <time>2018-06-24T14:47:24Z</time>
      </trkpt>
      <trkpt lat="40.232883" lon="-4.694550">
        <ele>1385.0</ele>
        <time>2018-06-24T14:47:25Z</time>
      </trkpt>
      <trkpt lat="40.232883" lon="-4.694433">
        <ele>1386.0</ele>
        <time>2018-06-24T14:47:26Z</time>
      </trkpt>
      <trkpt lat="40.232850" lon="-4.694317">
        <ele>1386.0</ele>
        <time>2018-06-24T14:47:27Z</time>
      </trkpt>
      <trkpt lat="40.232817" lon="-4.694217">
        <ele>1386.0</ele>
        <time>2018-06-24T14:47:28Z</time>
      </trkpt>
      <trkpt lat="40.232750" lon="-4.694117">
        <ele>1386.0</ele>
        <time>2018-06-24T14:47:29Z</time>
      </trkpt>
      <trkpt lat="40.232683" lon="-4.694017">
        <ele>1386.0</ele>
        <time>2018-06-24T14:47:30Z</time>
      </trkpt>
      <trkpt lat="40.232617" lon="-4.693950">
        <ele>1386.0</ele>
        <time>2018-06-24T14:47:31Z</time>
      </trkpt>
      <trkpt lat="40.232533" lon="-4.693900">
        <ele>1387.0</ele>
        <time>2018-06-24T14:47:32Z</time>
      </trkpt>
      <trkpt lat="40.232467" lon="-4.693867">
        <ele>1387.0</ele>
        <time>2018-06-24T14:47:33Z</time>
      </trkpt>
      <trkpt lat="40.232417" lon="-4.693850">
        <ele>1387.0</ele>
        <time>2018-06-24T14:47:34Z</time>
      </trkpt>
      <trkpt lat="40.232350" lon="-4.693833">
        <ele>1385.0</ele>
        <time>2018-06-24T14:47:35Z</time>
      </trkpt>
      <trkpt lat="40.232267" lon="-4.693800">
        <ele>1384.0</ele>
        <time>2018-06-24T14:47:36Z</time>
      </trkpt>
      <trkpt lat="40.232183" lon="-4.693783">
        <ele>1382.0</ele>
        <time>2018-06-24T14:47:37Z</time>
      </trkpt>
      <trkpt lat="40.232100" lon="-4.693800">
        <ele>1381.0</ele>
        <time>2018-06-24T14:47:38Z</time>
      </trkpt>
      <trkpt lat="40.232017" lon="-4.693850">
        <ele>1381.0</ele>
        <time>2018-06-24T14:47:39Z</time>
      </trkpt>
      <trkpt lat="40.231950" lon="-4.693933">
        <ele>1380.0</ele>
        <time>2018-06-24T14:47:40Z</time>
      </trkpt>
      <trkpt lat="40.231917" lon="-4.694017">
        <ele>1380.0</ele>
        <time>2018-06-24T14:47:41Z</time>
      </trkpt>
      <trkpt lat="40.231883" lon="-4.694100">
        <ele>1379.0</ele>
        <time>2018-06-24T14:47:42Z</time>
      </trkpt>
      <trkpt lat="40.231883" lon="-4.694200">
        <ele>1378.0</ele>
        <time>2018-06-24T14:47:43Z</time>
      </trkpt>
      <trkpt lat="40.231900" lon="-4.694300">
        <ele>1376.0</ele>
        <time>2018-06-24T14:47:44Z</time>
      </trkpt>
      <trkpt lat="40.231950" lon="-4.694400">
        <ele>1374.0</ele>
        <time>2018-06-24T14:47:45Z</time>
      </trkpt>
      <trkpt lat="40.232017" lon="-4.694483">
        <ele>1373.0</ele>
        <time>2018-06-24T14:47:46Z</time>
      </trkpt>
      <trkpt lat="40.232100" lon="-4.694533">
        <ele>1372.0</ele>
        <time>2018-06-24T14:47:47Z</time>
      </trkpt>
      <trkpt lat="40.232183" lon="-4.694550">
        <ele>1371.0</ele>
        <time>2018-06-24T14:47:48Z</time>
      </trkpt>
      <trkpt lat="40.232283" lon="-4.694550">
        <ele>1369.0</ele>
        <time>2018-06-24T14:47:49Z</time>
      </trkpt>
      <trkpt lat="40.232383" lon="-4.694533">
        <ele>1367.0</ele>
        <time>2018-06-24T14:47:50Z</time>
      </trkpt>
      <trkpt lat="40.232500" lon="-4.694483">
        <ele>1365.0</ele>
        <time>2018-06-24T14:47:51Z</time>
      </trkpt>
      <trkpt lat="40.232600" lon="-4.694417">
        <ele>1363.0</ele>
        <time>2018-06-24T14:47:52Z</time>
      </trkpt>
      <trkpt lat="40.232717" lon="-4.694333">
        <ele>1363.0</ele>
        <time>2018-06-24T14:47:53Z</time>
      </trkpt>
      <trkpt lat="40.232817" lon="-4.694267">
        <ele>1363.0</ele>
        <time>2018-06-24T14:47:54Z</time>
      </trkpt>
      <trkpt lat="40.232917" lon="-4.694200">
        <ele>1363.0</ele>
        <time>2018-06-24T14:47:55Z</time>
      </trkpt>
      <trkpt lat="40.233000" lon="-4.694133">
        <ele>1363.0</ele>
        <time>2018-06-24T14:47:56Z</time>
      </trkpt>
      <trkpt lat="40.233083" lon="-4.694067">
        <ele>1362.0</ele>
        <time>2018-06-24T14:47:57Z</time>
      </trkpt>
      <trkpt lat="40.233167" lon="-4.693967">
        <ele>1361.0</ele>
        <time>2018-06-24T14:47:58Z</time>
      </trkpt>
      <trkpt lat="40.233233" lon="-4.693850">
        <ele>1361.0</ele>
        <time>2018-06-24T14:47:59Z</time>
      </trkpt>
      <trkpt lat="40.233283" lon="-4.693717">
        <ele>1361.0</ele>
        <time>2018-06-24T14:48:00Z</time>
      </trkpt>
      <trkpt lat="40.233333" lon="-4.693600">
        <ele>1361.0</ele>
        <time>2018-06-24T14:48:01Z</time>
      </trkpt>
      <trkpt lat="40.233383" lon="-4.693483">
        <ele>1362.0</ele>
        <time>2018-06-24T14:48:02Z</time>
      </trkpt>
      <trkpt lat="40.233433" lon="-4.693350">
        <ele>1362.0</ele>
        <time>2018-06-24T14:48:03Z</time>
      </trkpt>
      <trkpt lat="40.233450" lon="-4.693217">
        <ele>1362.0</ele>
        <time>2018-06-24T14:48:04Z</time>
      </trkpt>
      <trkpt lat="40.233467" lon="-4.693083">
        <ele>1361.0</ele>
        <time>2018-06-24T14:48:05Z</time>
      </trkpt>
      <trkpt lat="40.233450" lon="-4.692950">
        <ele>1362.0</ele>
        <time>2018-06-24T14:48:06Z</time>
      </trkpt>
      <trkpt lat="40.233433" lon="-4.692833">
        <ele>1362.0</ele>
        <time>2018-06-24T14:48:07Z</time>
      </trkpt>
      <trkpt lat="40.233383" lon="-4.692717">
        <ele>1363.0</ele>
        <time>2018-06-24T14:48:08Z</time>
      </trkpt>
      <trkpt lat="40.233317" lon="-4.692600">
        <ele>1365.0</ele>
        <time>2018-06-24T14:48:09Z</time>
      </trkpt>
      <trkpt lat="40.233250" lon="-4.692500">
        <ele>1367.0</ele>
        <time>2018-06-24T14:48:10Z</time>
      </trkpt>
      <trkpt lat="40.233200" lon="-4.692417">
        <ele>1370.0</ele>
        <time>2018-06-24T14:48:11Z</time>
      </trkpt>
      <trkpt lat="40.233150" lon="-4.692350">
        <ele>1373.0</ele>
        <time>2018-06-24T14:48:12Z</time>
      </trkpt>
      <trkpt lat="40.233083" lon="-4.692283">
        <ele>1374.0</ele>
        <time>2018-06-24T14:48:13Z</time>
      </trkpt>
      <trkpt lat="40.233017" lon="-4.692217">
        <ele>1374.0</ele>
        <time>2018-06-24T14:48:14Z</time>
      </trkpt>
      <trkpt lat="40.232933" lon="-4.692167">
        <ele>1375.0</ele>
        <time>2018-06-24T14:48:15Z</time>
      </trkpt>
      <trkpt lat="40.232850" lon="-4.692133">
        <ele>1376.0</ele>
        <time>2018-06-24T14:48:16Z</time>
      </trkpt>
      <trkpt lat="40.232783" lon="-4.692100">
        <ele>1377.0</ele>
        <time>2018-06-24T14:48:17Z</time>
      </trkpt>
      <trkpt lat="40.232700" lon="-4.692067">
        <ele>1379.0</ele>
        <time>2018-06-24T14:48:18Z</time>
      </trkpt>
      <trkpt lat="40.232617" lon="-4.692033">
        <ele>1381.0</ele>
        <time>2018-06-24T14:48:19Z</time>
      </trkpt>
      <trkpt lat="40.232517" lon="-4.691967">
        <ele>1383.0</ele>
        <time>2018-06-24T14:48:20Z</time>
      </trkpt>
      <trkpt lat="40.232433" lon="-4.691917">
        <ele>1384.0</ele>
        <time>2018-06-24T14:48:21Z</time>
      </trkpt>
      <trkpt lat="40.232367" lon="-4.691867">
        <ele>1385.0</ele>
        <time>2018-06-24T14:48:22Z</time>
      </trkpt>
      <trkpt lat="40.232267" lon="-4.691817">
        <ele>1386.0</ele>
        <time>2018-06-24T14:48:23Z</time>
      </trkpt>
      <trkpt lat="40.232183" lon="-4.691750">
        <ele>1387.0</ele>
        <time>2018-06-24T14:48:24Z</time>
      </trkpt>
      <trkpt lat="40.232100" lon="-4.691667">
        <ele>1388.0</ele>
        <time>2018-06-24T14:48:25Z</time>
      </trkpt>
      <trkpt lat="40.232033" lon="-4.691567">
        <ele>1390.0</ele>
        <time>2018-06-24T14:48:26Z</time>
      </trkpt>
      <trkpt lat="40.231967" lon="-4.691450">
        <ele>1392.0</ele>
        <time>2018-06-24T14:48:27Z</time>
      </trkpt>
      <trkpt lat="40.231917" lon="-4.691333">
        <ele>1395.0</ele>
        <time>2018-06-24T14:48:28Z</time>
      </trkpt>
      <trkpt lat="40.231850" lon="-4.691233">
        <ele>1397.0</ele>
        <time>2018-06-24T14:48:29Z</time>
      </trkpt>
      <trkpt lat="40.231817" lon="-4.691117">
        <ele>1400.0</ele>
        <time>2018-06-24T14:48:30Z</time>
      </trkpt>
      <trkpt lat="40.231783" lon="-4.691000">
        <ele>1402.0</ele>
        <time>2018-06-24T14:48:31Z</time>
      </trkpt>
      <trkpt lat="40.231767" lon="-4.690850">
        <ele>1404.0</ele>
        <time>2018-06-24T14:48:32Z</time>
      </trkpt>
      <trkpt lat="40.231783" lon="-4.690683">
        <ele>1405.0</ele>
        <time>2018-06-24T14:48:33Z</time>
      </trkpt>
      <trkpt lat="40.231833" lon="-4.690517">
        <ele>1407.0</ele>
        <time>2018-06-24T14:48:34Z</time>
      </trkpt>
      <trkpt lat="40.231883" lon="-4.690350">
        <ele>1411.0</ele>
        <time>2018-06-24T14:48:35Z</time>
      </trkpt>
      <trkpt lat="40.231950" lon="-4.690233">
        <ele>1415.0</ele>
        <time>2018-06-24T14:48:36Z</time>
      </trkpt>
      <trkpt lat="40.232033" lon="-4.690133">
        <ele>1418.0</ele>
        <time>2018-06-24T14:48:37Z</time>
      </trkpt>
      <trkpt lat="40.232117" lon="-4.690083">
        <ele>1420.0</ele>
        <time>2018-06-24T14:48:38Z</time>
      </trkpt>
      <trkpt lat="40.232217" lon="-4.690067">
        <ele>1421.0</ele>
        <time>2018-06-24T14:48:39Z</time>
      </trkpt>
      <trkpt lat="40.232300" lon="-4.690100">
        <ele>1423.0</ele>
        <time>2018-06-24T14:48:40Z</time>
      </trkpt>
      <trkpt lat="40.232383" lon="-4.690183">
        <ele>1426.0</ele>
        <time>2018-06-24T14:48:41Z</time>
      </trkpt>
      <trkpt lat="40.232417" lon="-4.690283">
        <ele>1428.0</ele>
        <time>2018-06-24T14:48:42Z</time>
      </trkpt>
      <trkpt lat="40.232417" lon="-4.690367">
        <ele>1432.0</ele>
        <time>2018-06-24T14:48:43Z</time>
      </trkpt>
      <trkpt lat="40.232383" lon="-4.690450">
        <ele>1435.0</ele>
        <time>2018-06-24T14:48:44Z</time>
      </trkpt>
      <trkpt lat="40.232317" lon="-4.690500">
        <ele>1437.0</ele>
        <time>2018-06-24T14:48:45Z</time>
      </trkpt>
      <trkpt lat="40.232233" lon="-4.690533">
        <ele>1439.0</ele>
        <time>2018-06-24T14:48:46Z</time>
      </trkpt>
      <trkpt lat="40.232150" lon="-4.690533">
        <ele>1442.0</ele>
        <time>2018-06-24T14:48:47Z</time>
      </trkpt>
      <trkpt lat="40.232067" lon="-4.690517">
        <ele>1444.0</ele>
        <time>2018-06-24T14:48:48Z</time>
      </trkpt>
      <trkpt lat="40.231983" lon="-4.690433">
        <ele>1446.0</ele>
        <time>2018-06-24T14:48:49Z</time>
      </trkpt>
      <trkpt lat="40.231900" lon="-4.690333">
        <ele>1448.0</ele>
        <time>2018-06-24T14:48:50Z</time>
      </trkpt>
      <trkpt lat="40.231850" lon="-4.690183">
        <ele>1450.0</ele>
        <time>2018-06-24T14:48:51Z</time>
      </trkpt>
      <trkpt lat="40.231800" lon="-4.690033">
        <ele>1453.0</ele>
        <time>2018-06-24T14:48:52Z</time>
      </trkpt>
      <trkpt lat="40.231783" lon="-4.689883">
        <ele>1457.0</ele>
        <time>2018-06-24T14:48:53Z</time>
      </trkpt>
      <trkpt lat="40.231800" lon="-4.689767">
        <ele>1462.0</ele>
        <time>2018-06-24T14:48:54Z</time>
      </trkpt>
      <trkpt lat="40.231833" lon="-4.689633">
        <ele>1465.0</ele>
        <time>2018-06-24T14:48:55Z</time>
      </trkpt>
      <trkpt lat="40.231900" lon="-4.689517">
        <ele>1467.0</ele>
        <time>2018-06-24T14:48:56Z</time>
      </trkpt>
      <trkpt lat="40.231967" lon="-4.689383">
        <ele>1469.0</ele>
        <time>2018-06-24T14:48:57Z</time>
      </trkpt>
      <trkpt lat="40.232050" lon="-4.689283">
        <ele>1473.0</ele>
        <time>2018-06-24T14:48:58Z</time>
      </trkpt>
      <trkpt lat="40.232133" lon="-4.689200">
        <ele>1477.0</ele>
        <time>2018-06-24T14:48:59Z</time>
      </trkpt>
      <trkpt lat="40.232217" lon="-4.689150">
        <ele>1480.0</ele>
        <time>2018-06-24T14:49:00Z</time>
      </trkpt>
      <trkpt lat="40.232317" lon="-4.689133">
        <ele>1482.0</ele>
        <time>2018-06-24T14:49:01Z</time>
      </trkpt>
      <trkpt lat="40.232400" lon="-4.689133">
        <ele>1484.0</ele>
        <time>2018-06-24T14:49:02Z</time>
      </trkpt>
      <trkpt lat="40.232467" lon="-4.689167">
        <ele>1486.0</ele>
        <time>2018-06-24T14:49:03Z</time>
      </trkpt>
      <trkpt lat="40.232533" lon="-4.689233">
        <ele>1487.0</ele>
        <time>2018-06-24T14:49:04Z</time>
      </trkpt>
      <trkpt lat="40.232567" lon="-4.689317">
        <ele>1488.0</ele>
        <time>2018-06-24T14:49:05Z</time>
      </trkpt>
      <trkpt lat="40.232583" lon="-4.689417">
        <ele>1490.0</ele>
        <time>2018-06-24T14:49:06Z</time>
      </trkpt>
      <trkpt lat="40.232583" lon="-4.689500">
        <ele>1493.0</ele>
        <time>2018-06-24T14:49:07Z</time>
      </trkpt>
      <trkpt lat="40.232583" lon="-4.689583">
        <ele>1496.0</ele>
        <time>2018-06-24T14:49:08Z</time>
      </trkpt>
      <trkpt lat="40.232550" lon="-4.689650">
        <ele>1499.0</ele>
        <time>2018-06-24T14:49:09Z</time>
      </trkpt>
      <trkpt lat="40.232500" lon="-4.689717">
        <ele>1500.0</ele>
        <time>2018-06-24T14:49:10Z</time>
      </trkpt>
      <trkpt lat="40.232417" lon="-4.689767">
        <ele>1501.0</ele>
        <time>2018-06-24T14:49:11Z</time>
      </trkpt>
      <trkpt lat="40.232317" lon="-4.689800">
        <ele>1504.0</ele>
        <time>2018-06-24T14:49:12Z</time>
      </trkpt>
      <trkpt lat="40.232233" lon="-4.689817">
        <ele>1507.0</ele>
        <time>2018-06-24T14:49:13Z</time>
      </trkpt>
      <trkpt lat="40.232150" lon="-4.689800">
        <ele>1511.0</ele>
        <time>2018-06-24T14:49:14Z</time>
      </trkpt>
      <trkpt lat="40.232067" lon="-4.689767">
        <ele>1514.0</ele>
        <time>2018-06-24T14:49:15Z</time>
      </trkpt>
      <trkpt lat="40.231983" lon="-4.689717">
        <ele>1517.0</ele>
        <time>2018-06-24T14:49:16Z</time>
      </trkpt>
      <trkpt lat="40.231900" lon="-4.689683">
        <ele>1519.0</ele>
        <time>2018-06-24T14:49:17Z</time>
      </trkpt>
      <trkpt lat="40.231817" lon="-4.689617">
        <ele>1523.0</ele>
        <time>2018-06-24T14:49:18Z</time>
      </trkpt>
      <trkpt lat="40.231767" lon="-4.689550">
        <ele>1526.0</ele>
        <time>2018-06-24T14:49:19Z</time>
      </trkpt>
      <trkpt lat="40.231733" lon="-4.689450">
        <ele>1529.0</ele>
        <time>2018-06-24T14:49:20Z</time>
      </trkpt>
      <trkpt lat="40.231717" lon="-4.689333">
        <ele>1530.0</ele>
        <time>2018-06-24T14:49:21Z</time>
      </trkpt>
      <trkpt lat="40.231733" lon="-4.689217">
        <ele>1532.0</ele>
        <time>2018-06-24T14:49:22Z</time>
      </trkpt>
      <trkpt lat="40.231767" lon="-4.689083">
        <ele>1535.0</ele>
        <time>2018-06-24T14:49:23Z</time>
      </trkpt>
      <trkpt lat="40.231817" lon="-4.688983">
        <ele>1537.0</ele>
        <time>2018-06-24T14:49:24Z</time>
      </trkpt>
      <trkpt lat="40.231883" lon="-4.688917">
        <ele>1540.0</ele>
        <time>2018-06-24T14:49:25Z</time>
      </trkpt>
      <trkpt lat="40.231967" lon="-4.688867">
        <ele>1543.0</ele>
        <time>2018-06-24T14:49:26Z</time>
      </trkpt>
      <trkpt lat="40.232067" lon="-4.688867">
        <ele>1547.0</ele>
        <time>2018-06-24T14:49:27Z</time>
      </trkpt>
      <trkpt lat="40.232133" lon="-4.688883">
        <ele>1550.0</ele>
        <time>2018-06-24T14:49:28Z</time>
      </trkpt>
      <trkpt lat="40.232200" lon="-4.688933">
        <ele>1553.0</ele>
        <time>2018-06-24T14:49:29Z</time>
      </trkpt>
      <trkpt lat="40.232250" lon="-4.689000">
        <ele>1556.0</ele>
        <time>2018-06-24T14:49:30Z</time>
      </trkpt>
      <trkpt lat="40.232300" lon="-4.689067">
        <ele>1560.0</ele>
        <time>2018-06-24T14:49:31Z</time>
      </trkpt>
      <trkpt lat="40.232317" lon="-4.689133">
        <ele>1563.0</ele>
        <time>2018-06-24T14:49:32Z</time>
      </trkpt>
      <trkpt lat="40.232317" lon="-4.689217">
        <ele>1565.0</ele>
        <time>2018-06-24T14:49:33Z</time>
      </trkpt>
      <trkpt lat="40.232283" lon="-4.689300">
        <ele>1567.0</ele>
        <time>2018-06-24T14:49:34Z</time>
      </trkpt>
      <trkpt lat="40.232233" lon="-4.689367">
        <ele>1569.0</ele>
        <time>2018-06-24T14:49:35Z</time>
      </trkpt>
      <trkpt lat="40.232167" lon="-4.689433">
        <ele>1572.0</ele>
        <time>2018-06-24T14:49:36Z</time>
      </trkpt>
      <trkpt lat="40.232083" lon="-4.689467">
        <ele>1575.0</ele>
        <time>2018-06-24T14:49:37Z</time>
      </trkpt>
      <trkpt lat="40.232000" lon="-4.689483">
        <ele>1578.0</ele>
        <time>2018-06-24T14:49:38Z</time>
      </trkpt>
      <trkpt lat="40.231917" lon="-4.689467">
        <ele>1581.0</ele>
        <time>2018-06-24T14:49:39Z</time>
      </trkpt>
      <trkpt lat="40.231850" lon="-4.689417">
        <ele>1583.0</ele>
        <time>2018-06-24T14:49:40Z</time>
      </trkpt>
      <trkpt lat="40.231783" lon="-4.689350">
        <ele>1584.0</ele>
        <time>2018-06-24T14:49:41Z</time>
      </trkpt>
      <trkpt lat="40.231750" lon="-4.689250">
        <ele>1585.0</ele>
        <time>2018-06-24T14:49:42Z</time>
      </trkpt>
      <trkpt lat="40.231733" lon="-4.689133">
        <ele>1585.0</ele>
        <time>2018-06-24T14:49:43Z</time>
      </trkpt>
      <trkpt lat="40.231750" lon="-4.689000">
        <ele>1585.0</ele>
        <time>2018-06-24T14:49:44Z</time>
      </trkpt>
      <trkpt lat="40.231817" lon="-4.688883">
        <ele>1585.0</ele>
        <time>2018-06-24T14:49:45Z</time>
      </trkpt>
      <trkpt lat="40.231917" lon="-4.688783">
        <ele>1585.0</ele>
        <time>2018-06-24T14:49:46Z</time>
      </trkpt>
      <trkpt lat="40.232033" lon="-4.688733">
        <ele>1586.0</ele>
        <time>2018-06-24T14:49:47Z</time>
      </trkpt>
      <trkpt lat="40.232167" lon="-4.688750">
        <ele>1588.0</ele>
        <time>2018-06-24T14:49:48Z</time>
      </trkpt>
      <trkpt lat="40.232283" lon="-4.688800">
        <ele>1593.0</ele>
        <time>2018-06-24T14:49:49Z</time>
      </trkpt>
      <trkpt lat="40.232350" lon="-4.688867">
        <ele>1600.0</ele>
        <time>2018-06-24T14:49:50Z</time>
      </trkpt>
      <trkpt lat="40.232383" lon="-4.688917">
        <ele>1606.0</ele>
        <time>2018-06-24T14:49:51Z</time>
      </trkpt>
      <trkpt lat="40.232417" lon="-4.688950">
        <ele>1611.0</ele>
        <time>2018-06-24T14:49:52Z</time>
      </trkpt>
      <trkpt lat="40.232467" lon="-4.688967">
        <ele>1613.0</ele>
        <time>2018-06-24T14:49:53Z</time>
      </trkpt>
      <trkpt lat="40.232500" lon="-4.689017">
        <ele>1614.0</ele>
        <time>2018-06-24T14:49:54Z</time>
      </trkpt>
      <trkpt lat="40.232517" lon="-4.689083">
        <ele>1614.0</ele>
        <time>2018-06-24T14:49:55Z</time>
      </trkpt>
      <trkpt lat="40.232517" lon="-4.689183">
        <ele>1613.0</ele>
        <time>2018-06-24T14:49:56Z</time>
      </trkpt>
      <trkpt lat="40.232467" lon="-4.689283">
        <ele>1614.0</ele>
        <time>2018-06-24T14:49:57Z</time>
      </trkpt>
      <trkpt lat="40.232400" lon="-4.689350">
        <ele>1615.0</ele>
        <time>2018-06-24T14:49:58Z</time>
      </trkpt>
      <trkpt lat="40.232300" lon="-4.689367">
        <ele>1618.0</ele>
        <time>2018-06-24T14:49:59Z</time>
      </trkpt>
      <trkpt lat="40.232217" lon="-4.689317">
        <ele>1620.0</ele>
        <time>2018-06-24T14:50:00Z</time>
      </trkpt>
      <trkpt lat="40.232167" lon="-4.689233">
        <ele>1622.0</ele>
        <time>2018-06-24T14:50:01Z</time>
      </trkpt>
      <trkpt lat="40.232133" lon="-4.689100">
        <ele>1622.0</ele>
        <time>2018-06-24T14:50:02Z</time>
      </trkpt>
      <trkpt lat="40.232150" lon="-4.688950">
        <ele>1623.0</ele>
        <time>2018-06-24T14:50:03Z</time>
      </trkpt>
      <trkpt lat="40.232183" lon="-4.688817">
        <ele>1626.0</ele>
        <time>2018-06-24T14:50:04Z</time>
      </trkpt>
      <trkpt lat="40.232233" lon="-4.688700">
        <ele>1630.0</ele>
        <time>2018-06-24T14:50:05Z</time>
      </trkpt>
      <trkpt lat="40.232283" lon="-4.688600">
        <ele>1633.0</ele>
        <time>2018-06-24T14:50:06Z</time>
      </trkpt>
      <trkpt lat="40.232350" lon="-4.688517">
        <ele>1635.0</ele>
        <time>2018-06-24T14:50:07Z</time>
      </trkpt>
      <trkpt lat="40.232433" lon="-4.688450">
        <ele>1636.0</ele>
        <time>2018-06-24T14:50:08Z</time>
      </trkpt>
      <trkpt lat="40.232533" lon="-4.688417">
        <ele>1638.0</ele>
        <time>2018-06-24T14:50:09Z</time>
      </trkpt>
      <trkpt lat="40.232633" lon="-4.688400">
        <ele>1640.0</ele>
        <time>2018-06-24T14:50:10Z</time>
      </trkpt>
      <trkpt lat="40.232717" lon="-4.688417">
        <ele>1642.0</ele>
        <time>2018-06-24T14:50:11Z</time>
      </trkpt>
      <trkpt lat="40.232783" lon="-4.688483">
        <ele>1644.0</ele>
        <time>2018-06-24T14:50:12Z</time>
      </trkpt>
      <trkpt lat="40.232817" lon="-4.688583">
        <ele>1645.0</ele>
        <time>2018-06-24T14:50:13Z</time>
      </trkpt>
      <trkpt lat="40.232817" lon="-4.688683">
        <ele>1646.0</ele>
        <time>2018-06-24T14:50:14Z</time>
      </trkpt>
      <trkpt lat="40.232767" lon="-4.688767">
        <ele>1648.0</ele>
        <time>2018-06-24T14:50:15Z</time>
      </trkpt>
      <trkpt lat="40.232700" lon="-4.688817">
        <ele>1650.0</ele>
        <time>2018-06-24T14:50:16Z</time>
      </trkpt>
      <trkpt lat="40.232600" lon="-4.688817">
        <ele>1651.0</ele>
        <time>2018-06-24T14:50:17Z</time>
      </trkpt>
      <trkpt lat="40.232517" lon="-4.688783">
        <ele>1653.0</ele>
        <time>2018-06-24T14:50:18Z</time>
      </trkpt>
      <trkpt lat="40.232417" lon="-4.688717">
        <ele>1656.0</ele>
        <time>2018-06-24T14:50:19Z</time>
      </trkpt>
      <trkpt lat="40.232333" lon="-4.688633">
        <ele>1661.0</ele>
        <time>2018-06-24T14:50:20Z</time>
      </trkpt>
      <trkpt lat="40.232300" lon="-4.688517">
        <ele>1664.0</ele>
        <time>2018-06-24T14:50:21Z</time>
      </trkpt>
      <trkpt lat="40.232283" lon="-4.688383">
        <ele>1665.0</ele>
        <time>2018-06-24T14:50:22Z</time>
      </trkpt>
      <trkpt lat="40.232317" lon="-4.688250">
        <ele>1666.0</ele>
        <time>2018-06-24T14:50:23Z</time>
      </trkpt>
      <trkpt lat="40.232350" lon="-4.688100">
        <ele>1667.0</ele>
        <time>2018-06-24T14:50:24Z</time>
      </trkpt>
      <trkpt lat="40.232400" lon="-4.687983">
        <ele>1670.0</ele>
        <time>2018-06-24T14:50:25Z</time>
      </trkpt>
      <trkpt lat="40.232467" lon="-4.687883">
        <ele>1673.0</ele>
        <time>2018-06-24T14:50:26Z</time>
      </trkpt>
      <trkpt lat="40.232550" lon="-4.687833">
        <ele>1675.0</ele>
        <time>2018-06-24T14:50:27Z</time>
      </trkpt>
      <trkpt lat="40.232633" lon="-4.687817">
        <ele>1676.0</ele>
        <time>2018-06-24T14:50:28Z</time>
      </trkpt>
      <trkpt lat="40.232733" lon="-4.687817">
        <ele>1677.0</ele>
        <time>2018-06-24T14:50:29Z</time>
      </trkpt>
      <trkpt lat="40.232817" lon="-4.687867">
        <ele>1679.0</ele>
        <time>2018-06-24T14:50:30Z</time>
      </trkpt>
      <trkpt lat="40.232867" lon="-4.687950">
        <ele>1680.0</ele>
        <time>2018-06-24T14:50:31Z</time>
      </trkpt>
      <trkpt lat="40.232900" lon="-4.688050">
        <ele>1682.0</ele>
        <time>2018-06-24T14:50:32Z</time>
      </trkpt>
      <trkpt lat="40.232900" lon="-4.688150">
        <ele>1683.0</ele>
        <time>2018-06-24T14:50:33Z</time>
      </trkpt>
      <trkpt lat="40.232867" lon="-4.688233">
        <ele>1685.0</ele>
        <time>2018-06-24T14:50:34Z</time>
      </trkpt>
      <trkpt lat="40.232817" lon="-4.688300">
        <ele>1686.0</ele>
        <time>2018-06-24T14:50:35Z</time>
      </trkpt>
      <trkpt lat="40.232733" lon="-4.688350">
        <ele>1687.0</ele>
        <time>2018-06-24T14:50:36Z</time>
      </trkpt>
      <trkpt lat="40.232633" lon="-4.688367">
        <ele>1688.0</ele>
        <time>2018-06-24T14:50:37Z</time>
      </trkpt>
      <trkpt lat="40.232533" lon="-4.688350">
        <ele>1689.0</ele>
        <time>2018-06-24T14:50:38Z</time>
      </trkpt>
      <trkpt lat="40.232417" lon="-4.688317">
        <ele>1692.0</ele>
        <time>2018-06-24T14:50:39Z</time>
      </trkpt>
      <trkpt lat="40.232317" lon="-4.688217">
        <ele>1695.0</ele>
        <time>2018-06-24T14:50:40Z</time>
      </trkpt>
      <trkpt lat="40.232267" lon="-4.688100">
        <ele>1697.0</ele>
        <time>2018-06-24T14:50:41Z</time>
      </trkpt>
      <trkpt lat="40.232250" lon="-4.687950">
        <ele>1699.0</ele>
        <time>2018-06-24T14:50:42Z</time>
      </trkpt>
      <trkpt lat="40.232283" lon="-4.687833">
        <ele>1700.0</ele>
        <time>2018-06-24T14:50:43Z</time>
      </trkpt>
      <trkpt lat="40.232317" lon="-4.687717">
        <ele>1702.0</ele>
        <time>2018-06-24T14:50:44Z</time>
      </trkpt>
      <trkpt lat="40.232367" lon="-4.687617">
        <ele>1704.0</ele>
        <time>2018-06-24T14:50:45Z</time>
      </trkpt>
      <trkpt lat="40.232433" lon="-4.687550">
        <ele>1705.0</ele>
        <time>2018-06-24T14:50:46Z</time>
      </trkpt>
      <trkpt lat="40.232517" lon="-4.687517">
        <ele>1705.0</ele>
        <time>2018-06-24T14:50:47Z</time>
      </trkpt>
      <trkpt lat="40.232617" lon="-4.687483">
        <ele>1705.0</ele>
        <time>2018-06-24T14:50:48Z</time>
      </trkpt>
      <trkpt lat="40.232717" lon="-4.687467">
        <ele>1705.0</ele>
        <time>2018-06-24T14:50:49Z</time>
      </trkpt>
      <trkpt lat="40.232833" lon="-4.687483">
        <ele>1708.0</ele>
        <time>2018-06-24T14:50:50Z</time>
      </trkpt>
      <trkpt lat="40.232917" lon="-4.687550">
        <ele>1710.0</ele>
        <time>2018-06-24T14:50:51Z</time>
      </trkpt>
      <trkpt lat="40.232967" lon="-4.687650">
        <ele>1713.0</ele>
        <time>2018-06-24T14:50:52Z</time>
      </trkpt>
      <trkpt lat="40.233000" lon="-4.687750">
        <ele>1715.0</ele>
        <time>2018-06-24T14:50:53Z</time>
      </trkpt>
      <trkpt lat="40.233000" lon="-4.687850">
        <ele>1718.0</ele>
        <time>2018-06-24T14:50:54Z</time>
      </trkpt>
      <trkpt lat="40.233000" lon="-4.687933">
        <ele>1720.0</ele>
        <time>2018-06-24T14:50:55Z</time>
      </trkpt>
      <trkpt lat="40.232983" lon="-4.688017">
        <ele>1721.0</ele>
        <time>2018-06-24T14:50:56Z</time>
      </trkpt>
      <trkpt lat="40.232933" lon="-4.688117">
        <ele>1721.0</ele>
        <time>2018-06-24T14:50:57Z</time>
      </trkpt>
      <trkpt lat="40.232850" lon="-4.688183">
        <ele>1721.0</ele>
        <time>2018-06-24T14:50:58Z</time>
      </trkpt>
      <trkpt lat="40.232733" lon="-4.688217">
        <ele>1721.0</ele>
        <time>2018-06-24T14:50:59Z</time>
      </trkpt>
      <trkpt lat="40.232617" lon="-4.688183">
        <ele>1722.0</ele>
        <time>2018-06-24T14:51:00Z</time>
      </trkpt>
      <trkpt lat="40.232517" lon="-4.688100">
        <ele>1725.0</ele>
        <time>2018-06-24T14:51:01Z</time>
      </trkpt>
      <trkpt lat="40.232467" lon="-4.687983">
        <ele>1726.0</ele>
        <time>2018-06-24T14:51:02Z</time>
      </trkpt>
      <trkpt lat="40.232450" lon="-4.687850">
        <ele>1728.0</ele>
        <time>2018-06-24T14:51:03Z</time>
      </trkpt>
      <trkpt lat="40.232433" lon="-4.687717">
        <ele>1730.0</ele>
        <time>2018-06-24T14:51:04Z</time>
      </trkpt>
      <trkpt lat="40.232433" lon="-4.687600">
        <ele>1732.0</ele>
        <time>2018-06-24T14:51:05Z</time>
      </trkpt>
      <trkpt lat="40.232433" lon="-4.687500">
        <ele>1734.0</ele>
        <time>2018-06-24T14:51:06Z</time>
      </trkpt>
      <trkpt lat="40.232467" lon="-4.687383">
        <ele>1734.0</ele>
        <time>2018-06-24T14:51:07Z</time>
      </trkpt>
      <trkpt lat="40.232533" lon="-4.687283">
        <ele>1733.0</ele>
        <time>2018-06-24T14:51:08Z</time>
      </trkpt>
      <trkpt lat="40.232617" lon="-4.687217">
        <ele>1731.0</ele>
        <time>2018-06-24T14:51:09Z</time>
      </trkpt>
      <trkpt lat="40.232733" lon="-4.687167">
        <ele>1731.0</ele>
        <time>2018-06-24T14:51:10Z</time>
      </trkpt>
      <trkpt lat="40.232833" lon="-4.687150">
        <ele>1733.0</ele>
        <time>2018-06-24T14:51:11Z</time>
      </trkpt>
      <trkpt lat="40.232950" lon="-4.687150">
        <ele>1737.0</ele>
        <time>2018-06-24T14:51:12Z</time>
      </trkpt>
      <trkpt lat="40.233033" lon="-4.687167">
        <ele>1739.0</ele>
        <time>2018-06-24T14:51:13Z</time>
      </trkpt>
      <trkpt lat="40.233117" lon="-4.687217">
        <ele>1741.0</ele>
        <time>2018-06-24T14:51:14Z</time>
      </trkpt>
      <trkpt lat="40.233200" lon="-4.687283">
        <ele>1743.0</ele>
        <time>2018-06-24T14:51:15Z</time>
      </trkpt>
      <trkpt lat="40.233283" lon="-4.687367">
        <ele>1745.0</ele>
        <time>2018-06-24T14:51:16Z</time>
      </trkpt>
      <trkpt lat="40.233333" lon="-4.687483">
        <ele>1746.0</ele>
        <time>2018-06-24T14:51:17Z</time>
      </trkpt>
      <trkpt lat="40.233350" lon="-4.687600">
        <ele>1748.0</ele>
        <time>2018-06-24T14:51:18Z</time>
      </trkpt>
      <trkpt lat="40.233350" lon="-4.687717">
        <ele>1750.0</ele>
        <time>2018-06-24T14:51:19Z</time>
      </trkpt>
      <trkpt lat="40.233333" lon="-4.687833">
        <ele>1753.0</ele>
        <time>2018-06-24T14:51:20Z</time>
      </trkpt>
      <trkpt lat="40.233283" lon="-4.687900">
        <ele>1755.0</ele>
        <time>2018-06-24T14:51:21Z</time>
      </trkpt>
      <trkpt lat="40.233233" lon="-4.687950">
        <ele>1757.0</ele>
        <time>2018-06-24T14:51:22Z</time>
      </trkpt>
      <trkpt lat="40.233167" lon="-4.687983">
        <ele>1759.0</ele>
        <time>2018-06-24T14:51:23Z</time>
      </trkpt>
      <trkpt lat="40.233100" lon="-4.688000">
        <ele>1760.0</ele>
        <time>2018-06-24T14:51:24Z</time>
      </trkpt>
      <trkpt lat="40.233017" lon="-4.688000">
        <ele>1761.0</ele>
        <time>2018-06-24T14:51:25Z</time>
      </trkpt>
      <trkpt lat="40.232917" lon="-4.687950">
        <ele>1762.0</ele>
        <time>2018-06-24T14:51:26Z</time>
      </trkpt>
      <trkpt lat="40.232833" lon="-4.687867">
        <ele>1763.0</ele>
        <time>2018-06-24T14:51:27Z</time>
      </trkpt>
      <trkpt lat="40.232750" lon="-4.687767">
        <ele>1766.0</ele>
        <time>2018-06-24T14:51:28Z</time>
      </trkpt>
      <trkpt lat="40.232717" lon="-4.687633">
        <ele>1769.0</ele>
        <time>2018-06-24T14:51:29Z</time>
      </trkpt>
      <trkpt lat="40.232700" lon="-4.687517">
        <ele>1773.0</ele>
        <time>2018-06-24T14:51:30Z</time>
      </trkpt>
      <trkpt lat="40.232700" lon="-4.687383">
        <ele>1775.0</ele>
        <time>2018-06-24T14:51:31Z</time>
      </trkpt>
      <trkpt lat="40.232717" lon="-4.687267">
        <ele>1777.0</ele>
        <time>2018-06-24T14:51:32Z</time>
      </trkpt>
      <trkpt lat="40.232733" lon="-4.687150">
        <ele>1778.0</ele>
        <time>2018-06-24T14:51:33Z</time>
      </trkpt>
      <trkpt lat="40.232767" lon="-4.687033">
        <ele>1778.0</ele>
        <time>2018-06-24T14:51:34Z</time>
      </trkpt>
      <trkpt lat="40.232833" lon="-4.686917">
        <ele>1777.0</ele>
        <time>2018-06-24T14:51:35Z</time>
      </trkpt>
      <trkpt lat="40.232917" lon="-4.686817">
        <ele>1776.0</ele>
        <time>2018-06-24T14:51:36Z</time>
      </trkpt>
      <trkpt lat="40.233017" lon="-4.686717">
        <ele>1777.0</ele>
        <time>2018-06-24T14:51:37Z</time>
      </trkpt>
      <trkpt lat="40.233117" lon="-4.686667">
        <ele>1780.0</ele>
        <time>2018-06-24T14:51:38Z</time>
      </trkpt>
      <trkpt lat="40.233217" lon="-4.686633">
        <ele>1783.0</ele>
        <time>2018-06-24T14:51:39Z</time>
      </trkpt>
      <trkpt lat="40.233317" lon="-4.686633">
        <ele>1784.0</ele>
        <time>2018-06-24T14:51:40Z</time>
      </trkpt>
      <trkpt lat="40.233400" lon="-4.686650">
        <ele>1785.0</ele>
        <time>2018-06-24T14:51:41Z</time>
      </trkpt>
      <trkpt lat="40.233500" lon="-4.686683">
        <ele>1785.0</ele>
        <time>2018-06-24T14:51:42Z</time>
      </trkpt>
      <trkpt lat="40.233600" lon="-4.686750">
        <ele>1785.0</ele>
        <time>2018-06-24T14:51:43Z</time>
      </trkpt>
      <trkpt lat="40.233700" lon="-4.686833">
        <ele>1786.0</ele>
        <time>2018-06-24T14:51:44Z</time>
      </trkpt>
      <trkpt lat="40.233767" lon="-4.686950">
        <ele>1789.0</ele>
        <time>2018-06-24T14:51:45Z</time>
      </trkpt>
      <trkpt lat="40.233817" lon="-4.687050">
        <ele>1792.0</ele>
        <time>2018-06-24T14:51:46Z</time>
      </trkpt>
      <trkpt lat="40.233850" lon="-4.687117">
        <ele>1795.0</ele>
        <time>2018-06-24T14:51:47Z</time>
      </trkpt>
      <trkpt lat="40.233900" lon="-4.687200">
        <ele>1797.0</ele>
        <time>2018-06-24T14:51:48Z</time>
      </trkpt>
      <trkpt lat="40.233950" lon="-4.687267">
        <ele>1798.0</ele>
        <time>2018-06-24T14:51:49Z</time>
      </trkpt>
      <trkpt lat="40.234000" lon="-4.687350">
        <ele>1798.0</ele>
        <time>2018-06-24T14:51:50Z</time>
      </trkpt>
      <trkpt lat="40.234050" lon="-4.687467">
        <ele>1799.0</ele>
        <time>2018-06-24T14:51:51Z</time>
      </trkpt>
      <trkpt lat="40.234067" lon="-4.687583">
        <ele>1801.0</ele>
        <time>2018-06-24T14:51:52Z</time>
      </trkpt>
      <trkpt lat="40.234050" lon="-4.687683">
        <ele>1803.0</ele>
        <time>2018-06-24T14:51:53Z</time>
      </trkpt>
      <trkpt lat="40.234017" lon="-4.687750">
        <ele>1806.0</ele>
        <time>2018-06-24T14:51:54Z</time>
      </trkpt>
      <trkpt lat="40.233950" lon="-4.687800">
        <ele>1807.0</ele>
        <time>2018-06-24T14:51:55Z</time>
      </trkpt>
      <trkpt lat="40.233867" lon="-4.687817">
        <ele>1809.0</ele>
        <time>2018-06-24T14:51:56Z</time>
      </trkpt>
      <trkpt lat="40.233767" lon="-4.687783">
        <ele>1810.0</ele>
        <time>2018-06-24T14:51:57Z</time>
      </trkpt>
      <trkpt lat="40.233667" lon="-4.687700">
        <ele>1812.0</ele>
        <time>2018-06-24T14:51:58Z</time>
      </trkpt>
      <trkpt lat="40.233600" lon="-4.687600">
        <ele>1815.0</ele>
        <time>2018-06-24T14:51:59Z</time>
      </trkpt>
      <trkpt lat="40.233567" lon="-4.687467">
        <ele>1816.0</ele>
        <time>2018-06-24T14:52:00Z</time>
      </trkpt>
      <trkpt lat="40.233567" lon="-4.687300">
        <ele>1817.0</ele>
        <time>2018-06-24T14:52:01Z</time>
      </trkpt>
      <trkpt lat="40.233583" lon="-4.687133">
        <ele>1818.0</ele>
        <time>2018-06-24T14:52:02Z</time>
      </trkpt>
      <trkpt lat="40.233650" lon="-4.687000">
        <ele>1819.0</ele>
        <time>2018-06-24T14:52:03Z</time>
      </trkpt>
      <trkpt lat="40.233717" lon="-4.686867">
        <ele>1820.0</ele>
        <time>2018-06-24T14:52:04Z</time>
      </trkpt>
      <trkpt lat="40.233817" lon="-4.686783">
        <ele>1822.0</ele>
        <time>2018-06-24T14:52:05Z</time>
      </trkpt>
      <trkpt lat="40.233917" lon="-4.686750">
        <ele>1823.0</ele>
        <time>2018-06-24T14:52:06Z</time>
      </trkpt>
      <trkpt lat="40.234017" lon="-4.686767">
        <ele>1824.0</ele>
        <time>2018-06-24T14:52:07Z</time>
      </trkpt>
      <trkpt lat="40.234100" lon="-4.686833">
        <ele>1825.0</ele>
        <time>2018-06-24T14:52:08Z</time>
      </trkpt>
      <trkpt lat="40.234150" lon="-4.686917">
        <ele>1826.0</ele>
        <time>2018-06-24T14:52:09Z</time>
      </trkpt>
      <trkpt lat="40.234183" lon="-4.687033">
        <ele>1827.0</ele>
        <time>2018-06-24T14:52:10Z</time>
      </trkpt>
      <trkpt lat="40.234183" lon="-4.687150">
        <ele>1828.0</ele>
        <time>2018-06-24T14:52:11Z</time>
      </trkpt>
      <trkpt lat="40.234150" lon="-4.687250">
        <ele>1828.0</ele>
        <time>2018-06-24T14:52:12Z</time>
      </trkpt>
      <trkpt lat="40.234100" lon="-4.687350">
        <ele>1828.0</ele>
        <time>2018-06-24T14:52:13Z</time>
      </trkpt>
      <trkpt lat="40.234017" lon="-4.687433">
        <ele>1829.0</ele>
        <time>2018-06-24T14:52:14Z</time>
      </trkpt>
      <trkpt lat="40.233933" lon="-4.687500">
        <ele>1831.0</ele>
        <time>2018-06-24T14:52:15Z</time>
      </trkpt>
      <trkpt lat="40.233850" lon="-4.687550">
        <ele>1834.0</ele>
        <time>2018-06-24T14:52:16Z</time>
      </trkpt>
      <trkpt lat="40.233767" lon="-4.687583">
        <ele>1836.0</ele>
        <time>2018-06-24T14:52:17Z</time>
      </trkpt>
      <trkpt lat="40.233683" lon="-4.687567">
        <ele>1837.0</ele>
        <time>2018-06-24T14:52:18Z</time>
      </trkpt>
      <trkpt lat="40.233600" lon="-4.687517">
        <ele>1837.0</ele>
        <time>2018-06-24T14:52:19Z</time>
      </trkpt>
      <trkpt lat="40.233500" lon="-4.687417">
        <ele>1837.0</ele>
        <time>2018-06-24T14:52:20Z</time>
      </trkpt>
      <trkpt lat="40.233417" lon="-4.687283">
        <ele>1838.0</ele>
        <time>2018-06-24T14:52:21Z</time>
      </trkpt>
      <trkpt lat="40.233367" lon="-4.687133">
        <ele>1839.0</ele>
        <time>2018-06-24T14:52:22Z</time>
      </trkpt>
      <trkpt lat="40.233333" lon="-4.686983">
        <ele>1841.0</ele>
        <time>2018-06-24T14:52:23Z</time>
      </trkpt>
      <trkpt lat="40.233333" lon="-4.686833">
        <ele>1843.0</ele>
        <time>2018-06-24T14:52:24Z</time>
      </trkpt>
      <trkpt lat="40.233350" lon="-4.686683">
        <ele>1844.0</ele>
        <time>2018-06-24T14:52:25Z</time>
      </trkpt>
      <trkpt lat="40.233383" lon="-4.686550">
        <ele>1846.0</ele>
        <time>2018-06-24T14:52:26Z</time>
      </trkpt>
      <trkpt lat="40.233450" lon="-4.686433">
        <ele>1849.0</ele>
        <time>2018-06-24T14:52:27Z</time>
      </trkpt>
      <trkpt lat="40.233533" lon="-4.686350">
        <ele>1850.0</ele>
        <time>2018-06-24T14:52:28Z</time>
      </trkpt>
      <trkpt lat="40.233617" lon="-4.686300">
        <ele>1851.0</ele>
        <time>2018-06-24T14:52:29Z</time>
      </trkpt>
      <trkpt lat="40.233733" lon="-4.686283">
        <ele>1851.0</ele>
        <time>2018-06-24T14:52:30Z</time>
      </trkpt>
      <trkpt lat="40.233833" lon="-4.686317">
        <ele>1851.0</ele>
        <time>2018-06-24T14:52:31Z</time>
      </trkpt>
      <trkpt lat="40.233933" lon="-4.686383">
        <ele>1852.0</ele>
        <time>2018-06-24T14:52:32Z</time>
      </trkpt>
      <trkpt lat="40.234000" lon="-4.686500">
        <ele>1853.0</ele>
        <time>2018-06-24T14:52:33Z</time>
      </trkpt>
      <trkpt lat="40.234033" lon="-4.686617">
        <ele>1855.0</ele>
        <time>2018-06-24T14:52:34Z</time>
      </trkpt>
      <trkpt lat="40.234033" lon="-4.686750">
        <ele>1858.0</ele>
        <time>2018-06-24T14:52:35Z</time>
      </trkpt>
      <trkpt lat="40.234017" lon="-4.686850">
        <ele>1860.0</ele>
        <time>2018-06-24T14:52:36Z</time>
      </trkpt>
      <trkpt lat="40.233967" lon="-4.686967">
        <ele>1861.0</ele>
        <time>2018-06-24T14:52:37Z</time>
      </trkpt>
      <trkpt lat="40.233917" lon="-4.687050">
        <ele>1863.0</ele>
        <time>2018-06-24T14:52:38Z</time>
      </trkpt>
      <trkpt lat="40.233850" lon="-4.687133">
        <ele>1864.0</ele>
        <time>2018-06-24T14:52:39Z</time>
      </trkpt>
      <trkpt lat="40.233750" lon="-4.687200">
        <ele>1866.0</ele>
        <time>2018-06-24T14:52:40Z</time>
      </trkpt>
      <trkpt lat="40.233667" lon="-4.687217">
        <ele>1869.0</ele>
        <time>2018-06-24T14:52:41Z</time>
      </trkpt>
      <trkpt lat="40.233567" lon="-4.687200">
        <ele>1871.0</ele>
        <time>2018-06-24T14:52:42Z</time>
      </trkpt>
      <trkpt lat="40.233483" lon="-4.687117">
        <ele>1872.0</ele>
        <time>2018-06-24T14:52:43Z</time>
      </trkpt>
      <trkpt lat="40.233433" lon="-4.686983">
        <ele>1872.0</ele>
        <time>2018-06-24T14:52:44Z</time>
      </trkpt>
      <trkpt lat="40.233400" lon="-4.686833">
        <ele>1872.0</ele>
        <time>2018-06-24T14:52:45Z</time>
      </trkpt>
      <trkpt lat="40.233383" lon="-4.686667">
        <ele>1872.0</ele>
        <time>2018-06-24T14:52:46Z</time>
      </trkpt>
      <trkpt lat="40.233383" lon="-4.686500">
        <ele>1874.0</ele>
        <time>2018-06-24T14:52:47Z</time>
      </trkpt>
      <trkpt lat="40.233400" lon="-4.686350">
        <ele>1877.0</ele>
        <time>2018-06-24T14:52:48Z</time>
      </trkpt>
      <trkpt lat="40.233417" lon="-4.686233">
        <ele>1880.0</ele>
        <time>2018-06-24T14:52:49Z</time>
      </trkpt>
      <trkpt lat="40.233417" lon="-4.686100">
        <ele>1881.0</ele>
        <time>2018-06-24T14:52:50Z</time>
      </trkpt>
      <trkpt lat="40.233433" lon="-4.685967">
        <ele>1882.0</ele>
        <time>2018-06-24T14:52:51Z</time>
      </trkpt>
      <trkpt lat="40.233450" lon="-4.685833">
        <ele>1883.0</ele>
        <time>2018-06-24T14:52:52Z</time>
      </trkpt>
      <trkpt lat="40.233483" lon="-4.685683">
        <ele>1883.0</ele>
        <time>2018-06-24T14:52:53Z</time>
      </trkpt>
      <trkpt lat="40.233500" lon="-4.685517">
        <ele>1885.0</ele>
        <time>2018-06-24T14:52:54Z</time>
      </trkpt>
      <trkpt lat="40.233533" lon="-4.685383">
        <ele>1887.0</ele>
        <time>2018-06-24T14:52:55Z</time>
      </trkpt>
      <trkpt lat="40.233550" lon="-4.685250">
        <ele>1889.0</ele>
        <time>2018-06-24T14:52:56Z</time>
      </trkpt>
      <trkpt lat="40.233567" lon="-4.685117">
        <ele>1891.0</ele>
        <time>2018-06-24T14:52:57Z</time>
      </trkpt>
      <trkpt lat="40.233600" lon="-4.685000">
        <ele>1892.0</ele>
        <time>2018-06-24T14:52:58Z</time>
      </trkpt>
      <trkpt lat="40.233633" lon="-4.684867">
        <ele>1892.0</ele>
        <time>2018-06-24T14:52:59Z</time>
      </trkpt>
      <trkpt lat="40.233667" lon="-4.684717">
        <ele>1891.0</ele>
        <time>2018-06-24T14:53:00Z</time>
      </trkpt>
      <trkpt lat="40.233717" lon="-4.684567">
        <ele>1891.0</ele>
        <time>2018-06-24T14:53:01Z</time>
      </trkpt>
      <trkpt lat="40.233750" lon="-4.684417">
        <ele>1891.0</ele>
        <time>2018-06-24T14:53:02Z</time>
      </trkpt>
      <trkpt lat="40.233783" lon="-4.684267">
        <ele>1892.0</ele>
        <time>2018-06-24T14:53:03Z</time>
      </trkpt>
      <trkpt lat="40.233817" lon="-4.684133">
        <ele>1894.0</ele>
        <time>2018-06-24T14:53:04Z</time>
      </trkpt>
      <trkpt lat="40.233833" lon="-4.684000">
        <ele>1896.0</ele>
        <time>2018-06-24T14:53:05Z</time>
      </trkpt>
      <trkpt lat="40.233850" lon="-4.683883">
        <ele>1898.0</ele>
        <time>2018-06-24T14:53:06Z</time>
      </trkpt>
      <trkpt lat="40.233867" lon="-4.683750">
        <ele>1898.0</ele>
        <time>2018-06-24T14:53:07Z</time>
      </trkpt>
      <trkpt lat="40.233883" lon="-4.683617">
        <ele>1899.0</ele>
        <time>2018-06-24T14:53:08Z</time>
      </trkpt>
      <trkpt lat="40.233900" lon="-4.683467">
        <ele>1900.0</ele>
        <time>2018-06-24T14:53:09Z</time>
      </trkpt>
      <trkpt lat="40.233933" lon="-4.683300">
        <ele>1902.0</ele>
        <time>2018-06-24T14:53:10Z</time>
      </trkpt>
      <trkpt lat="40.233950" lon="-4.683167">
        <ele>1905.0</ele>
        <time>2018-06-24T14:53:11Z</time>
      </trkpt>
      <trkpt lat="40.233967" lon="-4.683017">
        <ele>1908.0</ele>
        <time>2018-06-24T14:53:12Z</time>
      </trkpt>
      <trkpt lat="40.233983" lon="-4.682900">
        <ele>1911.0</ele>
        <time>2018-06-24T14:53:13Z</time>
      </trkpt>
      <trkpt lat="40.234000" lon="-4.682767">
        <ele>1914.0</ele>
        <time>2018-06-24T14:53:14Z</time>
      </trkpt>
      <trkpt lat="40.234050" lon="-4.682650">
        <ele>1916.0</ele>
        <time>2018-06-24T14:53:15Z</time>
      </trkpt>
      <trkpt lat="40.234117" lon="-4.682533">
        <ele>1917.0</ele>
        <time>2018-06-24T14:53:16Z</time>
      </trkpt>
      <trkpt lat="40.234183" lon="-4.682400">
        <ele>1920.0</ele>
        <time>2018-06-24T14:53:17Z</time>
      </trkpt>
      <trkpt lat="40.234233" lon="-4.682267">
        <ele>1923.0</ele>
        <time>2018-06-24T14:53:18Z</time>
      </trkpt>
      <trkpt lat="40.234233" lon="-4.682133">
        <ele>1925.0</ele>
        <time>2018-06-24T14:53:19Z</time>
      </trkpt>
      <trkpt lat="40.234200" lon="-4.682000">
        <ele>1927.0</ele>
        <time>2018-06-24T14:53:20Z</time>
      </trkpt>
      <trkpt lat="40.234133" lon="-4.681917">
        <ele>1928.0</ele>
        <time>2018-06-24T14:53:21Z</time>
      </trkpt>
      <trkpt lat="40.234033" lon="-4.681883">
        <ele>1930.0</ele>
        <time>2018-06-24T14:53:22Z</time>
      </trkpt>
      <trkpt lat="40.233933" lon="-4.681917">
        <ele>1932.0</ele>
        <time>2018-06-24T14:53:23Z</time>
      </trkpt>
      <trkpt lat="40.233850" lon="-4.682000">
        <ele>1935.0</ele>
        <time>2018-06-24T14:53:24Z</time>
      </trkpt>
      <trkpt lat="40.233817" lon="-4.682133">
        <ele>1938.0</ele>
        <time>2018-06-24T14:53:25Z</time>
      </trkpt>
      <trkpt lat="40.233817" lon="-4.682267">
        <ele>1941.0</ele>
        <time>2018-06-24T14:53:26Z</time>
      </trkpt>
      <trkpt lat="40.233867" lon="-4.682383">
        <ele>1944.0</ele>
        <time>2018-06-24T14:53:27Z</time>
      </trkpt>
      <trkpt lat="40.233950" lon="-4.682483">
        <ele>1947.0</ele>
        <time>2018-06-24T14:53:28Z</time>
      </trkpt>
      <trkpt lat="40.234050" lon="-4.682533">
        <ele>1949.0</ele>
        <time>2018-06-24T14:53:29Z</time>
      </trkpt>
      <trkpt lat="40.234167" lon="-4.682517">
        <ele>1950.0</ele>
        <time>2018-06-24T14:53:30Z</time>
      </trkpt>
      <trkpt lat="40.234283" lon="-4.682467">
        <ele>1952.0</ele>
        <time>2018-06-24T14:53:31Z</time>
      </trkpt>
      <trkpt lat="40.234383" lon="-4.682367">
        <ele>1954.0</ele>
        <time>2018-06-24T14:53:32Z</time>
      </trkpt>
      <trkpt lat="40.234433" lon="-4.682233">
        <ele>1957.0</ele>
        <time>2018-06-24T14:53:33Z</time>
      </trkpt>
      <trkpt lat="40.234467" lon="-4.682100">
        <ele>1960.0</ele>
        <time>2018-06-24T14:53:34Z</time>
      </trkpt>
      <trkpt lat="40.234450" lon="-4.681983">
        <ele>1962.0</ele>
        <time>2018-06-24T14:53:35Z</time>
      </trkpt>
      <trkpt lat="40.234417" lon="-4.681867">
        <ele>1964.0</ele>
        <time>2018-06-24T14:53:36Z</time>
      </trkpt>
      <trkpt lat="40.234350" lon="-4.681783">
        <ele>1965.0</ele>
        <time>2018-06-24T14:53:37Z</time>
      </trkpt>
      <trkpt lat="40.234250" lon="-4.681750">
        <ele>1968.0</ele>
        <time>2018-06-24T14:53:38Z</time>
      </trkpt>
      <trkpt lat="40.234150" lon="-4.681750">
        <ele>1970.0</ele>
        <time>2018-06-24T14:53:39Z</time>
      </trkpt>
      <trkpt lat="40.234067" lon="-4.681817">
        <ele>1973.0</ele>
        <time>2018-06-24T14:53:40Z</time>
      </trkpt>
      <trkpt lat="40.234017" lon="-4.681933">
        <ele>1976.0</ele>
        <time>2018-06-24T14:53:41Z</time>
      </trkpt>
      <trkpt lat="40.234017" lon="-4.682067">
        <ele>1979.0</ele>
        <time>2018-06-24T14:53:42Z</time>
      </trkpt>
      <trkpt lat="40.234050" lon="-4.682183">
        <ele>1982.0</ele>
        <time>2018-06-24T14:53:43Z</time>
      </trkpt>
      <trkpt lat="40.234133" lon="-4.682283">
        <ele>1985.0</ele>
        <time>2018-06-24T14:53:44Z</time>
      </trkpt>
      <trkpt lat="40.234233" lon="-4.682333">
        <ele>1987.0</ele>
        <time>2018-06-24T14:53:45Z</time>
      </trkpt>
      <trkpt lat="40.234333" lon="-4.682333">
        <ele>1989.0</ele>
        <time>2018-06-24T14:53:46Z</time>
      </trkpt>
      <trkpt lat="40.234450" lon="-4.682267">
        <ele>1990.0</ele>
        <time>2018-06-24T14:53:47Z</time>
      </trkpt>
      <trkpt lat="40.234533" lon="-4.682150">
        <ele>1992.0</ele>
        <time>2018-06-24T14:53:48Z</time>
      </trkpt>
      <trkpt lat="40.234583" lon="-4.682000">
        <ele>1994.0</ele>
        <time>2018-06-24T14:53:49Z</time>
      </trkpt>
      <trkpt lat="40.234583" lon="-4.681867">
        <ele>1997.0</ele>
        <time>2018-06-24T14:53:50Z</time>
      </trkpt>
      <trkpt lat="40.234550" lon="-4.681733">
        <ele>2001.0</ele>
        <time>2018-06-24T14:53:51Z</time>
      </trkpt>
      <trkpt lat="40.234483" lon="-4.681650">
        <ele>2004.0</ele>
        <time>2018-06-24T14:53:52Z</time>
      </trkpt>
      <trkpt lat="40.234417" lon="-4.681600">
        <ele>2006.0</ele>
        <time>2018-06-24T14:53:53Z</time>
      </trkpt>
      <trkpt lat="40.234317" lon="-4.681600">
        <ele>2008.0</ele>
        <time>2018-06-24T14:53:54Z</time>
      </trkpt>
      <trkpt lat="40.234233" lon="-4.681633">
        <ele>2011.0</ele>
        <time>2018-06-24T14:53:55Z</time>
      </trkpt>
      <trkpt lat="40.234150" lon="-4.681733">
        <ele>2014.0</ele>
        <time>2018-06-24T14:53:56Z</time>
      </trkpt>
      <trkpt lat="40.234133" lon="-4.681883">
        <ele>2016.0</ele>
        <time>2018-06-24T14:53:57Z</time>
      </trkpt>
      <trkpt lat="40.234167" lon="-4.682017">
        <ele>2018.0</ele>
        <time>2018-06-24T14:53:58Z</time>
      </trkpt>
      <trkpt lat="40.234250" lon="-4.682133">
        <ele>2021.0</ele>
        <time>2018-06-24T14:53:59Z</time>
      </trkpt>
      <trkpt lat="40.234367" lon="-4.682183">
        <ele>2025.0</ele>
        <time>2018-06-24T14:54:00Z</time>
      </trkpt>
      <trkpt lat="40.234483" lon="-4.682183">
        <ele>2028.0</ele>
        <time>2018-06-24T14:54:01Z</time>
      </trkpt>
      <trkpt lat="40.234583" lon="-4.682117">
        <ele>2030.0</ele>
        <time>2018-06-24T14:54:02Z</time>
      </trkpt>
      <trkpt lat="40.234650" lon="-4.682017">
        <ele>2032.0</ele>
        <time>2018-06-24T14:54:03Z</time>
      </trkpt>
      <trkpt lat="40.234700" lon="-4.681883">
        <ele>2034.0</ele>
        <time>2018-06-24T14:54:04Z</time>
      </trkpt>
      <trkpt lat="40.234717" lon="-4.681750">
        <ele>2037.0</ele>
        <time>2018-06-24T14:54:05Z</time>
      </trkpt>
      <trkpt lat="40.234700" lon="-4.681617">
        <ele>2040.0</ele>
        <time>2018-06-24T14:54:06Z</time>
      </trkpt>
      <trkpt lat="40.234633" lon="-4.681517">
        <ele>2043.0</ele>
        <time>2018-06-24T14:54:07Z</time>
      </trkpt>
      <trkpt lat="40.234550" lon="-4.681450">
        <ele>2045.0</ele>
        <time>2018-06-24T14:54:08Z</time>
      </trkpt>
      <trkpt lat="40.234450" lon="-4.681450">
        <ele>2048.0</ele>
        <time>2018-06-24T14:54:09Z</time>
      </trkpt>
      <trkpt lat="40.234367" lon="-4.681517">
        <ele>2051.0</ele>
        <time>2018-06-24T14:54:10Z</time>
      </trkpt>
      <trkpt lat="40.234317" lon="-4.681633">
        <ele>2054.0</ele>
        <time>2018-06-24T14:54:11Z</time>
      </trkpt>
      <trkpt lat="40.234317" lon="-4.681767">
        <ele>2057.0</ele>
        <time>2018-06-24T14:54:12Z</time>
      </trkpt>
      <trkpt lat="40.234350" lon="-4.681900">
        <ele>2061.0</ele>
        <time>2018-06-24T14:54:13Z</time>
      </trkpt>
      <trkpt lat="40.234433" lon="-4.682000">
        <ele>2064.0</ele>
        <time>2018-06-24T14:54:14Z</time>
      </trkpt>
      <trkpt lat="40.234550" lon="-4.682033">
        <ele>2066.0</ele>
        <time>2018-06-24T14:54:15Z</time>
      </trkpt>
      <trkpt lat="40.234667" lon="-4.682017">
        <ele>2068.0</ele>
        <time>2018-06-24T14:54:16Z</time>
      </trkpt>
      <trkpt lat="40.234767" lon="-4.681933">
        <ele>2071.0</ele>
        <time>2018-06-24T14:54:17Z</time>
      </trkpt>
      <trkpt lat="40.234850" lon="-4.681817">
        <ele>2074.0</ele>
        <time>2018-06-24T14:54:18Z</time>
      </trkpt>
      <trkpt lat="40.234883" lon="-4.681700">
        <ele>2077.0</ele>
        <time>2018-06-24T14:54:19Z</time>
      </trkpt>
      <trkpt lat="40.234917" lon="-4.681567">
        <ele>2082.0</ele>
        <time>2018-06-24T14:54:20Z</time>
      </trkpt>
      <trkpt lat="40.234933" lon="-4.681450">
        <ele>2086.0</ele>
        <time>2018-06-24T14:54:21Z</time>
      </trkpt>
      <trkpt lat="40.234917" lon="-4.681350">
        <ele>2090.0</ele>
        <time>2018-06-24T14:54:22Z</time>
      </trkpt>
      <trkpt lat="40.234883" lon="-4.681267">
        <ele>2092.0</ele>
        <time>2018-06-24T14:54:23Z</time>
      </trkpt>
      <trkpt lat="40.234800" lon="-4.681200">
        <ele>2094.0</ele>
        <time>2018-06-24T14:54:24Z</time>
      </trkpt>
      <trkpt lat="40.234717" lon="-4.681183">
        <ele>2095.0</ele>
        <time>2018-06-24T14:54:25Z</time>
      </trkpt>
      <trkpt lat="40.234617" lon="-4.681233">
        <ele>2098.0</ele>
        <time>2018-06-24T14:54:26Z</time>
      </trkpt>
      <trkpt lat="40.234533" lon="-4.681333">
        <ele>2101.0</ele>
        <time>2018-06-24T14:54:27Z</time>
      </trkpt>
      <trkpt lat="40.234517" lon="-4.681467">
        <ele>2104.0</ele>
        <time>2018-06-24T14:54:28Z</time>
      </trkpt>
      <trkpt lat="40.234533" lon="-4.681617">
        <ele>2107.0</ele>
        <time>2018-06-24T14:54:29Z</time>
      </trkpt>
      <trkpt lat="40.234600" lon="-4.681733">
        <ele>2109.0</ele>
        <time>2018-06-24T14:54:30Z</time>
      </trkpt>
      <trkpt lat="40.234717" lon="-4.681817">
        <ele>2113.0</ele>
        <time>2018-06-24T14:54:31Z</time>
      </trkpt>
      <trkpt lat="40.234817" lon="-4.681833">
        <ele>2117.0</ele>
        <time>2018-06-24T14:54:32Z</time>
      </trkpt>
      <trkpt lat="40.234933" lon="-4.681800">
        <ele>2120.0</ele>
        <time>2018-06-24T14:54:33Z</time>
      </trkpt>
      <trkpt lat="40.235017" lon="-4.681733">
        <ele>2124.0</ele>
        <time>2018-06-24T14:54:34Z</time>
      </trkpt>
      <trkpt lat="40.235083" lon="-4.681617">
        <ele>2127.0</ele>
        <time>2018-06-24T14:54:35Z</time>
      </trkpt>
      <trkpt lat="40.235117" lon="-4.681500">
        <ele>2130.0</ele>
        <time>2018-06-24T14:54:36Z</time>
      </trkpt>
      <trkpt lat="40.235117" lon="-4.681367">
        <ele>2133.0</ele>
        <time>2018-06-24T14:54:37Z</time>
      </trkpt>
      <trkpt lat="40.235100" lon="-4.681233">
        <ele>2137.0</ele>
        <time>2018-06-24T14:54:38Z</time>
      </trkpt>
      <trkpt lat="40.235033" lon="-4.681150">
        <ele>2140.0</ele>
        <time>2018-06-24T14:54:39Z</time>
      </trkpt>
      <trkpt lat="40.234950" lon="-4.681100">
        <ele>2142.0</ele>
        <time>2018-06-24T14:54:40Z</time>
      </trkpt>
      <trkpt lat="40.234850" lon="-4.681100">
        <ele>2146.0</ele>
        <time>2018-06-24T14:54:41Z</time>
      </trkpt>
      <trkpt lat="40.234767" lon="-4.681150">
        <ele>2149.0</ele>
        <time>2018-06-24T14:54:42Z</time>
      </trkpt>
      <trkpt lat="40.234717" lon="-4.681250">
        <ele>2152.0</ele>
        <time>2018-06-24T14:54:43Z</time>
      </trkpt>
      <trkpt lat="40.234700" lon="-4.681383">
        <ele>2154.0</ele>
        <time>2018-06-24T14:54:44Z</time>
      </trkpt>
      <trkpt lat="40.234717" lon="-4.681517">
        <ele>2156.0</ele>
        <time>2018-06-24T14:54:45Z</time>
      </trkpt>
      <trkpt lat="40.234783" lon="-4.681650">
        <ele>2158.0</ele>
        <time>2018-06-24T14:54:46Z</time>
      </trkpt>
      <trkpt lat="40.234883" lon="-4.681733">
        <ele>2160.0</ele>
        <time>2018-06-24T14:54:47Z</time>
      </trkpt>
      <trkpt lat="40.235000" lon="-4.681767">
        <ele>2164.0</ele>
        <time>2018-06-24T14:54:48Z</time>
      </trkpt>
      <trkpt lat="40.235117" lon="-4.681750">
        <ele>2168.0</ele>
        <time>2018-06-24T14:54:49Z</time>
      </trkpt>
      <trkpt lat="40.235217" lon="-4.681700">
        <ele>2173.0</ele>
        <time>2018-06-24T14:54:50Z</time>
      </trkpt>
      <trkpt lat="40.235300" lon="-4.681617">
        <ele>2177.0</ele>
        <time>2018-06-24T14:54:51Z</time>
      </trkpt>
      <trkpt lat="40.235350" lon="-4.681533">
        <ele>2180.0</ele>
        <time>2018-06-24T14:54:52Z</time>
      </trkpt>
      <trkpt lat="40.235400" lon="-4.681417">
        <ele>2183.0</ele>
        <time>2018-06-24T14:54:53Z</time>
      </trkpt>
      <trkpt lat="40.235417" lon="-4.681283">
        <ele>2185.0</ele>
        <time>2018-06-24T14:54:54Z</time>
      </trkpt>
      <trkpt lat="40.235400" lon="-4.681167">
        <ele>2188.0</ele>
        <time>2018-06-24T14:54:55Z</time>
      </trkpt>
      <trkpt lat="40.235333" lon="-4.681050">
        <ele>2191.0</ele>
        <time>2018-06-24T14:54:56Z</time>
      </trkpt>
      <trkpt lat="40.235250" lon="-4.680983">
        <ele>2195.0</ele>
        <time>2018-06-24T14:54:57Z</time>
      </trkpt>
      <trkpt lat="40.235167" lon="-4.680967">
        <ele>2199.0</ele>
        <time>2018-06-24T14:54:58Z</time>
      </trkpt>
      <trkpt lat="40.235083" lon="-4.681000">
        <ele>2203.0</ele>
        <time>2018-06-24T14:54:59Z</time>
      </trkpt>
      <trkpt lat="40.235000" lon="-4.681067">
        <ele>2207.0</ele>
        <time>2018-06-24T14:55:00Z</time>
      </trkpt>
      <trkpt lat="40.234967" lon="-4.681167">
        <ele>2211.0</ele>
        <time>2018-06-24T14:55:01Z</time>
      </trkpt>
      <trkpt lat="40.234950" lon="-4.681300">
        <ele>2215.0</ele>
        <time>2018-06-24T14:55:02Z</time>
      </trkpt>
      <trkpt lat="40.234983" lon="-4.681433">
        <ele>2218.0</ele>
        <time>2018-06-24T14:55:03Z</time>
      </trkpt>
      <trkpt lat="40.235050" lon="-4.681550">
        <ele>2220.0</ele>
        <time>2018-06-24T14:55:04Z</time>
      </trkpt>
      <trkpt lat="40.235150" lon="-4.681617">
        <ele>2222.0</ele>
        <time>2018-06-24T14:55:05Z</time>
      </trkpt>
      <trkpt lat="40.235283" lon="-4.681633">
        <ele>2225.0</ele>
        <time>2018-06-24T14:55:06Z</time>
      </trkpt>
      <trkpt lat="40.235400" lon="-4.681583">
        <ele>2228.0</ele>
        <time>2018-06-24T14:55:07Z</time>
      </trkpt>
      <trkpt lat="40.235483" lon="-4.681467">
        <ele>2232.0</ele>
        <time>2018-06-24T14:55:08Z</time>
      </trkpt>
      <trkpt lat="40.235533" lon="-4.681350">
        <ele>2236.0</ele>
        <time>2018-06-24T14:55:09Z</time>
      </trkpt>
      <trkpt lat="40.235550" lon="-4.681217">
        <ele>2239.0</ele>
        <time>2018-06-24T14:55:10Z</time>
      </trkpt>
      <trkpt lat="40.235533" lon="-4.681083">
        <ele>2243.0</ele>
        <time>2018-06-24T14:55:11Z</time>
      </trkpt>
      <trkpt lat="40.235500" lon="-4.680967">
        <ele>2247.0</ele>
        <time>2018-06-24T14:55:12Z</time>
      </trkpt>
      <trkpt lat="40.235433" lon="-4.680900">
        <ele>2250.0</ele>
        <time>2018-06-24T14:55:13Z</time>
      </trkpt>
      <trkpt lat="40.235350" lon="-4.680850">
        <ele>2253.0</ele>
        <time>2018-06-24T14:55:14Z</time>
      </trkpt>
      <trkpt lat="40.235250" lon="-4.680883">
        <ele>2255.0</ele>
        <time>2018-06-24T14:55:15Z</time>
      </trkpt>
      <trkpt lat="40.235183" lon="-4.680967">
        <ele>2258.0</ele>
        <time>2018-06-24T14:55:16Z</time>
      </trkpt>
      <trkpt lat="40.235133" lon="-4.681083">
        <ele>2261.0</ele>
        <time>2018-06-24T14:55:17Z</time>
      </trkpt>
      <trkpt lat="40.235150" lon="-4.681233">
        <ele>2265.0</ele>
        <time>2018-06-24T14:55:18Z</time>
      </trkpt>
      <trkpt lat="40.235217" lon="-4.681350">
        <ele>2267.0</ele>
        <time>2018-06-24T14:55:19Z</time>
      </trkpt>
      <trkpt lat="40.235317" lon="-4.681417">
        <ele>2270.0</ele>
        <time>2018-06-24T14:55:20Z</time>
      </trkpt>
      <trkpt lat="40.235450" lon="-4.681417">
        <ele>2272.0</ele>
        <time>2018-06-24T14:55:21Z</time>
      </trkpt>
      <trkpt lat="40.235567" lon="-4.681350">
        <ele>2275.0</ele>
        <time>2018-06-24T14:55:22Z</time>
      </trkpt>
      <trkpt lat="40.235633" lon="-4.681217">
        <ele>2279.0</ele>
        <time>2018-06-24T14:55:23Z</time>
      </trkpt>
      <trkpt lat="40.235650" lon="-4.681050">
        <ele>2283.0</ele>
        <time>2018-06-24T14:55:24Z</time>
      </trkpt>
      <trkpt lat="40.235617" lon="-4.680917">
        <ele>2288.0</ele>
        <time>2018-06-24T14:55:25Z</time>
      </trkpt>
      <trkpt lat="40.235533" lon="-4.680833">
        <ele>2292.0</ele>
        <time>2018-06-24T14:55:26Z</time>
      </trkpt>
      <trkpt lat="40.235467" lon="-4.680783">
        <ele>2297.0</ele>
        <time>2018-06-24T14:55:27Z</time>
      </trkpt>
      <trkpt lat="40.235400" lon="-4.680767">
        <ele>2301.0</ele>
        <time>2018-06-24T14:55:28Z</time>
      </trkpt>
      <trkpt lat="40.235317" lon="-4.680783">
        <ele>2305.0</ele>
        <time>2018-06-24T14:55:29Z</time>
      </trkpt>
      <trkpt lat="40.235267" lon="-4.680833">
        <ele>2308.0</ele>
        <time>2018-06-24T14:55:30Z</time>
      </trkpt>
      <trkpt lat="40.235200" lon="-4.680917">
        <ele>2310.0</ele>
        <time>2018-06-24T14:55:31Z</time>
      </trkpt>
      <trkpt lat="40.235167" lon="-4.681033">
        <ele>2312.0</ele>
        <time>2018-06-24T14:55:32Z</time>
      </trkpt>
      <trkpt lat="40.235167" lon="-4.681167">
        <ele>2314.0</ele>
        <time>2018-06-24T14:55:33Z</time>
      </trkpt>
      <trkpt lat="40.235217" lon="-4.681300">
        <ele>2317.0</ele>
        <time>2018-06-24T14:55:34Z</time>
      </trkpt>
      <trkpt lat="40.235300" lon="-4.681400">
        <ele>2319.0</ele>
        <time>2018-06-24T14:55:35Z</time>
      </trkpt>
      <trkpt lat="40.235417" lon="-4.681450">
        <ele>2322.0</ele>
        <time>2018-06-24T14:55:36Z</time>
      </trkpt>
      <trkpt lat="40.235533" lon="-4.681467">
        <ele>2325.0</ele>
        <time>2018-06-24T14:55:37Z</time>
      </trkpt>
      <trkpt lat="40.235633" lon="-4.681433">
        <ele>2330.0</ele>
        <time>2018-06-24T14:55:38Z</time>
      </trkpt>
      <trkpt lat="40.235717" lon="-4.681367">
        <ele>2334.0</ele>
        <time>2018-06-24T14:55:39Z</time>
      </trkpt>
      <trkpt lat="40.235800" lon="-4.681267">
        <ele>2336.0</ele>
        <time>2018-06-24T14:55:40Z</time>
      </trkpt>
      <trkpt lat="40.235850" lon="-4.681133">
        <ele>2339.0</ele>
        <time>2018-06-24T14:55:41Z</time>
      </trkpt>
      <trkpt lat="40.235867" lon="-4.680983">
        <ele>2342.0</ele>
        <time>2018-06-24T14:55:42Z</time>
      </trkpt>
      <trkpt lat="40.235867" lon="-4.680850">
        <ele>2347.0</ele>
        <time>2018-06-24T14:55:43Z</time>
      </trkpt>
      <trkpt lat="40.235833" lon="-4.680750">
        <ele>2351.0</ele>
        <time>2018-06-24T14:55:44Z</time>
      </trkpt>
      <trkpt lat="40.235767" lon="-4.680650">
        <ele>2355.0</ele>
        <time>2018-06-24T14:55:45Z</time>
      </trkpt>
      <trkpt lat="40.235683" lon="-4.680600">
        <ele>2358.0</ele>
        <time>2018-06-24T14:55:46Z</time>
      </trkpt>
      <trkpt lat="40.235583" lon="-4.680600">
        <ele>2361.0</ele>
        <time>2018-06-24T14:55:47Z</time>
      </trkpt>
      <trkpt lat="40.235500" lon="-4.680633">
        <ele>2364.0</ele>
        <time>2018-06-24T14:55:48Z</time>
      </trkpt>
      <trkpt lat="40.235433" lon="-4.680717">
        <ele>2367.0</ele>
        <time>2018-06-24T14:55:49Z</time>
      </trkpt>
      <trkpt lat="40.235400" lon="-4.680833">
        <ele>2370.0</ele>
        <time>2018-06-24T14:55:50Z</time>
      </trkpt>
      <trkpt lat="40.235417" lon="-4.680967">
        <ele>2373.0</ele>
        <time>2018-06-24T14:55:51Z</time>
      </trkpt>
      <trkpt lat="40.235467" lon="-4.681100">
        <ele>2376.0</ele>
        <time>2018-06-24T14:55:52Z</time>
      </trkpt>
      <trkpt lat="40.235533" lon="-4.681200">
        <ele>2380.0</ele>
        <time>2018-06-24T14:55:53Z</time>
      </trkpt>
      <trkpt lat="40.235633" lon="-4.681267">
        <ele>2384.0</ele>
        <time>2018-06-24T14:55:54Z</time>
      </trkpt>
      <trkpt lat="40.235733" lon="-4.681283">
        <ele>2389.0</ele>
        <time>2018-06-24T14:55:55Z</time>
      </trkpt>
      <trkpt lat="40.235833" lon="-4.681250">
        <ele>2392.0</ele>
        <time>2018-06-24T14:55:56Z</time>
      </trkpt>
      <trkpt lat="40.235917" lon="-4.681200">
        <ele>2395.0</ele>
        <time>2018-06-24T14:55:57Z</time>
      </trkpt>
      <trkpt lat="40.236017" lon="-4.681117">
        <ele>2398.0</ele>
        <time>2018-06-24T14:55:58Z</time>
      </trkpt>
      <trkpt lat="40.236083" lon="-4.681017">
        <ele>2401.0</ele>
        <time>2018-06-24T14:55:59Z</time>
      </trkpt>
      <trkpt lat="40.236133" lon="-4.680883">
        <ele>2404.0</ele>
        <time>2018-06-24T14:56:00Z</time>
      </trkpt>
      <trkpt lat="40.236133" lon="-4.680750">
        <ele>2407.0</ele>
        <time>2018-06-24T14:56:01Z</time>
      </trkpt>
      <trkpt lat="40.236117" lon="-4.680617">
        <ele>2411.0</ele>
        <time>2018-06-24T14:56:02Z</time>
      </trkpt>
      <trkpt lat="40.236067" lon="-4.680500">
        <ele>2414.0</ele>
        <time>2018-06-24T14:56:03Z</time>
      </trkpt>
      <trkpt lat="40.235983" lon="-4.680417">
        <ele>2418.0</ele>
        <time>2018-06-24T14:56:04Z</time>
      </trkpt>
      <trkpt lat="40.235917" lon="-4.680383">
        <ele>2422.0</ele>
        <time>2018-06-24T14:56:05Z</time>
      </trkpt>
      <trkpt lat="40.235833" lon="-4.680400">
        <ele>2425.0</ele>
        <time>2018-06-24T14:56:06Z</time>
      </trkpt>
      <trkpt lat="40.235767" lon="-4.680450">
        <ele>2427.0</ele>
        <time>2018-06-24T14:56:07Z</time>
      </trkpt>
      <trkpt lat="40.235700" lon="-4.680533">
        <ele>2428.0</ele>
        <time>2018-06-24T14:56:08Z</time>
      </trkpt>
      <trkpt lat="40.235667" lon="-4.680650">
        <ele>2430.0</ele>
        <time>2018-06-24T14:56:09Z</time>
      </trkpt>
      <trkpt lat="40.235650" lon="-4.680800">
        <ele>2432.0</ele>
        <time>2018-06-24T14:56:10Z</time>
      </trkpt>
      <trkpt lat="40.235700" lon="-4.680950">
        <ele>2435.0</ele>
        <time>2018-06-24T14:56:11Z</time>
      </trkpt>
      <trkpt lat="40.235783" lon="-4.681067">
        <ele>2438.0</ele>
        <time>2018-06-24T14:56:12Z</time>
      </trkpt>
      <trkpt lat="40.235883" lon="-4.681133">
        <ele>2442.0</ele>
        <time>2018-06-24T14:56:13Z</time>
      </trkpt>
      <trkpt lat="40.236000" lon="-4.681167">
        <ele>2446.0</ele>
        <time>2018-06-24T14:56:14Z</time>
      </trkpt>
      <trkpt lat="40.236100" lon="-4.681133">
        <ele>2450.0</ele>
        <time>2018-06-24T14:56:15Z</time>
      </trkpt>
      <trkpt lat="40.236183" lon="-4.681083">
        <ele>2453.0</ele>
        <time>2018-06-24T14:56:16Z</time>
      </trkpt>
      <trkpt lat="40.236267" lon="-4.681000">
        <ele>2456.0</ele>
        <time>2018-06-24T14:56:17Z</time>
      </trkpt>
      <trkpt lat="40.236333" lon="-4.680883">
        <ele>2459.0</ele>
        <time>2018-06-24T14:56:18Z</time>
      </trkpt>
      <trkpt lat="40.236383" lon="-4.680767">
        <ele>2463.0</ele>
        <time>2018-06-24T14:56:19Z</time>
      </trkpt>
      <trkpt lat="40.236417" lon="-4.680650">
        <ele>2467.0</ele>
        <time>2018-06-24T14:56:20Z</time>
      </trkpt>
      <trkpt lat="40.236433" lon="-4.680533">
        <ele>2471.0</ele>
        <time>2018-06-24T14:56:21Z</time>
      </trkpt>
      <trkpt lat="40.236450" lon="-4.680400">
        <ele>2475.0</ele>
        <time>2018-06-24T14:56:22Z</time>
      </trkpt>
      <trkpt lat="40.236467" lon="-4.680267">
        <ele>2478.0</ele>
        <time>2018-06-24T14:56:23Z</time>
      </trkpt>
      <trkpt lat="40.236500" lon="-4.680117">
        <ele>2482.0</ele>
        <time>2018-06-24T14:56:24Z</time>
      </trkpt>
      <trkpt lat="40.236533" lon="-4.680000">
        <ele>2486.0</ele>
        <time>2018-06-24T14:56:25Z</time>
      </trkpt>
      <trkpt lat="40.236583" lon="-4.679867">
        <ele>2489.0</ele>
        <time>2018-06-24T14:56:26Z</time>
      </trkpt>
      <trkpt lat="40.236600" lon="-4.679733">
        <ele>2493.0</ele>
        <time>2018-06-24T14:56:27Z</time>
      </trkpt>
      <trkpt lat="40.236617" lon="-4.679600">
        <ele>2496.0</ele>
        <time>2018-06-24T14:56:28Z</time>
      </trkpt>
      <trkpt lat="40.236633" lon="-4.679467">
        <ele>2499.0</ele>
        <time>2018-06-24T14:56:29Z</time>
      </trkpt>
      <trkpt lat="40.236633" lon="-4.679317">
        <ele>2502.0</ele>
        <time>2018-06-24T14:56:30Z</time>
      </trkpt>
      <trkpt lat="40.236650" lon="-4.679183">
        <ele>2506.0</ele>
        <time>2018-06-24T14:56:31Z</time>
      </trkpt>
      <trkpt lat="40.236650" lon="-4.679033">
        <ele>2510.0</ele>
        <time>2018-06-24T14:56:32Z</time>
      </trkpt>
      <trkpt lat="40.236650" lon="-4.678883">
        <ele>2514.0</ele>
        <time>2018-06-24T14:56:33Z</time>
      </trkpt>
      <trkpt lat="40.236650" lon="-4.678750">
        <ele>2517.0</ele>
        <time>2018-06-24T14:56:34Z</time>
      </trkpt>
      <trkpt lat="40.236633" lon="-4.678600">
        <ele>2521.0</ele>
        <time>2018-06-24T14:56:35Z</time>
      </trkpt>
      <trkpt lat="40.236617" lon="-4.678467">
        <ele>2524.0</ele>
        <time>2018-06-24T14:56:36Z</time>
      </trkpt>
      <trkpt lat="40.236600" lon="-4.678333">
        <ele>2526.0</ele>
        <time>2018-06-24T14:56:37Z</time>
      </trkpt>
      <trkpt lat="40.236583" lon="-4.678200">
        <ele>2528.0</ele>
        <time>2018-06-24T14:56:38Z</time>
      </trkpt>
      <trkpt lat="40.236583" lon="-4.678050">
        <ele>2531.0</ele>
        <time>2018-06-24T14:56:39Z</time>
      </trkpt>
      <trkpt lat="40.236583" lon="-4.677900">
        <ele>2533.0</ele>
        <time>2018-06-24T14:56:40Z</time>
      </trkpt>
      <trkpt lat="40.236567" lon="-4.677733">
        <ele>2535.0</ele>
        <time>2018-06-24T14:56:41Z</time>
      </trkpt>
      <trkpt lat="40.236567" lon="-4.677567">
        <ele>2538.0</ele>
        <time>2018-06-24T14:56:42Z</time>
      </trkpt>
      <trkpt lat="40.236567" lon="-4.677417">
        <ele>2542.0</ele>
        <time>2018-06-24T14:56:43Z</time>
      </trkpt>
      <trkpt lat="40.236567" lon="-4.677267">
        <ele>2545.0</ele>
        <time>2018-06-24T14:56:44Z</time>
      </trkpt>
      <trkpt lat="40.236550" lon="-4.677133">
        <ele>2548.0</ele>
        <time>2018-06-24T14:56:45Z</time>
      </trkpt>
      <trkpt lat="40.236550" lon="-4.676983">
        <ele>2550.0</ele>
        <time>2018-06-24T14:56:46Z</time>
      </trkpt>
      <trkpt lat="40.236550" lon="-4.676833">
        <ele>2551.0</ele>
        <time>2018-06-24T14:56:47Z</time>
      </trkpt>
      <trkpt lat="40.236533" lon="-4.676683">
        <ele>2552.0</ele>
        <time>2018-06-24T14:56:48Z</time>
      </trkpt>
      <trkpt lat="40.236533" lon="-4.676517">
        <ele>2554.0</ele>
        <time>2018-06-24T14:56:49Z</time>
      </trkpt>
      <trkpt lat="40.236533" lon="-4.676350">
        <ele>2557.0</ele>
        <time>2018-06-24T14:56:50Z</time>
      </trkpt>
      <trkpt lat="40.236533" lon="-4.676233">
        <ele>2561.0</ele>
        <time>2018-06-24T14:56:51Z</time>
      </trkpt>
      <trkpt lat="40.236533" lon="-4.676117">
        <ele>2564.0</ele>
        <time>2018-06-24T14:56:52Z</time>
      </trkpt>
      <trkpt lat="40.236550" lon="-4.676017">
        <ele>2566.0</ele>
        <time>2018-06-24T14:56:53Z</time>
      </trkpt>
      <trkpt lat="40.236550" lon="-4.675900">
        <ele>2567.0</ele>
        <time>2018-06-24T14:56:54Z</time>
      </trkpt>
      <trkpt lat="40.236550" lon="-4.675767">
        <ele>2568.0</ele>
        <time>2018-06-24T14:56:55Z</time>
      </trkpt>
      <trkpt lat="40.236550" lon="-4.675633">
        <ele>2570.0</ele>
        <time>2018-06-24T14:56:56Z</time>
      </trkpt>
      <trkpt lat="40.236533" lon="-4.675500">
        <ele>2571.0</ele>
        <time>2018-06-24T14:56:57Z</time>
      </trkpt>
      <trkpt lat="40.236533" lon="-4.675350">
        <ele>2574.0</ele>
        <time>2018-06-24T14:56:58Z</time>
      </trkpt>
      <trkpt lat="40.236533" lon="-4.675217">
        <ele>2576.0</ele>
        <time>2018-06-24T14:56:59Z</time>
      </trkpt>
      <trkpt lat="40.236533" lon="-4.675083">
        <ele>2578.0</ele>
        <time>2018-06-24T14:57:00Z</time>
      </trkpt>
      <trkpt lat="40.236533" lon="-4.674950">
        <ele>2579.0</ele>
        <time>2018-06-24T14:57:01Z</time>
      </trkpt>
      <trkpt lat="40.236533" lon="-4.674817">
        <ele>2580.0</ele>
        <time>2018-06-24T14:57:02Z</time>
      </trkpt>
      <trkpt lat="40.236533" lon="-4.674683">
        <ele>2581.0</ele>
        <time>2018-06-24T14:57:03Z</time>
      </trkpt>
      <trkpt lat="40.236533" lon="-4.674550">
        <ele>2581.0</ele>
        <time>2018-06-24T14:57:04Z</time>
      </trkpt>
      <trkpt lat="40.236533" lon="-4.674417">
        <ele>2581.0</ele>
        <time>2018-06-24T14:57:05Z</time>
      </trkpt>
      <trkpt lat="40.236533" lon="-4.674267">
        <ele>2581.0</ele>
        <time>2018-06-24T14:57:06Z</time>
      </trkpt>
      <trkpt lat="40.236533" lon="-4.674133">
        <ele>2580.0</ele>
        <time>2018-06-24T14:57:07Z</time>
      </trkpt>
      <trkpt lat="40.236533" lon="-4.673983">
        <ele>2579.0</ele>
        <time>2018-06-24T14:57:08Z</time>
      </trkpt>
      <trkpt lat="40.236533" lon="-4.673867">
        <ele>2578.0</ele>
        <time>2018-06-24T14:57:09Z</time>
      </trkpt>
      <trkpt lat="40.236533" lon="-4.673733">
        <ele>2577.0</ele>
        <time>2018-06-24T14:57:10Z</time>
      </trkpt>
      <trkpt lat="40.236533" lon="-4.673600">
        <ele>2577.0</ele>
        <time>2018-06-24T14:57:11Z</time>
      </trkpt>
      <trkpt lat="40.236533" lon="-4.673467">
        <ele>2575.0</ele>
        <time>2018-06-24T14:57:12Z</time>
      </trkpt>
      <trkpt lat="40.236533" lon="-4.673333">
        <ele>2573.0</ele>
        <time>2018-06-24T14:57:13Z</time>
      </trkpt>
      <trkpt lat="40.236550" lon="-4.673200">
        <ele>2570.0</ele>
        <time>2018-06-24T14:57:14Z</time>
      </trkpt>
      <trkpt lat="40.236550" lon="-4.673050">
        <ele>2566.0</ele>
        <time>2018-06-24T14:57:15Z</time>
      </trkpt>
      <trkpt lat="40.236550" lon="-4.672917">
        <ele>2562.0</ele>
        <time>2018-06-24T14:57:16Z</time>
      </trkpt>
      <trkpt lat="40.236567" lon="-4.672783">
        <ele>2559.0</ele>
        <time>2018-06-24T14:57:17Z</time>
      </trkpt>
      <trkpt lat="40.236567" lon="-4.672633">
        <ele>2557.0</ele>
        <time>2018-06-24T14:57:18Z</time>
      </trkpt>
      <trkpt lat="40.236567" lon="-4.672500">
        <ele>2555.0</ele>
        <time>2018-06-24T14:57:19Z</time>
      </trkpt>
      <trkpt lat="40.236583" lon="-4.672350">
        <ele>2552.0</ele>
        <time>2018-06-24T14:57:20Z</time>
      </trkpt>
      <trkpt lat="40.236583" lon="-4.672200">
        <ele>2549.0</ele>
        <time>2018-06-24T14:57:21Z</time>
      </trkpt>
      <trkpt lat="40.236600" lon="-4.672033">
        <ele>2546.0</ele>
        <time>2018-06-24T14:57:22Z</time>
      </trkpt>
      <trkpt lat="40.236617" lon="-4.671867">
        <ele>2543.0</ele>
        <time>2018-06-24T14:57:23Z</time>
      </trkpt>
      <trkpt lat="40.236617" lon="-4.671700">
        <ele>2540.0</ele>
        <time>2018-06-24T14:57:24Z</time>
      </trkpt>
      <trkpt lat="40.236617" lon="-4.671533">
        <ele>2538.0</ele>
        <time>2018-06-24T14:57:25Z</time>
      </trkpt>
      <trkpt lat="40.236617" lon="-4.671350">
        <ele>2536.0</ele>
        <time>2018-06-24T14:57:26Z</time>
      </trkpt>
      <trkpt lat="40.236633" lon="-4.671183">
        <ele>2535.0</ele>
        <time>2018-06-24T14:57:27Z</time>
      </trkpt>
      <trkpt lat="40.236633" lon="-4.671017">
        <ele>2533.0</ele>
        <time>2018-06-24T14:57:28Z</time>
      </trkpt>
      <trkpt lat="40.236650" lon="-4.670867">
        <ele>2532.0</ele>
        <time>2018-06-24T14:57:29Z</time>
      </trkpt>
      <trkpt lat="40.236667" lon="-4.670700">
        <ele>2530.0</ele>
        <time>2018-06-24T14:57:30Z</time>
      </trkpt>
      <trkpt lat="40.236667" lon="-4.670533">
        <ele>2527.0</ele>
        <time>2018-06-24T14:57:31Z</time>
      </trkpt>
      <trkpt lat="40.236667" lon="-4.670367">
        <ele>2525.0</ele>
        <time>2018-06-24T14:57:32Z</time>
      </trkpt>
      <trkpt lat="40.236683" lon="-4.670183">
        <ele>2523.0</ele>
        <time>2018-06-24T14:57:33Z</time>
      </trkpt>
      <trkpt lat="40.236683" lon="-4.670017">
        <ele>2521.0</ele>
        <time>2018-06-24T14:57:34Z</time>
      </trkpt>
      <trkpt lat="40.236683" lon="-4.669850">
        <ele>2518.0</ele>
        <time>2018-06-24T14:57:35Z</time>
      </trkpt>
      <trkpt lat="40.236700" lon="-4.669667">
        <ele>2516.0</ele>
        <time>2018-06-24T14:57:36Z</time>
      </trkpt>
      <trkpt lat="40.236683" lon="-4.669483">
        <ele>2514.0</ele>
        <time>2018-06-24T14:57:37Z</time>
      </trkpt>
      <trkpt lat="40.236683" lon="-4.669317">
        <ele>2512.0</ele>
        <time>2018-06-24T14:57:38Z</time>
      </trkpt>
      <trkpt lat="40.236683" lon="-4.669150">
        <ele>2511.0</ele>
        <time>2018-06-24T14:57:39Z</time>
      </trkpt>
      <trkpt lat="40.236683" lon="-4.668967">
        <ele>2510.0</ele>
        <time>2018-06-24T14:57:40Z</time>
      </trkpt>
      <trkpt lat="40.236700" lon="-4.668800">
        <ele>2508.0</ele>
        <time>2018-06-24T14:57:41Z</time>
      </trkpt>
      <trkpt lat="40.236717" lon="-4.668633">
        <ele>2507.0</ele>
        <time>2018-06-24T14:57:42Z</time>
      </trkpt>
      <trkpt lat="40.236717" lon="-4.668450">
        <ele>2506.0</ele>
        <time>2018-06-24T14:57:43Z</time>
      </trkpt>
      <trkpt lat="40.236717" lon="-4.668267">
        <ele>2505.0</ele>
        <time>2018-06-24T14:57:44Z</time>
      </trkpt>
      <trkpt lat="40.236733" lon="-4.668100">
        <ele>2504.0</ele>
        <time>2018-06-24T14:57:45Z</time>
      </trkpt>
      <trkpt lat="40.236733" lon="-4.667917">
        <ele>2504.0</ele>
        <time>2018-06-24T14:57:46Z</time>
      </trkpt>
      <trkpt lat="40.236750" lon="-4.667750">
        <ele>2504.0</ele>
        <time>2018-06-24T14:57:47Z</time>
      </trkpt>
      <trkpt lat="40.236750" lon="-4.667583">
        <ele>2503.0</ele>
        <time>2018-06-24T14:57:48Z</time>
      </trkpt>
      <trkpt lat="40.236783" lon="-4.667400">
        <ele>2502.0</ele>
        <time>2018-06-24T14:57:49Z</time>
      </trkpt>
      <trkpt lat="40.236800" lon="-4.667217">
        <ele>2501.0</ele>
        <time>2018-06-24T14:57:50Z</time>
      </trkpt>
      <trkpt lat="40.236800" lon="-4.667033">
        <ele>2501.0</ele>
        <time>2018-06-24T14:57:51Z</time>
      </trkpt>
      <trkpt lat="40.236817" lon="-4.666850">
        <ele>2501.0</ele>
        <time>2018-06-24T14:57:52Z</time>
      </trkpt>
      <trkpt lat="40.236833" lon="-4.666683">
        <ele>2500.0</ele>
        <time>2018-06-24T14:57:53Z</time>
      </trkpt>
      <trkpt lat="40.236850" lon="-4.666500">
        <ele>2500.0</ele>
        <time>2018-06-24T14:57:54Z</time>
      </trkpt>
      <trkpt lat="40.236883" lon="-4.666317">
        <ele>2499.0</ele>
        <time>2018-06-24T14:57:55Z</time>
      </trkpt>
      <trkpt lat="40.236900" lon="-4.666150">
        <ele>2497.0</ele>
        <time>2018-06-24T14:57:56Z</time>
      </trkpt>
      <trkpt lat="40.236900" lon="-4.665967">
        <ele>2495.0</ele>
        <time>2018-06-24T14:57:57Z</time>
      </trkpt>
      <trkpt lat="40.236917" lon="-4.665783">
        <ele>2494.0</ele>
        <time>2018-06-24T14:57:58Z</time>
      </trkpt>
      <trkpt lat="40.236933" lon="-4.665617">
        <ele>2493.0</ele>
        <time>2018-06-24T14:57:59Z</time>
      </trkpt>
      <trkpt lat="40.236950" lon="-4.665450">
        <ele>2491.0</ele>
        <time>2018-06-24T14:58:00Z</time>
      </trkpt>
      <trkpt lat="40.236967" lon="-4.665283">
        <ele>2489.0</ele>
        <time>2018-06-24T14:58:01Z</time>
      </trkpt>
      <trkpt lat="40.236983" lon="-4.665117">
        <ele>2486.0</ele>
        <time>2018-06-24T14:58:02Z</time>
      </trkpt>
      <trkpt lat="40.237000" lon="-4.664933">
        <ele>2483.0</ele>
        <time>2018-06-24T14:58:03Z</time>
      </trkpt>
      <trkpt lat="40.237033" lon="-4.664750">
        <ele>2480.0</ele>
        <time>2018-06-24T14:58:04Z</time>
      </trkpt>
      <trkpt lat="40.237050" lon="-4.664567">
        <ele>2477.0</ele>
        <time>2018-06-24T14:58:05Z</time>
      </trkpt>
      <trkpt lat="40.237067" lon="-4.664383">
        <ele>2474.0</ele>
        <time>2018-06-24T14:58:06Z</time>
      </trkpt>
      <trkpt lat="40.237100" lon="-4.664217">
        <ele>2472.0</ele>
        <time>2018-06-24T14:58:07Z</time>
      </trkpt>
      <trkpt lat="40.237117" lon="-4.664033">
        <ele>2470.0</ele>
        <time>2018-06-24T14:58:08Z</time>
      </trkpt>
      <trkpt lat="40.237133" lon="-4.663850">
        <ele>2467.0</ele>
        <time>2018-06-24T14:58:09Z</time>
      </trkpt>
      <trkpt lat="40.237150" lon="-4.663667">
        <ele>2464.0</ele>
        <time>2018-06-24T14:58:10Z</time>
      </trkpt>
      <trkpt lat="40.237183" lon="-4.663433">
        <ele>2461.0</ele>
        <time>2018-06-24T14:58:11Z</time>
      </trkpt>
      <trkpt lat="40.237200" lon="-4.663283">
        <ele>2459.0</ele>
        <time>2018-06-24T14:58:12Z</time>
      </trkpt>
      <trkpt lat="40.237233" lon="-4.663100">
        <ele>2458.0</ele>
        <time>2018-06-24T14:58:13Z</time>
      </trkpt>
      <trkpt lat="40.237267" lon="-4.662917">
        <ele>2456.0</ele>
        <time>2018-06-24T14:58:14Z</time>
      </trkpt>
      <trkpt lat="40.237300" lon="-4.662733">
        <ele>2455.0</ele>
        <time>2018-06-24T14:58:15Z</time>
      </trkpt>
      <trkpt lat="40.237333" lon="-4.662567">
        <ele>2453.0</ele>
        <time>2018-06-24T14:58:16Z</time>
      </trkpt>
      <trkpt lat="40.237367" lon="-4.662383">
        <ele>2451.0</ele>
        <time>2018-06-24T14:58:17Z</time>
      </trkpt>
      <trkpt lat="40.237417" lon="-4.662217">
        <ele>2449.0</ele>
        <time>2018-06-24T14:58:18Z</time>
      </trkpt>
      <trkpt lat="40.237450" lon="-4.662033">
        <ele>2447.0</ele>
        <time>2018-06-24T14:58:19Z</time>
      </trkpt>
      <trkpt lat="40.237483" lon="-4.661850">
        <ele>2444.0</ele>
        <time>2018-06-24T14:58:20Z</time>
      </trkpt>
      <trkpt lat="40.237517" lon="-4.661683">
        <ele>2443.0</ele>
        <time>2018-06-24T14:58:21Z</time>
      </trkpt>
      <trkpt lat="40.237550" lon="-4.661500">
        <ele>2441.0</ele>
        <time>2018-06-24T14:58:22Z</time>
      </trkpt>
      <trkpt lat="40.237583" lon="-4.661317">
        <ele>2441.0</ele>
        <time>2018-06-24T14:58:23Z</time>
      </trkpt>
      <trkpt lat="40.237617" lon="-4.661150">
        <ele>2440.0</ele>
        <time>2018-06-24T14:58:24Z</time>
      </trkpt>
      <trkpt lat="40.237650" lon="-4.661000">
        <ele>2439.0</ele>
        <time>2018-06-24T14:58:25Z</time>
      </trkpt>
      <trkpt lat="40.237683" lon="-4.660833">
        <ele>2436.0</ele>
        <time>2018-06-24T14:58:26Z</time>
      </trkpt>
      <trkpt lat="40.237700" lon="-4.660667">
        <ele>2433.0</ele>
        <time>2018-06-24T14:58:27Z</time>
      </trkpt>
      <trkpt lat="40.237733" lon="-4.660483">
        <ele>2429.0</ele>
        <time>2018-06-24T14:58:28Z</time>
      </trkpt>
      <trkpt lat="40.237750" lon="-4.660317">
        <ele>2425.0</ele>
        <time>2018-06-24T14:58:29Z</time>
      </trkpt>
      <trkpt lat="40.237783" lon="-4.660117">
        <ele>2421.0</ele>
        <time>2018-06-24T14:58:30Z</time>
      </trkpt>
      <trkpt lat="40.237800" lon="-4.659933">
        <ele>2418.0</ele>
        <time>2018-06-24T14:58:31Z</time>
      </trkpt>
      <trkpt lat="40.237833" lon="-4.659750">
        <ele>2416.0</ele>
        <time>2018-06-24T14:58:32Z</time>
      </trkpt>
      <trkpt lat="40.237850" lon="-4.659567">
        <ele>2414.0</ele>
        <time>2018-06-24T14:58:33Z</time>
      </trkpt>
      <trkpt lat="40.237883" lon="-4.659383">
        <ele>2411.0</ele>
        <time>2018-06-24T14:58:34Z</time>
      </trkpt>
      <trkpt lat="40.237900" lon="-4.659200">
        <ele>2409.0</ele>
        <time>2018-06-24T14:58:35Z</time>
      </trkpt>
      <trkpt lat="40.237917" lon="-4.659017">
        <ele>2406.0</ele>
        <time>2018-06-24T14:58:36Z</time>
      </trkpt>
      <trkpt lat="40.237950" lon="-4.658833">
        <ele>2402.0</ele>
        <time>2018-06-24T14:58:37Z</time>
      </trkpt>
      <trkpt lat="40.237950" lon="-4.658650">
        <ele>2399.0</ele>
        <time>2018-06-24T14:58:38Z</time>
      </trkpt>
      <trkpt lat="40.237967" lon="-4.658467">
        <ele>2396.0</ele>
        <time>2018-06-24T14:58:39Z</time>
      </trkpt>
      <trkpt lat="40.237967" lon="-4.658300">
        <ele>2394.0</ele>
        <time>2018-06-24T14:58:40Z</time>
      </trkpt>
      <trkpt lat="40.237983" lon="-4.658133">
        <ele>2392.0</ele>
        <time>2018-06-24T14:58:41Z</time>
      </trkpt>
      <trkpt lat="40.238000" lon="-4.657967">
        <ele>2389.0</ele>
        <time>2018-06-24T14:58:42Z</time>
      </trkpt>
      <trkpt lat="40.238033" lon="-4.657800">
        <ele>2386.0</ele>
        <time>2018-06-24T14:58:43Z</time>
      </trkpt>
      <trkpt lat="40.238050" lon="-4.657633">
        <ele>2383.0</ele>
        <time>2018-06-24T14:58:44Z</time>
      </trkpt>
      <trkpt lat="40.238067" lon="-4.657467">
        <ele>2380.0</ele>
        <time>2018-06-24T14:58:45Z</time>
      </trkpt>
      <trkpt lat="40.238083" lon="-4.657300">
        <ele>2378.0</ele>
        <time>2018-06-24T14:58:46Z</time>
      </trkpt>
      <trkpt lat="40.238117" lon="-4.657133">
        <ele>2374.0</ele>
        <time>2018-06-24T14:58:47Z</time>
      </trkpt>
      <trkpt lat="40.238133" lon="-4.656967">
        <ele>2372.0</ele>
        <time>2018-06-24T14:58:48Z</time>
      </trkpt>
      <trkpt lat="40.238167" lon="-4.656800">
        <ele>2369.0</ele>
        <time>2018-06-24T14:58:49Z</time>
      </trkpt>
      <trkpt lat="40.238183" lon="-4.656650">
        <ele>2367.0</ele>
        <time>2018-06-24T14:58:50Z</time>
      </trkpt>
      <trkpt lat="40.238200" lon="-4.656483">
        <ele>2365.0</ele>
        <time>2018-06-24T14:58:51Z</time>
      </trkpt>
      <trkpt lat="40.238217" lon="-4.656333">
        <ele>2364.0</ele>
        <time>2018-06-24T14:58:52Z</time>
      </trkpt>
      <trkpt lat="40.238200" lon="-4.656183">
        <ele>2363.0</ele>
        <time>2018-06-24T14:58:53Z</time>
      </trkpt>
      <trkpt lat="40.238183" lon="-4.656050">
        <ele>2362.0</ele>
        <time>2018-06-24T14:58:54Z</time>
      </trkpt>
      <trkpt lat="40.238183" lon="-4.655917">
        <ele>2360.0</ele>
        <time>2018-06-24T14:58:55Z</time>
      </trkpt>
      <trkpt lat="40.238183" lon="-4.655800">
        <ele>2357.0</ele>
        <time>2018-06-24T14:58:56Z</time>
      </trkpt>
      <trkpt lat="40.238200" lon="-4.655683">
        <ele>2354.0</ele>
        <time>2018-06-24T14:58:57Z</time>
      </trkpt>
      <trkpt lat="40.238217" lon="-4.655550">
        <ele>2351.0</ele>
        <time>2018-06-24T14:58:58Z</time>
      </trkpt>
      <trkpt lat="40.238233" lon="-4.655383">
        <ele>2347.0</ele>
        <time>2018-06-24T14:58:59Z</time>
      </trkpt>
      <trkpt lat="40.238233" lon="-4.655217">
        <ele>2345.0</ele>
        <time>2018-06-24T14:59:00Z</time>
      </trkpt>
      <trkpt lat="40.238233" lon="-4.655050">
        <ele>2342.0</ele>
        <time>2018-06-24T14:59:01Z</time>
      </trkpt>
      <trkpt lat="40.238233" lon="-4.654900">
        <ele>2339.0</ele>
        <time>2018-06-24T14:59:02Z</time>
      </trkpt>
      <trkpt lat="40.238233" lon="-4.654750">
        <ele>2336.0</ele>
        <time>2018-06-24T14:59:03Z</time>
      </trkpt>
      <trkpt lat="40.238233" lon="-4.654583">
        <ele>2332.0</ele>
        <time>2018-06-24T14:59:04Z</time>
      </trkpt>
      <trkpt lat="40.238233" lon="-4.654400">
        <ele>2328.0</ele>
        <time>2018-06-24T14:59:05Z</time>
      </trkpt>
      <trkpt lat="40.238233" lon="-4.654200">
        <ele>2325.0</ele>
        <time>2018-06-24T14:59:06Z</time>
      </trkpt>
      <trkpt lat="40.238233" lon="-4.654017">
        <ele>2322.0</ele>
        <time>2018-06-24T14:59:07Z</time>
      </trkpt>
      <trkpt lat="40.238233" lon="-4.653850">
        <ele>2321.0</ele>
        <time>2018-06-24T14:59:08Z</time>
      </trkpt>
      <trkpt lat="40.238250" lon="-4.653683">
        <ele>2320.0</ele>
        <time>2018-06-24T14:59:09Z</time>
      </trkpt>
      <trkpt lat="40.238250" lon="-4.653517">
        <ele>2319.0</ele>
        <time>2018-06-24T14:59:10Z</time>
      </trkpt>
      <trkpt lat="40.238267" lon="-4.653367">
        <ele>2318.0</ele>
        <time>2018-06-24T14:59:11Z</time>
      </trkpt>
      <trkpt lat="40.238283" lon="-4.653200">
        <ele>2317.0</ele>
        <time>2018-06-24T14:59:12Z</time>
      </trkpt>
      <trkpt lat="40.238317" lon="-4.653017">
        <ele>2314.0</ele>
        <time>2018-06-24T14:59:13Z</time>
      </trkpt>
      <trkpt lat="40.238333" lon="-4.652833">
        <ele>2313.0</ele>
        <time>2018-06-24T14:59:14Z</time>
      </trkpt>
      <trkpt lat="40.238350" lon="-4.652650">
        <ele>2312.0</ele>
        <time>2018-06-24T14:59:15Z</time>
      </trkpt>
      <trkpt lat="40.238367" lon="-4.652467">
        <ele>2311.0</ele>
        <time>2018-06-24T14:59:16Z</time>
      </trkpt>
      <trkpt lat="40.238400" lon="-4.652300">
        <ele>2311.0</ele>
        <time>2018-06-24T14:59:17Z</time>
      </trkpt>
      <trkpt lat="40.238433" lon="-4.652133">
        <ele>2312.0</ele>
        <time>2018-06-24T14:59:18Z</time>
      </trkpt>
      <trkpt lat="40.238483" lon="-4.651967">
        <ele>2312.0</ele>
        <time>2018-06-24T14:59:19Z</time>
      </trkpt>
      <trkpt lat="40.238517" lon="-4.651800">
        <ele>2313.0</ele>
        <time>2018-06-24T14:59:20Z</time>
      </trkpt>
      <trkpt lat="40.238533" lon="-4.651650">
        <ele>2313.0</ele>
        <time>2018-06-24T14:59:21Z</time>
      </trkpt>
      <trkpt lat="40.238567" lon="-4.651500">
        <ele>2312.0</ele>
        <time>2018-06-24T14:59:22Z</time>
      </trkpt>
      <trkpt lat="40.238583" lon="-4.651333">
        <ele>2312.0</ele>
        <time>2018-06-24T14:59:23Z</time>
      </trkpt>
      <trkpt lat="40.238600" lon="-4.651183">
        <ele>2312.0</ele>
        <time>2018-06-24T14:59:24Z</time>
      </trkpt>
      <trkpt lat="40.238633" lon="-4.651017">
        <ele>2312.0</ele>
        <time>2018-06-24T14:59:25Z</time>
      </trkpt>
      <trkpt lat="40.238667" lon="-4.650867">
        <ele>2312.0</ele>
        <time>2018-06-24T14:59:26Z</time>
      </trkpt>
      <trkpt lat="40.238717" lon="-4.650700">
        <ele>2312.0</ele>
        <time>2018-06-24T14:59:27Z</time>
      </trkpt>
      <trkpt lat="40.238767" lon="-4.650550">
        <ele>2312.0</ele>
        <time>2018-06-24T14:59:28Z</time>
      </trkpt>
      <trkpt lat="40.238833" lon="-4.650383">
        <ele>2312.0</ele>
        <time>2018-06-24T14:59:29Z</time>
      </trkpt>
      <trkpt lat="40.238900" lon="-4.650217">
        <ele>2312.0</ele>
        <time>2018-06-24T14:59:30Z</time>
      </trkpt>
      <trkpt lat="40.238950" lon="-4.650050">
        <ele>2314.0</ele>
        <time>2018-06-24T14:59:31Z</time>
      </trkpt>
      <trkpt lat="40.239017" lon="-4.649900">
        <ele>2315.0</ele>
        <time>2018-06-24T14:59:32Z</time>
      </trkpt>
      <trkpt lat="40.239083" lon="-4.649750">
        <ele>2317.0</ele>
        <time>2018-06-24T14:59:33Z</time>
      </trkpt>
      <trkpt lat="40.239133" lon="-4.649617">
        <ele>2320.0</ele>
        <time>2018-06-24T14:59:34Z</time>
      </trkpt>
      <trkpt lat="40.239183" lon="-4.649467">
        <ele>2324.0</ele>
        <time>2018-06-24T14:59:35Z</time>
      </trkpt>
      <trkpt lat="40.239217" lon="-4.649333">
        <ele>2326.0</ele>
        <time>2018-06-24T14:59:36Z</time>
      </trkpt>
      <trkpt lat="40.239250" lon="-4.649183">
        <ele>2328.0</ele>
        <time>2018-06-24T14:59:37Z</time>
      </trkpt>
      <trkpt lat="40.239283" lon="-4.649033">
        <ele>2330.0</ele>
        <time>2018-06-24T14:59:38Z</time>
      </trkpt>
      <trkpt lat="40.239333" lon="-4.648883">
        <ele>2332.0</ele>
        <time>2018-06-24T14:59:39Z</time>
      </trkpt>
      <trkpt lat="40.239383" lon="-4.648733">
        <ele>2333.0</ele>
        <time>2018-06-24T14:59:40Z</time>
      </trkpt>
      <trkpt lat="40.239433" lon="-4.648600">
        <ele>2334.0</ele>
        <time>2018-06-24T14:59:41Z</time>
      </trkpt>
      <trkpt lat="40.239483" lon="-4.648450">
        <ele>2335.0</ele>
        <time>2018-06-24T14:59:42Z</time>
      </trkpt>
      <trkpt lat="40.239533" lon="-4.648317">
        <ele>2337.0</ele>
        <time>2018-06-24T14:59:43Z</time>
      </trkpt>
      <trkpt lat="40.239567" lon="-4.648183">
        <ele>2338.0</ele>
        <time>2018-06-24T14:59:44Z</time>
      </trkpt>
      <trkpt lat="40.239617" lon="-4.648050">
        <ele>2338.0</ele>
        <time>2018-06-24T14:59:45Z</time>
      </trkpt>
      <trkpt lat="40.239650" lon="-4.647900">
        <ele>2338.0</ele>
        <time>2018-06-24T14:59:46Z</time>
      </trkpt>
      <trkpt lat="40.239683" lon="-4.647767">
        <ele>2337.0</ele>
        <time>2018-06-24T14:59:47Z</time>
      </trkpt>
      <trkpt lat="40.239733" lon="-4.647617">
        <ele>2337.0</ele>
        <time>2018-06-24T14:59:48Z</time>
      </trkpt>
      <trkpt lat="40.239767" lon="-4.647450">
        <ele>2339.0</ele>
        <time>2018-06-24T14:59:49Z</time>
      </trkpt>
      <trkpt lat="40.239800" lon="-4.647300">
        <ele>2340.0</ele>
        <time>2018-06-24T14:59:50Z</time>
      </trkpt>
      <trkpt lat="40.239817" lon="-4.647167">
        <ele>2341.0</ele>
        <time>2018-06-24T14:59:51Z</time>
      </trkpt>
      <trkpt lat="40.239850" lon="-4.647033">
        <ele>2342.0</ele>
        <time>2018-06-24T14:59:52Z</time>
      </trkpt>
      <trkpt lat="40.239850" lon="-4.646883">
        <ele>2342.0</ele>
        <time>2018-06-24T14:59:53Z</time>
      </trkpt>
      <trkpt lat="40.239850" lon="-4.646750">
        <ele>2342.0</ele>
        <time>2018-06-24T14:59:54Z</time>
      </trkpt>
      <trkpt lat="40.239867" lon="-4.646617">
        <ele>2342.0</ele>
        <time>2018-06-24T14:59:55Z</time>
      </trkpt>
      <trkpt lat="40.239867" lon="-4.646483">
        <ele>2342.0</ele>
        <time>2018-06-24T14:59:56Z</time>
      </trkpt>
      <trkpt lat="40.239883" lon="-4.646350">
        <ele>2344.0</ele>
        <time>2018-06-24T14:59:57Z</time>
      </trkpt>
      <trkpt lat="40.239900" lon="-4.646233">
        <ele>2344.0</ele>
        <time>2018-06-24T14:59:58Z</time>
      </trkpt>
      <trkpt lat="40.239917" lon="-4.646100">
        <ele>2346.0</ele>
        <time>2018-06-24T14:59:59Z</time>
      </trkpt>
      <trkpt lat="40.239933" lon="-4.645967">
        <ele>2346.0</ele>
        <time>2018-06-24T15:00:00Z</time>
      </trkpt>
      <trkpt lat="40.239950" lon="-4.645833">
        <ele>2347.0</ele>
        <time>2018-06-24T15:00:01Z</time>
      </trkpt>
      <trkpt lat="40.239967" lon="-4.645700">
        <ele>2348.0</ele>
        <time>2018-06-24T15:00:02Z</time>
      </trkpt>
      <trkpt lat="40.240000" lon="-4.645567">
        <ele>2349.0</ele>
        <time>2018-06-24T15:00:03Z</time>
      </trkpt>
      <trkpt lat="40.240033" lon="-4.645433">
        <ele>2350.0</ele>
        <time>2018-06-24T15:00:04Z</time>
      </trkpt>
      <trkpt lat="40.240067" lon="-4.645300">
        <ele>2352.0</ele>
        <time>2018-06-24T15:00:05Z</time>
      </trkpt>
      <trkpt lat="40.240083" lon="-4.645167">
        <ele>2354.0</ele>
        <time>2018-06-24T15:00:06Z</time>
      </trkpt>
      <trkpt lat="40.240100" lon="-4.645050">
        <ele>2355.0</ele>
        <time>2018-06-24T15:00:07Z</time>
      </trkpt>
      <trkpt lat="40.240117" lon="-4.644933">
        <ele>2355.0</ele>
        <time>2018-06-24T15:00:08Z</time>
      </trkpt>
      <trkpt lat="40.240150" lon="-4.644800">
        <ele>2355.0</ele>
        <time>2018-06-24T15:00:09Z</time>
      </trkpt>
      <trkpt lat="40.240183" lon="-4.644667">
        <ele>2356.0</ele>
        <time>2018-06-24T15:00:10Z</time>
      </trkpt>
      <trkpt lat="40.240200" lon="-4.644517">
        <ele>2356.0</ele>
        <time>2018-06-24T15:00:11Z</time>
      </trkpt>
      <trkpt lat="40.240233" lon="-4.644367">
        <ele>2357.0</ele>
        <time>2018-06-24T15:00:12Z</time>
      </trkpt>
      <trkpt lat="40.240250" lon="-4.644233">
        <ele>2358.0</ele>
        <time>2018-06-24T15:00:13Z</time>
      </trkpt>
      <trkpt lat="40.240283" lon="-4.644083">
        <ele>2359.0</ele>
        <time>2018-06-24T15:00:14Z</time>
      </trkpt>
      <trkpt lat="40.240283" lon="-4.643950">
        <ele>2360.0</ele>
        <time>2018-06-24T15:00:15Z</time>
      </trkpt>
      <trkpt lat="40.240300" lon="-4.643817">
        <ele>2360.0</ele>
        <time>2018-06-24T15:00:16Z</time>
      </trkpt>
      <trkpt lat="40.240317" lon="-4.643683">
        <ele>2359.0</ele>
        <time>2018-06-24T15:00:17Z</time>
      </trkpt>
      <trkpt lat="40.240333" lon="-4.643550">
        <ele>2359.0</ele>
        <time>2018-06-24T15:00:18Z</time>
      </trkpt>
      <trkpt lat="40.240367" lon="-4.643417">
        <ele>2360.0</ele>
        <time>2018-06-24T15:00:19Z</time>
      </trkpt>
      <trkpt lat="40.240367" lon="-4.643267">
        <ele>2359.0</ele>
        <time>2018-06-24T15:00:20Z</time>
      </trkpt>
      <trkpt lat="40.240367" lon="-4.643133">
        <ele>2359.0</ele>
        <time>2018-06-24T15:00:21Z</time>
      </trkpt>
      <trkpt lat="40.240367" lon="-4.643000">
        <ele>2359.0</ele>
        <time>2018-06-24T15:00:22Z</time>
      </trkpt>
      <trkpt lat="40.240350" lon="-4.642883">
        <ele>2360.0</ele>
        <time>2018-06-24T15:00:23Z</time>
      </trkpt>
      <trkpt lat="40.240350" lon="-4.642750">
        <ele>2360.0</ele>
        <time>2018-06-24T15:00:24Z</time>
      </trkpt>
      <trkpt lat="40.240333" lon="-4.642633">
        <ele>2359.0</ele>
        <time>2018-06-24T15:00:25Z</time>
      </trkpt>
      <trkpt lat="40.240333" lon="-4.642500">
        <ele>2358.0</ele>
        <time>2018-06-24T15:00:26Z</time>
      </trkpt>
      <trkpt lat="40.240300" lon="-4.642367">
        <ele>2359.0</ele>
        <time>2018-06-24T15:00:27Z</time>
      </trkpt>
      <trkpt lat="40.240283" lon="-4.642250">
        <ele>2359.0</ele>
        <time>2018-06-24T15:00:28Z</time>
      </trkpt>
      <trkpt lat="40.240233" lon="-4.642133">
        <ele>2359.0</ele>
        <time>2018-06-24T15:00:29Z</time>
      </trkpt>
      <trkpt lat="40.240200" lon="-4.642017">
        <ele>2359.0</ele>
        <time>2018-06-24T15:00:30Z</time>
      </trkpt>
      <trkpt lat="40.240183" lon="-4.641900">
        <ele>2359.0</ele>
        <time>2018-06-24T15:00:31Z</time>
      </trkpt>
      <trkpt lat="40.240150" lon="-4.641783">
        <ele>2358.0</ele>
        <time>2018-06-24T15:00:32Z</time>
      </trkpt>
      <trkpt lat="40.240133" lon="-4.641650">
        <ele>2356.0</ele>
        <time>2018-06-24T15:00:33Z</time>
      </trkpt>
      <trkpt lat="40.240100" lon="-4.641517">
        <ele>2355.0</ele>
        <time>2018-06-24T15:00:34Z</time>
      </trkpt>
      <trkpt lat="40.240067" lon="-4.641383">
        <ele>2355.0</ele>
        <time>2018-06-24T15:00:35Z</time>
      </trkpt>
      <trkpt lat="40.240033" lon="-4.641250">
        <ele>2354.0</ele>
        <time>2018-06-24T15:00:36Z</time>
      </trkpt>
      <trkpt lat="40.240000" lon="-4.641117">
        <ele>2353.0</ele>
        <time>2018-06-24T15:00:37Z</time>
      </trkpt>
      <trkpt lat="40.240000" lon="-4.640950">
        <ele>2351.0</ele>
        <time>2018-06-24T15:00:38Z</time>
      </trkpt>
      <trkpt lat="40.240000" lon="-4.640850">
        <ele>2350.0</ele>
        <time>2018-06-24T15:00:39Z</time>
      </trkpt>
      <trkpt lat="40.240017" lon="-4.640700">
        <ele>2349.0</ele>
        <time>2018-06-24T15:00:40Z</time>
      </trkpt>
      <trkpt lat="40.240050" lon="-4.640567">
        <ele>2348.0</ele>
        <time>2018-06-24T15:00:41Z</time>
      </trkpt>
      <trkpt lat="40.240083" lon="-4.640417">
        <ele>2347.0</ele>
        <time>2018-06-24T15:00:42Z</time>
      </trkpt>
      <trkpt lat="40.240133" lon="-4.640267">
        <ele>2346.0</ele>
        <time>2018-06-24T15:00:43Z</time>
      </trkpt>
      <trkpt lat="40.240167" lon="-4.640117">
        <ele>2346.0</ele>
        <time>2018-06-24T15:00:44Z</time>
      </trkpt>
      <trkpt lat="40.240200" lon="-4.639967">
        <ele>2345.0</ele>
        <time>2018-06-24T15:00:45Z</time>
      </trkpt>
      <trkpt lat="40.240233" lon="-4.639817">
        <ele>2343.0</ele>
        <time>2018-06-24T15:00:46Z</time>
      </trkpt>
      <trkpt lat="40.240283" lon="-4.639650">
        <ele>2341.0</ele>
        <time>2018-06-24T15:00:47Z</time>
      </trkpt>
      <trkpt lat="40.240350" lon="-4.639483">
        <ele>2339.0</ele>
        <time>2018-06-24T15:00:48Z</time>
      </trkpt>
      <trkpt lat="40.240400" lon="-4.639317">
        <ele>2339.0</ele>
        <time>2018-06-24T15:00:49Z</time>
      </trkpt>
      <trkpt lat="40.240467" lon="-4.639150">
        <ele>2340.0</ele>
        <time>2018-06-24T15:00:50Z</time>
      </trkpt>
      <trkpt lat="40.240533" lon="-4.639000">
        <ele>2341.0</ele>
        <time>2018-06-24T15:00:51Z</time>
      </trkpt>
      <trkpt lat="40.240583" lon="-4.638850">
        <ele>2341.0</ele>
        <time>2018-06-24T15:00:52Z</time>
      </trkpt>
      <trkpt lat="40.240633" lon="-4.638700">
        <ele>2340.0</ele>
        <time>2018-06-24T15:00:53Z</time>
      </trkpt>
      <trkpt lat="40.240700" lon="-4.638550">
        <ele>2339.0</ele>
        <time>2018-06-24T15:00:54Z</time>
      </trkpt>
      <trkpt lat="40.240767" lon="-4.638383">
        <ele>2338.0</ele>
        <time>2018-06-24T15:00:55Z</time>
      </trkpt>
      <trkpt lat="40.240833" lon="-4.638233">
        <ele>2338.0</ele>
        <time>2018-06-24T15:00:56Z</time>
      </trkpt>
      <trkpt lat="40.240900" lon="-4.638083">
        <ele>2339.0</ele>
        <time>2018-06-24T15:00:57Z</time>
      </trkpt>
      <trkpt lat="40.240967" lon="-4.637950">
        <ele>2340.0</ele>
        <time>2018-06-24T15:00:58Z</time>
      </trkpt>
      <trkpt lat="40.241033" lon="-4.637800">
        <ele>2340.0</ele>
        <time>2018-06-24T15:00:59Z</time>
      </trkpt>
      <trkpt lat="40.241083" lon="-4.637667">
        <ele>2341.0</ele>
        <time>2018-06-24T15:01:00Z</time>
      </trkpt>
      <trkpt lat="40.241133" lon="-4.637500">
        <ele>2341.0</ele>
        <time>2018-06-24T15:01:01Z</time>
      </trkpt>
      <trkpt lat="40.241200" lon="-4.637350">
        <ele>2342.0</ele>
        <time>2018-06-24T15:01:02Z</time>
      </trkpt>
      <trkpt lat="40.241250" lon="-4.637217">
        <ele>2343.0</ele>
        <time>2018-06-24T15:01:03Z</time>
      </trkpt>
      <trkpt lat="40.241317" lon="-4.637083">
        <ele>2343.0</ele>
        <time>2018-06-24T15:01:04Z</time>
      </trkpt>
      <trkpt lat="40.241383" lon="-4.636950">
        <ele>2343.0</ele>
        <time>2018-06-24T15:01:05Z</time>
      </trkpt>
      <trkpt lat="40.241450" lon="-4.636800">
        <ele>2342.0</ele>
        <time>2018-06-24T15:01:06Z</time>
      </trkpt>
      <trkpt lat="40.241500" lon="-4.636650">
        <ele>2342.0</ele>
        <time>2018-06-24T15:01:07Z</time>
      </trkpt>
      <trkpt lat="40.241567" lon="-4.636500">
        <ele>2342.0</ele>
        <time>2018-06-24T15:01:08Z</time>
      </trkpt>
      <trkpt lat="40.241633" lon="-4.636367">
        <ele>2342.0</ele>
        <time>2018-06-24T15:01:09Z</time>
      </trkpt>
      <trkpt lat="40.241700" lon="-4.636250">
        <ele>2343.0</ele>
        <time>2018-06-24T15:01:10Z</time>
      </trkpt>
      <trkpt lat="40.241783" lon="-4.636117">
        <ele>2343.0</ele>
        <time>2018-06-24T15:01:11Z</time>
      </trkpt>
      <trkpt lat="40.241850" lon="-4.636000">
        <ele>2342.0</ele>
        <time>2018-06-24T15:01:12Z</time>
      </trkpt>
      <trkpt lat="40.241933" lon="-4.635867">
        <ele>2342.0</ele>
        <time>2018-06-24T15:01:13Z</time>
      </trkpt>
      <trkpt lat="40.242000" lon="-4.635733">
        <ele>2341.0</ele>
        <time>2018-06-24T15:01:14Z</time>
      </trkpt>
      <trkpt lat="40.242083" lon="-4.635600">
        <ele>2341.0</ele>
        <time>2018-06-24T15:01:15Z</time>
      </trkpt>
      <trkpt lat="40.242150" lon="-4.635483">
        <ele>2341.0</ele>
        <time>2018-06-24T15:01:16Z</time>
      </trkpt>
      <trkpt lat="40.242217" lon="-4.635367">
        <ele>2341.0</ele>
        <time>2018-06-24T15:01:17Z</time>
      </trkpt>
      <trkpt lat="40.242283" lon="-4.635233">
        <ele>2340.0</ele>
        <time>2018-06-24T15:01:18Z</time>
      </trkpt>
      <trkpt lat="40.242333" lon="-4.635100">
        <ele>2338.0</ele>
        <time>2018-06-24T15:01:19Z</time>
      </trkpt>
      <trkpt lat="40.242383" lon="-4.634950">
        <ele>2337.0</ele>
        <time>2018-06-24T15:01:20Z</time>
      </trkpt>
      <trkpt lat="40.242417" lon="-4.634800">
        <ele>2337.0</ele>
        <time>2018-06-24T15:01:21Z</time>
      </trkpt>
      <trkpt lat="40.242467" lon="-4.634650">
        <ele>2337.0</ele>
        <time>2018-06-24T15:01:22Z</time>
      </trkpt>
      <trkpt lat="40.242500" lon="-4.634500">
        <ele>2337.0</ele>
        <time>2018-06-24T15:01:23Z</time>
      </trkpt>
      <trkpt lat="40.242533" lon="-4.634350">
        <ele>2337.0</ele>
        <time>2018-06-24T15:01:24Z</time>
      </trkpt>
      <trkpt lat="40.242567" lon="-4.634200">
        <ele>2337.0</ele>
        <time>2018-06-24T15:01:25Z</time>
      </trkpt>
      <trkpt lat="40.242617" lon="-4.634033">
        <ele>2337.0</ele>
        <time>2018-06-24T15:01:26Z</time>
      </trkpt>
      <trkpt lat="40.242650" lon="-4.633883">
        <ele>2337.0</ele>
        <time>2018-06-24T15:01:27Z</time>
      </trkpt>
      <trkpt lat="40.242700" lon="-4.633733">
        <ele>2338.0</ele>
        <time>2018-06-24T15:01:28Z</time>
      </trkpt>
      <trkpt lat="40.242733" lon="-4.633600">
        <ele>2338.0</ele>
        <time>2018-06-24T15:01:29Z</time>
      </trkpt>
      <trkpt lat="40.242767" lon="-4.633450">
        <ele>2337.0</ele>
        <time>2018-06-24T15:01:30Z</time>
      </trkpt>
      <trkpt lat="40.242817" lon="-4.633300">
        <ele>2335.0</ele>
        <time>2018-06-24T15:01:31Z</time>
      </trkpt>
      <trkpt lat="40.242867" lon="-4.633150">
        <ele>2333.0</ele>
        <time>2018-06-24T15:01:32Z</time>
      </trkpt>
      <trkpt lat="40.242917" lon="-4.632983">
        <ele>2332.0</ele>
        <time>2018-06-24T15:01:33Z</time>
      </trkpt>
      <trkpt lat="40.242967" lon="-4.632833">
        <ele>2331.0</ele>
        <time>2018-06-24T15:01:34Z</time>
      </trkpt>
      <trkpt lat="40.243017" lon="-4.632667">
        <ele>2331.0</ele>
        <time>2018-06-24T15:01:35Z</time>
      </trkpt>
      <trkpt lat="40.243050" lon="-4.632517">
        <ele>2331.0</ele>
        <time>2018-06-24T15:01:36Z</time>
      </trkpt>
      <trkpt lat="40.243083" lon="-4.632383">
        <ele>2332.0</ele>
        <time>2018-06-24T15:01:37Z</time>
      </trkpt>
      <trkpt lat="40.243133" lon="-4.632250">
        <ele>2331.0</ele>
        <time>2018-06-24T15:01:38Z</time>
      </trkpt>
      <trkpt lat="40.243183" lon="-4.632117">
        <ele>2329.0</ele>
        <time>2018-06-24T15:01:39Z</time>
      </trkpt>
      <trkpt lat="40.243233" lon="-4.631967">
        <ele>2327.0</ele>
        <time>2018-06-24T15:01:40Z</time>
      </trkpt>
      <trkpt lat="40.243300" lon="-4.631817">
        <ele>2325.0</ele>
        <time>2018-06-24T15:01:41Z</time>
      </trkpt>
      <trkpt lat="40.243350" lon="-4.631650">
        <ele>2325.0</ele>
        <time>2018-06-24T15:01:42Z</time>
      </trkpt>
      <trkpt lat="40.243417" lon="-4.631500">
        <ele>2325.0</ele>
        <time>2018-06-24T15:01:43Z</time>
      </trkpt>
      <trkpt lat="40.243467" lon="-4.631367">
        <ele>2325.0</ele>
        <time>2018-06-24T15:01:44Z</time>
      </trkpt>
      <trkpt lat="40.243517" lon="-4.631217">
        <ele>2325.0</ele>
        <time>2018-06-24T15:01:45Z</time>
      </trkpt>
      <trkpt lat="40.243567" lon="-4.631083">
        <ele>2325.0</ele>
        <time>2018-06-24T15:01:46Z</time>
      </trkpt>
      <trkpt lat="40.243617" lon="-4.630933">
        <ele>2325.0</ele>
        <time>2018-06-24T15:01:47Z</time>
      </trkpt>
      <trkpt lat="40.243667" lon="-4.630783">
        <ele>2324.0</ele>
        <time>2018-06-24T15:01:48Z</time>
      </trkpt>
      <trkpt lat="40.243717" lon="-4.630633">
        <ele>2323.0</ele>
        <time>2018-06-24T15:01:49Z</time>
      </trkpt>
      <trkpt lat="40.243767" lon="-4.630483">
        <ele>2322.0</ele>
        <time>2018-06-24T15:01:50Z</time>
      </trkpt>
      <trkpt lat="40.243833" lon="-4.630333">
        <ele>2322.0</ele>
        <time>2018-06-24T15:01:51Z</time>
      </trkpt>
      <trkpt lat="40.243883" lon="-4.630183">
        <ele>2321.0</ele>
        <time>2018-06-24T15:01:52Z</time>
      </trkpt>
      <trkpt lat="40.243933" lon="-4.630033">
        <ele>2321.0</ele>
        <time>2018-06-24T15:01:53Z</time>
      </trkpt>
      <trkpt lat="40.243967" lon="-4.629883">
        <ele>2321.0</ele>
        <time>2018-06-24T15:01:54Z</time>
      </trkpt>
      <trkpt lat="40.244017" lon="-4.629717">
        <ele>2320.0</ele>
        <time>2018-06-24T15:01:55Z</time>
      </trkpt>
      <trkpt lat="40.244067" lon="-4.629583">
        <ele>2320.0</ele>
        <time>2018-06-24T15:01:56Z</time>
      </trkpt>
      <trkpt lat="40.244117" lon="-4.629433">
        <ele>2319.0</ele>
        <time>2018-06-24T15:01:57Z</time>
      </trkpt>
      <trkpt lat="40.244183" lon="-4.629283">
        <ele>2318.0</ele>
        <time>2018-06-24T15:01:58Z</time>
      </trkpt>
      <trkpt lat="40.244233" lon="-4.629133">
        <ele>2317.0</ele>
        <time>2018-06-24T15:01:59Z</time>
      </trkpt>
      <trkpt lat="40.244283" lon="-4.628983">
        <ele>2316.0</ele>
        <time>2018-06-24T15:02:00Z</time>
      </trkpt>
      <trkpt lat="40.244333" lon="-4.628833">
        <ele>2315.0</ele>
        <time>2018-06-24T15:02:01Z</time>
      </trkpt>
      <trkpt lat="40.244383" lon="-4.628683">
        <ele>2314.0</ele>
        <time>2018-06-24T15:02:02Z</time>
      </trkpt>
      <trkpt lat="40.244433" lon="-4.628533">
        <ele>2314.0</ele>
        <time>2018-06-24T15:02:03Z</time>
      </trkpt>
      <trkpt lat="40.244483" lon="-4.628383">
        <ele>2313.0</ele>
        <time>2018-06-24T15:02:04Z</time>
      </trkpt>
      <trkpt lat="40.244533" lon="-4.628233">
        <ele>2312.0</ele>
        <time>2018-06-24T15:02:05Z</time>
      </trkpt>
      <trkpt lat="40.244583" lon="-4.628100">
        <ele>2311.0</ele>
        <time>2018-06-24T15:02:06Z</time>
      </trkpt>
      <trkpt lat="40.244633" lon="-4.627950">
        <ele>2310.0</ele>
        <time>2018-06-24T15:02:07Z</time>
      </trkpt>
      <trkpt lat="40.244683" lon="-4.627800">
        <ele>2309.0</ele>
        <time>2018-06-24T15:02:08Z</time>
      </trkpt>
      <trkpt lat="40.244733" lon="-4.627650">
        <ele>2308.0</ele>
        <time>2018-06-24T15:02:09Z</time>
      </trkpt>
      <trkpt lat="40.244783" lon="-4.627500">
        <ele>2308.0</ele>
        <time>2018-06-24T15:02:10Z</time>
      </trkpt>
      <trkpt lat="40.244833" lon="-4.627350">
        <ele>2308.0</ele>
        <time>2018-06-24T15:02:11Z</time>
      </trkpt>
      <trkpt lat="40.244900" lon="-4.627217">
        <ele>2308.0</ele>
        <time>2018-06-24T15:02:12Z</time>
      </trkpt>
      <trkpt lat="40.244950" lon="-4.627083">
        <ele>2307.0</ele>
        <time>2018-06-24T15:02:13Z</time>
      </trkpt>
      <trkpt lat="40.245000" lon="-4.626933">
        <ele>2306.0</ele>
        <time>2018-06-24T15:02:14Z</time>
      </trkpt>
      <trkpt lat="40.245067" lon="-4.626783">
        <ele>2304.0</ele>
        <time>2018-06-24T15:02:15Z</time>
      </trkpt>
      <trkpt lat="40.245117" lon="-4.626633">
        <ele>2304.0</ele>
        <time>2018-06-24T15:02:16Z</time>
      </trkpt>
      <trkpt lat="40.245183" lon="-4.626483">
        <ele>2303.0</ele>
        <time>2018-06-24T15:02:17Z</time>
      </trkpt>
      <trkpt lat="40.245250" lon="-4.626333">
        <ele>2303.0</ele>
        <time>2018-06-24T15:02:18Z</time>
      </trkpt>
      <trkpt lat="40.245300" lon="-4.626183">
        <ele>2303.0</ele>
        <time>2018-06-24T15:02:19Z</time>
      </trkpt>
      <trkpt lat="40.245367" lon="-4.626017">
        <ele>2303.0</ele>
        <time>2018-06-24T15:02:20Z</time>
      </trkpt>
      <trkpt lat="40.245433" lon="-4.625850">
        <ele>2302.0</ele>
        <time>2018-06-24T15:02:21Z</time>
      </trkpt>
      <trkpt lat="40.245483" lon="-4.625683">
        <ele>2302.0</ele>
        <time>2018-06-24T15:02:22Z</time>
      </trkpt>
      <trkpt lat="40.245533" lon="-4.625533">
        <ele>2303.0</ele>
        <time>2018-06-24T15:02:23Z</time>
      </trkpt>
      <trkpt lat="40.245567" lon="-4.625383">
        <ele>2304.0</ele>
        <time>2018-06-24T15:02:24Z</time>
      </trkpt>
      <trkpt lat="40.245617" lon="-4.625250">
        <ele>2304.0</ele>
        <time>2018-06-24T15:02:25Z</time>
      </trkpt>
      <trkpt lat="40.245650" lon="-4.625100">
        <ele>2302.0</ele>
        <time>2018-06-24T15:02:26Z</time>
      </trkpt>
      <trkpt lat="40.245700" lon="-4.624950">
        <ele>2300.0</ele>
        <time>2018-06-24T15:02:27Z</time>
      </trkpt>
      <trkpt lat="40.245733" lon="-4.624800">
        <ele>2298.0</ele>
        <time>2018-06-24T15:02:28Z</time>
      </trkpt>
      <trkpt lat="40.245767" lon="-4.624633">
        <ele>2296.0</ele>
        <time>2018-06-24T15:02:29Z</time>
      </trkpt>
      <trkpt lat="40.245783" lon="-4.624483">
        <ele>2296.0</ele>
        <time>2018-06-24T15:02:30Z</time>
      </trkpt>
      <trkpt lat="40.245800" lon="-4.624333">
        <ele>2296.0</ele>
        <time>2018-06-24T15:02:31Z</time>
      </trkpt>
      <trkpt lat="40.245800" lon="-4.624183">
        <ele>2295.0</ele>
        <time>2018-06-24T15:02:32Z</time>
      </trkpt>
      <trkpt lat="40.245817" lon="-4.624033">
        <ele>2293.0</ele>
        <time>2018-06-24T15:02:33Z</time>
      </trkpt>
      <trkpt lat="40.245817" lon="-4.623883">
        <ele>2291.0</ele>
        <time>2018-06-24T15:02:34Z</time>
      </trkpt>
      <trkpt lat="40.245833" lon="-4.623717">
        <ele>2289.0</ele>
        <time>2018-06-24T15:02:35Z</time>
      </trkpt>
      <trkpt lat="40.245833" lon="-4.623550">
        <ele>2287.0</ele>
        <time>2018-06-24T15:02:36Z</time>
      </trkpt>
      <trkpt lat="40.245833" lon="-4.623383">
        <ele>2286.0</ele>
        <time>2018-06-24T15:02:37Z</time>
      </trkpt>
      <trkpt lat="40.245850" lon="-4.623233">
        <ele>2286.0</ele>
        <time>2018-06-24T15:02:38Z</time>
      </trkpt>
      <trkpt lat="40.245867" lon="-4.623067">
        <ele>2286.0</ele>
        <time>2018-06-24T15:02:39Z</time>
      </trkpt>
      <trkpt lat="40.245900" lon="-4.622917">
        <ele>2286.0</ele>
        <time>2018-06-24T15:02:40Z</time>
      </trkpt>
      <trkpt lat="40.245917" lon="-4.622783">
        <ele>2285.0</ele>
        <time>2018-06-24T15:02:41Z</time>
      </trkpt>
      <trkpt lat="40.245933" lon="-4.622633">
        <ele>2285.0</ele>
        <time>2018-06-24T15:02:42Z</time>
      </trkpt>
      <trkpt lat="40.245950" lon="-4.622500">
        <ele>2284.0</ele>
        <time>2018-06-24T15:02:43Z</time>
      </trkpt>
      <trkpt lat="40.245950" lon="-4.622333">
        <ele>2282.0</ele>
        <time>2018-06-24T15:02:44Z</time>
      </trkpt>
      <trkpt lat="40.245967" lon="-4.622183">
        <ele>2281.0</ele>
        <time>2018-06-24T15:02:45Z</time>
      </trkpt>
      <trkpt lat="40.245983" lon="-4.622033">
        <ele>2281.0</ele>
        <time>2018-06-24T15:02:46Z</time>
      </trkpt>
      <trkpt lat="40.246000" lon="-4.621883">
        <ele>2280.0</ele>
        <time>2018-06-24T15:02:47Z</time>
      </trkpt>
      <trkpt lat="40.246017" lon="-4.621733">
        <ele>2279.0</ele>
        <time>2018-06-24T15:02:48Z</time>
      </trkpt>
      <trkpt lat="40.246017" lon="-4.621583">
        <ele>2278.0</ele>
        <time>2018-06-24T15:02:49Z</time>
      </trkpt>
      <trkpt lat="40.246017" lon="-4.621433">
        <ele>2278.0</ele>
        <time>2018-06-24T15:02:50Z</time>
      </trkpt>
      <trkpt lat="40.246017" lon="-4.621283">
        <ele>2277.0</ele>
        <time>2018-06-24T15:02:51Z</time>
      </trkpt>
      <trkpt lat="40.246000" lon="-4.621150">
        <ele>2276.0</ele>
        <time>2018-06-24T15:02:52Z</time>
      </trkpt>
      <trkpt lat="40.246000" lon="-4.621000">
        <ele>2275.0</ele>
        <time>2018-06-24T15:02:53Z</time>
      </trkpt>
      <trkpt lat="40.246000" lon="-4.620850">
        <ele>2274.0</ele>
        <time>2018-06-24T15:02:54Z</time>
      </trkpt>
      <trkpt lat="40.246000" lon="-4.620700">
        <ele>2273.0</ele>
        <time>2018-06-24T15:02:55Z</time>
      </trkpt>
      <trkpt lat="40.246000" lon="-4.620567">
        <ele>2272.0</ele>
        <time>2018-06-24T15:02:56Z</time>
      </trkpt>
      <trkpt lat="40.246000" lon="-4.620417">
        <ele>2270.0</ele>
        <time>2018-06-24T15:02:57Z</time>
      </trkpt>
      <trkpt lat="40.246033" lon="-4.620267">
        <ele>2268.0</ele>
        <time>2018-06-24T15:02:58Z</time>
      </trkpt>
      <trkpt lat="40.246083" lon="-4.620133">
        <ele>2265.0</ele>
        <time>2018-06-24T15:02:59Z</time>
      </trkpt>
      <trkpt lat="40.246133" lon="-4.620000">
        <ele>2262.0</ele>
        <time>2018-06-24T15:03:00Z</time>
      </trkpt>
      <trkpt lat="40.246183" lon="-4.619867">
        <ele>2261.0</ele>
        <time>2018-06-24T15:03:01Z</time>
      </trkpt>
      <trkpt lat="40.246233" lon="-4.619750">
        <ele>2259.0</ele>
        <time>2018-06-24T15:03:02Z</time>
      </trkpt>
      <trkpt lat="40.246283" lon="-4.619617">
        <ele>2257.0</ele>
        <time>2018-06-24T15:03:03Z</time>
      </trkpt>
      <trkpt lat="40.246333" lon="-4.619500">
        <ele>2254.0</ele>
        <time>2018-06-24T15:03:04Z</time>
      </trkpt>
      <trkpt lat="40.246400" lon="-4.619367">
        <ele>2251.0</ele>
        <time>2018-06-24T15:03:05Z</time>
      </trkpt>
      <trkpt lat="40.246450" lon="-4.619233">
        <ele>2247.0</ele>
        <time>2018-06-24T15:03:06Z</time>
      </trkpt>
      <trkpt lat="40.246483" lon="-4.619100">
        <ele>2244.0</ele>
        <time>2018-06-24T15:03:07Z</time>
      </trkpt>
      <trkpt lat="40.246517" lon="-4.618950">
        <ele>2241.0</ele>
        <time>2018-06-24T15:03:08Z</time>
      </trkpt>
      <trkpt lat="40.246550" lon="-4.618800">
        <ele>2237.0</ele>
        <time>2018-06-24T15:03:09Z</time>
      </trkpt>
      <trkpt lat="40.246600" lon="-4.618667">
        <ele>2234.0</ele>
        <time>2018-06-24T15:03:10Z</time>
      </trkpt>
      <trkpt lat="40.246633" lon="-4.618517">
        <ele>2230.0</ele>
        <time>2018-06-24T15:03:11Z</time>
      </trkpt>
      <trkpt lat="40.246683" lon="-4.618383">
        <ele>2227.0</ele>
        <time>2018-06-24T15:03:12Z</time>
      </trkpt>
      <trkpt lat="40.246700" lon="-4.618217">
        <ele>2224.0</ele>
        <time>2018-06-24T15:03:13Z</time>
      </trkpt>
      <trkpt lat="40.246717" lon="-4.618067">
        <ele>2220.0</ele>
        <time>2018-06-24T15:03:14Z</time>
      </trkpt>
      <trkpt lat="40.246717" lon="-4.617900">
        <ele>2217.0</ele>
        <time>2018-06-24T15:03:15Z</time>
      </trkpt>
      <trkpt lat="40.246700" lon="-4.617733">
        <ele>2214.0</ele>
        <time>2018-06-24T15:03:16Z</time>
      </trkpt>
      <trkpt lat="40.246717" lon="-4.617567">
        <ele>2210.0</ele>
        <time>2018-06-24T15:03:17Z</time>
      </trkpt>
      <trkpt lat="40.246733" lon="-4.617417">
        <ele>2207.0</ele>
        <time>2018-06-24T15:03:18Z</time>
      </trkpt>
      <trkpt lat="40.246750" lon="-4.617250">
        <ele>2204.0</ele>
        <time>2018-06-24T15:03:19Z</time>
      </trkpt>
      <trkpt lat="40.246767" lon="-4.617083">
        <ele>2201.0</ele>
        <time>2018-06-24T15:03:20Z</time>
      </trkpt>
      <trkpt lat="40.246783" lon="-4.616917">
        <ele>2198.0</ele>
        <time>2018-06-24T15:03:21Z</time>
      </trkpt>
      <trkpt lat="40.246817" lon="-4.616767">
        <ele>2195.0</ele>
        <time>2018-06-24T15:03:22Z</time>
      </trkpt>
      <trkpt lat="40.246867" lon="-4.616617">
        <ele>2192.0</ele>
        <time>2018-06-24T15:03:23Z</time>
      </trkpt>
      <trkpt lat="40.246933" lon="-4.616467">
        <ele>2190.0</ele>
        <time>2018-06-24T15:03:24Z</time>
      </trkpt>
      <trkpt lat="40.246983" lon="-4.616300">
        <ele>2187.0</ele>
        <time>2018-06-24T15:03:25Z</time>
      </trkpt>
      <trkpt lat="40.247033" lon="-4.616150">
        <ele>2184.0</ele>
        <time>2018-06-24T15:03:26Z</time>
      </trkpt>
      <trkpt lat="40.247083" lon="-4.615983">
        <ele>2181.0</ele>
        <time>2018-06-24T15:03:27Z</time>
      </trkpt>
      <trkpt lat="40.247133" lon="-4.615833">
        <ele>2178.0</ele>
        <time>2018-06-24T15:03:28Z</time>
      </trkpt>
      <trkpt lat="40.247200" lon="-4.615700">
        <ele>2175.0</ele>
        <time>2018-06-24T15:03:29Z</time>
      </trkpt>
      <trkpt lat="40.247250" lon="-4.615550">
        <ele>2172.0</ele>
        <time>2018-06-24T15:03:30Z</time>
      </trkpt>
      <trkpt lat="40.247300" lon="-4.615400">
        <ele>2168.0</ele>
        <time>2018-06-24T15:03:31Z</time>
      </trkpt>
      <trkpt lat="40.247350" lon="-4.615250">
        <ele>2165.0</ele>
        <time>2018-06-24T15:03:32Z</time>
      </trkpt>
      <trkpt lat="40.247383" lon="-4.615100">
        <ele>2162.0</ele>
        <time>2018-06-24T15:03:33Z</time>
      </trkpt>
      <trkpt lat="40.247433" lon="-4.614950">
        <ele>2159.0</ele>
        <time>2018-06-24T15:03:34Z</time>
      </trkpt>
      <trkpt lat="40.247483" lon="-4.614783">
        <ele>2157.0</ele>
        <time>2018-06-24T15:03:35Z</time>
      </trkpt>
      <trkpt lat="40.247517" lon="-4.614633">
        <ele>2154.0</ele>
        <time>2018-06-24T15:03:36Z</time>
      </trkpt>
      <trkpt lat="40.247567" lon="-4.614483">
        <ele>2151.0</ele>
        <time>2018-06-24T15:03:37Z</time>
      </trkpt>
      <trkpt lat="40.247633" lon="-4.614350">
        <ele>2147.0</ele>
        <time>2018-06-24T15:03:38Z</time>
      </trkpt>
      <trkpt lat="40.247700" lon="-4.614200">
        <ele>2144.0</ele>
        <time>2018-06-24T15:03:39Z</time>
      </trkpt>
      <trkpt lat="40.247767" lon="-4.614050">
        <ele>2141.0</ele>
        <time>2018-06-24T15:03:40Z</time>
      </trkpt>
      <trkpt lat="40.247833" lon="-4.613917">
        <ele>2138.0</ele>
        <time>2018-06-24T15:03:41Z</time>
      </trkpt>
      <trkpt lat="40.247883" lon="-4.613783">
        <ele>2134.0</ele>
        <time>2018-06-24T15:03:42Z</time>
      </trkpt>
      <trkpt lat="40.247933" lon="-4.613633">
        <ele>2130.0</ele>
        <time>2018-06-24T15:03:43Z</time>
      </trkpt>
      <trkpt lat="40.247983" lon="-4.613483">
        <ele>2126.0</ele>
        <time>2018-06-24T15:03:44Z</time>
      </trkpt>
      <trkpt lat="40.248033" lon="-4.613333">
        <ele>2122.0</ele>
        <time>2018-06-24T15:03:45Z</time>
      </trkpt>
      <trkpt lat="40.248083" lon="-4.613183">
        <ele>2118.0</ele>
        <time>2018-06-24T15:03:46Z</time>
      </trkpt>
      <trkpt lat="40.248133" lon="-4.613033">
        <ele>2114.0</ele>
        <time>2018-06-24T15:03:47Z</time>
      </trkpt>
      <trkpt lat="40.248200" lon="-4.612883">
        <ele>2110.0</ele>
        <time>2018-06-24T15:03:48Z</time>
      </trkpt>
      <trkpt lat="40.248267" lon="-4.612733">
        <ele>2105.0</ele>
        <time>2018-06-24T15:03:49Z</time>
      </trkpt>
      <trkpt lat="40.248333" lon="-4.612600">
        <ele>2101.0</ele>
        <time>2018-06-24T15:03:50Z</time>
      </trkpt>
      <trkpt lat="40.248417" lon="-4.612467">
        <ele>2096.0</ele>
        <time>2018-06-24T15:03:51Z</time>
      </trkpt>
      <trkpt lat="40.248500" lon="-4.612333">
        <ele>2091.0</ele>
        <time>2018-06-24T15:03:52Z</time>
      </trkpt>
      <trkpt lat="40.248583" lon="-4.612200">
        <ele>2087.0</ele>
        <time>2018-06-24T15:03:53Z</time>
      </trkpt>
      <trkpt lat="40.248667" lon="-4.612067">
        <ele>2084.0</ele>
        <time>2018-06-24T15:03:54Z</time>
      </trkpt>
      <trkpt lat="40.248733" lon="-4.611933">
        <ele>2080.0</ele>
        <time>2018-06-24T15:03:55Z</time>
      </trkpt>
      <trkpt lat="40.248800" lon="-4.611800">
        <ele>2076.0</ele>
        <time>2018-06-24T15:03:56Z</time>
      </trkpt>
      <trkpt lat="40.248883" lon="-4.611667">
        <ele>2072.0</ele>
        <time>2018-06-24T15:03:57Z</time>
      </trkpt>
      <trkpt lat="40.248933" lon="-4.611517">
        <ele>2067.0</ele>
        <time>2018-06-24T15:03:58Z</time>
      </trkpt>
      <trkpt lat="40.249000" lon="-4.611367">
        <ele>2063.0</ele>
        <time>2018-06-24T15:03:59Z</time>
      </trkpt>
      <trkpt lat="40.249050" lon="-4.611217">
        <ele>2060.0</ele>
        <time>2018-06-24T15:04:00Z</time>
      </trkpt>
      <trkpt lat="40.249117" lon="-4.611067">
        <ele>2057.0</ele>
        <time>2018-06-24T15:04:01Z</time>
      </trkpt>
      <trkpt lat="40.249150" lon="-4.610917">
        <ele>2053.0</ele>
        <time>2018-06-24T15:04:02Z</time>
      </trkpt>
      <trkpt lat="40.249200" lon="-4.610767">
        <ele>2050.0</ele>
        <time>2018-06-24T15:04:03Z</time>
      </trkpt>
      <trkpt lat="40.249250" lon="-4.610617">
        <ele>2046.0</ele>
        <time>2018-06-24T15:04:04Z</time>
      </trkpt>
      <trkpt lat="40.249300" lon="-4.610467">
        <ele>2042.0</ele>
        <time>2018-06-24T15:04:05Z</time>
      </trkpt>
      <trkpt lat="40.249350" lon="-4.610317">
        <ele>2038.0</ele>
        <time>2018-06-24T15:04:06Z</time>
      </trkpt>
      <trkpt lat="40.249400" lon="-4.610167">
        <ele>2035.0</ele>
        <time>2018-06-24T15:04:07Z</time>
      </trkpt>
      <trkpt lat="40.249450" lon="-4.610017">
        <ele>2031.0</ele>
        <time>2018-06-24T15:04:08Z</time>
      </trkpt>
      <trkpt lat="40.249517" lon="-4.609883">
        <ele>2027.0</ele>
        <time>2018-06-24T15:04:09Z</time>
      </trkpt>
      <trkpt lat="40.249567" lon="-4.609733">
        <ele>2023.0</ele>
        <time>2018-06-24T15:04:10Z</time>
      </trkpt>
      <trkpt lat="40.249633" lon="-4.609583">
        <ele>2019.0</ele>
        <time>2018-06-24T15:04:11Z</time>
      </trkpt>
      <trkpt lat="40.249700" lon="-4.609433">
        <ele>2016.0</ele>
        <time>2018-06-24T15:04:12Z</time>
      </trkpt>
      <trkpt lat="40.249750" lon="-4.609300">
        <ele>2013.0</ele>
        <time>2018-06-24T15:04:13Z</time>
      </trkpt>
      <trkpt lat="40.249817" lon="-4.609167">
        <ele>2010.0</ele>
        <time>2018-06-24T15:04:14Z</time>
      </trkpt>
      <trkpt lat="40.249867" lon="-4.609017">
        <ele>2006.0</ele>
        <time>2018-06-24T15:04:15Z</time>
      </trkpt>
      <trkpt lat="40.249933" lon="-4.608883">
        <ele>2002.0</ele>
        <time>2018-06-24T15:04:16Z</time>
      </trkpt>
      <trkpt lat="40.249983" lon="-4.608717">
        <ele>1999.0</ele>
        <time>2018-06-24T15:04:17Z</time>
      </trkpt>
      <trkpt lat="40.250050" lon="-4.608567">
        <ele>1996.0</ele>
        <time>2018-06-24T15:04:18Z</time>
      </trkpt>
      <trkpt lat="40.250100" lon="-4.608417">
        <ele>1993.0</ele>
        <time>2018-06-24T15:04:19Z</time>
      </trkpt>
      <trkpt lat="40.250150" lon="-4.608267">
        <ele>1990.0</ele>
        <time>2018-06-24T15:04:20Z</time>
      </trkpt>
      <trkpt lat="40.250217" lon="-4.608133">
        <ele>1986.0</ele>
        <time>2018-06-24T15:04:21Z</time>
      </trkpt>
      <trkpt lat="40.250283" lon="-4.607983">
        <ele>1982.0</ele>
        <time>2018-06-24T15:04:22Z</time>
      </trkpt>
      <trkpt lat="40.250367" lon="-4.607817">
        <ele>1978.0</ele>
        <time>2018-06-24T15:04:23Z</time>
      </trkpt>
      <trkpt lat="40.250417" lon="-4.607700">
        <ele>1975.0</ele>
        <time>2018-06-24T15:04:24Z</time>
      </trkpt>
      <trkpt lat="40.250483" lon="-4.607567">
        <ele>1971.0</ele>
        <time>2018-06-24T15:04:25Z</time>
      </trkpt>
      <trkpt lat="40.250550" lon="-4.607400">
        <ele>1968.0</ele>
        <time>2018-06-24T15:04:26Z</time>
      </trkpt>
      <trkpt lat="40.250617" lon="-4.607250">
        <ele>1965.0</ele>
        <time>2018-06-24T15:04:27Z</time>
      </trkpt>
      <trkpt lat="40.250667" lon="-4.607100">
        <ele>1963.0</ele>
        <time>2018-06-24T15:04:28Z</time>
      </trkpt>
      <trkpt lat="40.250733" lon="-4.606950">
        <ele>1960.0</ele>
        <time>2018-06-24T15:04:29Z</time>
      </trkpt>
      <trkpt lat="40.250800" lon="-4.606817">
        <ele>1957.0</ele>
        <time>2018-06-24T15:04:30Z</time>
      </trkpt>
      <trkpt lat="40.250850" lon="-4.606667">
        <ele>1955.0</ele>
        <time>2018-06-24T15:04:31Z</time>
      </trkpt>
      <trkpt lat="40.250917" lon="-4.606533">
        <ele>1952.0</ele>
        <time>2018-06-24T15:04:32Z</time>
      </trkpt>
      <trkpt lat="40.250983" lon="-4.606400">
        <ele>1949.0</ele>
        <time>2018-06-24T15:04:33Z</time>
      </trkpt>
      <trkpt lat="40.251050" lon="-4.606267">
        <ele>1946.0</ele>
        <time>2018-06-24T15:04:34Z</time>
      </trkpt>
      <trkpt lat="40.251117" lon="-4.606133">
        <ele>1942.0</ele>
        <time>2018-06-24T15:04:35Z</time>
      </trkpt>
      <trkpt lat="40.251183" lon="-4.606000">
        <ele>1938.0</ele>
        <time>2018-06-24T15:04:36Z</time>
      </trkpt>
      <trkpt lat="40.251250" lon="-4.605850">
        <ele>1935.0</ele>
        <time>2018-06-24T15:04:37Z</time>
      </trkpt>
      <trkpt lat="40.251300" lon="-4.605700">
        <ele>1932.0</ele>
        <time>2018-06-24T15:04:38Z</time>
      </trkpt>
      <trkpt lat="40.251333" lon="-4.605550">
        <ele>1929.0</ele>
        <time>2018-06-24T15:04:39Z</time>
      </trkpt>
      <trkpt lat="40.251383" lon="-4.605400">
        <ele>1926.0</ele>
        <time>2018-06-24T15:04:40Z</time>
      </trkpt>
      <trkpt lat="40.251417" lon="-4.605250">
        <ele>1922.0</ele>
        <time>2018-06-24T15:04:41Z</time>
      </trkpt>
      <trkpt lat="40.251467" lon="-4.605100">
        <ele>1918.0</ele>
        <time>2018-06-24T15:04:42Z</time>
      </trkpt>
      <trkpt lat="40.251533" lon="-4.604950">
        <ele>1913.0</ele>
        <time>2018-06-24T15:04:43Z</time>
      </trkpt>
      <trkpt lat="40.251583" lon="-4.604800">
        <ele>1909.0</ele>
        <time>2018-06-24T15:04:44Z</time>
      </trkpt>
      <trkpt lat="40.251633" lon="-4.604633">
        <ele>1905.0</ele>
        <time>2018-06-24T15:04:45Z</time>
      </trkpt>
      <trkpt lat="40.251700" lon="-4.604483">
        <ele>1902.0</ele>
        <time>2018-06-24T15:04:46Z</time>
      </trkpt>
      <trkpt lat="40.251750" lon="-4.604317">
        <ele>1898.0</ele>
        <time>2018-06-24T15:04:47Z</time>
      </trkpt>
      <trkpt lat="40.251817" lon="-4.604183">
        <ele>1895.0</ele>
        <time>2018-06-24T15:04:48Z</time>
      </trkpt>
      <trkpt lat="40.251883" lon="-4.604033">
        <ele>1891.0</ele>
        <time>2018-06-24T15:04:49Z</time>
      </trkpt>
      <trkpt lat="40.251967" lon="-4.603900">
        <ele>1886.0</ele>
        <time>2018-06-24T15:04:50Z</time>
      </trkpt>
      <trkpt lat="40.252033" lon="-4.603750">
        <ele>1882.0</ele>
        <time>2018-06-24T15:04:51Z</time>
      </trkpt>
      <trkpt lat="40.252100" lon="-4.603600">
        <ele>1878.0</ele>
        <time>2018-06-24T15:04:52Z</time>
      </trkpt>
      <trkpt lat="40.252167" lon="-4.603450">
        <ele>1875.0</ele>
        <time>2018-06-24T15:04:53Z</time>
      </trkpt>
      <trkpt lat="40.252233" lon="-4.603300">
        <ele>1871.0</ele>
        <time>2018-06-24T15:04:54Z</time>
      </trkpt>
      <trkpt lat="40.252317" lon="-4.603167">
        <ele>1867.0</ele>
        <time>2018-06-24T15:04:55Z</time>
      </trkpt>
      <trkpt lat="40.252383" lon="-4.603017">
        <ele>1862.0</ele>
        <time>2018-06-24T15:04:56Z</time>
      </trkpt>
      <trkpt lat="40.252450" lon="-4.602867">
        <ele>1858.0</ele>
        <time>2018-06-24T15:04:57Z</time>
      </trkpt>
      <trkpt lat="40.252517" lon="-4.602700">
        <ele>1854.0</ele>
        <time>2018-06-24T15:04:58Z</time>
      </trkpt>
      <trkpt lat="40.252567" lon="-4.602550">
        <ele>1850.0</ele>
        <time>2018-06-24T15:04:59Z</time>
      </trkpt>
      <trkpt lat="40.252633" lon="-4.602383">
        <ele>1846.0</ele>
        <time>2018-06-24T15:05:00Z</time>
      </trkpt>
      <trkpt lat="40.252683" lon="-4.602233">
        <ele>1842.0</ele>
        <time>2018-06-24T15:05:01Z</time>
      </trkpt>
      <trkpt lat="40.252733" lon="-4.602067">
        <ele>1839.0</ele>
        <time>2018-06-24T15:05:02Z</time>
      </trkpt>
      <trkpt lat="40.252783" lon="-4.601900">
        <ele>1835.0</ele>
        <time>2018-06-24T15:05:03Z</time>
      </trkpt>
      <trkpt lat="40.252817" lon="-4.601750">
        <ele>1831.0</ele>
        <time>2018-06-24T15:05:04Z</time>
      </trkpt>
      <trkpt lat="40.252850" lon="-4.601567">
        <ele>1827.0</ele>
        <time>2018-06-24T15:05:05Z</time>
      </trkpt>
      <trkpt lat="40.252883" lon="-4.601400">
        <ele>1822.0</ele>
        <time>2018-06-24T15:05:06Z</time>
      </trkpt>
      <trkpt lat="40.252917" lon="-4.601233">
        <ele>1818.0</ele>
        <time>2018-06-24T15:05:07Z</time>
      </trkpt>
      <trkpt lat="40.252933" lon="-4.601050">
        <ele>1814.0</ele>
        <time>2018-06-24T15:05:08Z</time>
      </trkpt>
      <trkpt lat="40.252967" lon="-4.600883">
        <ele>1810.0</ele>
        <time>2018-06-24T15:05:09Z</time>
      </trkpt>
      <trkpt lat="40.252983" lon="-4.600717">
        <ele>1806.0</ele>
        <time>2018-06-24T15:05:10Z</time>
      </trkpt>
      <trkpt lat="40.253017" lon="-4.600550">
        <ele>1801.0</ele>
        <time>2018-06-24T15:05:11Z</time>
      </trkpt>
      <trkpt lat="40.253067" lon="-4.600400">
        <ele>1796.0</ele>
        <time>2018-06-24T15:05:12Z</time>
      </trkpt>
      <trkpt lat="40.253133" lon="-4.600250">
        <ele>1791.0</ele>
        <time>2018-06-24T15:05:13Z</time>
      </trkpt>
      <trkpt lat="40.253200" lon="-4.600100">
        <ele>1786.0</ele>
        <time>2018-06-24T15:05:14Z</time>
      </trkpt>
      <trkpt lat="40.253283" lon="-4.599950">
        <ele>1781.0</ele>
        <time>2018-06-24T15:05:15Z</time>
      </trkpt>
      <trkpt lat="40.253350" lon="-4.599800">
        <ele>1777.0</ele>
        <time>2018-06-24T15:05:16Z</time>
      </trkpt>
      <trkpt lat="40.253417" lon="-4.599650">
        <ele>1773.0</ele>
        <time>2018-06-24T15:05:17Z</time>
      </trkpt>
      <trkpt lat="40.253500" lon="-4.599517">
        <ele>1768.0</ele>
        <time>2018-06-24T15:05:18Z</time>
      </trkpt>
      <trkpt lat="40.253583" lon="-4.599383">
        <ele>1764.0</ele>
        <time>2018-06-24T15:05:19Z</time>
      </trkpt>
      <trkpt lat="40.253667" lon="-4.599233">
        <ele>1759.0</ele>
        <time>2018-06-24T15:05:20Z</time>
      </trkpt>
      <trkpt lat="40.253750" lon="-4.599083">
        <ele>1755.0</ele>
        <time>2018-06-24T15:05:21Z</time>
      </trkpt>
      <trkpt lat="40.253800" lon="-4.598917">
        <ele>1751.0</ele>
        <time>2018-06-24T15:05:22Z</time>
      </trkpt>
      <trkpt lat="40.253867" lon="-4.598750">
        <ele>1747.0</ele>
        <time>2018-06-24T15:05:23Z</time>
      </trkpt>
      <trkpt lat="40.253917" lon="-4.598583">
        <ele>1744.0</ele>
        <time>2018-06-24T15:05:24Z</time>
      </trkpt>
      <trkpt lat="40.253967" lon="-4.598433">
        <ele>1740.0</ele>
        <time>2018-06-24T15:05:25Z</time>
      </trkpt>
      <trkpt lat="40.254017" lon="-4.598267">
        <ele>1735.0</ele>
        <time>2018-06-24T15:05:26Z</time>
      </trkpt>
      <trkpt lat="40.254083" lon="-4.598117">
        <ele>1731.0</ele>
        <time>2018-06-24T15:05:27Z</time>
      </trkpt>
      <trkpt lat="40.254167" lon="-4.597967">
        <ele>1726.0</ele>
        <time>2018-06-24T15:05:28Z</time>
      </trkpt>
      <trkpt lat="40.254250" lon="-4.597833">
        <ele>1721.0</ele>
        <time>2018-06-24T15:05:29Z</time>
      </trkpt>
      <trkpt lat="40.254333" lon="-4.597700">
        <ele>1716.0</ele>
        <time>2018-06-24T15:05:30Z</time>
      </trkpt>
      <trkpt lat="40.254433" lon="-4.597583">
        <ele>1713.0</ele>
        <time>2018-06-24T15:05:31Z</time>
      </trkpt>
      <trkpt lat="40.254533" lon="-4.597467">
        <ele>1709.0</ele>
        <time>2018-06-24T15:05:32Z</time>
      </trkpt>
      <trkpt lat="40.254633" lon="-4.597367">
        <ele>1706.0</ele>
        <time>2018-06-24T15:05:33Z</time>
      </trkpt>
      <trkpt lat="40.254717" lon="-4.597267">
        <ele>1702.0</ele>
        <time>2018-06-24T15:05:34Z</time>
      </trkpt>
      <trkpt lat="40.254817" lon="-4.597150">
        <ele>1697.0</ele>
        <time>2018-06-24T15:05:35Z</time>
      </trkpt>
      <trkpt lat="40.254900" lon="-4.597033">
        <ele>1692.0</ele>
        <time>2018-06-24T15:05:36Z</time>
      </trkpt>
      <trkpt lat="40.254983" lon="-4.596883">
        <ele>1687.0</ele>
        <time>2018-06-24T15:05:37Z</time>
      </trkpt>
      <trkpt lat="40.255050" lon="-4.596733">
        <ele>1683.0</ele>
        <time>2018-06-24T15:05:38Z</time>
      </trkpt>
      <trkpt lat="40.255117" lon="-4.596600">
        <ele>1680.0</ele>
        <time>2018-06-24T15:05:39Z</time>
      </trkpt>
      <trkpt lat="40.255183" lon="-4.596450">
        <ele>1676.0</ele>
        <time>2018-06-24T15:05:40Z</time>
      </trkpt>
      <trkpt lat="40.255250" lon="-4.596317">
        <ele>1672.0</ele>
        <time>2018-06-24T15:05:41Z</time>
      </trkpt>
      <trkpt lat="40.255317" lon="-4.596167">
        <ele>1667.0</ele>
        <time>2018-06-24T15:05:42Z</time>
      </trkpt>
      <trkpt lat="40.255400" lon="-4.596033">
        <ele>1663.0</ele>
        <time>2018-06-24T15:05:43Z</time>
      </trkpt>
      <trkpt lat="40.255483" lon="-4.595900">
        <ele>1659.0</ele>
        <time>2018-06-24T15:05:44Z</time>
      </trkpt>
      <trkpt lat="40.255567" lon="-4.595767">
        <ele>1655.0</ele>
        <time>2018-06-24T15:05:45Z</time>
      </trkpt>
      <trkpt lat="40.255650" lon="-4.595633">
        <ele>1651.0</ele>
        <time>2018-06-24T15:05:46Z</time>
      </trkpt>
      <trkpt lat="40.255717" lon="-4.595500">
        <ele>1648.0</ele>
        <time>2018-06-24T15:05:47Z</time>
      </trkpt>
      <trkpt lat="40.255800" lon="-4.595383">
        <ele>1645.0</ele>
        <time>2018-06-24T15:05:48Z</time>
      </trkpt>
      <trkpt lat="40.255883" lon="-4.595250">
        <ele>1641.0</ele>
        <time>2018-06-24T15:05:49Z</time>
      </trkpt>
      <trkpt lat="40.255950" lon="-4.595100">
        <ele>1637.0</ele>
        <time>2018-06-24T15:05:50Z</time>
      </trkpt>
      <trkpt lat="40.256000" lon="-4.594950">
        <ele>1634.0</ele>
        <time>2018-06-24T15:05:51Z</time>
      </trkpt>
      <trkpt lat="40.256067" lon="-4.594800">
        <ele>1631.0</ele>
        <time>2018-06-24T15:05:52Z</time>
      </trkpt>
      <trkpt lat="40.256117" lon="-4.594650">
        <ele>1627.0</ele>
        <time>2018-06-24T15:05:53Z</time>
      </trkpt>
      <trkpt lat="40.256183" lon="-4.594500">
        <ele>1624.0</ele>
        <time>2018-06-24T15:05:54Z</time>
      </trkpt>
      <trkpt lat="40.256233" lon="-4.594350">
        <ele>1621.0</ele>
        <time>2018-06-24T15:05:55Z</time>
      </trkpt>
      <trkpt lat="40.256283" lon="-4.594200">
        <ele>1618.0</ele>
        <time>2018-06-24T15:05:56Z</time>
      </trkpt>
      <trkpt lat="40.256333" lon="-4.594050">
        <ele>1614.0</ele>
        <time>2018-06-24T15:05:57Z</time>
      </trkpt>
      <trkpt lat="40.256400" lon="-4.593900">
        <ele>1611.0</ele>
        <time>2018-06-24T15:05:58Z</time>
      </trkpt>
      <trkpt lat="40.256483" lon="-4.593767">
        <ele>1608.0</ele>
        <time>2018-06-24T15:05:59Z</time>
      </trkpt>
      <trkpt lat="40.256567" lon="-4.593633">
        <ele>1605.0</ele>
        <time>2018-06-24T15:06:00Z</time>
      </trkpt>
      <trkpt lat="40.256633" lon="-4.593500">
        <ele>1602.0</ele>
        <time>2018-06-24T15:06:01Z</time>
      </trkpt>
      <trkpt lat="40.256717" lon="-4.593383">
        <ele>1599.0</ele>
        <time>2018-06-24T15:06:02Z</time>
      </trkpt>
      <trkpt lat="40.256783" lon="-4.593250">
        <ele>1596.0</ele>
        <time>2018-06-24T15:06:03Z</time>
      </trkpt>
      <trkpt lat="40.256867" lon="-4.593133">
        <ele>1594.0</ele>
        <time>2018-06-24T15:06:04Z</time>
      </trkpt>
      <trkpt lat="40.256950" lon="-4.593017">
        <ele>1591.0</ele>
        <time>2018-06-24T15:06:05Z</time>
      </trkpt>
      <trkpt lat="40.257033" lon="-4.592883">
        <ele>1589.0</ele>
        <time>2018-06-24T15:06:06Z</time>
      </trkpt>
      <trkpt lat="40.257100" lon="-4.592733">
        <ele>1587.0</ele>
        <time>2018-06-24T15:06:07Z</time>
      </trkpt>
      <trkpt lat="40.257167" lon="-4.592583">
        <ele>1585.0</ele>
        <time>2018-06-24T15:06:08Z</time>
      </trkpt>
      <trkpt lat="40.257233" lon="-4.592433">
        <ele>1583.0</ele>
        <time>2018-06-24T15:06:09Z</time>
      </trkpt>
      <trkpt lat="40.257300" lon="-4.592283">
        <ele>1582.0</ele>
        <time>2018-06-24T15:06:10Z</time>
      </trkpt>
      <trkpt lat="40.257367" lon="-4.592150">
        <ele>1582.0</ele>
        <time>2018-06-24T15:06:11Z</time>
      </trkpt>
      <trkpt lat="40.257417" lon="-4.592033">
        <ele>1581.0</ele>
        <time>2018-06-24T15:06:12Z</time>
      </trkpt>
      <trkpt lat="40.257483" lon="-4.591917">
        <ele>1579.0</ele>
        <time>2018-06-24T15:06:13Z</time>
      </trkpt>
      <trkpt lat="40.257533" lon="-4.591800">
        <ele>1576.0</ele>
        <time>2018-06-24T15:06:14Z</time>
      </trkpt>
      <trkpt lat="40.257600" lon="-4.591683">
        <ele>1573.0</ele>
        <time>2018-06-24T15:06:15Z</time>
      </trkpt>
      <trkpt lat="40.257650" lon="-4.591533">
        <ele>1571.0</ele>
        <time>2018-06-24T15:06:16Z</time>
      </trkpt>
      <trkpt lat="40.257700" lon="-4.591400">
        <ele>1570.0</ele>
        <time>2018-06-24T15:06:17Z</time>
      </trkpt>
      <trkpt lat="40.257733" lon="-4.591267">
        <ele>1570.0</ele>
        <time>2018-06-24T15:06:18Z</time>
      </trkpt>
      <trkpt lat="40.257783" lon="-4.591133">
        <ele>1569.0</ele>
        <time>2018-06-24T15:06:19Z</time>
      </trkpt>
      <trkpt lat="40.257817" lon="-4.591017">
        <ele>1568.0</ele>
        <time>2018-06-24T15:06:20Z</time>
      </trkpt>
      <trkpt lat="40.257867" lon="-4.590900">
        <ele>1566.0</ele>
        <time>2018-06-24T15:06:21Z</time>
      </trkpt>
      <trkpt lat="40.257900" lon="-4.590767">
        <ele>1564.0</ele>
        <time>2018-06-24T15:06:22Z</time>
      </trkpt>
      <trkpt lat="40.257950" lon="-4.590650">
        <ele>1562.0</ele>
        <time>2018-06-24T15:06:23Z</time>
      </trkpt>
      <trkpt lat="40.257983" lon="-4.590517">
        <ele>1560.0</ele>
        <time>2018-06-24T15:06:24Z</time>
      </trkpt>
      <trkpt lat="40.258017" lon="-4.590383">
        <ele>1558.0</ele>
        <time>2018-06-24T15:06:25Z</time>
      </trkpt>
      <trkpt lat="40.258067" lon="-4.590250">
        <ele>1555.0</ele>
        <time>2018-06-24T15:06:26Z</time>
      </trkpt>
      <trkpt lat="40.258117" lon="-4.590133">
        <ele>1552.0</ele>
        <time>2018-06-24T15:06:27Z</time>
      </trkpt>
      <trkpt lat="40.258183" lon="-4.590017">
        <ele>1550.0</ele>
        <time>2018-06-24T15:06:28Z</time>
      </trkpt>
      <trkpt lat="40.258233" lon="-4.589900">
        <ele>1548.0</ele>
        <time>2018-06-24T15:06:29Z</time>
      </trkpt>
      <trkpt lat="40.258283" lon="-4.589783">
        <ele>1546.0</ele>
        <time>2018-06-24T15:06:30Z</time>
      </trkpt>
      <trkpt lat="40.258333" lon="-4.589667">
        <ele>1545.0</ele>
        <time>2018-06-24T15:06:31Z</time>
      </trkpt>
      <trkpt lat="40.258367" lon="-4.589550">
        <ele>1543.0</ele>
        <time>2018-06-24T15:06:32Z</time>
      </trkpt>
      <trkpt lat="40.258400" lon="-4.589450">
        <ele>1542.0</ele>
        <time>2018-06-24T15:06:33Z</time>
      </trkpt>
      <trkpt lat="40.258450" lon="-4.589333">
        <ele>1540.0</ele>
        <time>2018-06-24T15:06:34Z</time>
      </trkpt>
      <trkpt lat="40.258500" lon="-4.589217">
        <ele>1539.0</ele>
        <time>2018-06-24T15:06:35Z</time>
      </trkpt>
      <trkpt lat="40.258550" lon="-4.589100">
        <ele>1538.0</ele>
        <time>2018-06-24T15:06:36Z</time>
      </trkpt>
      <trkpt lat="40.258617" lon="-4.588983">
        <ele>1537.0</ele>
        <time>2018-06-24T15:06:37Z</time>
      </trkpt>
      <trkpt lat="40.258683" lon="-4.588883">
        <ele>1536.0</ele>
        <time>2018-06-24T15:06:38Z</time>
      </trkpt>
      <trkpt lat="40.258750" lon="-4.588783">
        <ele>1536.0</ele>
        <time>2018-06-24T15:06:39Z</time>
      </trkpt>
      <trkpt lat="40.258817" lon="-4.588683">
        <ele>1535.0</ele>
        <time>2018-06-24T15:06:40Z</time>
      </trkpt>
      <trkpt lat="40.258883" lon="-4.588567">
        <ele>1534.0</ele>
        <time>2018-06-24T15:06:41Z</time>
      </trkpt>
      <trkpt lat="40.258950" lon="-4.588450">
        <ele>1533.0</ele>
        <time>2018-06-24T15:06:42Z</time>
      </trkpt>
      <trkpt lat="40.259033" lon="-4.588367">
        <ele>1533.0</ele>
        <time>2018-06-24T15:06:43Z</time>
      </trkpt>
      <trkpt lat="40.259133" lon="-4.588300">
        <ele>1533.0</ele>
        <time>2018-06-24T15:06:44Z</time>
      </trkpt>
      <trkpt lat="40.259233" lon="-4.588250">
        <ele>1532.0</ele>
        <time>2018-06-24T15:06:45Z</time>
      </trkpt>
      <trkpt lat="40.259333" lon="-4.588200">
        <ele>1531.0</ele>
        <time>2018-06-24T15:06:46Z</time>
      </trkpt>
      <trkpt lat="40.259433" lon="-4.588117">
        <ele>1530.0</ele>
        <time>2018-06-24T15:06:47Z</time>
      </trkpt>
      <trkpt lat="40.259517" lon="-4.588017">
        <ele>1528.0</ele>
        <time>2018-06-24T15:06:48Z</time>
      </trkpt>
      <trkpt lat="40.259617" lon="-4.587900">
        <ele>1527.0</ele>
        <time>2018-06-24T15:06:49Z</time>
      </trkpt>
      <trkpt lat="40.259700" lon="-4.587783">
        <ele>1527.0</ele>
        <time>2018-06-24T15:06:50Z</time>
      </trkpt>
      <trkpt lat="40.259767" lon="-4.587667">
        <ele>1527.0</ele>
        <time>2018-06-24T15:06:51Z</time>
      </trkpt>
      <trkpt lat="40.259800" lon="-4.587533">
        <ele>1527.0</ele>
        <time>2018-06-24T15:06:52Z</time>
      </trkpt>
      <trkpt lat="40.259833" lon="-4.587400">
        <ele>1527.0</ele>
        <time>2018-06-24T15:06:53Z</time>
      </trkpt>
      <trkpt lat="40.259833" lon="-4.587267">
        <ele>1528.0</ele>
        <time>2018-06-24T15:06:54Z</time>
      </trkpt>
      <trkpt lat="40.259817" lon="-4.587150">
        <ele>1529.0</ele>
        <time>2018-06-24T15:06:55Z</time>
      </trkpt>
      <trkpt lat="40.259817" lon="-4.587033">
        <ele>1531.0</ele>
        <time>2018-06-24T15:06:56Z</time>
      </trkpt>
      <trkpt lat="40.259800" lon="-4.586917">
        <ele>1531.0</ele>
        <time>2018-06-24T15:06:57Z</time>
      </trkpt>
      <trkpt lat="40.259817" lon="-4.586800">
        <ele>1531.0</ele>
        <time>2018-06-24T15:06:58Z</time>
      </trkpt>
      <trkpt lat="40.259817" lon="-4.586650">
        <ele>1531.0</ele>
        <time>2018-06-24T15:06:59Z</time>
      </trkpt>
      <trkpt lat="40.259817" lon="-4.586517">
        <ele>1532.0</ele>
        <time>2018-06-24T15:07:00Z</time>
      </trkpt>
      <trkpt lat="40.259817" lon="-4.586383">
        <ele>1533.0</ele>
        <time>2018-06-24T15:07:01Z</time>
      </trkpt>
      <trkpt lat="40.259833" lon="-4.586250">
        <ele>1535.0</ele>
        <time>2018-06-24T15:07:02Z</time>
      </trkpt>
      <trkpt lat="40.259850" lon="-4.586117">
        <ele>1536.0</ele>
        <time>2018-06-24T15:07:03Z</time>
      </trkpt>
      <trkpt lat="40.259883" lon="-4.585983">
        <ele>1539.0</ele>
        <time>2018-06-24T15:07:04Z</time>
      </trkpt>
      <trkpt lat="40.259900" lon="-4.585867">
        <ele>1541.0</ele>
        <time>2018-06-24T15:07:05Z</time>
      </trkpt>
      <trkpt lat="40.259917" lon="-4.585733">
        <ele>1544.0</ele>
        <time>2018-06-24T15:07:06Z</time>
      </trkpt>
      <trkpt lat="40.259933" lon="-4.585600">
        <ele>1545.0</ele>
        <time>2018-06-24T15:07:07Z</time>
      </trkpt>
      <trkpt lat="40.259950" lon="-4.585450">
        <ele>1547.0</ele>
        <time>2018-06-24T15:07:08Z</time>
      </trkpt>
      <trkpt lat="40.259967" lon="-4.585317">
        <ele>1549.0</ele>
        <time>2018-06-24T15:07:09Z</time>
      </trkpt>
      <trkpt lat="40.259983" lon="-4.585183">
        <ele>1552.0</ele>
        <time>2018-06-24T15:07:10Z</time>
      </trkpt>
      <trkpt lat="40.260000" lon="-4.585050">
        <ele>1555.0</ele>
        <time>2018-06-24T15:07:11Z</time>
      </trkpt>
      <trkpt lat="40.260017" lon="-4.584917">
        <ele>1557.0</ele>
        <time>2018-06-24T15:07:12Z</time>
      </trkpt>
      <trkpt lat="40.260050" lon="-4.584767">
        <ele>1559.0</ele>
        <time>2018-06-24T15:07:13Z</time>
      </trkpt>
      <trkpt lat="40.260083" lon="-4.584617">
        <ele>1561.0</ele>
        <time>2018-06-24T15:07:14Z</time>
      </trkpt>
      <trkpt lat="40.260133" lon="-4.584483">
        <ele>1564.0</ele>
        <time>2018-06-24T15:07:15Z</time>
      </trkpt>
      <trkpt lat="40.260183" lon="-4.584333">
        <ele>1567.0</ele>
        <time>2018-06-24T15:07:16Z</time>
      </trkpt>
      <trkpt lat="40.260233" lon="-4.584200">
        <ele>1571.0</ele>
        <time>2018-06-24T15:07:17Z</time>
      </trkpt>
      <trkpt lat="40.260283" lon="-4.584050">
        <ele>1575.0</ele>
        <time>2018-06-24T15:07:18Z</time>
      </trkpt>
      <trkpt lat="40.260333" lon="-4.583900">
        <ele>1579.0</ele>
        <time>2018-06-24T15:07:19Z</time>
      </trkpt>
      <trkpt lat="40.260383" lon="-4.583733">
        <ele>1583.0</ele>
        <time>2018-06-24T15:07:20Z</time>
      </trkpt>
      <trkpt lat="40.260433" lon="-4.583583">
        <ele>1586.0</ele>
        <time>2018-06-24T15:07:21Z</time>
      </trkpt>
      <trkpt lat="40.260483" lon="-4.583417">
        <ele>1588.0</ele>
        <time>2018-06-24T15:07:22Z</time>
      </trkpt>
      <trkpt lat="40.260550" lon="-4.583283">
        <ele>1589.0</ele>
        <time>2018-06-24T15:07:23Z</time>
      </trkpt>
      <trkpt lat="40.260600" lon="-4.583150">
        <ele>1589.0</ele>
        <time>2018-06-24T15:07:24Z</time>
      </trkpt>
      <trkpt lat="40.260650" lon="-4.583033">
        <ele>1588.0</ele>
        <time>2018-06-24T15:07:25Z</time>
      </trkpt>
      <trkpt lat="40.260700" lon="-4.582917">
        <ele>1586.0</ele>
        <time>2018-06-24T15:07:26Z</time>
      </trkpt>
      <trkpt lat="40.260750" lon="-4.582783">
        <ele>1585.0</ele>
        <time>2018-06-24T15:07:27Z</time>
      </trkpt>
      <trkpt lat="40.260800" lon="-4.582633">
        <ele>1583.0</ele>
        <time>2018-06-24T15:07:28Z</time>
      </trkpt>
      <trkpt lat="40.260850" lon="-4.582500">
        <ele>1582.0</ele>
        <time>2018-06-24T15:07:29Z</time>
      </trkpt>
      <trkpt lat="40.260900" lon="-4.582367">
        <ele>1581.0</ele>
        <time>2018-06-24T15:07:30Z</time>
      </trkpt>
      <trkpt lat="40.260950" lon="-4.582217">
        <ele>1578.0</ele>
        <time>2018-06-24T15:07:31Z</time>
      </trkpt>
      <trkpt lat="40.261017" lon="-4.582083">
        <ele>1577.0</ele>
        <time>2018-06-24T15:07:32Z</time>
      </trkpt>
      <trkpt lat="40.261100" lon="-4.581950">
        <ele>1576.0</ele>
        <time>2018-06-24T15:07:33Z</time>
      </trkpt>
      <trkpt lat="40.261167" lon="-4.581817">
        <ele>1574.0</ele>
        <time>2018-06-24T15:07:34Z</time>
      </trkpt>
      <trkpt lat="40.261250" lon="-4.581700">
        <ele>1571.0</ele>
        <time>2018-06-24T15:07:35Z</time>
      </trkpt>
      <trkpt lat="40.261317" lon="-4.581600">
        <ele>1569.0</ele>
        <time>2018-06-24T15:07:36Z</time>
      </trkpt>
      <trkpt lat="40.261417" lon="-4.581483">
        <ele>1566.0</ele>
        <time>2018-06-24T15:07:37Z</time>
      </trkpt>
      <trkpt lat="40.261517" lon="-4.581400">
        <ele>1562.0</ele>
        <time>2018-06-24T15:07:38Z</time>
      </trkpt>
      <trkpt lat="40.261650" lon="-4.581300">
        <ele>1558.0</ele>
        <time>2018-06-24T15:07:39Z</time>
      </trkpt>
      <trkpt lat="40.261750" lon="-4.581217">
        <ele>1558.0</ele>
        <time>2018-06-24T15:07:40Z</time>
      </trkpt>
      <trkpt lat="40.261850" lon="-4.581133">
        <ele>1557.0</ele>
        <time>2018-06-24T15:07:41Z</time>
      </trkpt>
      <trkpt lat="40.261950" lon="-4.581033">
        <ele>1556.0</ele>
        <time>2018-06-24T15:07:42Z</time>
      </trkpt>
      <trkpt lat="40.262033" lon="-4.580950">
        <ele>1553.0</ele>
        <time>2018-06-24T15:07:43Z</time>
      </trkpt>
      <trkpt lat="40.262117" lon="-4.580867">
        <ele>1549.0</ele>
        <time>2018-06-24T15:07:44Z</time>
      </trkpt>
      <trkpt lat="40.262200" lon="-4.580783">
        <ele>1546.0</ele>
        <time>2018-06-24T15:07:45Z</time>
      </trkpt>
      <trkpt lat="40.262300" lon="-4.580683">
        <ele>1542.0</ele>
        <time>2018-06-24T15:07:46Z</time>
      </trkpt>
      <trkpt lat="40.262367" lon="-4.580583">
        <ele>1537.0</ele>
        <time>2018-06-24T15:07:47Z</time>
      </trkpt>
      <trkpt lat="40.262417" lon="-4.580450">
        <ele>1532.0</ele>
        <time>2018-06-24T15:07:48Z</time>
      </trkpt>
      <trkpt lat="40.262450" lon="-4.580317">
        <ele>1528.0</ele>
        <time>2018-06-24T15:07:49Z</time>
      </trkpt>
      <trkpt lat="40.262500" lon="-4.580183">
        <ele>1524.0</ele>
        <time>2018-06-24T15:07:50Z</time>
      </trkpt>
      <trkpt lat="40.262533" lon="-4.580050">
        <ele>1520.0</ele>
        <time>2018-06-24T15:07:51Z</time>
      </trkpt>
      <trkpt lat="40.262600" lon="-4.579900">
        <ele>1515.0</ele>
        <time>2018-06-24T15:07:52Z</time>
      </trkpt>
      <trkpt lat="40.262650" lon="-4.579750">
        <ele>1512.0</ele>
        <time>2018-06-24T15:07:53Z</time>
      </trkpt>
      <trkpt lat="40.262700" lon="-4.579600">
        <ele>1510.0</ele>
        <time>2018-06-24T15:07:54Z</time>
      </trkpt>
      <trkpt lat="40.262750" lon="-4.579467">
        <ele>1506.0</ele>
        <time>2018-06-24T15:07:55Z</time>
      </trkpt>
      <trkpt lat="40.262817" lon="-4.579350">
        <ele>1503.0</ele>
        <time>2018-06-24T15:07:56Z</time>
      </trkpt>
      <trkpt lat="40.262917" lon="-4.579233">
        <ele>1499.0</ele>
        <time>2018-06-24T15:07:57Z</time>
      </trkpt>
      <trkpt lat="40.263017" lon="-4.579133">
        <ele>1494.0</ele>
        <time>2018-06-24T15:07:58Z</time>
      </trkpt>
      <trkpt lat="40.263117" lon="-4.579050">
        <ele>1491.0</ele>
        <time>2018-06-24T15:07:59Z</time>
      </trkpt>
      <trkpt lat="40.263250" lon="-4.579000">
        <ele>1487.0</ele>
        <time>2018-06-24T15:08:00Z</time>
      </trkpt>
      <trkpt lat="40.263367" lon="-4.578983">
        <ele>1481.0</ele>
        <time>2018-06-24T15:08:01Z</time>
      </trkpt>
      <trkpt lat="40.263483" lon="-4.578983">
        <ele>1477.0</ele>
        <time>2018-06-24T15:08:02Z</time>
      </trkpt>
      <trkpt lat="40.263583" lon="-4.579017">
        <ele>1472.0</ele>
        <time>2018-06-24T15:08:03Z</time>
      </trkpt>
      <trkpt lat="40.263700" lon="-4.579050">
        <ele>1468.0</ele>
        <time>2018-06-24T15:08:04Z</time>
      </trkpt>
      <trkpt lat="40.263800" lon="-4.579100">
        <ele>1463.0</ele>
        <time>2018-06-24T15:08:05Z</time>
      </trkpt>
      <trkpt lat="40.263900" lon="-4.579167">
        <ele>1458.0</ele>
        <time>2018-06-24T15:08:06Z</time>
      </trkpt>
      <trkpt lat="40.263983" lon="-4.579233">
        <ele>1452.0</ele>
        <time>2018-06-24T15:08:07Z</time>
      </trkpt>
      <trkpt lat="40.264067" lon="-4.579283">
        <ele>1447.0</ele>
        <time>2018-06-24T15:08:08Z</time>
      </trkpt>
      <trkpt lat="40.264167" lon="-4.579333">
        <ele>1441.0</ele>
        <time>2018-06-24T15:08:09Z</time>
      </trkpt>
      <trkpt lat="40.264283" lon="-4.579333">
        <ele>1433.0</ele>
        <time>2018-06-24T15:08:10Z</time>
      </trkpt>
      <trkpt lat="40.264400" lon="-4.579300">
        <ele>1426.0</ele>
        <time>2018-06-24T15:08:11Z</time>
      </trkpt>
      <trkpt lat="40.264533" lon="-4.579267">
        <ele>1421.0</ele>
        <time>2018-06-24T15:08:12Z</time>
      </trkpt>
      <trkpt lat="40.264633" lon="-4.579233">
        <ele>1417.0</ele>
        <time>2018-06-24T15:08:13Z</time>
      </trkpt>
      <trkpt lat="40.264750" lon="-4.579167">
        <ele>1413.0</ele>
        <time>2018-06-24T15:08:14Z</time>
      </trkpt>
      <trkpt lat="40.264833" lon="-4.579100">
        <ele>1408.0</ele>
        <time>2018-06-24T15:08:15Z</time>
      </trkpt>
      <trkpt lat="40.264917" lon="-4.579017">
        <ele>1404.0</ele>
        <time>2018-06-24T15:08:16Z</time>
      </trkpt>
      <trkpt lat="40.265000" lon="-4.578900">
        <ele>1399.0</ele>
        <time>2018-06-24T15:08:17Z</time>
      </trkpt>
      <trkpt lat="40.265067" lon="-4.578767">
        <ele>1393.0</ele>
        <time>2018-06-24T15:08:18Z</time>
      </trkpt>
      <trkpt lat="40.265133" lon="-4.578633">
        <ele>1389.0</ele>
        <time>2018-06-24T15:08:19Z</time>
      </trkpt>
      <trkpt lat="40.265200" lon="-4.578483">
        <ele>1385.0</ele>
        <time>2018-06-24T15:08:20Z</time>
      </trkpt>
      <trkpt lat="40.265233" lon="-4.578333">
        <ele>1380.0</ele>
        <time>2018-06-24T15:08:21Z</time>
      </trkpt>
      <trkpt lat="40.265250" lon="-4.578183">
        <ele>1375.0</ele>
        <time>2018-06-24T15:08:22Z</time>
      </trkpt>
      <trkpt lat="40.265250" lon="-4.578033">
        <ele>1369.0</ele>
        <time>2018-06-24T15:08:23Z</time>
      </trkpt>
      <trkpt lat="40.265267" lon="-4.577883">
        <ele>1365.0</ele>
        <time>2018-06-24T15:08:24Z</time>
      </trkpt>
      <trkpt lat="40.265267" lon="-4.577717">
        <ele>1362.0</ele>
        <time>2018-06-24T15:08:25Z</time>
      </trkpt>
      <trkpt lat="40.265283" lon="-4.577550">
        <ele>1358.0</ele>
        <time>2018-06-24T15:08:26Z</time>
      </trkpt>
      <trkpt lat="40.265283" lon="-4.577383">
        <ele>1353.0</ele>
        <time>2018-06-24T15:08:27Z</time>
      </trkpt>
      <trkpt lat="40.265300" lon="-4.577217">
        <ele>1349.0</ele>
        <time>2018-06-24T15:08:28Z</time>
      </trkpt>
      <trkpt lat="40.265333" lon="-4.577050">
        <ele>1345.0</ele>
        <time>2018-06-24T15:08:29Z</time>
      </trkpt>
      <trkpt lat="40.265367" lon="-4.576883">
        <ele>1341.0</ele>
        <time>2018-06-24T15:08:30Z</time>
      </trkpt>
      <trkpt lat="40.265417" lon="-4.576733">
        <ele>1337.0</ele>
        <time>2018-06-24T15:08:31Z</time>
      </trkpt>
      <trkpt lat="40.265467" lon="-4.576583">
        <ele>1334.0</ele>
        <time>2018-06-24T15:08:32Z</time>
      </trkpt>
      <trkpt lat="40.265533" lon="-4.576433">
        <ele>1330.0</ele>
        <time>2018-06-24T15:08:33Z</time>
      </trkpt>
      <trkpt lat="40.265600" lon="-4.576283">
        <ele>1328.0</ele>
        <time>2018-06-24T15:08:34Z</time>
      </trkpt>
      <trkpt lat="40.265650" lon="-4.576133">
        <ele>1325.0</ele>
        <time>2018-06-24T15:08:35Z</time>
      </trkpt>
      <trkpt lat="40.265717" lon="-4.575983">
        <ele>1322.0</ele>
        <time>2018-06-24T15:08:36Z</time>
      </trkpt>
      <trkpt lat="40.265783" lon="-4.575833">
        <ele>1319.0</ele>
        <time>2018-06-24T15:08:37Z</time>
      </trkpt>
      <trkpt lat="40.265833" lon="-4.575700">
        <ele>1316.0</ele>
        <time>2018-06-24T15:08:38Z</time>
      </trkpt>
      <trkpt lat="40.265917" lon="-4.575567">
        <ele>1311.0</ele>
        <time>2018-06-24T15:08:39Z</time>
      </trkpt>
      <trkpt lat="40.265983" lon="-4.575433">
        <ele>1307.0</ele>
        <time>2018-06-24T15:08:40Z</time>
      </trkpt>
      <trkpt lat="40.266050" lon="-4.575283">
        <ele>1303.0</ele>
        <time>2018-06-24T15:08:41Z</time>
      </trkpt>
      <trkpt lat="40.266117" lon="-4.575133">
        <ele>1300.0</ele>
        <time>2018-06-24T15:08:42Z</time>
      </trkpt>
      <trkpt lat="40.266183" lon="-4.575000">
        <ele>1296.0</ele>
        <time>2018-06-24T15:08:43Z</time>
      </trkpt>
      <trkpt lat="40.266250" lon="-4.574867">
        <ele>1292.0</ele>
        <time>2018-06-24T15:08:44Z</time>
      </trkpt>
      <trkpt lat="40.266333" lon="-4.574750">
        <ele>1288.0</ele>
        <time>2018-06-24T15:08:45Z</time>
      </trkpt>
      <trkpt lat="40.266417" lon="-4.574617">
        <ele>1284.0</ele>
        <time>2018-06-24T15:08:46Z</time>
      </trkpt>
      <trkpt lat="40.266467" lon="-4.574467">
        <ele>1280.0</ele>
        <time>2018-06-24T15:08:47Z</time>
      </trkpt>
      <trkpt lat="40.266517" lon="-4.574333">
        <ele>1277.0</ele>
        <time>2018-06-24T15:08:48Z</time>
      </trkpt>
      <trkpt lat="40.266583" lon="-4.574200">
        <ele>1274.0</ele>
        <time>2018-06-24T15:08:49Z</time>
      </trkpt>
      <trkpt lat="40.266650" lon="-4.574067">
        <ele>1270.0</ele>
        <time>2018-06-24T15:08:50Z</time>
      </trkpt>
      <trkpt lat="40.266717" lon="-4.573950">
        <ele>1266.0</ele>
        <time>2018-06-24T15:08:51Z</time>
      </trkpt>
      <trkpt lat="40.266783" lon="-4.573817">
        <ele>1261.0</ele>
        <time>2018-06-24T15:08:52Z</time>
      </trkpt>
      <trkpt lat="40.266850" lon="-4.573700">
        <ele>1258.0</ele>
        <time>2018-06-24T15:08:53Z</time>
      </trkpt>
      <trkpt lat="40.266933" lon="-4.573583">
        <ele>1254.0</ele>
        <time>2018-06-24T15:08:54Z</time>
      </trkpt>
      <trkpt lat="40.267033" lon="-4.573500">
        <ele>1249.0</ele>
        <time>2018-06-24T15:08:55Z</time>
      </trkpt>
      <trkpt lat="40.267133" lon="-4.573417">
        <ele>1245.0</ele>
        <time>2018-06-24T15:08:56Z</time>
      </trkpt>
      <trkpt lat="40.267233" lon="-4.573350">
        <ele>1241.0</ele>
        <time>2018-06-24T15:08:57Z</time>
      </trkpt>
      <trkpt lat="40.267350" lon="-4.573283">
        <ele>1237.0</ele>
        <time>2018-06-24T15:08:58Z</time>
      </trkpt>
      <trkpt lat="40.267450" lon="-4.573200">
        <ele>1234.0</ele>
        <time>2018-06-24T15:08:59Z</time>
      </trkpt>
      <trkpt lat="40.267550" lon="-4.573133">
        <ele>1231.0</ele>
        <time>2018-06-24T15:09:00Z</time>
      </trkpt>
      <trkpt lat="40.267633" lon="-4.573033">
        <ele>1227.0</ele>
        <time>2018-06-24T15:09:01Z</time>
      </trkpt>
      <trkpt lat="40.267700" lon="-4.572917">
        <ele>1223.0</ele>
        <time>2018-06-24T15:09:02Z</time>
      </trkpt>
      <trkpt lat="40.267767" lon="-4.572783">
        <ele>1219.0</ele>
        <time>2018-06-24T15:09:03Z</time>
      </trkpt>
      <trkpt lat="40.267817" lon="-4.572633">
        <ele>1215.0</ele>
        <time>2018-06-24T15:09:04Z</time>
      </trkpt>
      <trkpt lat="40.267850" lon="-4.572483">
        <ele>1211.0</ele>
        <time>2018-06-24T15:09:05Z</time>
      </trkpt>
      <trkpt lat="40.267867" lon="-4.572317">
        <ele>1208.0</ele>
        <time>2018-06-24T15:09:06Z</time>
      </trkpt>
      <trkpt lat="40.267867" lon="-4.572167">
        <ele>1204.0</ele>
        <time>2018-06-24T15:09:07Z</time>
      </trkpt>
      <trkpt lat="40.267833" lon="-4.571983">
        <ele>1200.0</ele>
        <time>2018-06-24T15:09:08Z</time>
      </trkpt>
      <trkpt lat="40.267800" lon="-4.571867">
        <ele>1196.0</ele>
        <time>2018-06-24T15:09:09Z</time>
      </trkpt>
      <trkpt lat="40.267750" lon="-4.571733">
        <ele>1192.0</ele>
        <time>2018-06-24T15:09:10Z</time>
      </trkpt>
      <trkpt lat="40.267683" lon="-4.571617">
        <ele>1188.0</ele>
        <time>2018-06-24T15:09:11Z</time>
      </trkpt>
      <trkpt lat="40.267617" lon="-4.571517">
        <ele>1184.0</ele>
        <time>2018-06-24T15:09:12Z</time>
      </trkpt>
      <trkpt lat="40.267533" lon="-4.571433">
        <ele>1180.0</ele>
        <time>2018-06-24T15:09:13Z</time>
      </trkpt>
      <trkpt lat="40.267433" lon="-4.571367">
        <ele>1175.0</ele>
        <time>2018-06-24T15:09:14Z</time>
      </trkpt>
      <trkpt lat="40.267350" lon="-4.571350">
        <ele>1171.0</ele>
        <time>2018-06-24T15:09:15Z</time>
      </trkpt>
      <trkpt lat="40.267250" lon="-4.571333">
        <ele>1166.0</ele>
        <time>2018-06-24T15:09:16Z</time>
      </trkpt>
      <trkpt lat="40.267167" lon="-4.571350">
        <ele>1162.0</ele>
        <time>2018-06-24T15:09:17Z</time>
      </trkpt>
      <trkpt lat="40.267067" lon="-4.571400">
        <ele>1158.0</ele>
        <time>2018-06-24T15:09:18Z</time>
      </trkpt>
      <trkpt lat="40.267000" lon="-4.571450">
        <ele>1154.0</ele>
        <time>2018-06-24T15:09:19Z</time>
      </trkpt>
      <trkpt lat="40.266933" lon="-4.571517">
        <ele>1150.0</ele>
        <time>2018-06-24T15:09:20Z</time>
      </trkpt>
      <trkpt lat="40.266883" lon="-4.571617">
        <ele>1146.0</ele>
        <time>2018-06-24T15:09:21Z</time>
      </trkpt>
      <trkpt lat="40.266850" lon="-4.571717">
        <ele>1142.0</ele>
        <time>2018-06-24T15:09:22Z</time>
      </trkpt>
      <trkpt lat="40.266833" lon="-4.571817">
        <ele>1138.0</ele>
        <time>2018-06-24T15:09:23Z</time>
      </trkpt>
      <trkpt lat="40.266833" lon="-4.571917">
        <ele>1134.0</ele>
        <time>2018-06-24T15:09:24Z</time>
      </trkpt>
      <trkpt lat="40.266833" lon="-4.572033">
        <ele>1129.0</ele>
        <time>2018-06-24T15:09:25Z</time>
      </trkpt>
      <trkpt lat="40.266867" lon="-4.572133">
        <ele>1125.0</ele>
        <time>2018-06-24T15:09:26Z</time>
      </trkpt>
      <trkpt lat="40.266900" lon="-4.572250">
        <ele>1122.0</ele>
        <time>2018-06-24T15:09:27Z</time>
      </trkpt>
      <trkpt lat="40.266967" lon="-4.572333">
        <ele>1118.0</ele>
        <time>2018-06-24T15:09:28Z</time>
      </trkpt>
      <trkpt lat="40.267050" lon="-4.572417">
        <ele>1114.0</ele>
        <time>2018-06-24T15:09:29Z</time>
      </trkpt>
      <trkpt lat="40.267133" lon="-4.572467">
        <ele>1111.0</ele>
        <time>2018-06-24T15:09:30Z</time>
      </trkpt>
      <trkpt lat="40.267217" lon="-4.572517">
        <ele>1107.0</ele>
        <time>2018-06-24T15:09:31Z</time>
      </trkpt>
      <trkpt lat="40.267317" lon="-4.572533">
        <ele>1104.0</ele>
        <time>2018-06-24T15:09:32Z</time>
      </trkpt>
      <trkpt lat="40.267417" lon="-4.572517">
        <ele>1100.0</ele>
        <time>2018-06-24T15:09:33Z</time>
      </trkpt>
      <trkpt lat="40.267533" lon="-4.572517">
        <ele>1096.0</ele>
        <time>2018-06-24T15:09:34Z</time>
      </trkpt>
      <trkpt lat="40.267633" lon="-4.572500">
        <ele>1092.0</ele>
        <time>2018-06-24T15:09:35Z</time>
      </trkpt>
      <trkpt lat="40.267750" lon="-4.572500">
        <ele>1088.0</ele>
        <time>2018-06-24T15:09:36Z</time>
      </trkpt>
      <trkpt lat="40.267917" lon="-4.572500">
        <ele>1084.0</ele>
        <time>2018-06-24T15:09:37Z</time>
      </trkpt>
      <trkpt lat="40.267967" lon="-4.572500">
        <ele>1081.0</ele>
        <time>2018-06-24T15:09:38Z</time>
      </trkpt>
      <trkpt lat="40.268083" lon="-4.572500">
        <ele>1078.0</ele>
        <time>2018-06-24T15:09:39Z</time>
      </trkpt>
      <trkpt lat="40.268183" lon="-4.572467">
        <ele>1074.0</ele>
        <time>2018-06-24T15:09:40Z</time>
      </trkpt>
      <trkpt lat="40.268300" lon="-4.572433">
        <ele>1070.0</ele>
        <time>2018-06-24T15:09:41Z</time>
      </trkpt>
      <trkpt lat="40.268400" lon="-4.572367">
        <ele>1066.0</ele>
        <time>2018-06-24T15:09:42Z</time>
      </trkpt>
      <trkpt lat="40.268517" lon="-4.572283">
        <ele>1062.0</ele>
        <time>2018-06-24T15:09:43Z</time>
      </trkpt>
      <trkpt lat="40.268617" lon="-4.572200">
        <ele>1059.0</ele>
        <time>2018-06-24T15:09:44Z</time>
      </trkpt>
      <trkpt lat="40.268717" lon="-4.572083">
        <ele>1056.0</ele>
        <time>2018-06-24T15:09:45Z</time>
      </trkpt>
      <trkpt lat="40.268800" lon="-4.571967">
        <ele>1053.0</ele>
        <time>2018-06-24T15:09:46Z</time>
      </trkpt>
      <trkpt lat="40.268867" lon="-4.571833">
        <ele>1050.0</ele>
        <time>2018-06-24T15:09:47Z</time>
      </trkpt>
      <trkpt lat="40.268933" lon="-4.571700">
        <ele>1046.0</ele>
        <time>2018-06-24T15:09:48Z</time>
      </trkpt>
      <trkpt lat="40.268983" lon="-4.571567">
        <ele>1042.0</ele>
        <time>2018-06-24T15:09:49Z</time>
      </trkpt>
      <trkpt lat="40.269000" lon="-4.571400">
        <ele>1039.0</ele>
        <time>2018-06-24T15:09:50Z</time>
      </trkpt>
      <trkpt lat="40.269033" lon="-4.571250">
        <ele>1035.0</ele>
        <time>2018-06-24T15:09:51Z</time>
      </trkpt>
      <trkpt lat="40.269033" lon="-4.571100">
        <ele>1032.0</ele>
        <time>2018-06-24T15:09:52Z</time>
      </trkpt>
      <trkpt lat="40.269033" lon="-4.570950">
        <ele>1028.0</ele>
        <time>2018-06-24T15:09:53Z</time>
      </trkpt>
      <trkpt lat="40.269017" lon="-4.570733">
        <ele>1025.0</ele>
        <time>2018-06-24T15:09:54Z</time>
      </trkpt>
      <trkpt lat="40.269000" lon="-4.570617">
        <ele>1022.0</ele>
        <time>2018-06-24T15:09:55Z</time>
      </trkpt>
      <trkpt lat="40.268967" lon="-4.570467">
        <ele>1018.0</ele>
        <time>2018-06-24T15:09:56Z</time>
      </trkpt>
      <trkpt lat="40.268950" lon="-4.570333">
        <ele>1015.0</ele>
        <time>2018-06-24T15:09:57Z</time>
      </trkpt>
      <trkpt lat="40.268933" lon="-4.570183">
        <ele>1012.0</ele>
        <time>2018-06-24T15:09:58Z</time>
      </trkpt>
      <trkpt lat="40.268933" lon="-4.570017">
        <ele>1008.0</ele>
        <time>2018-06-24T15:09:59Z</time>
      </trkpt>
      <trkpt lat="40.268967" lon="-4.569867">
        <ele>1004.0</ele>
        <time>2018-06-24T15:10:00Z</time>
      </trkpt>
      <trkpt lat="40.268983" lon="-4.569717">
        <ele>1001.0</ele>
        <time>2018-06-24T15:10:01Z</time>
      </trkpt>
      <trkpt lat="40.269017" lon="-4.569567">
        <ele>998.0</ele>
        <time>2018-06-24T15:10:02Z</time>
      </trkpt>
      <trkpt lat="40.269067" lon="-4.569417">
        <ele>995.0</ele>
        <time>2018-06-24T15:10:03Z</time>
      </trkpt>
      <trkpt lat="40.269117" lon="-4.569283">
        <ele>991.0</ele>
        <time>2018-06-24T15:10:04Z</time>
      </trkpt>
      <trkpt lat="40.269200" lon="-4.569167">
        <ele>988.0</ele>
        <time>2018-06-24T15:10:05Z</time>
      </trkpt>
      <trkpt lat="40.269300" lon="-4.569050">
        <ele>984.0</ele>
        <time>2018-06-24T15:10:06Z</time>
      </trkpt>
      <trkpt lat="40.269400" lon="-4.568950">
        <ele>980.0</ele>
        <time>2018-06-24T15:10:07Z</time>
      </trkpt>
      <trkpt lat="40.269500" lon="-4.568850">
        <ele>977.0</ele>
        <time>2018-06-24T15:10:08Z</time>
      </trkpt>
      <trkpt lat="40.269600" lon="-4.568783">
        <ele>974.0</ele>
        <time>2018-06-24T15:10:09Z</time>
      </trkpt>
      <trkpt lat="40.269683" lon="-4.568717">
        <ele>971.0</ele>
        <time>2018-06-24T15:10:10Z</time>
      </trkpt>
      <trkpt lat="40.269783" lon="-4.568633">
        <ele>968.0</ele>
        <time>2018-06-24T15:10:11Z</time>
      </trkpt>
      <trkpt lat="40.269883" lon="-4.568567">
        <ele>965.0</ele>
        <time>2018-06-24T15:10:12Z</time>
      </trkpt>
      <trkpt lat="40.270000" lon="-4.568533">
        <ele>961.0</ele>
        <time>2018-06-24T15:10:13Z</time>
      </trkpt>
      <trkpt lat="40.270117" lon="-4.568500">
        <ele>957.0</ele>
        <time>2018-06-24T15:10:14Z</time>
      </trkpt>
      <trkpt lat="40.270233" lon="-4.568483">
        <ele>953.0</ele>
        <time>2018-06-24T15:10:15Z</time>
      </trkpt>
      <trkpt lat="40.270333" lon="-4.568450">
        <ele>950.0</ele>
        <time>2018-06-24T15:10:16Z</time>
      </trkpt>
      <trkpt lat="40.270450" lon="-4.568433">
        <ele>947.0</ele>
        <time>2018-06-24T15:10:17Z</time>
      </trkpt>
      <trkpt lat="40.270550" lon="-4.568417">
        <ele>943.0</ele>
        <time>2018-06-24T15:10:18Z</time>
      </trkpt>
      <trkpt lat="40.270667" lon="-4.568433">
        <ele>939.0</ele>
        <time>2018-06-24T15:10:19Z</time>
      </trkpt>
      <trkpt lat="40.270767" lon="-4.568433">
        <ele>935.0</ele>
        <time>2018-06-24T15:10:20Z</time>
      </trkpt>
      <trkpt lat="40.270883" lon="-4.568450">
        <ele>932.0</ele>
        <time>2018-06-24T15:10:21Z</time>
      </trkpt>
      <trkpt lat="40.270983" lon="-4.568483">
        <ele>928.0</ele>
        <time>2018-06-24T15:10:22Z</time>
      </trkpt>
      <trkpt lat="40.271083" lon="-4.568500">
        <ele>925.0</ele>
        <time>2018-06-24T15:10:23Z</time>
      </trkpt>
      <trkpt lat="40.271200" lon="-4.568533">
        <ele>922.0</ele>
        <time>2018-06-24T15:10:24Z</time>
      </trkpt>
      <trkpt lat="40.271283" lon="-4.568567">
        <ele>919.0</ele>
        <time>2018-06-24T15:10:25Z</time>
      </trkpt>
      <trkpt lat="40.271367" lon="-4.568617">
        <ele>916.0</ele>
        <time>2018-06-24T15:10:26Z</time>
      </trkpt>
      <trkpt lat="40.271450" lon="-4.568683">
        <ele>913.0</ele>
        <time>2018-06-24T15:10:27Z</time>
      </trkpt>
      <trkpt lat="40.271517" lon="-4.568733">
        <ele>910.0</ele>
        <time>2018-06-24T15:10:28Z</time>
      </trkpt>
      <trkpt lat="40.271583" lon="-4.568800">
        <ele>907.0</ele>
        <time>2018-06-24T15:10:29Z</time>
      </trkpt>
      <trkpt lat="40.271667" lon="-4.568867">
        <ele>905.0</ele>
        <time>2018-06-24T15:10:30Z</time>
      </trkpt>
      <trkpt lat="40.271717" lon="-4.568950">
        <ele>901.0</ele>
        <time>2018-06-24T15:10:31Z</time>
      </trkpt>
      <trkpt lat="40.271750" lon="-4.569050">
        <ele>898.0</ele>
        <time>2018-06-24T15:10:32Z</time>
      </trkpt>
      <trkpt lat="40.271750" lon="-4.569117">
        <ele>895.0</ele>
        <time>2018-06-24T15:10:33Z</time>
      </trkpt>
      <trkpt lat="40.271717" lon="-4.569200">
        <ele>891.0</ele>
        <time>2018-06-24T15:10:34Z</time>
      </trkpt>
      <trkpt lat="40.271683" lon="-4.569267">
        <ele>888.0</ele>
        <time>2018-06-24T15:10:35Z</time>
      </trkpt>
      <trkpt lat="40.271633" lon="-4.569333">
        <ele>885.0</ele>
        <time>2018-06-24T15:10:36Z</time>
      </trkpt>
      <trkpt lat="40.271600" lon="-4.569383">
        <ele>883.0</ele>
        <time>2018-06-24T15:10:37Z</time>
      </trkpt>
      <trkpt lat="40.271550" lon="-4.569433">
        <ele>881.0</ele>
        <time>2018-06-24T15:10:38Z</time>
      </trkpt>
      <trkpt lat="40.271517" lon="-4.569517">
        <ele>881.0</ele>
        <time>2018-06-24T15:10:39Z</time>
      </trkpt>
      <trkpt lat="40.271483" lon="-4.569600">
        <ele>881.0</ele>
        <time>2018-06-24T15:10:40Z</time>
      </trkpt>
      <trkpt lat="40.271450" lon="-4.569683">
        <ele>882.0</ele>
        <time>2018-06-24T15:10:41Z</time>
      </trkpt>
      <trkpt lat="40.271417" lon="-4.569767">
        <ele>883.0</ele>
        <time>2018-06-24T15:10:42Z</time>
      </trkpt>
      <trkpt lat="40.271383" lon="-4.569850">
        <ele>883.0</ele>
        <time>2018-06-24T15:10:43Z</time>
      </trkpt>
      <trkpt lat="40.271367" lon="-4.569933">
        <ele>882.0</ele>
        <time>2018-06-24T15:10:44Z</time>
      </trkpt>
      <trkpt lat="40.271367" lon="-4.570017">
        <ele>880.0</ele>
        <time>2018-06-24T15:10:45Z</time>
      </trkpt>
      <trkpt lat="40.271350" lon="-4.570100">
        <ele>879.0</ele>
        <time>2018-06-24T15:10:46Z</time>
      </trkpt>
      <trkpt lat="40.271333" lon="-4.570167">
        <ele>877.0</ele>
        <time>2018-06-24T15:10:47Z</time>
      </trkpt>
      <trkpt lat="40.271300" lon="-4.570250">
        <ele>874.0</ele>
        <time>2018-06-24T15:10:48Z</time>
      </trkpt>
      <trkpt lat="40.271267" lon="-4.570333">
        <ele>873.0</ele>
        <time>2018-06-24T15:10:49Z</time>
      </trkpt>
      <trkpt lat="40.271217" lon="-4.570400">
        <ele>872.0</ele>
        <time>2018-06-24T15:10:50Z</time>
      </trkpt>
      <trkpt lat="40.271183" lon="-4.570483">
        <ele>871.0</ele>
        <time>2018-06-24T15:10:51Z</time>
      </trkpt>
      <trkpt lat="40.271150" lon="-4.570550">
        <ele>870.0</ele>
        <time>2018-06-24T15:10:52Z</time>
      </trkpt>
      <trkpt lat="40.271117" lon="-4.570633">
        <ele>868.0</ele>
        <time>2018-06-24T15:10:53Z</time>
      </trkpt>
      <trkpt lat="40.271067" lon="-4.570700">
        <ele>865.0</ele>
        <time>2018-06-24T15:10:54Z</time>
      </trkpt>
      <trkpt lat="40.271033" lon="-4.570783">
        <ele>864.0</ele>
        <time>2018-06-24T15:10:55Z</time>
      </trkpt>
      <trkpt lat="40.270983" lon="-4.570867">
        <ele>863.0</ele>
        <time>2018-06-24T15:10:56Z</time>
      </trkpt>
      <trkpt lat="40.270967" lon="-4.570950">
        <ele>861.0</ele>
        <time>2018-06-24T15:10:57Z</time>
      </trkpt>
      <trkpt lat="40.270950" lon="-4.571033">
        <ele>860.0</ele>
        <time>2018-06-24T15:10:58Z</time>
      </trkpt>
      <trkpt lat="40.270933" lon="-4.571117">
        <ele>858.0</ele>
        <time>2018-06-24T15:10:59Z</time>
      </trkpt>
      <trkpt lat="40.270933" lon="-4.571217">
        <ele>857.0</ele>
        <time>2018-06-24T15:11:00Z</time>
      </trkpt>
      <trkpt lat="40.270917" lon="-4.571300">
        <ele>856.0</ele>
        <time>2018-06-24T15:11:01Z</time>
      </trkpt>
      <trkpt lat="40.270917" lon="-4.571383">
        <ele>855.0</ele>
        <time>2018-06-24T15:11:02Z</time>
      </trkpt>
      <trkpt lat="40.270917" lon="-4.571467">
        <ele>853.0</ele>
        <time>2018-06-24T15:11:03Z</time>
      </trkpt>
      <trkpt lat="40.270917" lon="-4.571533">
        <ele>851.0</ele>
        <time>2018-06-24T15:11:04Z</time>
      </trkpt>
      <trkpt lat="40.270933" lon="-4.571617">
        <ele>848.0</ele>
        <time>2018-06-24T15:11:05Z</time>
      </trkpt>
      <trkpt lat="40.270950" lon="-4.571700">
        <ele>845.0</ele>
        <time>2018-06-24T15:11:06Z</time>
      </trkpt>
      <trkpt lat="40.270950" lon="-4.571783">
        <ele>841.0</ele>
        <time>2018-06-24T15:11:07Z</time>
      </trkpt>
      <trkpt lat="40.270950" lon="-4.571883">
        <ele>839.0</ele>
        <time>2018-06-24T15:11:08Z</time>
      </trkpt>
      <trkpt lat="40.270950" lon="-4.571967">
        <ele>837.0</ele>
        <time>2018-06-24T15:11:09Z</time>
      </trkpt>
      <trkpt lat="40.270933" lon="-4.572050">
        <ele>835.0</ele>
        <time>2018-06-24T15:11:10Z</time>
      </trkpt>
      <trkpt lat="40.270917" lon="-4.572133">
        <ele>833.0</ele>
        <time>2018-06-24T15:11:11Z</time>
      </trkpt>
      <trkpt lat="40.270900" lon="-4.572200">
        <ele>831.0</ele>
        <time>2018-06-24T15:11:12Z</time>
      </trkpt>
      <trkpt lat="40.270867" lon="-4.572267">
        <ele>830.0</ele>
        <time>2018-06-24T15:11:13Z</time>
      </trkpt>
      <trkpt lat="40.270833" lon="-4.572333">
        <ele>828.0</ele>
        <time>2018-06-24T15:11:14Z</time>
      </trkpt>
      <trkpt lat="40.270800" lon="-4.572367">
        <ele>826.0</ele>
        <time>2018-06-24T15:11:15Z</time>
      </trkpt>
      <trkpt lat="40.270733" lon="-4.572383">
        <ele>824.0</ele>
        <time>2018-06-24T15:11:16Z</time>
      </trkpt>
      <trkpt lat="40.270650" lon="-4.572383">
        <ele>821.0</ele>
        <time>2018-06-24T15:11:17Z</time>
      </trkpt>
      <trkpt lat="40.270583" lon="-4.572367">
        <ele>819.0</ele>
        <time>2018-06-24T15:11:18Z</time>
      </trkpt>
      <trkpt lat="40.270500" lon="-4.572350">
        <ele>818.0</ele>
        <time>2018-06-24T15:11:19Z</time>
      </trkpt>
      <trkpt lat="40.270433" lon="-4.572350">
        <ele>816.0</ele>
        <time>2018-06-24T15:11:20Z</time>
      </trkpt>
      <trkpt lat="40.270367" lon="-4.572333">
        <ele>814.0</ele>
        <time>2018-06-24T15:11:21Z</time>
      </trkpt>
      <trkpt lat="40.270300" lon="-4.572317">
        <ele>812.0</ele>
        <time>2018-06-24T15:11:22Z</time>
      </trkpt>
      <trkpt lat="40.270233" lon="-4.572300">
        <ele>808.0</ele>
        <time>2018-06-24T15:11:23Z</time>
      </trkpt>
      <trkpt lat="40.270167" lon="-4.572300">
        <ele>805.0</ele>
        <time>2018-06-24T15:11:24Z</time>
      </trkpt>
      <trkpt lat="40.270100" lon="-4.572333">
        <ele>801.0</ele>
        <time>2018-06-24T15:11:25Z</time>
      </trkpt>
      <trkpt lat="40.270067" lon="-4.572400">
        <ele>797.0</ele>
        <time>2018-06-24T15:11:26Z</time>
      </trkpt>
      <trkpt lat="40.270050" lon="-4.572500">
        <ele>793.0</ele>
        <time>2018-06-24T15:11:27Z</time>
      </trkpt>
      <trkpt lat="40.270017" lon="-4.572550">
        <ele>791.0</ele>
        <time>2018-06-24T15:11:28Z</time>
      </trkpt>
      <trkpt lat="40.269950" lon="-4.572583">
        <ele>787.0</ele>
        <time>2018-06-24T15:11:29Z</time>
      </trkpt>
      <trkpt lat="40.269850" lon="-4.572550">
        <ele>779.0</ele>
        <time>2018-06-24T15:11:30Z</time>
      </trkpt>
      <trkpt lat="40.269767" lon="-4.572400">
        <ele>770.0</ele>
        <time>2018-06-24T15:11:31Z</time>
      </trkpt>
      <trkpt lat="40.269767" lon="-4.572267">
        <ele>758.0</ele>
        <time>2018-06-24T15:11:32Z</time>
      </trkpt>
      <trkpt lat="40.269783" lon="-4.572183">
        <ele>748.0</ele>
        <time>2018-06-24T15:11:33Z</time>
      </trkpt>
      <trkpt lat="40.269800" lon="-4.572150">
        <ele>741.0</ele>
        <time>2018-06-24T15:11:34Z</time>
      </trkpt>
      <trkpt lat="40.269800" lon="-4.572200">
        <ele>730.0</ele>
        <time>2018-06-24T15:11:35Z</time>
      </trkpt>
      <trkpt lat="40.269750" lon="-4.572250">
        <ele>725.0</ele>
        <time>2018-06-24T15:11:37Z</time>
      </trkpt>
      <trkpt lat="40.269683" lon="-4.572267">
        <ele>710.0</ele>
        <time>2018-06-24T15:11:38Z</time>
      </trkpt>
      <trkpt lat="40.269700" lon="-4.572450">
        <ele>700.0</ele>
        <time>2018-06-24T15:11:39Z</time>
      </trkpt>
      <trkpt lat="40.269633" lon="-4.572600">
        <ele>688.0</ele>
        <time>2018-06-24T15:11:40Z</time>
      </trkpt>
      <trkpt lat="40.269550" lon="-4.572633">
        <ele>678.0</ele>
        <time>2018-06-24T15:11:41Z</time>
      </trkpt>
      <trkpt lat="40.269450" lon="-4.572617">
        <ele>665.0</ele>
        <time>2018-06-24T15:11:42Z</time>
      </trkpt>
      <trkpt lat="40.269400" lon="-4.572517">
        <ele>655.0</ele>
        <time>2018-06-24T15:11:43Z</time>
      </trkpt>
      <trkpt lat="40.269450" lon="-4.572500">
        <ele>645.0</ele>
        <time>2018-06-24T15:11:44Z</time>
      </trkpt>
      <trkpt lat="40.269633" lon="-4.572483">
        <ele>639.0</ele>
        <time>2018-06-24T15:11:45Z</time>
      </trkpt>
      <trkpt lat="40.269817" lon="-4.572467">
        <ele>636.0</ele>
        <time>2018-06-24T15:11:46Z</time>
      </trkpt>
      <trkpt lat="40.269900" lon="-4.572467">
        <ele>634.0</ele>
        <time>2018-06-24T15:11:47Z</time>
      </trkpt>
      <trkpt lat="40.269950" lon="-4.572483">
        <ele>644.0</ele>
        <time>2018-06-24T15:11:48Z</time>
      </trkpt>
      <trkpt lat="40.270017" lon="-4.572533">
        <ele>651.0</ele>
        <time>2018-06-24T15:11:49Z</time>
      </trkpt>
      <trkpt lat="40.270083" lon="-4.572600">
        <ele>647.0</ele>
        <time>2018-06-24T15:11:50Z</time>
      </trkpt>
      <trkpt lat="40.270133" lon="-4.572700">
        <ele>644.0</ele>
        <time>2018-06-24T15:11:51Z</time>
      </trkpt>
      <trkpt lat="40.270133" lon="-4.572800">
        <ele>642.0</ele>
        <time>2018-06-24T15:11:52Z</time>
      </trkpt>
      <trkpt lat="40.270150" lon="-4.572850">
        <ele>643.0</ele>
        <time>2018-06-24T15:11:53Z</time>
      </trkpt>
      <trkpt lat="40.270150" lon="-4.572833">
        <ele>645.0</ele>
        <time>2018-06-24T15:11:54Z</time>
      </trkpt>
      <trkpt lat="40.270150" lon="-4.572800">
        <ele>654.0</ele>
        <time>2018-06-24T15:11:55Z</time>
      </trkpt>
      <trkpt lat="40.270117" lon="-4.572783">
        <ele>660.0</ele>
        <time>2018-06-24T15:11:56Z</time>
      </trkpt>
      <trkpt lat="40.270083" lon="-4.572783">
        <ele>667.0</ele>
        <time>2018-06-24T15:11:57Z</time>
      </trkpt>
      <trkpt lat="40.270033" lon="-4.572800">
        <ele>672.0</ele>
        <time>2018-06-24T15:11:58Z</time>
      </trkpt>
      <trkpt lat="40.269967" lon="-4.572817">
        <ele>673.0</ele>
        <time>2018-06-24T15:11:59Z</time>
      </trkpt>
      <trkpt lat="40.269900" lon="-4.572850">
        <ele>674.0</ele>
        <time>2018-06-24T15:12:00Z</time>
      </trkpt>
      <trkpt lat="40.269817" lon="-4.572867">
        <ele>675.0</ele>
        <time>2018-06-24T15:12:01Z</time>
      </trkpt>
      <trkpt lat="40.269767" lon="-4.572900">
        <ele>677.0</ele>
        <time>2018-06-24T15:12:02Z</time>
      </trkpt>
      <trkpt lat="40.269700" lon="-4.572950">
        <ele>679.0</ele>
        <time>2018-06-24T15:12:03Z</time>
      </trkpt>
      <trkpt lat="40.269650" lon="-4.573017">
        <ele>681.0</ele>
        <time>2018-06-24T15:12:04Z</time>
      </trkpt>
      <trkpt lat="40.269583" lon="-4.573067">
        <ele>683.0</ele>
        <time>2018-06-24T15:12:05Z</time>
      </trkpt>
      <trkpt lat="40.269500" lon="-4.573117">
        <ele>684.0</ele>
        <time>2018-06-24T15:12:06Z</time>
      </trkpt>
      <trkpt lat="40.269433" lon="-4.573183">
        <ele>685.0</ele>
        <time>2018-06-24T15:12:07Z</time>
      </trkpt>
      <trkpt lat="40.269367" lon="-4.573233">
        <ele>687.0</ele>
        <time>2018-06-24T15:12:08Z</time>
      </trkpt>
      <trkpt lat="40.269300" lon="-4.573267">
        <ele>688.0</ele>
        <time>2018-06-24T15:12:09Z</time>
      </trkpt>
      <trkpt lat="40.269250" lon="-4.573300">
        <ele>688.0</ele>
        <time>2018-06-24T15:12:10Z</time>
      </trkpt>
      <trkpt lat="40.269183" lon="-4.573317">
        <ele>688.0</ele>
        <time>2018-06-24T15:12:11Z</time>
      </trkpt>
      <trkpt lat="40.269100" lon="-4.573367">
        <ele>687.0</ele>
        <time>2018-06-24T15:12:12Z</time>
      </trkpt>
      <trkpt lat="40.269033" lon="-4.573400">
        <ele>685.0</ele>
        <time>2018-06-24T15:12:13Z</time>
      </trkpt>
      <trkpt lat="40.268950" lon="-4.573467">
        <ele>684.0</ele>
        <time>2018-06-24T15:12:14Z</time>
      </trkpt>
      <trkpt lat="40.268883" lon="-4.573500">
        <ele>683.0</ele>
        <time>2018-06-24T15:12:15Z</time>
      </trkpt>
      <trkpt lat="40.268817" lon="-4.573550">
        <ele>682.0</ele>
        <time>2018-06-24T15:12:16Z</time>
      </trkpt>
      <trkpt lat="40.268750" lon="-4.573583">
        <ele>683.0</ele>
        <time>2018-06-24T15:12:17Z</time>
      </trkpt>
      <trkpt lat="40.268683" lon="-4.573633">
        <ele>682.0</ele>
        <time>2018-06-24T15:12:18Z</time>
      </trkpt>
      <trkpt lat="40.268617" lon="-4.573683">
        <ele>681.0</ele>
        <time>2018-06-24T15:12:19Z</time>
      </trkpt>
      <trkpt lat="40.268567" lon="-4.573717">
        <ele>680.0</ele>
        <time>2018-06-24T15:12:20Z</time>
      </trkpt>
      <trkpt lat="40.268533" lon="-4.573750">
        <ele>680.0</ele>
        <time>2018-06-24T15:12:21Z</time>
      </trkpt>
      <trkpt lat="40.268500" lon="-4.573783">
        <ele>680.0</ele>
        <time>2018-06-24T15:12:22Z</time>
      </trkpt>
      <trkpt lat="40.268467" lon="-4.573817">
        <ele>680.0</ele>
        <time>2018-06-24T15:12:23Z</time>
      </trkpt>
      <trkpt lat="40.268467" lon="-4.573850">
        <ele>681.0</ele>
        <time>2018-06-24T15:12:24Z</time>
      </trkpt>
      <trkpt lat="40.268450" lon="-4.573850">
        <ele>682.0</ele>
        <time>2018-06-24T15:12:25Z</time>
      </trkpt>
      <trkpt lat="40.268450" lon="-4.573850">
        <ele>682.0</ele>
        <time>2018-06-24T15:12:26Z</time>
      </trkpt>
      <trkpt lat="40.268467" lon="-4.573833">
        <ele>682.0</ele>
        <time>2018-06-24T15:12:27Z</time>
      </trkpt>
      <trkpt lat="40.268467" lon="-4.573817">
        <ele>681.0</ele>
        <time>2018-06-24T15:12:28Z</time>
      </trkpt>
      <trkpt lat="40.268467" lon="-4.573817">
        <ele>681.0</ele>
        <time>2018-06-24T15:12:29Z</time>
      </trkpt>
      <trkpt lat="40.268467" lon="-4.573817">
        <ele>681.0</ele>
        <time>2018-06-24T15:12:30Z</time>
      </trkpt>
      <trkpt lat="40.268467" lon="-4.573817">
        <ele>680.0</ele>
        <time>2018-06-24T15:12:31Z</time>
      </trkpt>
      <trkpt lat="40.268500" lon="-4.573800">
        <ele>679.0</ele>
        <time>2018-06-24T15:12:32Z</time>
      </trkpt>
      <trkpt lat="40.268517" lon="-4.573817">
        <ele>679.0</ele>
        <time>2018-06-24T15:12:33Z</time>
      </trkpt>
      <trkpt lat="40.268533" lon="-4.573800">
        <ele>678.0</ele>
        <time>2018-06-24T15:12:34Z</time>
      </trkpt>
      <trkpt lat="40.268550" lon="-4.573800">
        <ele>678.0</ele>
        <time>2018-06-24T15:12:35Z</time>
      </trkpt>
      <trkpt lat="40.268567" lon="-4.573800">
        <ele>677.0</ele>
        <time>2018-06-24T15:12:36Z</time>
      </trkpt>
      <trkpt lat="40.268583" lon="-4.573783">
        <ele>676.0</ele>
        <time>2018-06-24T15:12:37Z</time>
      </trkpt>
      <trkpt lat="40.268600" lon="-4.573783">
        <ele>675.0</ele>
        <time>2018-06-24T15:12:38Z</time>
      </trkpt>
      <trkpt lat="40.268617" lon="-4.573783">
        <ele>674.0</ele>
        <time>2018-06-24T15:12:39Z</time>
      </trkpt>
      <trkpt lat="40.268617" lon="-4.573783">
        <ele>674.0</ele>
        <time>2018-06-24T15:12:40Z</time>
      </trkpt>
      <trkpt lat="40.268617" lon="-4.573767">
        <ele>673.0</ele>
        <time>2018-06-24T15:12:41Z</time>
      </trkpt>
      <trkpt lat="40.268650" lon="-4.573750">
        <ele>672.0</ele>
        <time>2018-06-24T15:12:42Z</time>
      </trkpt>
      <trkpt lat="40.268667" lon="-4.573750">
        <ele>672.0</ele>
        <time>2018-06-24T15:12:43Z</time>
      </trkpt>
      <trkpt lat="40.268650" lon="-4.573733">
        <ele>671.0</ele>
        <time>2018-06-24T15:12:44Z</time>
      </trkpt>
      <trkpt lat="40.268650" lon="-4.573717">
        <ele>670.0</ele>
        <time>2018-06-24T15:12:45Z</time>
      </trkpt>
      <trkpt lat="40.268667" lon="-4.573717">
        <ele>669.0</ele>
        <time>2018-06-24T15:12:46Z</time>
      </trkpt>
      <trkpt lat="40.268650" lon="-4.573700">
        <ele>668.0</ele>
        <time>2018-06-24T15:12:47Z</time>
      </trkpt>
      <trkpt lat="40.268633" lon="-4.573700">
        <ele>667.0</ele>
        <time>2018-06-24T15:12:48Z</time>
      </trkpt>
      <trkpt lat="40.268633" lon="-4.573683">
        <ele>666.0</ele>
        <time>2018-06-24T15:12:49Z</time>
      </trkpt>
      <trkpt lat="40.268633" lon="-4.573683">
        <ele>665.0</ele>
        <time>2018-06-24T15:12:50Z</time>
      </trkpt>
      <trkpt lat="40.268633" lon="-4.573683">
        <ele>664.0</ele>
        <time>2018-06-24T15:12:51Z</time>
      </trkpt>
      <trkpt lat="40.268633" lon="-4.573683">
        <ele>664.0</ele>
        <time>2018-06-24T15:12:52Z</time>
      </trkpt>
      <trkpt lat="40.268633" lon="-4.573667">
        <ele>663.0</ele>
        <time>2018-06-24T15:12:53Z</time>
      </trkpt>
      <trkpt lat="40.268633" lon="-4.573667">
        <ele>662.0</ele>
        <time>2018-06-24T15:12:54Z</time>
      </trkpt>
      <trkpt lat="40.268617" lon="-4.573667">
        <ele>661.0</ele>
        <time>2018-06-24T15:12:55Z</time>
      </trkpt>
      <trkpt lat="40.268617" lon="-4.573650">
        <ele>661.0</ele>
        <time>2018-06-24T15:12:56Z</time>
      </trkpt>
      <trkpt lat="40.268617" lon="-4.573633">
        <ele>659.0</ele>
        <time>2018-06-24T15:12:57Z</time>
      </trkpt>
      <trkpt lat="40.268617" lon="-4.573617">
        <ele>660.0</ele>
        <time>2018-06-24T15:12:58Z</time>
      </trkpt>
      <trkpt lat="40.268600" lon="-4.573617">
        <ele>660.0</ele>
        <time>2018-06-24T15:12:59Z</time>
      </trkpt>
      <trkpt lat="40.268600" lon="-4.573600">
        <ele>662.0</ele>
        <time>2018-06-24T15:13:00Z</time>
      </trkpt>
      <trkpt lat="40.268600" lon="-4.573600">
        <ele>661.0</ele>
        <time>2018-06-24T15:13:01Z</time>
      </trkpt>
      <trkpt lat="40.268600" lon="-4.573600">
        <ele>660.0</ele>
        <time>2018-06-24T15:13:02Z</time>
      </trkpt>
      <trkpt lat="40.268600" lon="-4.573600">
        <ele>659.0</ele>
        <time>2018-06-24T15:13:03Z</time>
      </trkpt>
      <trkpt lat="40.268600" lon="-4.573600">
        <ele>659.0</ele>
        <time>2018-06-24T15:13:04Z</time>
      </trkpt>
      <trkpt lat="40.268600" lon="-4.573583">
        <ele>658.0</ele>
        <time>2018-06-24T15:13:05Z</time>
      </trkpt>
      <trkpt lat="40.268600" lon="-4.573583">
        <ele>658.0</ele>
        <time>2018-06-24T15:13:06Z</time>
      </trkpt>
      <trkpt lat="40.268617" lon="-4.573567">
        <ele>658.0</ele>
        <time>2018-06-24T15:13:07Z</time>
      </trkpt>
      <trkpt lat="40.268617" lon="-4.573567">
        <ele>659.0</ele>
        <time>2018-06-24T15:13:08Z</time>
      </trkpt>
      <trkpt lat="40.268617" lon="-4.573567">
        <ele>658.0</ele>
        <time>2018-06-24T15:13:09Z</time>
      </trkpt>
      <trkpt lat="40.268617" lon="-4.573567">
        <ele>658.0</ele>
        <time>2018-06-24T15:13:10Z</time>
      </trkpt>
      <trkpt lat="40.268617" lon="-4.573583">
        <ele>657.0</ele>
        <time>2018-06-24T15:13:11Z</time>
      </trkpt>
      <trkpt lat="40.268617" lon="-4.573583">
        <ele>656.0</ele>
        <time>2018-06-24T15:13:12Z</time>
      </trkpt>
      <trkpt lat="40.268617" lon="-4.573583">
        <ele>656.0</ele>
        <time>2018-06-24T15:13:13Z</time>
      </trkpt>
      <trkpt lat="40.268617" lon="-4.573583">
        <ele>656.0</ele>
        <time>2018-06-24T15:13:14Z</time>
      </trkpt>
      <trkpt lat="40.268600" lon="-4.573583">
        <ele>655.0</ele>
        <time>2018-06-24T15:13:15Z</time>
      </trkpt>
      <trkpt lat="40.268600" lon="-4.573583">
        <ele>655.0</ele>
        <time>2018-06-24T15:13:16Z</time>
      </trkpt>
      <trkpt lat="40.268600" lon="-4.573583">
        <ele>655.0</ele>
        <time>2018-06-24T15:13:17Z</time>
      </trkpt>
      <trkpt lat="40.268600" lon="-4.573583">
        <ele>655.0</ele>
        <time>2018-06-24T15:13:18Z</time>
      </trkpt>
      <trkpt lat="40.268600" lon="-4.573583">
        <ele>654.0</ele>
        <time>2018-06-24T15:13:19Z</time>
      </trkpt>
      <trkpt lat="40.268600" lon="-4.573583">
        <ele>654.0</ele>
        <time>2018-06-24T15:13:20Z</time>
      </trkpt>
      <trkpt lat="40.268617" lon="-4.573567">
        <ele>654.0</ele>
        <time>2018-06-24T15:13:21Z</time>
      </trkpt>
      <trkpt lat="40.268617" lon="-4.573550">
        <ele>654.0</ele>
        <time>2018-06-24T15:13:22Z</time>
      </trkpt>
      <trkpt lat="40.268617" lon="-4.573550">
        <ele>654.0</ele>
        <time>2018-06-24T15:13:23Z</time>
      </trkpt>
      <trkpt lat="40.268633" lon="-4.573550">
        <ele>653.0</ele>
        <time>2018-06-24T15:13:24Z</time>
      </trkpt>
      <trkpt lat="40.268633" lon="-4.573533">
        <ele>653.0</ele>
        <time>2018-06-24T15:13:25Z</time>
      </trkpt>
      <trkpt lat="40.268633" lon="-4.573533">
        <ele>653.0</ele>
        <time>2018-06-24T15:13:26Z</time>
      </trkpt>
      <trkpt lat="40.268633" lon="-4.573533">
        <ele>652.0</ele>
        <time>2018-06-24T15:13:27Z</time>
      </trkpt>
      <trkpt lat="40.268633" lon="-4.573533">
        <ele>653.0</ele>
        <time>2018-06-24T15:13:28Z</time>
      </trkpt>
      <trkpt lat="40.268633" lon="-4.573533">
        <ele>653.0</ele>
        <time>2018-06-24T15:13:29Z</time>
      </trkpt>
      <trkpt lat="40.268633" lon="-4.573533">
        <ele>652.0</ele>
        <time>2018-06-24T15:13:30Z</time>
      </trkpt>
      <trkpt lat="40.268633" lon="-4.573533">
        <ele>652.0</ele>
        <time>2018-06-24T15:13:31Z</time>
      </trkpt>
      <trkpt lat="40.268633" lon="-4.573533">
        <ele>652.0</ele>
        <time>2018-06-24T15:13:32Z</time>
      </trkpt>
      <trkpt lat="40.268633" lon="-4.573533">
        <ele>652.0</ele>
        <time>2018-06-24T15:13:33Z</time>
      </trkpt>
      <trkpt lat="40.268633" lon="-4.573533">
        <ele>652.0</ele>
        <time>2018-06-24T15:13:34Z</time>
      </trkpt>
      <trkpt lat="40.268633" lon="-4.573533">
        <ele>652.0</ele>
        <time>2018-06-24T15:13:35Z</time>
      </trkpt>
      <trkpt lat="40.268633" lon="-4.573533">
        <ele>651.0</ele>
        <time>2018-06-24T15:13:36Z</time>
      </trkpt>
      <trkpt lat="40.268617" lon="-4.573533">
        <ele>652.0</ele>
        <time>2018-06-24T15:13:37Z</time>
      </trkpt>
      <trkpt lat="40.268617" lon="-4.573550">
        <ele>652.0</ele>
        <time>2018-06-24T15:13:38Z</time>
      </trkpt>
      <trkpt lat="40.268617" lon="-4.573567">
        <ele>651.0</ele>
        <time>2018-06-24T15:13:39Z</time>
      </trkpt>
      <trkpt lat="40.268600" lon="-4.573567">
        <ele>651.0</ele>
        <time>2018-06-24T15:13:40Z</time>
      </trkpt>
      <trkpt lat="40.268600" lon="-4.573583">
        <ele>651.0</ele>
        <time>2018-06-24T15:13:41Z</time>
      </trkpt>
      <trkpt lat="40.268583" lon="-4.573600">
        <ele>651.0</ele>
        <time>2018-06-24T15:13:42Z</time>
      </trkpt>
      <trkpt lat="40.268583" lon="-4.573600">
        <ele>651.0</ele>
        <time>2018-06-24T15:13:43Z</time>
      </trkpt>
      <trkpt lat="40.268567" lon="-4.573617">
        <ele>651.0</ele>
        <time>2018-06-24T15:13:44Z</time>
      </trkpt>
      <trkpt lat="40.268567" lon="-4.573633">
        <ele>651.0</ele>
        <time>2018-06-24T15:13:45Z</time>
      </trkpt>
      <trkpt lat="40.268550" lon="-4.573650">
        <ele>651.0</ele>
        <time>2018-06-24T15:13:46Z</time>
      </trkpt>
      <trkpt lat="40.268550" lon="-4.573650">
        <ele>651.0</ele>
        <time>2018-06-24T15:13:47Z</time>
      </trkpt>
      <trkpt lat="40.268533" lon="-4.573667">
        <ele>651.0</ele>
        <time>2018-06-24T15:13:48Z</time>
      </trkpt>
      <trkpt lat="40.268517" lon="-4.573683">
        <ele>651.0</ele>
        <time>2018-06-24T15:13:49Z</time>
      </trkpt>
      <trkpt lat="40.268517" lon="-4.573700">
        <ele>650.0</ele>
        <time>2018-06-24T15:13:50Z</time>
      </trkpt>
      <trkpt lat="40.268500" lon="-4.573700">
        <ele>650.0</ele>
        <time>2018-06-24T15:13:51Z</time>
      </trkpt>
      <trkpt lat="40.268483" lon="-4.573717">
        <ele>650.0</ele>
        <time>2018-06-24T15:13:52Z</time>
      </trkpt>
      <trkpt lat="40.268483" lon="-4.573717">
        <ele>650.0</ele>
        <time>2018-06-24T15:13:53Z</time>
      </trkpt>
      <trkpt lat="40.268467" lon="-4.573733">
        <ele>650.0</ele>
        <time>2018-06-24T15:13:54Z</time>
      </trkpt>
      <trkpt lat="40.268450" lon="-4.573733">
        <ele>649.0</ele>
        <time>2018-06-24T15:13:55Z</time>
      </trkpt>
      <trkpt lat="40.268450" lon="-4.573750">
        <ele>649.0</ele>
        <time>2018-06-24T15:13:56Z</time>
      </trkpt>
      <trkpt lat="40.268450" lon="-4.573767">
        <ele>649.0</ele>
        <time>2018-06-24T15:13:57Z</time>
      </trkpt>
      <trkpt lat="40.268433" lon="-4.573767">
        <ele>650.0</ele>
        <time>2018-06-24T15:13:58Z</time>
      </trkpt>
      <trkpt lat="40.268417" lon="-4.573783">
        <ele>649.0</ele>
        <time>2018-06-24T15:13:59Z</time>
      </trkpt>
      <trkpt lat="40.268400" lon="-4.573783">
        <ele>649.0</ele>
        <time>2018-06-24T15:14:00Z</time>
      </trkpt>
      <trkpt lat="40.268400" lon="-4.573783">
        <ele>650.0</ele>
        <time>2018-06-24T15:14:01Z</time>
      </trkpt>
      <trkpt lat="40.268383" lon="-4.573800">
        <ele>649.0</ele>
        <time>2018-06-24T15:14:02Z</time>
      </trkpt>
      <trkpt lat="40.268367" lon="-4.573800">
        <ele>649.0</ele>
        <time>2018-06-24T15:14:03Z</time>
      </trkpt>
      <trkpt lat="40.268350" lon="-4.573800">
        <ele>649.0</ele>
        <time>2018-06-24T15:14:04Z</time>
      </trkpt>
      <trkpt lat="40.268350" lon="-4.573817">
        <ele>649.0</ele>
        <time>2018-06-24T15:14:05Z</time>
      </trkpt>
      <trkpt lat="40.268333" lon="-4.573833">
        <ele>649.0</ele>
        <time>2018-06-24T15:14:06Z</time>
      </trkpt>
      <trkpt lat="40.268317" lon="-4.573833">
        <ele>649.0</ele>
        <time>2018-06-24T15:14:07Z</time>
      </trkpt>
      <trkpt lat="40.268317" lon="-4.573850">
        <ele>649.0</ele>
        <time>2018-06-24T15:14:08Z</time>
      </trkpt>
      <trkpt lat="40.268300" lon="-4.573867">
        <ele>649.0</ele>
        <time>2018-06-24T15:14:09Z</time>
      </trkpt>
      <trkpt lat="40.268283" lon="-4.573883">
        <ele>648.0</ele>
        <time>2018-06-24T15:14:10Z</time>
      </trkpt>
      <trkpt lat="40.268283" lon="-4.573883">
        <ele>648.0</ele>
        <time>2018-06-24T15:14:11Z</time>
      </trkpt>
      <trkpt lat="40.268283" lon="-4.573900">
        <ele>648.0</ele>
        <time>2018-06-24T15:14:12Z</time>
      </trkpt>
      <trkpt lat="40.268267" lon="-4.573917">
        <ele>648.0</ele>
        <time>2018-06-24T15:14:13Z</time>
      </trkpt>
      <trkpt lat="40.268267" lon="-4.573933">
        <ele>647.0</ele>
        <time>2018-06-24T15:14:14Z</time>
      </trkpt>
      <trkpt lat="40.268250" lon="-4.573933">
        <ele>647.0</ele>
        <time>2018-06-24T15:14:15Z</time>
      </trkpt>
      <trkpt lat="40.268233" lon="-4.573933">
        <ele>647.0</ele>
        <time>2018-06-24T15:14:16Z</time>
      </trkpt>
      <trkpt lat="40.268217" lon="-4.573933">
        <ele>647.0</ele>
        <time>2018-06-24T15:14:17Z</time>
      </trkpt>
      <trkpt lat="40.268217" lon="-4.573917">
        <ele>647.0</ele>
        <time>2018-06-24T15:14:18Z</time>
      </trkpt>
      <trkpt lat="40.268200" lon="-4.573917">
        <ele>647.0</ele>
        <time>2018-06-24T15:14:19Z</time>
      </trkpt>
      <trkpt lat="40.268183" lon="-4.573917">
        <ele>647.0</ele>
        <time>2018-06-24T15:14:20Z</time>
      </trkpt>
      <trkpt lat="40.268183" lon="-4.573917">
        <ele>647.0</ele>
        <time>2018-06-24T15:14:21Z</time>
      </trkpt>
      <trkpt lat="40.268167" lon="-4.573917">
        <ele>647.0</ele>
        <time>2018-06-24T15:14:22Z</time>
      </trkpt>
      <trkpt lat="40.268150" lon="-4.573933">
        <ele>647.0</ele>
        <time>2018-06-24T15:14:23Z</time>
      </trkpt>
      <trkpt lat="40.268150" lon="-4.573950">
        <ele>647.0</ele>
        <time>2018-06-24T15:14:24Z</time>
      </trkpt>
      <trkpt lat="40.268133" lon="-4.573967">
        <ele>647.0</ele>
        <time>2018-06-24T15:14:25Z</time>
      </trkpt>
      <trkpt lat="40.268133" lon="-4.573967">
        <ele>647.0</ele>
        <time>2018-06-24T15:14:26Z</time>
      </trkpt>
      <trkpt lat="40.268133" lon="-4.573983">
        <ele>647.0</ele>
        <time>2018-06-24T15:14:27Z</time>
      </trkpt>
      <trkpt lat="40.268117" lon="-4.574000">
        <ele>646.0</ele>
        <time>2018-06-24T15:14:28Z</time>
      </trkpt>
      <trkpt lat="40.268117" lon="-4.574017">
        <ele>646.0</ele>
        <time>2018-06-24T15:14:29Z</time>
      </trkpt>
      <trkpt lat="40.268100" lon="-4.574033">
        <ele>646.0</ele>
        <time>2018-06-24T15:14:30Z</time>
      </trkpt>
      <trkpt lat="40.268100" lon="-4.574050">
        <ele>646.0</ele>
        <time>2018-06-24T15:14:31Z</time>
      </trkpt>
      <trkpt lat="40.268100" lon="-4.574067">
        <ele>646.0</ele>
        <time>2018-06-24T15:14:32Z</time>
      </trkpt>
      <trkpt lat="40.268083" lon="-4.574067">
        <ele>645.0</ele>
        <time>2018-06-24T15:14:33Z</time>
      </trkpt>
      <trkpt lat="40.268083" lon="-4.574083">
        <ele>645.0</ele>
        <time>2018-06-24T15:14:34Z</time>
      </trkpt>
      <trkpt lat="40.268083" lon="-4.574100">
        <ele>645.0</ele>
        <time>2018-06-24T15:14:35Z</time>
      </trkpt>
      <trkpt lat="40.268083" lon="-4.574117">
        <ele>645.0</ele>
        <time>2018-06-24T15:14:36Z</time>
      </trkpt>
      <trkpt lat="40.268067" lon="-4.574133">
        <ele>645.0</ele>
        <time>2018-06-24T15:14:37Z</time>
      </trkpt>
      <trkpt lat="40.268067" lon="-4.574150">
        <ele>645.0</ele>
        <time>2018-06-24T15:14:38Z</time>
      </trkpt>
      <trkpt lat="40.268067" lon="-4.574167">
        <ele>645.0</ele>
        <time>2018-06-24T15:14:39Z</time>
      </trkpt>
      <trkpt lat="40.268050" lon="-4.574183">
        <ele>645.0</ele>
        <time>2018-06-24T15:14:40Z</time>
      </trkpt>
      <trkpt lat="40.268050" lon="-4.574200">
        <ele>645.0</ele>
        <time>2018-06-24T15:14:41Z</time>
      </trkpt>
      <trkpt lat="40.268050" lon="-4.574217">
        <ele>645.0</ele>
        <time>2018-06-24T15:14:42Z</time>
      </trkpt>
      <trkpt lat="40.268050" lon="-4.574233">
        <ele>645.0</ele>
        <time>2018-06-24T15:14:43Z</time>
      </trkpt>
      <trkpt lat="40.268033" lon="-4.574250">
        <ele>645.0</ele>
        <time>2018-06-24T15:14:44Z</time>
      </trkpt>
      <trkpt lat="40.268033" lon="-4.574267">
        <ele>645.0</ele>
        <time>2018-06-24T15:14:45Z</time>
      </trkpt>
      <trkpt lat="40.268033" lon="-4.574283">
        <ele>645.0</ele>
        <time>2018-06-24T15:14:46Z</time>
      </trkpt>
      <trkpt lat="40.268033" lon="-4.574300">
        <ele>645.0</ele>
        <time>2018-06-24T15:14:47Z</time>
      </trkpt>
      <trkpt lat="40.268033" lon="-4.574317">
        <ele>645.0</ele>
        <time>2018-06-24T15:14:48Z</time>
      </trkpt>
      <trkpt lat="40.268033" lon="-4.574333">
        <ele>644.0</ele>
        <time>2018-06-24T15:14:49Z</time>
      </trkpt>
      <trkpt lat="40.268017" lon="-4.574350">
        <ele>644.0</ele>
        <time>2018-06-24T15:14:50Z</time>
      </trkpt>
      <trkpt lat="40.268017" lon="-4.574367">
        <ele>644.0</ele>
        <time>2018-06-24T15:14:51Z</time>
      </trkpt>
      <trkpt lat="40.268017" lon="-4.574383">
        <ele>644.0</ele>
        <time>2018-06-24T15:14:52Z</time>
      </trkpt>
      <trkpt lat="40.268017" lon="-4.574383">
        <ele>644.0</ele>
        <time>2018-06-24T15:14:53Z</time>
      </trkpt>
      <trkpt lat="40.268017" lon="-4.574400">
        <ele>644.0</ele>
        <time>2018-06-24T15:14:54Z</time>
      </trkpt>
      <trkpt lat="40.268000" lon="-4.574417">
        <ele>644.0</ele>
        <time>2018-06-24T15:14:55Z</time>
      </trkpt>
      <trkpt lat="40.268000" lon="-4.574433">
        <ele>643.0</ele>
        <time>2018-06-24T15:14:56Z</time>
      </trkpt>
      <trkpt lat="40.268000" lon="-4.574417">
        <ele>643.0</ele>
        <time>2018-06-24T15:14:57Z</time>
      </trkpt>
      <trkpt lat="40.268000" lon="-4.574417">
        <ele>643.0</ele>
        <time>2018-06-24T15:14:58Z</time>
      </trkpt>
      <trkpt lat="40.268000" lon="-4.574417">
        <ele>643.0</ele>
        <time>2018-06-24T15:14:59Z</time>
      </trkpt>
      <trkpt lat="40.268000" lon="-4.574433">
        <ele>642.0</ele>
        <time>2018-06-24T15:15:00Z</time>
      </trkpt>
      <trkpt lat="40.268000" lon="-4.574433">
        <ele>642.0</ele>
        <time>2018-06-24T15:15:01Z</time>
      </trkpt>
      <trkpt lat="40.268000" lon="-4.574433">
        <ele>643.0</ele>
        <time>2018-06-24T15:15:02Z</time>
      </trkpt>
      <trkpt lat="40.268000" lon="-4.574433">
        <ele>644.0</ele>
        <time>2018-06-24T15:15:03Z</time>
      </trkpt>
      <trkpt lat="40.268000" lon="-4.574433">
        <ele>645.0</ele>
        <time>2018-06-24T15:15:04Z</time>
      </trkpt>
      <trkpt lat="40.268000" lon="-4.574433">
        <ele>645.0</ele>
        <time>2018-06-24T15:15:05Z</time>
      </trkpt>
      <trkpt lat="40.268000" lon="-4.574433">
        <ele>645.0</ele>
        <time>2018-06-24T15:15:06Z</time>
      </trkpt>
      <trkpt lat="40.268000" lon="-4.574433">
        <ele>645.0</ele>
        <time>2018-06-24T15:15:07Z</time>
      </trkpt>
      <trkpt lat="40.267983" lon="-4.574433">
        <ele>645.0</ele>
        <time>2018-06-24T15:15:08Z</time>
      </trkpt>
      <trkpt lat="40.267983" lon="-4.574433">
        <ele>645.0</ele>
        <time>2018-06-24T15:15:09Z</time>
      </trkpt>
      <trkpt lat="40.267983" lon="-4.574433">
        <ele>645.0</ele>
        <time>2018-06-24T15:15:10Z</time>
      </trkpt>
      <trkpt lat="40.267983" lon="-4.574433">
        <ele>645.0</ele>
        <time>2018-06-24T15:15:11Z</time>
      </trkpt>
      <trkpt lat="40.267983" lon="-4.574433">
        <ele>645.0</ele>
        <time>2018-06-24T15:15:12Z</time>
      </trkpt>
      <trkpt lat="40.267983" lon="-4.574417">
        <ele>645.0</ele>
        <time>2018-06-24T15:15:13Z</time>
      </trkpt>
      <trkpt lat="40.267983" lon="-4.574417">
        <ele>645.0</ele>
        <time>2018-06-24T15:15:14Z</time>
      </trkpt>
      <trkpt lat="40.267983" lon="-4.574417">
        <ele>645.0</ele>
        <time>2018-06-24T15:15:15Z</time>
      </trkpt>
      <trkpt lat="40.267983" lon="-4.574417">
        <ele>646.0</ele>
        <time>2018-06-24T15:15:16Z</time>
      </trkpt>
      <trkpt lat="40.267983" lon="-4.574417">
        <ele>646.0</ele>
        <time>2018-06-24T15:15:17Z</time>
      </trkpt>
      <trkpt lat="40.267983" lon="-4.574417">
        <ele>646.0</ele>
        <time>2018-06-24T15:15:18Z</time>
      </trkpt>
      <trkpt lat="40.267983" lon="-4.574417">
        <ele>646.0</ele>
        <time>2018-06-24T15:15:19Z</time>
      </trkpt>
      <trkpt lat="40.267983" lon="-4.574417">
        <ele>646.0</ele>
        <time>2018-06-24T15:15:20Z</time>
      </trkpt>
      <trkpt lat="40.267983" lon="-4.574417">
        <ele>646.0</ele>
        <time>2018-06-24T15:15:21Z</time>
      </trkpt>
      <trkpt lat="40.267983" lon="-4.574433">
        <ele>646.0</ele>
        <time>2018-06-24T15:15:22Z</time>
      </trkpt>
      <trkpt lat="40.267983" lon="-4.574433">
        <ele>646.0</ele>
        <time>2018-06-24T15:15:23Z</time>
      </trkpt>
      <trkpt lat="40.267983" lon="-4.574417">
        <ele>646.0</ele>
        <time>2018-06-24T15:15:24Z</time>
      </trkpt>
      <trkpt lat="40.267983" lon="-4.574417">
        <ele>646.0</ele>
        <time>2018-06-24T15:15:25Z</time>
      </trkpt>
      <trkpt lat="40.267983" lon="-4.574417">
        <ele>647.0</ele>
        <time>2018-06-24T15:15:26Z</time>
      </trkpt>
      <trkpt lat="40.267983" lon="-4.574417">
        <ele>646.0</ele>
        <time>2018-06-24T15:15:27Z</time>
      </trkpt>
      <trkpt lat="40.267983" lon="-4.574417">
        <ele>647.0</ele>
        <time>2018-06-24T15:15:28Z</time>
      </trkpt>
      <trkpt lat="40.267983" lon="-4.574417">
        <ele>646.0</ele>
        <time>2018-06-24T15:15:29Z</time>
      </trkpt>
      <trkpt lat="40.267983" lon="-4.574417">
        <ele>646.0</ele>
        <time>2018-06-24T15:15:30Z</time>
      </trkpt>
      <trkpt lat="40.267983" lon="-4.574417">
        <ele>646.0</ele>
        <time>2018-06-24T15:15:31Z</time>
      </trkpt>
      <trkpt lat="40.267983" lon="-4.574417">
        <ele>646.0</ele>
        <time>2018-06-24T15:15:32Z</time>
      </trkpt>
      <trkpt lat="40.267983" lon="-4.574417">
        <ele>646.0</ele>
        <time>2018-06-24T15:15:33Z</time>
      </trkpt>
      <trkpt lat="40.267983" lon="-4.574417">
        <ele>646.0</ele>
        <time>2018-06-24T15:15:34Z</time>
      </trkpt>
      <trkpt lat="40.267983" lon="-4.574417">
        <ele>646.0</ele>
        <time>2018-06-24T15:15:35Z</time>
      </trkpt>
      <trkpt lat="40.267983" lon="-4.574417">
        <ele>646.0</ele>
        <time>2018-06-24T15:15:36Z</time>
      </trkpt>
      <trkpt lat="40.267983" lon="-4.574417">
        <ele>646.0</ele>
        <time>2018-06-24T15:15:37Z</time>
      </trkpt>
      <trkpt lat="40.267983" lon="-4.574417">
        <ele>646.0</ele>
        <time>2018-06-24T15:15:38Z</time>
      </trkpt>
      <trkpt lat="40.267983" lon="-4.574417">
        <ele>646.0</ele>
        <time>2018-06-24T15:15:39Z</time>
      </trkpt>
      <trkpt lat="40.267983" lon="-4.574417">
        <ele>646.0</ele>
        <time>2018-06-24T15:15:40Z</time>
      </trkpt>
      <trkpt lat="40.267983" lon="-4.574417">
        <ele>647.0</ele>
        <time>2018-06-24T15:15:41Z</time>
      </trkpt>
      <trkpt lat="40.267983" lon="-4.574400">
        <ele>647.0</ele>
        <time>2018-06-24T15:15:42Z</time>
      </trkpt>
      <trkpt lat="40.267983" lon="-4.574417">
        <ele>647.0</ele>
        <time>2018-06-24T15:15:43Z</time>
      </trkpt>
      <trkpt lat="40.267983" lon="-4.574417">
        <ele>647.0</ele>
        <time>2018-06-24T15:15:44Z</time>
      </trkpt>
      <trkpt lat="40.267983" lon="-4.574417">
        <ele>647.0</ele>
        <time>2018-06-24T15:15:45Z</time>
      </trkpt>
      <trkpt lat="40.267983" lon="-4.574417">
        <ele>647.0</ele>
        <time>2018-06-24T15:15:46Z</time>
      </trkpt>
      <trkpt lat="40.267983" lon="-4.574417">
        <ele>647.0</ele>
        <time>2018-06-24T15:15:47Z</time>
      </trkpt>
      <trkpt lat="40.267983" lon="-4.574417">
        <ele>647.0</ele>
        <time>2018-06-24T15:15:48Z</time>
      </trkpt>
      <trkpt lat="40.267983" lon="-4.574417">
        <ele>647.0</ele>
        <time>2018-06-24T15:15:49Z</time>
      </trkpt>
      <trkpt lat="40.268000" lon="-4.574433">
        <ele>647.0</ele>
        <time>2018-06-24T15:15:50Z</time>
      </trkpt>
      <trkpt lat="40.268000" lon="-4.574433">
        <ele>647.0</ele>
        <time>2018-06-24T15:15:51Z</time>
      </trkpt>
      <trkpt lat="40.268000" lon="-4.574450">
        <ele>647.0</ele>
        <time>2018-06-24T15:15:52Z</time>
      </trkpt>
      <trkpt lat="40.268000" lon="-4.574450">
        <ele>647.0</ele>
        <time>2018-06-24T15:15:53Z</time>
      </trkpt>
      <trkpt lat="40.268000" lon="-4.574467">
        <ele>647.0</ele>
        <time>2018-06-24T15:15:54Z</time>
      </trkpt>
      <trkpt lat="40.268000" lon="-4.574483">
        <ele>647.0</ele>
        <time>2018-06-24T15:15:55Z</time>
      </trkpt>
      <trkpt lat="40.268000" lon="-4.574483">
        <ele>647.0</ele>
        <time>2018-06-24T15:15:56Z</time>
      </trkpt>
      <trkpt lat="40.268000" lon="-4.574483">
        <ele>648.0</ele>
        <time>2018-06-24T15:15:57Z</time>
      </trkpt>
      <trkpt lat="40.267983" lon="-4.574483">
        <ele>648.0</ele>
        <time>2018-06-24T15:15:58Z</time>
      </trkpt>
      <trkpt lat="40.267983" lon="-4.574483">
        <ele>648.0</ele>
        <time>2018-06-24T15:15:59Z</time>
      </trkpt>
      <trkpt lat="40.267983" lon="-4.574500">
        <ele>648.0</ele>
        <time>2018-06-24T15:16:00Z</time>
      </trkpt>
      <trkpt lat="40.267983" lon="-4.574500">
        <ele>649.0</ele>
        <time>2018-06-24T15:16:01Z</time>
      </trkpt>
      <trkpt lat="40.268000" lon="-4.574500">
        <ele>648.0</ele>
        <time>2018-06-24T15:16:02Z</time>
      </trkpt>
      <trkpt lat="40.268000" lon="-4.574500">
        <ele>648.0</ele>
        <time>2018-06-24T15:16:03Z</time>
      </trkpt>
      <trkpt lat="40.268000" lon="-4.574517">
        <ele>648.0</ele>
        <time>2018-06-24T15:16:04Z</time>
      </trkpt>
      <trkpt lat="40.268000" lon="-4.574533">
        <ele>649.0</ele>
        <time>2018-06-24T15:16:05Z</time>
      </trkpt>
      <trkpt lat="40.268000" lon="-4.574533">
        <ele>649.0</ele>
        <time>2018-06-24T15:16:06Z</time>
      </trkpt>
      <trkpt lat="40.267983" lon="-4.574533">
        <ele>649.0</ele>
        <time>2018-06-24T15:16:07Z</time>
      </trkpt>
      <trkpt lat="40.267983" lon="-4.574550">
        <ele>648.0</ele>
        <time>2018-06-24T15:16:08Z</time>
      </trkpt>
      <trkpt lat="40.267983" lon="-4.574550">
        <ele>648.0</ele>
        <time>2018-06-24T15:16:09Z</time>
      </trkpt>
      <trkpt lat="40.267983" lon="-4.574550">
        <ele>649.0</ele>
        <time>2018-06-24T15:16:10Z</time>
      </trkpt>
      <trkpt lat="40.268000" lon="-4.574550">
        <ele>649.0</ele>
        <time>2018-06-24T15:16:11Z</time>
      </trkpt>
      <trkpt lat="40.268000" lon="-4.574550">
        <ele>649.0</ele>
        <time>2018-06-24T15:16:12Z</time>
      </trkpt>
      <trkpt lat="40.268017" lon="-4.574550">
        <ele>649.0</ele>
        <time>2018-06-24T15:16:13Z</time>
      </trkpt>
      <trkpt lat="40.268017" lon="-4.574550">
        <ele>649.0</ele>
        <time>2018-06-24T15:16:14Z</time>
      </trkpt>
      <trkpt lat="40.268017" lon="-4.574550">
        <ele>649.0</ele>
        <time>2018-06-24T15:16:15Z</time>
      </trkpt>
      <trkpt lat="40.268017" lon="-4.574550">
        <ele>649.0</ele>
        <time>2018-06-24T15:16:16Z</time>
      </trkpt>
      <trkpt lat="40.268017" lon="-4.574550">
        <ele>649.0</ele>
        <time>2018-06-24T15:16:17Z</time>
      </trkpt>
      <trkpt lat="40.268017" lon="-4.574550">
        <ele>649.0</ele>
        <time>2018-06-24T15:16:18Z</time>
      </trkpt>
      <trkpt lat="40.268017" lon="-4.574550">
        <ele>649.0</ele>
        <time>2018-06-24T15:16:19Z</time>
      </trkpt>
      <trkpt lat="40.268017" lon="-4.574550">
        <ele>650.0</ele>
        <time>2018-06-24T15:16:20Z</time>
      </trkpt>
      <trkpt lat="40.268017" lon="-4.574550">
        <ele>650.0</ele>
        <time>2018-06-24T15:16:21Z</time>
      </trkpt>
      <trkpt lat="40.268017" lon="-4.574550">
        <ele>649.0</ele>
        <time>2018-06-24T15:16:22Z</time>
      </trkpt>
      <trkpt lat="40.268017" lon="-4.574550">
        <ele>650.0</ele>
        <time>2018-06-24T15:16:23Z</time>
      </trkpt>
      <trkpt lat="40.268017" lon="-4.574550">
        <ele>650.0</ele>
        <time>2018-06-24T15:16:24Z</time>
      </trkpt>
      <trkpt lat="40.268017" lon="-4.574550">
        <ele>650.0</ele>
        <time>2018-06-24T15:16:25Z</time>
      </trkpt>
      <trkpt lat="40.268000" lon="-4.574550">
        <ele>650.0</ele>
        <time>2018-06-24T15:16:26Z</time>
      </trkpt>
    </trkseg>
  </trk>
</gpx>
